<?xml version="1.0" encoding="UTF-8" standalone="no" ?>
<gpx xmlns="http://www.topografix.com/GPX/1/1" xmlns:xsi="http://www.w3.org/2001/XMLSchema-instance" xsi:schemaLocation="http://www.topografix.com/GPX/1/1 http://www.topografix.com/GPX/1/1/gpx.xsd" version="1.1" creator="VisuGPX - https://www.visugpx.com">
  <metadata>
    <name> Les Gorges du Benquet</name>
    <desc><![CDATA[Trace AlpineQuest 22/05/2021 10:17:25 AM]]></desc>
  </metadata>
  <trk>
    <name><![CDATA[ Les Gorges du Benquet_1]]></name>
    <trkseg>
      <trkpt lat="43.52516" lon="2.4613">
        <ele>580.234</ele>
        <time>2021-05-22T08:17:25Z</time>
      </trkpt>
      <trkpt lat="43.52516" lon="2.46127">
        <ele>579.658</ele>
        <time>2021-05-22T08:17:27Z</time>
      </trkpt>
      <trkpt lat="43.52514" lon="2.46126">
        <ele>576.672</ele>
        <time>2021-05-22T08:17:29Z</time>
      </trkpt>
      <trkpt lat="43.52515" lon="2.46125">
        <ele>578.518</ele>
        <time>2021-05-22T08:17:31Z</time>
      </trkpt>
      <trkpt lat="43.52514" lon="2.46125">
        <ele>578.82</ele>
        <time>2021-05-22T08:17:33Z</time>
      </trkpt>
      <trkpt lat="43.52514" lon="2.46125">
        <ele>578.117</ele>
        <time>2021-05-22T08:17:35Z</time>
      </trkpt>
      <trkpt lat="43.52514" lon="2.46125">
        <ele>579.257</ele>
        <time>2021-05-22T08:17:37Z</time>
      </trkpt>
      <trkpt lat="43.52514" lon="2.46125">
        <ele>579.322</ele>
        <time>2021-05-22T08:17:39Z</time>
      </trkpt>
      <trkpt lat="43.52514" lon="2.46125">
        <ele>578.669</ele>
        <time>2021-05-22T08:17:41Z</time>
      </trkpt>
      <trkpt lat="43.52515" lon="2.46126">
        <ele>578.367</ele>
        <time>2021-05-22T08:17:43Z</time>
      </trkpt>
      <trkpt lat="43.52514" lon="2.46125">
        <ele>577.562</ele>
        <time>2021-05-22T08:17:45Z</time>
      </trkpt>
      <trkpt lat="43.52513" lon="2.46125">
        <ele>577.984</ele>
        <time>2021-05-22T08:17:47Z</time>
      </trkpt>
      <trkpt lat="43.52513" lon="2.46125">
        <ele>577.854</ele>
        <time>2021-05-22T08:17:49Z</time>
      </trkpt>
      <trkpt lat="43.52514" lon="2.46125">
        <ele>577.764</ele>
        <time>2021-05-22T08:17:51Z</time>
      </trkpt>
      <trkpt lat="43.52514" lon="2.46125">
        <ele>577.991</ele>
        <time>2021-05-22T08:17:53Z</time>
      </trkpt>
      <trkpt lat="43.52514" lon="2.46124">
        <ele>578.541</ele>
        <time>2021-05-22T08:17:55Z</time>
      </trkpt>
      <trkpt lat="43.52514" lon="2.46124">
        <ele>578.86</ele>
        <time>2021-05-22T08:17:57Z</time>
      </trkpt>
      <trkpt lat="43.52514" lon="2.46124">
        <ele>578.829</ele>
        <time>2021-05-22T08:17:59Z</time>
      </trkpt>
      <trkpt lat="43.52514" lon="2.46125">
        <ele>579.082</ele>
        <time>2021-05-22T08:18:01Z</time>
      </trkpt>
      <trkpt lat="43.52512" lon="2.46126">
        <ele>578.539</ele>
        <time>2021-05-22T08:18:03Z</time>
      </trkpt>
      <trkpt lat="43.52511" lon="2.46127">
        <ele>578.646</ele>
        <time>2021-05-22T08:18:05Z</time>
      </trkpt>
      <trkpt lat="43.52511" lon="2.46128">
        <ele>577.866</ele>
        <time>2021-05-22T08:18:07Z</time>
      </trkpt>
      <trkpt lat="43.52512" lon="2.46127">
        <ele>576.429</ele>
        <time>2021-05-22T08:18:09Z</time>
      </trkpt>
      <trkpt lat="43.52512" lon="2.46128">
        <ele>576.607</ele>
        <time>2021-05-22T08:18:11Z</time>
      </trkpt>
      <trkpt lat="43.5251" lon="2.46128">
        <ele>576.772</ele>
        <time>2021-05-22T08:18:13Z</time>
      </trkpt>
      <trkpt lat="43.52509" lon="2.4613">
        <ele>576.793</ele>
        <time>2021-05-22T08:18:15Z</time>
      </trkpt>
      <trkpt lat="43.52507" lon="2.4613">
        <ele>576.485</ele>
        <time>2021-05-22T08:18:17Z</time>
      </trkpt>
      <trkpt lat="43.52504" lon="2.4613">
        <ele>576.591</ele>
        <time>2021-05-22T08:18:19Z</time>
      </trkpt>
      <trkpt lat="43.52503" lon="2.4613">
        <ele>577.277</ele>
        <time>2021-05-22T08:18:21Z</time>
      </trkpt>
      <trkpt lat="43.52501" lon="2.46131">
        <ele>577.773</ele>
        <time>2021-05-22T08:18:23Z</time>
      </trkpt>
      <trkpt lat="43.52499" lon="2.46132">
        <ele>577.693</ele>
        <time>2021-05-22T08:18:25Z</time>
      </trkpt>
      <trkpt lat="43.52498" lon="2.46134">
        <ele>577.985</ele>
        <time>2021-05-22T08:18:27Z</time>
      </trkpt>
      <trkpt lat="43.52496" lon="2.46135">
        <ele>576.279</ele>
        <time>2021-05-22T08:18:29Z</time>
      </trkpt>
      <trkpt lat="43.52494" lon="2.46136">
        <ele>575.643</ele>
        <time>2021-05-22T08:18:31Z</time>
      </trkpt>
      <trkpt lat="43.52492" lon="2.46139">
        <ele>577.68</ele>
        <time>2021-05-22T08:18:33Z</time>
      </trkpt>
      <trkpt lat="43.52491" lon="2.46141">
        <ele>576.703</ele>
        <time>2021-05-22T08:18:35Z</time>
      </trkpt>
      <trkpt lat="43.52489" lon="2.46142">
        <ele>573.889</ele>
        <time>2021-05-22T08:18:37Z</time>
      </trkpt>
      <trkpt lat="43.52487" lon="2.46144">
        <ele>574.849</ele>
        <time>2021-05-22T08:18:39Z</time>
      </trkpt>
      <trkpt lat="43.52485" lon="2.46146">
        <ele>574.342</ele>
        <time>2021-05-22T08:18:41Z</time>
      </trkpt>
      <trkpt lat="43.52484" lon="2.46148">
        <ele>574.329</ele>
        <time>2021-05-22T08:18:43Z</time>
      </trkpt>
      <trkpt lat="43.52483" lon="2.46149">
        <ele>572.955</ele>
        <time>2021-05-22T08:18:45Z</time>
      </trkpt>
      <trkpt lat="43.52481" lon="2.4615">
        <ele>572.991</ele>
        <time>2021-05-22T08:18:47Z</time>
      </trkpt>
      <trkpt lat="43.52479" lon="2.46151">
        <ele>573.452</ele>
        <time>2021-05-22T08:18:49Z</time>
      </trkpt>
      <trkpt lat="43.52478" lon="2.46154">
        <ele>573.372</ele>
        <time>2021-05-22T08:18:51Z</time>
      </trkpt>
      <trkpt lat="43.52477" lon="2.46156">
        <ele>574.007</ele>
        <time>2021-05-22T08:18:53Z</time>
      </trkpt>
      <trkpt lat="43.52475" lon="2.46157">
        <ele>573.303</ele>
        <time>2021-05-22T08:18:55Z</time>
      </trkpt>
      <trkpt lat="43.52472" lon="2.46158">
        <ele>573.087</ele>
        <time>2021-05-22T08:18:57Z</time>
      </trkpt>
      <trkpt lat="43.5247" lon="2.46159">
        <ele>573.228</ele>
        <time>2021-05-22T08:18:59Z</time>
      </trkpt>
      <trkpt lat="43.52469" lon="2.46158">
        <ele>573.555</ele>
        <time>2021-05-22T08:19:01Z</time>
      </trkpt>
      <trkpt lat="43.52468" lon="2.46157">
        <ele>574.915</ele>
        <time>2021-05-22T08:19:03Z</time>
      </trkpt>
      <trkpt lat="43.52467" lon="2.46155">
        <ele>574.941</ele>
        <time>2021-05-22T08:19:05Z</time>
      </trkpt>
      <trkpt lat="43.52466" lon="2.46152">
        <ele>575.439</ele>
        <time>2021-05-22T08:19:07Z</time>
      </trkpt>
      <trkpt lat="43.52465" lon="2.46152">
        <ele>575.694</ele>
        <time>2021-05-22T08:19:09Z</time>
      </trkpt>
      <trkpt lat="43.52464" lon="2.46153">
        <ele>578.415</ele>
        <time>2021-05-22T08:19:11Z</time>
      </trkpt>
      <trkpt lat="43.52464" lon="2.46154">
        <ele>578.316</ele>
        <time>2021-05-22T08:19:13Z</time>
      </trkpt>
      <trkpt lat="43.52465" lon="2.46155">
        <ele>578.775</ele>
        <time>2021-05-22T08:19:15Z</time>
      </trkpt>
      <trkpt lat="43.52465" lon="2.46155">
        <ele>578.77</ele>
        <time>2021-05-22T08:19:17Z</time>
      </trkpt>
      <trkpt lat="43.52465" lon="2.46156">
        <ele>578.565</ele>
        <time>2021-05-22T08:19:19Z</time>
      </trkpt>
      <trkpt lat="43.52465" lon="2.46159">
        <ele>579.245</ele>
        <time>2021-05-22T08:19:21Z</time>
      </trkpt>
      <trkpt lat="43.52465" lon="2.46162">
        <ele>579.513</ele>
        <time>2021-05-22T08:19:23Z</time>
      </trkpt>
      <trkpt lat="43.52466" lon="2.46164">
        <ele>579.84</ele>
        <time>2021-05-22T08:19:25Z</time>
      </trkpt>
      <trkpt lat="43.52468" lon="2.46165">
        <ele>579.67</ele>
        <time>2021-05-22T08:19:27Z</time>
      </trkpt>
      <trkpt lat="43.52469" lon="2.46169">
        <ele>580.217</ele>
        <time>2021-05-22T08:19:29Z</time>
      </trkpt>
      <trkpt lat="43.52471" lon="2.46171">
        <ele>579.689</ele>
        <time>2021-05-22T08:19:31Z</time>
      </trkpt>
      <trkpt lat="43.52472" lon="2.46173">
        <ele>580.142</ele>
        <time>2021-05-22T08:19:33Z</time>
      </trkpt>
      <trkpt lat="43.52472" lon="2.46175">
        <ele>580.71</ele>
        <time>2021-05-22T08:19:35Z</time>
      </trkpt>
      <trkpt lat="43.52472" lon="2.46177">
        <ele>582.275</ele>
        <time>2021-05-22T08:19:37Z</time>
      </trkpt>
      <trkpt lat="43.52471" lon="2.46177">
        <ele>581.979</ele>
        <time>2021-05-22T08:19:39Z</time>
      </trkpt>
      <trkpt lat="43.52472" lon="2.46177">
        <ele>581.583</ele>
        <time>2021-05-22T08:19:41Z</time>
      </trkpt>
      <trkpt lat="43.52473" lon="2.46178">
        <ele>581.707</ele>
        <time>2021-05-22T08:19:43Z</time>
      </trkpt>
      <trkpt lat="43.52475" lon="2.4618">
        <ele>582.158</ele>
        <time>2021-05-22T08:19:45Z</time>
      </trkpt>
      <trkpt lat="43.52476" lon="2.46182">
        <ele>582.251</ele>
        <time>2021-05-22T08:19:47Z</time>
      </trkpt>
      <trkpt lat="43.52477" lon="2.46183">
        <ele>582.413</ele>
        <time>2021-05-22T08:19:49Z</time>
      </trkpt>
      <trkpt lat="43.5248" lon="2.46184">
        <ele>582.657</ele>
        <time>2021-05-22T08:19:51Z</time>
      </trkpt>
      <trkpt lat="43.52482" lon="2.46186">
        <ele>583.351</ele>
        <time>2021-05-22T08:19:53Z</time>
      </trkpt>
      <trkpt lat="43.52483" lon="2.46186">
        <ele>583.234</ele>
        <time>2021-05-22T08:19:55Z</time>
      </trkpt>
      <trkpt lat="43.52485" lon="2.46187">
        <ele>583.716</ele>
        <time>2021-05-22T08:19:57Z</time>
      </trkpt>
      <trkpt lat="43.52487" lon="2.46187">
        <ele>583.228</ele>
        <time>2021-05-22T08:19:59Z</time>
      </trkpt>
      <trkpt lat="43.52489" lon="2.46188">
        <ele>583.55</ele>
        <time>2021-05-22T08:20:01Z</time>
      </trkpt>
      <trkpt lat="43.52491" lon="2.46189">
        <ele>583.422</ele>
        <time>2021-05-22T08:20:03Z</time>
      </trkpt>
      <trkpt lat="43.52492" lon="2.4619">
        <ele>583.564</ele>
        <time>2021-05-22T08:20:05Z</time>
      </trkpt>
      <trkpt lat="43.52493" lon="2.46191">
        <ele>583.618</ele>
        <time>2021-05-22T08:20:07Z</time>
      </trkpt>
      <trkpt lat="43.52495" lon="2.46192">
        <ele>584.427</ele>
        <time>2021-05-22T08:20:09Z</time>
      </trkpt>
      <trkpt lat="43.52497" lon="2.46193">
        <ele>584.19</ele>
        <time>2021-05-22T08:20:11Z</time>
      </trkpt>
      <trkpt lat="43.52499" lon="2.46194">
        <ele>582.89</ele>
        <time>2021-05-22T08:20:13Z</time>
      </trkpt>
      <trkpt lat="43.52501" lon="2.46196">
        <ele>583.082</ele>
        <time>2021-05-22T08:20:15Z</time>
      </trkpt>
      <trkpt lat="43.52503" lon="2.46197">
        <ele>583.663</ele>
        <time>2021-05-22T08:20:17Z</time>
      </trkpt>
      <trkpt lat="43.52505" lon="2.46197">
        <ele>584.294</ele>
        <time>2021-05-22T08:20:19Z</time>
      </trkpt>
      <trkpt lat="43.52505" lon="2.46197">
        <ele>584.284</ele>
        <time>2021-05-22T08:20:21Z</time>
      </trkpt>
      <trkpt lat="43.52505" lon="2.46197">
        <ele>584.287</ele>
        <time>2021-05-22T08:20:23Z</time>
      </trkpt>
      <trkpt lat="43.52505" lon="2.46197">
        <ele>584.292</ele>
        <time>2021-05-22T08:20:25Z</time>
      </trkpt>
      <trkpt lat="43.52506" lon="2.46198">
        <ele>584.264</ele>
        <time>2021-05-22T08:20:27Z</time>
      </trkpt>
      <trkpt lat="43.52508" lon="2.46198">
        <ele>583.893</ele>
        <time>2021-05-22T08:20:29Z</time>
      </trkpt>
      <trkpt lat="43.5251" lon="2.46199">
        <ele>585.294</ele>
        <time>2021-05-22T08:20:31Z</time>
      </trkpt>
      <trkpt lat="43.52511" lon="2.46201">
        <ele>585.163</ele>
        <time>2021-05-22T08:20:33Z</time>
      </trkpt>
      <trkpt lat="43.52513" lon="2.46203">
        <ele>585.935</ele>
        <time>2021-05-22T08:20:35Z</time>
      </trkpt>
      <trkpt lat="43.52515" lon="2.46204">
        <ele>586.264</ele>
        <time>2021-05-22T08:20:37Z</time>
      </trkpt>
      <trkpt lat="43.52517" lon="2.46206">
        <ele>586.547</ele>
        <time>2021-05-22T08:20:39Z</time>
      </trkpt>
      <trkpt lat="43.52519" lon="2.46207">
        <ele>586.771</ele>
        <time>2021-05-22T08:20:41Z</time>
      </trkpt>
      <trkpt lat="43.52521" lon="2.4621">
        <ele>587.07</ele>
        <time>2021-05-22T08:20:43Z</time>
      </trkpt>
      <trkpt lat="43.52522" lon="2.46213">
        <ele>587.057</ele>
        <time>2021-05-22T08:20:45Z</time>
      </trkpt>
      <trkpt lat="43.52523" lon="2.46216">
        <ele>586.95</ele>
        <time>2021-05-22T08:20:47Z</time>
      </trkpt>
      <trkpt lat="43.52524" lon="2.46219">
        <ele>586.985</ele>
        <time>2021-05-22T08:20:49Z</time>
      </trkpt>
      <trkpt lat="43.52524" lon="2.46222">
        <ele>587.231</ele>
        <time>2021-05-22T08:20:51Z</time>
      </trkpt>
      <trkpt lat="43.52524" lon="2.46225">
        <ele>586.904</ele>
        <time>2021-05-22T08:20:53Z</time>
      </trkpt>
      <trkpt lat="43.52525" lon="2.46228">
        <ele>586.487</ele>
        <time>2021-05-22T08:20:55Z</time>
      </trkpt>
      <trkpt lat="43.52525" lon="2.4623">
        <ele>586.883</ele>
        <time>2021-05-22T08:20:57Z</time>
      </trkpt>
      <trkpt lat="43.52527" lon="2.46232">
        <ele>585.96</ele>
        <time>2021-05-22T08:20:59Z</time>
      </trkpt>
      <trkpt lat="43.52528" lon="2.46235">
        <ele>587.134</ele>
        <time>2021-05-22T08:21:01Z</time>
      </trkpt>
      <trkpt lat="43.52528" lon="2.46237">
        <ele>587.666</ele>
        <time>2021-05-22T08:21:03Z</time>
      </trkpt>
      <trkpt lat="43.52528" lon="2.4624">
        <ele>587.701</ele>
        <time>2021-05-22T08:21:05Z</time>
      </trkpt>
      <trkpt lat="43.52529" lon="2.46242">
        <ele>588.526</ele>
        <time>2021-05-22T08:21:07Z</time>
      </trkpt>
      <trkpt lat="43.52531" lon="2.46244">
        <ele>588.424</ele>
        <time>2021-05-22T08:21:09Z</time>
      </trkpt>
      <trkpt lat="43.52532" lon="2.46245">
        <ele>588.435</ele>
        <time>2021-05-22T08:21:11Z</time>
      </trkpt>
      <trkpt lat="43.52533" lon="2.46247">
        <ele>588.281</ele>
        <time>2021-05-22T08:21:13Z</time>
      </trkpt>
      <trkpt lat="43.52534" lon="2.46249">
        <ele>587.037</ele>
        <time>2021-05-22T08:21:15Z</time>
      </trkpt>
      <trkpt lat="43.52535" lon="2.46251">
        <ele>586.536</ele>
        <time>2021-05-22T08:21:17Z</time>
      </trkpt>
      <trkpt lat="43.52536" lon="2.46254">
        <ele>586.6</ele>
        <time>2021-05-22T08:21:19Z</time>
      </trkpt>
      <trkpt lat="43.52536" lon="2.46257">
        <ele>587.672</ele>
        <time>2021-05-22T08:21:21Z</time>
      </trkpt>
      <trkpt lat="43.52537" lon="2.4626">
        <ele>588.563</ele>
        <time>2021-05-22T08:21:23Z</time>
      </trkpt>
      <trkpt lat="43.52537" lon="2.46264">
        <ele>589.634</ele>
        <time>2021-05-22T08:21:25Z</time>
      </trkpt>
      <trkpt lat="43.52538" lon="2.46266">
        <ele>589.489</ele>
        <time>2021-05-22T08:21:27Z</time>
      </trkpt>
      <trkpt lat="43.52539" lon="2.46269">
        <ele>589.73</ele>
        <time>2021-05-22T08:21:29Z</time>
      </trkpt>
      <trkpt lat="43.52539" lon="2.46271">
        <ele>590.587</ele>
        <time>2021-05-22T08:21:31Z</time>
      </trkpt>
      <trkpt lat="43.5254" lon="2.46274">
        <ele>591.268</ele>
        <time>2021-05-22T08:21:33Z</time>
      </trkpt>
      <trkpt lat="43.52541" lon="2.46276">
        <ele>591.874</ele>
        <time>2021-05-22T08:21:35Z</time>
      </trkpt>
      <trkpt lat="43.52542" lon="2.46278">
        <ele>592.3</ele>
        <time>2021-05-22T08:21:37Z</time>
      </trkpt>
      <trkpt lat="43.52544" lon="2.4628">
        <ele>591.854</ele>
        <time>2021-05-22T08:21:39Z</time>
      </trkpt>
      <trkpt lat="43.52545" lon="2.46282">
        <ele>591.693</ele>
        <time>2021-05-22T08:21:41Z</time>
      </trkpt>
      <trkpt lat="43.52546" lon="2.46284">
        <ele>592.479</ele>
        <time>2021-05-22T08:21:43Z</time>
      </trkpt>
      <trkpt lat="43.52547" lon="2.46286">
        <ele>593.215</ele>
        <time>2021-05-22T08:21:45Z</time>
      </trkpt>
      <trkpt lat="43.52548" lon="2.46288">
        <ele>592.586</ele>
        <time>2021-05-22T08:21:47Z</time>
      </trkpt>
      <trkpt lat="43.52549" lon="2.4629">
        <ele>592.187</ele>
        <time>2021-05-22T08:21:49Z</time>
      </trkpt>
      <trkpt lat="43.5255" lon="2.46291">
        <ele>592.037</ele>
        <time>2021-05-22T08:21:51Z</time>
      </trkpt>
      <trkpt lat="43.52551" lon="2.46293">
        <ele>591.921</ele>
        <time>2021-05-22T08:21:53Z</time>
      </trkpt>
      <trkpt lat="43.52553" lon="2.46294">
        <ele>592.18</ele>
        <time>2021-05-22T08:21:55Z</time>
      </trkpt>
      <trkpt lat="43.52555" lon="2.46296">
        <ele>592.926</ele>
        <time>2021-05-22T08:21:57Z</time>
      </trkpt>
      <trkpt lat="43.52556" lon="2.46299">
        <ele>594.496</ele>
        <time>2021-05-22T08:21:59Z</time>
      </trkpt>
      <trkpt lat="43.52558" lon="2.46301">
        <ele>597.035</ele>
        <time>2021-05-22T08:22:01Z</time>
      </trkpt>
      <trkpt lat="43.5256" lon="2.46302">
        <ele>597.34</ele>
        <time>2021-05-22T08:22:03Z</time>
      </trkpt>
      <trkpt lat="43.52562" lon="2.46303">
        <ele>598.101</ele>
        <time>2021-05-22T08:22:05Z</time>
      </trkpt>
      <trkpt lat="43.52563" lon="2.46305">
        <ele>598.274</ele>
        <time>2021-05-22T08:22:07Z</time>
      </trkpt>
      <trkpt lat="43.52565" lon="2.46306">
        <ele>599.017</ele>
        <time>2021-05-22T08:22:09Z</time>
      </trkpt>
      <trkpt lat="43.52567" lon="2.46307">
        <ele>599.212</ele>
        <time>2021-05-22T08:22:11Z</time>
      </trkpt>
      <trkpt lat="43.52569" lon="2.46307">
        <ele>599.698</ele>
        <time>2021-05-22T08:22:13Z</time>
      </trkpt>
      <trkpt lat="43.52571" lon="2.46308">
        <ele>600.072</ele>
        <time>2021-05-22T08:22:15Z</time>
      </trkpt>
      <trkpt lat="43.52573" lon="2.46308">
        <ele>600.748</ele>
        <time>2021-05-22T08:22:17Z</time>
      </trkpt>
      <trkpt lat="43.52575" lon="2.46308">
        <ele>602.604</ele>
        <time>2021-05-22T08:22:19Z</time>
      </trkpt>
      <trkpt lat="43.52577" lon="2.46308">
        <ele>603.392</ele>
        <time>2021-05-22T08:22:21Z</time>
      </trkpt>
      <trkpt lat="43.52578" lon="2.46308">
        <ele>602.582</ele>
        <time>2021-05-22T08:22:23Z</time>
      </trkpt>
      <trkpt lat="43.5258" lon="2.46309">
        <ele>603.453</ele>
        <time>2021-05-22T08:22:25Z</time>
      </trkpt>
      <trkpt lat="43.52581" lon="2.46309">
        <ele>604.012</ele>
        <time>2021-05-22T08:22:27Z</time>
      </trkpt>
      <trkpt lat="43.52583" lon="2.46308">
        <ele>604.263</ele>
        <time>2021-05-22T08:22:29Z</time>
      </trkpt>
      <trkpt lat="43.52585" lon="2.46308">
        <ele>604.497</ele>
        <time>2021-05-22T08:22:31Z</time>
      </trkpt>
      <trkpt lat="43.52587" lon="2.46308">
        <ele>605.374</ele>
        <time>2021-05-22T08:22:33Z</time>
      </trkpt>
      <trkpt lat="43.52589" lon="2.46307">
        <ele>604.646</ele>
        <time>2021-05-22T08:22:35Z</time>
      </trkpt>
      <trkpt lat="43.52591" lon="2.46306">
        <ele>606.779</ele>
        <time>2021-05-22T08:22:37Z</time>
      </trkpt>
      <trkpt lat="43.52593" lon="2.46305">
        <ele>608.945</ele>
        <time>2021-05-22T08:22:39Z</time>
      </trkpt>
      <trkpt lat="43.52595" lon="2.46303">
        <ele>608.295</ele>
        <time>2021-05-22T08:22:41Z</time>
      </trkpt>
      <trkpt lat="43.52597" lon="2.46302">
        <ele>607.846</ele>
        <time>2021-05-22T08:22:43Z</time>
      </trkpt>
      <trkpt lat="43.52598" lon="2.463">
        <ele>608.365</ele>
        <time>2021-05-22T08:22:45Z</time>
      </trkpt>
      <trkpt lat="43.526" lon="2.46299">
        <ele>608.688</ele>
        <time>2021-05-22T08:22:47Z</time>
      </trkpt>
      <trkpt lat="43.52601" lon="2.46297">
        <ele>608.878</ele>
        <time>2021-05-22T08:22:49Z</time>
      </trkpt>
      <trkpt lat="43.52603" lon="2.46296">
        <ele>609.726</ele>
        <time>2021-05-22T08:22:51Z</time>
      </trkpt>
      <trkpt lat="43.52605" lon="2.46295">
        <ele>610.298</ele>
        <time>2021-05-22T08:22:53Z</time>
      </trkpt>
      <trkpt lat="43.52606" lon="2.46293">
        <ele>609.428</ele>
        <time>2021-05-22T08:22:55Z</time>
      </trkpt>
      <trkpt lat="43.52608" lon="2.46292">
        <ele>608.832</ele>
        <time>2021-05-22T08:22:57Z</time>
      </trkpt>
      <trkpt lat="43.5261" lon="2.46291">
        <ele>609.808</ele>
        <time>2021-05-22T08:22:59Z</time>
      </trkpt>
      <trkpt lat="43.52612" lon="2.46289">
        <ele>608.724</ele>
        <time>2021-05-22T08:23:01Z</time>
      </trkpt>
      <trkpt lat="43.52613" lon="2.46288">
        <ele>607.759</ele>
        <time>2021-05-22T08:23:03Z</time>
      </trkpt>
      <trkpt lat="43.52615" lon="2.46287">
        <ele>608.58</ele>
        <time>2021-05-22T08:23:05Z</time>
      </trkpt>
      <trkpt lat="43.52617" lon="2.46285">
        <ele>607.965</ele>
        <time>2021-05-22T08:23:07Z</time>
      </trkpt>
      <trkpt lat="43.52618" lon="2.46284">
        <ele>607.698</ele>
        <time>2021-05-22T08:23:09Z</time>
      </trkpt>
      <trkpt lat="43.5262" lon="2.46283">
        <ele>608.688</ele>
        <time>2021-05-22T08:23:11Z</time>
      </trkpt>
      <trkpt lat="43.52622" lon="2.46282">
        <ele>609.263</ele>
        <time>2021-05-22T08:23:13Z</time>
      </trkpt>
      <trkpt lat="43.52624" lon="2.46281">
        <ele>611.074</ele>
        <time>2021-05-22T08:23:15Z</time>
      </trkpt>
      <trkpt lat="43.52625" lon="2.4628">
        <ele>612.337</ele>
        <time>2021-05-22T08:23:17Z</time>
      </trkpt>
      <trkpt lat="43.52627" lon="2.46278">
        <ele>613.369</ele>
        <time>2021-05-22T08:23:19Z</time>
      </trkpt>
      <trkpt lat="43.52629" lon="2.46277">
        <ele>612.764</ele>
        <time>2021-05-22T08:23:21Z</time>
      </trkpt>
      <trkpt lat="43.52631" lon="2.46276">
        <ele>612.996</ele>
        <time>2021-05-22T08:23:23Z</time>
      </trkpt>
      <trkpt lat="43.52634" lon="2.46275">
        <ele>613.201</ele>
        <time>2021-05-22T08:23:25Z</time>
      </trkpt>
      <trkpt lat="43.52636" lon="2.46274">
        <ele>613.697</ele>
        <time>2021-05-22T08:23:27Z</time>
      </trkpt>
      <trkpt lat="43.52638" lon="2.46274">
        <ele>614.065</ele>
        <time>2021-05-22T08:23:29Z</time>
      </trkpt>
      <trkpt lat="43.5264" lon="2.46274">
        <ele>614.322</ele>
        <time>2021-05-22T08:23:31Z</time>
      </trkpt>
      <trkpt lat="43.52642" lon="2.46273">
        <ele>615.733</ele>
        <time>2021-05-22T08:23:33Z</time>
      </trkpt>
      <trkpt lat="43.52644" lon="2.46273">
        <ele>616.237</ele>
        <time>2021-05-22T08:23:35Z</time>
      </trkpt>
      <trkpt lat="43.52646" lon="2.46272">
        <ele>617.795</ele>
        <time>2021-05-22T08:23:37Z</time>
      </trkpt>
      <trkpt lat="43.52647" lon="2.46271">
        <ele>616.992</ele>
        <time>2021-05-22T08:23:39Z</time>
      </trkpt>
      <trkpt lat="43.52649" lon="2.46269">
        <ele>617.223</ele>
        <time>2021-05-22T08:23:41Z</time>
      </trkpt>
      <trkpt lat="43.52651" lon="2.46268">
        <ele>617.142</ele>
        <time>2021-05-22T08:23:43Z</time>
      </trkpt>
      <trkpt lat="43.52653" lon="2.46267">
        <ele>618.189</ele>
        <time>2021-05-22T08:23:45Z</time>
      </trkpt>
      <trkpt lat="43.52655" lon="2.46265">
        <ele>616.135</ele>
        <time>2021-05-22T08:23:47Z</time>
      </trkpt>
      <trkpt lat="43.52658" lon="2.46262">
        <ele>613.208</ele>
        <time>2021-05-22T08:23:49Z</time>
      </trkpt>
      <trkpt lat="43.52661" lon="2.4626">
        <ele>612.105</ele>
        <time>2021-05-22T08:23:51Z</time>
      </trkpt>
      <trkpt lat="43.52663" lon="2.46258">
        <ele>610.877</ele>
        <time>2021-05-22T08:23:53Z</time>
      </trkpt>
      <trkpt lat="43.52666" lon="2.46255">
        <ele>611.137</ele>
        <time>2021-05-22T08:23:55Z</time>
      </trkpt>
      <trkpt lat="43.52667" lon="2.46252">
        <ele>610.764</ele>
        <time>2021-05-22T08:23:57Z</time>
      </trkpt>
      <trkpt lat="43.52669" lon="2.4625">
        <ele>610.325</ele>
        <time>2021-05-22T08:23:59Z</time>
      </trkpt>
      <trkpt lat="43.5267" lon="2.46248">
        <ele>609.95</ele>
        <time>2021-05-22T08:24:01Z</time>
      </trkpt>
      <trkpt lat="43.52671" lon="2.46246">
        <ele>610.148</ele>
        <time>2021-05-22T08:24:03Z</time>
      </trkpt>
      <trkpt lat="43.52672" lon="2.46244">
        <ele>609.498</ele>
        <time>2021-05-22T08:24:05Z</time>
      </trkpt>
      <trkpt lat="43.52673" lon="2.46242">
        <ele>608.612</ele>
        <time>2021-05-22T08:24:07Z</time>
      </trkpt>
      <trkpt lat="43.52674" lon="2.4624">
        <ele>608.669</ele>
        <time>2021-05-22T08:24:09Z</time>
      </trkpt>
      <trkpt lat="43.52675" lon="2.46238">
        <ele>608.646</ele>
        <time>2021-05-22T08:24:11Z</time>
      </trkpt>
      <trkpt lat="43.52677" lon="2.46236">
        <ele>609.813</ele>
        <time>2021-05-22T08:24:13Z</time>
      </trkpt>
      <trkpt lat="43.52678" lon="2.46234">
        <ele>609.624</ele>
        <time>2021-05-22T08:24:15Z</time>
      </trkpt>
      <trkpt lat="43.52679" lon="2.46234">
        <ele>609.504</ele>
        <time>2021-05-22T08:24:17Z</time>
      </trkpt>
      <trkpt lat="43.5268" lon="2.46233">
        <ele>609.133</ele>
        <time>2021-05-22T08:24:19Z</time>
      </trkpt>
      <trkpt lat="43.52681" lon="2.46232">
        <ele>610.387</ele>
        <time>2021-05-22T08:24:21Z</time>
      </trkpt>
      <trkpt lat="43.52683" lon="2.46232">
        <ele>610.901</ele>
        <time>2021-05-22T08:24:23Z</time>
      </trkpt>
      <trkpt lat="43.52685" lon="2.46231">
        <ele>611.902</ele>
        <time>2021-05-22T08:24:25Z</time>
      </trkpt>
      <trkpt lat="43.52687" lon="2.46231">
        <ele>613.817</ele>
        <time>2021-05-22T08:24:27Z</time>
      </trkpt>
      <trkpt lat="43.52689" lon="2.46232">
        <ele>615.666</ele>
        <time>2021-05-22T08:24:29Z</time>
      </trkpt>
      <trkpt lat="43.52691" lon="2.46232">
        <ele>615.803</ele>
        <time>2021-05-22T08:24:31Z</time>
      </trkpt>
      <trkpt lat="43.52693" lon="2.46232">
        <ele>616.899</ele>
        <time>2021-05-22T08:24:33Z</time>
      </trkpt>
      <trkpt lat="43.52695" lon="2.46232">
        <ele>618.612</ele>
        <time>2021-05-22T08:24:35Z</time>
      </trkpt>
      <trkpt lat="43.52697" lon="2.46233">
        <ele>620.121</ele>
        <time>2021-05-22T08:24:37Z</time>
      </trkpt>
      <trkpt lat="43.52698" lon="2.46233">
        <ele>620.704</ele>
        <time>2021-05-22T08:24:39Z</time>
      </trkpt>
      <trkpt lat="43.52699" lon="2.46234">
        <ele>620.972</ele>
        <time>2021-05-22T08:24:41Z</time>
      </trkpt>
      <trkpt lat="43.527" lon="2.46235">
        <ele>620.685</ele>
        <time>2021-05-22T08:24:43Z</time>
      </trkpt>
      <trkpt lat="43.52701" lon="2.46235">
        <ele>621.347</ele>
        <time>2021-05-22T08:24:45Z</time>
      </trkpt>
      <trkpt lat="43.52701" lon="2.46235">
        <ele>621.637</ele>
        <time>2021-05-22T08:24:47Z</time>
      </trkpt>
      <trkpt lat="43.52701" lon="2.46235">
        <ele>621.639</ele>
        <time>2021-05-22T08:24:49Z</time>
      </trkpt>
      <trkpt lat="43.52701" lon="2.46235">
        <ele>621.649</ele>
        <time>2021-05-22T08:24:51Z</time>
      </trkpt>
      <trkpt lat="43.52701" lon="2.46235">
        <ele>621.826</ele>
        <time>2021-05-22T08:24:53Z</time>
      </trkpt>
      <trkpt lat="43.52703" lon="2.46233">
        <ele>621.231</ele>
        <time>2021-05-22T08:24:55Z</time>
      </trkpt>
      <trkpt lat="43.52704" lon="2.46232">
        <ele>622.125</ele>
        <time>2021-05-22T08:24:57Z</time>
      </trkpt>
      <trkpt lat="43.52706" lon="2.46231">
        <ele>622.28</ele>
        <time>2021-05-22T08:24:59Z</time>
      </trkpt>
      <trkpt lat="43.52708" lon="2.4623">
        <ele>622.607</ele>
        <time>2021-05-22T08:25:01Z</time>
      </trkpt>
      <trkpt lat="43.52709" lon="2.46228">
        <ele>622.408</ele>
        <time>2021-05-22T08:25:03Z</time>
      </trkpt>
      <trkpt lat="43.52711" lon="2.46226">
        <ele>621.726</ele>
        <time>2021-05-22T08:25:05Z</time>
      </trkpt>
      <trkpt lat="43.52712" lon="2.46223">
        <ele>621.751</ele>
        <time>2021-05-22T08:25:07Z</time>
      </trkpt>
      <trkpt lat="43.52712" lon="2.46221">
        <ele>621.811</ele>
        <time>2021-05-22T08:25:09Z</time>
      </trkpt>
      <trkpt lat="43.52714" lon="2.46219">
        <ele>622.622</ele>
        <time>2021-05-22T08:25:11Z</time>
      </trkpt>
      <trkpt lat="43.52714" lon="2.46216">
        <ele>623.794</ele>
        <time>2021-05-22T08:25:13Z</time>
      </trkpt>
      <trkpt lat="43.52716" lon="2.46213">
        <ele>624.806</ele>
        <time>2021-05-22T08:25:15Z</time>
      </trkpt>
      <trkpt lat="43.52717" lon="2.46211">
        <ele>625.217</ele>
        <time>2021-05-22T08:25:17Z</time>
      </trkpt>
      <trkpt lat="43.52719" lon="2.46209">
        <ele>625.981</ele>
        <time>2021-05-22T08:25:19Z</time>
      </trkpt>
      <trkpt lat="43.52721" lon="2.46207">
        <ele>626.992</ele>
        <time>2021-05-22T08:25:21Z</time>
      </trkpt>
      <trkpt lat="43.52723" lon="2.46206">
        <ele>626.81</ele>
        <time>2021-05-22T08:25:23Z</time>
      </trkpt>
      <trkpt lat="43.52724" lon="2.46203">
        <ele>626.332</ele>
        <time>2021-05-22T08:25:25Z</time>
      </trkpt>
      <trkpt lat="43.52726" lon="2.46202">
        <ele>626.745</ele>
        <time>2021-05-22T08:25:27Z</time>
      </trkpt>
      <trkpt lat="43.52727" lon="2.46201">
        <ele>626.53</ele>
        <time>2021-05-22T08:25:29Z</time>
      </trkpt>
      <trkpt lat="43.52728" lon="2.462">
        <ele>627.535</ele>
        <time>2021-05-22T08:25:31Z</time>
      </trkpt>
      <trkpt lat="43.5273" lon="2.462">
        <ele>627.226</ele>
        <time>2021-05-22T08:25:33Z</time>
      </trkpt>
      <trkpt lat="43.52732" lon="2.462">
        <ele>627.107</ele>
        <time>2021-05-22T08:25:35Z</time>
      </trkpt>
      <trkpt lat="43.52733" lon="2.462">
        <ele>627.022</ele>
        <time>2021-05-22T08:25:37Z</time>
      </trkpt>
      <trkpt lat="43.52735" lon="2.462">
        <ele>627.379</ele>
        <time>2021-05-22T08:25:39Z</time>
      </trkpt>
      <trkpt lat="43.52736" lon="2.462">
        <ele>627.331</ele>
        <time>2021-05-22T08:25:41Z</time>
      </trkpt>
      <trkpt lat="43.52738" lon="2.462">
        <ele>627.186</ele>
        <time>2021-05-22T08:25:43Z</time>
      </trkpt>
      <trkpt lat="43.52738" lon="2.46199">
        <ele>626.882</ele>
        <time>2021-05-22T08:25:45Z</time>
      </trkpt>
      <trkpt lat="43.52738" lon="2.46199">
        <ele>626.893</ele>
        <time>2021-05-22T08:25:47Z</time>
      </trkpt>
      <trkpt lat="43.52738" lon="2.46199">
        <ele>626.888</ele>
        <time>2021-05-22T08:25:49Z</time>
      </trkpt>
      <trkpt lat="43.52738" lon="2.46199">
        <ele>626.895</ele>
        <time>2021-05-22T08:25:51Z</time>
      </trkpt>
      <trkpt lat="43.52738" lon="2.46199">
        <ele>626.897</ele>
        <time>2021-05-22T08:25:53Z</time>
      </trkpt>
      <trkpt lat="43.52739" lon="2.46199">
        <ele>627.479</ele>
        <time>2021-05-22T08:25:55Z</time>
      </trkpt>
      <trkpt lat="43.5274" lon="2.462">
        <ele>627.622</ele>
        <time>2021-05-22T08:25:57Z</time>
      </trkpt>
      <trkpt lat="43.52741" lon="2.46201">
        <ele>627.148</ele>
        <time>2021-05-22T08:25:59Z</time>
      </trkpt>
      <trkpt lat="43.52742" lon="2.46202">
        <ele>627.368</ele>
        <time>2021-05-22T08:26:01Z</time>
      </trkpt>
      <trkpt lat="43.52743" lon="2.46202">
        <ele>626.92</ele>
        <time>2021-05-22T08:26:03Z</time>
      </trkpt>
      <trkpt lat="43.52743" lon="2.46203">
        <ele>627.044</ele>
        <time>2021-05-22T08:26:05Z</time>
      </trkpt>
      <trkpt lat="43.52744" lon="2.46203">
        <ele>627.372</ele>
        <time>2021-05-22T08:26:07Z</time>
      </trkpt>
      <trkpt lat="43.52744" lon="2.46203">
        <ele>628.977</ele>
        <time>2021-05-22T08:26:09Z</time>
      </trkpt>
      <trkpt lat="43.52745" lon="2.46204">
        <ele>629.646</ele>
        <time>2021-05-22T08:26:11Z</time>
      </trkpt>
      <trkpt lat="43.52747" lon="2.46204">
        <ele>630.229</ele>
        <time>2021-05-22T08:26:13Z</time>
      </trkpt>
      <trkpt lat="43.52748" lon="2.46205">
        <ele>630.964</ele>
        <time>2021-05-22T08:26:15Z</time>
      </trkpt>
      <trkpt lat="43.5275" lon="2.46205">
        <ele>631.247</ele>
        <time>2021-05-22T08:26:17Z</time>
      </trkpt>
      <trkpt lat="43.52751" lon="2.46206">
        <ele>630.389</ele>
        <time>2021-05-22T08:26:19Z</time>
      </trkpt>
      <trkpt lat="43.52753" lon="2.46206">
        <ele>630.245</ele>
        <time>2021-05-22T08:26:21Z</time>
      </trkpt>
      <trkpt lat="43.52754" lon="2.46207">
        <ele>630.763</ele>
        <time>2021-05-22T08:26:23Z</time>
      </trkpt>
      <trkpt lat="43.52755" lon="2.46208">
        <ele>631.083</ele>
        <time>2021-05-22T08:26:25Z</time>
      </trkpt>
      <trkpt lat="43.52756" lon="2.46208">
        <ele>630.775</ele>
        <time>2021-05-22T08:26:27Z</time>
      </trkpt>
      <trkpt lat="43.52757" lon="2.46209">
        <ele>629.816</ele>
        <time>2021-05-22T08:26:29Z</time>
      </trkpt>
      <trkpt lat="43.52757" lon="2.46207">
        <ele>630.434</ele>
        <time>2021-05-22T08:26:31Z</time>
      </trkpt>
      <trkpt lat="43.52757" lon="2.46207">
        <ele>630.329</ele>
        <time>2021-05-22T08:26:33Z</time>
      </trkpt>
      <trkpt lat="43.52757" lon="2.46207">
        <ele>630.35</ele>
        <time>2021-05-22T08:26:35Z</time>
      </trkpt>
      <trkpt lat="43.52757" lon="2.46207">
        <ele>630.342</ele>
        <time>2021-05-22T08:26:37Z</time>
      </trkpt>
      <trkpt lat="43.52757" lon="2.46207">
        <ele>630.345</ele>
        <time>2021-05-22T08:26:39Z</time>
      </trkpt>
      <trkpt lat="43.52757" lon="2.46207">
        <ele>630.9</ele>
        <time>2021-05-22T08:26:41Z</time>
      </trkpt>
      <trkpt lat="43.52759" lon="2.46211">
        <ele>630.373</ele>
        <time>2021-05-22T08:26:48Z</time>
      </trkpt>
      <trkpt lat="43.5276" lon="2.4621">
        <ele>630.112</ele>
        <time>2021-05-22T08:26:50Z</time>
      </trkpt>
      <trkpt lat="43.52762" lon="2.4621">
        <ele>630.313</ele>
        <time>2021-05-22T08:26:52Z</time>
      </trkpt>
      <trkpt lat="43.52763" lon="2.4621">
        <ele>630.488</ele>
        <time>2021-05-22T08:26:54Z</time>
      </trkpt>
      <trkpt lat="43.52764" lon="2.4621">
        <ele>630.103</ele>
        <time>2021-05-22T08:26:56Z</time>
      </trkpt>
      <trkpt lat="43.52765" lon="2.46208">
        <ele>630.678</ele>
        <time>2021-05-22T08:26:58Z</time>
      </trkpt>
      <trkpt lat="43.52766" lon="2.46207">
        <ele>630.643</ele>
        <time>2021-05-22T08:27:00Z</time>
      </trkpt>
      <trkpt lat="43.52766" lon="2.46208">
        <ele>630.846</ele>
        <time>2021-05-22T08:27:02Z</time>
      </trkpt>
      <trkpt lat="43.52766" lon="2.46208">
        <ele>630.852</ele>
        <time>2021-05-22T08:27:04Z</time>
      </trkpt>
      <trkpt lat="43.52766" lon="2.46208">
        <ele>630.861</ele>
        <time>2021-05-22T08:27:06Z</time>
      </trkpt>
      <trkpt lat="43.52766" lon="2.46208">
        <ele>630.68</ele>
        <time>2021-05-22T08:27:08Z</time>
      </trkpt>
      <trkpt lat="43.52766" lon="2.46208">
        <ele>631.49</ele>
        <time>2021-05-22T08:27:10Z</time>
      </trkpt>
      <trkpt lat="43.52768" lon="2.46209">
        <ele>631.458</ele>
        <time>2021-05-22T08:27:12Z</time>
      </trkpt>
      <trkpt lat="43.52769" lon="2.46209">
        <ele>631.585</ele>
        <time>2021-05-22T08:27:14Z</time>
      </trkpt>
      <trkpt lat="43.5277" lon="2.46209">
        <ele>632.422</ele>
        <time>2021-05-22T08:27:16Z</time>
      </trkpt>
      <trkpt lat="43.52772" lon="2.46209">
        <ele>632.191</ele>
        <time>2021-05-22T08:27:18Z</time>
      </trkpt>
      <trkpt lat="43.52774" lon="2.4621">
        <ele>632.489</ele>
        <time>2021-05-22T08:27:20Z</time>
      </trkpt>
      <trkpt lat="43.52775" lon="2.46211">
        <ele>632.733</ele>
        <time>2021-05-22T08:27:22Z</time>
      </trkpt>
      <trkpt lat="43.52777" lon="2.46212">
        <ele>632.791</ele>
        <time>2021-05-22T08:27:24Z</time>
      </trkpt>
      <trkpt lat="43.52779" lon="2.46213">
        <ele>632.965</ele>
        <time>2021-05-22T08:27:27Z</time>
      </trkpt>
      <trkpt lat="43.52781" lon="2.46214">
        <ele>632.898</ele>
        <time>2021-05-22T08:27:29Z</time>
      </trkpt>
      <trkpt lat="43.52783" lon="2.46215">
        <ele>632.602</ele>
        <time>2021-05-22T08:27:31Z</time>
      </trkpt>
      <trkpt lat="43.52785" lon="2.46215">
        <ele>632.545</ele>
        <time>2021-05-22T08:27:33Z</time>
      </trkpt>
      <trkpt lat="43.52787" lon="2.46215">
        <ele>632.923</ele>
        <time>2021-05-22T08:27:35Z</time>
      </trkpt>
      <trkpt lat="43.52789" lon="2.46215">
        <ele>633.667</ele>
        <time>2021-05-22T08:27:37Z</time>
      </trkpt>
      <trkpt lat="43.52791" lon="2.46215">
        <ele>633.756</ele>
        <time>2021-05-22T08:27:39Z</time>
      </trkpt>
      <trkpt lat="43.52792" lon="2.46216">
        <ele>633.54</ele>
        <time>2021-05-22T08:27:41Z</time>
      </trkpt>
      <trkpt lat="43.52794" lon="2.46216">
        <ele>634.567</ele>
        <time>2021-05-22T08:27:43Z</time>
      </trkpt>
      <trkpt lat="43.52796" lon="2.46216">
        <ele>635.256</ele>
        <time>2021-05-22T08:27:45Z</time>
      </trkpt>
      <trkpt lat="43.52797" lon="2.46218">
        <ele>635.759</ele>
        <time>2021-05-22T08:27:47Z</time>
      </trkpt>
      <trkpt lat="43.52797" lon="2.46219">
        <ele>636.447</ele>
        <time>2021-05-22T08:27:49Z</time>
      </trkpt>
      <trkpt lat="43.52798" lon="2.4622">
        <ele>637.066</ele>
        <time>2021-05-22T08:27:51Z</time>
      </trkpt>
      <trkpt lat="43.528" lon="2.4622">
        <ele>636.965</ele>
        <time>2021-05-22T08:27:53Z</time>
      </trkpt>
      <trkpt lat="43.52802" lon="2.46221">
        <ele>637.184</ele>
        <time>2021-05-22T08:27:55Z</time>
      </trkpt>
      <trkpt lat="43.52803" lon="2.4622">
        <ele>637.15</ele>
        <time>2021-05-22T08:27:57Z</time>
      </trkpt>
      <trkpt lat="43.52805" lon="2.46221">
        <ele>636.129</ele>
        <time>2021-05-22T08:27:59Z</time>
      </trkpt>
      <trkpt lat="43.52805" lon="2.4622">
        <ele>636.698</ele>
        <time>2021-05-22T08:28:01Z</time>
      </trkpt>
      <trkpt lat="43.52805" lon="2.4622">
        <ele>636.581</ele>
        <time>2021-05-22T08:28:03Z</time>
      </trkpt>
      <trkpt lat="43.52805" lon="2.4622">
        <ele>636.584</ele>
        <time>2021-05-22T08:28:05Z</time>
      </trkpt>
      <trkpt lat="43.52805" lon="2.4622">
        <ele>636.588</ele>
        <time>2021-05-22T08:28:07Z</time>
      </trkpt>
      <trkpt lat="43.52805" lon="2.4622">
        <ele>636.594</ele>
        <time>2021-05-22T08:28:09Z</time>
      </trkpt>
      <trkpt lat="43.52806" lon="2.4622">
        <ele>636.721</ele>
        <time>2021-05-22T08:28:11Z</time>
      </trkpt>
      <trkpt lat="43.52806" lon="2.46221">
        <ele>637.44</ele>
        <time>2021-05-22T08:28:13Z</time>
      </trkpt>
      <trkpt lat="43.52806" lon="2.46221">
        <ele>637.466</ele>
        <time>2021-05-22T08:28:15Z</time>
      </trkpt>
      <trkpt lat="43.52806" lon="2.46221">
        <ele>637.469</ele>
        <time>2021-05-22T08:28:17Z</time>
      </trkpt>
      <trkpt lat="43.52806" lon="2.46221">
        <ele>637.471</ele>
        <time>2021-05-22T08:28:19Z</time>
      </trkpt>
      <trkpt lat="43.52806" lon="2.46221">
        <ele>637.473</ele>
        <time>2021-05-22T08:28:21Z</time>
      </trkpt>
      <trkpt lat="43.52806" lon="2.46221">
        <ele>637.474</ele>
        <time>2021-05-22T08:28:23Z</time>
      </trkpt>
      <trkpt lat="43.52806" lon="2.46221">
        <ele>637.476</ele>
        <time>2021-05-22T08:28:25Z</time>
      </trkpt>
      <trkpt lat="43.52806" lon="2.46221">
        <ele>637.486</ele>
        <time>2021-05-22T08:28:27Z</time>
      </trkpt>
      <trkpt lat="43.52806" lon="2.46221">
        <ele>637.254</ele>
        <time>2021-05-22T08:28:29Z</time>
      </trkpt>
      <trkpt lat="43.52808" lon="2.46221">
        <ele>637.515</ele>
        <time>2021-05-22T08:28:31Z</time>
      </trkpt>
      <trkpt lat="43.52809" lon="2.46221">
        <ele>638.323</ele>
        <time>2021-05-22T08:28:33Z</time>
      </trkpt>
      <trkpt lat="43.5281" lon="2.46221">
        <ele>637.873</ele>
        <time>2021-05-22T08:28:35Z</time>
      </trkpt>
      <trkpt lat="43.52812" lon="2.46221">
        <ele>638.045</ele>
        <time>2021-05-22T08:28:37Z</time>
      </trkpt>
      <trkpt lat="43.52812" lon="2.46221">
        <ele>638.067</ele>
        <time>2021-05-22T08:28:39Z</time>
      </trkpt>
      <trkpt lat="43.52813" lon="2.46221">
        <ele>637.229</ele>
        <time>2021-05-22T08:28:41Z</time>
      </trkpt>
      <trkpt lat="43.52815" lon="2.4622">
        <ele>636.035</ele>
        <time>2021-05-22T08:28:43Z</time>
      </trkpt>
      <trkpt lat="43.52816" lon="2.46221">
        <ele>635.342</ele>
        <time>2021-05-22T08:28:45Z</time>
      </trkpt>
      <trkpt lat="43.52818" lon="2.46221">
        <ele>635.199</ele>
        <time>2021-05-22T08:28:47Z</time>
      </trkpt>
      <trkpt lat="43.5282" lon="2.46222">
        <ele>633.139</ele>
        <time>2021-05-22T08:28:49Z</time>
      </trkpt>
      <trkpt lat="43.52822" lon="2.46222">
        <ele>633.638</ele>
        <time>2021-05-22T08:28:51Z</time>
      </trkpt>
      <trkpt lat="43.52824" lon="2.46222">
        <ele>633.631</ele>
        <time>2021-05-22T08:28:53Z</time>
      </trkpt>
      <trkpt lat="43.52826" lon="2.46221">
        <ele>634.556</ele>
        <time>2021-05-22T08:28:55Z</time>
      </trkpt>
      <trkpt lat="43.52828" lon="2.46221">
        <ele>634.765</ele>
        <time>2021-05-22T08:28:57Z</time>
      </trkpt>
      <trkpt lat="43.52829" lon="2.46221">
        <ele>634.679</ele>
        <time>2021-05-22T08:28:59Z</time>
      </trkpt>
      <trkpt lat="43.52831" lon="2.46222">
        <ele>634.493</ele>
        <time>2021-05-22T08:29:01Z</time>
      </trkpt>
      <trkpt lat="43.52833" lon="2.46222">
        <ele>636.218</ele>
        <time>2021-05-22T08:29:03Z</time>
      </trkpt>
      <trkpt lat="43.52835" lon="2.46221">
        <ele>636.587</ele>
        <time>2021-05-22T08:29:05Z</time>
      </trkpt>
      <trkpt lat="43.52837" lon="2.46221">
        <ele>636.244</ele>
        <time>2021-05-22T08:29:07Z</time>
      </trkpt>
      <trkpt lat="43.52839" lon="2.46222">
        <ele>636.058</ele>
        <time>2021-05-22T08:29:09Z</time>
      </trkpt>
      <trkpt lat="43.52841" lon="2.46222">
        <ele>635.989</ele>
        <time>2021-05-22T08:29:11Z</time>
      </trkpt>
      <trkpt lat="43.52843" lon="2.46222">
        <ele>636.937</ele>
        <time>2021-05-22T08:29:13Z</time>
      </trkpt>
      <trkpt lat="43.52845" lon="2.46223">
        <ele>638.063</ele>
        <time>2021-05-22T08:29:15Z</time>
      </trkpt>
      <trkpt lat="43.52848" lon="2.46224">
        <ele>639.321</ele>
        <time>2021-05-22T08:29:17Z</time>
      </trkpt>
      <trkpt lat="43.5285" lon="2.46224">
        <ele>639.404</ele>
        <time>2021-05-22T08:29:19Z</time>
      </trkpt>
      <trkpt lat="43.52852" lon="2.46225">
        <ele>640.17</ele>
        <time>2021-05-22T08:29:21Z</time>
      </trkpt>
      <trkpt lat="43.52854" lon="2.46225">
        <ele>640.263</ele>
        <time>2021-05-22T08:29:23Z</time>
      </trkpt>
      <trkpt lat="43.52856" lon="2.46226">
        <ele>639.586</ele>
        <time>2021-05-22T08:29:25Z</time>
      </trkpt>
      <trkpt lat="43.52858" lon="2.46227">
        <ele>639.286</ele>
        <time>2021-05-22T08:29:27Z</time>
      </trkpt>
      <trkpt lat="43.5286" lon="2.46227">
        <ele>640.898</ele>
        <time>2021-05-22T08:29:29Z</time>
      </trkpt>
      <trkpt lat="43.52862" lon="2.46227">
        <ele>641.618</ele>
        <time>2021-05-22T08:29:31Z</time>
      </trkpt>
      <trkpt lat="43.52864" lon="2.46227">
        <ele>641.851</ele>
        <time>2021-05-22T08:29:33Z</time>
      </trkpt>
      <trkpt lat="43.52866" lon="2.46227">
        <ele>642.744</ele>
        <time>2021-05-22T08:29:35Z</time>
      </trkpt>
      <trkpt lat="43.52868" lon="2.46228">
        <ele>644.183</ele>
        <time>2021-05-22T08:29:37Z</time>
      </trkpt>
      <trkpt lat="43.5287" lon="2.46228">
        <ele>643.918</ele>
        <time>2021-05-22T08:29:39Z</time>
      </trkpt>
      <trkpt lat="43.52872" lon="2.46228">
        <ele>643.331</ele>
        <time>2021-05-22T08:29:41Z</time>
      </trkpt>
      <trkpt lat="43.52875" lon="2.46229">
        <ele>643.691</ele>
        <time>2021-05-22T08:29:43Z</time>
      </trkpt>
      <trkpt lat="43.52877" lon="2.46229">
        <ele>643.778</ele>
        <time>2021-05-22T08:29:45Z</time>
      </trkpt>
      <trkpt lat="43.52879" lon="2.4623">
        <ele>644.655</ele>
        <time>2021-05-22T08:29:47Z</time>
      </trkpt>
      <trkpt lat="43.52881" lon="2.46231">
        <ele>644.506</ele>
        <time>2021-05-22T08:29:49Z</time>
      </trkpt>
      <trkpt lat="43.52884" lon="2.46231">
        <ele>645.951</ele>
        <time>2021-05-22T08:29:51Z</time>
      </trkpt>
      <trkpt lat="43.52886" lon="2.46232">
        <ele>647.133</ele>
        <time>2021-05-22T08:29:53Z</time>
      </trkpt>
      <trkpt lat="43.52888" lon="2.46232">
        <ele>647.302</ele>
        <time>2021-05-22T08:29:55Z</time>
      </trkpt>
      <trkpt lat="43.52891" lon="2.46234">
        <ele>648.704</ele>
        <time>2021-05-22T08:29:57Z</time>
      </trkpt>
      <trkpt lat="43.52893" lon="2.46235">
        <ele>649.863</ele>
        <time>2021-05-22T08:29:59Z</time>
      </trkpt>
      <trkpt lat="43.52895" lon="2.46236">
        <ele>650.124</ele>
        <time>2021-05-22T08:30:01Z</time>
      </trkpt>
      <trkpt lat="43.52897" lon="2.46238">
        <ele>649.784</ele>
        <time>2021-05-22T08:30:03Z</time>
      </trkpt>
      <trkpt lat="43.52899" lon="2.46239">
        <ele>649.553</ele>
        <time>2021-05-22T08:30:05Z</time>
      </trkpt>
      <trkpt lat="43.529" lon="2.4624">
        <ele>649.969</ele>
        <time>2021-05-22T08:30:07Z</time>
      </trkpt>
      <trkpt lat="43.52902" lon="2.46242">
        <ele>649.868</ele>
        <time>2021-05-22T08:30:09Z</time>
      </trkpt>
      <trkpt lat="43.52904" lon="2.46243">
        <ele>649.841</ele>
        <time>2021-05-22T08:30:11Z</time>
      </trkpt>
      <trkpt lat="43.52906" lon="2.46244">
        <ele>651.012</ele>
        <time>2021-05-22T08:30:13Z</time>
      </trkpt>
      <trkpt lat="43.52908" lon="2.46246">
        <ele>651.339</ele>
        <time>2021-05-22T08:30:15Z</time>
      </trkpt>
      <trkpt lat="43.5291" lon="2.46247">
        <ele>650.93</ele>
        <time>2021-05-22T08:30:17Z</time>
      </trkpt>
      <trkpt lat="43.52912" lon="2.46249">
        <ele>650.026</ele>
        <time>2021-05-22T08:30:19Z</time>
      </trkpt>
      <trkpt lat="43.52914" lon="2.4625">
        <ele>650.054</ele>
        <time>2021-05-22T08:30:21Z</time>
      </trkpt>
      <trkpt lat="43.52916" lon="2.46251">
        <ele>649.389</ele>
        <time>2021-05-22T08:30:23Z</time>
      </trkpt>
      <trkpt lat="43.52918" lon="2.46253">
        <ele>648.501</ele>
        <time>2021-05-22T08:30:25Z</time>
      </trkpt>
      <trkpt lat="43.5292" lon="2.46255">
        <ele>649.259</ele>
        <time>2021-05-22T08:30:27Z</time>
      </trkpt>
      <trkpt lat="43.52922" lon="2.46256">
        <ele>648.951</ele>
        <time>2021-05-22T08:30:29Z</time>
      </trkpt>
      <trkpt lat="43.52924" lon="2.46258">
        <ele>649.542</ele>
        <time>2021-05-22T08:30:31Z</time>
      </trkpt>
      <trkpt lat="43.52926" lon="2.46259">
        <ele>649.43</ele>
        <time>2021-05-22T08:30:33Z</time>
      </trkpt>
      <trkpt lat="43.52928" lon="2.46261">
        <ele>649.915</ele>
        <time>2021-05-22T08:30:35Z</time>
      </trkpt>
      <trkpt lat="43.5293" lon="2.46262">
        <ele>651.202</ele>
        <time>2021-05-22T08:30:37Z</time>
      </trkpt>
      <trkpt lat="43.52932" lon="2.46263">
        <ele>651.312</ele>
        <time>2021-05-22T08:30:39Z</time>
      </trkpt>
      <trkpt lat="43.52934" lon="2.46265">
        <ele>652.231</ele>
        <time>2021-05-22T08:30:41Z</time>
      </trkpt>
      <trkpt lat="43.52936" lon="2.46266">
        <ele>651.532</ele>
        <time>2021-05-22T08:30:43Z</time>
      </trkpt>
      <trkpt lat="43.52938" lon="2.46268">
        <ele>651.503</ele>
        <time>2021-05-22T08:30:45Z</time>
      </trkpt>
      <trkpt lat="43.5294" lon="2.46269">
        <ele>651.255</ele>
        <time>2021-05-22T08:30:47Z</time>
      </trkpt>
      <trkpt lat="43.52941" lon="2.46271">
        <ele>651.851</ele>
        <time>2021-05-22T08:30:49Z</time>
      </trkpt>
      <trkpt lat="43.52942" lon="2.46273">
        <ele>652.045</ele>
        <time>2021-05-22T08:30:51Z</time>
      </trkpt>
      <trkpt lat="43.52944" lon="2.46274">
        <ele>652.157</ele>
        <time>2021-05-22T08:30:53Z</time>
      </trkpt>
      <trkpt lat="43.52946" lon="2.46275">
        <ele>652.32</ele>
        <time>2021-05-22T08:30:55Z</time>
      </trkpt>
      <trkpt lat="43.52947" lon="2.46276">
        <ele>653.246</ele>
        <time>2021-05-22T08:30:57Z</time>
      </trkpt>
      <trkpt lat="43.52949" lon="2.46277">
        <ele>654.27</ele>
        <time>2021-05-22T08:30:59Z</time>
      </trkpt>
      <trkpt lat="43.52951" lon="2.4628">
        <ele>655.459</ele>
        <time>2021-05-22T08:31:01Z</time>
      </trkpt>
      <trkpt lat="43.52953" lon="2.4628">
        <ele>655.95</ele>
        <time>2021-05-22T08:31:03Z</time>
      </trkpt>
      <trkpt lat="43.52955" lon="2.46281">
        <ele>655.455</ele>
        <time>2021-05-22T08:31:05Z</time>
      </trkpt>
      <trkpt lat="43.52957" lon="2.46282">
        <ele>655.014</ele>
        <time>2021-05-22T08:31:07Z</time>
      </trkpt>
      <trkpt lat="43.52959" lon="2.46284">
        <ele>654.738</ele>
        <time>2021-05-22T08:31:09Z</time>
      </trkpt>
      <trkpt lat="43.52961" lon="2.46286">
        <ele>654.748</ele>
        <time>2021-05-22T08:31:11Z</time>
      </trkpt>
      <trkpt lat="43.52962" lon="2.46287">
        <ele>654.891</ele>
        <time>2021-05-22T08:31:13Z</time>
      </trkpt>
      <trkpt lat="43.52963" lon="2.46289">
        <ele>654.999</ele>
        <time>2021-05-22T08:31:15Z</time>
      </trkpt>
      <trkpt lat="43.52965" lon="2.46291">
        <ele>654.696</ele>
        <time>2021-05-22T08:31:17Z</time>
      </trkpt>
      <trkpt lat="43.52967" lon="2.46293">
        <ele>655.426</ele>
        <time>2021-05-22T08:31:19Z</time>
      </trkpt>
      <trkpt lat="43.52969" lon="2.46295">
        <ele>655.85</ele>
        <time>2021-05-22T08:31:21Z</time>
      </trkpt>
      <trkpt lat="43.52971" lon="2.46298">
        <ele>656.358</ele>
        <time>2021-05-22T08:31:23Z</time>
      </trkpt>
      <trkpt lat="43.52973" lon="2.463">
        <ele>656.79</ele>
        <time>2021-05-22T08:31:25Z</time>
      </trkpt>
      <trkpt lat="43.52975" lon="2.46302">
        <ele>656.863</ele>
        <time>2021-05-22T08:31:27Z</time>
      </trkpt>
      <trkpt lat="43.52977" lon="2.46304">
        <ele>656.767</ele>
        <time>2021-05-22T08:31:29Z</time>
      </trkpt>
      <trkpt lat="43.52978" lon="2.46307">
        <ele>656.22</ele>
        <time>2021-05-22T08:31:31Z</time>
      </trkpt>
      <trkpt lat="43.52978" lon="2.4631">
        <ele>656.529</ele>
        <time>2021-05-22T08:31:33Z</time>
      </trkpt>
      <trkpt lat="43.5298" lon="2.46312">
        <ele>656.935</ele>
        <time>2021-05-22T08:31:35Z</time>
      </trkpt>
      <trkpt lat="43.52981" lon="2.46314">
        <ele>656.592</ele>
        <time>2021-05-22T08:31:37Z</time>
      </trkpt>
      <trkpt lat="43.52983" lon="2.46316">
        <ele>656.685</ele>
        <time>2021-05-22T08:31:39Z</time>
      </trkpt>
      <trkpt lat="43.52984" lon="2.46319">
        <ele>656.405</ele>
        <time>2021-05-22T08:31:41Z</time>
      </trkpt>
      <trkpt lat="43.52986" lon="2.46322">
        <ele>658.823</ele>
        <time>2021-05-22T08:31:43Z</time>
      </trkpt>
      <trkpt lat="43.52988" lon="2.46325">
        <ele>660.416</ele>
        <time>2021-05-22T08:31:45Z</time>
      </trkpt>
      <trkpt lat="43.5299" lon="2.46326">
        <ele>659.402</ele>
        <time>2021-05-22T08:31:47Z</time>
      </trkpt>
      <trkpt lat="43.52992" lon="2.46328">
        <ele>658.725</ele>
        <time>2021-05-22T08:31:49Z</time>
      </trkpt>
      <trkpt lat="43.52994" lon="2.4633">
        <ele>658.724</ele>
        <time>2021-05-22T08:31:51Z</time>
      </trkpt>
      <trkpt lat="43.52995" lon="2.46333">
        <ele>658.219</ele>
        <time>2021-05-22T08:31:53Z</time>
      </trkpt>
      <trkpt lat="43.52996" lon="2.46335">
        <ele>658.531</ele>
        <time>2021-05-22T08:31:55Z</time>
      </trkpt>
      <trkpt lat="43.52998" lon="2.46337">
        <ele>658.729</ele>
        <time>2021-05-22T08:31:57Z</time>
      </trkpt>
      <trkpt lat="43.53" lon="2.46339">
        <ele>659.353</ele>
        <time>2021-05-22T08:31:59Z</time>
      </trkpt>
      <trkpt lat="43.53002" lon="2.46341">
        <ele>659.938</ele>
        <time>2021-05-22T08:32:01Z</time>
      </trkpt>
      <trkpt lat="43.53004" lon="2.46342">
        <ele>659.606</ele>
        <time>2021-05-22T08:32:03Z</time>
      </trkpt>
      <trkpt lat="43.53006" lon="2.46343">
        <ele>659.951</ele>
        <time>2021-05-22T08:32:05Z</time>
      </trkpt>
      <trkpt lat="43.53008" lon="2.46344">
        <ele>660.129</ele>
        <time>2021-05-22T08:32:07Z</time>
      </trkpt>
      <trkpt lat="43.53011" lon="2.46346">
        <ele>661.615</ele>
        <time>2021-05-22T08:32:09Z</time>
      </trkpt>
      <trkpt lat="43.53013" lon="2.46349">
        <ele>662.26</ele>
        <time>2021-05-22T08:32:11Z</time>
      </trkpt>
      <trkpt lat="43.53015" lon="2.46349">
        <ele>663.224</ele>
        <time>2021-05-22T08:32:13Z</time>
      </trkpt>
      <trkpt lat="43.53017" lon="2.46349">
        <ele>664.514</ele>
        <time>2021-05-22T08:32:15Z</time>
      </trkpt>
      <trkpt lat="43.53019" lon="2.46349">
        <ele>664.767</ele>
        <time>2021-05-22T08:32:17Z</time>
      </trkpt>
      <trkpt lat="43.53021" lon="2.46349">
        <ele>663.678</ele>
        <time>2021-05-22T08:32:19Z</time>
      </trkpt>
      <trkpt lat="43.53023" lon="2.46349">
        <ele>663.522</ele>
        <time>2021-05-22T08:32:21Z</time>
      </trkpt>
      <trkpt lat="43.53025" lon="2.46349">
        <ele>663.637</ele>
        <time>2021-05-22T08:32:23Z</time>
      </trkpt>
      <trkpt lat="43.53027" lon="2.4635">
        <ele>663.354</ele>
        <time>2021-05-22T08:32:25Z</time>
      </trkpt>
      <trkpt lat="43.53029" lon="2.46351">
        <ele>663.907</ele>
        <time>2021-05-22T08:32:27Z</time>
      </trkpt>
      <trkpt lat="43.53032" lon="2.4635">
        <ele>664.799</ele>
        <time>2021-05-22T08:32:29Z</time>
      </trkpt>
      <trkpt lat="43.53034" lon="2.4635">
        <ele>665.116</ele>
        <time>2021-05-22T08:32:31Z</time>
      </trkpt>
      <trkpt lat="43.53036" lon="2.4635">
        <ele>664.936</ele>
        <time>2021-05-22T08:32:33Z</time>
      </trkpt>
      <trkpt lat="43.53039" lon="2.4635">
        <ele>664.346</ele>
        <time>2021-05-22T08:32:35Z</time>
      </trkpt>
      <trkpt lat="43.53041" lon="2.46351">
        <ele>664.659</ele>
        <time>2021-05-22T08:32:37Z</time>
      </trkpt>
      <trkpt lat="43.53044" lon="2.46351">
        <ele>664.806</ele>
        <time>2021-05-22T08:32:39Z</time>
      </trkpt>
      <trkpt lat="43.53046" lon="2.46352">
        <ele>666.515</ele>
        <time>2021-05-22T08:32:41Z</time>
      </trkpt>
      <trkpt lat="43.53047" lon="2.46351">
        <ele>665.839</ele>
        <time>2021-05-22T08:32:43Z</time>
      </trkpt>
      <trkpt lat="43.53047" lon="2.46351">
        <ele>665.815</ele>
        <time>2021-05-22T08:32:45Z</time>
      </trkpt>
      <trkpt lat="43.53051" lon="2.46352">
        <ele>667.949</ele>
        <time>2021-05-22T08:32:47Z</time>
      </trkpt>
      <trkpt lat="43.53052" lon="2.46352">
        <ele>668.562</ele>
        <time>2021-05-22T08:32:49Z</time>
      </trkpt>
      <trkpt lat="43.53055" lon="2.46352">
        <ele>668.985</ele>
        <time>2021-05-22T08:32:51Z</time>
      </trkpt>
      <trkpt lat="43.53056" lon="2.46352">
        <ele>668.535</ele>
        <time>2021-05-22T08:32:53Z</time>
      </trkpt>
      <trkpt lat="43.53059" lon="2.46352">
        <ele>668.329</ele>
        <time>2021-05-22T08:32:55Z</time>
      </trkpt>
      <trkpt lat="43.53061" lon="2.46352">
        <ele>669.044</ele>
        <time>2021-05-22T08:32:57Z</time>
      </trkpt>
      <trkpt lat="43.53064" lon="2.46352">
        <ele>669.886</ele>
        <time>2021-05-22T08:32:59Z</time>
      </trkpt>
      <trkpt lat="43.53066" lon="2.46353">
        <ele>669.918</ele>
        <time>2021-05-22T08:33:01Z</time>
      </trkpt>
      <trkpt lat="43.53067" lon="2.46354">
        <ele>670.02</ele>
        <time>2021-05-22T08:33:03Z</time>
      </trkpt>
      <trkpt lat="43.53069" lon="2.46354">
        <ele>671.766</ele>
        <time>2021-05-22T08:33:05Z</time>
      </trkpt>
      <trkpt lat="43.53071" lon="2.46354">
        <ele>672.572</ele>
        <time>2021-05-22T08:33:07Z</time>
      </trkpt>
      <trkpt lat="43.53074" lon="2.46354">
        <ele>672.512</ele>
        <time>2021-05-22T08:33:10Z</time>
      </trkpt>
      <trkpt lat="43.53076" lon="2.46355">
        <ele>672.542</ele>
        <time>2021-05-22T08:33:12Z</time>
      </trkpt>
      <trkpt lat="43.53077" lon="2.46353">
        <ele>673.105</ele>
        <time>2021-05-22T08:33:14Z</time>
      </trkpt>
      <trkpt lat="43.53079" lon="2.46353">
        <ele>673.011</ele>
        <time>2021-05-22T08:33:16Z</time>
      </trkpt>
      <trkpt lat="43.53082" lon="2.46352">
        <ele>672.879</ele>
        <time>2021-05-22T08:33:18Z</time>
      </trkpt>
      <trkpt lat="43.53083" lon="2.46352">
        <ele>673.385</ele>
        <time>2021-05-22T08:33:20Z</time>
      </trkpt>
      <trkpt lat="43.53085" lon="2.46351">
        <ele>673.894</ele>
        <time>2021-05-22T08:33:22Z</time>
      </trkpt>
      <trkpt lat="43.53087" lon="2.4635">
        <ele>673.068</ele>
        <time>2021-05-22T08:33:24Z</time>
      </trkpt>
      <trkpt lat="43.53089" lon="2.46348">
        <ele>672.116</ele>
        <time>2021-05-22T08:33:26Z</time>
      </trkpt>
      <trkpt lat="43.53091" lon="2.46346">
        <ele>671.666</ele>
        <time>2021-05-22T08:33:28Z</time>
      </trkpt>
      <trkpt lat="43.53094" lon="2.46345">
        <ele>672.52</ele>
        <time>2021-05-22T08:33:30Z</time>
      </trkpt>
      <trkpt lat="43.53095" lon="2.46344">
        <ele>673.181</ele>
        <time>2021-05-22T08:33:32Z</time>
      </trkpt>
      <trkpt lat="43.53097" lon="2.46343">
        <ele>673.572</ele>
        <time>2021-05-22T08:33:34Z</time>
      </trkpt>
      <trkpt lat="43.53098" lon="2.46342">
        <ele>674.047</ele>
        <time>2021-05-22T08:33:36Z</time>
      </trkpt>
      <trkpt lat="43.531" lon="2.4634">
        <ele>674.88</ele>
        <time>2021-05-22T08:33:38Z</time>
      </trkpt>
      <trkpt lat="43.53102" lon="2.46339">
        <ele>674.031</ele>
        <time>2021-05-22T08:33:40Z</time>
      </trkpt>
      <trkpt lat="43.53105" lon="2.46338">
        <ele>674.161</ele>
        <time>2021-05-22T08:33:42Z</time>
      </trkpt>
      <trkpt lat="43.53107" lon="2.46337">
        <ele>673.648</ele>
        <time>2021-05-22T08:33:44Z</time>
      </trkpt>
      <trkpt lat="43.53108" lon="2.46336">
        <ele>672.643</ele>
        <time>2021-05-22T08:33:46Z</time>
      </trkpt>
      <trkpt lat="43.53111" lon="2.46335">
        <ele>673.646</ele>
        <time>2021-05-22T08:33:48Z</time>
      </trkpt>
      <trkpt lat="43.53113" lon="2.46334">
        <ele>675.213</ele>
        <time>2021-05-22T08:33:50Z</time>
      </trkpt>
      <trkpt lat="43.53115" lon="2.46333">
        <ele>676.635</ele>
        <time>2021-05-22T08:33:52Z</time>
      </trkpt>
      <trkpt lat="43.53118" lon="2.46332">
        <ele>677.406</ele>
        <time>2021-05-22T08:33:54Z</time>
      </trkpt>
      <trkpt lat="43.53119" lon="2.46332">
        <ele>677.518</ele>
        <time>2021-05-22T08:33:56Z</time>
      </trkpt>
      <trkpt lat="43.53121" lon="2.46331">
        <ele>677.811</ele>
        <time>2021-05-22T08:33:58Z</time>
      </trkpt>
      <trkpt lat="43.53124" lon="2.4633">
        <ele>678.666</ele>
        <time>2021-05-22T08:34:00Z</time>
      </trkpt>
      <trkpt lat="43.53126" lon="2.4633">
        <ele>680.551</ele>
        <time>2021-05-22T08:34:02Z</time>
      </trkpt>
      <trkpt lat="43.53128" lon="2.46329">
        <ele>679.501</ele>
        <time>2021-05-22T08:34:04Z</time>
      </trkpt>
      <trkpt lat="43.5313" lon="2.4633">
        <ele>680.909</ele>
        <time>2021-05-22T08:34:06Z</time>
      </trkpt>
      <trkpt lat="43.53132" lon="2.46329">
        <ele>681.888</ele>
        <time>2021-05-22T08:34:08Z</time>
      </trkpt>
      <trkpt lat="43.53134" lon="2.46329">
        <ele>683.722</ele>
        <time>2021-05-22T08:34:10Z</time>
      </trkpt>
      <trkpt lat="43.53136" lon="2.46328">
        <ele>684.211</ele>
        <time>2021-05-22T08:34:12Z</time>
      </trkpt>
      <trkpt lat="43.53138" lon="2.46327">
        <ele>683.841</ele>
        <time>2021-05-22T08:34:14Z</time>
      </trkpt>
      <trkpt lat="43.53141" lon="2.46327">
        <ele>683.234</ele>
        <time>2021-05-22T08:34:16Z</time>
      </trkpt>
      <trkpt lat="43.53143" lon="2.46326">
        <ele>682.615</ele>
        <time>2021-05-22T08:34:18Z</time>
      </trkpt>
      <trkpt lat="43.53145" lon="2.46325">
        <ele>683.258</ele>
        <time>2021-05-22T08:34:20Z</time>
      </trkpt>
      <trkpt lat="43.53147" lon="2.46325">
        <ele>682.897</ele>
        <time>2021-05-22T08:34:22Z</time>
      </trkpt>
      <trkpt lat="43.5315" lon="2.46325">
        <ele>682.873</ele>
        <time>2021-05-22T08:34:24Z</time>
      </trkpt>
      <trkpt lat="43.53153" lon="2.46324">
        <ele>681.114</ele>
        <time>2021-05-22T08:34:26Z</time>
      </trkpt>
      <trkpt lat="43.53155" lon="2.46325">
        <ele>681.182</ele>
        <time>2021-05-22T08:34:28Z</time>
      </trkpt>
      <trkpt lat="43.53157" lon="2.46325">
        <ele>680.916</ele>
        <time>2021-05-22T08:34:30Z</time>
      </trkpt>
      <trkpt lat="43.53159" lon="2.46325">
        <ele>679.963</ele>
        <time>2021-05-22T08:34:32Z</time>
      </trkpt>
      <trkpt lat="43.53161" lon="2.46326">
        <ele>680.385</ele>
        <time>2021-05-22T08:34:34Z</time>
      </trkpt>
      <trkpt lat="43.53163" lon="2.46326">
        <ele>681.252</ele>
        <time>2021-05-22T08:34:36Z</time>
      </trkpt>
      <trkpt lat="43.53165" lon="2.46328">
        <ele>683.43</ele>
        <time>2021-05-22T08:34:38Z</time>
      </trkpt>
      <trkpt lat="43.53168" lon="2.46329">
        <ele>683.518</ele>
        <time>2021-05-22T08:34:40Z</time>
      </trkpt>
      <trkpt lat="43.53169" lon="2.46329">
        <ele>685.198</ele>
        <time>2021-05-22T08:34:42Z</time>
      </trkpt>
      <trkpt lat="43.53172" lon="2.4633">
        <ele>685.836</ele>
        <time>2021-05-22T08:34:44Z</time>
      </trkpt>
      <trkpt lat="43.53173" lon="2.46331">
        <ele>686.19</ele>
        <time>2021-05-22T08:34:46Z</time>
      </trkpt>
      <trkpt lat="43.53175" lon="2.46332">
        <ele>684.609</ele>
        <time>2021-05-22T08:34:48Z</time>
      </trkpt>
      <trkpt lat="43.53177" lon="2.46333">
        <ele>683.892</ele>
        <time>2021-05-22T08:34:50Z</time>
      </trkpt>
      <trkpt lat="43.53179" lon="2.46333">
        <ele>683.789</ele>
        <time>2021-05-22T08:34:52Z</time>
      </trkpt>
      <trkpt lat="43.53182" lon="2.46335">
        <ele>683.932</ele>
        <time>2021-05-22T08:34:54Z</time>
      </trkpt>
      <trkpt lat="43.53184" lon="2.46335">
        <ele>683.041</ele>
        <time>2021-05-22T08:34:56Z</time>
      </trkpt>
      <trkpt lat="43.53186" lon="2.46337">
        <ele>683.886</ele>
        <time>2021-05-22T08:34:58Z</time>
      </trkpt>
      <trkpt lat="43.53189" lon="2.46339">
        <ele>684.969</ele>
        <time>2021-05-22T08:35:00Z</time>
      </trkpt>
      <trkpt lat="43.53191" lon="2.46342">
        <ele>685.954</ele>
        <time>2021-05-22T08:35:02Z</time>
      </trkpt>
      <trkpt lat="43.53193" lon="2.46344">
        <ele>687.77</ele>
        <time>2021-05-22T08:35:04Z</time>
      </trkpt>
      <trkpt lat="43.53195" lon="2.46345">
        <ele>689.224</ele>
        <time>2021-05-22T08:35:06Z</time>
      </trkpt>
      <trkpt lat="43.53196" lon="2.46346">
        <ele>688.775</ele>
        <time>2021-05-22T08:35:08Z</time>
      </trkpt>
      <trkpt lat="43.53197" lon="2.46348">
        <ele>689.386</ele>
        <time>2021-05-22T08:35:10Z</time>
      </trkpt>
      <trkpt lat="43.53199" lon="2.4635">
        <ele>690.126</ele>
        <time>2021-05-22T08:35:12Z</time>
      </trkpt>
      <trkpt lat="43.53201" lon="2.46351">
        <ele>690.607</ele>
        <time>2021-05-22T08:35:14Z</time>
      </trkpt>
      <trkpt lat="43.53202" lon="2.46352">
        <ele>691.342</ele>
        <time>2021-05-22T08:35:16Z</time>
      </trkpt>
      <trkpt lat="43.53204" lon="2.46353">
        <ele>691.817</ele>
        <time>2021-05-22T08:35:18Z</time>
      </trkpt>
      <trkpt lat="43.53206" lon="2.46354">
        <ele>691.782</ele>
        <time>2021-05-22T08:35:20Z</time>
      </trkpt>
      <trkpt lat="43.53208" lon="2.46355">
        <ele>691.392</ele>
        <time>2021-05-22T08:35:22Z</time>
      </trkpt>
      <trkpt lat="43.53209" lon="2.46356">
        <ele>690.929</ele>
        <time>2021-05-22T08:35:24Z</time>
      </trkpt>
      <trkpt lat="43.53211" lon="2.46356">
        <ele>691.253</ele>
        <time>2021-05-22T08:35:26Z</time>
      </trkpt>
      <trkpt lat="43.53213" lon="2.46357">
        <ele>690.918</ele>
        <time>2021-05-22T08:35:28Z</time>
      </trkpt>
      <trkpt lat="43.53214" lon="2.46359">
        <ele>690.422</ele>
        <time>2021-05-22T08:35:30Z</time>
      </trkpt>
      <trkpt lat="43.53216" lon="2.4636">
        <ele>690.479</ele>
        <time>2021-05-22T08:35:32Z</time>
      </trkpt>
      <trkpt lat="43.53218" lon="2.46362">
        <ele>689.657</ele>
        <time>2021-05-22T08:35:34Z</time>
      </trkpt>
      <trkpt lat="43.5322" lon="2.46363">
        <ele>690.206</ele>
        <time>2021-05-22T08:35:36Z</time>
      </trkpt>
      <trkpt lat="43.53222" lon="2.46365">
        <ele>691.224</ele>
        <time>2021-05-22T08:35:38Z</time>
      </trkpt>
      <trkpt lat="43.53224" lon="2.46366">
        <ele>690.645</ele>
        <time>2021-05-22T08:35:40Z</time>
      </trkpt>
      <trkpt lat="43.53225" lon="2.46368">
        <ele>690.666</ele>
        <time>2021-05-22T08:35:42Z</time>
      </trkpt>
      <trkpt lat="43.53227" lon="2.46369">
        <ele>689.984</ele>
        <time>2021-05-22T08:35:44Z</time>
      </trkpt>
      <trkpt lat="43.53229" lon="2.4637">
        <ele>689.346</ele>
        <time>2021-05-22T08:35:46Z</time>
      </trkpt>
      <trkpt lat="43.53231" lon="2.46372">
        <ele>690.78</ele>
        <time>2021-05-22T08:35:48Z</time>
      </trkpt>
      <trkpt lat="43.53234" lon="2.46374">
        <ele>691.845</ele>
        <time>2021-05-22T08:35:50Z</time>
      </trkpt>
      <trkpt lat="43.53236" lon="2.46376">
        <ele>693.029</ele>
        <time>2021-05-22T08:35:52Z</time>
      </trkpt>
      <trkpt lat="43.53238" lon="2.46378">
        <ele>694.24</ele>
        <time>2021-05-22T08:35:54Z</time>
      </trkpt>
      <trkpt lat="43.5324" lon="2.4638">
        <ele>695.733</ele>
        <time>2021-05-22T08:35:56Z</time>
      </trkpt>
      <trkpt lat="43.53242" lon="2.46382">
        <ele>696.522</ele>
        <time>2021-05-22T08:35:58Z</time>
      </trkpt>
      <trkpt lat="43.53243" lon="2.46383">
        <ele>695.962</ele>
        <time>2021-05-22T08:36:00Z</time>
      </trkpt>
      <trkpt lat="43.53244" lon="2.46385">
        <ele>695.905</ele>
        <time>2021-05-22T08:36:02Z</time>
      </trkpt>
      <trkpt lat="43.53246" lon="2.46386">
        <ele>695.458</ele>
        <time>2021-05-22T08:36:04Z</time>
      </trkpt>
      <trkpt lat="43.53247" lon="2.46388">
        <ele>694.952</ele>
        <time>2021-05-22T08:36:06Z</time>
      </trkpt>
      <trkpt lat="43.53249" lon="2.4639">
        <ele>693.833</ele>
        <time>2021-05-22T08:36:08Z</time>
      </trkpt>
      <trkpt lat="43.5325" lon="2.46391">
        <ele>693.198</ele>
        <time>2021-05-22T08:36:10Z</time>
      </trkpt>
      <trkpt lat="43.53251" lon="2.46393">
        <ele>693.86</ele>
        <time>2021-05-22T08:36:12Z</time>
      </trkpt>
      <trkpt lat="43.53254" lon="2.46395">
        <ele>694.204</ele>
        <time>2021-05-22T08:36:14Z</time>
      </trkpt>
      <trkpt lat="43.53255" lon="2.46397">
        <ele>693.956</ele>
        <time>2021-05-22T08:36:16Z</time>
      </trkpt>
      <trkpt lat="43.53256" lon="2.46398">
        <ele>693.353</ele>
        <time>2021-05-22T08:36:18Z</time>
      </trkpt>
      <trkpt lat="43.53258" lon="2.464">
        <ele>693.008</ele>
        <time>2021-05-22T08:36:20Z</time>
      </trkpt>
      <trkpt lat="43.53259" lon="2.46403">
        <ele>693.684</ele>
        <time>2021-05-22T08:36:22Z</time>
      </trkpt>
      <trkpt lat="43.53261" lon="2.46406">
        <ele>694.968</ele>
        <time>2021-05-22T08:36:24Z</time>
      </trkpt>
      <trkpt lat="43.53264" lon="2.46409">
        <ele>696.408</ele>
        <time>2021-05-22T08:36:26Z</time>
      </trkpt>
      <trkpt lat="43.53265" lon="2.46412">
        <ele>696.613</ele>
        <time>2021-05-22T08:36:28Z</time>
      </trkpt>
      <trkpt lat="43.53266" lon="2.46414">
        <ele>696.451</ele>
        <time>2021-05-22T08:36:30Z</time>
      </trkpt>
      <trkpt lat="43.53267" lon="2.46416">
        <ele>696.721</ele>
        <time>2021-05-22T08:36:32Z</time>
      </trkpt>
      <trkpt lat="43.53268" lon="2.4642">
        <ele>697.596</ele>
        <time>2021-05-22T08:36:34Z</time>
      </trkpt>
      <trkpt lat="43.53269" lon="2.46423">
        <ele>698.44</ele>
        <time>2021-05-22T08:36:36Z</time>
      </trkpt>
      <trkpt lat="43.53271" lon="2.46425">
        <ele>699.207</ele>
        <time>2021-05-22T08:36:38Z</time>
      </trkpt>
      <trkpt lat="43.53272" lon="2.46429">
        <ele>699.75</ele>
        <time>2021-05-22T08:36:40Z</time>
      </trkpt>
      <trkpt lat="43.53273" lon="2.46432">
        <ele>700.043</ele>
        <time>2021-05-22T08:36:42Z</time>
      </trkpt>
      <trkpt lat="43.53274" lon="2.46434">
        <ele>699.75</ele>
        <time>2021-05-22T08:36:44Z</time>
      </trkpt>
      <trkpt lat="43.53276" lon="2.46436">
        <ele>700.501</ele>
        <time>2021-05-22T08:36:46Z</time>
      </trkpt>
      <trkpt lat="43.53277" lon="2.46439">
        <ele>701.056</ele>
        <time>2021-05-22T08:36:48Z</time>
      </trkpt>
      <trkpt lat="43.53279" lon="2.46441">
        <ele>700.997</ele>
        <time>2021-05-22T08:36:50Z</time>
      </trkpt>
      <trkpt lat="43.5328" lon="2.46444">
        <ele>701.547</ele>
        <time>2021-05-22T08:36:52Z</time>
      </trkpt>
      <trkpt lat="43.53282" lon="2.46447">
        <ele>702.233</ele>
        <time>2021-05-22T08:36:54Z</time>
      </trkpt>
      <trkpt lat="43.53283" lon="2.4645">
        <ele>702.334</ele>
        <time>2021-05-22T08:36:56Z</time>
      </trkpt>
      <trkpt lat="43.53284" lon="2.46453">
        <ele>701.899</ele>
        <time>2021-05-22T08:36:58Z</time>
      </trkpt>
      <trkpt lat="43.53285" lon="2.46455">
        <ele>701.202</ele>
        <time>2021-05-22T08:37:00Z</time>
      </trkpt>
      <trkpt lat="43.53286" lon="2.46458">
        <ele>701.557</ele>
        <time>2021-05-22T08:37:02Z</time>
      </trkpt>
      <trkpt lat="43.53287" lon="2.46461">
        <ele>701.535</ele>
        <time>2021-05-22T08:37:04Z</time>
      </trkpt>
      <trkpt lat="43.53288" lon="2.46465">
        <ele>702.574</ele>
        <time>2021-05-22T08:37:06Z</time>
      </trkpt>
      <trkpt lat="43.53289" lon="2.46467">
        <ele>701.895</ele>
        <time>2021-05-22T08:37:08Z</time>
      </trkpt>
      <trkpt lat="43.5329" lon="2.46469">
        <ele>701.613</ele>
        <time>2021-05-22T08:37:10Z</time>
      </trkpt>
      <trkpt lat="43.53291" lon="2.46471">
        <ele>700.665</ele>
        <time>2021-05-22T08:37:12Z</time>
      </trkpt>
      <trkpt lat="43.53293" lon="2.46473">
        <ele>700.297</ele>
        <time>2021-05-22T08:37:14Z</time>
      </trkpt>
      <trkpt lat="43.53294" lon="2.46475">
        <ele>699.705</ele>
        <time>2021-05-22T08:37:16Z</time>
      </trkpt>
      <trkpt lat="43.53296" lon="2.46477">
        <ele>699.585</ele>
        <time>2021-05-22T08:37:18Z</time>
      </trkpt>
      <trkpt lat="43.53297" lon="2.4648">
        <ele>699.064</ele>
        <time>2021-05-22T08:37:20Z</time>
      </trkpt>
      <trkpt lat="43.53299" lon="2.46482">
        <ele>699.382</ele>
        <time>2021-05-22T08:37:22Z</time>
      </trkpt>
      <trkpt lat="43.53301" lon="2.46485">
        <ele>700.081</ele>
        <time>2021-05-22T08:37:24Z</time>
      </trkpt>
      <trkpt lat="43.53303" lon="2.46487">
        <ele>699.418</ele>
        <time>2021-05-22T08:37:26Z</time>
      </trkpt>
      <trkpt lat="43.53304" lon="2.46489">
        <ele>698.537</ele>
        <time>2021-05-22T08:37:28Z</time>
      </trkpt>
      <trkpt lat="43.53305" lon="2.46491">
        <ele>697.485</ele>
        <time>2021-05-22T08:37:30Z</time>
      </trkpt>
      <trkpt lat="43.53308" lon="2.46493">
        <ele>697.581</ele>
        <time>2021-05-22T08:37:32Z</time>
      </trkpt>
      <trkpt lat="43.53309" lon="2.46495">
        <ele>697.464</ele>
        <time>2021-05-22T08:37:34Z</time>
      </trkpt>
      <trkpt lat="43.53311" lon="2.46496">
        <ele>697.622</ele>
        <time>2021-05-22T08:37:36Z</time>
      </trkpt>
      <trkpt lat="43.53313" lon="2.46498">
        <ele>697.968</ele>
        <time>2021-05-22T08:37:38Z</time>
      </trkpt>
      <trkpt lat="43.53315" lon="2.465">
        <ele>698.408</ele>
        <time>2021-05-22T08:37:40Z</time>
      </trkpt>
      <trkpt lat="43.53317" lon="2.46503">
        <ele>698.523</ele>
        <time>2021-05-22T08:37:42Z</time>
      </trkpt>
      <trkpt lat="43.53319" lon="2.46506">
        <ele>699.922</ele>
        <time>2021-05-22T08:37:44Z</time>
      </trkpt>
      <trkpt lat="43.53317" lon="2.46511">
        <ele>699.525</ele>
        <time>2021-05-22T08:37:46Z</time>
      </trkpt>
      <trkpt lat="43.53319" lon="2.46513">
        <ele>699.8</ele>
        <time>2021-05-22T08:37:48Z</time>
      </trkpt>
      <trkpt lat="43.5332" lon="2.46513">
        <ele>698.606</ele>
        <time>2021-05-22T08:37:50Z</time>
      </trkpt>
      <trkpt lat="43.53322" lon="2.46514">
        <ele>698.156</ele>
        <time>2021-05-22T08:37:52Z</time>
      </trkpt>
      <trkpt lat="43.53324" lon="2.46516">
        <ele>697.742</ele>
        <time>2021-05-22T08:37:54Z</time>
      </trkpt>
      <trkpt lat="43.53326" lon="2.46517">
        <ele>696.998</ele>
        <time>2021-05-22T08:37:56Z</time>
      </trkpt>
      <trkpt lat="43.53328" lon="2.46519">
        <ele>697.915</ele>
        <time>2021-05-22T08:37:58Z</time>
      </trkpt>
      <trkpt lat="43.53329" lon="2.46522">
        <ele>697.52</ele>
        <time>2021-05-22T08:38:00Z</time>
      </trkpt>
      <trkpt lat="43.53331" lon="2.46523">
        <ele>696.902</ele>
        <time>2021-05-22T08:38:02Z</time>
      </trkpt>
      <trkpt lat="43.53333" lon="2.46525">
        <ele>695.632</ele>
        <time>2021-05-22T08:38:04Z</time>
      </trkpt>
      <trkpt lat="43.53335" lon="2.46526">
        <ele>695.605</ele>
        <time>2021-05-22T08:38:06Z</time>
      </trkpt>
      <trkpt lat="43.53337" lon="2.46528">
        <ele>695.65</ele>
        <time>2021-05-22T08:38:08Z</time>
      </trkpt>
      <trkpt lat="43.53339" lon="2.46529">
        <ele>695.332</ele>
        <time>2021-05-22T08:38:10Z</time>
      </trkpt>
      <trkpt lat="43.53342" lon="2.4653">
        <ele>695.573</ele>
        <time>2021-05-22T08:38:12Z</time>
      </trkpt>
      <trkpt lat="43.53345" lon="2.46532">
        <ele>696.528</ele>
        <time>2021-05-22T08:38:14Z</time>
      </trkpt>
      <trkpt lat="43.53347" lon="2.46533">
        <ele>696.184</ele>
        <time>2021-05-22T08:38:16Z</time>
      </trkpt>
      <trkpt lat="43.53349" lon="2.46535">
        <ele>696.132</ele>
        <time>2021-05-22T08:38:18Z</time>
      </trkpt>
      <trkpt lat="43.53351" lon="2.46537">
        <ele>696.027</ele>
        <time>2021-05-22T08:38:20Z</time>
      </trkpt>
      <trkpt lat="43.53354" lon="2.46539">
        <ele>696.244</ele>
        <time>2021-05-22T08:38:22Z</time>
      </trkpt>
      <trkpt lat="43.53356" lon="2.4654">
        <ele>696.856</ele>
        <time>2021-05-22T08:38:24Z</time>
      </trkpt>
      <trkpt lat="43.53359" lon="2.46542">
        <ele>697.101</ele>
        <time>2021-05-22T08:38:26Z</time>
      </trkpt>
      <trkpt lat="43.53361" lon="2.46543">
        <ele>696.924</ele>
        <time>2021-05-22T08:38:28Z</time>
      </trkpt>
      <trkpt lat="43.53363" lon="2.46545">
        <ele>697.12</ele>
        <time>2021-05-22T08:38:30Z</time>
      </trkpt>
      <trkpt lat="43.53365" lon="2.46547">
        <ele>697.29</ele>
        <time>2021-05-22T08:38:32Z</time>
      </trkpt>
      <trkpt lat="43.53367" lon="2.46548">
        <ele>697.806</ele>
        <time>2021-05-22T08:38:34Z</time>
      </trkpt>
      <trkpt lat="43.53369" lon="2.4655">
        <ele>696.855</ele>
        <time>2021-05-22T08:38:36Z</time>
      </trkpt>
      <trkpt lat="43.5337" lon="2.46551">
        <ele>696.297</ele>
        <time>2021-05-22T08:38:38Z</time>
      </trkpt>
      <trkpt lat="43.53373" lon="2.46552">
        <ele>696.559</ele>
        <time>2021-05-22T08:38:40Z</time>
      </trkpt>
      <trkpt lat="43.53375" lon="2.46553">
        <ele>696.402</ele>
        <time>2021-05-22T08:38:42Z</time>
      </trkpt>
      <trkpt lat="43.53378" lon="2.46555">
        <ele>696.971</ele>
        <time>2021-05-22T08:38:44Z</time>
      </trkpt>
      <trkpt lat="43.53381" lon="2.46557">
        <ele>697.778</ele>
        <time>2021-05-22T08:38:46Z</time>
      </trkpt>
      <trkpt lat="43.53382" lon="2.46558">
        <ele>697.573</ele>
        <time>2021-05-22T08:38:48Z</time>
      </trkpt>
      <trkpt lat="43.53384" lon="2.46559">
        <ele>697.063</ele>
        <time>2021-05-22T08:38:50Z</time>
      </trkpt>
      <trkpt lat="43.53386" lon="2.4656">
        <ele>697.04</ele>
        <time>2021-05-22T08:38:52Z</time>
      </trkpt>
      <trkpt lat="43.53388" lon="2.46561">
        <ele>696.06</ele>
        <time>2021-05-22T08:38:54Z</time>
      </trkpt>
      <trkpt lat="43.53389" lon="2.46562">
        <ele>694.863</ele>
        <time>2021-05-22T08:38:56Z</time>
      </trkpt>
      <trkpt lat="43.53392" lon="2.46563">
        <ele>694.911</ele>
        <time>2021-05-22T08:38:58Z</time>
      </trkpt>
      <trkpt lat="43.53395" lon="2.46564">
        <ele>695.663</ele>
        <time>2021-05-22T08:39:00Z</time>
      </trkpt>
      <trkpt lat="43.53397" lon="2.46566">
        <ele>695.901</ele>
        <time>2021-05-22T08:39:02Z</time>
      </trkpt>
      <trkpt lat="43.53399" lon="2.46567">
        <ele>694.94</ele>
        <time>2021-05-22T08:39:04Z</time>
      </trkpt>
      <trkpt lat="43.53401" lon="2.46568">
        <ele>694.391</ele>
        <time>2021-05-22T08:39:06Z</time>
      </trkpt>
      <trkpt lat="43.53402" lon="2.4657">
        <ele>694.253</ele>
        <time>2021-05-22T08:39:08Z</time>
      </trkpt>
      <trkpt lat="43.53404" lon="2.46571">
        <ele>694.738</ele>
        <time>2021-05-22T08:39:10Z</time>
      </trkpt>
      <trkpt lat="43.53406" lon="2.46573">
        <ele>694.217</ele>
        <time>2021-05-22T08:39:12Z</time>
      </trkpt>
      <trkpt lat="43.53408" lon="2.46575">
        <ele>694.652</ele>
        <time>2021-05-22T08:39:14Z</time>
      </trkpt>
      <trkpt lat="43.5341" lon="2.46577">
        <ele>694.852</ele>
        <time>2021-05-22T08:39:16Z</time>
      </trkpt>
      <trkpt lat="43.53412" lon="2.46579">
        <ele>694.686</ele>
        <time>2021-05-22T08:39:18Z</time>
      </trkpt>
      <trkpt lat="43.53413" lon="2.4658">
        <ele>694.722</ele>
        <time>2021-05-22T08:39:20Z</time>
      </trkpt>
      <trkpt lat="43.53415" lon="2.46582">
        <ele>694.512</ele>
        <time>2021-05-22T08:39:22Z</time>
      </trkpt>
      <trkpt lat="43.53416" lon="2.46584">
        <ele>693.539</ele>
        <time>2021-05-22T08:39:24Z</time>
      </trkpt>
      <trkpt lat="43.53418" lon="2.46585">
        <ele>692.971</ele>
        <time>2021-05-22T08:39:26Z</time>
      </trkpt>
      <trkpt lat="43.5342" lon="2.46587">
        <ele>692.371</ele>
        <time>2021-05-22T08:39:28Z</time>
      </trkpt>
      <trkpt lat="43.53422" lon="2.46589">
        <ele>692.026</ele>
        <time>2021-05-22T08:39:30Z</time>
      </trkpt>
      <trkpt lat="43.53423" lon="2.4659">
        <ele>691.7</ele>
        <time>2021-05-22T08:39:32Z</time>
      </trkpt>
      <trkpt lat="43.53425" lon="2.46592">
        <ele>690.709</ele>
        <time>2021-05-22T08:39:34Z</time>
      </trkpt>
      <trkpt lat="43.53427" lon="2.46594">
        <ele>690.875</ele>
        <time>2021-05-22T08:39:36Z</time>
      </trkpt>
      <trkpt lat="43.5343" lon="2.46597">
        <ele>691.701</ele>
        <time>2021-05-22T08:39:38Z</time>
      </trkpt>
      <trkpt lat="43.53432" lon="2.46599">
        <ele>691.354</ele>
        <time>2021-05-22T08:39:40Z</time>
      </trkpt>
      <trkpt lat="43.53435" lon="2.46601">
        <ele>691.891</ele>
        <time>2021-05-22T08:39:42Z</time>
      </trkpt>
      <trkpt lat="43.53437" lon="2.46603">
        <ele>691.79</ele>
        <time>2021-05-22T08:39:44Z</time>
      </trkpt>
      <trkpt lat="43.53439" lon="2.46606">
        <ele>691.753</ele>
        <time>2021-05-22T08:39:46Z</time>
      </trkpt>
      <trkpt lat="43.53441" lon="2.46607">
        <ele>691.801</ele>
        <time>2021-05-22T08:39:48Z</time>
      </trkpt>
      <trkpt lat="43.53443" lon="2.46609">
        <ele>692.283</ele>
        <time>2021-05-22T08:39:50Z</time>
      </trkpt>
      <trkpt lat="43.53445" lon="2.46613">
        <ele>693.324</ele>
        <time>2021-05-22T08:39:52Z</time>
      </trkpt>
      <trkpt lat="43.53447" lon="2.46615">
        <ele>693.704</ele>
        <time>2021-05-22T08:39:54Z</time>
      </trkpt>
      <trkpt lat="43.53449" lon="2.46617">
        <ele>693.166</ele>
        <time>2021-05-22T08:39:56Z</time>
      </trkpt>
      <trkpt lat="43.53451" lon="2.46619">
        <ele>692.321</ele>
        <time>2021-05-22T08:39:58Z</time>
      </trkpt>
      <trkpt lat="43.53453" lon="2.46621">
        <ele>691.595</ele>
        <time>2021-05-22T08:40:00Z</time>
      </trkpt>
      <trkpt lat="43.53455" lon="2.46623">
        <ele>691.685</ele>
        <time>2021-05-22T08:40:02Z</time>
      </trkpt>
      <trkpt lat="43.53456" lon="2.46625">
        <ele>691.542</ele>
        <time>2021-05-22T08:40:04Z</time>
      </trkpt>
      <trkpt lat="43.53457" lon="2.46628">
        <ele>691.537</ele>
        <time>2021-05-22T08:40:06Z</time>
      </trkpt>
      <trkpt lat="43.53459" lon="2.4663">
        <ele>690.955</ele>
        <time>2021-05-22T08:40:08Z</time>
      </trkpt>
      <trkpt lat="43.53461" lon="2.46632">
        <ele>690.983</ele>
        <time>2021-05-22T08:40:10Z</time>
      </trkpt>
      <trkpt lat="43.53462" lon="2.46635">
        <ele>691.195</ele>
        <time>2021-05-22T08:40:12Z</time>
      </trkpt>
      <trkpt lat="43.53464" lon="2.46638">
        <ele>691.34</ele>
        <time>2021-05-22T08:40:14Z</time>
      </trkpt>
      <trkpt lat="43.53465" lon="2.4664">
        <ele>690.436</ele>
        <time>2021-05-22T08:40:16Z</time>
      </trkpt>
      <trkpt lat="43.53466" lon="2.46642">
        <ele>690.453</ele>
        <time>2021-05-22T08:40:18Z</time>
      </trkpt>
      <trkpt lat="43.53468" lon="2.46645">
        <ele>689.703</ele>
        <time>2021-05-22T08:40:20Z</time>
      </trkpt>
      <trkpt lat="43.53469" lon="2.46648">
        <ele>689.429</ele>
        <time>2021-05-22T08:40:22Z</time>
      </trkpt>
      <trkpt lat="43.53471" lon="2.46651">
        <ele>689.414</ele>
        <time>2021-05-22T08:40:24Z</time>
      </trkpt>
      <trkpt lat="43.53472" lon="2.46653">
        <ele>689.911</ele>
        <time>2021-05-22T08:40:26Z</time>
      </trkpt>
      <trkpt lat="43.53473" lon="2.46656">
        <ele>690.502</ele>
        <time>2021-05-22T08:40:28Z</time>
      </trkpt>
      <trkpt lat="43.53474" lon="2.46659">
        <ele>690.996</ele>
        <time>2021-05-22T08:40:30Z</time>
      </trkpt>
      <trkpt lat="43.53476" lon="2.46662">
        <ele>691.842</ele>
        <time>2021-05-22T08:40:32Z</time>
      </trkpt>
      <trkpt lat="43.53477" lon="2.46665">
        <ele>692.101</ele>
        <time>2021-05-22T08:40:34Z</time>
      </trkpt>
      <trkpt lat="43.53478" lon="2.46668">
        <ele>692.845</ele>
        <time>2021-05-22T08:40:36Z</time>
      </trkpt>
      <trkpt lat="43.53479" lon="2.46671">
        <ele>693.754</ele>
        <time>2021-05-22T08:40:38Z</time>
      </trkpt>
      <trkpt lat="43.53481" lon="2.46674">
        <ele>692.775</ele>
        <time>2021-05-22T08:40:40Z</time>
      </trkpt>
      <trkpt lat="43.53482" lon="2.46676">
        <ele>692.669</ele>
        <time>2021-05-22T08:40:42Z</time>
      </trkpt>
      <trkpt lat="43.53483" lon="2.4668">
        <ele>693.777</ele>
        <time>2021-05-22T08:40:44Z</time>
      </trkpt>
      <trkpt lat="43.53484" lon="2.46684">
        <ele>695.086</ele>
        <time>2021-05-22T08:40:46Z</time>
      </trkpt>
      <trkpt lat="43.53485" lon="2.46686">
        <ele>696.284</ele>
        <time>2021-05-22T08:40:48Z</time>
      </trkpt>
      <trkpt lat="43.53486" lon="2.46689">
        <ele>694.711</ele>
        <time>2021-05-22T08:40:50Z</time>
      </trkpt>
      <trkpt lat="43.53487" lon="2.46692">
        <ele>694.012</ele>
        <time>2021-05-22T08:40:52Z</time>
      </trkpt>
      <trkpt lat="43.53488" lon="2.46695">
        <ele>693.446</ele>
        <time>2021-05-22T08:40:54Z</time>
      </trkpt>
      <trkpt lat="43.5349" lon="2.46699">
        <ele>693.869</ele>
        <time>2021-05-22T08:40:56Z</time>
      </trkpt>
      <trkpt lat="43.53491" lon="2.46701">
        <ele>692.666</ele>
        <time>2021-05-22T08:40:58Z</time>
      </trkpt>
      <trkpt lat="43.53492" lon="2.46704">
        <ele>692.206</ele>
        <time>2021-05-22T08:41:00Z</time>
      </trkpt>
      <trkpt lat="43.53493" lon="2.46707">
        <ele>692.13</ele>
        <time>2021-05-22T08:41:02Z</time>
      </trkpt>
      <trkpt lat="43.53494" lon="2.4671">
        <ele>691.22</ele>
        <time>2021-05-22T08:41:04Z</time>
      </trkpt>
      <trkpt lat="43.53496" lon="2.46713">
        <ele>690.055</ele>
        <time>2021-05-22T08:41:06Z</time>
      </trkpt>
      <trkpt lat="43.53497" lon="2.46716">
        <ele>689.246</ele>
        <time>2021-05-22T08:41:08Z</time>
      </trkpt>
      <trkpt lat="43.53499" lon="2.46718">
        <ele>689.342</ele>
        <time>2021-05-22T08:41:10Z</time>
      </trkpt>
      <trkpt lat="43.535" lon="2.4672">
        <ele>689.114</ele>
        <time>2021-05-22T08:41:12Z</time>
      </trkpt>
      <trkpt lat="43.535" lon="2.46723">
        <ele>689.113</ele>
        <time>2021-05-22T08:41:14Z</time>
      </trkpt>
      <trkpt lat="43.53501" lon="2.46725">
        <ele>688.85</ele>
        <time>2021-05-22T08:41:16Z</time>
      </trkpt>
      <trkpt lat="43.53502" lon="2.46728">
        <ele>688.71</ele>
        <time>2021-05-22T08:41:18Z</time>
      </trkpt>
      <trkpt lat="43.53503" lon="2.4673">
        <ele>688.431</ele>
        <time>2021-05-22T08:41:20Z</time>
      </trkpt>
      <trkpt lat="43.53504" lon="2.46733">
        <ele>689.142</ele>
        <time>2021-05-22T08:41:22Z</time>
      </trkpt>
      <trkpt lat="43.53506" lon="2.46735">
        <ele>688.388</ele>
        <time>2021-05-22T08:41:24Z</time>
      </trkpt>
      <trkpt lat="43.53507" lon="2.46738">
        <ele>687.549</ele>
        <time>2021-05-22T08:41:26Z</time>
      </trkpt>
      <trkpt lat="43.53508" lon="2.4674">
        <ele>687.009</ele>
        <time>2021-05-22T08:41:28Z</time>
      </trkpt>
      <trkpt lat="43.53509" lon="2.46743">
        <ele>686.111</ele>
        <time>2021-05-22T08:41:30Z</time>
      </trkpt>
      <trkpt lat="43.5351" lon="2.46746">
        <ele>684.437</ele>
        <time>2021-05-22T08:41:32Z</time>
      </trkpt>
      <trkpt lat="43.53512" lon="2.46748">
        <ele>683.536</ele>
        <time>2021-05-22T08:41:34Z</time>
      </trkpt>
      <trkpt lat="43.53513" lon="2.46751">
        <ele>683.016</ele>
        <time>2021-05-22T08:41:36Z</time>
      </trkpt>
      <trkpt lat="43.53515" lon="2.46753">
        <ele>681.841</ele>
        <time>2021-05-22T08:41:38Z</time>
      </trkpt>
      <trkpt lat="43.53518" lon="2.46756">
        <ele>681.975</ele>
        <time>2021-05-22T08:41:40Z</time>
      </trkpt>
      <trkpt lat="43.53519" lon="2.46759">
        <ele>681.743</ele>
        <time>2021-05-22T08:41:42Z</time>
      </trkpt>
      <trkpt lat="43.5352" lon="2.46761">
        <ele>681.514</ele>
        <time>2021-05-22T08:41:44Z</time>
      </trkpt>
      <trkpt lat="43.53522" lon="2.46764">
        <ele>681.268</ele>
        <time>2021-05-22T08:41:46Z</time>
      </trkpt>
      <trkpt lat="43.53523" lon="2.46768">
        <ele>682.174</ele>
        <time>2021-05-22T08:41:48Z</time>
      </trkpt>
      <trkpt lat="43.53525" lon="2.46771">
        <ele>682.741</ele>
        <time>2021-05-22T08:41:50Z</time>
      </trkpt>
      <trkpt lat="43.53526" lon="2.46774">
        <ele>683.621</ele>
        <time>2021-05-22T08:41:52Z</time>
      </trkpt>
      <trkpt lat="43.53528" lon="2.46777">
        <ele>682.835</ele>
        <time>2021-05-22T08:41:54Z</time>
      </trkpt>
      <trkpt lat="43.53529" lon="2.46781">
        <ele>682.341</ele>
        <time>2021-05-22T08:41:56Z</time>
      </trkpt>
      <trkpt lat="43.53531" lon="2.46784">
        <ele>682.635</ele>
        <time>2021-05-22T08:41:58Z</time>
      </trkpt>
      <trkpt lat="43.53533" lon="2.46787">
        <ele>683.168</ele>
        <time>2021-05-22T08:42:00Z</time>
      </trkpt>
      <trkpt lat="43.53535" lon="2.46788">
        <ele>683.447</ele>
        <time>2021-05-22T08:42:02Z</time>
      </trkpt>
      <trkpt lat="43.53537" lon="2.46789">
        <ele>684.874</ele>
        <time>2021-05-22T08:42:04Z</time>
      </trkpt>
      <trkpt lat="43.53539" lon="2.4679">
        <ele>684.995</ele>
        <time>2021-05-22T08:42:06Z</time>
      </trkpt>
      <trkpt lat="43.53541" lon="2.46791">
        <ele>685.458</ele>
        <time>2021-05-22T08:42:08Z</time>
      </trkpt>
      <trkpt lat="43.53544" lon="2.46791">
        <ele>686.231</ele>
        <time>2021-05-22T08:42:10Z</time>
      </trkpt>
      <trkpt lat="43.53547" lon="2.46791">
        <ele>685.166</ele>
        <time>2021-05-22T08:42:12Z</time>
      </trkpt>
      <trkpt lat="43.53549" lon="2.46791">
        <ele>685.519</ele>
        <time>2021-05-22T08:42:14Z</time>
      </trkpt>
      <trkpt lat="43.53552" lon="2.46791">
        <ele>688.113</ele>
        <time>2021-05-22T08:42:16Z</time>
      </trkpt>
      <trkpt lat="43.53554" lon="2.46792">
        <ele>687.543</ele>
        <time>2021-05-22T08:42:18Z</time>
      </trkpt>
      <trkpt lat="43.53555" lon="2.46794">
        <ele>686.919</ele>
        <time>2021-05-22T08:42:20Z</time>
      </trkpt>
      <trkpt lat="43.53556" lon="2.46795">
        <ele>687.132</ele>
        <time>2021-05-22T08:42:22Z</time>
      </trkpt>
      <trkpt lat="43.53558" lon="2.46797">
        <ele>687.231</ele>
        <time>2021-05-22T08:42:24Z</time>
      </trkpt>
      <trkpt lat="43.5356" lon="2.46799">
        <ele>688.977</ele>
        <time>2021-05-22T08:42:26Z</time>
      </trkpt>
      <trkpt lat="43.53561" lon="2.46801">
        <ele>689.043</ele>
        <time>2021-05-22T08:42:28Z</time>
      </trkpt>
      <trkpt lat="43.53563" lon="2.46803">
        <ele>690.36</ele>
        <time>2021-05-22T08:42:30Z</time>
      </trkpt>
      <trkpt lat="43.53564" lon="2.46805">
        <ele>690.546</ele>
        <time>2021-05-22T08:42:32Z</time>
      </trkpt>
      <trkpt lat="43.53566" lon="2.46807">
        <ele>690.664</ele>
        <time>2021-05-22T08:42:34Z</time>
      </trkpt>
      <trkpt lat="43.53568" lon="2.46808">
        <ele>689.725</ele>
        <time>2021-05-22T08:42:36Z</time>
      </trkpt>
      <trkpt lat="43.53569" lon="2.46809">
        <ele>689.666</ele>
        <time>2021-05-22T08:42:38Z</time>
      </trkpt>
      <trkpt lat="43.5357" lon="2.4681">
        <ele>689.279</ele>
        <time>2021-05-22T08:42:39Z</time>
      </trkpt>
      <trkpt lat="43.53575" lon="2.46813">
        <ele>689.928</ele>
        <time>2021-05-22T08:42:45Z</time>
      </trkpt>
      <trkpt lat="43.53576" lon="2.46815">
        <ele>689.959</ele>
        <time>2021-05-22T08:42:47Z</time>
      </trkpt>
      <trkpt lat="43.53578" lon="2.46816">
        <ele>689.42</ele>
        <time>2021-05-22T08:42:49Z</time>
      </trkpt>
      <trkpt lat="43.53581" lon="2.46817">
        <ele>689.998</ele>
        <time>2021-05-22T08:42:51Z</time>
      </trkpt>
      <trkpt lat="43.53582" lon="2.46818">
        <ele>689.562</ele>
        <time>2021-05-22T08:42:53Z</time>
      </trkpt>
      <trkpt lat="43.53584" lon="2.46819">
        <ele>689.618</ele>
        <time>2021-05-22T08:42:55Z</time>
      </trkpt>
      <trkpt lat="43.53585" lon="2.4682">
        <ele>689.237</ele>
        <time>2021-05-22T08:42:57Z</time>
      </trkpt>
      <trkpt lat="43.53587" lon="2.46822">
        <ele>689.195</ele>
        <time>2021-05-22T08:42:59Z</time>
      </trkpt>
      <trkpt lat="43.53588" lon="2.46823">
        <ele>688.388</ele>
        <time>2021-05-22T08:43:01Z</time>
      </trkpt>
      <trkpt lat="43.5359" lon="2.46825">
        <ele>688.916</ele>
        <time>2021-05-22T08:43:03Z</time>
      </trkpt>
      <trkpt lat="43.53592" lon="2.46826">
        <ele>689.295</ele>
        <time>2021-05-22T08:43:05Z</time>
      </trkpt>
      <trkpt lat="43.53594" lon="2.46828">
        <ele>688.95</ele>
        <time>2021-05-22T08:43:07Z</time>
      </trkpt>
      <trkpt lat="43.53596" lon="2.4683">
        <ele>689.89</ele>
        <time>2021-05-22T08:43:09Z</time>
      </trkpt>
      <trkpt lat="43.53598" lon="2.46831">
        <ele>689.966</ele>
        <time>2021-05-22T08:43:11Z</time>
      </trkpt>
      <trkpt lat="43.536" lon="2.46833">
        <ele>689.891</ele>
        <time>2021-05-22T08:43:13Z</time>
      </trkpt>
      <trkpt lat="43.53602" lon="2.46834">
        <ele>691.053</ele>
        <time>2021-05-22T08:43:15Z</time>
      </trkpt>
      <trkpt lat="43.53603" lon="2.46836">
        <ele>692.409</ele>
        <time>2021-05-22T08:43:17Z</time>
      </trkpt>
      <trkpt lat="43.53605" lon="2.46838">
        <ele>693.687</ele>
        <time>2021-05-22T08:43:19Z</time>
      </trkpt>
      <trkpt lat="43.53606" lon="2.4684">
        <ele>693.858</ele>
        <time>2021-05-22T08:43:21Z</time>
      </trkpt>
      <trkpt lat="43.53608" lon="2.46841">
        <ele>694.258</ele>
        <time>2021-05-22T08:43:23Z</time>
      </trkpt>
      <trkpt lat="43.5361" lon="2.46843">
        <ele>694.303</ele>
        <time>2021-05-22T08:43:25Z</time>
      </trkpt>
      <trkpt lat="43.53612" lon="2.46843">
        <ele>693.862</ele>
        <time>2021-05-22T08:43:27Z</time>
      </trkpt>
      <trkpt lat="43.53613" lon="2.46845">
        <ele>695.236</ele>
        <time>2021-05-22T08:43:29Z</time>
      </trkpt>
      <trkpt lat="43.53615" lon="2.46847">
        <ele>694.856</ele>
        <time>2021-05-22T08:43:31Z</time>
      </trkpt>
      <trkpt lat="43.53617" lon="2.46847">
        <ele>693.177</ele>
        <time>2021-05-22T08:43:33Z</time>
      </trkpt>
      <trkpt lat="43.53619" lon="2.46848">
        <ele>693.361</ele>
        <time>2021-05-22T08:43:35Z</time>
      </trkpt>
      <trkpt lat="43.53621" lon="2.4685">
        <ele>692.871</ele>
        <time>2021-05-22T08:43:37Z</time>
      </trkpt>
      <trkpt lat="43.53622" lon="2.46851">
        <ele>692.268</ele>
        <time>2021-05-22T08:43:39Z</time>
      </trkpt>
      <trkpt lat="43.53624" lon="2.46852">
        <ele>692.699</ele>
        <time>2021-05-22T08:43:41Z</time>
      </trkpt>
      <trkpt lat="43.53626" lon="2.46853">
        <ele>693.195</ele>
        <time>2021-05-22T08:43:43Z</time>
      </trkpt>
      <trkpt lat="43.53628" lon="2.46854">
        <ele>692.09</ele>
        <time>2021-05-22T08:43:45Z</time>
      </trkpt>
      <trkpt lat="43.5363" lon="2.46855">
        <ele>692.97</ele>
        <time>2021-05-22T08:43:47Z</time>
      </trkpt>
      <trkpt lat="43.53631" lon="2.46856">
        <ele>693.053</ele>
        <time>2021-05-22T08:43:49Z</time>
      </trkpt>
      <trkpt lat="43.53633" lon="2.46858">
        <ele>693.042</ele>
        <time>2021-05-22T08:43:51Z</time>
      </trkpt>
      <trkpt lat="43.53635" lon="2.4686">
        <ele>693.614</ele>
        <time>2021-05-22T08:43:53Z</time>
      </trkpt>
      <trkpt lat="43.53637" lon="2.46862">
        <ele>693.96</ele>
        <time>2021-05-22T08:43:55Z</time>
      </trkpt>
      <trkpt lat="43.53639" lon="2.46864">
        <ele>693.038</ele>
        <time>2021-05-22T08:43:57Z</time>
      </trkpt>
      <trkpt lat="43.53642" lon="2.46865">
        <ele>693.846</ele>
        <time>2021-05-22T08:43:59Z</time>
      </trkpt>
      <trkpt lat="43.53644" lon="2.46868">
        <ele>694.186</ele>
        <time>2021-05-22T08:44:01Z</time>
      </trkpt>
      <trkpt lat="43.53647" lon="2.4687">
        <ele>694.853</ele>
        <time>2021-05-22T08:44:03Z</time>
      </trkpt>
      <trkpt lat="43.53649" lon="2.46872">
        <ele>696.366</ele>
        <time>2021-05-22T08:44:05Z</time>
      </trkpt>
      <trkpt lat="43.53651" lon="2.46874">
        <ele>696.587</ele>
        <time>2021-05-22T08:44:07Z</time>
      </trkpt>
      <trkpt lat="43.53653" lon="2.46875">
        <ele>696.043</ele>
        <time>2021-05-22T08:44:09Z</time>
      </trkpt>
      <trkpt lat="43.53656" lon="2.46878">
        <ele>697.83</ele>
        <time>2021-05-22T08:44:11Z</time>
      </trkpt>
      <trkpt lat="43.53658" lon="2.46879">
        <ele>697.713</ele>
        <time>2021-05-22T08:44:13Z</time>
      </trkpt>
      <trkpt lat="43.53659" lon="2.46881">
        <ele>697.397</ele>
        <time>2021-05-22T08:44:15Z</time>
      </trkpt>
      <trkpt lat="43.5366" lon="2.46883">
        <ele>697.711</ele>
        <time>2021-05-22T08:44:17Z</time>
      </trkpt>
      <trkpt lat="43.53662" lon="2.46885">
        <ele>697.245</ele>
        <time>2021-05-22T08:44:19Z</time>
      </trkpt>
      <trkpt lat="43.53664" lon="2.46886">
        <ele>696.312</ele>
        <time>2021-05-22T08:44:21Z</time>
      </trkpt>
      <trkpt lat="43.53666" lon="2.46887">
        <ele>695.094</ele>
        <time>2021-05-22T08:44:23Z</time>
      </trkpt>
      <trkpt lat="43.53667" lon="2.46889">
        <ele>694.64</ele>
        <time>2021-05-22T08:44:25Z</time>
      </trkpt>
      <trkpt lat="43.53669" lon="2.46891">
        <ele>693.478</ele>
        <time>2021-05-22T08:44:27Z</time>
      </trkpt>
      <trkpt lat="43.5367" lon="2.46892">
        <ele>693.868</ele>
        <time>2021-05-22T08:44:29Z</time>
      </trkpt>
      <trkpt lat="43.53672" lon="2.46894">
        <ele>693.714</ele>
        <time>2021-05-22T08:44:31Z</time>
      </trkpt>
      <trkpt lat="43.53674" lon="2.46896">
        <ele>693.381</ele>
        <time>2021-05-22T08:44:33Z</time>
      </trkpt>
      <trkpt lat="43.53675" lon="2.46897">
        <ele>694.997</ele>
        <time>2021-05-22T08:44:35Z</time>
      </trkpt>
      <trkpt lat="43.53678" lon="2.46899">
        <ele>696.597</ele>
        <time>2021-05-22T08:44:37Z</time>
      </trkpt>
      <trkpt lat="43.5368" lon="2.46902">
        <ele>698.08</ele>
        <time>2021-05-22T08:44:39Z</time>
      </trkpt>
      <trkpt lat="43.53682" lon="2.46905">
        <ele>700.13</ele>
        <time>2021-05-22T08:44:41Z</time>
      </trkpt>
      <trkpt lat="43.53685" lon="2.46907">
        <ele>700.381</ele>
        <time>2021-05-22T08:44:43Z</time>
      </trkpt>
      <trkpt lat="43.53687" lon="2.46909">
        <ele>701.041</ele>
        <time>2021-05-22T08:44:45Z</time>
      </trkpt>
      <trkpt lat="43.53689" lon="2.46911">
        <ele>701.149</ele>
        <time>2021-05-22T08:44:47Z</time>
      </trkpt>
      <trkpt lat="43.53692" lon="2.46915">
        <ele>702.944</ele>
        <time>2021-05-22T08:44:49Z</time>
      </trkpt>
      <trkpt lat="43.53693" lon="2.46918">
        <ele>704.023</ele>
        <time>2021-05-22T08:44:51Z</time>
      </trkpt>
      <trkpt lat="43.53695" lon="2.4692">
        <ele>704.634</ele>
        <time>2021-05-22T08:44:53Z</time>
      </trkpt>
      <trkpt lat="43.53697" lon="2.46923">
        <ele>705.896</ele>
        <time>2021-05-22T08:44:55Z</time>
      </trkpt>
      <trkpt lat="43.53699" lon="2.46926">
        <ele>706.657</ele>
        <time>2021-05-22T08:44:57Z</time>
      </trkpt>
      <trkpt lat="43.53701" lon="2.46928">
        <ele>707.362</ele>
        <time>2021-05-22T08:44:59Z</time>
      </trkpt>
      <trkpt lat="43.53702" lon="2.46931">
        <ele>706.552</ele>
        <time>2021-05-22T08:45:01Z</time>
      </trkpt>
      <trkpt lat="43.53704" lon="2.46932">
        <ele>706.362</ele>
        <time>2021-05-22T08:45:03Z</time>
      </trkpt>
      <trkpt lat="43.53706" lon="2.46935">
        <ele>707.037</ele>
        <time>2021-05-22T08:45:05Z</time>
      </trkpt>
      <trkpt lat="43.53707" lon="2.46937">
        <ele>706.85</ele>
        <time>2021-05-22T08:45:07Z</time>
      </trkpt>
      <trkpt lat="43.53709" lon="2.46939">
        <ele>707.047</ele>
        <time>2021-05-22T08:45:09Z</time>
      </trkpt>
      <trkpt lat="43.5371" lon="2.46941">
        <ele>707.553</ele>
        <time>2021-05-22T08:45:11Z</time>
      </trkpt>
      <trkpt lat="43.53712" lon="2.46943">
        <ele>707.007</ele>
        <time>2021-05-22T08:45:13Z</time>
      </trkpt>
      <trkpt lat="43.53713" lon="2.46945">
        <ele>706.147</ele>
        <time>2021-05-22T08:45:15Z</time>
      </trkpt>
      <trkpt lat="43.53715" lon="2.46947">
        <ele>706.763</ele>
        <time>2021-05-22T08:45:17Z</time>
      </trkpt>
      <trkpt lat="43.53717" lon="2.46949">
        <ele>707.879</ele>
        <time>2021-05-22T08:45:19Z</time>
      </trkpt>
      <trkpt lat="43.53719" lon="2.46952">
        <ele>708.538</ele>
        <time>2021-05-22T08:45:21Z</time>
      </trkpt>
      <trkpt lat="43.5372" lon="2.46954">
        <ele>707.824</ele>
        <time>2021-05-22T08:45:23Z</time>
      </trkpt>
      <trkpt lat="43.53722" lon="2.46956">
        <ele>708.481</ele>
        <time>2021-05-22T08:45:25Z</time>
      </trkpt>
      <trkpt lat="43.53723" lon="2.46958">
        <ele>708.654</ele>
        <time>2021-05-22T08:45:27Z</time>
      </trkpt>
      <trkpt lat="43.53726" lon="2.4696">
        <ele>708.451</ele>
        <time>2021-05-22T08:45:29Z</time>
      </trkpt>
      <trkpt lat="43.53728" lon="2.46962">
        <ele>708.032</ele>
        <time>2021-05-22T08:45:31Z</time>
      </trkpt>
      <trkpt lat="43.53729" lon="2.46964">
        <ele>707.889</ele>
        <time>2021-05-22T08:45:33Z</time>
      </trkpt>
      <trkpt lat="43.5373" lon="2.46966">
        <ele>707.062</ele>
        <time>2021-05-22T08:45:35Z</time>
      </trkpt>
      <trkpt lat="43.53732" lon="2.46968">
        <ele>706.939</ele>
        <time>2021-05-22T08:45:37Z</time>
      </trkpt>
      <trkpt lat="43.53733" lon="2.4697">
        <ele>706.973</ele>
        <time>2021-05-22T08:45:39Z</time>
      </trkpt>
      <trkpt lat="43.53735" lon="2.46971">
        <ele>706.102</ele>
        <time>2021-05-22T08:45:41Z</time>
      </trkpt>
      <trkpt lat="43.53736" lon="2.46973">
        <ele>706.485</ele>
        <time>2021-05-22T08:45:43Z</time>
      </trkpt>
      <trkpt lat="43.53738" lon="2.46974">
        <ele>705.993</ele>
        <time>2021-05-22T08:45:45Z</time>
      </trkpt>
      <trkpt lat="43.5374" lon="2.46976">
        <ele>706.146</ele>
        <time>2021-05-22T08:45:47Z</time>
      </trkpt>
      <trkpt lat="43.53741" lon="2.46978">
        <ele>705.127</ele>
        <time>2021-05-22T08:45:49Z</time>
      </trkpt>
      <trkpt lat="43.53744" lon="2.4698">
        <ele>705.671</ele>
        <time>2021-05-22T08:45:51Z</time>
      </trkpt>
      <trkpt lat="43.53747" lon="2.46982">
        <ele>706.154</ele>
        <time>2021-05-22T08:45:53Z</time>
      </trkpt>
      <trkpt lat="43.53749" lon="2.46983">
        <ele>705.858</ele>
        <time>2021-05-22T08:45:55Z</time>
      </trkpt>
      <trkpt lat="43.53751" lon="2.46985">
        <ele>705.37</ele>
        <time>2021-05-22T08:45:57Z</time>
      </trkpt>
      <trkpt lat="43.53753" lon="2.46987">
        <ele>704.878</ele>
        <time>2021-05-22T08:45:59Z</time>
      </trkpt>
      <trkpt lat="43.53755" lon="2.46989">
        <ele>704.061</ele>
        <time>2021-05-22T08:46:01Z</time>
      </trkpt>
      <trkpt lat="43.53757" lon="2.4699">
        <ele>703.227</ele>
        <time>2021-05-22T08:46:03Z</time>
      </trkpt>
      <trkpt lat="43.53758" lon="2.46992">
        <ele>702.691</ele>
        <time>2021-05-22T08:46:05Z</time>
      </trkpt>
      <trkpt lat="43.53761" lon="2.46994">
        <ele>702.558</ele>
        <time>2021-05-22T08:46:07Z</time>
      </trkpt>
      <trkpt lat="43.53763" lon="2.46996">
        <ele>702.345</ele>
        <time>2021-05-22T08:46:09Z</time>
      </trkpt>
      <trkpt lat="43.53765" lon="2.46998">
        <ele>702.811</ele>
        <time>2021-05-22T08:46:11Z</time>
      </trkpt>
      <trkpt lat="43.53766" lon="2.47">
        <ele>702.427</ele>
        <time>2021-05-22T08:46:13Z</time>
      </trkpt>
      <trkpt lat="43.53768" lon="2.47001">
        <ele>702.316</ele>
        <time>2021-05-22T08:46:15Z</time>
      </trkpt>
      <trkpt lat="43.5377" lon="2.47003">
        <ele>701.822</ele>
        <time>2021-05-22T08:46:17Z</time>
      </trkpt>
      <trkpt lat="43.53771" lon="2.47004">
        <ele>701.071</ele>
        <time>2021-05-22T08:46:19Z</time>
      </trkpt>
      <trkpt lat="43.53773" lon="2.47005">
        <ele>700.168</ele>
        <time>2021-05-22T08:46:21Z</time>
      </trkpt>
      <trkpt lat="43.53775" lon="2.47007">
        <ele>699.743</ele>
        <time>2021-05-22T08:46:23Z</time>
      </trkpt>
      <trkpt lat="43.53777" lon="2.47008">
        <ele>699.208</ele>
        <time>2021-05-22T08:46:25Z</time>
      </trkpt>
      <trkpt lat="43.53778" lon="2.4701">
        <ele>698.445</ele>
        <time>2021-05-22T08:46:27Z</time>
      </trkpt>
      <trkpt lat="43.5378" lon="2.47012">
        <ele>698.183</ele>
        <time>2021-05-22T08:46:29Z</time>
      </trkpt>
      <trkpt lat="43.53782" lon="2.47015">
        <ele>698.736</ele>
        <time>2021-05-22T08:46:31Z</time>
      </trkpt>
      <trkpt lat="43.53783" lon="2.47018">
        <ele>698.899</ele>
        <time>2021-05-22T08:46:33Z</time>
      </trkpt>
      <trkpt lat="43.53785" lon="2.4702">
        <ele>698.908</ele>
        <time>2021-05-22T08:46:35Z</time>
      </trkpt>
      <trkpt lat="43.53787" lon="2.47022">
        <ele>699.424</ele>
        <time>2021-05-22T08:46:37Z</time>
      </trkpt>
      <trkpt lat="43.53789" lon="2.47025">
        <ele>699.7</ele>
        <time>2021-05-22T08:46:39Z</time>
      </trkpt>
      <trkpt lat="43.53791" lon="2.47027">
        <ele>699.434</ele>
        <time>2021-05-22T08:46:41Z</time>
      </trkpt>
      <trkpt lat="43.53793" lon="2.4703">
        <ele>700.25</ele>
        <time>2021-05-22T08:46:43Z</time>
      </trkpt>
      <trkpt lat="43.53795" lon="2.47035">
        <ele>703.037</ele>
        <time>2021-05-22T08:46:45Z</time>
      </trkpt>
      <trkpt lat="43.53796" lon="2.47038">
        <ele>704.321</ele>
        <time>2021-05-22T08:46:47Z</time>
      </trkpt>
      <trkpt lat="43.53799" lon="2.47041">
        <ele>705.6</ele>
        <time>2021-05-22T08:46:49Z</time>
      </trkpt>
      <trkpt lat="43.53801" lon="2.47041">
        <ele>705.885</ele>
        <time>2021-05-22T08:46:51Z</time>
      </trkpt>
      <trkpt lat="43.53802" lon="2.47043">
        <ele>705.989</ele>
        <time>2021-05-22T08:46:53Z</time>
      </trkpt>
      <trkpt lat="43.53804" lon="2.47046">
        <ele>706.912</ele>
        <time>2021-05-22T08:46:55Z</time>
      </trkpt>
      <trkpt lat="43.53806" lon="2.47048">
        <ele>707.603</ele>
        <time>2021-05-22T08:46:57Z</time>
      </trkpt>
      <trkpt lat="43.53808" lon="2.4705">
        <ele>707.092</ele>
        <time>2021-05-22T08:46:59Z</time>
      </trkpt>
      <trkpt lat="43.5381" lon="2.47053">
        <ele>706.756</ele>
        <time>2021-05-22T08:47:01Z</time>
      </trkpt>
      <trkpt lat="43.53812" lon="2.47055">
        <ele>707.005</ele>
        <time>2021-05-22T08:47:03Z</time>
      </trkpt>
      <trkpt lat="43.53813" lon="2.47058">
        <ele>707.024</ele>
        <time>2021-05-22T08:47:05Z</time>
      </trkpt>
      <trkpt lat="43.53815" lon="2.4706">
        <ele>707.165</ele>
        <time>2021-05-22T08:47:07Z</time>
      </trkpt>
      <trkpt lat="43.53817" lon="2.47062">
        <ele>706.629</ele>
        <time>2021-05-22T08:47:09Z</time>
      </trkpt>
      <trkpt lat="43.53818" lon="2.47064">
        <ele>706.543</ele>
        <time>2021-05-22T08:47:11Z</time>
      </trkpt>
      <trkpt lat="43.53822" lon="2.47068">
        <ele>706.349</ele>
        <time>2021-05-22T08:47:14Z</time>
      </trkpt>
      <trkpt lat="43.53823" lon="2.4707">
        <ele>705.851</ele>
        <time>2021-05-22T08:47:16Z</time>
      </trkpt>
      <trkpt lat="43.53825" lon="2.47072">
        <ele>705.115</ele>
        <time>2021-05-22T08:47:18Z</time>
      </trkpt>
      <trkpt lat="43.53827" lon="2.47074">
        <ele>704.873</ele>
        <time>2021-05-22T08:47:20Z</time>
      </trkpt>
      <trkpt lat="43.53829" lon="2.47076">
        <ele>705.804</ele>
        <time>2021-05-22T08:47:22Z</time>
      </trkpt>
      <trkpt lat="43.5383" lon="2.47078">
        <ele>706.351</ele>
        <time>2021-05-22T08:47:24Z</time>
      </trkpt>
      <trkpt lat="43.53832" lon="2.47081">
        <ele>705.802</ele>
        <time>2021-05-22T08:47:26Z</time>
      </trkpt>
      <trkpt lat="43.53834" lon="2.47083">
        <ele>706.716</ele>
        <time>2021-05-22T08:47:28Z</time>
      </trkpt>
      <trkpt lat="43.53836" lon="2.47085">
        <ele>706.54</ele>
        <time>2021-05-22T08:47:30Z</time>
      </trkpt>
      <trkpt lat="43.53837" lon="2.47087">
        <ele>707.274</ele>
        <time>2021-05-22T08:47:32Z</time>
      </trkpt>
      <trkpt lat="43.53839" lon="2.47087">
        <ele>708.865</ele>
        <time>2021-05-22T08:47:34Z</time>
      </trkpt>
      <trkpt lat="43.53841" lon="2.47087">
        <ele>711.272</ele>
        <time>2021-05-22T08:47:36Z</time>
      </trkpt>
      <trkpt lat="43.53842" lon="2.47089">
        <ele>711.764</ele>
        <time>2021-05-22T08:47:38Z</time>
      </trkpt>
      <trkpt lat="43.53842" lon="2.4709">
        <ele>711.918</ele>
        <time>2021-05-22T08:47:40Z</time>
      </trkpt>
      <trkpt lat="43.53843" lon="2.47091">
        <ele>712.174</ele>
        <time>2021-05-22T08:47:42Z</time>
      </trkpt>
      <trkpt lat="43.53844" lon="2.47091">
        <ele>712.483</ele>
        <time>2021-05-22T08:47:44Z</time>
      </trkpt>
      <trkpt lat="43.53844" lon="2.47091">
        <ele>711.832</ele>
        <time>2021-05-22T08:47:46Z</time>
      </trkpt>
      <trkpt lat="43.53846" lon="2.47091">
        <ele>712.201</ele>
        <time>2021-05-22T08:47:48Z</time>
      </trkpt>
      <trkpt lat="43.53847" lon="2.47089">
        <ele>713.538</ele>
        <time>2021-05-22T08:47:50Z</time>
      </trkpt>
      <trkpt lat="43.53846" lon="2.4709">
        <ele>714.016</ele>
        <time>2021-05-22T08:47:52Z</time>
      </trkpt>
      <trkpt lat="43.53846" lon="2.4709">
        <ele>714.277</ele>
        <time>2021-05-22T08:47:54Z</time>
      </trkpt>
      <trkpt lat="43.53847" lon="2.47089">
        <ele>714.896</ele>
        <time>2021-05-22T08:47:56Z</time>
      </trkpt>
      <trkpt lat="43.53847" lon="2.47089">
        <ele>714.784</ele>
        <time>2021-05-22T08:47:58Z</time>
      </trkpt>
      <trkpt lat="43.53847" lon="2.47089">
        <ele>714.79</ele>
        <time>2021-05-22T08:48:00Z</time>
      </trkpt>
      <trkpt lat="43.53847" lon="2.47089">
        <ele>714.799</ele>
        <time>2021-05-22T08:48:02Z</time>
      </trkpt>
      <trkpt lat="43.53847" lon="2.47089">
        <ele>714.8</ele>
        <time>2021-05-22T08:48:04Z</time>
      </trkpt>
      <trkpt lat="43.53847" lon="2.47089">
        <ele>714.807</ele>
        <time>2021-05-22T08:48:06Z</time>
      </trkpt>
      <trkpt lat="43.53847" lon="2.47089">
        <ele>714.805</ele>
        <time>2021-05-22T08:48:08Z</time>
      </trkpt>
      <trkpt lat="43.53847" lon="2.47089">
        <ele>714.803</ele>
        <time>2021-05-22T08:48:10Z</time>
      </trkpt>
      <trkpt lat="43.53847" lon="2.47089">
        <ele>714.8</ele>
        <time>2021-05-22T08:48:12Z</time>
      </trkpt>
      <trkpt lat="43.53847" lon="2.47089">
        <ele>714.801</ele>
        <time>2021-05-22T08:48:14Z</time>
      </trkpt>
      <trkpt lat="43.53847" lon="2.47089">
        <ele>714.8</ele>
        <time>2021-05-22T08:48:16Z</time>
      </trkpt>
      <trkpt lat="43.53847" lon="2.47089">
        <ele>714.801</ele>
        <time>2021-05-22T08:48:18Z</time>
      </trkpt>
      <trkpt lat="43.53847" lon="2.47089">
        <ele>714.848</ele>
        <time>2021-05-22T08:48:20Z</time>
      </trkpt>
      <trkpt lat="43.53847" lon="2.47089">
        <ele>714.833</ele>
        <time>2021-05-22T08:48:22Z</time>
      </trkpt>
      <trkpt lat="43.53847" lon="2.47089">
        <ele>714.833</ele>
        <time>2021-05-22T08:48:24Z</time>
      </trkpt>
      <trkpt lat="43.53847" lon="2.47089">
        <ele>714.836</ele>
        <time>2021-05-22T08:48:26Z</time>
      </trkpt>
      <trkpt lat="43.53847" lon="2.47089">
        <ele>714.826</ele>
        <time>2021-05-22T08:48:28Z</time>
      </trkpt>
      <trkpt lat="43.53847" lon="2.47089">
        <ele>714.811</ele>
        <time>2021-05-22T08:48:30Z</time>
      </trkpt>
      <trkpt lat="43.53847" lon="2.47089">
        <ele>714.798</ele>
        <time>2021-05-22T08:48:32Z</time>
      </trkpt>
      <trkpt lat="43.53847" lon="2.47089">
        <ele>714.786</ele>
        <time>2021-05-22T08:48:34Z</time>
      </trkpt>
      <trkpt lat="43.53847" lon="2.47089">
        <ele>714.805</ele>
        <time>2021-05-22T08:48:36Z</time>
      </trkpt>
      <trkpt lat="43.53847" lon="2.47089">
        <ele>714.815</ele>
        <time>2021-05-22T08:48:38Z</time>
      </trkpt>
      <trkpt lat="43.53847" lon="2.47089">
        <ele>714.811</ele>
        <time>2021-05-22T08:48:40Z</time>
      </trkpt>
      <trkpt lat="43.53847" lon="2.47089">
        <ele>714.814</ele>
        <time>2021-05-22T08:48:42Z</time>
      </trkpt>
      <trkpt lat="43.53847" lon="2.47089">
        <ele>714.807</ele>
        <time>2021-05-22T08:48:44Z</time>
      </trkpt>
      <trkpt lat="43.53847" lon="2.47089">
        <ele>714.796</ele>
        <time>2021-05-22T08:48:46Z</time>
      </trkpt>
      <trkpt lat="43.53847" lon="2.47089">
        <ele>714.792</ele>
        <time>2021-05-22T08:48:48Z</time>
      </trkpt>
      <trkpt lat="43.53847" lon="2.47089">
        <ele>714.79</ele>
        <time>2021-05-22T08:48:50Z</time>
      </trkpt>
      <trkpt lat="43.53847" lon="2.47089">
        <ele>714.786</ele>
        <time>2021-05-22T08:48:52Z</time>
      </trkpt>
      <trkpt lat="43.53847" lon="2.47089">
        <ele>714.783</ele>
        <time>2021-05-22T08:48:54Z</time>
      </trkpt>
      <trkpt lat="43.53847" lon="2.47089">
        <ele>714.776</ele>
        <time>2021-05-22T08:48:56Z</time>
      </trkpt>
      <trkpt lat="43.53847" lon="2.47089">
        <ele>714.776</ele>
        <time>2021-05-22T08:48:58Z</time>
      </trkpt>
      <trkpt lat="43.53847" lon="2.47089">
        <ele>714.94</ele>
        <time>2021-05-22T08:49:00Z</time>
      </trkpt>
      <trkpt lat="43.53847" lon="2.47089">
        <ele>714.936</ele>
        <time>2021-05-22T08:49:02Z</time>
      </trkpt>
      <trkpt lat="43.53847" lon="2.47089">
        <ele>714.934</ele>
        <time>2021-05-22T08:49:04Z</time>
      </trkpt>
      <trkpt lat="43.53847" lon="2.47089">
        <ele>714.933</ele>
        <time>2021-05-22T08:49:06Z</time>
      </trkpt>
      <trkpt lat="43.53847" lon="2.47089">
        <ele>714.933</ele>
        <time>2021-05-22T08:49:08Z</time>
      </trkpt>
      <trkpt lat="43.53847" lon="2.47089">
        <ele>714.931</ele>
        <time>2021-05-22T08:49:10Z</time>
      </trkpt>
      <trkpt lat="43.53847" lon="2.47089">
        <ele>714.931</ele>
        <time>2021-05-22T08:49:12Z</time>
      </trkpt>
      <trkpt lat="43.53847" lon="2.47089">
        <ele>714.931</ele>
        <time>2021-05-22T08:49:14Z</time>
      </trkpt>
      <trkpt lat="43.53847" lon="2.47089">
        <ele>714.927</ele>
        <time>2021-05-22T08:49:16Z</time>
      </trkpt>
      <trkpt lat="43.53847" lon="2.47089">
        <ele>714.921</ele>
        <time>2021-05-22T08:49:18Z</time>
      </trkpt>
      <trkpt lat="43.53847" lon="2.47089">
        <ele>714.924</ele>
        <time>2021-05-22T08:49:20Z</time>
      </trkpt>
      <trkpt lat="43.53847" lon="2.47089">
        <ele>715.283</ele>
        <time>2021-05-22T08:49:22Z</time>
      </trkpt>
      <trkpt lat="43.53847" lon="2.47089">
        <ele>716.051</ele>
        <time>2021-05-22T08:49:24Z</time>
      </trkpt>
      <trkpt lat="43.53846" lon="2.4709">
        <ele>716.208</ele>
        <time>2021-05-22T08:49:26Z</time>
      </trkpt>
      <trkpt lat="43.53846" lon="2.4709">
        <ele>716.231</ele>
        <time>2021-05-22T08:49:28Z</time>
      </trkpt>
      <trkpt lat="43.53846" lon="2.4709">
        <ele>716.238</ele>
        <time>2021-05-22T08:49:30Z</time>
      </trkpt>
      <trkpt lat="43.53846" lon="2.4709">
        <ele>716.235</ele>
        <time>2021-05-22T08:49:32Z</time>
      </trkpt>
      <trkpt lat="43.53846" lon="2.4709">
        <ele>716.229</ele>
        <time>2021-05-22T08:49:34Z</time>
      </trkpt>
      <trkpt lat="43.53846" lon="2.4709">
        <ele>716.228</ele>
        <time>2021-05-22T08:49:36Z</time>
      </trkpt>
      <trkpt lat="43.53846" lon="2.4709">
        <ele>716.237</ele>
        <time>2021-05-22T08:49:38Z</time>
      </trkpt>
      <trkpt lat="43.53846" lon="2.4709">
        <ele>715.768</ele>
        <time>2021-05-22T08:49:40Z</time>
      </trkpt>
      <trkpt lat="43.53846" lon="2.4709">
        <ele>715.823</ele>
        <time>2021-05-22T08:49:42Z</time>
      </trkpt>
      <trkpt lat="43.53846" lon="2.4709">
        <ele>715.885</ele>
        <time>2021-05-22T08:49:44Z</time>
      </trkpt>
      <trkpt lat="43.53846" lon="2.4709">
        <ele>715.888</ele>
        <time>2021-05-22T08:49:46Z</time>
      </trkpt>
      <trkpt lat="43.53846" lon="2.4709">
        <ele>715.892</ele>
        <time>2021-05-22T08:49:48Z</time>
      </trkpt>
      <trkpt lat="43.53846" lon="2.47091">
        <ele>716.09</ele>
        <time>2021-05-22T08:49:50Z</time>
      </trkpt>
      <trkpt lat="43.53845" lon="2.47091">
        <ele>715.828</ele>
        <time>2021-05-22T08:49:52Z</time>
      </trkpt>
      <trkpt lat="43.53845" lon="2.47091">
        <ele>715.84</ele>
        <time>2021-05-22T08:49:54Z</time>
      </trkpt>
      <trkpt lat="43.53845" lon="2.47091">
        <ele>715.839</ele>
        <time>2021-05-22T08:49:56Z</time>
      </trkpt>
      <trkpt lat="43.53845" lon="2.47091">
        <ele>715.844</ele>
        <time>2021-05-22T08:49:58Z</time>
      </trkpt>
      <trkpt lat="43.53845" lon="2.47091">
        <ele>715.85</ele>
        <time>2021-05-22T08:50:00Z</time>
      </trkpt>
      <trkpt lat="43.53846" lon="2.47092">
        <ele>715.73</ele>
        <time>2021-05-22T08:50:02Z</time>
      </trkpt>
      <trkpt lat="43.53847" lon="2.47093">
        <ele>715.155</ele>
        <time>2021-05-22T08:50:04Z</time>
      </trkpt>
      <trkpt lat="43.53847" lon="2.47093">
        <ele>715.243</ele>
        <time>2021-05-22T08:50:06Z</time>
      </trkpt>
      <trkpt lat="43.53847" lon="2.47094">
        <ele>715.511</ele>
        <time>2021-05-22T08:50:08Z</time>
      </trkpt>
      <trkpt lat="43.53847" lon="2.47094">
        <ele>715.533</ele>
        <time>2021-05-22T08:50:10Z</time>
      </trkpt>
      <trkpt lat="43.53847" lon="2.47094">
        <ele>715.553</ele>
        <time>2021-05-22T08:50:12Z</time>
      </trkpt>
      <trkpt lat="43.53847" lon="2.47094">
        <ele>715.575</ele>
        <time>2021-05-22T08:50:14Z</time>
      </trkpt>
      <trkpt lat="43.53847" lon="2.47094">
        <ele>715.592</ele>
        <time>2021-05-22T08:50:16Z</time>
      </trkpt>
      <trkpt lat="43.53846" lon="2.47093">
        <ele>714.881</ele>
        <time>2021-05-22T08:50:18Z</time>
      </trkpt>
      <trkpt lat="43.53846" lon="2.47093">
        <ele>714.884</ele>
        <time>2021-05-22T08:50:20Z</time>
      </trkpt>
      <trkpt lat="43.53846" lon="2.47093">
        <ele>714.894</ele>
        <time>2021-05-22T08:50:22Z</time>
      </trkpt>
      <trkpt lat="43.53846" lon="2.47093">
        <ele>714.897</ele>
        <time>2021-05-22T08:50:24Z</time>
      </trkpt>
      <trkpt lat="43.53846" lon="2.47093">
        <ele>714.91</ele>
        <time>2021-05-22T08:50:26Z</time>
      </trkpt>
      <trkpt lat="43.53846" lon="2.47093">
        <ele>714.919</ele>
        <time>2021-05-22T08:50:28Z</time>
      </trkpt>
      <trkpt lat="43.53846" lon="2.47093">
        <ele>714.929</ele>
        <time>2021-05-22T08:50:30Z</time>
      </trkpt>
      <trkpt lat="43.53846" lon="2.47093">
        <ele>714.976</ele>
        <time>2021-05-22T08:50:32Z</time>
      </trkpt>
      <trkpt lat="43.53846" lon="2.47093">
        <ele>714.977</ele>
        <time>2021-05-22T08:50:34Z</time>
      </trkpt>
      <trkpt lat="43.53846" lon="2.47093">
        <ele>714.632</ele>
        <time>2021-05-22T08:50:36Z</time>
      </trkpt>
      <trkpt lat="43.53846" lon="2.47093">
        <ele>714.075</ele>
        <time>2021-05-22T08:50:38Z</time>
      </trkpt>
      <trkpt lat="43.53846" lon="2.47093">
        <ele>713.702</ele>
        <time>2021-05-22T08:50:40Z</time>
      </trkpt>
      <trkpt lat="43.53846" lon="2.47093">
        <ele>713.705</ele>
        <time>2021-05-22T08:50:42Z</time>
      </trkpt>
      <trkpt lat="43.53846" lon="2.47092">
        <ele>713.648</ele>
        <time>2021-05-22T08:50:44Z</time>
      </trkpt>
      <trkpt lat="43.53846" lon="2.47092">
        <ele>713.801</ele>
        <time>2021-05-22T08:50:46Z</time>
      </trkpt>
      <trkpt lat="43.53847" lon="2.47092">
        <ele>713.827</ele>
        <time>2021-05-22T08:50:48Z</time>
      </trkpt>
      <trkpt lat="43.53846" lon="2.47092">
        <ele>713.6</ele>
        <time>2021-05-22T08:50:50Z</time>
      </trkpt>
      <trkpt lat="43.53846" lon="2.47092">
        <ele>713.607</ele>
        <time>2021-05-22T08:50:52Z</time>
      </trkpt>
      <trkpt lat="43.53846" lon="2.47092">
        <ele>713.619</ele>
        <time>2021-05-22T08:50:54Z</time>
      </trkpt>
      <trkpt lat="43.53846" lon="2.47092">
        <ele>713.725</ele>
        <time>2021-05-22T08:50:56Z</time>
      </trkpt>
      <trkpt lat="43.53846" lon="2.47092">
        <ele>713.645</ele>
        <time>2021-05-22T08:50:58Z</time>
      </trkpt>
      <trkpt lat="43.53846" lon="2.47091">
        <ele>714.33</ele>
        <time>2021-05-22T08:51:00Z</time>
      </trkpt>
      <trkpt lat="43.53846" lon="2.47091">
        <ele>714.341</ele>
        <time>2021-05-22T08:51:02Z</time>
      </trkpt>
      <trkpt lat="43.53846" lon="2.47091">
        <ele>714.347</ele>
        <time>2021-05-22T08:51:04Z</time>
      </trkpt>
      <trkpt lat="43.53846" lon="2.47091">
        <ele>714.354</ele>
        <time>2021-05-22T08:51:06Z</time>
      </trkpt>
      <trkpt lat="43.53846" lon="2.47091">
        <ele>714.362</ele>
        <time>2021-05-22T08:51:08Z</time>
      </trkpt>
      <trkpt lat="43.53846" lon="2.47091">
        <ele>714.368</ele>
        <time>2021-05-22T08:51:10Z</time>
      </trkpt>
      <trkpt lat="43.53846" lon="2.47091">
        <ele>714.378</ele>
        <time>2021-05-22T08:51:12Z</time>
      </trkpt>
      <trkpt lat="43.53846" lon="2.47091">
        <ele>714.381</ele>
        <time>2021-05-22T08:51:14Z</time>
      </trkpt>
      <trkpt lat="43.53846" lon="2.47091">
        <ele>714.388</ele>
        <time>2021-05-22T08:51:16Z</time>
      </trkpt>
      <trkpt lat="43.53846" lon="2.47091">
        <ele>714.381</ele>
        <time>2021-05-22T08:51:18Z</time>
      </trkpt>
      <trkpt lat="43.53846" lon="2.47091">
        <ele>714.646</ele>
        <time>2021-05-22T08:51:20Z</time>
      </trkpt>
      <trkpt lat="43.53847" lon="2.47091">
        <ele>714.951</ele>
        <time>2021-05-22T08:51:22Z</time>
      </trkpt>
      <trkpt lat="43.53847" lon="2.47091">
        <ele>714.955</ele>
        <time>2021-05-22T08:51:24Z</time>
      </trkpt>
      <trkpt lat="43.53847" lon="2.47091">
        <ele>714.961</ele>
        <time>2021-05-22T08:51:26Z</time>
      </trkpt>
      <trkpt lat="43.53847" lon="2.47091">
        <ele>714.965</ele>
        <time>2021-05-22T08:51:28Z</time>
      </trkpt>
      <trkpt lat="43.53847" lon="2.47091">
        <ele>714.971</ele>
        <time>2021-05-22T08:51:30Z</time>
      </trkpt>
      <trkpt lat="43.53847" lon="2.47091">
        <ele>714.978</ele>
        <time>2021-05-22T08:51:32Z</time>
      </trkpt>
      <trkpt lat="43.53847" lon="2.47091">
        <ele>714.988</ele>
        <time>2021-05-22T08:51:34Z</time>
      </trkpt>
      <trkpt lat="43.53847" lon="2.47091">
        <ele>714.989</ele>
        <time>2021-05-22T08:51:36Z</time>
      </trkpt>
      <trkpt lat="43.53847" lon="2.47091">
        <ele>715.019</ele>
        <time>2021-05-22T08:51:38Z</time>
      </trkpt>
      <trkpt lat="43.53847" lon="2.47093">
        <ele>714.071</ele>
        <time>2021-05-22T08:51:40Z</time>
      </trkpt>
      <trkpt lat="43.53848" lon="2.47095">
        <ele>713.228</ele>
        <time>2021-05-22T08:51:42Z</time>
      </trkpt>
      <trkpt lat="43.53849" lon="2.47098">
        <ele>712.832</ele>
        <time>2021-05-22T08:51:44Z</time>
      </trkpt>
      <trkpt lat="43.5385" lon="2.471">
        <ele>712.207</ele>
        <time>2021-05-22T08:51:46Z</time>
      </trkpt>
      <trkpt lat="43.53852" lon="2.47102">
        <ele>711.365</ele>
        <time>2021-05-22T08:51:48Z</time>
      </trkpt>
      <trkpt lat="43.53854" lon="2.47104">
        <ele>711.061</ele>
        <time>2021-05-22T08:51:50Z</time>
      </trkpt>
      <trkpt lat="43.53854" lon="2.47109">
        <ele>710.02</ele>
        <time>2021-05-22T08:51:52Z</time>
      </trkpt>
      <trkpt lat="43.53855" lon="2.47111">
        <ele>709.627</ele>
        <time>2021-05-22T08:51:54Z</time>
      </trkpt>
      <trkpt lat="43.53858" lon="2.47111">
        <ele>709.076</ele>
        <time>2021-05-22T08:51:56Z</time>
      </trkpt>
      <trkpt lat="43.53859" lon="2.47111">
        <ele>707.476</ele>
        <time>2021-05-22T08:51:58Z</time>
      </trkpt>
      <trkpt lat="43.53861" lon="2.47113">
        <ele>707.429</ele>
        <time>2021-05-22T08:52:00Z</time>
      </trkpt>
      <trkpt lat="43.53863" lon="2.47115">
        <ele>706.615</ele>
        <time>2021-05-22T08:52:02Z</time>
      </trkpt>
      <trkpt lat="43.53864" lon="2.47118">
        <ele>706.566</ele>
        <time>2021-05-22T08:52:04Z</time>
      </trkpt>
      <trkpt lat="43.53865" lon="2.4712">
        <ele>705.149</ele>
        <time>2021-05-22T08:52:06Z</time>
      </trkpt>
      <trkpt lat="43.53866" lon="2.47122">
        <ele>704.282</ele>
        <time>2021-05-22T08:52:08Z</time>
      </trkpt>
      <trkpt lat="43.53867" lon="2.47125">
        <ele>704.49</ele>
        <time>2021-05-22T08:52:10Z</time>
      </trkpt>
      <trkpt lat="43.53869" lon="2.47129">
        <ele>705.099</ele>
        <time>2021-05-22T08:52:12Z</time>
      </trkpt>
      <trkpt lat="43.53869" lon="2.47132">
        <ele>704.764</ele>
        <time>2021-05-22T08:52:14Z</time>
      </trkpt>
      <trkpt lat="43.5387" lon="2.47135">
        <ele>705.266</ele>
        <time>2021-05-22T08:52:16Z</time>
      </trkpt>
      <trkpt lat="43.53871" lon="2.47139">
        <ele>705.902</ele>
        <time>2021-05-22T08:52:18Z</time>
      </trkpt>
      <trkpt lat="43.53871" lon="2.47143">
        <ele>706.22</ele>
        <time>2021-05-22T08:52:20Z</time>
      </trkpt>
      <trkpt lat="43.5387" lon="2.47147">
        <ele>706.843</ele>
        <time>2021-05-22T08:52:22Z</time>
      </trkpt>
      <trkpt lat="43.5387" lon="2.4715">
        <ele>707.073</ele>
        <time>2021-05-22T08:52:24Z</time>
      </trkpt>
      <trkpt lat="43.53868" lon="2.47153">
        <ele>706.981</ele>
        <time>2021-05-22T08:52:26Z</time>
      </trkpt>
      <trkpt lat="43.53867" lon="2.47156">
        <ele>707.157</ele>
        <time>2021-05-22T08:52:28Z</time>
      </trkpt>
      <trkpt lat="43.53865" lon="2.47159">
        <ele>708.465</ele>
        <time>2021-05-22T08:52:30Z</time>
      </trkpt>
      <trkpt lat="43.53863" lon="2.47162">
        <ele>709.204</ele>
        <time>2021-05-22T08:52:32Z</time>
      </trkpt>
      <trkpt lat="43.53861" lon="2.47165">
        <ele>710.192</ele>
        <time>2021-05-22T08:52:34Z</time>
      </trkpt>
      <trkpt lat="43.53859" lon="2.47168">
        <ele>710.563</ele>
        <time>2021-05-22T08:52:36Z</time>
      </trkpt>
      <trkpt lat="43.53857" lon="2.4717">
        <ele>707.534</ele>
        <time>2021-05-22T08:52:38Z</time>
      </trkpt>
      <trkpt lat="43.53856" lon="2.47173">
        <ele>709.131</ele>
        <time>2021-05-22T08:52:40Z</time>
      </trkpt>
      <trkpt lat="43.53855" lon="2.47175">
        <ele>709.94</ele>
        <time>2021-05-22T08:52:42Z</time>
      </trkpt>
      <trkpt lat="43.53853" lon="2.47178">
        <ele>710.065</ele>
        <time>2021-05-22T08:52:44Z</time>
      </trkpt>
      <trkpt lat="43.53851" lon="2.4718">
        <ele>710.766</ele>
        <time>2021-05-22T08:52:46Z</time>
      </trkpt>
      <trkpt lat="43.53849" lon="2.47182">
        <ele>710.846</ele>
        <time>2021-05-22T08:52:48Z</time>
      </trkpt>
      <trkpt lat="43.53848" lon="2.47184">
        <ele>711.32</ele>
        <time>2021-05-22T08:52:50Z</time>
      </trkpt>
      <trkpt lat="43.53846" lon="2.47186">
        <ele>711.349</ele>
        <time>2021-05-22T08:52:52Z</time>
      </trkpt>
      <trkpt lat="43.53844" lon="2.47188">
        <ele>710.965</ele>
        <time>2021-05-22T08:52:54Z</time>
      </trkpt>
      <trkpt lat="43.53843" lon="2.4719">
        <ele>709.885</ele>
        <time>2021-05-22T08:52:56Z</time>
      </trkpt>
      <trkpt lat="43.53841" lon="2.47192">
        <ele>710.352</ele>
        <time>2021-05-22T08:52:58Z</time>
      </trkpt>
      <trkpt lat="43.53839" lon="2.47193">
        <ele>711.625</ele>
        <time>2021-05-22T08:53:00Z</time>
      </trkpt>
      <trkpt lat="43.53838" lon="2.47195">
        <ele>711.65</ele>
        <time>2021-05-22T08:53:02Z</time>
      </trkpt>
      <trkpt lat="43.53837" lon="2.47197">
        <ele>714.104</ele>
        <time>2021-05-22T08:53:04Z</time>
      </trkpt>
      <trkpt lat="43.53835" lon="2.472">
        <ele>715.347</ele>
        <time>2021-05-22T08:53:06Z</time>
      </trkpt>
      <trkpt lat="43.53833" lon="2.47203">
        <ele>716.357</ele>
        <time>2021-05-22T08:53:08Z</time>
      </trkpt>
      <trkpt lat="43.53831" lon="2.47206">
        <ele>717.208</ele>
        <time>2021-05-22T08:53:10Z</time>
      </trkpt>
      <trkpt lat="43.53829" lon="2.47208">
        <ele>717.658</ele>
        <time>2021-05-22T08:53:12Z</time>
      </trkpt>
      <trkpt lat="43.53827" lon="2.4721">
        <ele>719.034</ele>
        <time>2021-05-22T08:53:14Z</time>
      </trkpt>
      <trkpt lat="43.53825" lon="2.47211">
        <ele>718.823</ele>
        <time>2021-05-22T08:53:16Z</time>
      </trkpt>
      <trkpt lat="43.53824" lon="2.47214">
        <ele>718.145</ele>
        <time>2021-05-22T08:53:18Z</time>
      </trkpt>
      <trkpt lat="43.53822" lon="2.47215">
        <ele>717.921</ele>
        <time>2021-05-22T08:53:20Z</time>
      </trkpt>
      <trkpt lat="43.5382" lon="2.47217">
        <ele>717.768</ele>
        <time>2021-05-22T08:53:22Z</time>
      </trkpt>
      <trkpt lat="43.53818" lon="2.47219">
        <ele>718.916</ele>
        <time>2021-05-22T08:53:24Z</time>
      </trkpt>
      <trkpt lat="43.53816" lon="2.47221">
        <ele>719.327</ele>
        <time>2021-05-22T08:53:26Z</time>
      </trkpt>
      <trkpt lat="43.53814" lon="2.47222">
        <ele>719.01</ele>
        <time>2021-05-22T08:53:28Z</time>
      </trkpt>
      <trkpt lat="43.53812" lon="2.47224">
        <ele>718.29</ele>
        <time>2021-05-22T08:53:30Z</time>
      </trkpt>
      <trkpt lat="43.53809" lon="2.47226">
        <ele>715.517</ele>
        <time>2021-05-22T08:53:32Z</time>
      </trkpt>
      <trkpt lat="43.53806" lon="2.47228">
        <ele>714.158</ele>
        <time>2021-05-22T08:53:34Z</time>
      </trkpt>
      <trkpt lat="43.53803" lon="2.47231">
        <ele>713.11</ele>
        <time>2021-05-22T08:53:36Z</time>
      </trkpt>
      <trkpt lat="43.53801" lon="2.47233">
        <ele>713.061</ele>
        <time>2021-05-22T08:53:38Z</time>
      </trkpt>
      <trkpt lat="43.53799" lon="2.47235">
        <ele>712.419</ele>
        <time>2021-05-22T08:53:40Z</time>
      </trkpt>
      <trkpt lat="43.53796" lon="2.47237">
        <ele>713.127</ele>
        <time>2021-05-22T08:53:42Z</time>
      </trkpt>
      <trkpt lat="43.53794" lon="2.47238">
        <ele>713.024</ele>
        <time>2021-05-22T08:53:44Z</time>
      </trkpt>
      <trkpt lat="43.53791" lon="2.4724">
        <ele>712.789</ele>
        <time>2021-05-22T08:53:46Z</time>
      </trkpt>
      <trkpt lat="43.53789" lon="2.47242">
        <ele>712.729</ele>
        <time>2021-05-22T08:53:48Z</time>
      </trkpt>
      <trkpt lat="43.53787" lon="2.47244">
        <ele>711.045</ele>
        <time>2021-05-22T08:53:50Z</time>
      </trkpt>
      <trkpt lat="43.53785" lon="2.47246">
        <ele>710.797</ele>
        <time>2021-05-22T08:53:52Z</time>
      </trkpt>
      <trkpt lat="43.53782" lon="2.47248">
        <ele>710.227</ele>
        <time>2021-05-22T08:53:54Z</time>
      </trkpt>
      <trkpt lat="43.5378" lon="2.4725">
        <ele>710.913</ele>
        <time>2021-05-22T08:53:56Z</time>
      </trkpt>
      <trkpt lat="43.53779" lon="2.47251">
        <ele>711.487</ele>
        <time>2021-05-22T08:53:57Z</time>
      </trkpt>
      <trkpt lat="43.53776" lon="2.47254">
        <ele>711.436</ele>
        <time>2021-05-22T08:54:00Z</time>
      </trkpt>
      <trkpt lat="43.53774" lon="2.47257">
        <ele>712.13</ele>
        <time>2021-05-22T08:54:02Z</time>
      </trkpt>
      <trkpt lat="43.53772" lon="2.4726">
        <ele>712.006</ele>
        <time>2021-05-22T08:54:04Z</time>
      </trkpt>
      <trkpt lat="43.53769" lon="2.47263">
        <ele>710.706</ele>
        <time>2021-05-22T08:54:06Z</time>
      </trkpt>
      <trkpt lat="43.53767" lon="2.47266">
        <ele>710.855</ele>
        <time>2021-05-22T08:54:08Z</time>
      </trkpt>
      <trkpt lat="43.53765" lon="2.47269">
        <ele>711.274</ele>
        <time>2021-05-22T08:54:10Z</time>
      </trkpt>
      <trkpt lat="43.53764" lon="2.47272">
        <ele>711.626</ele>
        <time>2021-05-22T08:54:12Z</time>
      </trkpt>
      <trkpt lat="43.53762" lon="2.47274">
        <ele>711.526</ele>
        <time>2021-05-22T08:54:14Z</time>
      </trkpt>
      <trkpt lat="43.5376" lon="2.47276">
        <ele>710.863</ele>
        <time>2021-05-22T08:54:16Z</time>
      </trkpt>
      <trkpt lat="43.53758" lon="2.47278">
        <ele>710.604</ele>
        <time>2021-05-22T08:54:18Z</time>
      </trkpt>
      <trkpt lat="43.53756" lon="2.47281">
        <ele>711.115</ele>
        <time>2021-05-22T08:54:20Z</time>
      </trkpt>
      <trkpt lat="43.53754" lon="2.47283">
        <ele>709.712</ele>
        <time>2021-05-22T08:54:22Z</time>
      </trkpt>
      <trkpt lat="43.53752" lon="2.47286">
        <ele>709.742</ele>
        <time>2021-05-22T08:54:24Z</time>
      </trkpt>
      <trkpt lat="43.5375" lon="2.47288">
        <ele>707.98</ele>
        <time>2021-05-22T08:54:26Z</time>
      </trkpt>
      <trkpt lat="43.53748" lon="2.47292">
        <ele>706.854</ele>
        <time>2021-05-22T08:54:28Z</time>
      </trkpt>
      <trkpt lat="43.53746" lon="2.47294">
        <ele>706.821</ele>
        <time>2021-05-22T08:54:30Z</time>
      </trkpt>
      <trkpt lat="43.53745" lon="2.47298">
        <ele>706.195</ele>
        <time>2021-05-22T08:54:32Z</time>
      </trkpt>
      <trkpt lat="43.53744" lon="2.47301">
        <ele>706.852</ele>
        <time>2021-05-22T08:54:34Z</time>
      </trkpt>
      <trkpt lat="43.53742" lon="2.47304">
        <ele>707.491</ele>
        <time>2021-05-22T08:54:36Z</time>
      </trkpt>
      <trkpt lat="43.5374" lon="2.47307">
        <ele>707.305</ele>
        <time>2021-05-22T08:54:38Z</time>
      </trkpt>
      <trkpt lat="43.53738" lon="2.4731">
        <ele>706.892</ele>
        <time>2021-05-22T08:54:40Z</time>
      </trkpt>
      <trkpt lat="43.53736" lon="2.47313">
        <ele>705.673</ele>
        <time>2021-05-22T08:54:42Z</time>
      </trkpt>
      <trkpt lat="43.53734" lon="2.47316">
        <ele>705.134</ele>
        <time>2021-05-22T08:54:44Z</time>
      </trkpt>
      <trkpt lat="43.53732" lon="2.47319">
        <ele>703.722</ele>
        <time>2021-05-22T08:54:46Z</time>
      </trkpt>
      <trkpt lat="43.53731" lon="2.47322">
        <ele>701.746</ele>
        <time>2021-05-22T08:54:48Z</time>
      </trkpt>
      <trkpt lat="43.53729" lon="2.47325">
        <ele>701.629</ele>
        <time>2021-05-22T08:54:50Z</time>
      </trkpt>
      <trkpt lat="43.53728" lon="2.47328">
        <ele>701.616</ele>
        <time>2021-05-22T08:54:52Z</time>
      </trkpt>
      <trkpt lat="43.53726" lon="2.47331">
        <ele>701.592</ele>
        <time>2021-05-22T08:54:54Z</time>
      </trkpt>
      <trkpt lat="43.53724" lon="2.47334">
        <ele>700.442</ele>
        <time>2021-05-22T08:54:56Z</time>
      </trkpt>
      <trkpt lat="43.53723" lon="2.47337">
        <ele>700.786</ele>
        <time>2021-05-22T08:54:58Z</time>
      </trkpt>
      <trkpt lat="43.53722" lon="2.4734">
        <ele>701.724</ele>
        <time>2021-05-22T08:55:00Z</time>
      </trkpt>
      <trkpt lat="43.53721" lon="2.47343">
        <ele>701.14</ele>
        <time>2021-05-22T08:55:02Z</time>
      </trkpt>
      <trkpt lat="43.5372" lon="2.47346">
        <ele>700.406</ele>
        <time>2021-05-22T08:55:04Z</time>
      </trkpt>
      <trkpt lat="43.53719" lon="2.4735">
        <ele>701.325</ele>
        <time>2021-05-22T08:55:06Z</time>
      </trkpt>
      <trkpt lat="43.53719" lon="2.47354">
        <ele>701.161</ele>
        <time>2021-05-22T08:55:08Z</time>
      </trkpt>
      <trkpt lat="43.53717" lon="2.47357">
        <ele>700.503</ele>
        <time>2021-05-22T08:55:10Z</time>
      </trkpt>
      <trkpt lat="43.53716" lon="2.47359">
        <ele>700.632</ele>
        <time>2021-05-22T08:55:12Z</time>
      </trkpt>
      <trkpt lat="43.53715" lon="2.47363">
        <ele>701.413</ele>
        <time>2021-05-22T08:55:14Z</time>
      </trkpt>
      <trkpt lat="43.53715" lon="2.47365">
        <ele>701.323</ele>
        <time>2021-05-22T08:55:16Z</time>
      </trkpt>
      <trkpt lat="43.53714" lon="2.47368">
        <ele>701.311</ele>
        <time>2021-05-22T08:55:18Z</time>
      </trkpt>
      <trkpt lat="43.53714" lon="2.47371">
        <ele>700.505</ele>
        <time>2021-05-22T08:55:20Z</time>
      </trkpt>
      <trkpt lat="43.53713" lon="2.47374">
        <ele>701.572</ele>
        <time>2021-05-22T08:55:22Z</time>
      </trkpt>
      <trkpt lat="43.53713" lon="2.47377">
        <ele>701.702</ele>
        <time>2021-05-22T08:55:24Z</time>
      </trkpt>
      <trkpt lat="43.53712" lon="2.47379">
        <ele>701.689</ele>
        <time>2021-05-22T08:55:26Z</time>
      </trkpt>
      <trkpt lat="43.53711" lon="2.47382">
        <ele>700.946</ele>
        <time>2021-05-22T08:55:28Z</time>
      </trkpt>
      <trkpt lat="43.53711" lon="2.47386">
        <ele>701.307</ele>
        <time>2021-05-22T08:55:30Z</time>
      </trkpt>
      <trkpt lat="43.5371" lon="2.4739">
        <ele>700.379</ele>
        <time>2021-05-22T08:55:32Z</time>
      </trkpt>
      <trkpt lat="43.53709" lon="2.47393">
        <ele>700.495</ele>
        <time>2021-05-22T08:55:34Z</time>
      </trkpt>
      <trkpt lat="43.53708" lon="2.47397">
        <ele>701.108</ele>
        <time>2021-05-22T08:55:36Z</time>
      </trkpt>
      <trkpt lat="43.53707" lon="2.474">
        <ele>701.723</ele>
        <time>2021-05-22T08:55:38Z</time>
      </trkpt>
      <trkpt lat="43.53706" lon="2.47403">
        <ele>702.29</ele>
        <time>2021-05-22T08:55:40Z</time>
      </trkpt>
      <trkpt lat="43.53704" lon="2.47407">
        <ele>702.73</ele>
        <time>2021-05-22T08:55:42Z</time>
      </trkpt>
      <trkpt lat="43.53703" lon="2.4741">
        <ele>702.648</ele>
        <time>2021-05-22T08:55:44Z</time>
      </trkpt>
      <trkpt lat="43.53702" lon="2.47414">
        <ele>702.201</ele>
        <time>2021-05-22T08:55:46Z</time>
      </trkpt>
      <trkpt lat="43.53701" lon="2.47417">
        <ele>702.704</ele>
        <time>2021-05-22T08:55:48Z</time>
      </trkpt>
      <trkpt lat="43.537" lon="2.4742">
        <ele>703.49</ele>
        <time>2021-05-22T08:55:50Z</time>
      </trkpt>
      <trkpt lat="43.53699" lon="2.47423">
        <ele>703.071</ele>
        <time>2021-05-22T08:55:52Z</time>
      </trkpt>
      <trkpt lat="43.53697" lon="2.47426">
        <ele>702.778</ele>
        <time>2021-05-22T08:55:54Z</time>
      </trkpt>
      <trkpt lat="43.53696" lon="2.47429">
        <ele>703.547</ele>
        <time>2021-05-22T08:55:56Z</time>
      </trkpt>
      <trkpt lat="43.53694" lon="2.47432">
        <ele>703.792</ele>
        <time>2021-05-22T08:55:58Z</time>
      </trkpt>
      <trkpt lat="43.53693" lon="2.47434">
        <ele>703.108</ele>
        <time>2021-05-22T08:56:00Z</time>
      </trkpt>
      <trkpt lat="43.53691" lon="2.47436">
        <ele>703.097</ele>
        <time>2021-05-22T08:56:02Z</time>
      </trkpt>
      <trkpt lat="43.53689" lon="2.47437">
        <ele>703.14</ele>
        <time>2021-05-22T08:56:04Z</time>
      </trkpt>
      <trkpt lat="43.53688" lon="2.47439">
        <ele>703.924</ele>
        <time>2021-05-22T08:56:06Z</time>
      </trkpt>
      <trkpt lat="43.53686" lon="2.47441">
        <ele>703.89</ele>
        <time>2021-05-22T08:56:08Z</time>
      </trkpt>
      <trkpt lat="43.53683" lon="2.47443">
        <ele>703.68</ele>
        <time>2021-05-22T08:56:10Z</time>
      </trkpt>
      <trkpt lat="43.53681" lon="2.47444">
        <ele>703.646</ele>
        <time>2021-05-22T08:56:12Z</time>
      </trkpt>
      <trkpt lat="43.53678" lon="2.47444">
        <ele>702.816</ele>
        <time>2021-05-22T08:56:14Z</time>
      </trkpt>
      <trkpt lat="43.53676" lon="2.47445">
        <ele>701.941</ele>
        <time>2021-05-22T08:56:16Z</time>
      </trkpt>
      <trkpt lat="43.53674" lon="2.47446">
        <ele>701.968</ele>
        <time>2021-05-22T08:56:18Z</time>
      </trkpt>
      <trkpt lat="43.53672" lon="2.47447">
        <ele>702.167</ele>
        <time>2021-05-22T08:56:20Z</time>
      </trkpt>
      <trkpt lat="43.5367" lon="2.47448">
        <ele>702.662</ele>
        <time>2021-05-22T08:56:22Z</time>
      </trkpt>
      <trkpt lat="43.53668" lon="2.47448">
        <ele>702.853</ele>
        <time>2021-05-22T08:56:24Z</time>
      </trkpt>
      <trkpt lat="43.53666" lon="2.47449">
        <ele>702.712</ele>
        <time>2021-05-22T08:56:26Z</time>
      </trkpt>
      <trkpt lat="43.53664" lon="2.4745">
        <ele>702.487</ele>
        <time>2021-05-22T08:56:28Z</time>
      </trkpt>
      <trkpt lat="43.53661" lon="2.47451">
        <ele>701.745</ele>
        <time>2021-05-22T08:56:30Z</time>
      </trkpt>
      <trkpt lat="43.53659" lon="2.47452">
        <ele>701.322</ele>
        <time>2021-05-22T08:56:32Z</time>
      </trkpt>
      <trkpt lat="43.53656" lon="2.47452">
        <ele>701.134</ele>
        <time>2021-05-22T08:56:34Z</time>
      </trkpt>
      <trkpt lat="43.53653" lon="2.47453">
        <ele>700.955</ele>
        <time>2021-05-22T08:56:36Z</time>
      </trkpt>
      <trkpt lat="43.5365" lon="2.47453">
        <ele>701.856</ele>
        <time>2021-05-22T08:56:38Z</time>
      </trkpt>
      <trkpt lat="43.53648" lon="2.47454">
        <ele>701.329</ele>
        <time>2021-05-22T08:56:40Z</time>
      </trkpt>
      <trkpt lat="43.53645" lon="2.47455">
        <ele>701.814</ele>
        <time>2021-05-22T08:56:42Z</time>
      </trkpt>
      <trkpt lat="43.53642" lon="2.47455">
        <ele>702.114</ele>
        <time>2021-05-22T08:56:44Z</time>
      </trkpt>
      <trkpt lat="43.53639" lon="2.47456">
        <ele>702.987</ele>
        <time>2021-05-22T08:56:46Z</time>
      </trkpt>
      <trkpt lat="43.53637" lon="2.47457">
        <ele>701.91</ele>
        <time>2021-05-22T08:56:48Z</time>
      </trkpt>
      <trkpt lat="43.53634" lon="2.47458">
        <ele>701.877</ele>
        <time>2021-05-22T08:56:50Z</time>
      </trkpt>
      <trkpt lat="43.53632" lon="2.47459">
        <ele>702.387</ele>
        <time>2021-05-22T08:56:52Z</time>
      </trkpt>
      <trkpt lat="43.53628" lon="2.4746">
        <ele>704.061</ele>
        <time>2021-05-22T08:56:54Z</time>
      </trkpt>
      <trkpt lat="43.53624" lon="2.47461">
        <ele>704.124</ele>
        <time>2021-05-22T08:56:56Z</time>
      </trkpt>
      <trkpt lat="43.53622" lon="2.47462">
        <ele>704.576</ele>
        <time>2021-05-22T08:56:58Z</time>
      </trkpt>
      <trkpt lat="43.53619" lon="2.47463">
        <ele>704.886</ele>
        <time>2021-05-22T08:57:00Z</time>
      </trkpt>
      <trkpt lat="43.53617" lon="2.47464">
        <ele>705.825</ele>
        <time>2021-05-22T08:57:02Z</time>
      </trkpt>
      <trkpt lat="43.53615" lon="2.47466">
        <ele>705.506</ele>
        <time>2021-05-22T08:57:04Z</time>
      </trkpt>
      <trkpt lat="43.53613" lon="2.47468">
        <ele>705.504</ele>
        <time>2021-05-22T08:57:06Z</time>
      </trkpt>
      <trkpt lat="43.53611" lon="2.47469">
        <ele>704.953</ele>
        <time>2021-05-22T08:57:08Z</time>
      </trkpt>
      <trkpt lat="43.53609" lon="2.4747">
        <ele>704.25</ele>
        <time>2021-05-22T08:57:10Z</time>
      </trkpt>
      <trkpt lat="43.53606" lon="2.47472">
        <ele>704.227</ele>
        <time>2021-05-22T08:57:12Z</time>
      </trkpt>
      <trkpt lat="43.53604" lon="2.47474">
        <ele>703.999</ele>
        <time>2021-05-22T08:57:14Z</time>
      </trkpt>
      <trkpt lat="43.53603" lon="2.47476">
        <ele>705.184</ele>
        <time>2021-05-22T08:57:16Z</time>
      </trkpt>
      <trkpt lat="43.53601" lon="2.47478">
        <ele>705.827</ele>
        <time>2021-05-22T08:57:18Z</time>
      </trkpt>
      <trkpt lat="43.53599" lon="2.4748">
        <ele>706.824</ele>
        <time>2021-05-22T08:57:20Z</time>
      </trkpt>
      <trkpt lat="43.53597" lon="2.47482">
        <ele>707.721</ele>
        <time>2021-05-22T08:57:22Z</time>
      </trkpt>
      <trkpt lat="43.53595" lon="2.47484">
        <ele>708.353</ele>
        <time>2021-05-22T08:57:24Z</time>
      </trkpt>
      <trkpt lat="43.53593" lon="2.47486">
        <ele>708.037</ele>
        <time>2021-05-22T08:57:26Z</time>
      </trkpt>
      <trkpt lat="43.53591" lon="2.47489">
        <ele>708.007</ele>
        <time>2021-05-22T08:57:28Z</time>
      </trkpt>
      <trkpt lat="43.53589" lon="2.47492">
        <ele>708.5</ele>
        <time>2021-05-22T08:57:30Z</time>
      </trkpt>
      <trkpt lat="43.53587" lon="2.47494">
        <ele>709.082</ele>
        <time>2021-05-22T08:57:32Z</time>
      </trkpt>
      <trkpt lat="43.53585" lon="2.47495">
        <ele>707.907</ele>
        <time>2021-05-22T08:57:34Z</time>
      </trkpt>
      <trkpt lat="43.53583" lon="2.47496">
        <ele>706.689</ele>
        <time>2021-05-22T08:57:36Z</time>
      </trkpt>
      <trkpt lat="43.53582" lon="2.47498">
        <ele>706.301</ele>
        <time>2021-05-22T08:57:38Z</time>
      </trkpt>
      <trkpt lat="43.5358" lon="2.475">
        <ele>705.348</ele>
        <time>2021-05-22T08:57:40Z</time>
      </trkpt>
      <trkpt lat="43.53578" lon="2.47501">
        <ele>705.927</ele>
        <time>2021-05-22T08:57:42Z</time>
      </trkpt>
      <trkpt lat="43.53575" lon="2.47504">
        <ele>705.426</ele>
        <time>2021-05-22T08:57:44Z</time>
      </trkpt>
      <trkpt lat="43.53573" lon="2.47506">
        <ele>706.681</ele>
        <time>2021-05-22T08:57:46Z</time>
      </trkpt>
      <trkpt lat="43.53569" lon="2.47508">
        <ele>704.853</ele>
        <time>2021-05-22T08:57:48Z</time>
      </trkpt>
      <trkpt lat="43.53567" lon="2.4751">
        <ele>704.784</ele>
        <time>2021-05-22T08:57:50Z</time>
      </trkpt>
      <trkpt lat="43.53566" lon="2.47511">
        <ele>705.486</ele>
        <time>2021-05-22T08:57:52Z</time>
      </trkpt>
      <trkpt lat="43.53565" lon="2.47513">
        <ele>705.388</ele>
        <time>2021-05-22T08:57:54Z</time>
      </trkpt>
      <trkpt lat="43.53563" lon="2.47515">
        <ele>705.593</ele>
        <time>2021-05-22T08:57:56Z</time>
      </trkpt>
      <trkpt lat="43.53561" lon="2.47517">
        <ele>707.081</ele>
        <time>2021-05-22T08:57:58Z</time>
      </trkpt>
      <trkpt lat="43.53559" lon="2.47518">
        <ele>708.021</ele>
        <time>2021-05-22T08:58:00Z</time>
      </trkpt>
      <trkpt lat="43.53557" lon="2.4752">
        <ele>708.035</ele>
        <time>2021-05-22T08:58:02Z</time>
      </trkpt>
      <trkpt lat="43.53556" lon="2.47522">
        <ele>707.488</ele>
        <time>2021-05-22T08:58:04Z</time>
      </trkpt>
      <trkpt lat="43.53554" lon="2.47524">
        <ele>705.469</ele>
        <time>2021-05-22T08:58:06Z</time>
      </trkpt>
      <trkpt lat="43.53552" lon="2.47527">
        <ele>705.461</ele>
        <time>2021-05-22T08:58:08Z</time>
      </trkpt>
      <trkpt lat="43.5355" lon="2.4753">
        <ele>706.033</ele>
        <time>2021-05-22T08:58:10Z</time>
      </trkpt>
      <trkpt lat="43.53548" lon="2.47533">
        <ele>706.829</ele>
        <time>2021-05-22T08:58:12Z</time>
      </trkpt>
      <trkpt lat="43.53547" lon="2.47535">
        <ele>706.411</ele>
        <time>2021-05-22T08:58:14Z</time>
      </trkpt>
      <trkpt lat="43.53545" lon="2.47537">
        <ele>706.304</ele>
        <time>2021-05-22T08:58:16Z</time>
      </trkpt>
      <trkpt lat="43.53544" lon="2.47539">
        <ele>705.988</ele>
        <time>2021-05-22T08:58:18Z</time>
      </trkpt>
      <trkpt lat="43.53543" lon="2.47542">
        <ele>705.935</ele>
        <time>2021-05-22T08:58:20Z</time>
      </trkpt>
      <trkpt lat="43.53542" lon="2.47544">
        <ele>706.889</ele>
        <time>2021-05-22T08:58:22Z</time>
      </trkpt>
      <trkpt lat="43.5354" lon="2.47546">
        <ele>707.487</ele>
        <time>2021-05-22T08:58:24Z</time>
      </trkpt>
      <trkpt lat="43.53539" lon="2.47548">
        <ele>707.017</ele>
        <time>2021-05-22T08:58:26Z</time>
      </trkpt>
      <trkpt lat="43.53537" lon="2.4755">
        <ele>706.794</ele>
        <time>2021-05-22T08:58:28Z</time>
      </trkpt>
      <trkpt lat="43.53536" lon="2.47553">
        <ele>706.771</ele>
        <time>2021-05-22T08:58:30Z</time>
      </trkpt>
      <trkpt lat="43.53533" lon="2.47557">
        <ele>708.219</ele>
        <time>2021-05-22T08:58:33Z</time>
      </trkpt>
      <trkpt lat="43.53531" lon="2.4756">
        <ele>705.867</ele>
        <time>2021-05-22T08:58:35Z</time>
      </trkpt>
      <trkpt lat="43.53529" lon="2.47562">
        <ele>705.238</ele>
        <time>2021-05-22T08:58:37Z</time>
      </trkpt>
      <trkpt lat="43.53527" lon="2.47566">
        <ele>704.774</ele>
        <time>2021-05-22T08:58:39Z</time>
      </trkpt>
      <trkpt lat="43.53525" lon="2.4757">
        <ele>704.536</ele>
        <time>2021-05-22T08:58:41Z</time>
      </trkpt>
      <trkpt lat="43.53523" lon="2.47572">
        <ele>704.9</ele>
        <time>2021-05-22T08:58:43Z</time>
      </trkpt>
      <trkpt lat="43.53522" lon="2.47574">
        <ele>705.892</ele>
        <time>2021-05-22T08:58:45Z</time>
      </trkpt>
      <trkpt lat="43.5352" lon="2.47577">
        <ele>705.955</ele>
        <time>2021-05-22T08:58:47Z</time>
      </trkpt>
      <trkpt lat="43.53518" lon="2.47579">
        <ele>706.1</ele>
        <time>2021-05-22T08:58:49Z</time>
      </trkpt>
      <trkpt lat="43.53517" lon="2.47581">
        <ele>707.304</ele>
        <time>2021-05-22T08:58:51Z</time>
      </trkpt>
      <trkpt lat="43.53515" lon="2.47583">
        <ele>709.508</ele>
        <time>2021-05-22T08:58:53Z</time>
      </trkpt>
      <trkpt lat="43.53513" lon="2.47586">
        <ele>708.478</ele>
        <time>2021-05-22T08:58:55Z</time>
      </trkpt>
      <trkpt lat="43.53511" lon="2.47588">
        <ele>708.638</ele>
        <time>2021-05-22T08:58:57Z</time>
      </trkpt>
      <trkpt lat="43.53509" lon="2.47591">
        <ele>709.889</ele>
        <time>2021-05-22T08:58:59Z</time>
      </trkpt>
      <trkpt lat="43.53507" lon="2.47592">
        <ele>708.643</ele>
        <time>2021-05-22T08:59:01Z</time>
      </trkpt>
      <trkpt lat="43.53505" lon="2.47594">
        <ele>707.953</ele>
        <time>2021-05-22T08:59:03Z</time>
      </trkpt>
      <trkpt lat="43.53503" lon="2.47596">
        <ele>707.775</ele>
        <time>2021-05-22T08:59:05Z</time>
      </trkpt>
      <trkpt lat="43.53502" lon="2.47598">
        <ele>707.697</ele>
        <time>2021-05-22T08:59:07Z</time>
      </trkpt>
      <trkpt lat="43.535" lon="2.476">
        <ele>708.534</ele>
        <time>2021-05-22T08:59:09Z</time>
      </trkpt>
      <trkpt lat="43.53498" lon="2.47602">
        <ele>707.682</ele>
        <time>2021-05-22T08:59:11Z</time>
      </trkpt>
      <trkpt lat="43.53496" lon="2.47604">
        <ele>706.076</ele>
        <time>2021-05-22T08:59:13Z</time>
      </trkpt>
      <trkpt lat="43.53494" lon="2.47606">
        <ele>705.113</ele>
        <time>2021-05-22T08:59:15Z</time>
      </trkpt>
      <trkpt lat="43.53491" lon="2.47607">
        <ele>705.631</ele>
        <time>2021-05-22T08:59:17Z</time>
      </trkpt>
      <trkpt lat="43.53489" lon="2.47608">
        <ele>704.955</ele>
        <time>2021-05-22T08:59:19Z</time>
      </trkpt>
      <trkpt lat="43.53487" lon="2.4761">
        <ele>705.108</ele>
        <time>2021-05-22T08:59:21Z</time>
      </trkpt>
      <trkpt lat="43.53485" lon="2.47611">
        <ele>704.753</ele>
        <time>2021-05-22T08:59:23Z</time>
      </trkpt>
      <trkpt lat="43.53483" lon="2.47614">
        <ele>702.972</ele>
        <time>2021-05-22T08:59:25Z</time>
      </trkpt>
      <trkpt lat="43.5348" lon="2.47616">
        <ele>701.986</ele>
        <time>2021-05-22T08:59:27Z</time>
      </trkpt>
      <trkpt lat="43.53477" lon="2.47618">
        <ele>701.347</ele>
        <time>2021-05-22T08:59:29Z</time>
      </trkpt>
      <trkpt lat="43.53475" lon="2.47619">
        <ele>701.501</ele>
        <time>2021-05-22T08:59:31Z</time>
      </trkpt>
      <trkpt lat="43.53472" lon="2.47621">
        <ele>701.202</ele>
        <time>2021-05-22T08:59:33Z</time>
      </trkpt>
      <trkpt lat="43.5347" lon="2.47623">
        <ele>701.676</ele>
        <time>2021-05-22T08:59:35Z</time>
      </trkpt>
      <trkpt lat="43.53468" lon="2.47624">
        <ele>702.215</ele>
        <time>2021-05-22T08:59:37Z</time>
      </trkpt>
      <trkpt lat="43.53466" lon="2.47625">
        <ele>703.23</ele>
        <time>2021-05-22T08:59:39Z</time>
      </trkpt>
      <trkpt lat="43.53464" lon="2.47627">
        <ele>703.102</ele>
        <time>2021-05-22T08:59:41Z</time>
      </trkpt>
      <trkpt lat="43.53462" lon="2.47627">
        <ele>702.955</ele>
        <time>2021-05-22T08:59:43Z</time>
      </trkpt>
      <trkpt lat="43.53459" lon="2.47627">
        <ele>701.78</ele>
        <time>2021-05-22T08:59:45Z</time>
      </trkpt>
      <trkpt lat="43.53457" lon="2.47628">
        <ele>701.819</ele>
        <time>2021-05-22T08:59:47Z</time>
      </trkpt>
      <trkpt lat="43.53454" lon="2.47629">
        <ele>702.036</ele>
        <time>2021-05-22T08:59:49Z</time>
      </trkpt>
      <trkpt lat="43.53452" lon="2.47629">
        <ele>701.664</ele>
        <time>2021-05-22T08:59:51Z</time>
      </trkpt>
      <trkpt lat="43.53449" lon="2.4763">
        <ele>701.399</ele>
        <time>2021-05-22T08:59:53Z</time>
      </trkpt>
      <trkpt lat="43.53447" lon="2.4763">
        <ele>700.821</ele>
        <time>2021-05-22T08:59:55Z</time>
      </trkpt>
      <trkpt lat="43.53445" lon="2.47629">
        <ele>701.04</ele>
        <time>2021-05-22T08:59:57Z</time>
      </trkpt>
      <trkpt lat="43.53442" lon="2.4763">
        <ele>700.281</ele>
        <time>2021-05-22T08:59:59Z</time>
      </trkpt>
      <trkpt lat="43.53439" lon="2.47629">
        <ele>700.249</ele>
        <time>2021-05-22T09:00:01Z</time>
      </trkpt>
      <trkpt lat="43.53436" lon="2.47629">
        <ele>699.428</ele>
        <time>2021-05-22T09:00:03Z</time>
      </trkpt>
      <trkpt lat="43.53434" lon="2.47629">
        <ele>700.011</ele>
        <time>2021-05-22T09:00:05Z</time>
      </trkpt>
      <trkpt lat="43.53431" lon="2.47629">
        <ele>699.156</ele>
        <time>2021-05-22T09:00:07Z</time>
      </trkpt>
      <trkpt lat="43.53429" lon="2.47628">
        <ele>699.106</ele>
        <time>2021-05-22T09:00:09Z</time>
      </trkpt>
      <trkpt lat="43.53427" lon="2.47627">
        <ele>699.731</ele>
        <time>2021-05-22T09:00:11Z</time>
      </trkpt>
      <trkpt lat="43.53424" lon="2.47626">
        <ele>699.703</ele>
        <time>2021-05-22T09:00:13Z</time>
      </trkpt>
      <trkpt lat="43.53422" lon="2.47625">
        <ele>700.582</ele>
        <time>2021-05-22T09:00:15Z</time>
      </trkpt>
      <trkpt lat="43.5342" lon="2.47624">
        <ele>701.154</ele>
        <time>2021-05-22T09:00:17Z</time>
      </trkpt>
      <trkpt lat="43.53418" lon="2.47623">
        <ele>700.805</ele>
        <time>2021-05-22T09:00:19Z</time>
      </trkpt>
      <trkpt lat="43.53416" lon="2.47622">
        <ele>699.936</ele>
        <time>2021-05-22T09:00:21Z</time>
      </trkpt>
      <trkpt lat="43.53414" lon="2.47621">
        <ele>700.774</ele>
        <time>2021-05-22T09:00:23Z</time>
      </trkpt>
      <trkpt lat="43.53411" lon="2.47621">
        <ele>701.916</ele>
        <time>2021-05-22T09:00:25Z</time>
      </trkpt>
      <trkpt lat="43.53408" lon="2.47622">
        <ele>701.162</ele>
        <time>2021-05-22T09:00:27Z</time>
      </trkpt>
      <trkpt lat="43.53406" lon="2.47624">
        <ele>700.863</ele>
        <time>2021-05-22T09:00:29Z</time>
      </trkpt>
      <trkpt lat="43.53405" lon="2.47626">
        <ele>701.442</ele>
        <time>2021-05-22T09:00:31Z</time>
      </trkpt>
      <trkpt lat="43.53403" lon="2.47627">
        <ele>702.25</ele>
        <time>2021-05-22T09:00:33Z</time>
      </trkpt>
      <trkpt lat="43.53403" lon="2.47628">
        <ele>703.551</ele>
        <time>2021-05-22T09:00:35Z</time>
      </trkpt>
      <trkpt lat="43.53403" lon="2.47629">
        <ele>704.299</ele>
        <time>2021-05-22T09:00:37Z</time>
      </trkpt>
      <trkpt lat="43.53402" lon="2.4763">
        <ele>702.346</ele>
        <time>2021-05-22T09:00:39Z</time>
      </trkpt>
      <trkpt lat="43.53402" lon="2.47631">
        <ele>703.008</ele>
        <time>2021-05-22T09:00:41Z</time>
      </trkpt>
      <trkpt lat="43.53402" lon="2.47634">
        <ele>702.495</ele>
        <time>2021-05-22T09:00:43Z</time>
      </trkpt>
      <trkpt lat="43.53401" lon="2.47637">
        <ele>702.743</ele>
        <time>2021-05-22T09:00:45Z</time>
      </trkpt>
      <trkpt lat="43.53401" lon="2.4764">
        <ele>701.689</ele>
        <time>2021-05-22T09:00:47Z</time>
      </trkpt>
      <trkpt lat="43.534" lon="2.47643">
        <ele>701.734</ele>
        <time>2021-05-22T09:00:49Z</time>
      </trkpt>
      <trkpt lat="43.534" lon="2.47646">
        <ele>701.649</ele>
        <time>2021-05-22T09:00:51Z</time>
      </trkpt>
      <trkpt lat="43.53401" lon="2.47648">
        <ele>700.919</ele>
        <time>2021-05-22T09:00:53Z</time>
      </trkpt>
      <trkpt lat="43.53401" lon="2.4765">
        <ele>701.466</ele>
        <time>2021-05-22T09:00:55Z</time>
      </trkpt>
      <trkpt lat="43.534" lon="2.47652">
        <ele>700.218</ele>
        <time>2021-05-22T09:00:57Z</time>
      </trkpt>
      <trkpt lat="43.534" lon="2.47655">
        <ele>699.157</ele>
        <time>2021-05-22T09:00:59Z</time>
      </trkpt>
      <trkpt lat="43.53399" lon="2.47658">
        <ele>699.342</ele>
        <time>2021-05-22T09:01:01Z</time>
      </trkpt>
      <trkpt lat="43.53399" lon="2.4766">
        <ele>698.722</ele>
        <time>2021-05-22T09:01:03Z</time>
      </trkpt>
      <trkpt lat="43.53399" lon="2.47663">
        <ele>698.585</ele>
        <time>2021-05-22T09:01:05Z</time>
      </trkpt>
      <trkpt lat="43.53401" lon="2.47665">
        <ele>700.132</ele>
        <time>2021-05-22T09:01:07Z</time>
      </trkpt>
      <trkpt lat="43.53401" lon="2.47666">
        <ele>699.274</ele>
        <time>2021-05-22T09:01:09Z</time>
      </trkpt>
      <trkpt lat="43.534" lon="2.47669">
        <ele>698.243</ele>
        <time>2021-05-22T09:01:11Z</time>
      </trkpt>
      <trkpt lat="43.53401" lon="2.47672">
        <ele>699.073</ele>
        <time>2021-05-22T09:01:13Z</time>
      </trkpt>
      <trkpt lat="43.53402" lon="2.47675">
        <ele>700.9</ele>
        <time>2021-05-22T09:01:15Z</time>
      </trkpt>
      <trkpt lat="43.53402" lon="2.47679">
        <ele>700.145</ele>
        <time>2021-05-22T09:01:17Z</time>
      </trkpt>
      <trkpt lat="43.53402" lon="2.47683">
        <ele>699.217</ele>
        <time>2021-05-22T09:01:19Z</time>
      </trkpt>
      <trkpt lat="43.53402" lon="2.47686">
        <ele>699.454</ele>
        <time>2021-05-22T09:01:21Z</time>
      </trkpt>
      <trkpt lat="43.53402" lon="2.4769">
        <ele>699.646</ele>
        <time>2021-05-22T09:01:23Z</time>
      </trkpt>
      <trkpt lat="43.53401" lon="2.47693">
        <ele>699.128</ele>
        <time>2021-05-22T09:01:25Z</time>
      </trkpt>
      <trkpt lat="43.53402" lon="2.47699">
        <ele>698.459</ele>
        <time>2021-05-22T09:01:28Z</time>
      </trkpt>
      <trkpt lat="43.53402" lon="2.47702">
        <ele>698.348</ele>
        <time>2021-05-22T09:01:30Z</time>
      </trkpt>
      <trkpt lat="43.53402" lon="2.47705">
        <ele>698.057</ele>
        <time>2021-05-22T09:01:32Z</time>
      </trkpt>
      <trkpt lat="43.53402" lon="2.47708">
        <ele>697.196</ele>
        <time>2021-05-22T09:01:34Z</time>
      </trkpt>
      <trkpt lat="43.53402" lon="2.47711">
        <ele>697.983</ele>
        <time>2021-05-22T09:01:36Z</time>
      </trkpt>
      <trkpt lat="43.53402" lon="2.47715">
        <ele>698.435</ele>
        <time>2021-05-22T09:01:38Z</time>
      </trkpt>
      <trkpt lat="43.53402" lon="2.47718">
        <ele>698.83</ele>
        <time>2021-05-22T09:01:40Z</time>
      </trkpt>
      <trkpt lat="43.53402" lon="2.4772">
        <ele>698.87</ele>
        <time>2021-05-22T09:01:41Z</time>
      </trkpt>
      <trkpt lat="43.53401" lon="2.47725">
        <ele>698.616</ele>
        <time>2021-05-22T09:01:44Z</time>
      </trkpt>
      <trkpt lat="43.53401" lon="2.47729">
        <ele>699.362</ele>
        <time>2021-05-22T09:01:46Z</time>
      </trkpt>
      <trkpt lat="43.534" lon="2.47733">
        <ele>699.599</ele>
        <time>2021-05-22T09:01:48Z</time>
      </trkpt>
      <trkpt lat="43.534" lon="2.47735">
        <ele>699.372</ele>
        <time>2021-05-22T09:01:50Z</time>
      </trkpt>
      <trkpt lat="43.534" lon="2.47738">
        <ele>699.203</ele>
        <time>2021-05-22T09:01:52Z</time>
      </trkpt>
      <trkpt lat="43.534" lon="2.47741">
        <ele>699.354</ele>
        <time>2021-05-22T09:01:54Z</time>
      </trkpt>
      <trkpt lat="43.534" lon="2.47744">
        <ele>700.386</ele>
        <time>2021-05-22T09:01:56Z</time>
      </trkpt>
      <trkpt lat="43.534" lon="2.47746">
        <ele>699.998</ele>
        <time>2021-05-22T09:01:58Z</time>
      </trkpt>
      <trkpt lat="43.53399" lon="2.47749">
        <ele>700.205</ele>
        <time>2021-05-22T09:02:00Z</time>
      </trkpt>
      <trkpt lat="43.53399" lon="2.47752">
        <ele>699.96</ele>
        <time>2021-05-22T09:02:02Z</time>
      </trkpt>
      <trkpt lat="43.53399" lon="2.47754">
        <ele>700.142</ele>
        <time>2021-05-22T09:02:04Z</time>
      </trkpt>
      <trkpt lat="43.53399" lon="2.47757">
        <ele>699.185</ele>
        <time>2021-05-22T09:02:06Z</time>
      </trkpt>
      <trkpt lat="43.53401" lon="2.4776">
        <ele>700.35</ele>
        <time>2021-05-22T09:02:08Z</time>
      </trkpt>
      <trkpt lat="43.53403" lon="2.47755">
        <ele>701.121</ele>
        <time>2021-05-22T09:02:10Z</time>
      </trkpt>
      <trkpt lat="43.53403" lon="2.47752">
        <ele>702.015</ele>
        <time>2021-05-22T09:02:12Z</time>
      </trkpt>
      <trkpt lat="43.53403" lon="2.47752">
        <ele>700.348</ele>
        <time>2021-05-22T09:02:14Z</time>
      </trkpt>
      <trkpt lat="43.53404" lon="2.47751">
        <ele>700.064</ele>
        <time>2021-05-22T09:02:16Z</time>
      </trkpt>
      <trkpt lat="43.53404" lon="2.4775">
        <ele>699.355</ele>
        <time>2021-05-22T09:02:18Z</time>
      </trkpt>
      <trkpt lat="43.53405" lon="2.47749">
        <ele>699.433</ele>
        <time>2021-05-22T09:02:20Z</time>
      </trkpt>
      <trkpt lat="43.53404" lon="2.47749">
        <ele>699.089</ele>
        <time>2021-05-22T09:02:22Z</time>
      </trkpt>
      <trkpt lat="43.53404" lon="2.47749">
        <ele>698.677</ele>
        <time>2021-05-22T09:02:24Z</time>
      </trkpt>
      <trkpt lat="43.53403" lon="2.4775">
        <ele>698.162</ele>
        <time>2021-05-22T09:02:26Z</time>
      </trkpt>
      <trkpt lat="43.53401" lon="2.47752">
        <ele>697.969</ele>
        <time>2021-05-22T09:02:28Z</time>
      </trkpt>
      <trkpt lat="43.534" lon="2.47754">
        <ele>697.997</ele>
        <time>2021-05-22T09:02:30Z</time>
      </trkpt>
      <trkpt lat="43.534" lon="2.47756">
        <ele>698.824</ele>
        <time>2021-05-22T09:02:32Z</time>
      </trkpt>
      <trkpt lat="43.534" lon="2.47759">
        <ele>699.183</ele>
        <time>2021-05-22T09:02:34Z</time>
      </trkpt>
      <trkpt lat="43.534" lon="2.47762">
        <ele>698.63</ele>
        <time>2021-05-22T09:02:36Z</time>
      </trkpt>
      <trkpt lat="43.53399" lon="2.47765">
        <ele>698.044</ele>
        <time>2021-05-22T09:02:38Z</time>
      </trkpt>
      <trkpt lat="43.53399" lon="2.47768">
        <ele>697.37</ele>
        <time>2021-05-22T09:02:40Z</time>
      </trkpt>
      <trkpt lat="43.53399" lon="2.47771">
        <ele>696.406</ele>
        <time>2021-05-22T09:02:42Z</time>
      </trkpt>
      <trkpt lat="43.534" lon="2.47773">
        <ele>696.405</ele>
        <time>2021-05-22T09:02:44Z</time>
      </trkpt>
      <trkpt lat="43.53401" lon="2.47777">
        <ele>695.926</ele>
        <time>2021-05-22T09:02:46Z</time>
      </trkpt>
      <trkpt lat="43.53401" lon="2.4778">
        <ele>696.069</ele>
        <time>2021-05-22T09:02:48Z</time>
      </trkpt>
      <trkpt lat="43.53401" lon="2.47784">
        <ele>696.016</ele>
        <time>2021-05-22T09:02:50Z</time>
      </trkpt>
      <trkpt lat="43.53402" lon="2.47787">
        <ele>695.549</ele>
        <time>2021-05-22T09:02:52Z</time>
      </trkpt>
      <trkpt lat="43.53403" lon="2.4779">
        <ele>696.636</ele>
        <time>2021-05-22T09:02:54Z</time>
      </trkpt>
      <trkpt lat="43.53404" lon="2.47793">
        <ele>695.785</ele>
        <time>2021-05-22T09:02:56Z</time>
      </trkpt>
      <trkpt lat="43.53404" lon="2.47796">
        <ele>695.899</ele>
        <time>2021-05-22T09:02:58Z</time>
      </trkpt>
      <trkpt lat="43.53405" lon="2.47799">
        <ele>695.861</ele>
        <time>2021-05-22T09:03:00Z</time>
      </trkpt>
      <trkpt lat="43.53405" lon="2.47801">
        <ele>695.943</ele>
        <time>2021-05-22T09:03:02Z</time>
      </trkpt>
      <trkpt lat="43.53405" lon="2.47804">
        <ele>695.013</ele>
        <time>2021-05-22T09:03:04Z</time>
      </trkpt>
      <trkpt lat="43.53405" lon="2.47807">
        <ele>695.456</ele>
        <time>2021-05-22T09:03:06Z</time>
      </trkpt>
      <trkpt lat="43.53405" lon="2.47809">
        <ele>694.995</ele>
        <time>2021-05-22T09:03:08Z</time>
      </trkpt>
      <trkpt lat="43.53405" lon="2.47812">
        <ele>694.628</ele>
        <time>2021-05-22T09:03:10Z</time>
      </trkpt>
      <trkpt lat="43.53405" lon="2.47816">
        <ele>694.728</ele>
        <time>2021-05-22T09:03:12Z</time>
      </trkpt>
      <trkpt lat="43.53405" lon="2.47819">
        <ele>694.508</ele>
        <time>2021-05-22T09:03:14Z</time>
      </trkpt>
      <trkpt lat="43.53404" lon="2.47821">
        <ele>694.54</ele>
        <time>2021-05-22T09:03:16Z</time>
      </trkpt>
      <trkpt lat="43.53404" lon="2.47824">
        <ele>694.756</ele>
        <time>2021-05-22T09:03:18Z</time>
      </trkpt>
      <trkpt lat="43.53403" lon="2.47827">
        <ele>694.721</ele>
        <time>2021-05-22T09:03:20Z</time>
      </trkpt>
      <trkpt lat="43.53403" lon="2.4783">
        <ele>694.476</ele>
        <time>2021-05-22T09:03:22Z</time>
      </trkpt>
      <trkpt lat="43.53403" lon="2.47833">
        <ele>693.886</ele>
        <time>2021-05-22T09:03:24Z</time>
      </trkpt>
      <trkpt lat="43.53402" lon="2.47836">
        <ele>693.607</ele>
        <time>2021-05-22T09:03:26Z</time>
      </trkpt>
      <trkpt lat="43.53401" lon="2.47839">
        <ele>692.924</ele>
        <time>2021-05-22T09:03:28Z</time>
      </trkpt>
      <trkpt lat="43.53401" lon="2.47841">
        <ele>692.996</ele>
        <time>2021-05-22T09:03:30Z</time>
      </trkpt>
      <trkpt lat="43.53401" lon="2.47844">
        <ele>692.743</ele>
        <time>2021-05-22T09:03:32Z</time>
      </trkpt>
      <trkpt lat="43.534" lon="2.47848">
        <ele>692.951</ele>
        <time>2021-05-22T09:03:34Z</time>
      </trkpt>
      <trkpt lat="43.53399" lon="2.47852">
        <ele>693.337</ele>
        <time>2021-05-22T09:03:36Z</time>
      </trkpt>
      <trkpt lat="43.53399" lon="2.47855">
        <ele>693.735</ele>
        <time>2021-05-22T09:03:38Z</time>
      </trkpt>
      <trkpt lat="43.53398" lon="2.47858">
        <ele>692.433</ele>
        <time>2021-05-22T09:03:40Z</time>
      </trkpt>
      <trkpt lat="43.53397" lon="2.47862">
        <ele>692.364</ele>
        <time>2021-05-22T09:03:42Z</time>
      </trkpt>
      <trkpt lat="43.53397" lon="2.47865">
        <ele>691.904</ele>
        <time>2021-05-22T09:03:44Z</time>
      </trkpt>
      <trkpt lat="43.53397" lon="2.47869">
        <ele>691.321</ele>
        <time>2021-05-22T09:03:46Z</time>
      </trkpt>
      <trkpt lat="43.53396" lon="2.47872">
        <ele>690.436</ele>
        <time>2021-05-22T09:03:48Z</time>
      </trkpt>
      <trkpt lat="43.53396" lon="2.47875">
        <ele>689.736</ele>
        <time>2021-05-22T09:03:50Z</time>
      </trkpt>
      <trkpt lat="43.53397" lon="2.47878">
        <ele>688.695</ele>
        <time>2021-05-22T09:03:52Z</time>
      </trkpt>
      <trkpt lat="43.53397" lon="2.47881">
        <ele>688.319</ele>
        <time>2021-05-22T09:03:54Z</time>
      </trkpt>
      <trkpt lat="43.53398" lon="2.47884">
        <ele>687.455</ele>
        <time>2021-05-22T09:03:56Z</time>
      </trkpt>
      <trkpt lat="43.53398" lon="2.47888">
        <ele>687.563</ele>
        <time>2021-05-22T09:03:58Z</time>
      </trkpt>
      <trkpt lat="43.53398" lon="2.47891">
        <ele>686.646</ele>
        <time>2021-05-22T09:04:00Z</time>
      </trkpt>
      <trkpt lat="43.53399" lon="2.47894">
        <ele>685.363</ele>
        <time>2021-05-22T09:04:02Z</time>
      </trkpt>
      <trkpt lat="43.53399" lon="2.47897">
        <ele>684.31</ele>
        <time>2021-05-22T09:04:04Z</time>
      </trkpt>
      <trkpt lat="43.534" lon="2.479">
        <ele>683.43</ele>
        <time>2021-05-22T09:04:06Z</time>
      </trkpt>
      <trkpt lat="43.53401" lon="2.47903">
        <ele>683.91</ele>
        <time>2021-05-22T09:04:08Z</time>
      </trkpt>
      <trkpt lat="43.53402" lon="2.47906">
        <ele>684.1</ele>
        <time>2021-05-22T09:04:10Z</time>
      </trkpt>
      <trkpt lat="43.53403" lon="2.47909">
        <ele>684.512</ele>
        <time>2021-05-22T09:04:12Z</time>
      </trkpt>
      <trkpt lat="43.53403" lon="2.47911">
        <ele>684.348</ele>
        <time>2021-05-22T09:04:14Z</time>
      </trkpt>
      <trkpt lat="43.53404" lon="2.47914">
        <ele>684.797</ele>
        <time>2021-05-22T09:04:16Z</time>
      </trkpt>
      <trkpt lat="43.53405" lon="2.47917">
        <ele>684.967</ele>
        <time>2021-05-22T09:04:18Z</time>
      </trkpt>
      <trkpt lat="43.53406" lon="2.4792">
        <ele>685.019</ele>
        <time>2021-05-22T09:04:20Z</time>
      </trkpt>
      <trkpt lat="43.53407" lon="2.47923">
        <ele>683.913</ele>
        <time>2021-05-22T09:04:22Z</time>
      </trkpt>
      <trkpt lat="43.53407" lon="2.47926">
        <ele>683.372</ele>
        <time>2021-05-22T09:04:24Z</time>
      </trkpt>
      <trkpt lat="43.53408" lon="2.47929">
        <ele>684.884</ele>
        <time>2021-05-22T09:04:26Z</time>
      </trkpt>
      <trkpt lat="43.53409" lon="2.47932">
        <ele>684.206</ele>
        <time>2021-05-22T09:04:28Z</time>
      </trkpt>
      <trkpt lat="43.5341" lon="2.47935">
        <ele>683.107</ele>
        <time>2021-05-22T09:04:30Z</time>
      </trkpt>
      <trkpt lat="43.5341" lon="2.47937">
        <ele>682.637</ele>
        <time>2021-05-22T09:04:32Z</time>
      </trkpt>
      <trkpt lat="43.5341" lon="2.4794">
        <ele>683.259</ele>
        <time>2021-05-22T09:04:34Z</time>
      </trkpt>
      <trkpt lat="43.53411" lon="2.47943">
        <ele>683.149</ele>
        <time>2021-05-22T09:04:36Z</time>
      </trkpt>
      <trkpt lat="43.53411" lon="2.47945">
        <ele>681.917</ele>
        <time>2021-05-22T09:04:38Z</time>
      </trkpt>
      <trkpt lat="43.53411" lon="2.47948">
        <ele>680.853</ele>
        <time>2021-05-22T09:04:40Z</time>
      </trkpt>
      <trkpt lat="43.53411" lon="2.47951">
        <ele>679.966</ele>
        <time>2021-05-22T09:04:42Z</time>
      </trkpt>
      <trkpt lat="43.53411" lon="2.47954">
        <ele>679.772</ele>
        <time>2021-05-22T09:04:44Z</time>
      </trkpt>
      <trkpt lat="43.53411" lon="2.47957">
        <ele>679.846</ele>
        <time>2021-05-22T09:04:46Z</time>
      </trkpt>
      <trkpt lat="43.53412" lon="2.4796">
        <ele>680.012</ele>
        <time>2021-05-22T09:04:48Z</time>
      </trkpt>
      <trkpt lat="43.53412" lon="2.47963">
        <ele>677.617</ele>
        <time>2021-05-22T09:04:50Z</time>
      </trkpt>
      <trkpt lat="43.53411" lon="2.47966">
        <ele>678.189</ele>
        <time>2021-05-22T09:04:52Z</time>
      </trkpt>
      <trkpt lat="43.53411" lon="2.47969">
        <ele>677.89</ele>
        <time>2021-05-22T09:04:54Z</time>
      </trkpt>
      <trkpt lat="43.5341" lon="2.47973">
        <ele>678.562</ele>
        <time>2021-05-22T09:04:56Z</time>
      </trkpt>
      <trkpt lat="43.5341" lon="2.47977">
        <ele>678.276</ele>
        <time>2021-05-22T09:04:58Z</time>
      </trkpt>
      <trkpt lat="43.53409" lon="2.47979">
        <ele>678.084</ele>
        <time>2021-05-22T09:05:00Z</time>
      </trkpt>
      <trkpt lat="43.53408" lon="2.47983">
        <ele>678.858</ele>
        <time>2021-05-22T09:05:02Z</time>
      </trkpt>
      <trkpt lat="43.53407" lon="2.47986">
        <ele>680.33</ele>
        <time>2021-05-22T09:05:04Z</time>
      </trkpt>
      <trkpt lat="43.53406" lon="2.47989">
        <ele>683.284</ele>
        <time>2021-05-22T09:05:06Z</time>
      </trkpt>
      <trkpt lat="43.53405" lon="2.47992">
        <ele>686.169</ele>
        <time>2021-05-22T09:05:08Z</time>
      </trkpt>
      <trkpt lat="43.53403" lon="2.47996">
        <ele>688.05</ele>
        <time>2021-05-22T09:05:10Z</time>
      </trkpt>
      <trkpt lat="43.53401" lon="2.47999">
        <ele>686.962</ele>
        <time>2021-05-22T09:05:12Z</time>
      </trkpt>
      <trkpt lat="43.534" lon="2.48001">
        <ele>684.658</ele>
        <time>2021-05-22T09:05:14Z</time>
      </trkpt>
      <trkpt lat="43.53398" lon="2.48003">
        <ele>683.145</ele>
        <time>2021-05-22T09:05:16Z</time>
      </trkpt>
      <trkpt lat="43.53397" lon="2.48005">
        <ele>680.831</ele>
        <time>2021-05-22T09:05:18Z</time>
      </trkpt>
      <trkpt lat="43.53396" lon="2.48008">
        <ele>679.678</ele>
        <time>2021-05-22T09:05:20Z</time>
      </trkpt>
      <trkpt lat="43.53394" lon="2.4801">
        <ele>680.13</ele>
        <time>2021-05-22T09:05:22Z</time>
      </trkpt>
      <trkpt lat="43.53393" lon="2.48013">
        <ele>679.23</ele>
        <time>2021-05-22T09:05:24Z</time>
      </trkpt>
      <trkpt lat="43.53391" lon="2.48015">
        <ele>677.391</ele>
        <time>2021-05-22T09:05:26Z</time>
      </trkpt>
      <trkpt lat="43.5339" lon="2.48018">
        <ele>676.785</ele>
        <time>2021-05-22T09:05:28Z</time>
      </trkpt>
      <trkpt lat="43.53388" lon="2.4802">
        <ele>677.015</ele>
        <time>2021-05-22T09:05:30Z</time>
      </trkpt>
      <trkpt lat="43.53387" lon="2.48023">
        <ele>676.856</ele>
        <time>2021-05-22T09:05:32Z</time>
      </trkpt>
      <trkpt lat="43.53386" lon="2.48025">
        <ele>676.917</ele>
        <time>2021-05-22T09:05:34Z</time>
      </trkpt>
      <trkpt lat="43.53385" lon="2.48028">
        <ele>676.588</ele>
        <time>2021-05-22T09:05:36Z</time>
      </trkpt>
      <trkpt lat="43.53384" lon="2.4803">
        <ele>677.907</ele>
        <time>2021-05-22T09:05:38Z</time>
      </trkpt>
      <trkpt lat="43.53382" lon="2.48033">
        <ele>679.232</ele>
        <time>2021-05-22T09:05:40Z</time>
      </trkpt>
      <trkpt lat="43.53381" lon="2.48035">
        <ele>679.927</ele>
        <time>2021-05-22T09:05:42Z</time>
      </trkpt>
      <trkpt lat="43.53381" lon="2.48038">
        <ele>680.075</ele>
        <time>2021-05-22T09:05:44Z</time>
      </trkpt>
      <trkpt lat="43.53381" lon="2.48042">
        <ele>677.982</ele>
        <time>2021-05-22T09:05:46Z</time>
      </trkpt>
      <trkpt lat="43.5338" lon="2.48045">
        <ele>677.963</ele>
        <time>2021-05-22T09:05:48Z</time>
      </trkpt>
      <trkpt lat="43.5338" lon="2.48048">
        <ele>678.419</ele>
        <time>2021-05-22T09:05:50Z</time>
      </trkpt>
      <trkpt lat="43.5338" lon="2.48052">
        <ele>676.947</ele>
        <time>2021-05-22T09:05:52Z</time>
      </trkpt>
      <trkpt lat="43.5338" lon="2.48056">
        <ele>677.248</ele>
        <time>2021-05-22T09:05:54Z</time>
      </trkpt>
      <trkpt lat="43.5338" lon="2.48059">
        <ele>677.725</ele>
        <time>2021-05-22T09:05:56Z</time>
      </trkpt>
      <trkpt lat="43.53379" lon="2.48062">
        <ele>676.905</ele>
        <time>2021-05-22T09:05:58Z</time>
      </trkpt>
      <trkpt lat="43.53379" lon="2.48066">
        <ele>677.246</ele>
        <time>2021-05-22T09:06:00Z</time>
      </trkpt>
      <trkpt lat="43.5338" lon="2.48069">
        <ele>677.904</ele>
        <time>2021-05-22T09:06:02Z</time>
      </trkpt>
      <trkpt lat="43.5338" lon="2.48072">
        <ele>678.627</ele>
        <time>2021-05-22T09:06:04Z</time>
      </trkpt>
      <trkpt lat="43.53381" lon="2.48075">
        <ele>679.265</ele>
        <time>2021-05-22T09:06:06Z</time>
      </trkpt>
      <trkpt lat="43.53382" lon="2.48079">
        <ele>679.942</ele>
        <time>2021-05-22T09:06:08Z</time>
      </trkpt>
      <trkpt lat="43.53382" lon="2.48083">
        <ele>679.972</ele>
        <time>2021-05-22T09:06:11Z</time>
      </trkpt>
      <trkpt lat="43.53383" lon="2.48086">
        <ele>679.193</ele>
        <time>2021-05-22T09:06:13Z</time>
      </trkpt>
      <trkpt lat="43.53384" lon="2.4809">
        <ele>678.11</ele>
        <time>2021-05-22T09:06:15Z</time>
      </trkpt>
      <trkpt lat="43.53384" lon="2.48094">
        <ele>677.885</ele>
        <time>2021-05-22T09:06:17Z</time>
      </trkpt>
      <trkpt lat="43.53384" lon="2.48098">
        <ele>677.963</ele>
        <time>2021-05-22T09:06:19Z</time>
      </trkpt>
      <trkpt lat="43.53384" lon="2.48101">
        <ele>678.569</ele>
        <time>2021-05-22T09:06:21Z</time>
      </trkpt>
      <trkpt lat="43.53384" lon="2.48105">
        <ele>678.983</ele>
        <time>2021-05-22T09:06:23Z</time>
      </trkpt>
      <trkpt lat="43.53384" lon="2.48109">
        <ele>678.706</ele>
        <time>2021-05-22T09:06:25Z</time>
      </trkpt>
      <trkpt lat="43.53385" lon="2.48112">
        <ele>678.893</ele>
        <time>2021-05-22T09:06:27Z</time>
      </trkpt>
      <trkpt lat="43.53385" lon="2.48116">
        <ele>678.935</ele>
        <time>2021-05-22T09:06:29Z</time>
      </trkpt>
      <trkpt lat="43.53385" lon="2.48119">
        <ele>679.198</ele>
        <time>2021-05-22T09:06:31Z</time>
      </trkpt>
      <trkpt lat="43.53385" lon="2.48122">
        <ele>679.806</ele>
        <time>2021-05-22T09:06:33Z</time>
      </trkpt>
      <trkpt lat="43.53385" lon="2.48125">
        <ele>681.974</ele>
        <time>2021-05-22T09:06:35Z</time>
      </trkpt>
      <trkpt lat="43.53385" lon="2.48129">
        <ele>680.791</ele>
        <time>2021-05-22T09:06:37Z</time>
      </trkpt>
      <trkpt lat="43.53386" lon="2.48132">
        <ele>679.986</ele>
        <time>2021-05-22T09:06:39Z</time>
      </trkpt>
      <trkpt lat="43.53387" lon="2.48135">
        <ele>680.889</ele>
        <time>2021-05-22T09:06:41Z</time>
      </trkpt>
      <trkpt lat="43.53386" lon="2.48138">
        <ele>679.887</ele>
        <time>2021-05-22T09:06:43Z</time>
      </trkpt>
      <trkpt lat="43.53385" lon="2.48142">
        <ele>679.394</ele>
        <time>2021-05-22T09:06:45Z</time>
      </trkpt>
      <trkpt lat="43.53385" lon="2.48145">
        <ele>678.706</ele>
        <time>2021-05-22T09:06:47Z</time>
      </trkpt>
      <trkpt lat="43.53383" lon="2.48148">
        <ele>677.906</ele>
        <time>2021-05-22T09:06:49Z</time>
      </trkpt>
      <trkpt lat="43.53382" lon="2.48151">
        <ele>679.475</ele>
        <time>2021-05-22T09:06:51Z</time>
      </trkpt>
      <trkpt lat="43.53381" lon="2.48154">
        <ele>678.154</ele>
        <time>2021-05-22T09:06:53Z</time>
      </trkpt>
      <trkpt lat="43.5338" lon="2.48156">
        <ele>676.033</ele>
        <time>2021-05-22T09:06:55Z</time>
      </trkpt>
      <trkpt lat="43.53378" lon="2.48159">
        <ele>676.449</ele>
        <time>2021-05-22T09:06:57Z</time>
      </trkpt>
      <trkpt lat="43.53377" lon="2.48162">
        <ele>675.446</ele>
        <time>2021-05-22T09:06:59Z</time>
      </trkpt>
      <trkpt lat="43.53376" lon="2.48164">
        <ele>674.989</ele>
        <time>2021-05-22T09:07:01Z</time>
      </trkpt>
      <trkpt lat="43.53376" lon="2.48167">
        <ele>673.98</ele>
        <time>2021-05-22T09:07:03Z</time>
      </trkpt>
      <trkpt lat="43.53375" lon="2.4817">
        <ele>672.133</ele>
        <time>2021-05-22T09:07:05Z</time>
      </trkpt>
      <trkpt lat="43.53375" lon="2.48173">
        <ele>671.257</ele>
        <time>2021-05-22T09:07:07Z</time>
      </trkpt>
      <trkpt lat="43.53374" lon="2.48176">
        <ele>669.078</ele>
        <time>2021-05-22T09:07:09Z</time>
      </trkpt>
      <trkpt lat="43.53374" lon="2.48179">
        <ele>668.427</ele>
        <time>2021-05-22T09:07:11Z</time>
      </trkpt>
      <trkpt lat="43.53373" lon="2.48184">
        <ele>669.648</ele>
        <time>2021-05-22T09:07:13Z</time>
      </trkpt>
      <trkpt lat="43.53373" lon="2.48187">
        <ele>669.322</ele>
        <time>2021-05-22T09:07:15Z</time>
      </trkpt>
      <trkpt lat="43.53373" lon="2.4819">
        <ele>668.05</ele>
        <time>2021-05-22T09:07:17Z</time>
      </trkpt>
      <trkpt lat="43.53373" lon="2.48193">
        <ele>667.367</ele>
        <time>2021-05-22T09:07:19Z</time>
      </trkpt>
      <trkpt lat="43.53373" lon="2.48196">
        <ele>667.331</ele>
        <time>2021-05-22T09:07:21Z</time>
      </trkpt>
      <trkpt lat="43.53374" lon="2.48199">
        <ele>666.132</ele>
        <time>2021-05-22T09:07:23Z</time>
      </trkpt>
      <trkpt lat="43.53374" lon="2.48202">
        <ele>665.364</ele>
        <time>2021-05-22T09:07:25Z</time>
      </trkpt>
      <trkpt lat="43.53374" lon="2.48205">
        <ele>666.155</ele>
        <time>2021-05-22T09:07:27Z</time>
      </trkpt>
      <trkpt lat="43.53374" lon="2.48208">
        <ele>665.255</ele>
        <time>2021-05-22T09:07:29Z</time>
      </trkpt>
      <trkpt lat="43.53374" lon="2.48211">
        <ele>664.998</ele>
        <time>2021-05-22T09:07:31Z</time>
      </trkpt>
      <trkpt lat="43.53375" lon="2.48213">
        <ele>664.627</ele>
        <time>2021-05-22T09:07:33Z</time>
      </trkpt>
      <trkpt lat="43.53375" lon="2.48216">
        <ele>664.335</ele>
        <time>2021-05-22T09:07:35Z</time>
      </trkpt>
      <trkpt lat="43.53375" lon="2.48219">
        <ele>664.085</ele>
        <time>2021-05-22T09:07:37Z</time>
      </trkpt>
      <trkpt lat="43.53375" lon="2.48221">
        <ele>664.155</ele>
        <time>2021-05-22T09:07:39Z</time>
      </trkpt>
      <trkpt lat="43.53375" lon="2.48224">
        <ele>664.809</ele>
        <time>2021-05-22T09:07:41Z</time>
      </trkpt>
      <trkpt lat="43.53375" lon="2.48227">
        <ele>665.04</ele>
        <time>2021-05-22T09:07:43Z</time>
      </trkpt>
      <trkpt lat="43.53375" lon="2.4823">
        <ele>665.344</ele>
        <time>2021-05-22T09:07:45Z</time>
      </trkpt>
      <trkpt lat="43.53374" lon="2.48233">
        <ele>665.249</ele>
        <time>2021-05-22T09:07:47Z</time>
      </trkpt>
      <trkpt lat="43.53374" lon="2.48236">
        <ele>664.253</ele>
        <time>2021-05-22T09:07:49Z</time>
      </trkpt>
      <trkpt lat="43.53374" lon="2.48239">
        <ele>664.17</ele>
        <time>2021-05-22T09:07:51Z</time>
      </trkpt>
      <trkpt lat="43.53373" lon="2.48241">
        <ele>663.054</ele>
        <time>2021-05-22T09:07:53Z</time>
      </trkpt>
      <trkpt lat="43.53372" lon="2.48244">
        <ele>662.189</ele>
        <time>2021-05-22T09:07:55Z</time>
      </trkpt>
      <trkpt lat="43.53372" lon="2.48247">
        <ele>661.119</ele>
        <time>2021-05-22T09:07:57Z</time>
      </trkpt>
      <trkpt lat="43.53373" lon="2.4825">
        <ele>660.842</ele>
        <time>2021-05-22T09:07:59Z</time>
      </trkpt>
      <trkpt lat="43.53373" lon="2.48253">
        <ele>660.935</ele>
        <time>2021-05-22T09:08:01Z</time>
      </trkpt>
      <trkpt lat="43.53374" lon="2.48256">
        <ele>660.718</ele>
        <time>2021-05-22T09:08:03Z</time>
      </trkpt>
      <trkpt lat="43.53375" lon="2.48258">
        <ele>660.655</ele>
        <time>2021-05-22T09:08:05Z</time>
      </trkpt>
      <trkpt lat="43.53377" lon="2.4826">
        <ele>660.928</ele>
        <time>2021-05-22T09:08:07Z</time>
      </trkpt>
      <trkpt lat="43.53379" lon="2.48261">
        <ele>660.35</ele>
        <time>2021-05-22T09:08:09Z</time>
      </trkpt>
      <trkpt lat="43.53381" lon="2.48261">
        <ele>659.973</ele>
        <time>2021-05-22T09:08:11Z</time>
      </trkpt>
      <trkpt lat="43.53383" lon="2.48261">
        <ele>660.988</ele>
        <time>2021-05-22T09:08:13Z</time>
      </trkpt>
      <trkpt lat="43.53385" lon="2.48261">
        <ele>660.803</ele>
        <time>2021-05-22T09:08:15Z</time>
      </trkpt>
      <trkpt lat="43.53387" lon="2.48261">
        <ele>659.754</ele>
        <time>2021-05-22T09:08:17Z</time>
      </trkpt>
      <trkpt lat="43.53389" lon="2.48261">
        <ele>660.514</ele>
        <time>2021-05-22T09:08:19Z</time>
      </trkpt>
      <trkpt lat="43.53391" lon="2.48261">
        <ele>660.684</ele>
        <time>2021-05-22T09:08:21Z</time>
      </trkpt>
      <trkpt lat="43.53394" lon="2.4826">
        <ele>661.083</ele>
        <time>2021-05-22T09:08:23Z</time>
      </trkpt>
      <trkpt lat="43.53396" lon="2.48261">
        <ele>661.769</ele>
        <time>2021-05-22T09:08:25Z</time>
      </trkpt>
      <trkpt lat="43.53398" lon="2.4826">
        <ele>661.999</ele>
        <time>2021-05-22T09:08:27Z</time>
      </trkpt>
      <trkpt lat="43.534" lon="2.48261">
        <ele>662.68</ele>
        <time>2021-05-22T09:08:29Z</time>
      </trkpt>
      <trkpt lat="43.53402" lon="2.48261">
        <ele>662.706</ele>
        <time>2021-05-22T09:08:31Z</time>
      </trkpt>
      <trkpt lat="43.53404" lon="2.4826">
        <ele>661.899</ele>
        <time>2021-05-22T09:08:33Z</time>
      </trkpt>
      <trkpt lat="43.53406" lon="2.4826">
        <ele>661.605</ele>
        <time>2021-05-22T09:08:35Z</time>
      </trkpt>
      <trkpt lat="43.53408" lon="2.48261">
        <ele>661.053</ele>
        <time>2021-05-22T09:08:37Z</time>
      </trkpt>
      <trkpt lat="43.5341" lon="2.48261">
        <ele>661.107</ele>
        <time>2021-05-22T09:08:39Z</time>
      </trkpt>
      <trkpt lat="43.53412" lon="2.4826">
        <ele>661.661</ele>
        <time>2021-05-22T09:08:41Z</time>
      </trkpt>
      <trkpt lat="43.53414" lon="2.48259">
        <ele>661.303</ele>
        <time>2021-05-22T09:08:43Z</time>
      </trkpt>
      <trkpt lat="43.53416" lon="2.48258">
        <ele>659.929</ele>
        <time>2021-05-22T09:08:45Z</time>
      </trkpt>
      <trkpt lat="43.53418" lon="2.48257">
        <ele>659.439</ele>
        <time>2021-05-22T09:08:47Z</time>
      </trkpt>
      <trkpt lat="43.5342" lon="2.48255">
        <ele>658.76</ele>
        <time>2021-05-22T09:08:49Z</time>
      </trkpt>
      <trkpt lat="43.53422" lon="2.48254">
        <ele>659.426</ele>
        <time>2021-05-22T09:08:51Z</time>
      </trkpt>
      <trkpt lat="43.53423" lon="2.48252">
        <ele>658.033</ele>
        <time>2021-05-22T09:08:53Z</time>
      </trkpt>
      <trkpt lat="43.53425" lon="2.4825">
        <ele>657.738</ele>
        <time>2021-05-22T09:08:55Z</time>
      </trkpt>
      <trkpt lat="43.53427" lon="2.48248">
        <ele>657.654</ele>
        <time>2021-05-22T09:08:57Z</time>
      </trkpt>
      <trkpt lat="43.53428" lon="2.48245">
        <ele>658.228</ele>
        <time>2021-05-22T09:08:59Z</time>
      </trkpt>
      <trkpt lat="43.53429" lon="2.48243">
        <ele>657.589</ele>
        <time>2021-05-22T09:09:01Z</time>
      </trkpt>
      <trkpt lat="43.53431" lon="2.4824">
        <ele>657.002</ele>
        <time>2021-05-22T09:09:03Z</time>
      </trkpt>
      <trkpt lat="43.53431" lon="2.48238">
        <ele>656.104</ele>
        <time>2021-05-22T09:09:05Z</time>
      </trkpt>
      <trkpt lat="43.53431" lon="2.48235">
        <ele>655.173</ele>
        <time>2021-05-22T09:09:07Z</time>
      </trkpt>
      <trkpt lat="43.53432" lon="2.48232">
        <ele>652.489</ele>
        <time>2021-05-22T09:09:09Z</time>
      </trkpt>
      <trkpt lat="43.53433" lon="2.4823">
        <ele>650.807</ele>
        <time>2021-05-22T09:09:11Z</time>
      </trkpt>
      <trkpt lat="43.53435" lon="2.48228">
        <ele>650.222</ele>
        <time>2021-05-22T09:09:13Z</time>
      </trkpt>
      <trkpt lat="43.53436" lon="2.48227">
        <ele>649.194</ele>
        <time>2021-05-22T09:09:15Z</time>
      </trkpt>
      <trkpt lat="43.53438" lon="2.48226">
        <ele>649.428</ele>
        <time>2021-05-22T09:09:17Z</time>
      </trkpt>
      <trkpt lat="43.5344" lon="2.48227">
        <ele>650.035</ele>
        <time>2021-05-22T09:09:19Z</time>
      </trkpt>
      <trkpt lat="43.53441" lon="2.48227">
        <ele>650.435</ele>
        <time>2021-05-22T09:09:21Z</time>
      </trkpt>
      <trkpt lat="43.53442" lon="2.48229">
        <ele>651.543</ele>
        <time>2021-05-22T09:09:23Z</time>
      </trkpt>
      <trkpt lat="43.53442" lon="2.48231">
        <ele>653.045</ele>
        <time>2021-05-22T09:09:25Z</time>
      </trkpt>
      <trkpt lat="43.53441" lon="2.48233">
        <ele>654.901</ele>
        <time>2021-05-22T09:09:27Z</time>
      </trkpt>
      <trkpt lat="43.53439" lon="2.48235">
        <ele>656.218</ele>
        <time>2021-05-22T09:09:29Z</time>
      </trkpt>
      <trkpt lat="43.53439" lon="2.48238">
        <ele>655.812</ele>
        <time>2021-05-22T09:09:31Z</time>
      </trkpt>
      <trkpt lat="43.53439" lon="2.4824">
        <ele>656.711</ele>
        <time>2021-05-22T09:09:33Z</time>
      </trkpt>
      <trkpt lat="43.53439" lon="2.48243">
        <ele>657.427</ele>
        <time>2021-05-22T09:09:35Z</time>
      </trkpt>
      <trkpt lat="43.5344" lon="2.48245">
        <ele>657.567</ele>
        <time>2021-05-22T09:09:37Z</time>
      </trkpt>
      <trkpt lat="43.53443" lon="2.48246">
        <ele>658.476</ele>
        <time>2021-05-22T09:09:39Z</time>
      </trkpt>
      <trkpt lat="43.53445" lon="2.48245">
        <ele>658.809</ele>
        <time>2021-05-22T09:09:41Z</time>
      </trkpt>
      <trkpt lat="43.53447" lon="2.48244">
        <ele>658.778</ele>
        <time>2021-05-22T09:09:43Z</time>
      </trkpt>
      <trkpt lat="43.53449" lon="2.48243">
        <ele>658.885</ele>
        <time>2021-05-22T09:09:45Z</time>
      </trkpt>
      <trkpt lat="43.53451" lon="2.48242">
        <ele>657.578</ele>
        <time>2021-05-22T09:09:47Z</time>
      </trkpt>
      <trkpt lat="43.53453" lon="2.48241">
        <ele>658.1</ele>
        <time>2021-05-22T09:09:49Z</time>
      </trkpt>
      <trkpt lat="43.53454" lon="2.4824">
        <ele>656.881</ele>
        <time>2021-05-22T09:09:51Z</time>
      </trkpt>
      <trkpt lat="43.53456" lon="2.48239">
        <ele>658.813</ele>
        <time>2021-05-22T09:09:53Z</time>
      </trkpt>
      <trkpt lat="43.53459" lon="2.4824">
        <ele>660.895</ele>
        <time>2021-05-22T09:09:55Z</time>
      </trkpt>
      <trkpt lat="43.53461" lon="2.48241">
        <ele>662.867</ele>
        <time>2021-05-22T09:09:57Z</time>
      </trkpt>
      <trkpt lat="43.53462" lon="2.48242">
        <ele>663.782</ele>
        <time>2021-05-22T09:09:58Z</time>
      </trkpt>
      <trkpt lat="43.53465" lon="2.48243">
        <ele>663.257</ele>
        <time>2021-05-22T09:10:01Z</time>
      </trkpt>
      <trkpt lat="43.53466" lon="2.48244">
        <ele>664.225</ele>
        <time>2021-05-22T09:10:03Z</time>
      </trkpt>
      <trkpt lat="43.53468" lon="2.48245">
        <ele>664.058</ele>
        <time>2021-05-22T09:10:05Z</time>
      </trkpt>
      <trkpt lat="43.53469" lon="2.48245">
        <ele>663.226</ele>
        <time>2021-05-22T09:10:07Z</time>
      </trkpt>
      <trkpt lat="43.53471" lon="2.48245">
        <ele>663.394</ele>
        <time>2021-05-22T09:10:09Z</time>
      </trkpt>
      <trkpt lat="43.53472" lon="2.48245">
        <ele>662.337</ele>
        <time>2021-05-22T09:10:11Z</time>
      </trkpt>
      <trkpt lat="43.53474" lon="2.48246">
        <ele>661.172</ele>
        <time>2021-05-22T09:10:13Z</time>
      </trkpt>
      <trkpt lat="43.53475" lon="2.48245">
        <ele>661.587</ele>
        <time>2021-05-22T09:10:15Z</time>
      </trkpt>
      <trkpt lat="43.53476" lon="2.48247">
        <ele>663.342</ele>
        <time>2021-05-22T09:10:17Z</time>
      </trkpt>
      <trkpt lat="43.53476" lon="2.48249">
        <ele>662.39</ele>
        <time>2021-05-22T09:10:19Z</time>
      </trkpt>
      <trkpt lat="43.53478" lon="2.48248">
        <ele>662.301</ele>
        <time>2021-05-22T09:10:21Z</time>
      </trkpt>
      <trkpt lat="43.53479" lon="2.48247">
        <ele>661.963</ele>
        <time>2021-05-22T09:10:23Z</time>
      </trkpt>
      <trkpt lat="43.5348" lon="2.48246">
        <ele>662.753</ele>
        <time>2021-05-22T09:10:25Z</time>
      </trkpt>
      <trkpt lat="43.53481" lon="2.48245">
        <ele>662.565</ele>
        <time>2021-05-22T09:10:27Z</time>
      </trkpt>
      <trkpt lat="43.53483" lon="2.48245">
        <ele>662.003</ele>
        <time>2021-05-22T09:10:29Z</time>
      </trkpt>
      <trkpt lat="43.53484" lon="2.48245">
        <ele>660.914</ele>
        <time>2021-05-22T09:10:31Z</time>
      </trkpt>
      <trkpt lat="43.53486" lon="2.48245">
        <ele>659.666</ele>
        <time>2021-05-22T09:10:33Z</time>
      </trkpt>
      <trkpt lat="43.53487" lon="2.48245">
        <ele>659.213</ele>
        <time>2021-05-22T09:10:35Z</time>
      </trkpt>
      <trkpt lat="43.53489" lon="2.48244">
        <ele>658.646</ele>
        <time>2021-05-22T09:10:37Z</time>
      </trkpt>
      <trkpt lat="43.5349" lon="2.48243">
        <ele>658.834</ele>
        <time>2021-05-22T09:10:39Z</time>
      </trkpt>
      <trkpt lat="43.53492" lon="2.48242">
        <ele>658.85</ele>
        <time>2021-05-22T09:10:41Z</time>
      </trkpt>
      <trkpt lat="43.53494" lon="2.48242">
        <ele>658.91</ele>
        <time>2021-05-22T09:10:43Z</time>
      </trkpt>
      <trkpt lat="43.53495" lon="2.48242">
        <ele>658.916</ele>
        <time>2021-05-22T09:10:45Z</time>
      </trkpt>
      <trkpt lat="43.53496" lon="2.48242">
        <ele>658.159</ele>
        <time>2021-05-22T09:10:47Z</time>
      </trkpt>
      <trkpt lat="43.53496" lon="2.48242">
        <ele>657.618</ele>
        <time>2021-05-22T09:10:49Z</time>
      </trkpt>
      <trkpt lat="43.53496" lon="2.48242">
        <ele>657.596</ele>
        <time>2021-05-22T09:10:51Z</time>
      </trkpt>
      <trkpt lat="43.53496" lon="2.48242">
        <ele>657.587</ele>
        <time>2021-05-22T09:10:53Z</time>
      </trkpt>
      <trkpt lat="43.53496" lon="2.48242">
        <ele>657.582</ele>
        <time>2021-05-22T09:10:55Z</time>
      </trkpt>
      <trkpt lat="43.53496" lon="2.48242">
        <ele>657.562</ele>
        <time>2021-05-22T09:10:57Z</time>
      </trkpt>
      <trkpt lat="43.53496" lon="2.48242">
        <ele>657.538</ele>
        <time>2021-05-22T09:10:59Z</time>
      </trkpt>
      <trkpt lat="43.53496" lon="2.48242">
        <ele>656.526</ele>
        <time>2021-05-22T09:11:01Z</time>
      </trkpt>
      <trkpt lat="43.53496" lon="2.48242">
        <ele>656.529</ele>
        <time>2021-05-22T09:11:03Z</time>
      </trkpt>
      <trkpt lat="43.53496" lon="2.48242">
        <ele>656.528</ele>
        <time>2021-05-22T09:11:05Z</time>
      </trkpt>
      <trkpt lat="43.53496" lon="2.48242">
        <ele>655.969</ele>
        <time>2021-05-22T09:11:07Z</time>
      </trkpt>
      <trkpt lat="43.53497" lon="2.48241">
        <ele>654.923</ele>
        <time>2021-05-22T09:11:09Z</time>
      </trkpt>
      <trkpt lat="43.53499" lon="2.48241">
        <ele>655.229</ele>
        <time>2021-05-22T09:11:11Z</time>
      </trkpt>
      <trkpt lat="43.535" lon="2.48241">
        <ele>655.782</ele>
        <time>2021-05-22T09:11:13Z</time>
      </trkpt>
      <trkpt lat="43.53502" lon="2.48241">
        <ele>657.387</ele>
        <time>2021-05-22T09:11:15Z</time>
      </trkpt>
      <trkpt lat="43.53503" lon="2.48242">
        <ele>657.72</ele>
        <time>2021-05-22T09:11:17Z</time>
      </trkpt>
      <trkpt lat="43.53504" lon="2.48243">
        <ele>658.423</ele>
        <time>2021-05-22T09:11:19Z</time>
      </trkpt>
      <trkpt lat="43.53505" lon="2.48244">
        <ele>658.184</ele>
        <time>2021-05-22T09:11:21Z</time>
      </trkpt>
      <trkpt lat="43.53506" lon="2.48244">
        <ele>658.381</ele>
        <time>2021-05-22T09:11:23Z</time>
      </trkpt>
      <trkpt lat="43.53507" lon="2.48245">
        <ele>658.706</ele>
        <time>2021-05-22T09:11:25Z</time>
      </trkpt>
      <trkpt lat="43.53508" lon="2.48246">
        <ele>658.514</ele>
        <time>2021-05-22T09:11:27Z</time>
      </trkpt>
      <trkpt lat="43.5351" lon="2.48247">
        <ele>658.067</ele>
        <time>2021-05-22T09:11:29Z</time>
      </trkpt>
      <trkpt lat="43.53511" lon="2.48247">
        <ele>656.98</ele>
        <time>2021-05-22T09:11:31Z</time>
      </trkpt>
      <trkpt lat="43.53512" lon="2.48249">
        <ele>658.135</ele>
        <time>2021-05-22T09:11:33Z</time>
      </trkpt>
      <trkpt lat="43.53513" lon="2.4825">
        <ele>657.694</ele>
        <time>2021-05-22T09:11:35Z</time>
      </trkpt>
      <trkpt lat="43.53514" lon="2.48251">
        <ele>656.575</ele>
        <time>2021-05-22T09:11:37Z</time>
      </trkpt>
      <trkpt lat="43.53515" lon="2.48252">
        <ele>656.602</ele>
        <time>2021-05-22T09:11:39Z</time>
      </trkpt>
      <trkpt lat="43.53517" lon="2.48251">
        <ele>654.568</ele>
        <time>2021-05-22T09:11:41Z</time>
      </trkpt>
      <trkpt lat="43.53518" lon="2.48252">
        <ele>654.192</ele>
        <time>2021-05-22T09:11:43Z</time>
      </trkpt>
      <trkpt lat="43.53519" lon="2.48253">
        <ele>653.433</ele>
        <time>2021-05-22T09:11:45Z</time>
      </trkpt>
      <trkpt lat="43.5352" lon="2.48254">
        <ele>652.348</ele>
        <time>2021-05-22T09:11:47Z</time>
      </trkpt>
      <trkpt lat="43.53521" lon="2.48256">
        <ele>651.502</ele>
        <time>2021-05-22T09:11:49Z</time>
      </trkpt>
      <trkpt lat="43.53522" lon="2.48257">
        <ele>649.813</ele>
        <time>2021-05-22T09:11:51Z</time>
      </trkpt>
      <trkpt lat="43.53523" lon="2.48258">
        <ele>648.967</ele>
        <time>2021-05-22T09:11:53Z</time>
      </trkpt>
      <trkpt lat="43.53525" lon="2.4826">
        <ele>648.149</ele>
        <time>2021-05-22T09:11:55Z</time>
      </trkpt>
      <trkpt lat="43.53527" lon="2.48261">
        <ele>648.683</ele>
        <time>2021-05-22T09:11:57Z</time>
      </trkpt>
      <trkpt lat="43.53529" lon="2.4826">
        <ele>647.102</ele>
        <time>2021-05-22T09:11:59Z</time>
      </trkpt>
      <trkpt lat="43.53531" lon="2.48259">
        <ele>647.247</ele>
        <time>2021-05-22T09:12:01Z</time>
      </trkpt>
      <trkpt lat="43.53532" lon="2.4826">
        <ele>646.579</ele>
        <time>2021-05-22T09:12:03Z</time>
      </trkpt>
      <trkpt lat="43.53534" lon="2.4826">
        <ele>646.866</ele>
        <time>2021-05-22T09:12:05Z</time>
      </trkpt>
      <trkpt lat="43.53535" lon="2.48261">
        <ele>646.528</ele>
        <time>2021-05-22T09:12:07Z</time>
      </trkpt>
      <trkpt lat="43.53537" lon="2.48261">
        <ele>645.12</ele>
        <time>2021-05-22T09:12:09Z</time>
      </trkpt>
      <trkpt lat="43.53539" lon="2.48261">
        <ele>644.33</ele>
        <time>2021-05-22T09:12:11Z</time>
      </trkpt>
      <trkpt lat="43.53541" lon="2.48261">
        <ele>642.667</ele>
        <time>2021-05-22T09:12:13Z</time>
      </trkpt>
      <trkpt lat="43.53542" lon="2.48262">
        <ele>641.55</ele>
        <time>2021-05-22T09:12:15Z</time>
      </trkpt>
      <trkpt lat="43.53543" lon="2.48264">
        <ele>641.494</ele>
        <time>2021-05-22T09:12:17Z</time>
      </trkpt>
      <trkpt lat="43.53545" lon="2.48264">
        <ele>641.074</ele>
        <time>2021-05-22T09:12:19Z</time>
      </trkpt>
      <trkpt lat="43.53547" lon="2.48265">
        <ele>641.118</ele>
        <time>2021-05-22T09:12:21Z</time>
      </trkpt>
      <trkpt lat="43.53549" lon="2.48266">
        <ele>641.363</ele>
        <time>2021-05-22T09:12:24Z</time>
      </trkpt>
      <trkpt lat="43.5355" lon="2.48266">
        <ele>641.498</ele>
        <time>2021-05-22T09:12:26Z</time>
      </trkpt>
      <trkpt lat="43.53552" lon="2.48266">
        <ele>640.545</ele>
        <time>2021-05-22T09:12:28Z</time>
      </trkpt>
      <trkpt lat="43.53551" lon="2.48261">
        <ele>639.635</ele>
        <time>2021-05-22T09:12:30Z</time>
      </trkpt>
      <trkpt lat="43.5355" lon="2.48259">
        <ele>637.941</ele>
        <time>2021-05-22T09:12:32Z</time>
      </trkpt>
      <trkpt lat="43.5355" lon="2.48257">
        <ele>637.337</ele>
        <time>2021-05-22T09:12:34Z</time>
      </trkpt>
      <trkpt lat="43.5355" lon="2.48255">
        <ele>637.094</ele>
        <time>2021-05-22T09:12:36Z</time>
      </trkpt>
      <trkpt lat="43.53551" lon="2.48253">
        <ele>636.865</ele>
        <time>2021-05-22T09:12:38Z</time>
      </trkpt>
      <trkpt lat="43.53551" lon="2.48252">
        <ele>635.641</ele>
        <time>2021-05-22T09:12:40Z</time>
      </trkpt>
      <trkpt lat="43.53551" lon="2.48251">
        <ele>635.554</ele>
        <time>2021-05-22T09:12:42Z</time>
      </trkpt>
      <trkpt lat="43.53551" lon="2.48249">
        <ele>635.041</ele>
        <time>2021-05-22T09:12:44Z</time>
      </trkpt>
      <trkpt lat="43.5355" lon="2.48249">
        <ele>635.209</ele>
        <time>2021-05-22T09:12:46Z</time>
      </trkpt>
      <trkpt lat="43.53551" lon="2.48248">
        <ele>635.55</ele>
        <time>2021-05-22T09:12:48Z</time>
      </trkpt>
      <trkpt lat="43.53551" lon="2.48248">
        <ele>635.515</ele>
        <time>2021-05-22T09:12:50Z</time>
      </trkpt>
      <trkpt lat="43.53551" lon="2.48248">
        <ele>635.512</ele>
        <time>2021-05-22T09:12:52Z</time>
      </trkpt>
      <trkpt lat="43.53551" lon="2.48249">
        <ele>635.42</ele>
        <time>2021-05-22T09:12:54Z</time>
      </trkpt>
      <trkpt lat="43.53551" lon="2.4825">
        <ele>635.296</ele>
        <time>2021-05-22T09:12:56Z</time>
      </trkpt>
      <trkpt lat="43.53551" lon="2.4825">
        <ele>635.241</ele>
        <time>2021-05-22T09:12:58Z</time>
      </trkpt>
      <trkpt lat="43.5355" lon="2.48251">
        <ele>634.881</ele>
        <time>2021-05-22T09:13:00Z</time>
      </trkpt>
      <trkpt lat="43.5355" lon="2.48251">
        <ele>634.876</ele>
        <time>2021-05-22T09:13:02Z</time>
      </trkpt>
      <trkpt lat="43.5355" lon="2.48251">
        <ele>635.037</ele>
        <time>2021-05-22T09:13:04Z</time>
      </trkpt>
      <trkpt lat="43.5355" lon="2.48251">
        <ele>635.31</ele>
        <time>2021-05-22T09:13:06Z</time>
      </trkpt>
      <trkpt lat="43.5355" lon="2.48251">
        <ele>635.326</ele>
        <time>2021-05-22T09:13:08Z</time>
      </trkpt>
      <trkpt lat="43.5355" lon="2.48251">
        <ele>635.344</ele>
        <time>2021-05-22T09:13:10Z</time>
      </trkpt>
      <trkpt lat="43.5355" lon="2.48251">
        <ele>635.352</ele>
        <time>2021-05-22T09:13:12Z</time>
      </trkpt>
      <trkpt lat="43.5355" lon="2.48252">
        <ele>635.139</ele>
        <time>2021-05-22T09:13:14Z</time>
      </trkpt>
      <trkpt lat="43.53549" lon="2.48253">
        <ele>634.983</ele>
        <time>2021-05-22T09:13:16Z</time>
      </trkpt>
      <trkpt lat="43.53548" lon="2.48254">
        <ele>634.276</ele>
        <time>2021-05-22T09:13:18Z</time>
      </trkpt>
      <trkpt lat="43.53548" lon="2.48254">
        <ele>634.266</ele>
        <time>2021-05-22T09:13:20Z</time>
      </trkpt>
      <trkpt lat="43.53548" lon="2.48254">
        <ele>634.261</ele>
        <time>2021-05-22T09:13:22Z</time>
      </trkpt>
      <trkpt lat="43.53548" lon="2.48254">
        <ele>634.967</ele>
        <time>2021-05-22T09:13:24Z</time>
      </trkpt>
      <trkpt lat="43.53548" lon="2.48255">
        <ele>635.476</ele>
        <time>2021-05-22T09:13:26Z</time>
      </trkpt>
      <trkpt lat="43.53548" lon="2.48255">
        <ele>635.512</ele>
        <time>2021-05-22T09:13:28Z</time>
      </trkpt>
      <trkpt lat="43.53548" lon="2.48254">
        <ele>635.128</ele>
        <time>2021-05-22T09:13:30Z</time>
      </trkpt>
      <trkpt lat="43.53548" lon="2.48254">
        <ele>634.747</ele>
        <time>2021-05-22T09:13:32Z</time>
      </trkpt>
      <trkpt lat="43.53548" lon="2.48254">
        <ele>634.639</ele>
        <time>2021-05-22T09:13:34Z</time>
      </trkpt>
      <trkpt lat="43.53548" lon="2.48254">
        <ele>634.661</ele>
        <time>2021-05-22T09:13:36Z</time>
      </trkpt>
      <trkpt lat="43.53547" lon="2.48254">
        <ele>633.757</ele>
        <time>2021-05-22T09:13:38Z</time>
      </trkpt>
      <trkpt lat="43.53546" lon="2.48255">
        <ele>633.482</ele>
        <time>2021-05-22T09:13:40Z</time>
      </trkpt>
      <trkpt lat="43.53546" lon="2.48256">
        <ele>632.703</ele>
        <time>2021-05-22T09:13:42Z</time>
      </trkpt>
      <trkpt lat="43.53546" lon="2.48258">
        <ele>632.236</ele>
        <time>2021-05-22T09:13:44Z</time>
      </trkpt>
      <trkpt lat="43.53547" lon="2.48258">
        <ele>632.634</ele>
        <time>2021-05-22T09:13:46Z</time>
      </trkpt>
      <trkpt lat="43.53548" lon="2.48258">
        <ele>633.344</ele>
        <time>2021-05-22T09:13:48Z</time>
      </trkpt>
      <trkpt lat="43.53549" lon="2.48258">
        <ele>633.155</ele>
        <time>2021-05-22T09:13:50Z</time>
      </trkpt>
      <trkpt lat="43.53551" lon="2.48258">
        <ele>631.624</ele>
        <time>2021-05-22T09:13:52Z</time>
      </trkpt>
      <trkpt lat="43.53553" lon="2.48259">
        <ele>631.715</ele>
        <time>2021-05-22T09:13:54Z</time>
      </trkpt>
      <trkpt lat="43.53554" lon="2.4826">
        <ele>631.182</ele>
        <time>2021-05-22T09:13:56Z</time>
      </trkpt>
      <trkpt lat="43.53556" lon="2.4826">
        <ele>632.416</ele>
        <time>2021-05-22T09:13:58Z</time>
      </trkpt>
      <trkpt lat="43.53557" lon="2.4826">
        <ele>632.692</ele>
        <time>2021-05-22T09:14:00Z</time>
      </trkpt>
      <trkpt lat="43.53558" lon="2.48262">
        <ele>632.697</ele>
        <time>2021-05-22T09:14:02Z</time>
      </trkpt>
      <trkpt lat="43.5356" lon="2.48263">
        <ele>632.694</ele>
        <time>2021-05-22T09:14:04Z</time>
      </trkpt>
      <trkpt lat="43.5356" lon="2.48264">
        <ele>630.638</ele>
        <time>2021-05-22T09:14:06Z</time>
      </trkpt>
      <trkpt lat="43.53561" lon="2.48263">
        <ele>627.708</ele>
        <time>2021-05-22T09:14:08Z</time>
      </trkpt>
      <trkpt lat="43.53562" lon="2.48264">
        <ele>626.442</ele>
        <time>2021-05-22T09:14:10Z</time>
      </trkpt>
      <trkpt lat="43.53564" lon="2.48267">
        <ele>626.049</ele>
        <time>2021-05-22T09:14:12Z</time>
      </trkpt>
      <trkpt lat="43.53566" lon="2.48269">
        <ele>627.411</ele>
        <time>2021-05-22T09:14:14Z</time>
      </trkpt>
      <trkpt lat="43.53567" lon="2.48271">
        <ele>628.436</ele>
        <time>2021-05-22T09:14:16Z</time>
      </trkpt>
      <trkpt lat="43.53569" lon="2.48273">
        <ele>629.246</ele>
        <time>2021-05-22T09:14:18Z</time>
      </trkpt>
      <trkpt lat="43.53571" lon="2.48274">
        <ele>629.277</ele>
        <time>2021-05-22T09:14:20Z</time>
      </trkpt>
      <trkpt lat="43.53571" lon="2.48275">
        <ele>627.526</ele>
        <time>2021-05-22T09:14:22Z</time>
      </trkpt>
      <trkpt lat="43.53573" lon="2.48276">
        <ele>629.381</ele>
        <time>2021-05-22T09:14:24Z</time>
      </trkpt>
      <trkpt lat="43.53574" lon="2.48278">
        <ele>629.656</ele>
        <time>2021-05-22T09:14:26Z</time>
      </trkpt>
      <trkpt lat="43.53575" lon="2.4828">
        <ele>629.629</ele>
        <time>2021-05-22T09:14:28Z</time>
      </trkpt>
      <trkpt lat="43.53577" lon="2.48282">
        <ele>629.953</ele>
        <time>2021-05-22T09:14:30Z</time>
      </trkpt>
      <trkpt lat="43.53578" lon="2.48284">
        <ele>629.619</ele>
        <time>2021-05-22T09:14:32Z</time>
      </trkpt>
      <trkpt lat="43.53579" lon="2.48286">
        <ele>629.929</ele>
        <time>2021-05-22T09:14:34Z</time>
      </trkpt>
      <trkpt lat="43.5358" lon="2.48286">
        <ele>630.791</ele>
        <time>2021-05-22T09:14:36Z</time>
      </trkpt>
      <trkpt lat="43.53582" lon="2.48288">
        <ele>633.163</ele>
        <time>2021-05-22T09:14:38Z</time>
      </trkpt>
      <trkpt lat="43.53583" lon="2.48289">
        <ele>634.493</ele>
        <time>2021-05-22T09:14:40Z</time>
      </trkpt>
      <trkpt lat="43.53585" lon="2.48291">
        <ele>635.322</ele>
        <time>2021-05-22T09:14:42Z</time>
      </trkpt>
      <trkpt lat="43.53587" lon="2.48293">
        <ele>635.308</ele>
        <time>2021-05-22T09:14:44Z</time>
      </trkpt>
      <trkpt lat="43.53588" lon="2.48294">
        <ele>635.411</ele>
        <time>2021-05-22T09:14:46Z</time>
      </trkpt>
      <trkpt lat="43.5359" lon="2.48295">
        <ele>635.979</ele>
        <time>2021-05-22T09:14:48Z</time>
      </trkpt>
      <trkpt lat="43.53591" lon="2.48296">
        <ele>635.163</ele>
        <time>2021-05-22T09:14:50Z</time>
      </trkpt>
      <trkpt lat="43.53591" lon="2.48297">
        <ele>634.512</ele>
        <time>2021-05-22T09:14:52Z</time>
      </trkpt>
      <trkpt lat="43.53593" lon="2.483">
        <ele>635.441</ele>
        <time>2021-05-22T09:14:54Z</time>
      </trkpt>
      <trkpt lat="43.53594" lon="2.48302">
        <ele>632.979</ele>
        <time>2021-05-22T09:14:56Z</time>
      </trkpt>
      <trkpt lat="43.53595" lon="2.48303">
        <ele>634.15</ele>
        <time>2021-05-22T09:14:58Z</time>
      </trkpt>
      <trkpt lat="43.53597" lon="2.48305">
        <ele>633.66</ele>
        <time>2021-05-22T09:15:00Z</time>
      </trkpt>
      <trkpt lat="43.53598" lon="2.48306">
        <ele>633.102</ele>
        <time>2021-05-22T09:15:02Z</time>
      </trkpt>
      <trkpt lat="43.53599" lon="2.48307">
        <ele>632.076</ele>
        <time>2021-05-22T09:15:04Z</time>
      </trkpt>
      <trkpt lat="43.53599" lon="2.48309">
        <ele>631.602</ele>
        <time>2021-05-22T09:15:06Z</time>
      </trkpt>
      <trkpt lat="43.53601" lon="2.48311">
        <ele>631.711</ele>
        <time>2021-05-22T09:15:08Z</time>
      </trkpt>
      <trkpt lat="43.53601" lon="2.48313">
        <ele>631.379</ele>
        <time>2021-05-22T09:15:10Z</time>
      </trkpt>
      <trkpt lat="43.53603" lon="2.48316">
        <ele>633.053</ele>
        <time>2021-05-22T09:15:12Z</time>
      </trkpt>
      <trkpt lat="43.53603" lon="2.48319">
        <ele>633.86</ele>
        <time>2021-05-22T09:15:14Z</time>
      </trkpt>
      <trkpt lat="43.53603" lon="2.48321">
        <ele>631.709</ele>
        <time>2021-05-22T09:15:16Z</time>
      </trkpt>
      <trkpt lat="43.53604" lon="2.48323">
        <ele>633.362</ele>
        <time>2021-05-22T09:15:18Z</time>
      </trkpt>
      <trkpt lat="43.53603" lon="2.48325">
        <ele>631.514</ele>
        <time>2021-05-22T09:15:20Z</time>
      </trkpt>
      <trkpt lat="43.53603" lon="2.48328">
        <ele>631.648</ele>
        <time>2021-05-22T09:15:22Z</time>
      </trkpt>
      <trkpt lat="43.53604" lon="2.4833">
        <ele>631.76</ele>
        <time>2021-05-22T09:15:24Z</time>
      </trkpt>
      <trkpt lat="43.53605" lon="2.48331">
        <ele>631.043</ele>
        <time>2021-05-22T09:15:26Z</time>
      </trkpt>
      <trkpt lat="43.53606" lon="2.48332">
        <ele>630.655</ele>
        <time>2021-05-22T09:15:28Z</time>
      </trkpt>
      <trkpt lat="43.53607" lon="2.48334">
        <ele>630.515</ele>
        <time>2021-05-22T09:15:30Z</time>
      </trkpt>
      <trkpt lat="43.53608" lon="2.48336">
        <ele>631.604</ele>
        <time>2021-05-22T09:15:32Z</time>
      </trkpt>
      <trkpt lat="43.53608" lon="2.48338">
        <ele>631.54</ele>
        <time>2021-05-22T09:15:34Z</time>
      </trkpt>
      <trkpt lat="43.53609" lon="2.4834">
        <ele>631.917</ele>
        <time>2021-05-22T09:15:36Z</time>
      </trkpt>
      <trkpt lat="43.53609" lon="2.48342">
        <ele>629.984</ele>
        <time>2021-05-22T09:15:38Z</time>
      </trkpt>
      <trkpt lat="43.5361" lon="2.48343">
        <ele>628.835</ele>
        <time>2021-05-22T09:15:40Z</time>
      </trkpt>
      <trkpt lat="43.53611" lon="2.48345">
        <ele>628.745</ele>
        <time>2021-05-22T09:15:42Z</time>
      </trkpt>
      <trkpt lat="43.53611" lon="2.48345">
        <ele>628.621</ele>
        <time>2021-05-22T09:15:44Z</time>
      </trkpt>
      <trkpt lat="43.53612" lon="2.48346">
        <ele>626.949</ele>
        <time>2021-05-22T09:15:46Z</time>
      </trkpt>
      <trkpt lat="43.53612" lon="2.48346">
        <ele>626.429</ele>
        <time>2021-05-22T09:15:48Z</time>
      </trkpt>
      <trkpt lat="43.53613" lon="2.48347">
        <ele>626.177</ele>
        <time>2021-05-22T09:15:50Z</time>
      </trkpt>
      <trkpt lat="43.53614" lon="2.48348">
        <ele>625.248</ele>
        <time>2021-05-22T09:15:52Z</time>
      </trkpt>
      <trkpt lat="43.53614" lon="2.4835">
        <ele>624.857</ele>
        <time>2021-05-22T09:15:54Z</time>
      </trkpt>
      <trkpt lat="43.53615" lon="2.48352">
        <ele>625.813</ele>
        <time>2021-05-22T09:15:56Z</time>
      </trkpt>
      <trkpt lat="43.53615" lon="2.48355">
        <ele>626.004</ele>
        <time>2021-05-22T09:15:58Z</time>
      </trkpt>
      <trkpt lat="43.53615" lon="2.48357">
        <ele>626.894</ele>
        <time>2021-05-22T09:16:00Z</time>
      </trkpt>
      <trkpt lat="43.53617" lon="2.48358">
        <ele>625.692</ele>
        <time>2021-05-22T09:16:02Z</time>
      </trkpt>
      <trkpt lat="43.53617" lon="2.4836">
        <ele>625.905</ele>
        <time>2021-05-22T09:16:04Z</time>
      </trkpt>
      <trkpt lat="43.53618" lon="2.48363">
        <ele>626.434</ele>
        <time>2021-05-22T09:16:06Z</time>
      </trkpt>
      <trkpt lat="43.53618" lon="2.48365">
        <ele>625.886</ele>
        <time>2021-05-22T09:16:08Z</time>
      </trkpt>
      <trkpt lat="43.53619" lon="2.48367">
        <ele>624.553</ele>
        <time>2021-05-22T09:16:10Z</time>
      </trkpt>
      <trkpt lat="43.53621" lon="2.4837">
        <ele>624.266</ele>
        <time>2021-05-22T09:16:12Z</time>
      </trkpt>
      <trkpt lat="43.53622" lon="2.48372">
        <ele>623.721</ele>
        <time>2021-05-22T09:16:14Z</time>
      </trkpt>
      <trkpt lat="43.53623" lon="2.48375">
        <ele>623.814</ele>
        <time>2021-05-22T09:16:16Z</time>
      </trkpt>
      <trkpt lat="43.53625" lon="2.48377">
        <ele>623.636</ele>
        <time>2021-05-22T09:16:18Z</time>
      </trkpt>
      <trkpt lat="43.53626" lon="2.48378">
        <ele>624.217</ele>
        <time>2021-05-22T09:16:20Z</time>
      </trkpt>
      <trkpt lat="43.53629" lon="2.48379">
        <ele>624.882</ele>
        <time>2021-05-22T09:16:22Z</time>
      </trkpt>
      <trkpt lat="43.53631" lon="2.4838">
        <ele>625.643</ele>
        <time>2021-05-22T09:16:24Z</time>
      </trkpt>
      <trkpt lat="43.53633" lon="2.4838">
        <ele>626.014</ele>
        <time>2021-05-22T09:16:26Z</time>
      </trkpt>
      <trkpt lat="43.53634" lon="2.48382">
        <ele>625.027</ele>
        <time>2021-05-22T09:16:28Z</time>
      </trkpt>
      <trkpt lat="43.53635" lon="2.48383">
        <ele>624.703</ele>
        <time>2021-05-22T09:16:30Z</time>
      </trkpt>
      <trkpt lat="43.53637" lon="2.48385">
        <ele>624.6</ele>
        <time>2021-05-22T09:16:32Z</time>
      </trkpt>
      <trkpt lat="43.53639" lon="2.48387">
        <ele>624.158</ele>
        <time>2021-05-22T09:16:34Z</time>
      </trkpt>
      <trkpt lat="43.5364" lon="2.48389">
        <ele>624.231</ele>
        <time>2021-05-22T09:16:36Z</time>
      </trkpt>
      <trkpt lat="43.53642" lon="2.4839">
        <ele>625.097</ele>
        <time>2021-05-22T09:16:38Z</time>
      </trkpt>
      <trkpt lat="43.53644" lon="2.48391">
        <ele>624.456</ele>
        <time>2021-05-22T09:16:40Z</time>
      </trkpt>
      <trkpt lat="43.53646" lon="2.48393">
        <ele>624.892</ele>
        <time>2021-05-22T09:16:42Z</time>
      </trkpt>
      <trkpt lat="43.53648" lon="2.48395">
        <ele>625.049</ele>
        <time>2021-05-22T09:16:44Z</time>
      </trkpt>
      <trkpt lat="43.5365" lon="2.48395">
        <ele>625.647</ele>
        <time>2021-05-22T09:16:46Z</time>
      </trkpt>
      <trkpt lat="43.53651" lon="2.48395">
        <ele>626.28</ele>
        <time>2021-05-22T09:16:48Z</time>
      </trkpt>
      <trkpt lat="43.53654" lon="2.48394">
        <ele>625.072</ele>
        <time>2021-05-22T09:16:50Z</time>
      </trkpt>
      <trkpt lat="43.53655" lon="2.48395">
        <ele>624.873</ele>
        <time>2021-05-22T09:16:52Z</time>
      </trkpt>
      <trkpt lat="43.53657" lon="2.48396">
        <ele>625.223</ele>
        <time>2021-05-22T09:16:54Z</time>
      </trkpt>
      <trkpt lat="43.53658" lon="2.48397">
        <ele>623.869</ele>
        <time>2021-05-22T09:16:56Z</time>
      </trkpt>
      <trkpt lat="43.5366" lon="2.48398">
        <ele>624.382</ele>
        <time>2021-05-22T09:16:58Z</time>
      </trkpt>
      <trkpt lat="43.53661" lon="2.48398">
        <ele>623.172</ele>
        <time>2021-05-22T09:17:00Z</time>
      </trkpt>
      <trkpt lat="43.53663" lon="2.48398">
        <ele>622.972</ele>
        <time>2021-05-22T09:17:02Z</time>
      </trkpt>
      <trkpt lat="43.53664" lon="2.48398">
        <ele>622.59</ele>
        <time>2021-05-22T09:17:04Z</time>
      </trkpt>
      <trkpt lat="43.53665" lon="2.48397">
        <ele>622.711</ele>
        <time>2021-05-22T09:17:06Z</time>
      </trkpt>
      <trkpt lat="43.53666" lon="2.48397">
        <ele>622.006</ele>
        <time>2021-05-22T09:17:08Z</time>
      </trkpt>
      <trkpt lat="43.53668" lon="2.48397">
        <ele>622.524</ele>
        <time>2021-05-22T09:17:10Z</time>
      </trkpt>
      <trkpt lat="43.5367" lon="2.48398">
        <ele>624.471</ele>
        <time>2021-05-22T09:17:12Z</time>
      </trkpt>
      <trkpt lat="43.53672" lon="2.48397">
        <ele>624.558</ele>
        <time>2021-05-22T09:17:14Z</time>
      </trkpt>
      <trkpt lat="43.53673" lon="2.48396">
        <ele>625.692</ele>
        <time>2021-05-22T09:17:16Z</time>
      </trkpt>
      <trkpt lat="43.53675" lon="2.48397">
        <ele>627.965</ele>
        <time>2021-05-22T09:17:18Z</time>
      </trkpt>
      <trkpt lat="43.53676" lon="2.48397">
        <ele>628.818</ele>
        <time>2021-05-22T09:17:20Z</time>
      </trkpt>
      <trkpt lat="43.53678" lon="2.48398">
        <ele>630.839</ele>
        <time>2021-05-22T09:17:22Z</time>
      </trkpt>
      <trkpt lat="43.53679" lon="2.48398">
        <ele>629.254</ele>
        <time>2021-05-22T09:17:24Z</time>
      </trkpt>
      <trkpt lat="43.5368" lon="2.48398">
        <ele>628.721</ele>
        <time>2021-05-22T09:17:26Z</time>
      </trkpt>
      <trkpt lat="43.53681" lon="2.48399">
        <ele>627.617</ele>
        <time>2021-05-22T09:17:28Z</time>
      </trkpt>
      <trkpt lat="43.53683" lon="2.48399">
        <ele>626.156</ele>
        <time>2021-05-22T09:17:30Z</time>
      </trkpt>
      <trkpt lat="43.53684" lon="2.484">
        <ele>626.383</ele>
        <time>2021-05-22T09:17:32Z</time>
      </trkpt>
      <trkpt lat="43.53686" lon="2.48399">
        <ele>626.576</ele>
        <time>2021-05-22T09:17:34Z</time>
      </trkpt>
      <trkpt lat="43.53688" lon="2.48401">
        <ele>628.525</ele>
        <time>2021-05-22T09:17:36Z</time>
      </trkpt>
      <trkpt lat="43.53688" lon="2.48401">
        <ele>627.431</ele>
        <time>2021-05-22T09:17:38Z</time>
      </trkpt>
      <trkpt lat="43.53688" lon="2.484">
        <ele>627.022</ele>
        <time>2021-05-22T09:17:40Z</time>
      </trkpt>
      <trkpt lat="43.53688" lon="2.484">
        <ele>627.005</ele>
        <time>2021-05-22T09:17:42Z</time>
      </trkpt>
      <trkpt lat="43.53688" lon="2.484">
        <ele>627.006</ele>
        <time>2021-05-22T09:17:44Z</time>
      </trkpt>
      <trkpt lat="43.53688" lon="2.484">
        <ele>627.674</ele>
        <time>2021-05-22T09:17:46Z</time>
      </trkpt>
      <trkpt lat="43.53688" lon="2.484">
        <ele>627.269</ele>
        <time>2021-05-22T09:17:48Z</time>
      </trkpt>
      <trkpt lat="43.53689" lon="2.48398">
        <ele>626.395</ele>
        <time>2021-05-22T09:17:50Z</time>
      </trkpt>
      <trkpt lat="43.53689" lon="2.48396">
        <ele>626.438</ele>
        <time>2021-05-22T09:17:52Z</time>
      </trkpt>
      <trkpt lat="43.53689" lon="2.48396">
        <ele>626.459</ele>
        <time>2021-05-22T09:17:54Z</time>
      </trkpt>
      <trkpt lat="43.53689" lon="2.48395">
        <ele>626.713</ele>
        <time>2021-05-22T09:17:56Z</time>
      </trkpt>
      <trkpt lat="43.53689" lon="2.48395">
        <ele>626.729</ele>
        <time>2021-05-22T09:17:58Z</time>
      </trkpt>
      <trkpt lat="43.5369" lon="2.48396">
        <ele>626.469</ele>
        <time>2021-05-22T09:18:00Z</time>
      </trkpt>
      <trkpt lat="43.53691" lon="2.48397">
        <ele>628.702</ele>
        <time>2021-05-22T09:18:02Z</time>
      </trkpt>
      <trkpt lat="43.53693" lon="2.48399">
        <ele>628.991</ele>
        <time>2021-05-22T09:18:04Z</time>
      </trkpt>
      <trkpt lat="43.53696" lon="2.484">
        <ele>629.63</ele>
        <time>2021-05-22T09:18:06Z</time>
      </trkpt>
      <trkpt lat="43.53698" lon="2.48401">
        <ele>630.373</ele>
        <time>2021-05-22T09:18:08Z</time>
      </trkpt>
      <trkpt lat="43.53699" lon="2.48402">
        <ele>631.616</ele>
        <time>2021-05-22T09:18:10Z</time>
      </trkpt>
      <trkpt lat="43.53702" lon="2.48403">
        <ele>632.861</ele>
        <time>2021-05-22T09:18:12Z</time>
      </trkpt>
      <trkpt lat="43.53703" lon="2.48403">
        <ele>633.339</ele>
        <time>2021-05-22T09:18:14Z</time>
      </trkpt>
      <trkpt lat="43.53704" lon="2.48403">
        <ele>632.593</ele>
        <time>2021-05-22T09:18:16Z</time>
      </trkpt>
      <trkpt lat="43.53705" lon="2.48402">
        <ele>633.724</ele>
        <time>2021-05-22T09:18:18Z</time>
      </trkpt>
      <trkpt lat="43.53706" lon="2.48401">
        <ele>634.487</ele>
        <time>2021-05-22T09:18:20Z</time>
      </trkpt>
      <trkpt lat="43.53708" lon="2.48401">
        <ele>636.127</ele>
        <time>2021-05-22T09:18:22Z</time>
      </trkpt>
      <trkpt lat="43.53709" lon="2.48402">
        <ele>636.478</ele>
        <time>2021-05-22T09:18:24Z</time>
      </trkpt>
      <trkpt lat="43.5371" lon="2.48401">
        <ele>636.381</ele>
        <time>2021-05-22T09:18:26Z</time>
      </trkpt>
      <trkpt lat="43.5371" lon="2.484">
        <ele>636.255</ele>
        <time>2021-05-22T09:18:28Z</time>
      </trkpt>
      <trkpt lat="43.53709" lon="2.484">
        <ele>636.342</ele>
        <time>2021-05-22T09:18:30Z</time>
      </trkpt>
      <trkpt lat="43.5371" lon="2.484">
        <ele>636.697</ele>
        <time>2021-05-22T09:18:32Z</time>
      </trkpt>
      <trkpt lat="43.53709" lon="2.484">
        <ele>634.658</ele>
        <time>2021-05-22T09:18:34Z</time>
      </trkpt>
      <trkpt lat="43.53709" lon="2.48399">
        <ele>633.325</ele>
        <time>2021-05-22T09:18:36Z</time>
      </trkpt>
      <trkpt lat="43.5371" lon="2.48398">
        <ele>633.061</ele>
        <time>2021-05-22T09:18:38Z</time>
      </trkpt>
      <trkpt lat="43.5371" lon="2.48399">
        <ele>633.029</ele>
        <time>2021-05-22T09:18:40Z</time>
      </trkpt>
      <trkpt lat="43.5371" lon="2.48399">
        <ele>633.034</ele>
        <time>2021-05-22T09:18:42Z</time>
      </trkpt>
      <trkpt lat="43.53711" lon="2.48399">
        <ele>633.207</ele>
        <time>2021-05-22T09:18:44Z</time>
      </trkpt>
      <trkpt lat="43.53711" lon="2.484">
        <ele>633.394</ele>
        <time>2021-05-22T09:18:46Z</time>
      </trkpt>
      <trkpt lat="43.5371" lon="2.48399">
        <ele>631.019</ele>
        <time>2021-05-22T09:18:48Z</time>
      </trkpt>
      <trkpt lat="43.53709" lon="2.48399">
        <ele>631.372</ele>
        <time>2021-05-22T09:18:50Z</time>
      </trkpt>
      <trkpt lat="43.5371" lon="2.48398">
        <ele>631.157</ele>
        <time>2021-05-22T09:18:52Z</time>
      </trkpt>
      <trkpt lat="43.53709" lon="2.48395">
        <ele>630.452</ele>
        <time>2021-05-22T09:18:54Z</time>
      </trkpt>
      <trkpt lat="43.53709" lon="2.48395">
        <ele>631.069</ele>
        <time>2021-05-22T09:18:56Z</time>
      </trkpt>
      <trkpt lat="43.5371" lon="2.48395">
        <ele>631.417</ele>
        <time>2021-05-22T09:18:58Z</time>
      </trkpt>
      <trkpt lat="43.5371" lon="2.48394">
        <ele>631.179</ele>
        <time>2021-05-22T09:19:00Z</time>
      </trkpt>
      <trkpt lat="43.53711" lon="2.48395">
        <ele>633.871</ele>
        <time>2021-05-22T09:19:02Z</time>
      </trkpt>
      <trkpt lat="43.53711" lon="2.48395">
        <ele>633.893</ele>
        <time>2021-05-22T09:19:04Z</time>
      </trkpt>
      <trkpt lat="43.5371" lon="2.48395">
        <ele>634.954</ele>
        <time>2021-05-22T09:19:06Z</time>
      </trkpt>
      <trkpt lat="43.5371" lon="2.48394">
        <ele>635.225</ele>
        <time>2021-05-22T09:19:08Z</time>
      </trkpt>
      <trkpt lat="43.53709" lon="2.48393">
        <ele>633.967</ele>
        <time>2021-05-22T09:19:10Z</time>
      </trkpt>
      <trkpt lat="43.53708" lon="2.48392">
        <ele>634.748</ele>
        <time>2021-05-22T09:19:12Z</time>
      </trkpt>
      <trkpt lat="43.53708" lon="2.48391">
        <ele>635.373</ele>
        <time>2021-05-22T09:19:13Z</time>
      </trkpt>
      <trkpt lat="43.53707" lon="2.48389">
        <ele>634.648</ele>
        <time>2021-05-22T09:19:16Z</time>
      </trkpt>
      <trkpt lat="43.53707" lon="2.48388">
        <ele>635.593</ele>
        <time>2021-05-22T09:19:18Z</time>
      </trkpt>
      <trkpt lat="43.53706" lon="2.48388">
        <ele>636.589</ele>
        <time>2021-05-22T09:19:20Z</time>
      </trkpt>
      <trkpt lat="43.53706" lon="2.48388">
        <ele>636.612</ele>
        <time>2021-05-22T09:19:22Z</time>
      </trkpt>
      <trkpt lat="43.53706" lon="2.48388">
        <ele>636.563</ele>
        <time>2021-05-22T09:19:24Z</time>
      </trkpt>
      <trkpt lat="43.53705" lon="2.48387">
        <ele>636.714</ele>
        <time>2021-05-22T09:19:26Z</time>
      </trkpt>
      <trkpt lat="43.53704" lon="2.48386">
        <ele>635.685</ele>
        <time>2021-05-22T09:19:28Z</time>
      </trkpt>
      <trkpt lat="43.53703" lon="2.48386">
        <ele>636.39</ele>
        <time>2021-05-22T09:19:30Z</time>
      </trkpt>
      <trkpt lat="43.53701" lon="2.48386">
        <ele>634.117</ele>
        <time>2021-05-22T09:19:32Z</time>
      </trkpt>
      <trkpt lat="43.53699" lon="2.48387">
        <ele>633.828</ele>
        <time>2021-05-22T09:19:34Z</time>
      </trkpt>
      <trkpt lat="43.53698" lon="2.48387">
        <ele>631.795</ele>
        <time>2021-05-22T09:19:36Z</time>
      </trkpt>
      <trkpt lat="43.53699" lon="2.48385">
        <ele>633.059</ele>
        <time>2021-05-22T09:19:38Z</time>
      </trkpt>
      <trkpt lat="43.53699" lon="2.48384">
        <ele>633.043</ele>
        <time>2021-05-22T09:19:40Z</time>
      </trkpt>
      <trkpt lat="43.53699" lon="2.48384">
        <ele>633.193</ele>
        <time>2021-05-22T09:19:42Z</time>
      </trkpt>
      <trkpt lat="43.53699" lon="2.48384">
        <ele>633.23</ele>
        <time>2021-05-22T09:19:44Z</time>
      </trkpt>
      <trkpt lat="43.53699" lon="2.48384">
        <ele>633.203</ele>
        <time>2021-05-22T09:19:46Z</time>
      </trkpt>
      <trkpt lat="43.53698" lon="2.48384">
        <ele>633.328</ele>
        <time>2021-05-22T09:19:48Z</time>
      </trkpt>
      <trkpt lat="43.53698" lon="2.48383">
        <ele>633.453</ele>
        <time>2021-05-22T09:19:50Z</time>
      </trkpt>
      <trkpt lat="43.53697" lon="2.48383">
        <ele>632.674</ele>
        <time>2021-05-22T09:19:52Z</time>
      </trkpt>
      <trkpt lat="43.53697" lon="2.48383">
        <ele>632.706</ele>
        <time>2021-05-22T09:19:54Z</time>
      </trkpt>
      <trkpt lat="43.53697" lon="2.48382">
        <ele>632.548</ele>
        <time>2021-05-22T09:19:56Z</time>
      </trkpt>
      <trkpt lat="43.53697" lon="2.48382">
        <ele>632.566</ele>
        <time>2021-05-22T09:19:58Z</time>
      </trkpt>
      <trkpt lat="43.53697" lon="2.48382">
        <ele>632.576</ele>
        <time>2021-05-22T09:20:00Z</time>
      </trkpt>
      <trkpt lat="43.53697" lon="2.48382">
        <ele>632.568</ele>
        <time>2021-05-22T09:20:02Z</time>
      </trkpt>
      <trkpt lat="43.53697" lon="2.48382">
        <ele>632.554</ele>
        <time>2021-05-22T09:20:04Z</time>
      </trkpt>
      <trkpt lat="43.53697" lon="2.48382">
        <ele>632.551</ele>
        <time>2021-05-22T09:20:06Z</time>
      </trkpt>
      <trkpt lat="43.53698" lon="2.48382">
        <ele>633.038</ele>
        <time>2021-05-22T09:20:08Z</time>
      </trkpt>
      <trkpt lat="43.53698" lon="2.48382">
        <ele>632.983</ele>
        <time>2021-05-22T09:20:10Z</time>
      </trkpt>
      <trkpt lat="43.53698" lon="2.48382">
        <ele>634.151</ele>
        <time>2021-05-22T09:20:12Z</time>
      </trkpt>
      <trkpt lat="43.53699" lon="2.48384">
        <ele>634.854</ele>
        <time>2021-05-22T09:20:14Z</time>
      </trkpt>
      <trkpt lat="43.537" lon="2.48385">
        <ele>635.036</ele>
        <time>2021-05-22T09:20:16Z</time>
      </trkpt>
      <trkpt lat="43.53701" lon="2.48385">
        <ele>636.635</ele>
        <time>2021-05-22T09:20:18Z</time>
      </trkpt>
      <trkpt lat="43.53702" lon="2.48385">
        <ele>636.504</ele>
        <time>2021-05-22T09:20:20Z</time>
      </trkpt>
      <trkpt lat="43.53703" lon="2.48385">
        <ele>636.134</ele>
        <time>2021-05-22T09:20:22Z</time>
      </trkpt>
      <trkpt lat="43.53703" lon="2.48384">
        <ele>635.175</ele>
        <time>2021-05-22T09:20:24Z</time>
      </trkpt>
      <trkpt lat="43.53702" lon="2.48385">
        <ele>634.929</ele>
        <time>2021-05-22T09:20:26Z</time>
      </trkpt>
      <trkpt lat="43.53702" lon="2.48385">
        <ele>634.844</ele>
        <time>2021-05-22T09:20:28Z</time>
      </trkpt>
      <trkpt lat="43.53702" lon="2.48385">
        <ele>634.864</ele>
        <time>2021-05-22T09:20:30Z</time>
      </trkpt>
      <trkpt lat="43.53702" lon="2.48385">
        <ele>634.858</ele>
        <time>2021-05-22T09:20:32Z</time>
      </trkpt>
      <trkpt lat="43.53702" lon="2.48385">
        <ele>634.857</ele>
        <time>2021-05-22T09:20:34Z</time>
      </trkpt>
      <trkpt lat="43.53702" lon="2.48385">
        <ele>634.842</ele>
        <time>2021-05-22T09:20:36Z</time>
      </trkpt>
      <trkpt lat="43.53702" lon="2.48385">
        <ele>634.851</ele>
        <time>2021-05-22T09:20:38Z</time>
      </trkpt>
      <trkpt lat="43.53702" lon="2.48385">
        <ele>634.052</ele>
        <time>2021-05-22T09:20:40Z</time>
      </trkpt>
      <trkpt lat="43.53702" lon="2.48385">
        <ele>634.053</ele>
        <time>2021-05-22T09:20:42Z</time>
      </trkpt>
      <trkpt lat="43.53702" lon="2.48385">
        <ele>634.056</ele>
        <time>2021-05-22T09:20:44Z</time>
      </trkpt>
      <trkpt lat="43.53702" lon="2.48385">
        <ele>634.051</ele>
        <time>2021-05-22T09:20:46Z</time>
      </trkpt>
      <trkpt lat="43.53702" lon="2.48385">
        <ele>634.035</ele>
        <time>2021-05-22T09:20:48Z</time>
      </trkpt>
      <trkpt lat="43.53702" lon="2.48385">
        <ele>634.005</ele>
        <time>2021-05-22T09:20:50Z</time>
      </trkpt>
      <trkpt lat="43.53702" lon="2.48385">
        <ele>634.007</ele>
        <time>2021-05-22T09:20:52Z</time>
      </trkpt>
      <trkpt lat="43.53702" lon="2.48385">
        <ele>634.013</ele>
        <time>2021-05-22T09:20:54Z</time>
      </trkpt>
      <trkpt lat="43.53702" lon="2.48384">
        <ele>634.059</ele>
        <time>2021-05-22T09:20:56Z</time>
      </trkpt>
      <trkpt lat="43.53702" lon="2.48385">
        <ele>634.457</ele>
        <time>2021-05-22T09:20:58Z</time>
      </trkpt>
      <trkpt lat="43.53702" lon="2.48384">
        <ele>633.875</ele>
        <time>2021-05-22T09:21:00Z</time>
      </trkpt>
      <trkpt lat="43.53702" lon="2.48384">
        <ele>633.869</ele>
        <time>2021-05-22T09:21:02Z</time>
      </trkpt>
      <trkpt lat="43.53702" lon="2.48385">
        <ele>635.11</ele>
        <time>2021-05-22T09:21:04Z</time>
      </trkpt>
      <trkpt lat="43.53702" lon="2.48385">
        <ele>635.133</ele>
        <time>2021-05-22T09:21:06Z</time>
      </trkpt>
      <trkpt lat="43.53702" lon="2.48385">
        <ele>635.21</ele>
        <time>2021-05-22T09:21:08Z</time>
      </trkpt>
      <trkpt lat="43.53702" lon="2.48385">
        <ele>635.252</ele>
        <time>2021-05-22T09:21:10Z</time>
      </trkpt>
      <trkpt lat="43.53702" lon="2.48385">
        <ele>635.264</ele>
        <time>2021-05-22T09:21:12Z</time>
      </trkpt>
      <trkpt lat="43.53702" lon="2.48386">
        <ele>635.322</ele>
        <time>2021-05-22T09:21:14Z</time>
      </trkpt>
      <trkpt lat="43.53702" lon="2.48386">
        <ele>635.352</ele>
        <time>2021-05-22T09:21:16Z</time>
      </trkpt>
      <trkpt lat="43.53702" lon="2.48386">
        <ele>636.037</ele>
        <time>2021-05-22T09:21:18Z</time>
      </trkpt>
      <trkpt lat="43.53702" lon="2.48386">
        <ele>636.098</ele>
        <time>2021-05-22T09:21:20Z</time>
      </trkpt>
      <trkpt lat="43.53702" lon="2.48386">
        <ele>636.111</ele>
        <time>2021-05-22T09:21:22Z</time>
      </trkpt>
      <trkpt lat="43.53702" lon="2.48387">
        <ele>636.315</ele>
        <time>2021-05-22T09:21:24Z</time>
      </trkpt>
      <trkpt lat="43.53702" lon="2.48387">
        <ele>636.319</ele>
        <time>2021-05-22T09:21:26Z</time>
      </trkpt>
      <trkpt lat="43.53702" lon="2.48387">
        <ele>636.348</ele>
        <time>2021-05-22T09:21:28Z</time>
      </trkpt>
      <trkpt lat="43.53702" lon="2.48387">
        <ele>636.349</ele>
        <time>2021-05-22T09:21:30Z</time>
      </trkpt>
      <trkpt lat="43.53702" lon="2.48387">
        <ele>636.363</ele>
        <time>2021-05-22T09:21:32Z</time>
      </trkpt>
      <trkpt lat="43.53702" lon="2.48387">
        <ele>636.34</ele>
        <time>2021-05-22T09:21:34Z</time>
      </trkpt>
      <trkpt lat="43.53702" lon="2.48387">
        <ele>636.336</ele>
        <time>2021-05-22T09:21:36Z</time>
      </trkpt>
      <trkpt lat="43.53702" lon="2.48387">
        <ele>636.153</ele>
        <time>2021-05-22T09:21:38Z</time>
      </trkpt>
      <trkpt lat="43.53702" lon="2.48387">
        <ele>636.142</ele>
        <time>2021-05-22T09:21:40Z</time>
      </trkpt>
      <trkpt lat="43.53702" lon="2.48387">
        <ele>636.159</ele>
        <time>2021-05-22T09:21:42Z</time>
      </trkpt>
      <trkpt lat="43.53702" lon="2.48387">
        <ele>636.166</ele>
        <time>2021-05-22T09:21:44Z</time>
      </trkpt>
      <trkpt lat="43.53702" lon="2.48387">
        <ele>636.162</ele>
        <time>2021-05-22T09:21:46Z</time>
      </trkpt>
      <trkpt lat="43.53702" lon="2.48387">
        <ele>636.138</ele>
        <time>2021-05-22T09:21:48Z</time>
      </trkpt>
      <trkpt lat="43.53702" lon="2.48387">
        <ele>636.136</ele>
        <time>2021-05-22T09:21:50Z</time>
      </trkpt>
      <trkpt lat="43.53702" lon="2.48387">
        <ele>636.132</ele>
        <time>2021-05-22T09:21:52Z</time>
      </trkpt>
      <trkpt lat="43.53702" lon="2.48387">
        <ele>636.156</ele>
        <time>2021-05-22T09:21:54Z</time>
      </trkpt>
      <trkpt lat="43.53702" lon="2.48387">
        <ele>636.158</ele>
        <time>2021-05-22T09:21:56Z</time>
      </trkpt>
      <trkpt lat="43.53702" lon="2.48387">
        <ele>636.169</ele>
        <time>2021-05-22T09:21:58Z</time>
      </trkpt>
      <trkpt lat="43.53702" lon="2.48387">
        <ele>636.205</ele>
        <time>2021-05-22T09:22:00Z</time>
      </trkpt>
      <trkpt lat="43.53702" lon="2.48387">
        <ele>636.174</ele>
        <time>2021-05-22T09:22:02Z</time>
      </trkpt>
      <trkpt lat="43.53702" lon="2.48387">
        <ele>636.179</ele>
        <time>2021-05-22T09:22:04Z</time>
      </trkpt>
      <trkpt lat="43.53702" lon="2.48387">
        <ele>635.095</ele>
        <time>2021-05-22T09:22:06Z</time>
      </trkpt>
      <trkpt lat="43.53702" lon="2.48387">
        <ele>635.08</ele>
        <time>2021-05-22T09:22:08Z</time>
      </trkpt>
      <trkpt lat="43.53702" lon="2.48387">
        <ele>635.1</ele>
        <time>2021-05-22T09:22:10Z</time>
      </trkpt>
      <trkpt lat="43.53702" lon="2.48387">
        <ele>635.692</ele>
        <time>2021-05-22T09:22:12Z</time>
      </trkpt>
      <trkpt lat="43.53702" lon="2.48387">
        <ele>633.908</ele>
        <time>2021-05-22T09:22:14Z</time>
      </trkpt>
      <trkpt lat="43.53702" lon="2.48386">
        <ele>633.677</ele>
        <time>2021-05-22T09:22:16Z</time>
      </trkpt>
      <trkpt lat="43.53702" lon="2.48386">
        <ele>633.426</ele>
        <time>2021-05-22T09:22:18Z</time>
      </trkpt>
      <trkpt lat="43.53702" lon="2.48386">
        <ele>633.451</ele>
        <time>2021-05-22T09:22:20Z</time>
      </trkpt>
      <trkpt lat="43.53702" lon="2.48386">
        <ele>633.443</ele>
        <time>2021-05-22T09:22:22Z</time>
      </trkpt>
      <trkpt lat="43.53702" lon="2.48386">
        <ele>633.437</ele>
        <time>2021-05-22T09:22:24Z</time>
      </trkpt>
      <trkpt lat="43.53702" lon="2.48386">
        <ele>633.43</ele>
        <time>2021-05-22T09:22:26Z</time>
      </trkpt>
      <trkpt lat="43.53702" lon="2.48386">
        <ele>633.421</ele>
        <time>2021-05-22T09:22:28Z</time>
      </trkpt>
      <trkpt lat="43.53702" lon="2.48386">
        <ele>633.428</ele>
        <time>2021-05-22T09:22:30Z</time>
      </trkpt>
      <trkpt lat="43.53702" lon="2.48386">
        <ele>633.427</ele>
        <time>2021-05-22T09:22:32Z</time>
      </trkpt>
      <trkpt lat="43.53702" lon="2.48386">
        <ele>633.423</ele>
        <time>2021-05-22T09:22:34Z</time>
      </trkpt>
      <trkpt lat="43.53702" lon="2.48386">
        <ele>633.418</ele>
        <time>2021-05-22T09:22:36Z</time>
      </trkpt>
      <trkpt lat="43.53702" lon="2.48386">
        <ele>633.397</ele>
        <time>2021-05-22T09:22:38Z</time>
      </trkpt>
      <trkpt lat="43.53702" lon="2.48386">
        <ele>633.379</ele>
        <time>2021-05-22T09:22:40Z</time>
      </trkpt>
      <trkpt lat="43.53702" lon="2.48386">
        <ele>633.367</ele>
        <time>2021-05-22T09:22:42Z</time>
      </trkpt>
      <trkpt lat="43.53703" lon="2.48386">
        <ele>633.072</ele>
        <time>2021-05-22T09:22:44Z</time>
      </trkpt>
      <trkpt lat="43.53704" lon="2.48385">
        <ele>632.622</ele>
        <time>2021-05-22T09:22:46Z</time>
      </trkpt>
      <trkpt lat="43.53703" lon="2.48385">
        <ele>632.895</ele>
        <time>2021-05-22T09:22:48Z</time>
      </trkpt>
      <trkpt lat="43.53704" lon="2.48385">
        <ele>632.88</ele>
        <time>2021-05-22T09:22:50Z</time>
      </trkpt>
      <trkpt lat="43.53704" lon="2.48385">
        <ele>633.851</ele>
        <time>2021-05-22T09:22:52Z</time>
      </trkpt>
      <trkpt lat="43.53703" lon="2.48386">
        <ele>635.776</ele>
        <time>2021-05-22T09:22:54Z</time>
      </trkpt>
      <trkpt lat="43.53702" lon="2.48388">
        <ele>636.803</ele>
        <time>2021-05-22T09:22:56Z</time>
      </trkpt>
      <trkpt lat="43.53701" lon="2.4839">
        <ele>637.138</ele>
        <time>2021-05-22T09:22:58Z</time>
      </trkpt>
      <trkpt lat="43.537" lon="2.4839">
        <ele>636.251</ele>
        <time>2021-05-22T09:23:00Z</time>
      </trkpt>
      <trkpt lat="43.53699" lon="2.48391">
        <ele>637.06</ele>
        <time>2021-05-22T09:23:02Z</time>
      </trkpt>
      <trkpt lat="43.53697" lon="2.48392">
        <ele>637.43</ele>
        <time>2021-05-22T09:23:04Z</time>
      </trkpt>
      <trkpt lat="43.53695" lon="2.48393">
        <ele>636.389</ele>
        <time>2021-05-22T09:23:06Z</time>
      </trkpt>
      <trkpt lat="43.53693" lon="2.48393">
        <ele>635.001</ele>
        <time>2021-05-22T09:23:08Z</time>
      </trkpt>
      <trkpt lat="43.53691" lon="2.48393">
        <ele>635.195</ele>
        <time>2021-05-22T09:23:10Z</time>
      </trkpt>
      <trkpt lat="43.53689" lon="2.48394">
        <ele>635.009</ele>
        <time>2021-05-22T09:23:12Z</time>
      </trkpt>
      <trkpt lat="43.53687" lon="2.48394">
        <ele>634.659</ele>
        <time>2021-05-22T09:23:14Z</time>
      </trkpt>
      <trkpt lat="43.53685" lon="2.48395">
        <ele>633.956</ele>
        <time>2021-05-22T09:23:16Z</time>
      </trkpt>
      <trkpt lat="43.53684" lon="2.48395">
        <ele>633.053</ele>
        <time>2021-05-22T09:23:18Z</time>
      </trkpt>
      <trkpt lat="43.53682" lon="2.48396">
        <ele>632.651</ele>
        <time>2021-05-22T09:23:20Z</time>
      </trkpt>
      <trkpt lat="43.53682" lon="2.48399">
        <ele>633.398</ele>
        <time>2021-05-22T09:23:22Z</time>
      </trkpt>
      <trkpt lat="43.53684" lon="2.48401">
        <ele>632.074</ele>
        <time>2021-05-22T09:23:24Z</time>
      </trkpt>
      <trkpt lat="43.53686" lon="2.48402">
        <ele>630.455</ele>
        <time>2021-05-22T09:23:26Z</time>
      </trkpt>
      <trkpt lat="43.53688" lon="2.48401">
        <ele>629.889</ele>
        <time>2021-05-22T09:23:28Z</time>
      </trkpt>
      <trkpt lat="43.5369" lon="2.48401">
        <ele>628.946</ele>
        <time>2021-05-22T09:23:30Z</time>
      </trkpt>
      <trkpt lat="43.53692" lon="2.48402">
        <ele>628.774</ele>
        <time>2021-05-22T09:23:32Z</time>
      </trkpt>
      <trkpt lat="43.53694" lon="2.48401">
        <ele>627.599</ele>
        <time>2021-05-22T09:23:34Z</time>
      </trkpt>
      <trkpt lat="43.53696" lon="2.48401">
        <ele>627.645</ele>
        <time>2021-05-22T09:23:36Z</time>
      </trkpt>
      <trkpt lat="43.53698" lon="2.48399">
        <ele>625.356</ele>
        <time>2021-05-22T09:23:38Z</time>
      </trkpt>
      <trkpt lat="43.53699" lon="2.48398">
        <ele>624.801</ele>
        <time>2021-05-22T09:23:40Z</time>
      </trkpt>
      <trkpt lat="43.53702" lon="2.48397">
        <ele>623.848</ele>
        <time>2021-05-22T09:23:42Z</time>
      </trkpt>
      <trkpt lat="43.53703" lon="2.48397">
        <ele>623.955</ele>
        <time>2021-05-22T09:23:44Z</time>
      </trkpt>
      <trkpt lat="43.53704" lon="2.48396">
        <ele>623.233</ele>
        <time>2021-05-22T09:23:46Z</time>
      </trkpt>
      <trkpt lat="43.53706" lon="2.48396">
        <ele>623.367</ele>
        <time>2021-05-22T09:23:48Z</time>
      </trkpt>
      <trkpt lat="43.53708" lon="2.48396">
        <ele>624.168</ele>
        <time>2021-05-22T09:23:50Z</time>
      </trkpt>
      <trkpt lat="43.5371" lon="2.48395">
        <ele>625.09</ele>
        <time>2021-05-22T09:23:52Z</time>
      </trkpt>
      <trkpt lat="43.53712" lon="2.48393">
        <ele>623.344</ele>
        <time>2021-05-22T09:23:54Z</time>
      </trkpt>
      <trkpt lat="43.53714" lon="2.48392">
        <ele>622.954</ele>
        <time>2021-05-22T09:23:56Z</time>
      </trkpt>
      <trkpt lat="43.53715" lon="2.4839">
        <ele>622.444</ele>
        <time>2021-05-22T09:23:58Z</time>
      </trkpt>
      <trkpt lat="43.53718" lon="2.48391">
        <ele>623.664</ele>
        <time>2021-05-22T09:24:00Z</time>
      </trkpt>
      <trkpt lat="43.5372" lon="2.48389">
        <ele>624.045</ele>
        <time>2021-05-22T09:24:02Z</time>
      </trkpt>
      <trkpt lat="43.5372" lon="2.48387">
        <ele>623.84</ele>
        <time>2021-05-22T09:24:04Z</time>
      </trkpt>
      <trkpt lat="43.53722" lon="2.48386">
        <ele>621.869</ele>
        <time>2021-05-22T09:24:06Z</time>
      </trkpt>
      <trkpt lat="43.53723" lon="2.48385">
        <ele>621.647</ele>
        <time>2021-05-22T09:24:08Z</time>
      </trkpt>
      <trkpt lat="43.53724" lon="2.48384">
        <ele>620.915</ele>
        <time>2021-05-22T09:24:10Z</time>
      </trkpt>
      <trkpt lat="43.53726" lon="2.48383">
        <ele>619.529</ele>
        <time>2021-05-22T09:24:12Z</time>
      </trkpt>
      <trkpt lat="43.53727" lon="2.48382">
        <ele>618.586</ele>
        <time>2021-05-22T09:24:14Z</time>
      </trkpt>
      <trkpt lat="43.53729" lon="2.48381">
        <ele>616.776</ele>
        <time>2021-05-22T09:24:16Z</time>
      </trkpt>
      <trkpt lat="43.5373" lon="2.4838">
        <ele>613.44</ele>
        <time>2021-05-22T09:24:18Z</time>
      </trkpt>
      <trkpt lat="43.53732" lon="2.48379">
        <ele>612.875</ele>
        <time>2021-05-22T09:24:20Z</time>
      </trkpt>
      <trkpt lat="43.53734" lon="2.48379">
        <ele>613.322</ele>
        <time>2021-05-22T09:24:22Z</time>
      </trkpt>
      <trkpt lat="43.53735" lon="2.48379">
        <ele>612.949</ele>
        <time>2021-05-22T09:24:24Z</time>
      </trkpt>
      <trkpt lat="43.53736" lon="2.48378">
        <ele>612.108</ele>
        <time>2021-05-22T09:24:26Z</time>
      </trkpt>
      <trkpt lat="43.53738" lon="2.48378">
        <ele>613.364</ele>
        <time>2021-05-22T09:24:28Z</time>
      </trkpt>
      <trkpt lat="43.53739" lon="2.48379">
        <ele>613.926</ele>
        <time>2021-05-22T09:24:30Z</time>
      </trkpt>
      <trkpt lat="43.5374" lon="2.48379">
        <ele>614.823</ele>
        <time>2021-05-22T09:24:32Z</time>
      </trkpt>
      <trkpt lat="43.53742" lon="2.48378">
        <ele>613.92</ele>
        <time>2021-05-22T09:24:34Z</time>
      </trkpt>
      <trkpt lat="43.53743" lon="2.48379">
        <ele>612.916</ele>
        <time>2021-05-22T09:24:36Z</time>
      </trkpt>
      <trkpt lat="43.53745" lon="2.48379">
        <ele>611.689</ele>
        <time>2021-05-22T09:24:38Z</time>
      </trkpt>
      <trkpt lat="43.53747" lon="2.48378">
        <ele>611.283</ele>
        <time>2021-05-22T09:24:40Z</time>
      </trkpt>
      <trkpt lat="43.53748" lon="2.48378">
        <ele>610.147</ele>
        <time>2021-05-22T09:24:42Z</time>
      </trkpt>
      <trkpt lat="43.5375" lon="2.48378">
        <ele>609.308</ele>
        <time>2021-05-22T09:24:44Z</time>
      </trkpt>
      <trkpt lat="43.53752" lon="2.48378">
        <ele>609.075</ele>
        <time>2021-05-22T09:24:46Z</time>
      </trkpt>
      <trkpt lat="43.53754" lon="2.48378">
        <ele>608.826</ele>
        <time>2021-05-22T09:24:48Z</time>
      </trkpt>
      <trkpt lat="43.53756" lon="2.48378">
        <ele>609.636</ele>
        <time>2021-05-22T09:24:50Z</time>
      </trkpt>
      <trkpt lat="43.53758" lon="2.48378">
        <ele>609.766</ele>
        <time>2021-05-22T09:24:52Z</time>
      </trkpt>
      <trkpt lat="43.5376" lon="2.48378">
        <ele>610.99</ele>
        <time>2021-05-22T09:24:54Z</time>
      </trkpt>
      <trkpt lat="43.53762" lon="2.48377">
        <ele>610.885</ele>
        <time>2021-05-22T09:24:56Z</time>
      </trkpt>
      <trkpt lat="43.53764" lon="2.48377">
        <ele>612.165</ele>
        <time>2021-05-22T09:24:58Z</time>
      </trkpt>
      <trkpt lat="43.53766" lon="2.48377">
        <ele>613.825</ele>
        <time>2021-05-22T09:25:00Z</time>
      </trkpt>
      <trkpt lat="43.53768" lon="2.48377">
        <ele>613.034</ele>
        <time>2021-05-22T09:25:02Z</time>
      </trkpt>
      <trkpt lat="43.53769" lon="2.48377">
        <ele>614.283</ele>
        <time>2021-05-22T09:25:04Z</time>
      </trkpt>
      <trkpt lat="43.53771" lon="2.48377">
        <ele>614.985</ele>
        <time>2021-05-22T09:25:06Z</time>
      </trkpt>
      <trkpt lat="43.53773" lon="2.48377">
        <ele>614.865</ele>
        <time>2021-05-22T09:25:08Z</time>
      </trkpt>
      <trkpt lat="43.53775" lon="2.48376">
        <ele>614.811</ele>
        <time>2021-05-22T09:25:10Z</time>
      </trkpt>
      <trkpt lat="43.53777" lon="2.48375">
        <ele>613.684</ele>
        <time>2021-05-22T09:25:12Z</time>
      </trkpt>
      <trkpt lat="43.53779" lon="2.48374">
        <ele>612.678</ele>
        <time>2021-05-22T09:25:14Z</time>
      </trkpt>
      <trkpt lat="43.53781" lon="2.48374">
        <ele>612.869</ele>
        <time>2021-05-22T09:25:16Z</time>
      </trkpt>
      <trkpt lat="43.53783" lon="2.48375">
        <ele>613.547</ele>
        <time>2021-05-22T09:25:18Z</time>
      </trkpt>
      <trkpt lat="43.53785" lon="2.48375">
        <ele>614.551</ele>
        <time>2021-05-22T09:25:20Z</time>
      </trkpt>
      <trkpt lat="43.53787" lon="2.48376">
        <ele>614.1</ele>
        <time>2021-05-22T09:25:22Z</time>
      </trkpt>
      <trkpt lat="43.53789" lon="2.48376">
        <ele>614.175</ele>
        <time>2021-05-22T09:25:24Z</time>
      </trkpt>
      <trkpt lat="43.53791" lon="2.48377">
        <ele>614.438</ele>
        <time>2021-05-22T09:25:26Z</time>
      </trkpt>
      <trkpt lat="43.53793" lon="2.48377">
        <ele>614.974</ele>
        <time>2021-05-22T09:25:28Z</time>
      </trkpt>
      <trkpt lat="43.53796" lon="2.48378">
        <ele>616.539</ele>
        <time>2021-05-22T09:25:30Z</time>
      </trkpt>
      <trkpt lat="43.53798" lon="2.48378">
        <ele>616.539</ele>
        <time>2021-05-22T09:25:32Z</time>
      </trkpt>
      <trkpt lat="43.538" lon="2.48378">
        <ele>617.436</ele>
        <time>2021-05-22T09:25:34Z</time>
      </trkpt>
      <trkpt lat="43.53801" lon="2.48377">
        <ele>617.212</ele>
        <time>2021-05-22T09:25:36Z</time>
      </trkpt>
      <trkpt lat="43.53803" lon="2.48377">
        <ele>617.24</ele>
        <time>2021-05-22T09:25:38Z</time>
      </trkpt>
      <trkpt lat="43.53802" lon="2.48377">
        <ele>615.889</ele>
        <time>2021-05-22T09:25:40Z</time>
      </trkpt>
      <trkpt lat="43.53804" lon="2.48376">
        <ele>616.962</ele>
        <time>2021-05-22T09:25:42Z</time>
      </trkpt>
      <trkpt lat="43.53805" lon="2.48378">
        <ele>617.819</ele>
        <time>2021-05-22T09:25:44Z</time>
      </trkpt>
      <trkpt lat="43.53806" lon="2.48379">
        <ele>617.548</ele>
        <time>2021-05-22T09:25:46Z</time>
      </trkpt>
      <trkpt lat="43.53806" lon="2.48378">
        <ele>617.453</ele>
        <time>2021-05-22T09:25:48Z</time>
      </trkpt>
      <trkpt lat="43.53806" lon="2.48382">
        <ele>617.831</ele>
        <time>2021-05-22T09:25:50Z</time>
      </trkpt>
      <trkpt lat="43.53806" lon="2.48383">
        <ele>617.853</ele>
        <time>2021-05-22T09:25:52Z</time>
      </trkpt>
      <trkpt lat="43.53806" lon="2.48383">
        <ele>617.87</ele>
        <time>2021-05-22T09:25:54Z</time>
      </trkpt>
      <trkpt lat="43.53806" lon="2.48384">
        <ele>617.881</ele>
        <time>2021-05-22T09:25:56Z</time>
      </trkpt>
      <trkpt lat="43.53806" lon="2.48384">
        <ele>617.896</ele>
        <time>2021-05-22T09:25:58Z</time>
      </trkpt>
      <trkpt lat="43.53806" lon="2.48384">
        <ele>617.908</ele>
        <time>2021-05-22T09:26:00Z</time>
      </trkpt>
      <trkpt lat="43.53806" lon="2.48384">
        <ele>617.922</ele>
        <time>2021-05-22T09:26:02Z</time>
      </trkpt>
      <trkpt lat="43.53806" lon="2.48384">
        <ele>617.93</ele>
        <time>2021-05-22T09:26:04Z</time>
      </trkpt>
      <trkpt lat="43.53806" lon="2.48384">
        <ele>617.94</ele>
        <time>2021-05-22T09:26:06Z</time>
      </trkpt>
      <trkpt lat="43.53806" lon="2.48384">
        <ele>617.958</ele>
        <time>2021-05-22T09:26:08Z</time>
      </trkpt>
      <trkpt lat="43.53806" lon="2.48384">
        <ele>617.97</ele>
        <time>2021-05-22T09:26:10Z</time>
      </trkpt>
      <trkpt lat="43.53806" lon="2.48384">
        <ele>617.982</ele>
        <time>2021-05-22T09:26:12Z</time>
      </trkpt>
      <trkpt lat="43.53805" lon="2.48384">
        <ele>618.568</ele>
        <time>2021-05-22T09:26:14Z</time>
      </trkpt>
      <trkpt lat="43.53805" lon="2.48384">
        <ele>618.574</ele>
        <time>2021-05-22T09:26:16Z</time>
      </trkpt>
      <trkpt lat="43.53805" lon="2.48384">
        <ele>618.586</ele>
        <time>2021-05-22T09:26:18Z</time>
      </trkpt>
      <trkpt lat="43.53805" lon="2.48384">
        <ele>618.591</ele>
        <time>2021-05-22T09:26:20Z</time>
      </trkpt>
      <trkpt lat="43.53805" lon="2.48384">
        <ele>618.586</ele>
        <time>2021-05-22T09:26:22Z</time>
      </trkpt>
      <trkpt lat="43.53805" lon="2.48384">
        <ele>618.584</ele>
        <time>2021-05-22T09:26:24Z</time>
      </trkpt>
      <trkpt lat="43.53805" lon="2.48384">
        <ele>618.587</ele>
        <time>2021-05-22T09:26:26Z</time>
      </trkpt>
      <trkpt lat="43.53805" lon="2.48384">
        <ele>618.592</ele>
        <time>2021-05-22T09:26:28Z</time>
      </trkpt>
      <trkpt lat="43.53805" lon="2.48384">
        <ele>618.593</ele>
        <time>2021-05-22T09:26:30Z</time>
      </trkpt>
      <trkpt lat="43.53805" lon="2.48384">
        <ele>618.605</ele>
        <time>2021-05-22T09:26:32Z</time>
      </trkpt>
      <trkpt lat="43.53805" lon="2.48384">
        <ele>618.615</ele>
        <time>2021-05-22T09:26:34Z</time>
      </trkpt>
      <trkpt lat="43.53805" lon="2.48384">
        <ele>618.623</ele>
        <time>2021-05-22T09:26:36Z</time>
      </trkpt>
      <trkpt lat="43.53805" lon="2.48384">
        <ele>618.632</ele>
        <time>2021-05-22T09:26:38Z</time>
      </trkpt>
      <trkpt lat="43.53805" lon="2.48384">
        <ele>618.632</ele>
        <time>2021-05-22T09:26:40Z</time>
      </trkpt>
      <trkpt lat="43.53806" lon="2.48384">
        <ele>619.288</ele>
        <time>2021-05-22T09:26:42Z</time>
      </trkpt>
      <trkpt lat="43.53807" lon="2.48386">
        <ele>621.051</ele>
        <time>2021-05-22T09:26:44Z</time>
      </trkpt>
      <trkpt lat="43.53809" lon="2.48388">
        <ele>621.992</ele>
        <time>2021-05-22T09:26:46Z</time>
      </trkpt>
      <trkpt lat="43.53811" lon="2.48388">
        <ele>621.529</ele>
        <time>2021-05-22T09:26:48Z</time>
      </trkpt>
      <trkpt lat="43.53812" lon="2.48388">
        <ele>621.239</ele>
        <time>2021-05-22T09:26:50Z</time>
      </trkpt>
      <trkpt lat="43.53814" lon="2.48388">
        <ele>620.621</ele>
        <time>2021-05-22T09:26:52Z</time>
      </trkpt>
      <trkpt lat="43.53815" lon="2.48388">
        <ele>619.992</ele>
        <time>2021-05-22T09:26:54Z</time>
      </trkpt>
      <trkpt lat="43.53817" lon="2.48388">
        <ele>618.891</ele>
        <time>2021-05-22T09:26:56Z</time>
      </trkpt>
      <trkpt lat="43.53819" lon="2.48388">
        <ele>620.015</ele>
        <time>2021-05-22T09:26:58Z</time>
      </trkpt>
      <trkpt lat="43.53821" lon="2.48388">
        <ele>619.003</ele>
        <time>2021-05-22T09:27:00Z</time>
      </trkpt>
      <trkpt lat="43.53825" lon="2.4839">
        <ele>624.001</ele>
        <time>2021-05-22T09:27:02Z</time>
      </trkpt>
      <trkpt lat="43.53827" lon="2.48393">
        <ele>624.153</ele>
        <time>2021-05-22T09:27:04Z</time>
      </trkpt>
      <trkpt lat="43.53829" lon="2.48394">
        <ele>623.321</ele>
        <time>2021-05-22T09:27:06Z</time>
      </trkpt>
      <trkpt lat="43.53831" lon="2.48395">
        <ele>623.446</ele>
        <time>2021-05-22T09:27:08Z</time>
      </trkpt>
      <trkpt lat="43.53834" lon="2.48396">
        <ele>624.998</ele>
        <time>2021-05-22T09:27:10Z</time>
      </trkpt>
      <trkpt lat="43.53836" lon="2.48398">
        <ele>624.785</ele>
        <time>2021-05-22T09:27:12Z</time>
      </trkpt>
      <trkpt lat="43.53838" lon="2.48399">
        <ele>624.691</ele>
        <time>2021-05-22T09:27:14Z</time>
      </trkpt>
      <trkpt lat="43.5384" lon="2.48399">
        <ele>624.566</ele>
        <time>2021-05-22T09:27:16Z</time>
      </trkpt>
      <trkpt lat="43.53842" lon="2.48399">
        <ele>624.89</ele>
        <time>2021-05-22T09:27:18Z</time>
      </trkpt>
      <trkpt lat="43.53844" lon="2.48399">
        <ele>624.555</ele>
        <time>2021-05-22T09:27:20Z</time>
      </trkpt>
      <trkpt lat="43.53846" lon="2.48401">
        <ele>625.489</ele>
        <time>2021-05-22T09:27:22Z</time>
      </trkpt>
      <trkpt lat="43.53849" lon="2.48402">
        <ele>625.921</ele>
        <time>2021-05-22T09:27:24Z</time>
      </trkpt>
      <trkpt lat="43.53852" lon="2.48403">
        <ele>626.387</ele>
        <time>2021-05-22T09:27:26Z</time>
      </trkpt>
      <trkpt lat="43.53854" lon="2.48401">
        <ele>623.731</ele>
        <time>2021-05-22T09:27:28Z</time>
      </trkpt>
      <trkpt lat="43.53855" lon="2.48398">
        <ele>621.988</ele>
        <time>2021-05-22T09:27:30Z</time>
      </trkpt>
      <trkpt lat="43.53856" lon="2.48397">
        <ele>619.487</ele>
        <time>2021-05-22T09:27:32Z</time>
      </trkpt>
      <trkpt lat="43.53857" lon="2.48397">
        <ele>618.066</ele>
        <time>2021-05-22T09:27:34Z</time>
      </trkpt>
      <trkpt lat="43.53858" lon="2.48397">
        <ele>618.138</ele>
        <time>2021-05-22T09:27:36Z</time>
      </trkpt>
      <trkpt lat="43.5386" lon="2.48397">
        <ele>616.293</ele>
        <time>2021-05-22T09:27:38Z</time>
      </trkpt>
      <trkpt lat="43.53862" lon="2.48397">
        <ele>615.128</ele>
        <time>2021-05-22T09:27:40Z</time>
      </trkpt>
      <trkpt lat="43.53864" lon="2.48398">
        <ele>615.36</ele>
        <time>2021-05-22T09:27:42Z</time>
      </trkpt>
      <trkpt lat="43.53865" lon="2.484">
        <ele>615.717</ele>
        <time>2021-05-22T09:27:44Z</time>
      </trkpt>
      <trkpt lat="43.53866" lon="2.48401">
        <ele>615.457</ele>
        <time>2021-05-22T09:27:46Z</time>
      </trkpt>
      <trkpt lat="43.53868" lon="2.48402">
        <ele>614.256</ele>
        <time>2021-05-22T09:27:48Z</time>
      </trkpt>
      <trkpt lat="43.53869" lon="2.48402">
        <ele>612.155</ele>
        <time>2021-05-22T09:27:50Z</time>
      </trkpt>
      <trkpt lat="43.5387" lon="2.48402">
        <ele>612.001</ele>
        <time>2021-05-22T09:27:52Z</time>
      </trkpt>
      <trkpt lat="43.53871" lon="2.48401">
        <ele>611.866</ele>
        <time>2021-05-22T09:27:54Z</time>
      </trkpt>
      <trkpt lat="43.53872" lon="2.484">
        <ele>611.338</ele>
        <time>2021-05-22T09:27:56Z</time>
      </trkpt>
      <trkpt lat="43.53873" lon="2.48401">
        <ele>611.379</ele>
        <time>2021-05-22T09:27:58Z</time>
      </trkpt>
      <trkpt lat="43.53875" lon="2.484">
        <ele>610.778</ele>
        <time>2021-05-22T09:28:00Z</time>
      </trkpt>
      <trkpt lat="43.53877" lon="2.484">
        <ele>611.016</ele>
        <time>2021-05-22T09:28:02Z</time>
      </trkpt>
      <trkpt lat="43.53879" lon="2.48399">
        <ele>610.355</ele>
        <time>2021-05-22T09:28:04Z</time>
      </trkpt>
      <trkpt lat="43.5388" lon="2.48399">
        <ele>610.341</ele>
        <time>2021-05-22T09:28:06Z</time>
      </trkpt>
      <trkpt lat="43.53882" lon="2.484">
        <ele>610.753</ele>
        <time>2021-05-22T09:28:08Z</time>
      </trkpt>
      <trkpt lat="43.53884" lon="2.48401">
        <ele>609.576</ele>
        <time>2021-05-22T09:28:10Z</time>
      </trkpt>
      <trkpt lat="43.53886" lon="2.48402">
        <ele>609.531</ele>
        <time>2021-05-22T09:28:12Z</time>
      </trkpt>
      <trkpt lat="43.53889" lon="2.48403">
        <ele>609.123</ele>
        <time>2021-05-22T09:28:14Z</time>
      </trkpt>
      <trkpt lat="43.5389" lon="2.48403">
        <ele>608.507</ele>
        <time>2021-05-22T09:28:16Z</time>
      </trkpt>
      <trkpt lat="43.53892" lon="2.48405">
        <ele>607.622</ele>
        <time>2021-05-22T09:28:18Z</time>
      </trkpt>
      <trkpt lat="43.53893" lon="2.48406">
        <ele>607.787</ele>
        <time>2021-05-22T09:28:20Z</time>
      </trkpt>
      <trkpt lat="43.53895" lon="2.48407">
        <ele>606.74</ele>
        <time>2021-05-22T09:28:22Z</time>
      </trkpt>
      <trkpt lat="43.53897" lon="2.48408">
        <ele>606.771</ele>
        <time>2021-05-22T09:28:24Z</time>
      </trkpt>
      <trkpt lat="43.53897" lon="2.48412">
        <ele>608.251</ele>
        <time>2021-05-22T09:28:26Z</time>
      </trkpt>
      <trkpt lat="43.53899" lon="2.48414">
        <ele>609.789</ele>
        <time>2021-05-22T09:28:28Z</time>
      </trkpt>
      <trkpt lat="43.53901" lon="2.48415">
        <ele>611.089</ele>
        <time>2021-05-22T09:28:30Z</time>
      </trkpt>
      <trkpt lat="43.53902" lon="2.48417">
        <ele>612.802</ele>
        <time>2021-05-22T09:28:32Z</time>
      </trkpt>
      <trkpt lat="43.53903" lon="2.4842">
        <ele>614.041</ele>
        <time>2021-05-22T09:28:34Z</time>
      </trkpt>
      <trkpt lat="43.53905" lon="2.48422">
        <ele>614.186</ele>
        <time>2021-05-22T09:28:36Z</time>
      </trkpt>
      <trkpt lat="43.53907" lon="2.48423">
        <ele>614.73</ele>
        <time>2021-05-22T09:28:38Z</time>
      </trkpt>
      <trkpt lat="43.53909" lon="2.48424">
        <ele>614.157</ele>
        <time>2021-05-22T09:28:40Z</time>
      </trkpt>
      <trkpt lat="43.5391" lon="2.48425">
        <ele>613.906</ele>
        <time>2021-05-22T09:28:42Z</time>
      </trkpt>
      <trkpt lat="43.53911" lon="2.48425">
        <ele>614.085</ele>
        <time>2021-05-22T09:28:44Z</time>
      </trkpt>
      <trkpt lat="43.53913" lon="2.48425">
        <ele>613.398</ele>
        <time>2021-05-22T09:28:46Z</time>
      </trkpt>
      <trkpt lat="43.53914" lon="2.48424">
        <ele>613.425</ele>
        <time>2021-05-22T09:28:48Z</time>
      </trkpt>
      <trkpt lat="43.53915" lon="2.48424">
        <ele>612.555</ele>
        <time>2021-05-22T09:28:50Z</time>
      </trkpt>
      <trkpt lat="43.53916" lon="2.48424">
        <ele>613.099</ele>
        <time>2021-05-22T09:28:52Z</time>
      </trkpt>
      <trkpt lat="43.53916" lon="2.48427">
        <ele>615.009</ele>
        <time>2021-05-22T09:28:54Z</time>
      </trkpt>
      <trkpt lat="43.53917" lon="2.48427">
        <ele>615.514</ele>
        <time>2021-05-22T09:28:56Z</time>
      </trkpt>
      <trkpt lat="43.53917" lon="2.48427">
        <ele>615.814</ele>
        <time>2021-05-22T09:28:58Z</time>
      </trkpt>
      <trkpt lat="43.53919" lon="2.48427">
        <ele>616.297</ele>
        <time>2021-05-22T09:29:00Z</time>
      </trkpt>
      <trkpt lat="43.5392" lon="2.48427">
        <ele>617.794</ele>
        <time>2021-05-22T09:29:02Z</time>
      </trkpt>
      <trkpt lat="43.53921" lon="2.48426">
        <ele>617.665</ele>
        <time>2021-05-22T09:29:04Z</time>
      </trkpt>
      <trkpt lat="43.53922" lon="2.48427">
        <ele>618.314</ele>
        <time>2021-05-22T09:29:06Z</time>
      </trkpt>
      <trkpt lat="43.53924" lon="2.48427">
        <ele>617.689</ele>
        <time>2021-05-22T09:29:08Z</time>
      </trkpt>
      <trkpt lat="43.53925" lon="2.48427">
        <ele>617.704</ele>
        <time>2021-05-22T09:29:10Z</time>
      </trkpt>
      <trkpt lat="43.53926" lon="2.48426">
        <ele>617.147</ele>
        <time>2021-05-22T09:29:12Z</time>
      </trkpt>
      <trkpt lat="43.53927" lon="2.48425">
        <ele>616.982</ele>
        <time>2021-05-22T09:29:14Z</time>
      </trkpt>
      <trkpt lat="43.53929" lon="2.48426">
        <ele>617.477</ele>
        <time>2021-05-22T09:29:16Z</time>
      </trkpt>
      <trkpt lat="43.5393" lon="2.48427">
        <ele>618.105</ele>
        <time>2021-05-22T09:29:18Z</time>
      </trkpt>
      <trkpt lat="43.53931" lon="2.48426">
        <ele>618.694</ele>
        <time>2021-05-22T09:29:20Z</time>
      </trkpt>
      <trkpt lat="43.53932" lon="2.48427">
        <ele>618.051</ele>
        <time>2021-05-22T09:29:22Z</time>
      </trkpt>
      <trkpt lat="43.53933" lon="2.48427">
        <ele>619.272</ele>
        <time>2021-05-22T09:29:24Z</time>
      </trkpt>
      <trkpt lat="43.53934" lon="2.48428">
        <ele>619.683</ele>
        <time>2021-05-22T09:29:26Z</time>
      </trkpt>
      <trkpt lat="43.53934" lon="2.48428">
        <ele>619.714</ele>
        <time>2021-05-22T09:29:28Z</time>
      </trkpt>
      <trkpt lat="43.53936" lon="2.48429">
        <ele>620.099</ele>
        <time>2021-05-22T09:29:30Z</time>
      </trkpt>
      <trkpt lat="43.53937" lon="2.48431">
        <ele>619.765</ele>
        <time>2021-05-22T09:29:32Z</time>
      </trkpt>
      <trkpt lat="43.53939" lon="2.48433">
        <ele>620.353</ele>
        <time>2021-05-22T09:29:34Z</time>
      </trkpt>
      <trkpt lat="43.5394" lon="2.48435">
        <ele>619.791</ele>
        <time>2021-05-22T09:29:36Z</time>
      </trkpt>
      <trkpt lat="43.53942" lon="2.48437">
        <ele>619.528</ele>
        <time>2021-05-22T09:29:38Z</time>
      </trkpt>
      <trkpt lat="43.53944" lon="2.4844">
        <ele>619.515</ele>
        <time>2021-05-22T09:29:40Z</time>
      </trkpt>
      <trkpt lat="43.53946" lon="2.48442">
        <ele>620.856</ele>
        <time>2021-05-22T09:29:42Z</time>
      </trkpt>
      <trkpt lat="43.53947" lon="2.48445">
        <ele>621.442</ele>
        <time>2021-05-22T09:29:44Z</time>
      </trkpt>
      <trkpt lat="43.53949" lon="2.48447">
        <ele>621.269</ele>
        <time>2021-05-22T09:29:46Z</time>
      </trkpt>
      <trkpt lat="43.5395" lon="2.48447">
        <ele>619.785</ele>
        <time>2021-05-22T09:29:48Z</time>
      </trkpt>
      <trkpt lat="43.53952" lon="2.48448">
        <ele>621.432</ele>
        <time>2021-05-22T09:29:50Z</time>
      </trkpt>
      <trkpt lat="43.53953" lon="2.48449">
        <ele>623.016</ele>
        <time>2021-05-22T09:29:52Z</time>
      </trkpt>
      <trkpt lat="43.53954" lon="2.4845">
        <ele>623.317</ele>
        <time>2021-05-22T09:29:54Z</time>
      </trkpt>
      <trkpt lat="43.53956" lon="2.4845">
        <ele>622.82</ele>
        <time>2021-05-22T09:29:56Z</time>
      </trkpt>
      <trkpt lat="43.53958" lon="2.48451">
        <ele>622.061</ele>
        <time>2021-05-22T09:29:58Z</time>
      </trkpt>
      <trkpt lat="43.53959" lon="2.48452">
        <ele>623.136</ele>
        <time>2021-05-22T09:30:00Z</time>
      </trkpt>
      <trkpt lat="43.53961" lon="2.48453">
        <ele>623.488</ele>
        <time>2021-05-22T09:30:02Z</time>
      </trkpt>
      <trkpt lat="43.53961" lon="2.48453">
        <ele>625.256</ele>
        <time>2021-05-22T09:30:04Z</time>
      </trkpt>
      <trkpt lat="43.53962" lon="2.48454">
        <ele>624.596</ele>
        <time>2021-05-22T09:30:06Z</time>
      </trkpt>
      <trkpt lat="43.53962" lon="2.48454">
        <ele>625.038</ele>
        <time>2021-05-22T09:30:08Z</time>
      </trkpt>
      <trkpt lat="43.53962" lon="2.48455">
        <ele>625.881</ele>
        <time>2021-05-22T09:30:10Z</time>
      </trkpt>
      <trkpt lat="43.53961" lon="2.48455">
        <ele>625.647</ele>
        <time>2021-05-22T09:30:12Z</time>
      </trkpt>
      <trkpt lat="43.53961" lon="2.48455">
        <ele>625.522</ele>
        <time>2021-05-22T09:30:14Z</time>
      </trkpt>
      <trkpt lat="43.53961" lon="2.48455">
        <ele>625.183</ele>
        <time>2021-05-22T09:30:16Z</time>
      </trkpt>
      <trkpt lat="43.53961" lon="2.48455">
        <ele>625.239</ele>
        <time>2021-05-22T09:30:18Z</time>
      </trkpt>
      <trkpt lat="43.53962" lon="2.48456">
        <ele>625.744</ele>
        <time>2021-05-22T09:30:20Z</time>
      </trkpt>
      <trkpt lat="43.53962" lon="2.48454">
        <ele>625.246</ele>
        <time>2021-05-22T09:30:22Z</time>
      </trkpt>
      <trkpt lat="43.53962" lon="2.48454">
        <ele>625.63</ele>
        <time>2021-05-22T09:30:24Z</time>
      </trkpt>
      <trkpt lat="43.53963" lon="2.48454">
        <ele>625.909</ele>
        <time>2021-05-22T09:30:26Z</time>
      </trkpt>
      <trkpt lat="43.53963" lon="2.48455">
        <ele>626.664</ele>
        <time>2021-05-22T09:30:28Z</time>
      </trkpt>
      <trkpt lat="43.53963" lon="2.48456">
        <ele>627.292</ele>
        <time>2021-05-22T09:30:30Z</time>
      </trkpt>
      <trkpt lat="43.53963" lon="2.48457">
        <ele>627.337</ele>
        <time>2021-05-22T09:30:32Z</time>
      </trkpt>
      <trkpt lat="43.53962" lon="2.48459">
        <ele>627.608</ele>
        <time>2021-05-22T09:30:34Z</time>
      </trkpt>
      <trkpt lat="43.53963" lon="2.48462">
        <ele>626.547</ele>
        <time>2021-05-22T09:30:36Z</time>
      </trkpt>
      <trkpt lat="43.53963" lon="2.48464">
        <ele>625.912</ele>
        <time>2021-05-22T09:30:38Z</time>
      </trkpt>
      <trkpt lat="43.53963" lon="2.48466">
        <ele>626.067</ele>
        <time>2021-05-22T09:30:40Z</time>
      </trkpt>
      <trkpt lat="43.53963" lon="2.4847">
        <ele>625.717</ele>
        <time>2021-05-22T09:30:42Z</time>
      </trkpt>
      <trkpt lat="43.53964" lon="2.48472">
        <ele>624.924</ele>
        <time>2021-05-22T09:30:44Z</time>
      </trkpt>
      <trkpt lat="43.53964" lon="2.48476">
        <ele>625.589</ele>
        <time>2021-05-22T09:30:46Z</time>
      </trkpt>
      <trkpt lat="43.53965" lon="2.48479">
        <ele>625.068</ele>
        <time>2021-05-22T09:30:48Z</time>
      </trkpt>
      <trkpt lat="43.53965" lon="2.48482">
        <ele>626.246</ele>
        <time>2021-05-22T09:30:50Z</time>
      </trkpt>
      <trkpt lat="43.53964" lon="2.48483">
        <ele>626.304</ele>
        <time>2021-05-22T09:30:52Z</time>
      </trkpt>
      <trkpt lat="43.53964" lon="2.48484">
        <ele>627.695</ele>
        <time>2021-05-22T09:30:54Z</time>
      </trkpt>
      <trkpt lat="43.53963" lon="2.48484">
        <ele>627.354</ele>
        <time>2021-05-22T09:30:56Z</time>
      </trkpt>
      <trkpt lat="43.53963" lon="2.48481">
        <ele>626.73</ele>
        <time>2021-05-22T09:30:58Z</time>
      </trkpt>
      <trkpt lat="43.53963" lon="2.4848">
        <ele>626.201</ele>
        <time>2021-05-22T09:31:00Z</time>
      </trkpt>
      <trkpt lat="43.53962" lon="2.48478">
        <ele>626.482</ele>
        <time>2021-05-22T09:31:02Z</time>
      </trkpt>
      <trkpt lat="43.53962" lon="2.48478">
        <ele>626.488</ele>
        <time>2021-05-22T09:31:04Z</time>
      </trkpt>
      <trkpt lat="43.53962" lon="2.48478">
        <ele>626.51</ele>
        <time>2021-05-22T09:31:06Z</time>
      </trkpt>
      <trkpt lat="43.53962" lon="2.48478">
        <ele>626.533</ele>
        <time>2021-05-22T09:31:08Z</time>
      </trkpt>
      <trkpt lat="43.53962" lon="2.48478">
        <ele>626.565</ele>
        <time>2021-05-22T09:31:10Z</time>
      </trkpt>
      <trkpt lat="43.53962" lon="2.48478">
        <ele>626.614</ele>
        <time>2021-05-22T09:31:12Z</time>
      </trkpt>
      <trkpt lat="43.53963" lon="2.48478">
        <ele>625.646</ele>
        <time>2021-05-22T09:31:14Z</time>
      </trkpt>
      <trkpt lat="43.53963" lon="2.48481">
        <ele>625.469</ele>
        <time>2021-05-22T09:31:16Z</time>
      </trkpt>
      <trkpt lat="43.53962" lon="2.48484">
        <ele>624.698</ele>
        <time>2021-05-22T09:31:18Z</time>
      </trkpt>
      <trkpt lat="43.53962" lon="2.48487">
        <ele>626.686</ele>
        <time>2021-05-22T09:31:20Z</time>
      </trkpt>
      <trkpt lat="43.53962" lon="2.48484">
        <ele>622.834</ele>
        <time>2021-05-22T09:31:22Z</time>
      </trkpt>
      <trkpt lat="43.53961" lon="2.48484">
        <ele>624.907</ele>
        <time>2021-05-22T09:31:24Z</time>
      </trkpt>
      <trkpt lat="43.5396" lon="2.48484">
        <ele>626.032</ele>
        <time>2021-05-22T09:31:26Z</time>
      </trkpt>
      <trkpt lat="43.53959" lon="2.48483">
        <ele>626.946</ele>
        <time>2021-05-22T09:31:28Z</time>
      </trkpt>
      <trkpt lat="43.53959" lon="2.48483">
        <ele>626.969</ele>
        <time>2021-05-22T09:31:30Z</time>
      </trkpt>
      <trkpt lat="43.53959" lon="2.48483">
        <ele>627.582</ele>
        <time>2021-05-22T09:31:32Z</time>
      </trkpt>
      <trkpt lat="43.53958" lon="2.48484">
        <ele>629.019</ele>
        <time>2021-05-22T09:31:34Z</time>
      </trkpt>
      <trkpt lat="43.53957" lon="2.48485">
        <ele>629.285</ele>
        <time>2021-05-22T09:31:36Z</time>
      </trkpt>
      <trkpt lat="43.53958" lon="2.48485">
        <ele>629.291</ele>
        <time>2021-05-22T09:31:38Z</time>
      </trkpt>
      <trkpt lat="43.53958" lon="2.48485">
        <ele>629.271</ele>
        <time>2021-05-22T09:31:40Z</time>
      </trkpt>
      <trkpt lat="43.53958" lon="2.48485">
        <ele>629.264</ele>
        <time>2021-05-22T09:31:42Z</time>
      </trkpt>
      <trkpt lat="43.53958" lon="2.48485">
        <ele>629.3</ele>
        <time>2021-05-22T09:31:44Z</time>
      </trkpt>
      <trkpt lat="43.53958" lon="2.48485">
        <ele>629.339</ele>
        <time>2021-05-22T09:31:46Z</time>
      </trkpt>
      <trkpt lat="43.53958" lon="2.48485">
        <ele>629.363</ele>
        <time>2021-05-22T09:31:48Z</time>
      </trkpt>
      <trkpt lat="43.53958" lon="2.48484">
        <ele>629.369</ele>
        <time>2021-05-22T09:31:50Z</time>
      </trkpt>
      <trkpt lat="43.53958" lon="2.48484">
        <ele>629.208</ele>
        <time>2021-05-22T09:31:52Z</time>
      </trkpt>
      <trkpt lat="43.53955" lon="2.48479">
        <ele>629.968</ele>
        <time>2021-05-22T09:31:54Z</time>
      </trkpt>
      <trkpt lat="43.53954" lon="2.48479">
        <ele>629.736</ele>
        <time>2021-05-22T09:31:56Z</time>
      </trkpt>
      <trkpt lat="43.53956" lon="2.48482">
        <ele>630.392</ele>
        <time>2021-05-22T09:31:58Z</time>
      </trkpt>
      <trkpt lat="43.53954" lon="2.48486">
        <ele>631.749</ele>
        <time>2021-05-22T09:32:00Z</time>
      </trkpt>
      <trkpt lat="43.53954" lon="2.48489">
        <ele>631.831</ele>
        <time>2021-05-22T09:32:02Z</time>
      </trkpt>
      <trkpt lat="43.53955" lon="2.48492">
        <ele>631.648</ele>
        <time>2021-05-22T09:32:04Z</time>
      </trkpt>
      <trkpt lat="43.53955" lon="2.48495">
        <ele>630.597</ele>
        <time>2021-05-22T09:32:06Z</time>
      </trkpt>
      <trkpt lat="43.53955" lon="2.48498">
        <ele>629.529</ele>
        <time>2021-05-22T09:32:08Z</time>
      </trkpt>
      <trkpt lat="43.53955" lon="2.485">
        <ele>629.702</ele>
        <time>2021-05-22T09:32:10Z</time>
      </trkpt>
      <trkpt lat="43.53954" lon="2.48504">
        <ele>629.676</ele>
        <time>2021-05-22T09:32:12Z</time>
      </trkpt>
      <trkpt lat="43.53955" lon="2.48506">
        <ele>628.703</ele>
        <time>2021-05-22T09:32:14Z</time>
      </trkpt>
      <trkpt lat="43.53955" lon="2.4851">
        <ele>628.188</ele>
        <time>2021-05-22T09:32:16Z</time>
      </trkpt>
      <trkpt lat="43.53955" lon="2.48512">
        <ele>630.056</ele>
        <time>2021-05-22T09:32:18Z</time>
      </trkpt>
      <trkpt lat="43.53957" lon="2.48513">
        <ele>627.615</ele>
        <time>2021-05-22T09:32:20Z</time>
      </trkpt>
      <trkpt lat="43.53959" lon="2.48514">
        <ele>627.512</ele>
        <time>2021-05-22T09:32:22Z</time>
      </trkpt>
      <trkpt lat="43.5396" lon="2.48514">
        <ele>627.414</ele>
        <time>2021-05-22T09:32:24Z</time>
      </trkpt>
      <trkpt lat="43.53962" lon="2.48514">
        <ele>628.358</ele>
        <time>2021-05-22T09:32:26Z</time>
      </trkpt>
      <trkpt lat="43.53964" lon="2.48514">
        <ele>627.565</ele>
        <time>2021-05-22T09:32:28Z</time>
      </trkpt>
      <trkpt lat="43.53966" lon="2.48514">
        <ele>627.293</ele>
        <time>2021-05-22T09:32:30Z</time>
      </trkpt>
      <trkpt lat="43.53962" lon="2.48514">
        <ele>628.24</ele>
        <time>2021-05-22T09:32:32Z</time>
      </trkpt>
      <trkpt lat="43.53962" lon="2.48513">
        <ele>628.239</ele>
        <time>2021-05-22T09:32:34Z</time>
      </trkpt>
      <trkpt lat="43.53965" lon="2.48513">
        <ele>628.742</ele>
        <time>2021-05-22T09:32:36Z</time>
      </trkpt>
      <trkpt lat="43.53965" lon="2.48512">
        <ele>628.444</ele>
        <time>2021-05-22T09:32:38Z</time>
      </trkpt>
      <trkpt lat="43.53964" lon="2.48512">
        <ele>628.161</ele>
        <time>2021-05-22T09:32:40Z</time>
      </trkpt>
      <trkpt lat="43.53961" lon="2.48511">
        <ele>628.785</ele>
        <time>2021-05-22T09:32:42Z</time>
      </trkpt>
      <trkpt lat="43.53955" lon="2.48509">
        <ele>634.013</ele>
        <time>2021-05-22T09:32:44Z</time>
      </trkpt>
      <trkpt lat="43.53951" lon="2.48509">
        <ele>634.572</ele>
        <time>2021-05-22T09:32:46Z</time>
      </trkpt>
      <trkpt lat="43.53949" lon="2.48511">
        <ele>634.493</ele>
        <time>2021-05-22T09:32:48Z</time>
      </trkpt>
      <trkpt lat="43.53948" lon="2.48515">
        <ele>636.139</ele>
        <time>2021-05-22T09:32:50Z</time>
      </trkpt>
      <trkpt lat="43.53948" lon="2.4852">
        <ele>637.666</ele>
        <time>2021-05-22T09:32:52Z</time>
      </trkpt>
      <trkpt lat="43.53948" lon="2.48524">
        <ele>637.746</ele>
        <time>2021-05-22T09:32:54Z</time>
      </trkpt>
      <trkpt lat="43.53949" lon="2.48527">
        <ele>638.312</ele>
        <time>2021-05-22T09:32:56Z</time>
      </trkpt>
      <trkpt lat="43.53949" lon="2.4853">
        <ele>636.838</ele>
        <time>2021-05-22T09:32:58Z</time>
      </trkpt>
      <trkpt lat="43.5395" lon="2.48532">
        <ele>635.215</ele>
        <time>2021-05-22T09:33:00Z</time>
      </trkpt>
      <trkpt lat="43.5395" lon="2.48534">
        <ele>632.621</ele>
        <time>2021-05-22T09:33:02Z</time>
      </trkpt>
      <trkpt lat="43.5395" lon="2.48537">
        <ele>632.365</ele>
        <time>2021-05-22T09:33:04Z</time>
      </trkpt>
      <trkpt lat="43.53949" lon="2.4854">
        <ele>633.801</ele>
        <time>2021-05-22T09:33:06Z</time>
      </trkpt>
      <trkpt lat="43.53949" lon="2.48543">
        <ele>632.599</ele>
        <time>2021-05-22T09:33:08Z</time>
      </trkpt>
      <trkpt lat="43.5395" lon="2.48546">
        <ele>631.232</ele>
        <time>2021-05-22T09:33:10Z</time>
      </trkpt>
      <trkpt lat="43.5395" lon="2.48549">
        <ele>630.453</ele>
        <time>2021-05-22T09:33:12Z</time>
      </trkpt>
      <trkpt lat="43.5395" lon="2.48552">
        <ele>630.598</ele>
        <time>2021-05-22T09:33:14Z</time>
      </trkpt>
      <trkpt lat="43.53949" lon="2.48556">
        <ele>629.386</ele>
        <time>2021-05-22T09:33:16Z</time>
      </trkpt>
      <trkpt lat="43.5395" lon="2.48559">
        <ele>628.932</ele>
        <time>2021-05-22T09:33:18Z</time>
      </trkpt>
      <trkpt lat="43.53951" lon="2.48562">
        <ele>628.082</ele>
        <time>2021-05-22T09:33:20Z</time>
      </trkpt>
      <trkpt lat="43.53952" lon="2.48565">
        <ele>627.797</ele>
        <time>2021-05-22T09:33:22Z</time>
      </trkpt>
      <trkpt lat="43.53952" lon="2.48568">
        <ele>627.242</ele>
        <time>2021-05-22T09:33:24Z</time>
      </trkpt>
      <trkpt lat="43.53952" lon="2.48571">
        <ele>626.789</ele>
        <time>2021-05-22T09:33:26Z</time>
      </trkpt>
      <trkpt lat="43.53952" lon="2.48574">
        <ele>627.434</ele>
        <time>2021-05-22T09:33:28Z</time>
      </trkpt>
      <trkpt lat="43.53951" lon="2.48578">
        <ele>628.277</ele>
        <time>2021-05-22T09:33:30Z</time>
      </trkpt>
      <trkpt lat="43.53951" lon="2.48581">
        <ele>628.492</ele>
        <time>2021-05-22T09:33:32Z</time>
      </trkpt>
      <trkpt lat="43.5395" lon="2.48584">
        <ele>628.006</ele>
        <time>2021-05-22T09:33:34Z</time>
      </trkpt>
      <trkpt lat="43.5395" lon="2.48586">
        <ele>627.201</ele>
        <time>2021-05-22T09:33:36Z</time>
      </trkpt>
      <trkpt lat="43.5395" lon="2.48589">
        <ele>627.468</ele>
        <time>2021-05-22T09:33:38Z</time>
      </trkpt>
      <trkpt lat="43.53951" lon="2.48593">
        <ele>627.454</ele>
        <time>2021-05-22T09:33:40Z</time>
      </trkpt>
      <trkpt lat="43.53951" lon="2.48597">
        <ele>627.643</ele>
        <time>2021-05-22T09:33:42Z</time>
      </trkpt>
      <trkpt lat="43.53951" lon="2.486">
        <ele>625.725</ele>
        <time>2021-05-22T09:33:44Z</time>
      </trkpt>
      <trkpt lat="43.5395" lon="2.48604">
        <ele>625.548</ele>
        <time>2021-05-22T09:33:46Z</time>
      </trkpt>
      <trkpt lat="43.5395" lon="2.48608">
        <ele>624.812</ele>
        <time>2021-05-22T09:33:48Z</time>
      </trkpt>
      <trkpt lat="43.53949" lon="2.48611">
        <ele>624.308</ele>
        <time>2021-05-22T09:33:50Z</time>
      </trkpt>
      <trkpt lat="43.53949" lon="2.48614">
        <ele>625.509</ele>
        <time>2021-05-22T09:33:52Z</time>
      </trkpt>
      <trkpt lat="43.53948" lon="2.48617">
        <ele>625.142</ele>
        <time>2021-05-22T09:33:54Z</time>
      </trkpt>
      <trkpt lat="43.53947" lon="2.48621">
        <ele>624.971</ele>
        <time>2021-05-22T09:33:56Z</time>
      </trkpt>
      <trkpt lat="43.53947" lon="2.48624">
        <ele>625.236</ele>
        <time>2021-05-22T09:33:58Z</time>
      </trkpt>
      <trkpt lat="43.53946" lon="2.48628">
        <ele>625.12</ele>
        <time>2021-05-22T09:34:00Z</time>
      </trkpt>
      <trkpt lat="43.53945" lon="2.48631">
        <ele>625.362</ele>
        <time>2021-05-22T09:34:02Z</time>
      </trkpt>
      <trkpt lat="43.53944" lon="2.48634">
        <ele>625.475</ele>
        <time>2021-05-22T09:34:04Z</time>
      </trkpt>
      <trkpt lat="43.53944" lon="2.48638">
        <ele>626.031</ele>
        <time>2021-05-22T09:34:06Z</time>
      </trkpt>
      <trkpt lat="43.53943" lon="2.48641">
        <ele>627.717</ele>
        <time>2021-05-22T09:34:08Z</time>
      </trkpt>
      <trkpt lat="43.53943" lon="2.48644">
        <ele>627.49</ele>
        <time>2021-05-22T09:34:10Z</time>
      </trkpt>
      <trkpt lat="43.53943" lon="2.48646">
        <ele>628.287</ele>
        <time>2021-05-22T09:34:12Z</time>
      </trkpt>
      <trkpt lat="43.53942" lon="2.4865">
        <ele>627.434</ele>
        <time>2021-05-22T09:34:14Z</time>
      </trkpt>
      <trkpt lat="43.53943" lon="2.48654">
        <ele>626.459</ele>
        <time>2021-05-22T09:34:16Z</time>
      </trkpt>
      <trkpt lat="43.53944" lon="2.48657">
        <ele>625.782</ele>
        <time>2021-05-22T09:34:18Z</time>
      </trkpt>
      <trkpt lat="43.53943" lon="2.48661">
        <ele>624.922</ele>
        <time>2021-05-22T09:34:20Z</time>
      </trkpt>
      <trkpt lat="43.53943" lon="2.48665">
        <ele>624.01</ele>
        <time>2021-05-22T09:34:22Z</time>
      </trkpt>
      <trkpt lat="43.53944" lon="2.48667">
        <ele>622.849</ele>
        <time>2021-05-22T09:34:24Z</time>
      </trkpt>
      <trkpt lat="43.53944" lon="2.48669">
        <ele>620.677</ele>
        <time>2021-05-22T09:34:26Z</time>
      </trkpt>
      <trkpt lat="43.53943" lon="2.48672">
        <ele>620.921</ele>
        <time>2021-05-22T09:34:28Z</time>
      </trkpt>
      <trkpt lat="43.53943" lon="2.48674">
        <ele>620.03</ele>
        <time>2021-05-22T09:34:30Z</time>
      </trkpt>
      <trkpt lat="43.53943" lon="2.48677">
        <ele>620.328</ele>
        <time>2021-05-22T09:34:32Z</time>
      </trkpt>
      <trkpt lat="43.53942" lon="2.4868">
        <ele>622.207</ele>
        <time>2021-05-22T09:34:34Z</time>
      </trkpt>
      <trkpt lat="43.53942" lon="2.48682">
        <ele>622.859</ele>
        <time>2021-05-22T09:34:36Z</time>
      </trkpt>
      <trkpt lat="43.53941" lon="2.48685">
        <ele>624.125</ele>
        <time>2021-05-22T09:34:38Z</time>
      </trkpt>
      <trkpt lat="43.53941" lon="2.48688">
        <ele>625.032</ele>
        <time>2021-05-22T09:34:40Z</time>
      </trkpt>
      <trkpt lat="43.5394" lon="2.4869">
        <ele>624.869</ele>
        <time>2021-05-22T09:34:42Z</time>
      </trkpt>
      <trkpt lat="43.5394" lon="2.48694">
        <ele>623.665</ele>
        <time>2021-05-22T09:34:44Z</time>
      </trkpt>
      <trkpt lat="43.5394" lon="2.48696">
        <ele>623.243</ele>
        <time>2021-05-22T09:34:46Z</time>
      </trkpt>
      <trkpt lat="43.5394" lon="2.48699">
        <ele>622.565</ele>
        <time>2021-05-22T09:34:48Z</time>
      </trkpt>
      <trkpt lat="43.5394" lon="2.48701">
        <ele>622.902</ele>
        <time>2021-05-22T09:34:50Z</time>
      </trkpt>
      <trkpt lat="43.53939" lon="2.48704">
        <ele>623.422</ele>
        <time>2021-05-22T09:34:52Z</time>
      </trkpt>
      <trkpt lat="43.53939" lon="2.48707">
        <ele>623.399</ele>
        <time>2021-05-22T09:34:54Z</time>
      </trkpt>
      <trkpt lat="43.53938" lon="2.4871">
        <ele>624.22</ele>
        <time>2021-05-22T09:34:56Z</time>
      </trkpt>
      <trkpt lat="43.53938" lon="2.48712">
        <ele>622.815</ele>
        <time>2021-05-22T09:34:58Z</time>
      </trkpt>
      <trkpt lat="43.53937" lon="2.48715">
        <ele>622.631</ele>
        <time>2021-05-22T09:35:00Z</time>
      </trkpt>
      <trkpt lat="43.53937" lon="2.48718">
        <ele>622.967</ele>
        <time>2021-05-22T09:35:02Z</time>
      </trkpt>
      <trkpt lat="43.53936" lon="2.48721">
        <ele>622.625</ele>
        <time>2021-05-22T09:35:04Z</time>
      </trkpt>
      <trkpt lat="43.53935" lon="2.48723">
        <ele>622.018</ele>
        <time>2021-05-22T09:35:06Z</time>
      </trkpt>
      <trkpt lat="43.53934" lon="2.48725">
        <ele>623.012</ele>
        <time>2021-05-22T09:35:08Z</time>
      </trkpt>
      <trkpt lat="43.53933" lon="2.48728">
        <ele>622.605</ele>
        <time>2021-05-22T09:35:10Z</time>
      </trkpt>
      <trkpt lat="43.53932" lon="2.48731">
        <ele>622.094</ele>
        <time>2021-05-22T09:35:12Z</time>
      </trkpt>
      <trkpt lat="43.53932" lon="2.48734">
        <ele>622.378</ele>
        <time>2021-05-22T09:35:14Z</time>
      </trkpt>
      <trkpt lat="43.53931" lon="2.48737">
        <ele>623.011</ele>
        <time>2021-05-22T09:35:16Z</time>
      </trkpt>
      <trkpt lat="43.5393" lon="2.48739">
        <ele>623.562</ele>
        <time>2021-05-22T09:35:18Z</time>
      </trkpt>
      <trkpt lat="43.5393" lon="2.48742">
        <ele>624.108</ele>
        <time>2021-05-22T09:35:20Z</time>
      </trkpt>
      <trkpt lat="43.53929" lon="2.48745">
        <ele>625.085</ele>
        <time>2021-05-22T09:35:22Z</time>
      </trkpt>
      <trkpt lat="43.53929" lon="2.48748">
        <ele>624.54</ele>
        <time>2021-05-22T09:35:24Z</time>
      </trkpt>
      <trkpt lat="43.53929" lon="2.48751">
        <ele>624.055</ele>
        <time>2021-05-22T09:35:26Z</time>
      </trkpt>
      <trkpt lat="43.53929" lon="2.48753">
        <ele>624.38</ele>
        <time>2021-05-22T09:35:28Z</time>
      </trkpt>
      <trkpt lat="43.53928" lon="2.48755">
        <ele>625.341</ele>
        <time>2021-05-22T09:35:30Z</time>
      </trkpt>
      <trkpt lat="43.53928" lon="2.48757">
        <ele>627.062</ele>
        <time>2021-05-22T09:35:32Z</time>
      </trkpt>
      <trkpt lat="43.53927" lon="2.48759">
        <ele>628.86</ele>
        <time>2021-05-22T09:35:34Z</time>
      </trkpt>
      <trkpt lat="43.53926" lon="2.48762">
        <ele>629.89</ele>
        <time>2021-05-22T09:35:36Z</time>
      </trkpt>
      <trkpt lat="43.53926" lon="2.48765">
        <ele>629.256</ele>
        <time>2021-05-22T09:35:38Z</time>
      </trkpt>
      <trkpt lat="43.53925" lon="2.48767">
        <ele>630.716</ele>
        <time>2021-05-22T09:35:40Z</time>
      </trkpt>
      <trkpt lat="43.53924" lon="2.4877">
        <ele>630.9</ele>
        <time>2021-05-22T09:35:42Z</time>
      </trkpt>
      <trkpt lat="43.53924" lon="2.48772">
        <ele>630.159</ele>
        <time>2021-05-22T09:35:44Z</time>
      </trkpt>
      <trkpt lat="43.53924" lon="2.48775">
        <ele>629.78</ele>
        <time>2021-05-22T09:35:46Z</time>
      </trkpt>
      <trkpt lat="43.53923" lon="2.48778">
        <ele>629.271</ele>
        <time>2021-05-22T09:35:48Z</time>
      </trkpt>
      <trkpt lat="43.53923" lon="2.48781">
        <ele>629.555</ele>
        <time>2021-05-22T09:35:50Z</time>
      </trkpt>
      <trkpt lat="43.53923" lon="2.48783">
        <ele>628.432</ele>
        <time>2021-05-22T09:35:52Z</time>
      </trkpt>
      <trkpt lat="43.53923" lon="2.48787">
        <ele>629.05</ele>
        <time>2021-05-22T09:35:55Z</time>
      </trkpt>
      <trkpt lat="43.53923" lon="2.48789">
        <ele>629.359</ele>
        <time>2021-05-22T09:35:57Z</time>
      </trkpt>
      <trkpt lat="43.53922" lon="2.48791">
        <ele>629.971</ele>
        <time>2021-05-22T09:35:59Z</time>
      </trkpt>
      <trkpt lat="43.53922" lon="2.48794">
        <ele>630.687</ele>
        <time>2021-05-22T09:36:01Z</time>
      </trkpt>
      <trkpt lat="43.53921" lon="2.48796">
        <ele>630.766</ele>
        <time>2021-05-22T09:36:03Z</time>
      </trkpt>
      <trkpt lat="43.53919" lon="2.488">
        <ele>631.297</ele>
        <time>2021-05-22T09:36:05Z</time>
      </trkpt>
      <trkpt lat="43.53918" lon="2.48802">
        <ele>632.434</ele>
        <time>2021-05-22T09:36:07Z</time>
      </trkpt>
      <trkpt lat="43.53918" lon="2.48804">
        <ele>632.826</ele>
        <time>2021-05-22T09:36:09Z</time>
      </trkpt>
      <trkpt lat="43.53918" lon="2.48807">
        <ele>632.745</ele>
        <time>2021-05-22T09:36:11Z</time>
      </trkpt>
      <trkpt lat="43.53918" lon="2.4881">
        <ele>632.815</ele>
        <time>2021-05-22T09:36:13Z</time>
      </trkpt>
      <trkpt lat="43.53918" lon="2.48812">
        <ele>633.374</ele>
        <time>2021-05-22T09:36:15Z</time>
      </trkpt>
      <trkpt lat="43.53917" lon="2.48815">
        <ele>633.896</ele>
        <time>2021-05-22T09:36:17Z</time>
      </trkpt>
      <trkpt lat="43.53916" lon="2.48818">
        <ele>633.749</ele>
        <time>2021-05-22T09:36:19Z</time>
      </trkpt>
      <trkpt lat="43.53915" lon="2.4882">
        <ele>634.822</ele>
        <time>2021-05-22T09:36:21Z</time>
      </trkpt>
      <trkpt lat="43.53914" lon="2.48823">
        <ele>635.487</ele>
        <time>2021-05-22T09:36:23Z</time>
      </trkpt>
      <trkpt lat="43.53913" lon="2.48825">
        <ele>636.359</ele>
        <time>2021-05-22T09:36:25Z</time>
      </trkpt>
      <trkpt lat="43.53912" lon="2.48828">
        <ele>637.169</ele>
        <time>2021-05-22T09:36:27Z</time>
      </trkpt>
      <trkpt lat="43.53911" lon="2.48829">
        <ele>638.938</ele>
        <time>2021-05-22T09:36:29Z</time>
      </trkpt>
      <trkpt lat="43.5391" lon="2.48831">
        <ele>639.714</ele>
        <time>2021-05-22T09:36:31Z</time>
      </trkpt>
      <trkpt lat="43.53909" lon="2.48834">
        <ele>640.494</ele>
        <time>2021-05-22T09:36:33Z</time>
      </trkpt>
      <trkpt lat="43.53909" lon="2.48836">
        <ele>641.147</ele>
        <time>2021-05-22T09:36:35Z</time>
      </trkpt>
      <trkpt lat="43.53908" lon="2.48839">
        <ele>640.915</ele>
        <time>2021-05-22T09:36:37Z</time>
      </trkpt>
      <trkpt lat="43.53907" lon="2.48841">
        <ele>641.517</ele>
        <time>2021-05-22T09:36:39Z</time>
      </trkpt>
      <trkpt lat="43.53906" lon="2.48844">
        <ele>641.345</ele>
        <time>2021-05-22T09:36:41Z</time>
      </trkpt>
      <trkpt lat="43.53906" lon="2.48847">
        <ele>640.475</ele>
        <time>2021-05-22T09:36:43Z</time>
      </trkpt>
      <trkpt lat="43.53905" lon="2.48851">
        <ele>640.262</ele>
        <time>2021-05-22T09:36:45Z</time>
      </trkpt>
      <trkpt lat="43.53905" lon="2.48854">
        <ele>639.727</ele>
        <time>2021-05-22T09:36:47Z</time>
      </trkpt>
      <trkpt lat="43.53903" lon="2.48855">
        <ele>640.539</ele>
        <time>2021-05-22T09:36:49Z</time>
      </trkpt>
      <trkpt lat="43.53904" lon="2.48858">
        <ele>639.728</ele>
        <time>2021-05-22T09:36:51Z</time>
      </trkpt>
      <trkpt lat="43.53904" lon="2.4886">
        <ele>639.936</ele>
        <time>2021-05-22T09:36:53Z</time>
      </trkpt>
      <trkpt lat="43.53903" lon="2.48861">
        <ele>640.132</ele>
        <time>2021-05-22T09:36:54Z</time>
      </trkpt>
      <trkpt lat="43.53902" lon="2.48863">
        <ele>640.963</ele>
        <time>2021-05-22T09:36:57Z</time>
      </trkpt>
      <trkpt lat="43.53901" lon="2.48865">
        <ele>641.186</ele>
        <time>2021-05-22T09:36:59Z</time>
      </trkpt>
      <trkpt lat="43.539" lon="2.48867">
        <ele>641.494</ele>
        <time>2021-05-22T09:37:01Z</time>
      </trkpt>
      <trkpt lat="43.53899" lon="2.48869">
        <ele>642.724</ele>
        <time>2021-05-22T09:37:03Z</time>
      </trkpt>
      <trkpt lat="43.53897" lon="2.48871">
        <ele>643.339</ele>
        <time>2021-05-22T09:37:05Z</time>
      </trkpt>
      <trkpt lat="43.53898" lon="2.48873">
        <ele>642.518</ele>
        <time>2021-05-22T09:37:07Z</time>
      </trkpt>
      <trkpt lat="43.53898" lon="2.48874">
        <ele>641.902</ele>
        <time>2021-05-22T09:37:09Z</time>
      </trkpt>
      <trkpt lat="43.53898" lon="2.48874">
        <ele>641.846</ele>
        <time>2021-05-22T09:37:11Z</time>
      </trkpt>
      <trkpt lat="43.53895" lon="2.48877">
        <ele>644.289</ele>
        <time>2021-05-22T09:37:13Z</time>
      </trkpt>
      <trkpt lat="43.53893" lon="2.48879">
        <ele>646.095</ele>
        <time>2021-05-22T09:37:15Z</time>
      </trkpt>
      <trkpt lat="43.53894" lon="2.4888">
        <ele>645.735</ele>
        <time>2021-05-22T09:37:17Z</time>
      </trkpt>
      <trkpt lat="43.53894" lon="2.48881">
        <ele>645.446</ele>
        <time>2021-05-22T09:37:19Z</time>
      </trkpt>
      <trkpt lat="43.53894" lon="2.4888">
        <ele>646.05</ele>
        <time>2021-05-22T09:37:21Z</time>
      </trkpt>
      <trkpt lat="43.53893" lon="2.48881">
        <ele>646.147</ele>
        <time>2021-05-22T09:37:23Z</time>
      </trkpt>
      <trkpt lat="43.53892" lon="2.4888">
        <ele>648.233</ele>
        <time>2021-05-22T09:37:25Z</time>
      </trkpt>
      <trkpt lat="43.53892" lon="2.48879">
        <ele>650.426</ele>
        <time>2021-05-22T09:37:27Z</time>
      </trkpt>
      <trkpt lat="43.53891" lon="2.4888">
        <ele>651.727</ele>
        <time>2021-05-22T09:37:29Z</time>
      </trkpt>
      <trkpt lat="43.5389" lon="2.48881">
        <ele>652.226</ele>
        <time>2021-05-22T09:37:31Z</time>
      </trkpt>
      <trkpt lat="43.5389" lon="2.48881">
        <ele>652.286</ele>
        <time>2021-05-22T09:37:33Z</time>
      </trkpt>
      <trkpt lat="43.5389" lon="2.48881">
        <ele>652.331</ele>
        <time>2021-05-22T09:37:35Z</time>
      </trkpt>
      <trkpt lat="43.53889" lon="2.48882">
        <ele>652.371</ele>
        <time>2021-05-22T09:37:37Z</time>
      </trkpt>
      <trkpt lat="43.53889" lon="2.48882">
        <ele>652.37</ele>
        <time>2021-05-22T09:37:39Z</time>
      </trkpt>
      <trkpt lat="43.53889" lon="2.48882">
        <ele>652.367</ele>
        <time>2021-05-22T09:37:41Z</time>
      </trkpt>
      <trkpt lat="43.53889" lon="2.48882">
        <ele>652.372</ele>
        <time>2021-05-22T09:37:43Z</time>
      </trkpt>
      <trkpt lat="43.53889" lon="2.48882">
        <ele>652.38</ele>
        <time>2021-05-22T09:37:45Z</time>
      </trkpt>
      <trkpt lat="43.53889" lon="2.48882">
        <ele>652.389</ele>
        <time>2021-05-22T09:37:47Z</time>
      </trkpt>
      <trkpt lat="43.53888" lon="2.48882">
        <ele>653.47</ele>
        <time>2021-05-22T09:37:49Z</time>
      </trkpt>
      <trkpt lat="43.53888" lon="2.48882">
        <ele>653.394</ele>
        <time>2021-05-22T09:37:51Z</time>
      </trkpt>
      <trkpt lat="43.53888" lon="2.48882">
        <ele>653.405</ele>
        <time>2021-05-22T09:37:53Z</time>
      </trkpt>
      <trkpt lat="43.53888" lon="2.48882">
        <ele>653.405</ele>
        <time>2021-05-22T09:37:55Z</time>
      </trkpt>
      <trkpt lat="43.53888" lon="2.48882">
        <ele>653.406</ele>
        <time>2021-05-22T09:37:57Z</time>
      </trkpt>
      <trkpt lat="43.53887" lon="2.48882">
        <ele>654.185</ele>
        <time>2021-05-22T09:37:59Z</time>
      </trkpt>
      <trkpt lat="43.53887" lon="2.48882">
        <ele>654.176</ele>
        <time>2021-05-22T09:38:01Z</time>
      </trkpt>
      <trkpt lat="43.53887" lon="2.48882">
        <ele>654.173</ele>
        <time>2021-05-22T09:38:03Z</time>
      </trkpt>
      <trkpt lat="43.53886" lon="2.48883">
        <ele>655.463</ele>
        <time>2021-05-22T09:38:05Z</time>
      </trkpt>
      <trkpt lat="43.53885" lon="2.48883">
        <ele>656.431</ele>
        <time>2021-05-22T09:38:07Z</time>
      </trkpt>
      <trkpt lat="43.53884" lon="2.48885">
        <ele>657.054</ele>
        <time>2021-05-22T09:38:09Z</time>
      </trkpt>
      <trkpt lat="43.53883" lon="2.48887">
        <ele>657.168</ele>
        <time>2021-05-22T09:38:11Z</time>
      </trkpt>
      <trkpt lat="43.53883" lon="2.48889">
        <ele>658.362</ele>
        <time>2021-05-22T09:38:13Z</time>
      </trkpt>
      <trkpt lat="43.53882" lon="2.48891">
        <ele>657.693</ele>
        <time>2021-05-22T09:38:15Z</time>
      </trkpt>
      <trkpt lat="43.53881" lon="2.48892">
        <ele>658.96</ele>
        <time>2021-05-22T09:38:17Z</time>
      </trkpt>
      <trkpt lat="43.5388" lon="2.48894">
        <ele>659.683</ele>
        <time>2021-05-22T09:38:19Z</time>
      </trkpt>
      <trkpt lat="43.53879" lon="2.48896">
        <ele>659.994</ele>
        <time>2021-05-22T09:38:21Z</time>
      </trkpt>
      <trkpt lat="43.53878" lon="2.48897">
        <ele>660.773</ele>
        <time>2021-05-22T09:38:23Z</time>
      </trkpt>
      <trkpt lat="43.53877" lon="2.48899">
        <ele>661.595</ele>
        <time>2021-05-22T09:38:25Z</time>
      </trkpt>
      <trkpt lat="43.53875" lon="2.489">
        <ele>661.156</ele>
        <time>2021-05-22T09:38:27Z</time>
      </trkpt>
      <trkpt lat="43.53875" lon="2.48902">
        <ele>660.479</ele>
        <time>2021-05-22T09:38:29Z</time>
      </trkpt>
      <trkpt lat="43.53874" lon="2.48905">
        <ele>660.998</ele>
        <time>2021-05-22T09:38:31Z</time>
      </trkpt>
      <trkpt lat="43.53874" lon="2.48906">
        <ele>661.358</ele>
        <time>2021-05-22T09:38:33Z</time>
      </trkpt>
      <trkpt lat="43.53874" lon="2.48908">
        <ele>662.523</ele>
        <time>2021-05-22T09:38:35Z</time>
      </trkpt>
      <trkpt lat="43.53873" lon="2.4891">
        <ele>663.144</ele>
        <time>2021-05-22T09:38:37Z</time>
      </trkpt>
      <trkpt lat="43.53873" lon="2.48911">
        <ele>663.329</ele>
        <time>2021-05-22T09:38:39Z</time>
      </trkpt>
      <trkpt lat="43.53872" lon="2.48914">
        <ele>663.596</ele>
        <time>2021-05-22T09:38:41Z</time>
      </trkpt>
      <trkpt lat="43.53871" lon="2.48916">
        <ele>663.662</ele>
        <time>2021-05-22T09:38:43Z</time>
      </trkpt>
      <trkpt lat="43.53869" lon="2.48917">
        <ele>664.664</ele>
        <time>2021-05-22T09:38:45Z</time>
      </trkpt>
      <trkpt lat="43.53868" lon="2.4892">
        <ele>664.049</ele>
        <time>2021-05-22T09:38:47Z</time>
      </trkpt>
      <trkpt lat="43.53867" lon="2.48922">
        <ele>664.322</ele>
        <time>2021-05-22T09:38:49Z</time>
      </trkpt>
      <trkpt lat="43.53866" lon="2.48925">
        <ele>664.885</ele>
        <time>2021-05-22T09:38:51Z</time>
      </trkpt>
      <trkpt lat="43.53865" lon="2.48928">
        <ele>665.516</ele>
        <time>2021-05-22T09:38:53Z</time>
      </trkpt>
      <trkpt lat="43.53864" lon="2.48931">
        <ele>666.365</ele>
        <time>2021-05-22T09:38:55Z</time>
      </trkpt>
      <trkpt lat="43.53864" lon="2.48935">
        <ele>665.724</ele>
        <time>2021-05-22T09:38:57Z</time>
      </trkpt>
      <trkpt lat="43.53863" lon="2.48938">
        <ele>667.421</ele>
        <time>2021-05-22T09:38:59Z</time>
      </trkpt>
      <trkpt lat="43.53861" lon="2.48941">
        <ele>668.424</ele>
        <time>2021-05-22T09:39:01Z</time>
      </trkpt>
      <trkpt lat="43.53859" lon="2.48944">
        <ele>669.736</ele>
        <time>2021-05-22T09:39:03Z</time>
      </trkpt>
      <trkpt lat="43.53857" lon="2.48945">
        <ele>670.009</ele>
        <time>2021-05-22T09:39:05Z</time>
      </trkpt>
      <trkpt lat="43.53856" lon="2.48943">
        <ele>671.037</ele>
        <time>2021-05-22T09:39:07Z</time>
      </trkpt>
      <trkpt lat="43.53855" lon="2.48942">
        <ele>672.911</ele>
        <time>2021-05-22T09:39:09Z</time>
      </trkpt>
      <trkpt lat="43.53853" lon="2.48943">
        <ele>675.652</ele>
        <time>2021-05-22T09:39:11Z</time>
      </trkpt>
      <trkpt lat="43.53853" lon="2.48946">
        <ele>675.564</ele>
        <time>2021-05-22T09:39:13Z</time>
      </trkpt>
      <trkpt lat="43.53853" lon="2.48949">
        <ele>674.832</ele>
        <time>2021-05-22T09:39:15Z</time>
      </trkpt>
      <trkpt lat="43.53853" lon="2.48952">
        <ele>674.032</ele>
        <time>2021-05-22T09:39:17Z</time>
      </trkpt>
      <trkpt lat="43.53854" lon="2.48955">
        <ele>673.244</ele>
        <time>2021-05-22T09:39:19Z</time>
      </trkpt>
      <trkpt lat="43.53855" lon="2.48958">
        <ele>673.264</ele>
        <time>2021-05-22T09:39:21Z</time>
      </trkpt>
      <trkpt lat="43.53857" lon="2.4896">
        <ele>673.59</ele>
        <time>2021-05-22T09:39:23Z</time>
      </trkpt>
      <trkpt lat="43.53859" lon="2.4896">
        <ele>674.453</ele>
        <time>2021-05-22T09:39:25Z</time>
      </trkpt>
      <trkpt lat="43.5386" lon="2.48958">
        <ele>672.566</ele>
        <time>2021-05-22T09:39:27Z</time>
      </trkpt>
      <trkpt lat="43.53861" lon="2.48957">
        <ele>673.047</ele>
        <time>2021-05-22T09:39:29Z</time>
      </trkpt>
      <trkpt lat="43.53863" lon="2.48957">
        <ele>673.028</ele>
        <time>2021-05-22T09:39:31Z</time>
      </trkpt>
      <trkpt lat="43.53864" lon="2.48955">
        <ele>672.923</ele>
        <time>2021-05-22T09:39:33Z</time>
      </trkpt>
      <trkpt lat="43.53865" lon="2.48953">
        <ele>672.482</ele>
        <time>2021-05-22T09:39:35Z</time>
      </trkpt>
      <trkpt lat="43.53866" lon="2.48951">
        <ele>671.951</ele>
        <time>2021-05-22T09:39:37Z</time>
      </trkpt>
      <trkpt lat="43.53867" lon="2.48953">
        <ele>671.658</ele>
        <time>2021-05-22T09:39:39Z</time>
      </trkpt>
      <trkpt lat="43.53866" lon="2.48956">
        <ele>671.149</ele>
        <time>2021-05-22T09:39:41Z</time>
      </trkpt>
      <trkpt lat="43.53866" lon="2.48958">
        <ele>670.215</ele>
        <time>2021-05-22T09:39:43Z</time>
      </trkpt>
      <trkpt lat="43.53864" lon="2.48959">
        <ele>670.264</ele>
        <time>2021-05-22T09:39:45Z</time>
      </trkpt>
      <trkpt lat="43.53863" lon="2.48961">
        <ele>670.241</ele>
        <time>2021-05-22T09:39:47Z</time>
      </trkpt>
      <trkpt lat="43.53861" lon="2.48964">
        <ele>669.953</ele>
        <time>2021-05-22T09:39:49Z</time>
      </trkpt>
      <trkpt lat="43.5386" lon="2.48966">
        <ele>669.755</ele>
        <time>2021-05-22T09:39:51Z</time>
      </trkpt>
      <trkpt lat="43.53858" lon="2.48969">
        <ele>670.032</ele>
        <time>2021-05-22T09:39:53Z</time>
      </trkpt>
      <trkpt lat="43.53856" lon="2.48972">
        <ele>670.686</ele>
        <time>2021-05-22T09:39:55Z</time>
      </trkpt>
      <trkpt lat="43.53855" lon="2.48975">
        <ele>670.847</ele>
        <time>2021-05-22T09:39:57Z</time>
      </trkpt>
      <trkpt lat="43.53853" lon="2.48977">
        <ele>671.135</ele>
        <time>2021-05-22T09:39:59Z</time>
      </trkpt>
      <trkpt lat="43.53852" lon="2.4898">
        <ele>671.244</ele>
        <time>2021-05-22T09:40:01Z</time>
      </trkpt>
      <trkpt lat="43.53852" lon="2.48983">
        <ele>671.719</ele>
        <time>2021-05-22T09:40:03Z</time>
      </trkpt>
      <trkpt lat="43.53852" lon="2.48984">
        <ele>671.672</ele>
        <time>2021-05-22T09:40:05Z</time>
      </trkpt>
      <trkpt lat="43.53852" lon="2.48983">
        <ele>671.675</ele>
        <time>2021-05-22T09:40:07Z</time>
      </trkpt>
      <trkpt lat="43.53851" lon="2.48984">
        <ele>671.048</ele>
        <time>2021-05-22T09:40:09Z</time>
      </trkpt>
      <trkpt lat="43.5385" lon="2.48985">
        <ele>671.174</ele>
        <time>2021-05-22T09:40:11Z</time>
      </trkpt>
      <trkpt lat="43.53848" lon="2.48987">
        <ele>671.315</ele>
        <time>2021-05-22T09:40:13Z</time>
      </trkpt>
      <trkpt lat="43.53846" lon="2.48989">
        <ele>671.276</ele>
        <time>2021-05-22T09:40:15Z</time>
      </trkpt>
      <trkpt lat="43.53845" lon="2.48991">
        <ele>671.511</ele>
        <time>2021-05-22T09:40:17Z</time>
      </trkpt>
      <trkpt lat="43.53845" lon="2.48994">
        <ele>671.921</ele>
        <time>2021-05-22T09:40:19Z</time>
      </trkpt>
      <trkpt lat="43.53844" lon="2.48996">
        <ele>672.584</ele>
        <time>2021-05-22T09:40:21Z</time>
      </trkpt>
      <trkpt lat="43.53845" lon="2.48999">
        <ele>673.372</ele>
        <time>2021-05-22T09:40:23Z</time>
      </trkpt>
      <trkpt lat="43.53845" lon="2.49001">
        <ele>672.841</ele>
        <time>2021-05-22T09:40:25Z</time>
      </trkpt>
      <trkpt lat="43.53845" lon="2.49004">
        <ele>672.408</ele>
        <time>2021-05-22T09:40:27Z</time>
      </trkpt>
      <trkpt lat="43.53846" lon="2.49007">
        <ele>671.811</ele>
        <time>2021-05-22T09:40:29Z</time>
      </trkpt>
      <trkpt lat="43.53848" lon="2.4901">
        <ele>672.032</ele>
        <time>2021-05-22T09:40:31Z</time>
      </trkpt>
      <trkpt lat="43.53849" lon="2.49012">
        <ele>672.494</ele>
        <time>2021-05-22T09:40:33Z</time>
      </trkpt>
      <trkpt lat="43.53849" lon="2.49014">
        <ele>672.462</ele>
        <time>2021-05-22T09:40:35Z</time>
      </trkpt>
      <trkpt lat="43.53849" lon="2.49017">
        <ele>672.107</ele>
        <time>2021-05-22T09:40:37Z</time>
      </trkpt>
      <trkpt lat="43.53849" lon="2.4902">
        <ele>671.886</ele>
        <time>2021-05-22T09:40:39Z</time>
      </trkpt>
      <trkpt lat="43.53849" lon="2.49022">
        <ele>672.368</ele>
        <time>2021-05-22T09:40:41Z</time>
      </trkpt>
      <trkpt lat="43.53849" lon="2.49024">
        <ele>671.709</ele>
        <time>2021-05-22T09:40:43Z</time>
      </trkpt>
      <trkpt lat="43.5385" lon="2.49026">
        <ele>671.682</ele>
        <time>2021-05-22T09:40:45Z</time>
      </trkpt>
      <trkpt lat="43.5385" lon="2.49027">
        <ele>671.394</ele>
        <time>2021-05-22T09:40:47Z</time>
      </trkpt>
      <trkpt lat="43.53851" lon="2.49028">
        <ele>671.723</ele>
        <time>2021-05-22T09:40:49Z</time>
      </trkpt>
      <trkpt lat="43.53851" lon="2.49028">
        <ele>671.717</ele>
        <time>2021-05-22T09:40:51Z</time>
      </trkpt>
      <trkpt lat="43.53851" lon="2.49028">
        <ele>671.589</ele>
        <time>2021-05-22T09:40:53Z</time>
      </trkpt>
      <trkpt lat="43.53851" lon="2.49031">
        <ele>671.681</ele>
        <time>2021-05-22T09:40:55Z</time>
      </trkpt>
      <trkpt lat="43.53851" lon="2.49033">
        <ele>671.567</ele>
        <time>2021-05-22T09:40:57Z</time>
      </trkpt>
      <trkpt lat="43.53852" lon="2.49034">
        <ele>671.452</ele>
        <time>2021-05-22T09:40:59Z</time>
      </trkpt>
      <trkpt lat="43.53851" lon="2.49033">
        <ele>671.375</ele>
        <time>2021-05-22T09:41:01Z</time>
      </trkpt>
      <trkpt lat="43.53851" lon="2.49033">
        <ele>671.055</ele>
        <time>2021-05-22T09:41:03Z</time>
      </trkpt>
      <trkpt lat="43.53851" lon="2.49033">
        <ele>671.02</ele>
        <time>2021-05-22T09:41:05Z</time>
      </trkpt>
      <trkpt lat="43.53851" lon="2.49033">
        <ele>671.014</ele>
        <time>2021-05-22T09:41:07Z</time>
      </trkpt>
      <trkpt lat="43.53851" lon="2.49032">
        <ele>671.379</ele>
        <time>2021-05-22T09:41:09Z</time>
      </trkpt>
      <trkpt lat="43.53851" lon="2.49033">
        <ele>671.697</ele>
        <time>2021-05-22T09:41:11Z</time>
      </trkpt>
      <trkpt lat="43.53851" lon="2.49033">
        <ele>671.692</ele>
        <time>2021-05-22T09:41:13Z</time>
      </trkpt>
      <trkpt lat="43.53851" lon="2.49033">
        <ele>671.606</ele>
        <time>2021-05-22T09:41:15Z</time>
      </trkpt>
      <trkpt lat="43.53851" lon="2.49033">
        <ele>671.597</ele>
        <time>2021-05-22T09:41:17Z</time>
      </trkpt>
      <trkpt lat="43.53851" lon="2.49033">
        <ele>671.598</ele>
        <time>2021-05-22T09:41:19Z</time>
      </trkpt>
      <trkpt lat="43.53851" lon="2.49033">
        <ele>671.601</ele>
        <time>2021-05-22T09:41:21Z</time>
      </trkpt>
      <trkpt lat="43.53851" lon="2.49033">
        <ele>671.613</ele>
        <time>2021-05-22T09:41:23Z</time>
      </trkpt>
      <trkpt lat="43.53851" lon="2.49033">
        <ele>671.623</ele>
        <time>2021-05-22T09:41:25Z</time>
      </trkpt>
      <trkpt lat="43.5385" lon="2.49033">
        <ele>671.42</ele>
        <time>2021-05-22T09:41:27Z</time>
      </trkpt>
      <trkpt lat="43.5385" lon="2.49034">
        <ele>671.394</ele>
        <time>2021-05-22T09:41:29Z</time>
      </trkpt>
      <trkpt lat="43.5385" lon="2.49034">
        <ele>671.393</ele>
        <time>2021-05-22T09:41:31Z</time>
      </trkpt>
      <trkpt lat="43.5385" lon="2.49034">
        <ele>671.384</ele>
        <time>2021-05-22T09:41:33Z</time>
      </trkpt>
      <trkpt lat="43.53851" lon="2.49034">
        <ele>671.399</ele>
        <time>2021-05-22T09:41:35Z</time>
      </trkpt>
      <trkpt lat="43.53851" lon="2.49034">
        <ele>671.393</ele>
        <time>2021-05-22T09:41:37Z</time>
      </trkpt>
      <trkpt lat="43.53851" lon="2.49034">
        <ele>670.898</ele>
        <time>2021-05-22T09:41:39Z</time>
      </trkpt>
      <trkpt lat="43.5385" lon="2.49034">
        <ele>671.255</ele>
        <time>2021-05-22T09:41:41Z</time>
      </trkpt>
      <trkpt lat="43.5385" lon="2.49034">
        <ele>671.252</ele>
        <time>2021-05-22T09:41:43Z</time>
      </trkpt>
      <trkpt lat="43.5385" lon="2.49034">
        <ele>671.154</ele>
        <time>2021-05-22T09:41:45Z</time>
      </trkpt>
      <trkpt lat="43.5385" lon="2.49034">
        <ele>671.125</ele>
        <time>2021-05-22T09:41:47Z</time>
      </trkpt>
      <trkpt lat="43.5385" lon="2.49034">
        <ele>671.354</ele>
        <time>2021-05-22T09:41:49Z</time>
      </trkpt>
      <trkpt lat="43.5385" lon="2.49034">
        <ele>671.354</ele>
        <time>2021-05-22T09:41:51Z</time>
      </trkpt>
      <trkpt lat="43.5385" lon="2.49034">
        <ele>671.353</ele>
        <time>2021-05-22T09:41:53Z</time>
      </trkpt>
      <trkpt lat="43.5385" lon="2.49033">
        <ele>671.297</ele>
        <time>2021-05-22T09:41:55Z</time>
      </trkpt>
      <trkpt lat="43.5385" lon="2.49033">
        <ele>671.291</ele>
        <time>2021-05-22T09:41:57Z</time>
      </trkpt>
      <trkpt lat="43.5385" lon="2.49033">
        <ele>671.343</ele>
        <time>2021-05-22T09:41:59Z</time>
      </trkpt>
      <trkpt lat="43.5385" lon="2.49033">
        <ele>671.632</ele>
        <time>2021-05-22T09:42:01Z</time>
      </trkpt>
      <trkpt lat="43.5385" lon="2.49033">
        <ele>671.211</ele>
        <time>2021-05-22T09:42:03Z</time>
      </trkpt>
      <trkpt lat="43.5385" lon="2.49033">
        <ele>671.214</ele>
        <time>2021-05-22T09:42:05Z</time>
      </trkpt>
      <trkpt lat="43.5385" lon="2.49033">
        <ele>671.215</ele>
        <time>2021-05-22T09:42:07Z</time>
      </trkpt>
      <trkpt lat="43.5385" lon="2.49033">
        <ele>671.214</ele>
        <time>2021-05-22T09:42:09Z</time>
      </trkpt>
      <trkpt lat="43.5385" lon="2.49033">
        <ele>671.215</ele>
        <time>2021-05-22T09:42:11Z</time>
      </trkpt>
      <trkpt lat="43.5385" lon="2.49033">
        <ele>671.219</ele>
        <time>2021-05-22T09:42:13Z</time>
      </trkpt>
      <trkpt lat="43.5385" lon="2.49033">
        <ele>671.226</ele>
        <time>2021-05-22T09:42:15Z</time>
      </trkpt>
      <trkpt lat="43.5385" lon="2.49033">
        <ele>671.227</ele>
        <time>2021-05-22T09:42:17Z</time>
      </trkpt>
      <trkpt lat="43.5385" lon="2.49033">
        <ele>671.227</ele>
        <time>2021-05-22T09:42:19Z</time>
      </trkpt>
      <trkpt lat="43.5385" lon="2.49033">
        <ele>671.232</ele>
        <time>2021-05-22T09:42:21Z</time>
      </trkpt>
      <trkpt lat="43.5385" lon="2.49033">
        <ele>671.234</ele>
        <time>2021-05-22T09:42:23Z</time>
      </trkpt>
      <trkpt lat="43.5385" lon="2.49033">
        <ele>671.238</ele>
        <time>2021-05-22T09:42:25Z</time>
      </trkpt>
      <trkpt lat="43.5385" lon="2.49033">
        <ele>671.244</ele>
        <time>2021-05-22T09:42:27Z</time>
      </trkpt>
      <trkpt lat="43.5385" lon="2.49033">
        <ele>671.444</ele>
        <time>2021-05-22T09:42:29Z</time>
      </trkpt>
      <trkpt lat="43.5385" lon="2.49033">
        <ele>671.843</ele>
        <time>2021-05-22T09:42:31Z</time>
      </trkpt>
      <trkpt lat="43.5385" lon="2.49033">
        <ele>671.842</ele>
        <time>2021-05-22T09:42:33Z</time>
      </trkpt>
      <trkpt lat="43.5385" lon="2.49033">
        <ele>671.851</ele>
        <time>2021-05-22T09:42:35Z</time>
      </trkpt>
      <trkpt lat="43.5385" lon="2.49033">
        <ele>672.043</ele>
        <time>2021-05-22T09:42:37Z</time>
      </trkpt>
      <trkpt lat="43.5385" lon="2.49033">
        <ele>672.03</ele>
        <time>2021-05-22T09:42:39Z</time>
      </trkpt>
      <trkpt lat="43.5385" lon="2.49033">
        <ele>672.018</ele>
        <time>2021-05-22T09:42:41Z</time>
      </trkpt>
      <trkpt lat="43.5385" lon="2.49032">
        <ele>671.567</ele>
        <time>2021-05-22T09:42:43Z</time>
      </trkpt>
      <trkpt lat="43.5385" lon="2.49032">
        <ele>671.564</ele>
        <time>2021-05-22T09:42:45Z</time>
      </trkpt>
      <trkpt lat="43.5385" lon="2.49032">
        <ele>671.549</ele>
        <time>2021-05-22T09:42:47Z</time>
      </trkpt>
      <trkpt lat="43.5385" lon="2.49032">
        <ele>671.529</ele>
        <time>2021-05-22T09:42:49Z</time>
      </trkpt>
      <trkpt lat="43.5385" lon="2.49032">
        <ele>671.542</ele>
        <time>2021-05-22T09:42:51Z</time>
      </trkpt>
      <trkpt lat="43.5385" lon="2.49032">
        <ele>671.548</ele>
        <time>2021-05-22T09:42:53Z</time>
      </trkpt>
      <trkpt lat="43.5385" lon="2.49032">
        <ele>671.545</ele>
        <time>2021-05-22T09:42:55Z</time>
      </trkpt>
      <trkpt lat="43.5385" lon="2.49032">
        <ele>671.547</ele>
        <time>2021-05-22T09:42:57Z</time>
      </trkpt>
      <trkpt lat="43.5385" lon="2.49032">
        <ele>671.542</ele>
        <time>2021-05-22T09:42:59Z</time>
      </trkpt>
      <trkpt lat="43.5385" lon="2.49032">
        <ele>671.541</ele>
        <time>2021-05-22T09:43:01Z</time>
      </trkpt>
      <trkpt lat="43.5385" lon="2.49032">
        <ele>671.535</ele>
        <time>2021-05-22T09:43:03Z</time>
      </trkpt>
      <trkpt lat="43.5385" lon="2.49032">
        <ele>671.55</ele>
        <time>2021-05-22T09:43:05Z</time>
      </trkpt>
      <trkpt lat="43.5385" lon="2.49032">
        <ele>671.562</ele>
        <time>2021-05-22T09:43:07Z</time>
      </trkpt>
      <trkpt lat="43.5385" lon="2.49032">
        <ele>671.569</ele>
        <time>2021-05-22T09:43:09Z</time>
      </trkpt>
      <trkpt lat="43.5385" lon="2.49032">
        <ele>671.295</ele>
        <time>2021-05-22T09:43:11Z</time>
      </trkpt>
      <trkpt lat="43.5385" lon="2.49032">
        <ele>671.304</ele>
        <time>2021-05-22T09:43:13Z</time>
      </trkpt>
      <trkpt lat="43.5385" lon="2.49032">
        <ele>671.592</ele>
        <time>2021-05-22T09:43:15Z</time>
      </trkpt>
      <trkpt lat="43.53849" lon="2.49032">
        <ele>671.468</ele>
        <time>2021-05-22T09:43:17Z</time>
      </trkpt>
      <trkpt lat="43.53849" lon="2.49032">
        <ele>671.471</ele>
        <time>2021-05-22T09:43:19Z</time>
      </trkpt>
      <trkpt lat="43.53849" lon="2.49032">
        <ele>671.473</ele>
        <time>2021-05-22T09:43:21Z</time>
      </trkpt>
      <trkpt lat="43.53849" lon="2.49032">
        <ele>671.477</ele>
        <time>2021-05-22T09:43:23Z</time>
      </trkpt>
      <trkpt lat="43.53849" lon="2.49032">
        <ele>671.477</ele>
        <time>2021-05-22T09:43:25Z</time>
      </trkpt>
      <trkpt lat="43.53849" lon="2.49032">
        <ele>671.479</ele>
        <time>2021-05-22T09:43:27Z</time>
      </trkpt>
      <trkpt lat="43.53849" lon="2.49032">
        <ele>671.475</ele>
        <time>2021-05-22T09:43:29Z</time>
      </trkpt>
      <trkpt lat="43.53849" lon="2.49032">
        <ele>671.473</ele>
        <time>2021-05-22T09:43:31Z</time>
      </trkpt>
      <trkpt lat="43.53849" lon="2.49032">
        <ele>671.477</ele>
        <time>2021-05-22T09:43:33Z</time>
      </trkpt>
      <trkpt lat="43.53849" lon="2.49032">
        <ele>671.486</ele>
        <time>2021-05-22T09:43:35Z</time>
      </trkpt>
      <trkpt lat="43.53849" lon="2.49032">
        <ele>671.492</ele>
        <time>2021-05-22T09:43:37Z</time>
      </trkpt>
      <trkpt lat="43.53849" lon="2.49032">
        <ele>671.492</ele>
        <time>2021-05-22T09:43:39Z</time>
      </trkpt>
      <trkpt lat="43.53849" lon="2.49032">
        <ele>672.092</ele>
        <time>2021-05-22T09:43:41Z</time>
      </trkpt>
      <trkpt lat="43.53849" lon="2.49033">
        <ele>672.097</ele>
        <time>2021-05-22T09:43:43Z</time>
      </trkpt>
      <trkpt lat="43.53849" lon="2.49033">
        <ele>672.406</ele>
        <time>2021-05-22T09:43:45Z</time>
      </trkpt>
      <trkpt lat="43.53849" lon="2.49033">
        <ele>672.374</ele>
        <time>2021-05-22T09:43:47Z</time>
      </trkpt>
      <trkpt lat="43.53849" lon="2.49033">
        <ele>672.358</ele>
        <time>2021-05-22T09:43:49Z</time>
      </trkpt>
      <trkpt lat="43.53849" lon="2.49033">
        <ele>672.354</ele>
        <time>2021-05-22T09:43:51Z</time>
      </trkpt>
      <trkpt lat="43.53849" lon="2.49033">
        <ele>672.356</ele>
        <time>2021-05-22T09:43:53Z</time>
      </trkpt>
      <trkpt lat="43.53849" lon="2.49033">
        <ele>672.355</ele>
        <time>2021-05-22T09:43:55Z</time>
      </trkpt>
      <trkpt lat="43.53849" lon="2.49033">
        <ele>672.345</ele>
        <time>2021-05-22T09:43:57Z</time>
      </trkpt>
      <trkpt lat="43.53849" lon="2.49033">
        <ele>672.337</ele>
        <time>2021-05-22T09:43:59Z</time>
      </trkpt>
      <trkpt lat="43.53849" lon="2.49033">
        <ele>672.324</ele>
        <time>2021-05-22T09:44:01Z</time>
      </trkpt>
      <trkpt lat="43.53849" lon="2.49033">
        <ele>672.312</ele>
        <time>2021-05-22T09:44:03Z</time>
      </trkpt>
      <trkpt lat="43.53849" lon="2.49033">
        <ele>672.309</ele>
        <time>2021-05-22T09:44:05Z</time>
      </trkpt>
      <trkpt lat="43.53849" lon="2.49033">
        <ele>672.318</ele>
        <time>2021-05-22T09:44:07Z</time>
      </trkpt>
      <trkpt lat="43.53849" lon="2.49033">
        <ele>672.313</ele>
        <time>2021-05-22T09:44:09Z</time>
      </trkpt>
      <trkpt lat="43.53849" lon="2.49033">
        <ele>672.317</ele>
        <time>2021-05-22T09:44:11Z</time>
      </trkpt>
      <trkpt lat="43.53849" lon="2.49033">
        <ele>672.325</ele>
        <time>2021-05-22T09:44:13Z</time>
      </trkpt>
      <trkpt lat="43.53849" lon="2.49033">
        <ele>672.336</ele>
        <time>2021-05-22T09:44:15Z</time>
      </trkpt>
      <trkpt lat="43.53849" lon="2.49033">
        <ele>672.342</ele>
        <time>2021-05-22T09:44:17Z</time>
      </trkpt>
      <trkpt lat="43.53849" lon="2.49033">
        <ele>672.341</ele>
        <time>2021-05-22T09:44:19Z</time>
      </trkpt>
      <trkpt lat="43.53849" lon="2.49033">
        <ele>672.321</ele>
        <time>2021-05-22T09:44:21Z</time>
      </trkpt>
      <trkpt lat="43.53849" lon="2.49033">
        <ele>672.283</ele>
        <time>2021-05-22T09:44:23Z</time>
      </trkpt>
      <trkpt lat="43.53849" lon="2.49033">
        <ele>672.263</ele>
        <time>2021-05-22T09:44:25Z</time>
      </trkpt>
      <trkpt lat="43.53849" lon="2.49033">
        <ele>672.103</ele>
        <time>2021-05-22T09:44:27Z</time>
      </trkpt>
      <trkpt lat="43.53849" lon="2.49033">
        <ele>672.099</ele>
        <time>2021-05-22T09:44:29Z</time>
      </trkpt>
      <trkpt lat="43.53849" lon="2.49033">
        <ele>672.094</ele>
        <time>2021-05-22T09:44:31Z</time>
      </trkpt>
      <trkpt lat="43.53849" lon="2.49033">
        <ele>672.09</ele>
        <time>2021-05-22T09:44:33Z</time>
      </trkpt>
      <trkpt lat="43.53849" lon="2.49033">
        <ele>672.092</ele>
        <time>2021-05-22T09:44:35Z</time>
      </trkpt>
      <trkpt lat="43.53849" lon="2.49033">
        <ele>672.089</ele>
        <time>2021-05-22T09:44:37Z</time>
      </trkpt>
      <trkpt lat="43.53849" lon="2.49033">
        <ele>672.084</ele>
        <time>2021-05-22T09:44:39Z</time>
      </trkpt>
      <trkpt lat="43.53849" lon="2.49033">
        <ele>672.09</ele>
        <time>2021-05-22T09:44:41Z</time>
      </trkpt>
      <trkpt lat="43.53849" lon="2.49033">
        <ele>672.091</ele>
        <time>2021-05-22T09:44:43Z</time>
      </trkpt>
      <trkpt lat="43.53849" lon="2.49033">
        <ele>672.092</ele>
        <time>2021-05-22T09:44:45Z</time>
      </trkpt>
      <trkpt lat="43.53849" lon="2.49033">
        <ele>672.092</ele>
        <time>2021-05-22T09:44:47Z</time>
      </trkpt>
      <trkpt lat="43.53849" lon="2.49033">
        <ele>672.091</ele>
        <time>2021-05-22T09:44:49Z</time>
      </trkpt>
      <trkpt lat="43.53849" lon="2.49033">
        <ele>672.088</ele>
        <time>2021-05-22T09:44:51Z</time>
      </trkpt>
      <trkpt lat="43.53849" lon="2.49033">
        <ele>672.084</ele>
        <time>2021-05-22T09:44:53Z</time>
      </trkpt>
      <trkpt lat="43.53849" lon="2.49033">
        <ele>672.083</ele>
        <time>2021-05-22T09:44:55Z</time>
      </trkpt>
      <trkpt lat="43.53849" lon="2.49033">
        <ele>672.082</ele>
        <time>2021-05-22T09:44:57Z</time>
      </trkpt>
      <trkpt lat="43.53849" lon="2.49033">
        <ele>672.078</ele>
        <time>2021-05-22T09:44:59Z</time>
      </trkpt>
      <trkpt lat="43.53849" lon="2.49033">
        <ele>672.075</ele>
        <time>2021-05-22T09:45:01Z</time>
      </trkpt>
      <trkpt lat="43.5385" lon="2.49033">
        <ele>671.596</ele>
        <time>2021-05-22T09:45:03Z</time>
      </trkpt>
      <trkpt lat="43.5385" lon="2.49033">
        <ele>671.583</ele>
        <time>2021-05-22T09:45:05Z</time>
      </trkpt>
      <trkpt lat="43.5385" lon="2.49033">
        <ele>671.582</ele>
        <time>2021-05-22T09:45:07Z</time>
      </trkpt>
      <trkpt lat="43.5385" lon="2.49033">
        <ele>671.574</ele>
        <time>2021-05-22T09:45:09Z</time>
      </trkpt>
      <trkpt lat="43.5385" lon="2.49033">
        <ele>671.565</ele>
        <time>2021-05-22T09:45:11Z</time>
      </trkpt>
      <trkpt lat="43.5385" lon="2.49033">
        <ele>671.563</ele>
        <time>2021-05-22T09:45:13Z</time>
      </trkpt>
      <trkpt lat="43.5385" lon="2.49033">
        <ele>671.561</ele>
        <time>2021-05-22T09:45:15Z</time>
      </trkpt>
      <trkpt lat="43.5385" lon="2.49033">
        <ele>671.562</ele>
        <time>2021-05-22T09:45:17Z</time>
      </trkpt>
      <trkpt lat="43.5385" lon="2.49033">
        <ele>671.568</ele>
        <time>2021-05-22T09:45:19Z</time>
      </trkpt>
      <trkpt lat="43.5385" lon="2.49033">
        <ele>671.57</ele>
        <time>2021-05-22T09:45:21Z</time>
      </trkpt>
      <trkpt lat="43.5385" lon="2.49033">
        <ele>671.57</ele>
        <time>2021-05-22T09:45:23Z</time>
      </trkpt>
      <trkpt lat="43.5385" lon="2.49033">
        <ele>671.568</ele>
        <time>2021-05-22T09:45:25Z</time>
      </trkpt>
      <trkpt lat="43.5385" lon="2.49033">
        <ele>671.564</ele>
        <time>2021-05-22T09:45:27Z</time>
      </trkpt>
      <trkpt lat="43.5385" lon="2.49033">
        <ele>671.561</ele>
        <time>2021-05-22T09:45:29Z</time>
      </trkpt>
      <trkpt lat="43.5385" lon="2.49033">
        <ele>671.56</ele>
        <time>2021-05-22T09:45:31Z</time>
      </trkpt>
      <trkpt lat="43.5385" lon="2.49033">
        <ele>671.534</ele>
        <time>2021-05-22T09:45:33Z</time>
      </trkpt>
      <trkpt lat="43.5385" lon="2.49032">
        <ele>671.891</ele>
        <time>2021-05-22T09:45:35Z</time>
      </trkpt>
      <trkpt lat="43.53851" lon="2.49032">
        <ele>671.656</ele>
        <time>2021-05-22T09:45:37Z</time>
      </trkpt>
      <trkpt lat="43.53851" lon="2.49032">
        <ele>671.638</ele>
        <time>2021-05-22T09:45:38Z</time>
      </trkpt>
      <trkpt lat="43.53851" lon="2.49031">
        <ele>671.872</ele>
        <time>2021-05-22T09:45:41Z</time>
      </trkpt>
      <trkpt lat="43.53851" lon="2.49031">
        <ele>672.062</ele>
        <time>2021-05-22T09:45:43Z</time>
      </trkpt>
      <trkpt lat="43.53851" lon="2.49031">
        <ele>672.058</ele>
        <time>2021-05-22T09:45:45Z</time>
      </trkpt>
      <trkpt lat="43.53852" lon="2.4903">
        <ele>672.17</ele>
        <time>2021-05-22T09:45:47Z</time>
      </trkpt>
      <trkpt lat="43.53852" lon="2.4903">
        <ele>671.925</ele>
        <time>2021-05-22T09:45:49Z</time>
      </trkpt>
      <trkpt lat="43.53853" lon="2.49029">
        <ele>671.207</ele>
        <time>2021-05-22T09:45:51Z</time>
      </trkpt>
      <trkpt lat="43.53854" lon="2.49028">
        <ele>671.298</ele>
        <time>2021-05-22T09:45:53Z</time>
      </trkpt>
      <trkpt lat="43.53855" lon="2.49028">
        <ele>671.416</ele>
        <time>2021-05-22T09:45:55Z</time>
      </trkpt>
      <trkpt lat="43.53856" lon="2.49028">
        <ele>671.848</ele>
        <time>2021-05-22T09:45:57Z</time>
      </trkpt>
      <trkpt lat="43.53855" lon="2.49027">
        <ele>672.058</ele>
        <time>2021-05-22T09:45:59Z</time>
      </trkpt>
      <trkpt lat="43.53855" lon="2.49028">
        <ele>671.782</ele>
        <time>2021-05-22T09:46:01Z</time>
      </trkpt>
      <trkpt lat="43.53853" lon="2.49029">
        <ele>671.787</ele>
        <time>2021-05-22T09:46:03Z</time>
      </trkpt>
      <trkpt lat="43.53853" lon="2.49028">
        <ele>671.537</ele>
        <time>2021-05-22T09:46:05Z</time>
      </trkpt>
      <trkpt lat="43.53851" lon="2.49029">
        <ele>672.103</ele>
        <time>2021-05-22T09:46:07Z</time>
      </trkpt>
      <trkpt lat="43.5385" lon="2.49031">
        <ele>672.37</ele>
        <time>2021-05-22T09:46:09Z</time>
      </trkpt>
      <trkpt lat="43.53851" lon="2.49032">
        <ele>671.973</ele>
        <time>2021-05-22T09:46:11Z</time>
      </trkpt>
      <trkpt lat="43.53851" lon="2.49033">
        <ele>672.035</ele>
        <time>2021-05-22T09:46:13Z</time>
      </trkpt>
      <trkpt lat="43.53851" lon="2.49033">
        <ele>672.029</ele>
        <time>2021-05-22T09:46:15Z</time>
      </trkpt>
      <trkpt lat="43.53851" lon="2.49033">
        <ele>672.029</ele>
        <time>2021-05-22T09:46:17Z</time>
      </trkpt>
      <trkpt lat="43.53851" lon="2.49033">
        <ele>672.026</ele>
        <time>2021-05-22T09:46:19Z</time>
      </trkpt>
      <trkpt lat="43.53851" lon="2.49033">
        <ele>672.021</ele>
        <time>2021-05-22T09:46:21Z</time>
      </trkpt>
      <trkpt lat="43.53851" lon="2.49033">
        <ele>672.023</ele>
        <time>2021-05-22T09:46:23Z</time>
      </trkpt>
      <trkpt lat="43.53851" lon="2.49033">
        <ele>672.022</ele>
        <time>2021-05-22T09:46:25Z</time>
      </trkpt>
      <trkpt lat="43.53851" lon="2.49033">
        <ele>672.025</ele>
        <time>2021-05-22T09:46:27Z</time>
      </trkpt>
      <trkpt lat="43.53851" lon="2.49033">
        <ele>672.028</ele>
        <time>2021-05-22T09:46:29Z</time>
      </trkpt>
      <trkpt lat="43.53851" lon="2.49033">
        <ele>672.025</ele>
        <time>2021-05-22T09:46:31Z</time>
      </trkpt>
      <trkpt lat="43.53851" lon="2.49033">
        <ele>672.031</ele>
        <time>2021-05-22T09:46:33Z</time>
      </trkpt>
      <trkpt lat="43.53851" lon="2.49033">
        <ele>672.032</ele>
        <time>2021-05-22T09:46:35Z</time>
      </trkpt>
      <trkpt lat="43.53851" lon="2.49033">
        <ele>672.028</ele>
        <time>2021-05-22T09:46:37Z</time>
      </trkpt>
      <trkpt lat="43.53851" lon="2.49033">
        <ele>672.035</ele>
        <time>2021-05-22T09:46:39Z</time>
      </trkpt>
      <trkpt lat="43.53851" lon="2.49033">
        <ele>672.043</ele>
        <time>2021-05-22T09:46:41Z</time>
      </trkpt>
      <trkpt lat="43.53851" lon="2.49033">
        <ele>672.043</ele>
        <time>2021-05-22T09:46:43Z</time>
      </trkpt>
      <trkpt lat="43.53851" lon="2.49033">
        <ele>672.044</ele>
        <time>2021-05-22T09:46:45Z</time>
      </trkpt>
      <trkpt lat="43.53851" lon="2.49033">
        <ele>672.048</ele>
        <time>2021-05-22T09:46:47Z</time>
      </trkpt>
      <trkpt lat="43.53851" lon="2.49033">
        <ele>672.053</ele>
        <time>2021-05-22T09:46:49Z</time>
      </trkpt>
      <trkpt lat="43.53851" lon="2.49033">
        <ele>672.065</ele>
        <time>2021-05-22T09:46:51Z</time>
      </trkpt>
      <trkpt lat="43.53851" lon="2.49033">
        <ele>672.067</ele>
        <time>2021-05-22T09:46:53Z</time>
      </trkpt>
      <trkpt lat="43.53851" lon="2.49033">
        <ele>672.311</ele>
        <time>2021-05-22T09:46:55Z</time>
      </trkpt>
      <trkpt lat="43.53851" lon="2.49033">
        <ele>672.293</ele>
        <time>2021-05-22T09:46:57Z</time>
      </trkpt>
      <trkpt lat="43.53851" lon="2.49033">
        <ele>672.339</ele>
        <time>2021-05-22T09:46:59Z</time>
      </trkpt>
      <trkpt lat="43.53851" lon="2.49033">
        <ele>672.33</ele>
        <time>2021-05-22T09:47:01Z</time>
      </trkpt>
      <trkpt lat="43.53851" lon="2.49033">
        <ele>672.331</ele>
        <time>2021-05-22T09:47:03Z</time>
      </trkpt>
      <trkpt lat="43.53851" lon="2.49033">
        <ele>672.334</ele>
        <time>2021-05-22T09:47:05Z</time>
      </trkpt>
      <trkpt lat="43.53851" lon="2.49033">
        <ele>672.322</ele>
        <time>2021-05-22T09:47:07Z</time>
      </trkpt>
      <trkpt lat="43.53851" lon="2.49033">
        <ele>672.308</ele>
        <time>2021-05-22T09:47:09Z</time>
      </trkpt>
      <trkpt lat="43.53851" lon="2.49033">
        <ele>672.305</ele>
        <time>2021-05-22T09:47:11Z</time>
      </trkpt>
      <trkpt lat="43.53851" lon="2.49033">
        <ele>672.297</ele>
        <time>2021-05-22T09:47:13Z</time>
      </trkpt>
      <trkpt lat="43.53851" lon="2.49033">
        <ele>672.289</ele>
        <time>2021-05-22T09:47:15Z</time>
      </trkpt>
      <trkpt lat="43.53851" lon="2.49033">
        <ele>672.285</ele>
        <time>2021-05-22T09:47:17Z</time>
      </trkpt>
      <trkpt lat="43.53851" lon="2.49033">
        <ele>672.282</ele>
        <time>2021-05-22T09:47:19Z</time>
      </trkpt>
      <trkpt lat="43.53851" lon="2.49033">
        <ele>672.284</ele>
        <time>2021-05-22T09:47:21Z</time>
      </trkpt>
      <trkpt lat="43.53851" lon="2.49033">
        <ele>672.28</ele>
        <time>2021-05-22T09:47:23Z</time>
      </trkpt>
      <trkpt lat="43.53851" lon="2.49033">
        <ele>672.281</ele>
        <time>2021-05-22T09:47:25Z</time>
      </trkpt>
      <trkpt lat="43.53851" lon="2.49034">
        <ele>672.17</ele>
        <time>2021-05-22T09:47:27Z</time>
      </trkpt>
      <trkpt lat="43.53852" lon="2.49034">
        <ele>672.151</ele>
        <time>2021-05-22T09:47:29Z</time>
      </trkpt>
      <trkpt lat="43.53852" lon="2.49033">
        <ele>672.423</ele>
        <time>2021-05-22T09:47:31Z</time>
      </trkpt>
      <trkpt lat="43.53851" lon="2.49032">
        <ele>672.458</ele>
        <time>2021-05-22T09:47:33Z</time>
      </trkpt>
      <trkpt lat="43.53851" lon="2.4903">
        <ele>672.04</ele>
        <time>2021-05-22T09:47:35Z</time>
      </trkpt>
      <trkpt lat="43.53851" lon="2.49031">
        <ele>671.926</ele>
        <time>2021-05-22T09:47:37Z</time>
      </trkpt>
      <trkpt lat="43.53852" lon="2.49032">
        <ele>671.387</ele>
        <time>2021-05-22T09:47:39Z</time>
      </trkpt>
      <trkpt lat="43.53852" lon="2.49032">
        <ele>671.365</ele>
        <time>2021-05-22T09:47:41Z</time>
      </trkpt>
      <trkpt lat="43.53852" lon="2.49032">
        <ele>671.365</ele>
        <time>2021-05-22T09:47:43Z</time>
      </trkpt>
      <trkpt lat="43.53852" lon="2.49032">
        <ele>671.359</ele>
        <time>2021-05-22T09:47:45Z</time>
      </trkpt>
      <trkpt lat="43.53852" lon="2.49032">
        <ele>671.358</ele>
        <time>2021-05-22T09:47:47Z</time>
      </trkpt>
      <trkpt lat="43.53852" lon="2.49032">
        <ele>671.354</ele>
        <time>2021-05-22T09:47:49Z</time>
      </trkpt>
      <trkpt lat="43.53852" lon="2.49032">
        <ele>671.35</ele>
        <time>2021-05-22T09:47:51Z</time>
      </trkpt>
      <trkpt lat="43.53852" lon="2.49032">
        <ele>671.35</ele>
        <time>2021-05-22T09:47:53Z</time>
      </trkpt>
      <trkpt lat="43.53852" lon="2.49032">
        <ele>671.346</ele>
        <time>2021-05-22T09:47:55Z</time>
      </trkpt>
      <trkpt lat="43.53852" lon="2.49032">
        <ele>671.344</ele>
        <time>2021-05-22T09:47:57Z</time>
      </trkpt>
      <trkpt lat="43.53852" lon="2.49032">
        <ele>671.342</ele>
        <time>2021-05-22T09:47:59Z</time>
      </trkpt>
      <trkpt lat="43.53852" lon="2.49032">
        <ele>671.34</ele>
        <time>2021-05-22T09:48:01Z</time>
      </trkpt>
      <trkpt lat="43.53852" lon="2.49032">
        <ele>671.331</ele>
        <time>2021-05-22T09:48:03Z</time>
      </trkpt>
      <trkpt lat="43.53852" lon="2.49032">
        <ele>671.328</ele>
        <time>2021-05-22T09:48:05Z</time>
      </trkpt>
      <trkpt lat="43.53852" lon="2.49032">
        <ele>671.328</ele>
        <time>2021-05-22T09:48:07Z</time>
      </trkpt>
      <trkpt lat="43.53852" lon="2.49032">
        <ele>671.329</ele>
        <time>2021-05-22T09:48:09Z</time>
      </trkpt>
      <trkpt lat="43.53852" lon="2.49032">
        <ele>671.329</ele>
        <time>2021-05-22T09:48:11Z</time>
      </trkpt>
      <trkpt lat="43.53852" lon="2.49032">
        <ele>671.328</ele>
        <time>2021-05-22T09:48:13Z</time>
      </trkpt>
      <trkpt lat="43.53852" lon="2.49032">
        <ele>671.327</ele>
        <time>2021-05-22T09:48:15Z</time>
      </trkpt>
      <trkpt lat="43.53852" lon="2.49032">
        <ele>671.32</ele>
        <time>2021-05-22T09:48:17Z</time>
      </trkpt>
      <trkpt lat="43.53852" lon="2.49032">
        <ele>671.325</ele>
        <time>2021-05-22T09:48:19Z</time>
      </trkpt>
      <trkpt lat="43.53852" lon="2.49032">
        <ele>671.328</ele>
        <time>2021-05-22T09:48:21Z</time>
      </trkpt>
      <trkpt lat="43.53852" lon="2.49032">
        <ele>671.333</ele>
        <time>2021-05-22T09:48:23Z</time>
      </trkpt>
      <trkpt lat="43.53852" lon="2.49032">
        <ele>671.332</ele>
        <time>2021-05-22T09:48:25Z</time>
      </trkpt>
      <trkpt lat="43.53852" lon="2.49032">
        <ele>671.328</ele>
        <time>2021-05-22T09:48:27Z</time>
      </trkpt>
      <trkpt lat="43.53852" lon="2.49032">
        <ele>671.325</ele>
        <time>2021-05-22T09:48:29Z</time>
      </trkpt>
      <trkpt lat="43.53852" lon="2.49032">
        <ele>671.325</ele>
        <time>2021-05-22T09:48:31Z</time>
      </trkpt>
      <trkpt lat="43.53852" lon="2.49032">
        <ele>671.322</ele>
        <time>2021-05-22T09:48:33Z</time>
      </trkpt>
      <trkpt lat="43.53852" lon="2.49032">
        <ele>671.321</ele>
        <time>2021-05-22T09:48:35Z</time>
      </trkpt>
      <trkpt lat="43.53852" lon="2.49032">
        <ele>671.326</ele>
        <time>2021-05-22T09:48:37Z</time>
      </trkpt>
      <trkpt lat="43.53852" lon="2.49032">
        <ele>671.328</ele>
        <time>2021-05-22T09:48:39Z</time>
      </trkpt>
      <trkpt lat="43.53852" lon="2.49032">
        <ele>671.328</ele>
        <time>2021-05-22T09:48:41Z</time>
      </trkpt>
      <trkpt lat="43.53852" lon="2.49032">
        <ele>671.325</ele>
        <time>2021-05-22T09:48:43Z</time>
      </trkpt>
      <trkpt lat="43.53852" lon="2.49032">
        <ele>671.322</ele>
        <time>2021-05-22T09:48:45Z</time>
      </trkpt>
      <trkpt lat="43.53852" lon="2.49032">
        <ele>671.321</ele>
        <time>2021-05-22T09:48:47Z</time>
      </trkpt>
      <trkpt lat="43.53852" lon="2.49032">
        <ele>671.319</ele>
        <time>2021-05-22T09:48:49Z</time>
      </trkpt>
      <trkpt lat="43.53852" lon="2.49032">
        <ele>671.319</ele>
        <time>2021-05-22T09:48:50Z</time>
      </trkpt>
      <trkpt lat="43.53852" lon="2.49032">
        <ele>671.321</ele>
        <time>2021-05-22T09:48:53Z</time>
      </trkpt>
      <trkpt lat="43.53852" lon="2.49032">
        <ele>671.316</ele>
        <time>2021-05-22T09:48:55Z</time>
      </trkpt>
      <trkpt lat="43.53852" lon="2.49032">
        <ele>671.311</ele>
        <time>2021-05-22T09:48:57Z</time>
      </trkpt>
      <trkpt lat="43.53852" lon="2.49032">
        <ele>671.311</ele>
        <time>2021-05-22T09:48:59Z</time>
      </trkpt>
      <trkpt lat="43.53852" lon="2.49032">
        <ele>671.308</ele>
        <time>2021-05-22T09:49:01Z</time>
      </trkpt>
      <trkpt lat="43.53852" lon="2.49032">
        <ele>671.316</ele>
        <time>2021-05-22T09:49:03Z</time>
      </trkpt>
      <trkpt lat="43.53852" lon="2.49032">
        <ele>671.322</ele>
        <time>2021-05-22T09:49:05Z</time>
      </trkpt>
      <trkpt lat="43.53852" lon="2.49032">
        <ele>671.325</ele>
        <time>2021-05-22T09:49:07Z</time>
      </trkpt>
      <trkpt lat="43.53852" lon="2.49032">
        <ele>671.326</ele>
        <time>2021-05-22T09:49:09Z</time>
      </trkpt>
      <trkpt lat="43.53852" lon="2.49032">
        <ele>671.319</ele>
        <time>2021-05-22T09:49:11Z</time>
      </trkpt>
      <trkpt lat="43.53852" lon="2.49032">
        <ele>671.321</ele>
        <time>2021-05-22T09:49:13Z</time>
      </trkpt>
      <trkpt lat="43.53852" lon="2.49032">
        <ele>671.318</ele>
        <time>2021-05-22T09:49:15Z</time>
      </trkpt>
      <trkpt lat="43.53852" lon="2.49032">
        <ele>671.315</ele>
        <time>2021-05-22T09:49:17Z</time>
      </trkpt>
      <trkpt lat="43.53852" lon="2.49032">
        <ele>671.309</ele>
        <time>2021-05-22T09:49:19Z</time>
      </trkpt>
      <trkpt lat="43.53852" lon="2.49032">
        <ele>671.303</ele>
        <time>2021-05-22T09:49:21Z</time>
      </trkpt>
      <trkpt lat="43.53852" lon="2.49032">
        <ele>671.298</ele>
        <time>2021-05-22T09:49:23Z</time>
      </trkpt>
      <trkpt lat="43.53852" lon="2.49032">
        <ele>671.291</ele>
        <time>2021-05-22T09:49:25Z</time>
      </trkpt>
      <trkpt lat="43.53852" lon="2.49032">
        <ele>671.284</ele>
        <time>2021-05-22T09:49:27Z</time>
      </trkpt>
      <trkpt lat="43.53852" lon="2.49032">
        <ele>671.28</ele>
        <time>2021-05-22T09:49:29Z</time>
      </trkpt>
      <trkpt lat="43.53852" lon="2.49032">
        <ele>671.277</ele>
        <time>2021-05-22T09:49:31Z</time>
      </trkpt>
      <trkpt lat="43.53852" lon="2.49032">
        <ele>671.275</ele>
        <time>2021-05-22T09:49:33Z</time>
      </trkpt>
      <trkpt lat="43.53852" lon="2.49032">
        <ele>671.272</ele>
        <time>2021-05-22T09:49:35Z</time>
      </trkpt>
      <trkpt lat="43.53852" lon="2.49032">
        <ele>671.274</ele>
        <time>2021-05-22T09:49:37Z</time>
      </trkpt>
      <trkpt lat="43.53852" lon="2.49032">
        <ele>671.274</ele>
        <time>2021-05-22T09:49:39Z</time>
      </trkpt>
      <trkpt lat="43.53852" lon="2.49032">
        <ele>671.277</ele>
        <time>2021-05-22T09:49:41Z</time>
      </trkpt>
      <trkpt lat="43.53852" lon="2.49032">
        <ele>671.274</ele>
        <time>2021-05-22T09:49:43Z</time>
      </trkpt>
      <trkpt lat="43.53852" lon="2.49032">
        <ele>671.269</ele>
        <time>2021-05-22T09:49:45Z</time>
      </trkpt>
      <trkpt lat="43.53852" lon="2.49032">
        <ele>671.264</ele>
        <time>2021-05-22T09:49:47Z</time>
      </trkpt>
      <trkpt lat="43.53852" lon="2.49032">
        <ele>671.262</ele>
        <time>2021-05-22T09:49:49Z</time>
      </trkpt>
      <trkpt lat="43.53852" lon="2.49032">
        <ele>671.255</ele>
        <time>2021-05-22T09:49:51Z</time>
      </trkpt>
      <trkpt lat="43.53852" lon="2.49032">
        <ele>671.247</ele>
        <time>2021-05-22T09:49:53Z</time>
      </trkpt>
      <trkpt lat="43.53852" lon="2.49032">
        <ele>671.238</ele>
        <time>2021-05-22T09:49:55Z</time>
      </trkpt>
      <trkpt lat="43.53852" lon="2.49032">
        <ele>671.227</ele>
        <time>2021-05-22T09:49:57Z</time>
      </trkpt>
      <trkpt lat="43.53852" lon="2.49032">
        <ele>671.217</ele>
        <time>2021-05-22T09:49:59Z</time>
      </trkpt>
      <trkpt lat="43.53852" lon="2.49032">
        <ele>671.207</ele>
        <time>2021-05-22T09:50:01Z</time>
      </trkpt>
      <trkpt lat="43.53852" lon="2.49032">
        <ele>671.205</ele>
        <time>2021-05-22T09:50:03Z</time>
      </trkpt>
      <trkpt lat="43.53852" lon="2.49032">
        <ele>671.203</ele>
        <time>2021-05-22T09:50:05Z</time>
      </trkpt>
      <trkpt lat="43.53852" lon="2.49032">
        <ele>671.207</ele>
        <time>2021-05-22T09:50:07Z</time>
      </trkpt>
      <trkpt lat="43.53852" lon="2.49032">
        <ele>671.218</ele>
        <time>2021-05-22T09:50:09Z</time>
      </trkpt>
      <trkpt lat="43.53852" lon="2.49032">
        <ele>671.224</ele>
        <time>2021-05-22T09:50:11Z</time>
      </trkpt>
      <trkpt lat="43.53852" lon="2.49032">
        <ele>671.236</ele>
        <time>2021-05-22T09:50:13Z</time>
      </trkpt>
      <trkpt lat="43.53852" lon="2.49032">
        <ele>671.242</ele>
        <time>2021-05-22T09:50:15Z</time>
      </trkpt>
      <trkpt lat="43.53852" lon="2.49032">
        <ele>671.241</ele>
        <time>2021-05-22T09:50:17Z</time>
      </trkpt>
      <trkpt lat="43.53852" lon="2.49032">
        <ele>671.242</ele>
        <time>2021-05-22T09:50:19Z</time>
      </trkpt>
      <trkpt lat="43.53852" lon="2.49032">
        <ele>671.244</ele>
        <time>2021-05-22T09:50:21Z</time>
      </trkpt>
      <trkpt lat="43.53852" lon="2.49032">
        <ele>671.253</ele>
        <time>2021-05-22T09:50:23Z</time>
      </trkpt>
      <trkpt lat="43.53852" lon="2.49032">
        <ele>671.26</ele>
        <time>2021-05-22T09:50:25Z</time>
      </trkpt>
      <trkpt lat="43.53852" lon="2.49032">
        <ele>671.262</ele>
        <time>2021-05-22T09:50:27Z</time>
      </trkpt>
      <trkpt lat="43.53852" lon="2.49032">
        <ele>671.267</ele>
        <time>2021-05-22T09:50:29Z</time>
      </trkpt>
      <trkpt lat="43.53852" lon="2.49032">
        <ele>671.268</ele>
        <time>2021-05-22T09:50:31Z</time>
      </trkpt>
      <trkpt lat="43.53852" lon="2.49032">
        <ele>671.269</ele>
        <time>2021-05-22T09:50:33Z</time>
      </trkpt>
      <trkpt lat="43.53852" lon="2.49032">
        <ele>671.27</ele>
        <time>2021-05-22T09:50:35Z</time>
      </trkpt>
      <trkpt lat="43.53852" lon="2.49032">
        <ele>671.272</ele>
        <time>2021-05-22T09:50:37Z</time>
      </trkpt>
      <trkpt lat="43.53852" lon="2.49032">
        <ele>671.272</ele>
        <time>2021-05-22T09:50:39Z</time>
      </trkpt>
      <trkpt lat="43.53852" lon="2.49032">
        <ele>671.271</ele>
        <time>2021-05-22T09:50:41Z</time>
      </trkpt>
      <trkpt lat="43.53852" lon="2.49032">
        <ele>671.27</ele>
        <time>2021-05-22T09:50:43Z</time>
      </trkpt>
      <trkpt lat="43.53852" lon="2.49032">
        <ele>671.268</ele>
        <time>2021-05-22T09:50:45Z</time>
      </trkpt>
      <trkpt lat="43.53852" lon="2.49032">
        <ele>671.269</ele>
        <time>2021-05-22T09:50:47Z</time>
      </trkpt>
      <trkpt lat="43.53852" lon="2.49032">
        <ele>671.272</ele>
        <time>2021-05-22T09:50:49Z</time>
      </trkpt>
      <trkpt lat="43.53852" lon="2.49032">
        <ele>671.278</ele>
        <time>2021-05-22T09:50:51Z</time>
      </trkpt>
      <trkpt lat="43.53852" lon="2.49032">
        <ele>671.284</ele>
        <time>2021-05-22T09:50:53Z</time>
      </trkpt>
      <trkpt lat="43.53852" lon="2.49032">
        <ele>671.29</ele>
        <time>2021-05-22T09:50:55Z</time>
      </trkpt>
      <trkpt lat="43.53852" lon="2.49032">
        <ele>671.287</ele>
        <time>2021-05-22T09:50:57Z</time>
      </trkpt>
      <trkpt lat="43.53852" lon="2.49032">
        <ele>671.289</ele>
        <time>2021-05-22T09:50:59Z</time>
      </trkpt>
      <trkpt lat="43.53852" lon="2.49032">
        <ele>671.284</ele>
        <time>2021-05-22T09:51:01Z</time>
      </trkpt>
      <trkpt lat="43.53852" lon="2.49032">
        <ele>671.282</ele>
        <time>2021-05-22T09:51:03Z</time>
      </trkpt>
      <trkpt lat="43.53852" lon="2.49032">
        <ele>671.281</ele>
        <time>2021-05-22T09:51:05Z</time>
      </trkpt>
      <trkpt lat="43.53852" lon="2.49032">
        <ele>671.28</ele>
        <time>2021-05-22T09:51:07Z</time>
      </trkpt>
      <trkpt lat="43.53852" lon="2.49032">
        <ele>671.279</ele>
        <time>2021-05-22T09:51:09Z</time>
      </trkpt>
      <trkpt lat="43.53852" lon="2.49032">
        <ele>671.28</ele>
        <time>2021-05-22T09:51:11Z</time>
      </trkpt>
      <trkpt lat="43.53852" lon="2.49032">
        <ele>671.278</ele>
        <time>2021-05-22T09:51:13Z</time>
      </trkpt>
      <trkpt lat="43.53852" lon="2.49032">
        <ele>671.279</ele>
        <time>2021-05-22T09:51:15Z</time>
      </trkpt>
      <trkpt lat="43.53852" lon="2.49032">
        <ele>671.274</ele>
        <time>2021-05-22T09:51:17Z</time>
      </trkpt>
      <trkpt lat="43.53852" lon="2.49032">
        <ele>671.276</ele>
        <time>2021-05-22T09:51:19Z</time>
      </trkpt>
      <trkpt lat="43.53852" lon="2.49032">
        <ele>671.273</ele>
        <time>2021-05-22T09:51:21Z</time>
      </trkpt>
      <trkpt lat="43.53852" lon="2.49032">
        <ele>671.275</ele>
        <time>2021-05-22T09:51:23Z</time>
      </trkpt>
      <trkpt lat="43.53852" lon="2.49032">
        <ele>671.275</ele>
        <time>2021-05-22T09:51:25Z</time>
      </trkpt>
      <trkpt lat="43.53852" lon="2.49032">
        <ele>671.269</ele>
        <time>2021-05-22T09:51:27Z</time>
      </trkpt>
      <trkpt lat="43.53852" lon="2.49032">
        <ele>671.268</ele>
        <time>2021-05-22T09:51:29Z</time>
      </trkpt>
      <trkpt lat="43.53852" lon="2.49032">
        <ele>671.27</ele>
        <time>2021-05-22T09:51:31Z</time>
      </trkpt>
      <trkpt lat="43.53852" lon="2.49032">
        <ele>671.268</ele>
        <time>2021-05-22T09:51:33Z</time>
      </trkpt>
      <trkpt lat="43.53852" lon="2.49032">
        <ele>671.262</ele>
        <time>2021-05-22T09:51:35Z</time>
      </trkpt>
      <trkpt lat="43.53852" lon="2.49032">
        <ele>671.263</ele>
        <time>2021-05-22T09:51:37Z</time>
      </trkpt>
      <trkpt lat="43.53852" lon="2.49032">
        <ele>671.266</ele>
        <time>2021-05-22T09:51:39Z</time>
      </trkpt>
      <trkpt lat="43.53852" lon="2.49032">
        <ele>671.266</ele>
        <time>2021-05-22T09:51:41Z</time>
      </trkpt>
      <trkpt lat="43.53852" lon="2.49032">
        <ele>671.264</ele>
        <time>2021-05-22T09:51:43Z</time>
      </trkpt>
      <trkpt lat="43.53852" lon="2.49032">
        <ele>671.271</ele>
        <time>2021-05-22T09:51:45Z</time>
      </trkpt>
      <trkpt lat="43.53852" lon="2.49032">
        <ele>671.272</ele>
        <time>2021-05-22T09:51:47Z</time>
      </trkpt>
      <trkpt lat="43.53852" lon="2.49032">
        <ele>671.275</ele>
        <time>2021-05-22T09:51:49Z</time>
      </trkpt>
      <trkpt lat="43.53852" lon="2.49032">
        <ele>671.276</ele>
        <time>2021-05-22T09:51:51Z</time>
      </trkpt>
      <trkpt lat="43.53852" lon="2.49032">
        <ele>671.281</ele>
        <time>2021-05-22T09:51:53Z</time>
      </trkpt>
      <trkpt lat="43.53852" lon="2.49032">
        <ele>671.283</ele>
        <time>2021-05-22T09:51:55Z</time>
      </trkpt>
      <trkpt lat="43.53852" lon="2.49032">
        <ele>671.281</ele>
        <time>2021-05-22T09:51:57Z</time>
      </trkpt>
      <trkpt lat="43.53852" lon="2.49032">
        <ele>671.277</ele>
        <time>2021-05-22T09:51:59Z</time>
      </trkpt>
      <trkpt lat="43.53852" lon="2.49032">
        <ele>671.274</ele>
        <time>2021-05-22T09:52:01Z</time>
      </trkpt>
      <trkpt lat="43.53852" lon="2.49032">
        <ele>671.268</ele>
        <time>2021-05-22T09:52:03Z</time>
      </trkpt>
      <trkpt lat="43.53852" lon="2.49032">
        <ele>671.262</ele>
        <time>2021-05-22T09:52:05Z</time>
      </trkpt>
      <trkpt lat="43.53852" lon="2.49032">
        <ele>671.26</ele>
        <time>2021-05-22T09:52:06Z</time>
      </trkpt>
      <trkpt lat="43.53852" lon="2.49032">
        <ele>671.253</ele>
        <time>2021-05-22T09:52:09Z</time>
      </trkpt>
      <trkpt lat="43.53852" lon="2.49032">
        <ele>671.252</ele>
        <time>2021-05-22T09:52:11Z</time>
      </trkpt>
      <trkpt lat="43.53852" lon="2.49032">
        <ele>671.25</ele>
        <time>2021-05-22T09:52:13Z</time>
      </trkpt>
      <trkpt lat="43.53852" lon="2.49032">
        <ele>671.252</ele>
        <time>2021-05-22T09:52:15Z</time>
      </trkpt>
      <trkpt lat="43.53852" lon="2.49032">
        <ele>671.254</ele>
        <time>2021-05-22T09:52:17Z</time>
      </trkpt>
      <trkpt lat="43.53852" lon="2.49032">
        <ele>671.259</ele>
        <time>2021-05-22T09:52:19Z</time>
      </trkpt>
      <trkpt lat="43.53852" lon="2.49032">
        <ele>671.265</ele>
        <time>2021-05-22T09:52:21Z</time>
      </trkpt>
      <trkpt lat="43.53852" lon="2.49032">
        <ele>671.268</ele>
        <time>2021-05-22T09:52:23Z</time>
      </trkpt>
      <trkpt lat="43.53852" lon="2.49032">
        <ele>671.264</ele>
        <time>2021-05-22T09:52:25Z</time>
      </trkpt>
      <trkpt lat="43.53852" lon="2.49032">
        <ele>671.262</ele>
        <time>2021-05-22T09:52:27Z</time>
      </trkpt>
      <trkpt lat="43.53852" lon="2.49032">
        <ele>671.264</ele>
        <time>2021-05-22T09:52:29Z</time>
      </trkpt>
      <trkpt lat="43.53852" lon="2.49032">
        <ele>671.262</ele>
        <time>2021-05-22T09:52:31Z</time>
      </trkpt>
      <trkpt lat="43.53852" lon="2.49032">
        <ele>671.259</ele>
        <time>2021-05-22T09:52:33Z</time>
      </trkpt>
      <trkpt lat="43.53852" lon="2.49032">
        <ele>671.254</ele>
        <time>2021-05-22T09:52:35Z</time>
      </trkpt>
      <trkpt lat="43.53852" lon="2.49032">
        <ele>671.25</ele>
        <time>2021-05-22T09:52:37Z</time>
      </trkpt>
      <trkpt lat="43.53852" lon="2.49032">
        <ele>671.247</ele>
        <time>2021-05-22T09:52:39Z</time>
      </trkpt>
      <trkpt lat="43.53852" lon="2.49032">
        <ele>671.245</ele>
        <time>2021-05-22T09:52:41Z</time>
      </trkpt>
      <trkpt lat="43.53852" lon="2.49032">
        <ele>671.243</ele>
        <time>2021-05-22T09:52:43Z</time>
      </trkpt>
      <trkpt lat="43.53852" lon="2.49032">
        <ele>671.238</ele>
        <time>2021-05-22T09:52:45Z</time>
      </trkpt>
      <trkpt lat="43.53852" lon="2.49032">
        <ele>671.235</ele>
        <time>2021-05-22T09:52:47Z</time>
      </trkpt>
      <trkpt lat="43.53852" lon="2.49032">
        <ele>671.236</ele>
        <time>2021-05-22T09:52:49Z</time>
      </trkpt>
      <trkpt lat="43.53852" lon="2.49031">
        <ele>670.679</ele>
        <time>2021-05-22T09:52:51Z</time>
      </trkpt>
      <trkpt lat="43.5385" lon="2.49031">
        <ele>669.763</ele>
        <time>2021-05-22T09:52:53Z</time>
      </trkpt>
      <trkpt lat="43.53848" lon="2.49032">
        <ele>669.071</ele>
        <time>2021-05-22T09:52:55Z</time>
      </trkpt>
      <trkpt lat="43.53847" lon="2.49034">
        <ele>668.394</ele>
        <time>2021-05-22T09:52:57Z</time>
      </trkpt>
      <trkpt lat="43.53845" lon="2.49035">
        <ele>667.822</ele>
        <time>2021-05-22T09:52:59Z</time>
      </trkpt>
      <trkpt lat="43.53842" lon="2.49036">
        <ele>668.382</ele>
        <time>2021-05-22T09:53:01Z</time>
      </trkpt>
      <trkpt lat="43.5384" lon="2.49036">
        <ele>668.5</ele>
        <time>2021-05-22T09:53:03Z</time>
      </trkpt>
      <trkpt lat="43.53838" lon="2.49038">
        <ele>667.829</ele>
        <time>2021-05-22T09:53:05Z</time>
      </trkpt>
      <trkpt lat="43.53836" lon="2.49039">
        <ele>667.994</ele>
        <time>2021-05-22T09:53:07Z</time>
      </trkpt>
      <trkpt lat="43.53836" lon="2.49042">
        <ele>668.551</ele>
        <time>2021-05-22T09:53:09Z</time>
      </trkpt>
      <trkpt lat="43.53836" lon="2.49044">
        <ele>669.414</ele>
        <time>2021-05-22T09:53:11Z</time>
      </trkpt>
      <trkpt lat="43.53836" lon="2.49047">
        <ele>669.588</ele>
        <time>2021-05-22T09:53:13Z</time>
      </trkpt>
      <trkpt lat="43.53836" lon="2.49049">
        <ele>670.202</ele>
        <time>2021-05-22T09:53:15Z</time>
      </trkpt>
      <trkpt lat="43.53836" lon="2.49051">
        <ele>670.128</ele>
        <time>2021-05-22T09:53:17Z</time>
      </trkpt>
      <trkpt lat="43.53835" lon="2.49053">
        <ele>669.937</ele>
        <time>2021-05-22T09:53:19Z</time>
      </trkpt>
      <trkpt lat="43.53835" lon="2.49055">
        <ele>669.843</ele>
        <time>2021-05-22T09:53:21Z</time>
      </trkpt>
      <trkpt lat="43.53836" lon="2.49058">
        <ele>670.11</ele>
        <time>2021-05-22T09:53:23Z</time>
      </trkpt>
      <trkpt lat="43.53836" lon="2.4906">
        <ele>670.047</ele>
        <time>2021-05-22T09:53:25Z</time>
      </trkpt>
      <trkpt lat="43.53835" lon="2.49062">
        <ele>669.821</ele>
        <time>2021-05-22T09:53:27Z</time>
      </trkpt>
      <trkpt lat="43.53834" lon="2.49065">
        <ele>669.699</ele>
        <time>2021-05-22T09:53:29Z</time>
      </trkpt>
      <trkpt lat="43.53834" lon="2.49067">
        <ele>669.843</ele>
        <time>2021-05-22T09:53:31Z</time>
      </trkpt>
      <trkpt lat="43.53833" lon="2.4907">
        <ele>670.003</ele>
        <time>2021-05-22T09:53:33Z</time>
      </trkpt>
      <trkpt lat="43.53833" lon="2.49072">
        <ele>669.716</ele>
        <time>2021-05-22T09:53:35Z</time>
      </trkpt>
      <trkpt lat="43.53832" lon="2.49075">
        <ele>670.229</ele>
        <time>2021-05-22T09:53:37Z</time>
      </trkpt>
      <trkpt lat="43.53832" lon="2.49078">
        <ele>669.73</ele>
        <time>2021-05-22T09:53:39Z</time>
      </trkpt>
      <trkpt lat="43.53831" lon="2.49081">
        <ele>670.201</ele>
        <time>2021-05-22T09:53:41Z</time>
      </trkpt>
      <trkpt lat="43.5383" lon="2.49084">
        <ele>669.928</ele>
        <time>2021-05-22T09:53:43Z</time>
      </trkpt>
      <trkpt lat="43.5383" lon="2.49088">
        <ele>669.993</ele>
        <time>2021-05-22T09:53:45Z</time>
      </trkpt>
      <trkpt lat="43.53829" lon="2.49091">
        <ele>669.911</ele>
        <time>2021-05-22T09:53:47Z</time>
      </trkpt>
      <trkpt lat="43.53828" lon="2.49095">
        <ele>670.024</ele>
        <time>2021-05-22T09:53:49Z</time>
      </trkpt>
      <trkpt lat="43.53828" lon="2.49097">
        <ele>669.447</ele>
        <time>2021-05-22T09:53:51Z</time>
      </trkpt>
      <trkpt lat="43.53828" lon="2.491">
        <ele>669.297</ele>
        <time>2021-05-22T09:53:53Z</time>
      </trkpt>
      <trkpt lat="43.53827" lon="2.49104">
        <ele>669.156</ele>
        <time>2021-05-22T09:53:55Z</time>
      </trkpt>
      <trkpt lat="43.53827" lon="2.49107">
        <ele>669.358</ele>
        <time>2021-05-22T09:53:57Z</time>
      </trkpt>
      <trkpt lat="43.53826" lon="2.4911">
        <ele>669.248</ele>
        <time>2021-05-22T09:53:59Z</time>
      </trkpt>
      <trkpt lat="43.53826" lon="2.49113">
        <ele>668.807</ele>
        <time>2021-05-22T09:54:01Z</time>
      </trkpt>
      <trkpt lat="43.53825" lon="2.49115">
        <ele>669.581</ele>
        <time>2021-05-22T09:54:03Z</time>
      </trkpt>
      <trkpt lat="43.53824" lon="2.49118">
        <ele>669.354</ele>
        <time>2021-05-22T09:54:05Z</time>
      </trkpt>
      <trkpt lat="43.53824" lon="2.49121">
        <ele>669.647</ele>
        <time>2021-05-22T09:54:07Z</time>
      </trkpt>
      <trkpt lat="43.53823" lon="2.49123">
        <ele>669.967</ele>
        <time>2021-05-22T09:54:09Z</time>
      </trkpt>
      <trkpt lat="43.53823" lon="2.49123">
        <ele>669.598</ele>
        <time>2021-05-22T09:54:11Z</time>
      </trkpt>
      <trkpt lat="43.53822" lon="2.49126">
        <ele>669.672</ele>
        <time>2021-05-22T09:54:13Z</time>
      </trkpt>
      <trkpt lat="43.53822" lon="2.49129">
        <ele>669.409</ele>
        <time>2021-05-22T09:54:15Z</time>
      </trkpt>
      <trkpt lat="43.53821" lon="2.49132">
        <ele>669.023</ele>
        <time>2021-05-22T09:54:17Z</time>
      </trkpt>
      <trkpt lat="43.53821" lon="2.49135">
        <ele>668.637</ele>
        <time>2021-05-22T09:54:19Z</time>
      </trkpt>
      <trkpt lat="43.53821" lon="2.49139">
        <ele>668.8</ele>
        <time>2021-05-22T09:54:21Z</time>
      </trkpt>
      <trkpt lat="43.5382" lon="2.49143">
        <ele>668.902</ele>
        <time>2021-05-22T09:54:23Z</time>
      </trkpt>
      <trkpt lat="43.5382" lon="2.49146">
        <ele>668.705</ele>
        <time>2021-05-22T09:54:25Z</time>
      </trkpt>
      <trkpt lat="43.53819" lon="2.49151">
        <ele>670.04</ele>
        <time>2021-05-22T09:54:27Z</time>
      </trkpt>
      <trkpt lat="43.53817" lon="2.49155">
        <ele>671.843</ele>
        <time>2021-05-22T09:54:29Z</time>
      </trkpt>
      <trkpt lat="43.53816" lon="2.49159">
        <ele>672.433</ele>
        <time>2021-05-22T09:54:31Z</time>
      </trkpt>
      <trkpt lat="43.53815" lon="2.49162">
        <ele>672.349</ele>
        <time>2021-05-22T09:54:33Z</time>
      </trkpt>
      <trkpt lat="43.53815" lon="2.49165">
        <ele>671.936</ele>
        <time>2021-05-22T09:54:35Z</time>
      </trkpt>
      <trkpt lat="43.53814" lon="2.49168">
        <ele>672.345</ele>
        <time>2021-05-22T09:54:37Z</time>
      </trkpt>
      <trkpt lat="43.53814" lon="2.49171">
        <ele>671.786</ele>
        <time>2021-05-22T09:54:39Z</time>
      </trkpt>
      <trkpt lat="43.53813" lon="2.49175">
        <ele>671.865</ele>
        <time>2021-05-22T09:54:41Z</time>
      </trkpt>
      <trkpt lat="43.53813" lon="2.4918">
        <ele>672.18</ele>
        <time>2021-05-22T09:54:43Z</time>
      </trkpt>
      <trkpt lat="43.53812" lon="2.49183">
        <ele>672.548</ele>
        <time>2021-05-22T09:54:45Z</time>
      </trkpt>
      <trkpt lat="43.53812" lon="2.49186">
        <ele>672.319</ele>
        <time>2021-05-22T09:54:47Z</time>
      </trkpt>
      <trkpt lat="43.53812" lon="2.49189">
        <ele>671.917</ele>
        <time>2021-05-22T09:54:49Z</time>
      </trkpt>
      <trkpt lat="43.53811" lon="2.49192">
        <ele>671.558</ele>
        <time>2021-05-22T09:54:51Z</time>
      </trkpt>
      <trkpt lat="43.53811" lon="2.49196">
        <ele>670.927</ele>
        <time>2021-05-22T09:54:53Z</time>
      </trkpt>
      <trkpt lat="43.5381" lon="2.49199">
        <ele>670.494</ele>
        <time>2021-05-22T09:54:55Z</time>
      </trkpt>
      <trkpt lat="43.5381" lon="2.49203">
        <ele>670.406</ele>
        <time>2021-05-22T09:54:57Z</time>
      </trkpt>
      <trkpt lat="43.53809" lon="2.49207">
        <ele>669.763</ele>
        <time>2021-05-22T09:54:59Z</time>
      </trkpt>
      <trkpt lat="43.53809" lon="2.4921">
        <ele>669.302</ele>
        <time>2021-05-22T09:55:01Z</time>
      </trkpt>
      <trkpt lat="43.53808" lon="2.49213">
        <ele>668.965</ele>
        <time>2021-05-22T09:55:03Z</time>
      </trkpt>
      <trkpt lat="43.53808" lon="2.49216">
        <ele>669.072</ele>
        <time>2021-05-22T09:55:05Z</time>
      </trkpt>
      <trkpt lat="43.53808" lon="2.49219">
        <ele>668.99</ele>
        <time>2021-05-22T09:55:07Z</time>
      </trkpt>
      <trkpt lat="43.53807" lon="2.49223">
        <ele>669.665</ele>
        <time>2021-05-22T09:55:09Z</time>
      </trkpt>
      <trkpt lat="43.53807" lon="2.49227">
        <ele>670.363</ele>
        <time>2021-05-22T09:55:11Z</time>
      </trkpt>
      <trkpt lat="43.53806" lon="2.49229">
        <ele>669.933</ele>
        <time>2021-05-22T09:55:13Z</time>
      </trkpt>
      <trkpt lat="43.53806" lon="2.49231">
        <ele>669.114</ele>
        <time>2021-05-22T09:55:15Z</time>
      </trkpt>
      <trkpt lat="43.53805" lon="2.49234">
        <ele>669.809</ele>
        <time>2021-05-22T09:55:17Z</time>
      </trkpt>
      <trkpt lat="43.53805" lon="2.49238">
        <ele>670.18</ele>
        <time>2021-05-22T09:55:19Z</time>
      </trkpt>
      <trkpt lat="43.53804" lon="2.49242">
        <ele>670.391</ele>
        <time>2021-05-22T09:55:21Z</time>
      </trkpt>
      <trkpt lat="43.53804" lon="2.49246">
        <ele>671.411</ele>
        <time>2021-05-22T09:55:23Z</time>
      </trkpt>
      <trkpt lat="43.53804" lon="2.49249">
        <ele>671.653</ele>
        <time>2021-05-22T09:55:25Z</time>
      </trkpt>
      <trkpt lat="43.53803" lon="2.49252">
        <ele>671.337</ele>
        <time>2021-05-22T09:55:27Z</time>
      </trkpt>
      <trkpt lat="43.53803" lon="2.49255">
        <ele>671.169</ele>
        <time>2021-05-22T09:55:29Z</time>
      </trkpt>
      <trkpt lat="43.53804" lon="2.49259">
        <ele>671.204</ele>
        <time>2021-05-22T09:55:31Z</time>
      </trkpt>
      <trkpt lat="43.53803" lon="2.49261">
        <ele>670.526</ele>
        <time>2021-05-22T09:55:33Z</time>
      </trkpt>
      <trkpt lat="43.53803" lon="2.49263">
        <ele>668.977</ele>
        <time>2021-05-22T09:55:35Z</time>
      </trkpt>
      <trkpt lat="43.53801" lon="2.49264">
        <ele>667.336</ele>
        <time>2021-05-22T09:55:37Z</time>
      </trkpt>
      <trkpt lat="43.538" lon="2.49263">
        <ele>667.532</ele>
        <time>2021-05-22T09:55:39Z</time>
      </trkpt>
      <trkpt lat="43.53798" lon="2.49263">
        <ele>666.985</ele>
        <time>2021-05-22T09:55:41Z</time>
      </trkpt>
      <trkpt lat="43.53798" lon="2.49263">
        <ele>667.35</ele>
        <time>2021-05-22T09:55:43Z</time>
      </trkpt>
      <trkpt lat="43.53799" lon="2.49263">
        <ele>667.631</ele>
        <time>2021-05-22T09:55:45Z</time>
      </trkpt>
      <trkpt lat="43.53798" lon="2.49262">
        <ele>668.179</ele>
        <time>2021-05-22T09:55:47Z</time>
      </trkpt>
      <trkpt lat="43.53797" lon="2.49261">
        <ele>668.714</ele>
        <time>2021-05-22T09:55:49Z</time>
      </trkpt>
      <trkpt lat="43.53796" lon="2.49261">
        <ele>669.228</ele>
        <time>2021-05-22T09:55:51Z</time>
      </trkpt>
      <trkpt lat="43.53795" lon="2.4926">
        <ele>669.164</ele>
        <time>2021-05-22T09:55:53Z</time>
      </trkpt>
      <trkpt lat="43.53794" lon="2.49259">
        <ele>669.071</ele>
        <time>2021-05-22T09:55:55Z</time>
      </trkpt>
      <trkpt lat="43.53792" lon="2.49259">
        <ele>669.349</ele>
        <time>2021-05-22T09:55:57Z</time>
      </trkpt>
      <trkpt lat="43.53791" lon="2.4926">
        <ele>669.673</ele>
        <time>2021-05-22T09:55:59Z</time>
      </trkpt>
      <trkpt lat="43.53791" lon="2.4926">
        <ele>671.198</ele>
        <time>2021-05-22T09:56:01Z</time>
      </trkpt>
      <trkpt lat="43.5379" lon="2.49262">
        <ele>671.722</ele>
        <time>2021-05-22T09:56:03Z</time>
      </trkpt>
      <trkpt lat="43.53789" lon="2.49262">
        <ele>672.509</ele>
        <time>2021-05-22T09:56:05Z</time>
      </trkpt>
      <trkpt lat="43.53789" lon="2.49264">
        <ele>672.469</ele>
        <time>2021-05-22T09:56:07Z</time>
      </trkpt>
      <trkpt lat="43.53789" lon="2.49265">
        <ele>674.412</ele>
        <time>2021-05-22T09:56:09Z</time>
      </trkpt>
      <trkpt lat="43.53792" lon="2.49266">
        <ele>675.644</ele>
        <time>2021-05-22T09:56:11Z</time>
      </trkpt>
      <trkpt lat="43.53794" lon="2.49268">
        <ele>677.164</ele>
        <time>2021-05-22T09:56:13Z</time>
      </trkpt>
      <trkpt lat="43.53795" lon="2.49268">
        <ele>677.367</ele>
        <time>2021-05-22T09:56:15Z</time>
      </trkpt>
      <trkpt lat="43.53796" lon="2.49269">
        <ele>678.551</ele>
        <time>2021-05-22T09:56:17Z</time>
      </trkpt>
      <trkpt lat="43.53797" lon="2.49271">
        <ele>678.999</ele>
        <time>2021-05-22T09:56:19Z</time>
      </trkpt>
      <trkpt lat="43.53798" lon="2.49272">
        <ele>680.451</ele>
        <time>2021-05-22T09:56:21Z</time>
      </trkpt>
      <trkpt lat="43.53799" lon="2.49274">
        <ele>679.465</ele>
        <time>2021-05-22T09:56:23Z</time>
      </trkpt>
      <trkpt lat="43.53798" lon="2.49275">
        <ele>680.151</ele>
        <time>2021-05-22T09:56:25Z</time>
      </trkpt>
      <trkpt lat="43.53797" lon="2.49277">
        <ele>680.637</ele>
        <time>2021-05-22T09:56:27Z</time>
      </trkpt>
      <trkpt lat="43.53796" lon="2.49279">
        <ele>681.872</ele>
        <time>2021-05-22T09:56:29Z</time>
      </trkpt>
      <trkpt lat="43.53796" lon="2.4928">
        <ele>684.774</ele>
        <time>2021-05-22T09:56:31Z</time>
      </trkpt>
      <trkpt lat="43.53798" lon="2.49281">
        <ele>684.897</ele>
        <time>2021-05-22T09:56:33Z</time>
      </trkpt>
      <trkpt lat="43.53799" lon="2.49282">
        <ele>685.916</ele>
        <time>2021-05-22T09:56:35Z</time>
      </trkpt>
      <trkpt lat="43.538" lon="2.49285">
        <ele>684.031</ele>
        <time>2021-05-22T09:56:37Z</time>
      </trkpt>
      <trkpt lat="43.53801" lon="2.49287">
        <ele>683.757</ele>
        <time>2021-05-22T09:56:39Z</time>
      </trkpt>
      <trkpt lat="43.53801" lon="2.49289">
        <ele>682.584</ele>
        <time>2021-05-22T09:56:41Z</time>
      </trkpt>
      <trkpt lat="43.53801" lon="2.49292">
        <ele>680.778</ele>
        <time>2021-05-22T09:56:43Z</time>
      </trkpt>
      <trkpt lat="43.53802" lon="2.49294">
        <ele>681.384</ele>
        <time>2021-05-22T09:56:45Z</time>
      </trkpt>
      <trkpt lat="43.53801" lon="2.49296">
        <ele>680.84</ele>
        <time>2021-05-22T09:56:47Z</time>
      </trkpt>
      <trkpt lat="43.53801" lon="2.49299">
        <ele>680.741</ele>
        <time>2021-05-22T09:56:49Z</time>
      </trkpt>
      <trkpt lat="43.53799" lon="2.49301">
        <ele>681.037</ele>
        <time>2021-05-22T09:56:51Z</time>
      </trkpt>
      <trkpt lat="43.53797" lon="2.49304">
        <ele>680.409</ele>
        <time>2021-05-22T09:56:53Z</time>
      </trkpt>
      <trkpt lat="43.53796" lon="2.49306">
        <ele>679.16</ele>
        <time>2021-05-22T09:56:55Z</time>
      </trkpt>
      <trkpt lat="43.53796" lon="2.49308">
        <ele>679.571</ele>
        <time>2021-05-22T09:56:57Z</time>
      </trkpt>
      <trkpt lat="43.53795" lon="2.49309">
        <ele>678.615</ele>
        <time>2021-05-22T09:56:59Z</time>
      </trkpt>
      <trkpt lat="43.53792" lon="2.49308">
        <ele>678.126</ele>
        <time>2021-05-22T09:57:01Z</time>
      </trkpt>
      <trkpt lat="43.5379" lon="2.49307">
        <ele>679.435</ele>
        <time>2021-05-22T09:57:03Z</time>
      </trkpt>
      <trkpt lat="43.5379" lon="2.49305">
        <ele>681.957</ele>
        <time>2021-05-22T09:57:05Z</time>
      </trkpt>
      <trkpt lat="43.53788" lon="2.49304">
        <ele>682.6</ele>
        <time>2021-05-22T09:57:07Z</time>
      </trkpt>
      <trkpt lat="43.53787" lon="2.49305">
        <ele>682.998</ele>
        <time>2021-05-22T09:57:09Z</time>
      </trkpt>
      <trkpt lat="43.53785" lon="2.49305">
        <ele>683.856</ele>
        <time>2021-05-22T09:57:11Z</time>
      </trkpt>
      <trkpt lat="43.53784" lon="2.49305">
        <ele>683.249</ele>
        <time>2021-05-22T09:57:13Z</time>
      </trkpt>
      <trkpt lat="43.53783" lon="2.49304">
        <ele>685.338</ele>
        <time>2021-05-22T09:57:15Z</time>
      </trkpt>
      <trkpt lat="43.53783" lon="2.49306">
        <ele>685.172</ele>
        <time>2021-05-22T09:57:17Z</time>
      </trkpt>
      <trkpt lat="43.53782" lon="2.49306">
        <ele>685.839</ele>
        <time>2021-05-22T09:57:19Z</time>
      </trkpt>
      <trkpt lat="43.5378" lon="2.49306">
        <ele>685.396</ele>
        <time>2021-05-22T09:57:21Z</time>
      </trkpt>
      <trkpt lat="43.53778" lon="2.49305">
        <ele>686.6</ele>
        <time>2021-05-22T09:57:23Z</time>
      </trkpt>
      <trkpt lat="43.53776" lon="2.49304">
        <ele>687.557</ele>
        <time>2021-05-22T09:57:25Z</time>
      </trkpt>
      <trkpt lat="43.53775" lon="2.49304">
        <ele>688.001</ele>
        <time>2021-05-22T09:57:27Z</time>
      </trkpt>
      <trkpt lat="43.53773" lon="2.49303">
        <ele>689.054</ele>
        <time>2021-05-22T09:57:29Z</time>
      </trkpt>
      <trkpt lat="43.53771" lon="2.49301">
        <ele>689.08</ele>
        <time>2021-05-22T09:57:31Z</time>
      </trkpt>
      <trkpt lat="43.53769" lon="2.49301">
        <ele>689.158</ele>
        <time>2021-05-22T09:57:33Z</time>
      </trkpt>
      <trkpt lat="43.53767" lon="2.49301">
        <ele>689.798</ele>
        <time>2021-05-22T09:57:35Z</time>
      </trkpt>
      <trkpt lat="43.53766" lon="2.49301">
        <ele>688.527</ele>
        <time>2021-05-22T09:57:37Z</time>
      </trkpt>
      <trkpt lat="43.53764" lon="2.49302">
        <ele>689.752</ele>
        <time>2021-05-22T09:57:39Z</time>
      </trkpt>
      <trkpt lat="43.53763" lon="2.49301">
        <ele>690.351</ele>
        <time>2021-05-22T09:57:41Z</time>
      </trkpt>
      <trkpt lat="43.53766" lon="2.49301">
        <ele>692.204</ele>
        <time>2021-05-22T09:57:43Z</time>
      </trkpt>
      <trkpt lat="43.53764" lon="2.49301">
        <ele>692.352</ele>
        <time>2021-05-22T09:57:45Z</time>
      </trkpt>
      <trkpt lat="43.53764" lon="2.49301">
        <ele>691.658</ele>
        <time>2021-05-22T09:57:47Z</time>
      </trkpt>
      <trkpt lat="43.53762" lon="2.49302">
        <ele>692.6</ele>
        <time>2021-05-22T09:57:49Z</time>
      </trkpt>
      <trkpt lat="43.5376" lon="2.49303">
        <ele>692.382</ele>
        <time>2021-05-22T09:57:51Z</time>
      </trkpt>
      <trkpt lat="43.53759" lon="2.49306">
        <ele>692.251</ele>
        <time>2021-05-22T09:57:53Z</time>
      </trkpt>
      <trkpt lat="43.53759" lon="2.49307">
        <ele>691.536</ele>
        <time>2021-05-22T09:57:55Z</time>
      </trkpt>
      <trkpt lat="43.53759" lon="2.49307">
        <ele>691.286</ele>
        <time>2021-05-22T09:57:57Z</time>
      </trkpt>
      <trkpt lat="43.53759" lon="2.49307">
        <ele>691.3</ele>
        <time>2021-05-22T09:57:59Z</time>
      </trkpt>
      <trkpt lat="43.53758" lon="2.49307">
        <ele>691.81</ele>
        <time>2021-05-22T09:58:01Z</time>
      </trkpt>
      <trkpt lat="43.53756" lon="2.49305">
        <ele>693.258</ele>
        <time>2021-05-22T09:58:03Z</time>
      </trkpt>
      <trkpt lat="43.53755" lon="2.49305">
        <ele>694.438</ele>
        <time>2021-05-22T09:58:05Z</time>
      </trkpt>
      <trkpt lat="43.53753" lon="2.49305">
        <ele>694.378</ele>
        <time>2021-05-22T09:58:07Z</time>
      </trkpt>
      <trkpt lat="43.53752" lon="2.49306">
        <ele>694.165</ele>
        <time>2021-05-22T09:58:09Z</time>
      </trkpt>
      <trkpt lat="43.53751" lon="2.49306">
        <ele>693.285</ele>
        <time>2021-05-22T09:58:11Z</time>
      </trkpt>
      <trkpt lat="43.53753" lon="2.49306">
        <ele>694.309</ele>
        <time>2021-05-22T09:58:13Z</time>
      </trkpt>
      <trkpt lat="43.53753" lon="2.49306">
        <ele>694.32</ele>
        <time>2021-05-22T09:58:15Z</time>
      </trkpt>
      <trkpt lat="43.53753" lon="2.49306">
        <ele>694.318</ele>
        <time>2021-05-22T09:58:17Z</time>
      </trkpt>
      <trkpt lat="43.53753" lon="2.49306">
        <ele>694.329</ele>
        <time>2021-05-22T09:58:19Z</time>
      </trkpt>
      <trkpt lat="43.53753" lon="2.49306">
        <ele>694.345</ele>
        <time>2021-05-22T09:58:21Z</time>
      </trkpt>
      <trkpt lat="43.53752" lon="2.49306">
        <ele>695.388</ele>
        <time>2021-05-22T09:58:23Z</time>
      </trkpt>
      <trkpt lat="43.53751" lon="2.49306">
        <ele>697.079</ele>
        <time>2021-05-22T09:58:25Z</time>
      </trkpt>
      <trkpt lat="43.5375" lon="2.49307">
        <ele>697.368</ele>
        <time>2021-05-22T09:58:27Z</time>
      </trkpt>
      <trkpt lat="43.53748" lon="2.49307">
        <ele>697.991</ele>
        <time>2021-05-22T09:58:29Z</time>
      </trkpt>
      <trkpt lat="43.53747" lon="2.49308">
        <ele>698.531</ele>
        <time>2021-05-22T09:58:31Z</time>
      </trkpt>
      <trkpt lat="43.53745" lon="2.49308">
        <ele>699.681</ele>
        <time>2021-05-22T09:58:33Z</time>
      </trkpt>
      <trkpt lat="43.53744" lon="2.49308">
        <ele>699.53</ele>
        <time>2021-05-22T09:58:35Z</time>
      </trkpt>
      <trkpt lat="43.53743" lon="2.49308">
        <ele>699.493</ele>
        <time>2021-05-22T09:58:37Z</time>
      </trkpt>
      <trkpt lat="43.53742" lon="2.49307">
        <ele>700.656</ele>
        <time>2021-05-22T09:58:39Z</time>
      </trkpt>
      <trkpt lat="43.53742" lon="2.49306">
        <ele>700.787</ele>
        <time>2021-05-22T09:58:41Z</time>
      </trkpt>
      <trkpt lat="43.53742" lon="2.49307">
        <ele>701.033</ele>
        <time>2021-05-22T09:58:43Z</time>
      </trkpt>
      <trkpt lat="43.53742" lon="2.49309">
        <ele>700.348</ele>
        <time>2021-05-22T09:58:45Z</time>
      </trkpt>
      <trkpt lat="43.53741" lon="2.49308">
        <ele>700.711</ele>
        <time>2021-05-22T09:58:47Z</time>
      </trkpt>
      <trkpt lat="43.5374" lon="2.49307">
        <ele>702.223</ele>
        <time>2021-05-22T09:58:49Z</time>
      </trkpt>
      <trkpt lat="43.53738" lon="2.49306">
        <ele>702.101</ele>
        <time>2021-05-22T09:58:51Z</time>
      </trkpt>
      <trkpt lat="43.53738" lon="2.49306">
        <ele>701.632</ele>
        <time>2021-05-22T09:58:53Z</time>
      </trkpt>
      <trkpt lat="43.53736" lon="2.49305">
        <ele>701.741</ele>
        <time>2021-05-22T09:58:55Z</time>
      </trkpt>
      <trkpt lat="43.53735" lon="2.49305">
        <ele>702.781</ele>
        <time>2021-05-22T09:58:57Z</time>
      </trkpt>
      <trkpt lat="43.53733" lon="2.49307">
        <ele>703.363</ele>
        <time>2021-05-22T09:58:59Z</time>
      </trkpt>
      <trkpt lat="43.53732" lon="2.49307">
        <ele>704.233</ele>
        <time>2021-05-22T09:59:01Z</time>
      </trkpt>
      <trkpt lat="43.53731" lon="2.49308">
        <ele>704.343</ele>
        <time>2021-05-22T09:59:03Z</time>
      </trkpt>
      <trkpt lat="43.53729" lon="2.49308">
        <ele>704.847</ele>
        <time>2021-05-22T09:59:05Z</time>
      </trkpt>
      <trkpt lat="43.53728" lon="2.49307">
        <ele>706.131</ele>
        <time>2021-05-22T09:59:07Z</time>
      </trkpt>
      <trkpt lat="43.53726" lon="2.49308">
        <ele>706.387</ele>
        <time>2021-05-22T09:59:09Z</time>
      </trkpt>
      <trkpt lat="43.53725" lon="2.49308">
        <ele>706.895</ele>
        <time>2021-05-22T09:59:11Z</time>
      </trkpt>
      <trkpt lat="43.53722" lon="2.49308">
        <ele>708.088</ele>
        <time>2021-05-22T09:59:13Z</time>
      </trkpt>
      <trkpt lat="43.53719" lon="2.49309">
        <ele>709.34</ele>
        <time>2021-05-22T09:59:15Z</time>
      </trkpt>
      <trkpt lat="43.53717" lon="2.49306">
        <ele>709.499</ele>
        <time>2021-05-22T09:59:17Z</time>
      </trkpt>
      <trkpt lat="43.53715" lon="2.49307">
        <ele>708.44</ele>
        <time>2021-05-22T09:59:19Z</time>
      </trkpt>
      <trkpt lat="43.53716" lon="2.49309">
        <ele>710.322</ele>
        <time>2021-05-22T09:59:21Z</time>
      </trkpt>
      <trkpt lat="43.53715" lon="2.49309">
        <ele>710.449</ele>
        <time>2021-05-22T09:59:23Z</time>
      </trkpt>
      <trkpt lat="43.53714" lon="2.4931">
        <ele>711.055</ele>
        <time>2021-05-22T09:59:25Z</time>
      </trkpt>
      <trkpt lat="43.53713" lon="2.4931">
        <ele>711.432</ele>
        <time>2021-05-22T09:59:27Z</time>
      </trkpt>
      <trkpt lat="43.53712" lon="2.4931">
        <ele>711.673</ele>
        <time>2021-05-22T09:59:29Z</time>
      </trkpt>
      <trkpt lat="43.53712" lon="2.4931">
        <ele>711.772</ele>
        <time>2021-05-22T09:59:31Z</time>
      </trkpt>
      <trkpt lat="43.53712" lon="2.49308">
        <ele>713.169</ele>
        <time>2021-05-22T09:59:33Z</time>
      </trkpt>
      <trkpt lat="43.53712" lon="2.49307">
        <ele>713.462</ele>
        <time>2021-05-22T09:59:35Z</time>
      </trkpt>
      <trkpt lat="43.53709" lon="2.49303">
        <ele>711.706</ele>
        <time>2021-05-22T09:59:37Z</time>
      </trkpt>
      <trkpt lat="43.53708" lon="2.49302">
        <ele>711.925</ele>
        <time>2021-05-22T09:59:39Z</time>
      </trkpt>
      <trkpt lat="43.53707" lon="2.493">
        <ele>713.351</ele>
        <time>2021-05-22T09:59:41Z</time>
      </trkpt>
      <trkpt lat="43.53706" lon="2.49296">
        <ele>711.9</ele>
        <time>2021-05-22T09:59:43Z</time>
      </trkpt>
      <trkpt lat="43.53705" lon="2.49295">
        <ele>711.269</ele>
        <time>2021-05-22T09:59:45Z</time>
      </trkpt>
      <trkpt lat="43.53704" lon="2.49293">
        <ele>710.838</ele>
        <time>2021-05-22T09:59:47Z</time>
      </trkpt>
      <trkpt lat="43.53703" lon="2.49293">
        <ele>710.656</ele>
        <time>2021-05-22T09:59:49Z</time>
      </trkpt>
      <trkpt lat="43.53703" lon="2.49289">
        <ele>711.413</ele>
        <time>2021-05-22T09:59:51Z</time>
      </trkpt>
      <trkpt lat="43.53705" lon="2.49287">
        <ele>712.01</ele>
        <time>2021-05-22T09:59:53Z</time>
      </trkpt>
      <trkpt lat="43.53705" lon="2.49285">
        <ele>713.289</ele>
        <time>2021-05-22T09:59:55Z</time>
      </trkpt>
      <trkpt lat="43.53704" lon="2.49283">
        <ele>713.949</ele>
        <time>2021-05-22T09:59:57Z</time>
      </trkpt>
      <trkpt lat="43.53704" lon="2.4928">
        <ele>714.698</ele>
        <time>2021-05-22T09:59:59Z</time>
      </trkpt>
      <trkpt lat="43.53703" lon="2.49277">
        <ele>713.663</ele>
        <time>2021-05-22T10:00:01Z</time>
      </trkpt>
      <trkpt lat="43.53702" lon="2.49275">
        <ele>713.049</ele>
        <time>2021-05-22T10:00:03Z</time>
      </trkpt>
      <trkpt lat="43.53701" lon="2.49273">
        <ele>713.709</ele>
        <time>2021-05-22T10:00:05Z</time>
      </trkpt>
      <trkpt lat="43.53701" lon="2.49273">
        <ele>713.573</ele>
        <time>2021-05-22T10:00:07Z</time>
      </trkpt>
      <trkpt lat="43.53699" lon="2.49274">
        <ele>712.211</ele>
        <time>2021-05-22T10:00:09Z</time>
      </trkpt>
      <trkpt lat="43.53699" lon="2.49274">
        <ele>711.73</ele>
        <time>2021-05-22T10:00:11Z</time>
      </trkpt>
      <trkpt lat="43.53699" lon="2.49274">
        <ele>711.908</ele>
        <time>2021-05-22T10:00:13Z</time>
      </trkpt>
      <trkpt lat="43.53699" lon="2.49273">
        <ele>713.212</ele>
        <time>2021-05-22T10:00:15Z</time>
      </trkpt>
      <trkpt lat="43.53699" lon="2.49271">
        <ele>713.583</ele>
        <time>2021-05-22T10:00:17Z</time>
      </trkpt>
      <trkpt lat="43.53698" lon="2.49269">
        <ele>714.285</ele>
        <time>2021-05-22T10:00:19Z</time>
      </trkpt>
      <trkpt lat="43.53697" lon="2.49267">
        <ele>714.029</ele>
        <time>2021-05-22T10:00:21Z</time>
      </trkpt>
      <trkpt lat="43.53696" lon="2.49266">
        <ele>713.357</ele>
        <time>2021-05-22T10:00:23Z</time>
      </trkpt>
      <trkpt lat="43.53694" lon="2.49263">
        <ele>712.654</ele>
        <time>2021-05-22T10:00:25Z</time>
      </trkpt>
      <trkpt lat="43.53693" lon="2.49261">
        <ele>712.954</ele>
        <time>2021-05-22T10:00:27Z</time>
      </trkpt>
      <trkpt lat="43.53693" lon="2.49259">
        <ele>712.981</ele>
        <time>2021-05-22T10:00:29Z</time>
      </trkpt>
      <trkpt lat="43.53694" lon="2.49255">
        <ele>714.9</ele>
        <time>2021-05-22T10:00:31Z</time>
      </trkpt>
      <trkpt lat="43.53696" lon="2.49253">
        <ele>717.099</ele>
        <time>2021-05-22T10:00:33Z</time>
      </trkpt>
      <trkpt lat="43.53696" lon="2.4925">
        <ele>716.573</ele>
        <time>2021-05-22T10:00:35Z</time>
      </trkpt>
      <trkpt lat="43.53694" lon="2.49249">
        <ele>715.62</ele>
        <time>2021-05-22T10:00:37Z</time>
      </trkpt>
      <trkpt lat="43.53692" lon="2.49247">
        <ele>714.35</ele>
        <time>2021-05-22T10:00:39Z</time>
      </trkpt>
      <trkpt lat="43.53692" lon="2.49245">
        <ele>714.936</ele>
        <time>2021-05-22T10:00:41Z</time>
      </trkpt>
      <trkpt lat="43.5369" lon="2.49243">
        <ele>714.753</ele>
        <time>2021-05-22T10:00:43Z</time>
      </trkpt>
      <trkpt lat="43.53689" lon="2.49241">
        <ele>715.186</ele>
        <time>2021-05-22T10:00:45Z</time>
      </trkpt>
      <trkpt lat="43.53687" lon="2.49239">
        <ele>715.001</ele>
        <time>2021-05-22T10:00:47Z</time>
      </trkpt>
      <trkpt lat="43.53686" lon="2.49237">
        <ele>715.562</ele>
        <time>2021-05-22T10:00:49Z</time>
      </trkpt>
      <trkpt lat="43.53685" lon="2.49234">
        <ele>717.609</ele>
        <time>2021-05-22T10:00:51Z</time>
      </trkpt>
      <trkpt lat="43.53683" lon="2.49232">
        <ele>717.298</ele>
        <time>2021-05-22T10:00:53Z</time>
      </trkpt>
      <trkpt lat="43.53681" lon="2.4923">
        <ele>716.745</ele>
        <time>2021-05-22T10:00:55Z</time>
      </trkpt>
      <trkpt lat="43.5368" lon="2.49228">
        <ele>717.083</ele>
        <time>2021-05-22T10:00:57Z</time>
      </trkpt>
      <trkpt lat="43.53678" lon="2.49226">
        <ele>717.929</ele>
        <time>2021-05-22T10:00:59Z</time>
      </trkpt>
      <trkpt lat="43.53675" lon="2.49224">
        <ele>718.365</ele>
        <time>2021-05-22T10:01:01Z</time>
      </trkpt>
      <trkpt lat="43.53673" lon="2.49222">
        <ele>719.542</ele>
        <time>2021-05-22T10:01:03Z</time>
      </trkpt>
      <trkpt lat="43.5367" lon="2.4922">
        <ele>720.177</ele>
        <time>2021-05-22T10:01:05Z</time>
      </trkpt>
      <trkpt lat="43.53669" lon="2.49217">
        <ele>722.409</ele>
        <time>2021-05-22T10:01:07Z</time>
      </trkpt>
      <trkpt lat="43.53666" lon="2.49215">
        <ele>723.121</ele>
        <time>2021-05-22T10:01:09Z</time>
      </trkpt>
      <trkpt lat="43.53664" lon="2.49212">
        <ele>724.254</ele>
        <time>2021-05-22T10:01:11Z</time>
      </trkpt>
      <trkpt lat="43.53662" lon="2.4921">
        <ele>725.583</ele>
        <time>2021-05-22T10:01:13Z</time>
      </trkpt>
      <trkpt lat="43.5366" lon="2.49208">
        <ele>725.97</ele>
        <time>2021-05-22T10:01:15Z</time>
      </trkpt>
      <trkpt lat="43.53658" lon="2.49206">
        <ele>726.329</ele>
        <time>2021-05-22T10:01:17Z</time>
      </trkpt>
      <trkpt lat="43.53656" lon="2.49205">
        <ele>725.507</ele>
        <time>2021-05-22T10:01:19Z</time>
      </trkpt>
      <trkpt lat="43.53654" lon="2.49203">
        <ele>725.437</ele>
        <time>2021-05-22T10:01:21Z</time>
      </trkpt>
      <trkpt lat="43.53651" lon="2.49202">
        <ele>725.029</ele>
        <time>2021-05-22T10:01:23Z</time>
      </trkpt>
      <trkpt lat="43.53648" lon="2.49199">
        <ele>724.49</ele>
        <time>2021-05-22T10:01:25Z</time>
      </trkpt>
      <trkpt lat="43.53647" lon="2.49197">
        <ele>724.851</ele>
        <time>2021-05-22T10:01:27Z</time>
      </trkpt>
      <trkpt lat="43.53645" lon="2.49195">
        <ele>725.858</ele>
        <time>2021-05-22T10:01:29Z</time>
      </trkpt>
      <trkpt lat="43.53643" lon="2.49194">
        <ele>724.115</ele>
        <time>2021-05-22T10:01:31Z</time>
      </trkpt>
      <trkpt lat="43.53641" lon="2.49192">
        <ele>724.638</ele>
        <time>2021-05-22T10:01:33Z</time>
      </trkpt>
      <trkpt lat="43.5364" lon="2.4919">
        <ele>723.6</ele>
        <time>2021-05-22T10:01:35Z</time>
      </trkpt>
      <trkpt lat="43.53638" lon="2.49188">
        <ele>722.801</ele>
        <time>2021-05-22T10:01:37Z</time>
      </trkpt>
      <trkpt lat="43.53635" lon="2.49186">
        <ele>721.711</ele>
        <time>2021-05-22T10:01:39Z</time>
      </trkpt>
      <trkpt lat="43.53634" lon="2.49185">
        <ele>722.077</ele>
        <time>2021-05-22T10:01:41Z</time>
      </trkpt>
      <trkpt lat="43.53632" lon="2.49184">
        <ele>721.817</ele>
        <time>2021-05-22T10:01:43Z</time>
      </trkpt>
      <trkpt lat="43.5363" lon="2.4918">
        <ele>722.218</ele>
        <time>2021-05-22T10:01:45Z</time>
      </trkpt>
      <trkpt lat="43.53636" lon="2.4918">
        <ele>726.725</ele>
        <time>2021-05-22T10:01:47Z</time>
      </trkpt>
      <trkpt lat="43.53637" lon="2.49177">
        <ele>729.166</ele>
        <time>2021-05-22T10:01:49Z</time>
      </trkpt>
      <trkpt lat="43.53637" lon="2.49175">
        <ele>730.037</ele>
        <time>2021-05-22T10:01:50Z</time>
      </trkpt>
      <trkpt lat="43.53634" lon="2.49173">
        <ele>730.294</ele>
        <time>2021-05-22T10:01:53Z</time>
      </trkpt>
      <trkpt lat="43.53633" lon="2.49172">
        <ele>730.337</ele>
        <time>2021-05-22T10:01:55Z</time>
      </trkpt>
      <trkpt lat="43.53631" lon="2.4917">
        <ele>730.953</ele>
        <time>2021-05-22T10:01:57Z</time>
      </trkpt>
      <trkpt lat="43.53629" lon="2.49168">
        <ele>731.028</ele>
        <time>2021-05-22T10:01:59Z</time>
      </trkpt>
      <trkpt lat="43.53628" lon="2.49165">
        <ele>732.279</ele>
        <time>2021-05-22T10:02:01Z</time>
      </trkpt>
      <trkpt lat="43.53628" lon="2.49161">
        <ele>732.628</ele>
        <time>2021-05-22T10:02:03Z</time>
      </trkpt>
      <trkpt lat="43.53631" lon="2.49161">
        <ele>737.374</ele>
        <time>2021-05-22T10:02:05Z</time>
      </trkpt>
      <trkpt lat="43.53634" lon="2.4916">
        <ele>740.003</ele>
        <time>2021-05-22T10:02:07Z</time>
      </trkpt>
      <trkpt lat="43.53633" lon="2.49159">
        <ele>740.035</ele>
        <time>2021-05-22T10:02:09Z</time>
      </trkpt>
      <trkpt lat="43.53632" lon="2.49155">
        <ele>740.257</ele>
        <time>2021-05-22T10:02:12Z</time>
      </trkpt>
      <trkpt lat="43.5363" lon="2.49153">
        <ele>740.136</ele>
        <time>2021-05-22T10:02:14Z</time>
      </trkpt>
      <trkpt lat="43.53628" lon="2.49151">
        <ele>739.981</ele>
        <time>2021-05-22T10:02:16Z</time>
      </trkpt>
      <trkpt lat="43.53626" lon="2.4915">
        <ele>739.625</ele>
        <time>2021-05-22T10:02:18Z</time>
      </trkpt>
      <trkpt lat="43.53625" lon="2.49148">
        <ele>739.387</ele>
        <time>2021-05-22T10:02:20Z</time>
      </trkpt>
      <trkpt lat="43.53622" lon="2.49145">
        <ele>737.435</ele>
        <time>2021-05-22T10:02:22Z</time>
      </trkpt>
      <trkpt lat="43.53619" lon="2.49142">
        <ele>736.542</ele>
        <time>2021-05-22T10:02:24Z</time>
      </trkpt>
      <trkpt lat="43.53618" lon="2.4914">
        <ele>735.761</ele>
        <time>2021-05-22T10:02:26Z</time>
      </trkpt>
      <trkpt lat="43.53617" lon="2.49137">
        <ele>735.305</ele>
        <time>2021-05-22T10:02:28Z</time>
      </trkpt>
      <trkpt lat="43.53616" lon="2.49135">
        <ele>734.407</ele>
        <time>2021-05-22T10:02:30Z</time>
      </trkpt>
      <trkpt lat="43.53615" lon="2.49133">
        <ele>733.454</ele>
        <time>2021-05-22T10:02:32Z</time>
      </trkpt>
      <trkpt lat="43.53614" lon="2.4913">
        <ele>732.161</ele>
        <time>2021-05-22T10:02:34Z</time>
      </trkpt>
      <trkpt lat="43.53613" lon="2.49128">
        <ele>730.951</ele>
        <time>2021-05-22T10:02:36Z</time>
      </trkpt>
      <trkpt lat="43.53613" lon="2.49125">
        <ele>729.595</ele>
        <time>2021-05-22T10:02:38Z</time>
      </trkpt>
      <trkpt lat="43.53612" lon="2.49122">
        <ele>728.426</ele>
        <time>2021-05-22T10:02:40Z</time>
      </trkpt>
      <trkpt lat="43.53611" lon="2.49119">
        <ele>727.504</ele>
        <time>2021-05-22T10:02:42Z</time>
      </trkpt>
      <trkpt lat="43.5361" lon="2.49116">
        <ele>726.293</ele>
        <time>2021-05-22T10:02:44Z</time>
      </trkpt>
      <trkpt lat="43.53609" lon="2.49112">
        <ele>726.716</ele>
        <time>2021-05-22T10:02:46Z</time>
      </trkpt>
      <trkpt lat="43.53609" lon="2.49108">
        <ele>727.099</ele>
        <time>2021-05-22T10:02:48Z</time>
      </trkpt>
      <trkpt lat="43.53608" lon="2.49105">
        <ele>726.043</ele>
        <time>2021-05-22T10:02:50Z</time>
      </trkpt>
      <trkpt lat="43.53607" lon="2.49101">
        <ele>726.218</ele>
        <time>2021-05-22T10:02:52Z</time>
      </trkpt>
      <trkpt lat="43.53606" lon="2.49098">
        <ele>726.095</ele>
        <time>2021-05-22T10:02:54Z</time>
      </trkpt>
      <trkpt lat="43.53605" lon="2.49095">
        <ele>726.334</ele>
        <time>2021-05-22T10:02:56Z</time>
      </trkpt>
      <trkpt lat="43.53604" lon="2.49091">
        <ele>725.788</ele>
        <time>2021-05-22T10:02:58Z</time>
      </trkpt>
      <trkpt lat="43.53603" lon="2.49088">
        <ele>725.637</ele>
        <time>2021-05-22T10:03:00Z</time>
      </trkpt>
      <trkpt lat="43.53601" lon="2.49084">
        <ele>725.755</ele>
        <time>2021-05-22T10:03:02Z</time>
      </trkpt>
      <trkpt lat="43.536" lon="2.49079">
        <ele>725.97</ele>
        <time>2021-05-22T10:03:04Z</time>
      </trkpt>
      <trkpt lat="43.53599" lon="2.49075">
        <ele>726.049</ele>
        <time>2021-05-22T10:03:06Z</time>
      </trkpt>
      <trkpt lat="43.53598" lon="2.4907">
        <ele>724.821</ele>
        <time>2021-05-22T10:03:08Z</time>
      </trkpt>
      <trkpt lat="43.53597" lon="2.49066">
        <ele>725.316</ele>
        <time>2021-05-22T10:03:10Z</time>
      </trkpt>
      <trkpt lat="43.53597" lon="2.49061">
        <ele>725.614</ele>
        <time>2021-05-22T10:03:12Z</time>
      </trkpt>
      <trkpt lat="43.53597" lon="2.49057">
        <ele>726.418</ele>
        <time>2021-05-22T10:03:14Z</time>
      </trkpt>
      <trkpt lat="43.53597" lon="2.49053">
        <ele>727.16</ele>
        <time>2021-05-22T10:03:16Z</time>
      </trkpt>
      <trkpt lat="43.53596" lon="2.49048">
        <ele>726.587</ele>
        <time>2021-05-22T10:03:18Z</time>
      </trkpt>
      <trkpt lat="43.53596" lon="2.49044">
        <ele>727.314</ele>
        <time>2021-05-22T10:03:20Z</time>
      </trkpt>
      <trkpt lat="43.53596" lon="2.49042">
        <ele>727.95</ele>
        <time>2021-05-22T10:03:22Z</time>
      </trkpt>
      <trkpt lat="43.53595" lon="2.49039">
        <ele>727.062</ele>
        <time>2021-05-22T10:03:24Z</time>
      </trkpt>
      <trkpt lat="43.53594" lon="2.49035">
        <ele>727.027</ele>
        <time>2021-05-22T10:03:27Z</time>
      </trkpt>
      <trkpt lat="43.53593" lon="2.49032">
        <ele>726.515</ele>
        <time>2021-05-22T10:03:29Z</time>
      </trkpt>
      <trkpt lat="43.53593" lon="2.49029">
        <ele>726.06</ele>
        <time>2021-05-22T10:03:31Z</time>
      </trkpt>
      <trkpt lat="43.53593" lon="2.49027">
        <ele>725.631</ele>
        <time>2021-05-22T10:03:33Z</time>
      </trkpt>
      <trkpt lat="43.53593" lon="2.49024">
        <ele>725.205</ele>
        <time>2021-05-22T10:03:35Z</time>
      </trkpt>
      <trkpt lat="43.53593" lon="2.49022">
        <ele>725.755</ele>
        <time>2021-05-22T10:03:37Z</time>
      </trkpt>
      <trkpt lat="43.53594" lon="2.4902">
        <ele>725.359</ele>
        <time>2021-05-22T10:03:39Z</time>
      </trkpt>
      <trkpt lat="43.53594" lon="2.49017">
        <ele>724.322</ele>
        <time>2021-05-22T10:03:41Z</time>
      </trkpt>
      <trkpt lat="43.53594" lon="2.49014">
        <ele>724.196</ele>
        <time>2021-05-22T10:03:43Z</time>
      </trkpt>
      <trkpt lat="43.53594" lon="2.4901">
        <ele>724.421</ele>
        <time>2021-05-22T10:03:45Z</time>
      </trkpt>
      <trkpt lat="43.53595" lon="2.49007">
        <ele>724.321</ele>
        <time>2021-05-22T10:03:47Z</time>
      </trkpt>
      <trkpt lat="43.53595" lon="2.49004">
        <ele>724.39</ele>
        <time>2021-05-22T10:03:49Z</time>
      </trkpt>
      <trkpt lat="43.53596" lon="2.49001">
        <ele>724.481</ele>
        <time>2021-05-22T10:03:51Z</time>
      </trkpt>
      <trkpt lat="43.53597" lon="2.48998">
        <ele>724.22</ele>
        <time>2021-05-22T10:03:53Z</time>
      </trkpt>
      <trkpt lat="43.53597" lon="2.48995">
        <ele>724.184</ele>
        <time>2021-05-22T10:03:55Z</time>
      </trkpt>
      <trkpt lat="43.53597" lon="2.48992">
        <ele>724.585</ele>
        <time>2021-05-22T10:03:57Z</time>
      </trkpt>
      <trkpt lat="43.53597" lon="2.4899">
        <ele>723.994</ele>
        <time>2021-05-22T10:03:59Z</time>
      </trkpt>
      <trkpt lat="43.53598" lon="2.48986">
        <ele>724.97</ele>
        <time>2021-05-22T10:04:01Z</time>
      </trkpt>
      <trkpt lat="43.53597" lon="2.48983">
        <ele>724.359</ele>
        <time>2021-05-22T10:04:03Z</time>
      </trkpt>
      <trkpt lat="43.53597" lon="2.48981">
        <ele>724.606</ele>
        <time>2021-05-22T10:04:05Z</time>
      </trkpt>
      <trkpt lat="43.53597" lon="2.48978">
        <ele>724.446</ele>
        <time>2021-05-22T10:04:07Z</time>
      </trkpt>
      <trkpt lat="43.53596" lon="2.48976">
        <ele>725.044</ele>
        <time>2021-05-22T10:04:09Z</time>
      </trkpt>
      <trkpt lat="43.53595" lon="2.48973">
        <ele>725.329</ele>
        <time>2021-05-22T10:04:11Z</time>
      </trkpt>
      <trkpt lat="43.53594" lon="2.48971">
        <ele>725.278</ele>
        <time>2021-05-22T10:04:13Z</time>
      </trkpt>
      <trkpt lat="43.53591" lon="2.48968">
        <ele>724.88</ele>
        <time>2021-05-22T10:04:15Z</time>
      </trkpt>
      <trkpt lat="43.5359" lon="2.48965">
        <ele>726.387</ele>
        <time>2021-05-22T10:04:17Z</time>
      </trkpt>
      <trkpt lat="43.53589" lon="2.48963">
        <ele>726.947</ele>
        <time>2021-05-22T10:04:19Z</time>
      </trkpt>
      <trkpt lat="43.53587" lon="2.4896">
        <ele>726.368</ele>
        <time>2021-05-22T10:04:21Z</time>
      </trkpt>
      <trkpt lat="43.53586" lon="2.48956">
        <ele>728.619</ele>
        <time>2021-05-22T10:04:23Z</time>
      </trkpt>
      <trkpt lat="43.53585" lon="2.48952">
        <ele>728.293</ele>
        <time>2021-05-22T10:04:25Z</time>
      </trkpt>
      <trkpt lat="43.53584" lon="2.48948">
        <ele>728.668</ele>
        <time>2021-05-22T10:04:27Z</time>
      </trkpt>
      <trkpt lat="43.53583" lon="2.48945">
        <ele>728.986</ele>
        <time>2021-05-22T10:04:29Z</time>
      </trkpt>
      <trkpt lat="43.53583" lon="2.48941">
        <ele>727.151</ele>
        <time>2021-05-22T10:04:31Z</time>
      </trkpt>
      <trkpt lat="43.53582" lon="2.48938">
        <ele>727.139</ele>
        <time>2021-05-22T10:04:33Z</time>
      </trkpt>
      <trkpt lat="43.53582" lon="2.48935">
        <ele>727.541</ele>
        <time>2021-05-22T10:04:35Z</time>
      </trkpt>
      <trkpt lat="43.53583" lon="2.48932">
        <ele>728.349</ele>
        <time>2021-05-22T10:04:37Z</time>
      </trkpt>
      <trkpt lat="43.53583" lon="2.48929">
        <ele>728.992</ele>
        <time>2021-05-22T10:04:39Z</time>
      </trkpt>
      <trkpt lat="43.53584" lon="2.48925">
        <ele>728.685</ele>
        <time>2021-05-22T10:04:41Z</time>
      </trkpt>
      <trkpt lat="43.53584" lon="2.48922">
        <ele>726.748</ele>
        <time>2021-05-22T10:04:43Z</time>
      </trkpt>
      <trkpt lat="43.53585" lon="2.48919">
        <ele>726.188</ele>
        <time>2021-05-22T10:04:45Z</time>
      </trkpt>
      <trkpt lat="43.53585" lon="2.48916">
        <ele>726.377</ele>
        <time>2021-05-22T10:04:47Z</time>
      </trkpt>
      <trkpt lat="43.53585" lon="2.48913">
        <ele>725.557</ele>
        <time>2021-05-22T10:04:49Z</time>
      </trkpt>
      <trkpt lat="43.53584" lon="2.48909">
        <ele>725.891</ele>
        <time>2021-05-22T10:04:51Z</time>
      </trkpt>
      <trkpt lat="43.53584" lon="2.48906">
        <ele>726.683</ele>
        <time>2021-05-22T10:04:53Z</time>
      </trkpt>
      <trkpt lat="43.53583" lon="2.48902">
        <ele>726.962</ele>
        <time>2021-05-22T10:04:55Z</time>
      </trkpt>
      <trkpt lat="43.53582" lon="2.489">
        <ele>726.42</ele>
        <time>2021-05-22T10:04:57Z</time>
      </trkpt>
      <trkpt lat="43.53582" lon="2.48896">
        <ele>728.131</ele>
        <time>2021-05-22T10:04:59Z</time>
      </trkpt>
      <trkpt lat="43.5358" lon="2.48893">
        <ele>727.342</ele>
        <time>2021-05-22T10:05:01Z</time>
      </trkpt>
      <trkpt lat="43.53578" lon="2.4889">
        <ele>726.595</ele>
        <time>2021-05-22T10:05:03Z</time>
      </trkpt>
      <trkpt lat="43.53576" lon="2.48887">
        <ele>726.071</ele>
        <time>2021-05-22T10:05:05Z</time>
      </trkpt>
      <trkpt lat="43.53574" lon="2.48884">
        <ele>725.974</ele>
        <time>2021-05-22T10:05:07Z</time>
      </trkpt>
      <trkpt lat="43.53573" lon="2.48881">
        <ele>726.364</ele>
        <time>2021-05-22T10:05:09Z</time>
      </trkpt>
      <trkpt lat="43.53571" lon="2.48878">
        <ele>726.505</ele>
        <time>2021-05-22T10:05:11Z</time>
      </trkpt>
      <trkpt lat="43.5357" lon="2.48875">
        <ele>726.255</ele>
        <time>2021-05-22T10:05:13Z</time>
      </trkpt>
      <trkpt lat="43.53569" lon="2.48872">
        <ele>726.273</ele>
        <time>2021-05-22T10:05:15Z</time>
      </trkpt>
      <trkpt lat="43.53566" lon="2.48868">
        <ele>725.769</ele>
        <time>2021-05-22T10:05:17Z</time>
      </trkpt>
      <trkpt lat="43.53564" lon="2.48866">
        <ele>724.404</ele>
        <time>2021-05-22T10:05:19Z</time>
      </trkpt>
      <trkpt lat="43.53562" lon="2.48862">
        <ele>724.516</ele>
        <time>2021-05-22T10:05:21Z</time>
      </trkpt>
      <trkpt lat="43.53561" lon="2.48859">
        <ele>723.382</ele>
        <time>2021-05-22T10:05:23Z</time>
      </trkpt>
      <trkpt lat="43.5356" lon="2.48857">
        <ele>723.678</ele>
        <time>2021-05-22T10:05:25Z</time>
      </trkpt>
      <trkpt lat="43.53558" lon="2.48853">
        <ele>724.359</ele>
        <time>2021-05-22T10:05:27Z</time>
      </trkpt>
      <trkpt lat="43.53555" lon="2.48851">
        <ele>722.82</ele>
        <time>2021-05-22T10:05:29Z</time>
      </trkpt>
      <trkpt lat="43.53553" lon="2.48856">
        <ele>722.311</ele>
        <time>2021-05-22T10:05:31Z</time>
      </trkpt>
      <trkpt lat="43.53553" lon="2.48859">
        <ele>722.533</ele>
        <time>2021-05-22T10:05:33Z</time>
      </trkpt>
      <trkpt lat="43.53556" lon="2.48863">
        <ele>725.341</ele>
        <time>2021-05-22T10:05:35Z</time>
      </trkpt>
      <trkpt lat="43.53558" lon="2.48863">
        <ele>724.863</ele>
        <time>2021-05-22T10:05:37Z</time>
      </trkpt>
      <trkpt lat="43.53559" lon="2.48863">
        <ele>723.524</ele>
        <time>2021-05-22T10:05:39Z</time>
      </trkpt>
      <trkpt lat="43.53558" lon="2.4886">
        <ele>721.614</ele>
        <time>2021-05-22T10:05:41Z</time>
      </trkpt>
      <trkpt lat="43.53555" lon="2.48862">
        <ele>721.353</ele>
        <time>2021-05-22T10:05:43Z</time>
      </trkpt>
      <trkpt lat="43.53555" lon="2.48862">
        <ele>722.071</ele>
        <time>2021-05-22T10:05:45Z</time>
      </trkpt>
      <trkpt lat="43.53555" lon="2.4886">
        <ele>721.978</ele>
        <time>2021-05-22T10:05:47Z</time>
      </trkpt>
      <trkpt lat="43.53556" lon="2.48859">
        <ele>721.576</ele>
        <time>2021-05-22T10:05:49Z</time>
      </trkpt>
      <trkpt lat="43.53555" lon="2.48857">
        <ele>719.762</ele>
        <time>2021-05-22T10:05:51Z</time>
      </trkpt>
      <trkpt lat="43.53553" lon="2.48854">
        <ele>717.508</ele>
        <time>2021-05-22T10:05:53Z</time>
      </trkpt>
      <trkpt lat="43.53552" lon="2.4885">
        <ele>715.248</ele>
        <time>2021-05-22T10:05:55Z</time>
      </trkpt>
      <trkpt lat="43.53551" lon="2.48847">
        <ele>714.015</ele>
        <time>2021-05-22T10:05:57Z</time>
      </trkpt>
      <trkpt lat="43.53554" lon="2.48842">
        <ele>713.535</ele>
        <time>2021-05-22T10:05:59Z</time>
      </trkpt>
      <trkpt lat="43.53554" lon="2.48842">
        <ele>713.52</ele>
        <time>2021-05-22T10:06:01Z</time>
      </trkpt>
      <trkpt lat="43.53554" lon="2.48842">
        <ele>713.512</ele>
        <time>2021-05-22T10:06:03Z</time>
      </trkpt>
      <trkpt lat="43.53554" lon="2.48842">
        <ele>713.488</ele>
        <time>2021-05-22T10:06:05Z</time>
      </trkpt>
      <trkpt lat="43.53555" lon="2.48841">
        <ele>713.475</ele>
        <time>2021-05-22T10:06:07Z</time>
      </trkpt>
      <trkpt lat="43.53554" lon="2.48842">
        <ele>713.056</ele>
        <time>2021-05-22T10:06:09Z</time>
      </trkpt>
      <trkpt lat="43.53555" lon="2.48843">
        <ele>712.442</ele>
        <time>2021-05-22T10:06:11Z</time>
      </trkpt>
      <trkpt lat="43.53557" lon="2.48844">
        <ele>709.043</ele>
        <time>2021-05-22T10:06:13Z</time>
      </trkpt>
      <trkpt lat="43.53558" lon="2.48845">
        <ele>708.353</ele>
        <time>2021-05-22T10:06:15Z</time>
      </trkpt>
      <trkpt lat="43.53558" lon="2.48845">
        <ele>708.348</ele>
        <time>2021-05-22T10:06:17Z</time>
      </trkpt>
      <trkpt lat="43.53558" lon="2.48845">
        <ele>707.852</ele>
        <time>2021-05-22T10:06:19Z</time>
      </trkpt>
      <trkpt lat="43.53558" lon="2.48845">
        <ele>707.852</ele>
        <time>2021-05-22T10:06:22Z</time>
      </trkpt>
      <trkpt lat="43.53558" lon="2.48845">
        <ele>707.842</ele>
        <time>2021-05-22T10:06:24Z</time>
      </trkpt>
      <trkpt lat="43.53559" lon="2.48844">
        <ele>709.245</ele>
        <time>2021-05-22T10:06:26Z</time>
      </trkpt>
      <trkpt lat="43.53558" lon="2.48843">
        <ele>710.171</ele>
        <time>2021-05-22T10:06:28Z</time>
      </trkpt>
      <trkpt lat="43.53559" lon="2.48841">
        <ele>710.736</ele>
        <time>2021-05-22T10:06:30Z</time>
      </trkpt>
      <trkpt lat="43.53559" lon="2.48839">
        <ele>711.788</ele>
        <time>2021-05-22T10:06:32Z</time>
      </trkpt>
      <trkpt lat="43.53563" lon="2.48838">
        <ele>714.24</ele>
        <time>2021-05-22T10:06:34Z</time>
      </trkpt>
      <trkpt lat="43.53563" lon="2.48836">
        <ele>714.383</ele>
        <time>2021-05-22T10:06:36Z</time>
      </trkpt>
      <trkpt lat="43.53564" lon="2.48834">
        <ele>714.273</ele>
        <time>2021-05-22T10:06:38Z</time>
      </trkpt>
      <trkpt lat="43.53564" lon="2.48832">
        <ele>715.18</ele>
        <time>2021-05-22T10:06:40Z</time>
      </trkpt>
      <trkpt lat="43.53564" lon="2.48829">
        <ele>715.36</ele>
        <time>2021-05-22T10:06:42Z</time>
      </trkpt>
      <trkpt lat="43.53565" lon="2.48827">
        <ele>714.579</ele>
        <time>2021-05-22T10:06:44Z</time>
      </trkpt>
      <trkpt lat="43.53566" lon="2.48825">
        <ele>714.106</ele>
        <time>2021-05-22T10:06:46Z</time>
      </trkpt>
      <trkpt lat="43.53567" lon="2.48823">
        <ele>713.648</ele>
        <time>2021-05-22T10:06:48Z</time>
      </trkpt>
      <trkpt lat="43.53568" lon="2.4882">
        <ele>713.32</ele>
        <time>2021-05-22T10:06:50Z</time>
      </trkpt>
      <trkpt lat="43.53569" lon="2.48817">
        <ele>713.356</ele>
        <time>2021-05-22T10:06:52Z</time>
      </trkpt>
      <trkpt lat="43.53569" lon="2.48815">
        <ele>714.125</ele>
        <time>2021-05-22T10:06:54Z</time>
      </trkpt>
      <trkpt lat="43.5357" lon="2.48813">
        <ele>714.013</ele>
        <time>2021-05-22T10:06:56Z</time>
      </trkpt>
      <trkpt lat="43.5357" lon="2.4881">
        <ele>713.601</ele>
        <time>2021-05-22T10:06:58Z</time>
      </trkpt>
      <trkpt lat="43.53571" lon="2.48808">
        <ele>713.372</ele>
        <time>2021-05-22T10:07:00Z</time>
      </trkpt>
      <trkpt lat="43.53572" lon="2.48806">
        <ele>713.215</ele>
        <time>2021-05-22T10:07:02Z</time>
      </trkpt>
      <trkpt lat="43.53572" lon="2.48803">
        <ele>712.717</ele>
        <time>2021-05-22T10:07:04Z</time>
      </trkpt>
      <trkpt lat="43.53573" lon="2.488">
        <ele>712.582</ele>
        <time>2021-05-22T10:07:06Z</time>
      </trkpt>
      <trkpt lat="43.53575" lon="2.48798">
        <ele>711.585</ele>
        <time>2021-05-22T10:07:08Z</time>
      </trkpt>
      <trkpt lat="43.53576" lon="2.48796">
        <ele>712.489</ele>
        <time>2021-05-22T10:07:10Z</time>
      </trkpt>
      <trkpt lat="43.53577" lon="2.48793">
        <ele>712.819</ele>
        <time>2021-05-22T10:07:12Z</time>
      </trkpt>
      <trkpt lat="43.53578" lon="2.48791">
        <ele>711.72</ele>
        <time>2021-05-22T10:07:14Z</time>
      </trkpt>
      <trkpt lat="43.5358" lon="2.48788">
        <ele>711.608</ele>
        <time>2021-05-22T10:07:16Z</time>
      </trkpt>
      <trkpt lat="43.53581" lon="2.48786">
        <ele>711.411</ele>
        <time>2021-05-22T10:07:18Z</time>
      </trkpt>
      <trkpt lat="43.53583" lon="2.48784">
        <ele>711.997</ele>
        <time>2021-05-22T10:07:20Z</time>
      </trkpt>
      <trkpt lat="43.53584" lon="2.48781">
        <ele>710.107</ele>
        <time>2021-05-22T10:07:22Z</time>
      </trkpt>
      <trkpt lat="43.53586" lon="2.48779">
        <ele>710.159</ele>
        <time>2021-05-22T10:07:24Z</time>
      </trkpt>
      <trkpt lat="43.53587" lon="2.48777">
        <ele>709.452</ele>
        <time>2021-05-22T10:07:26Z</time>
      </trkpt>
      <trkpt lat="43.53589" lon="2.48775">
        <ele>709.215</ele>
        <time>2021-05-22T10:07:28Z</time>
      </trkpt>
      <trkpt lat="43.5359" lon="2.48772">
        <ele>709.779</ele>
        <time>2021-05-22T10:07:30Z</time>
      </trkpt>
      <trkpt lat="43.53592" lon="2.4877">
        <ele>710.391</ele>
        <time>2021-05-22T10:07:32Z</time>
      </trkpt>
      <trkpt lat="43.53594" lon="2.48768">
        <ele>710.404</ele>
        <time>2021-05-22T10:07:34Z</time>
      </trkpt>
      <trkpt lat="43.53595" lon="2.48766">
        <ele>709.875</ele>
        <time>2021-05-22T10:07:36Z</time>
      </trkpt>
      <trkpt lat="43.53597" lon="2.48764">
        <ele>708.259</ele>
        <time>2021-05-22T10:07:38Z</time>
      </trkpt>
      <trkpt lat="43.53599" lon="2.48762">
        <ele>707.971</ele>
        <time>2021-05-22T10:07:40Z</time>
      </trkpt>
      <trkpt lat="43.536" lon="2.48759">
        <ele>707.807</ele>
        <time>2021-05-22T10:07:42Z</time>
      </trkpt>
      <trkpt lat="43.53601" lon="2.48756">
        <ele>707.407</ele>
        <time>2021-05-22T10:07:44Z</time>
      </trkpt>
      <trkpt lat="43.53602" lon="2.48754">
        <ele>705.339</ele>
        <time>2021-05-22T10:07:46Z</time>
      </trkpt>
      <trkpt lat="43.53603" lon="2.48751">
        <ele>704.358</ele>
        <time>2021-05-22T10:07:48Z</time>
      </trkpt>
      <trkpt lat="43.53605" lon="2.48749">
        <ele>705.295</ele>
        <time>2021-05-22T10:07:50Z</time>
      </trkpt>
      <trkpt lat="43.53606" lon="2.48747">
        <ele>704.817</ele>
        <time>2021-05-22T10:07:52Z</time>
      </trkpt>
      <trkpt lat="43.53608" lon="2.48745">
        <ele>704.169</ele>
        <time>2021-05-22T10:07:54Z</time>
      </trkpt>
      <trkpt lat="43.53609" lon="2.48742">
        <ele>702.713</ele>
        <time>2021-05-22T10:07:56Z</time>
      </trkpt>
      <trkpt lat="43.53611" lon="2.48739">
        <ele>703.041</ele>
        <time>2021-05-22T10:07:58Z</time>
      </trkpt>
      <trkpt lat="43.53614" lon="2.48735">
        <ele>705.206</ele>
        <time>2021-05-22T10:08:00Z</time>
      </trkpt>
      <trkpt lat="43.53614" lon="2.48732">
        <ele>704.088</ele>
        <time>2021-05-22T10:08:02Z</time>
      </trkpt>
      <trkpt lat="43.53615" lon="2.48729">
        <ele>704.015</ele>
        <time>2021-05-22T10:08:04Z</time>
      </trkpt>
      <trkpt lat="43.53614" lon="2.48726">
        <ele>704.591</ele>
        <time>2021-05-22T10:08:06Z</time>
      </trkpt>
      <trkpt lat="43.53614" lon="2.48723">
        <ele>703.715</ele>
        <time>2021-05-22T10:08:08Z</time>
      </trkpt>
      <trkpt lat="43.53614" lon="2.4872">
        <ele>703.975</ele>
        <time>2021-05-22T10:08:10Z</time>
      </trkpt>
      <trkpt lat="43.53612" lon="2.48717">
        <ele>704.939</ele>
        <time>2021-05-22T10:08:12Z</time>
      </trkpt>
      <trkpt lat="43.53611" lon="2.48715">
        <ele>704.631</ele>
        <time>2021-05-22T10:08:14Z</time>
      </trkpt>
      <trkpt lat="43.53609" lon="2.48714">
        <ele>704.493</ele>
        <time>2021-05-22T10:08:16Z</time>
      </trkpt>
      <trkpt lat="43.53608" lon="2.48713">
        <ele>704.593</ele>
        <time>2021-05-22T10:08:18Z</time>
      </trkpt>
      <trkpt lat="43.53606" lon="2.48711">
        <ele>705.708</ele>
        <time>2021-05-22T10:08:20Z</time>
      </trkpt>
      <trkpt lat="43.53605" lon="2.48709">
        <ele>707.369</ele>
        <time>2021-05-22T10:08:22Z</time>
      </trkpt>
      <trkpt lat="43.53603" lon="2.48707">
        <ele>705.356</ele>
        <time>2021-05-22T10:08:24Z</time>
      </trkpt>
      <trkpt lat="43.53601" lon="2.48706">
        <ele>705.241</ele>
        <time>2021-05-22T10:08:26Z</time>
      </trkpt>
      <trkpt lat="43.53598" lon="2.48704">
        <ele>705.116</ele>
        <time>2021-05-22T10:08:28Z</time>
      </trkpt>
      <trkpt lat="43.53595" lon="2.48703">
        <ele>706.073</ele>
        <time>2021-05-22T10:08:30Z</time>
      </trkpt>
      <trkpt lat="43.53593" lon="2.48701">
        <ele>705.579</ele>
        <time>2021-05-22T10:08:32Z</time>
      </trkpt>
      <trkpt lat="43.53591" lon="2.487">
        <ele>705.255</ele>
        <time>2021-05-22T10:08:34Z</time>
      </trkpt>
      <trkpt lat="43.53589" lon="2.487">
        <ele>705.674</ele>
        <time>2021-05-22T10:08:36Z</time>
      </trkpt>
      <trkpt lat="43.53587" lon="2.48699">
        <ele>705.42</ele>
        <time>2021-05-22T10:08:38Z</time>
      </trkpt>
      <trkpt lat="43.53585" lon="2.48697">
        <ele>705.697</ele>
        <time>2021-05-22T10:08:40Z</time>
      </trkpt>
      <trkpt lat="43.53582" lon="2.48696">
        <ele>706.06</ele>
        <time>2021-05-22T10:08:42Z</time>
      </trkpt>
      <trkpt lat="43.5358" lon="2.48696">
        <ele>706.117</ele>
        <time>2021-05-22T10:08:44Z</time>
      </trkpt>
      <trkpt lat="43.53578" lon="2.48695">
        <ele>706.222</ele>
        <time>2021-05-22T10:08:46Z</time>
      </trkpt>
      <trkpt lat="43.53575" lon="2.48694">
        <ele>705.967</ele>
        <time>2021-05-22T10:08:48Z</time>
      </trkpt>
      <trkpt lat="43.53573" lon="2.48693">
        <ele>705.781</ele>
        <time>2021-05-22T10:08:50Z</time>
      </trkpt>
      <trkpt lat="43.5357" lon="2.48692">
        <ele>704.321</ele>
        <time>2021-05-22T10:08:52Z</time>
      </trkpt>
      <trkpt lat="43.53568" lon="2.48691">
        <ele>704.141</ele>
        <time>2021-05-22T10:08:54Z</time>
      </trkpt>
      <trkpt lat="43.53566" lon="2.48692">
        <ele>703.916</ele>
        <time>2021-05-22T10:08:56Z</time>
      </trkpt>
      <trkpt lat="43.53565" lon="2.48692">
        <ele>704.34</ele>
        <time>2021-05-22T10:08:58Z</time>
      </trkpt>
      <trkpt lat="43.53563" lon="2.48692">
        <ele>705.918</ele>
        <time>2021-05-22T10:09:00Z</time>
      </trkpt>
      <trkpt lat="43.53561" lon="2.48691">
        <ele>705.066</ele>
        <time>2021-05-22T10:09:02Z</time>
      </trkpt>
      <trkpt lat="43.53559" lon="2.48689">
        <ele>705.096</ele>
        <time>2021-05-22T10:09:04Z</time>
      </trkpt>
      <trkpt lat="43.53557" lon="2.48689">
        <ele>705.864</ele>
        <time>2021-05-22T10:09:06Z</time>
      </trkpt>
      <trkpt lat="43.53554" lon="2.48689">
        <ele>705.394</ele>
        <time>2021-05-22T10:09:08Z</time>
      </trkpt>
      <trkpt lat="43.53552" lon="2.48688">
        <ele>706.509</ele>
        <time>2021-05-22T10:09:10Z</time>
      </trkpt>
      <trkpt lat="43.5355" lon="2.48687">
        <ele>705.39</ele>
        <time>2021-05-22T10:09:12Z</time>
      </trkpt>
      <trkpt lat="43.53548" lon="2.48686">
        <ele>706.054</ele>
        <time>2021-05-22T10:09:14Z</time>
      </trkpt>
      <trkpt lat="43.53546" lon="2.48685">
        <ele>707.609</ele>
        <time>2021-05-22T10:09:16Z</time>
      </trkpt>
      <trkpt lat="43.53544" lon="2.48685">
        <ele>707.016</ele>
        <time>2021-05-22T10:09:18Z</time>
      </trkpt>
      <trkpt lat="43.53545" lon="2.48686">
        <ele>706.198</ele>
        <time>2021-05-22T10:09:20Z</time>
      </trkpt>
      <trkpt lat="43.53545" lon="2.48687">
        <ele>706.185</ele>
        <time>2021-05-22T10:09:22Z</time>
      </trkpt>
      <trkpt lat="43.53544" lon="2.48687">
        <ele>706.214</ele>
        <time>2021-05-22T10:09:24Z</time>
      </trkpt>
      <trkpt lat="43.53542" lon="2.48687">
        <ele>704.908</ele>
        <time>2021-05-22T10:09:26Z</time>
      </trkpt>
      <trkpt lat="43.53539" lon="2.48686">
        <ele>704.519</ele>
        <time>2021-05-22T10:09:28Z</time>
      </trkpt>
      <trkpt lat="43.53537" lon="2.48685">
        <ele>705.288</ele>
        <time>2021-05-22T10:09:30Z</time>
      </trkpt>
      <trkpt lat="43.53537" lon="2.48686">
        <ele>703.748</ele>
        <time>2021-05-22T10:09:32Z</time>
      </trkpt>
      <trkpt lat="43.53536" lon="2.48685">
        <ele>703.732</ele>
        <time>2021-05-22T10:09:34Z</time>
      </trkpt>
      <trkpt lat="43.53536" lon="2.48686">
        <ele>703.56</ele>
        <time>2021-05-22T10:09:36Z</time>
      </trkpt>
      <trkpt lat="43.53536" lon="2.48686">
        <ele>703.987</ele>
        <time>2021-05-22T10:09:38Z</time>
      </trkpt>
      <trkpt lat="43.53535" lon="2.48685">
        <ele>703.986</ele>
        <time>2021-05-22T10:09:40Z</time>
      </trkpt>
      <trkpt lat="43.53535" lon="2.48685">
        <ele>703.994</ele>
        <time>2021-05-22T10:09:42Z</time>
      </trkpt>
      <trkpt lat="43.53535" lon="2.48685">
        <ele>704.001</ele>
        <time>2021-05-22T10:09:44Z</time>
      </trkpt>
      <trkpt lat="43.53535" lon="2.48685">
        <ele>704.001</ele>
        <time>2021-05-22T10:09:46Z</time>
      </trkpt>
      <trkpt lat="43.53535" lon="2.48685">
        <ele>704.004</ele>
        <time>2021-05-22T10:09:48Z</time>
      </trkpt>
      <trkpt lat="43.53535" lon="2.48685">
        <ele>704.005</ele>
        <time>2021-05-22T10:09:50Z</time>
      </trkpt>
      <trkpt lat="43.53535" lon="2.48685">
        <ele>703.997</ele>
        <time>2021-05-22T10:09:52Z</time>
      </trkpt>
      <trkpt lat="43.53535" lon="2.48685">
        <ele>704.004</ele>
        <time>2021-05-22T10:09:54Z</time>
      </trkpt>
      <trkpt lat="43.53535" lon="2.48685">
        <ele>704.026</ele>
        <time>2021-05-22T10:09:56Z</time>
      </trkpt>
      <trkpt lat="43.53535" lon="2.48685">
        <ele>704.027</ele>
        <time>2021-05-22T10:09:58Z</time>
      </trkpt>
      <trkpt lat="43.53535" lon="2.48685">
        <ele>704.027</ele>
        <time>2021-05-22T10:10:00Z</time>
      </trkpt>
      <trkpt lat="43.53535" lon="2.48685">
        <ele>704.034</ele>
        <time>2021-05-22T10:10:02Z</time>
      </trkpt>
      <trkpt lat="43.53535" lon="2.48685">
        <ele>704.043</ele>
        <time>2021-05-22T10:10:04Z</time>
      </trkpt>
      <trkpt lat="43.53535" lon="2.48685">
        <ele>704.056</ele>
        <time>2021-05-22T10:10:06Z</time>
      </trkpt>
      <trkpt lat="43.53535" lon="2.48685">
        <ele>704.07</ele>
        <time>2021-05-22T10:10:08Z</time>
      </trkpt>
      <trkpt lat="43.53535" lon="2.48685">
        <ele>704.091</ele>
        <time>2021-05-22T10:10:10Z</time>
      </trkpt>
      <trkpt lat="43.53535" lon="2.48685">
        <ele>704.111</ele>
        <time>2021-05-22T10:10:12Z</time>
      </trkpt>
      <trkpt lat="43.53535" lon="2.48685">
        <ele>704.115</ele>
        <time>2021-05-22T10:10:14Z</time>
      </trkpt>
      <trkpt lat="43.53535" lon="2.48685">
        <ele>704.125</ele>
        <time>2021-05-22T10:10:16Z</time>
      </trkpt>
      <trkpt lat="43.53535" lon="2.48686">
        <ele>704.058</ele>
        <time>2021-05-22T10:10:18Z</time>
      </trkpt>
      <trkpt lat="43.53534" lon="2.48685">
        <ele>704.808</ele>
        <time>2021-05-22T10:10:20Z</time>
      </trkpt>
      <trkpt lat="43.53534" lon="2.48685">
        <ele>704.823</ele>
        <time>2021-05-22T10:10:22Z</time>
      </trkpt>
      <trkpt lat="43.53534" lon="2.48685">
        <ele>704.818</ele>
        <time>2021-05-22T10:10:24Z</time>
      </trkpt>
      <trkpt lat="43.53534" lon="2.48685">
        <ele>704.81</ele>
        <time>2021-05-22T10:10:26Z</time>
      </trkpt>
      <trkpt lat="43.53534" lon="2.48685">
        <ele>704.803</ele>
        <time>2021-05-22T10:10:28Z</time>
      </trkpt>
      <trkpt lat="43.53534" lon="2.48685">
        <ele>704.794</ele>
        <time>2021-05-22T10:10:30Z</time>
      </trkpt>
      <trkpt lat="43.53534" lon="2.48685">
        <ele>704.803</ele>
        <time>2021-05-22T10:10:32Z</time>
      </trkpt>
      <trkpt lat="43.53534" lon="2.48685">
        <ele>704.803</ele>
        <time>2021-05-22T10:10:34Z</time>
      </trkpt>
      <trkpt lat="43.53534" lon="2.48685">
        <ele>704.805</ele>
        <time>2021-05-22T10:10:36Z</time>
      </trkpt>
      <trkpt lat="43.53534" lon="2.48685">
        <ele>704.805</ele>
        <time>2021-05-22T10:10:38Z</time>
      </trkpt>
      <trkpt lat="43.53534" lon="2.48685">
        <ele>704.802</ele>
        <time>2021-05-22T10:10:40Z</time>
      </trkpt>
      <trkpt lat="43.53534" lon="2.48685">
        <ele>704.806</ele>
        <time>2021-05-22T10:10:42Z</time>
      </trkpt>
      <trkpt lat="43.53534" lon="2.48685">
        <ele>704.837</ele>
        <time>2021-05-22T10:10:44Z</time>
      </trkpt>
      <trkpt lat="43.53534" lon="2.48685">
        <ele>704.853</ele>
        <time>2021-05-22T10:10:46Z</time>
      </trkpt>
      <trkpt lat="43.53534" lon="2.48685">
        <ele>704.855</ele>
        <time>2021-05-22T10:10:48Z</time>
      </trkpt>
      <trkpt lat="43.53534" lon="2.48685">
        <ele>704.855</ele>
        <time>2021-05-22T10:10:50Z</time>
      </trkpt>
      <trkpt lat="43.53533" lon="2.48685">
        <ele>704.856</ele>
        <time>2021-05-22T10:10:52Z</time>
      </trkpt>
      <trkpt lat="43.53533" lon="2.48685">
        <ele>704.872</ele>
        <time>2021-05-22T10:10:54Z</time>
      </trkpt>
      <trkpt lat="43.53533" lon="2.48685">
        <ele>704.897</ele>
        <time>2021-05-22T10:10:56Z</time>
      </trkpt>
      <trkpt lat="43.53534" lon="2.48686">
        <ele>705.23</ele>
        <time>2021-05-22T10:10:58Z</time>
      </trkpt>
      <trkpt lat="43.53535" lon="2.48685">
        <ele>704.033</ele>
        <time>2021-05-22T10:11:00Z</time>
      </trkpt>
      <trkpt lat="43.53535" lon="2.48685">
        <ele>703.251</ele>
        <time>2021-05-22T10:11:02Z</time>
      </trkpt>
      <trkpt lat="43.53536" lon="2.48685">
        <ele>703.309</ele>
        <time>2021-05-22T10:11:04Z</time>
      </trkpt>
      <trkpt lat="43.53536" lon="2.48685">
        <ele>703.927</ele>
        <time>2021-05-22T10:11:06Z</time>
      </trkpt>
      <trkpt lat="43.53536" lon="2.48685">
        <ele>704.684</ele>
        <time>2021-05-22T10:11:08Z</time>
      </trkpt>
      <trkpt lat="43.53536" lon="2.48686">
        <ele>704.722</ele>
        <time>2021-05-22T10:11:10Z</time>
      </trkpt>
      <trkpt lat="43.53537" lon="2.48684">
        <ele>704.818</ele>
        <time>2021-05-22T10:11:12Z</time>
      </trkpt>
      <trkpt lat="43.53538" lon="2.48686">
        <ele>705.032</ele>
        <time>2021-05-22T10:11:14Z</time>
      </trkpt>
      <trkpt lat="43.53538" lon="2.48686">
        <ele>705.042</ele>
        <time>2021-05-22T10:11:16Z</time>
      </trkpt>
      <trkpt lat="43.53538" lon="2.48686">
        <ele>705.045</ele>
        <time>2021-05-22T10:11:18Z</time>
      </trkpt>
      <trkpt lat="43.53538" lon="2.48686">
        <ele>705.221</ele>
        <time>2021-05-22T10:11:20Z</time>
      </trkpt>
      <trkpt lat="43.53538" lon="2.48686">
        <ele>705.809</ele>
        <time>2021-05-22T10:11:22Z</time>
      </trkpt>
      <trkpt lat="43.53537" lon="2.48687">
        <ele>705.796</ele>
        <time>2021-05-22T10:11:24Z</time>
      </trkpt>
      <trkpt lat="43.53538" lon="2.48687">
        <ele>704.826</ele>
        <time>2021-05-22T10:11:26Z</time>
      </trkpt>
      <trkpt lat="43.53537" lon="2.48687">
        <ele>704.81</ele>
        <time>2021-05-22T10:11:28Z</time>
      </trkpt>
      <trkpt lat="43.53537" lon="2.48687">
        <ele>704.815</ele>
        <time>2021-05-22T10:11:30Z</time>
      </trkpt>
      <trkpt lat="43.53537" lon="2.48687">
        <ele>704.82</ele>
        <time>2021-05-22T10:11:32Z</time>
      </trkpt>
      <trkpt lat="43.53537" lon="2.48687">
        <ele>704.824</ele>
        <time>2021-05-22T10:11:34Z</time>
      </trkpt>
      <trkpt lat="43.53537" lon="2.48687">
        <ele>704.829</ele>
        <time>2021-05-22T10:11:36Z</time>
      </trkpt>
      <trkpt lat="43.53537" lon="2.48687">
        <ele>704.834</ele>
        <time>2021-05-22T10:11:38Z</time>
      </trkpt>
      <trkpt lat="43.53537" lon="2.48687">
        <ele>704.846</ele>
        <time>2021-05-22T10:11:40Z</time>
      </trkpt>
      <trkpt lat="43.53537" lon="2.48687">
        <ele>704.852</ele>
        <time>2021-05-22T10:11:42Z</time>
      </trkpt>
      <trkpt lat="43.53537" lon="2.48687">
        <ele>705.382</ele>
        <time>2021-05-22T10:11:44Z</time>
      </trkpt>
      <trkpt lat="43.53537" lon="2.48687">
        <ele>705.511</ele>
        <time>2021-05-22T10:11:46Z</time>
      </trkpt>
      <trkpt lat="43.53537" lon="2.48687">
        <ele>705.806</ele>
        <time>2021-05-22T10:11:48Z</time>
      </trkpt>
      <trkpt lat="43.53537" lon="2.48688">
        <ele>706.64</ele>
        <time>2021-05-22T10:11:50Z</time>
      </trkpt>
      <trkpt lat="43.53537" lon="2.48688">
        <ele>706.645</ele>
        <time>2021-05-22T10:11:52Z</time>
      </trkpt>
      <trkpt lat="43.53537" lon="2.48688">
        <ele>706.645</ele>
        <time>2021-05-22T10:11:54Z</time>
      </trkpt>
      <trkpt lat="43.53537" lon="2.48688">
        <ele>706.648</ele>
        <time>2021-05-22T10:11:56Z</time>
      </trkpt>
      <trkpt lat="43.53537" lon="2.48688">
        <ele>706.641</ele>
        <time>2021-05-22T10:11:58Z</time>
      </trkpt>
      <trkpt lat="43.53537" lon="2.48688">
        <ele>706.652</ele>
        <time>2021-05-22T10:12:00Z</time>
      </trkpt>
      <trkpt lat="43.53536" lon="2.48688">
        <ele>706.931</ele>
        <time>2021-05-22T10:12:02Z</time>
      </trkpt>
      <trkpt lat="43.53536" lon="2.48688">
        <ele>707.925</ele>
        <time>2021-05-22T10:12:04Z</time>
      </trkpt>
      <trkpt lat="43.53535" lon="2.48689">
        <ele>707.923</ele>
        <time>2021-05-22T10:12:06Z</time>
      </trkpt>
      <trkpt lat="43.53535" lon="2.48689">
        <ele>707.923</ele>
        <time>2021-05-22T10:12:08Z</time>
      </trkpt>
      <trkpt lat="43.53535" lon="2.48689">
        <ele>707.926</ele>
        <time>2021-05-22T10:12:10Z</time>
      </trkpt>
      <trkpt lat="43.53535" lon="2.48689">
        <ele>707.92</ele>
        <time>2021-05-22T10:12:12Z</time>
      </trkpt>
      <trkpt lat="43.53535" lon="2.48689">
        <ele>707.93</ele>
        <time>2021-05-22T10:12:14Z</time>
      </trkpt>
      <trkpt lat="43.53535" lon="2.48689">
        <ele>708.08</ele>
        <time>2021-05-22T10:12:16Z</time>
      </trkpt>
      <trkpt lat="43.53535" lon="2.48689">
        <ele>708.119</ele>
        <time>2021-05-22T10:12:18Z</time>
      </trkpt>
      <trkpt lat="43.53535" lon="2.48689">
        <ele>708.126</ele>
        <time>2021-05-22T10:12:20Z</time>
      </trkpt>
      <trkpt lat="43.53535" lon="2.48689">
        <ele>708.127</ele>
        <time>2021-05-22T10:12:22Z</time>
      </trkpt>
      <trkpt lat="43.53534" lon="2.48689">
        <ele>708.752</ele>
        <time>2021-05-22T10:12:24Z</time>
      </trkpt>
      <trkpt lat="43.53534" lon="2.4869">
        <ele>708.805</ele>
        <time>2021-05-22T10:12:26Z</time>
      </trkpt>
      <trkpt lat="43.53534" lon="2.4869">
        <ele>708.804</ele>
        <time>2021-05-22T10:12:28Z</time>
      </trkpt>
      <trkpt lat="43.53534" lon="2.4869">
        <ele>708.814</ele>
        <time>2021-05-22T10:12:30Z</time>
      </trkpt>
      <trkpt lat="43.53534" lon="2.4869">
        <ele>709.006</ele>
        <time>2021-05-22T10:12:32Z</time>
      </trkpt>
      <trkpt lat="43.53535" lon="2.4869">
        <ele>709.014</ele>
        <time>2021-05-22T10:12:34Z</time>
      </trkpt>
      <trkpt lat="43.53535" lon="2.4869">
        <ele>708.23</ele>
        <time>2021-05-22T10:12:36Z</time>
      </trkpt>
      <trkpt lat="43.53535" lon="2.48689">
        <ele>708.225</ele>
        <time>2021-05-22T10:12:38Z</time>
      </trkpt>
      <trkpt lat="43.53535" lon="2.48689">
        <ele>708.22</ele>
        <time>2021-05-22T10:12:40Z</time>
      </trkpt>
      <trkpt lat="43.53535" lon="2.4869">
        <ele>708.022</ele>
        <time>2021-05-22T10:12:42Z</time>
      </trkpt>
      <trkpt lat="43.53535" lon="2.4869">
        <ele>708.039</ele>
        <time>2021-05-22T10:12:44Z</time>
      </trkpt>
      <trkpt lat="43.53535" lon="2.4869">
        <ele>708.043</ele>
        <time>2021-05-22T10:12:46Z</time>
      </trkpt>
      <trkpt lat="43.53535" lon="2.4869">
        <ele>708.048</ele>
        <time>2021-05-22T10:12:48Z</time>
      </trkpt>
      <trkpt lat="43.53535" lon="2.4869">
        <ele>708.05</ele>
        <time>2021-05-22T10:12:50Z</time>
      </trkpt>
      <trkpt lat="43.53535" lon="2.4869">
        <ele>708.052</ele>
        <time>2021-05-22T10:12:52Z</time>
      </trkpt>
      <trkpt lat="43.53535" lon="2.4869">
        <ele>708.055</ele>
        <time>2021-05-22T10:12:54Z</time>
      </trkpt>
      <trkpt lat="43.53535" lon="2.4869">
        <ele>708.203</ele>
        <time>2021-05-22T10:12:56Z</time>
      </trkpt>
      <trkpt lat="43.53535" lon="2.4869">
        <ele>708.207</ele>
        <time>2021-05-22T10:12:58Z</time>
      </trkpt>
      <trkpt lat="43.53535" lon="2.4869">
        <ele>708.209</ele>
        <time>2021-05-22T10:13:00Z</time>
      </trkpt>
      <trkpt lat="43.53535" lon="2.4869">
        <ele>708.21</ele>
        <time>2021-05-22T10:13:02Z</time>
      </trkpt>
      <trkpt lat="43.53535" lon="2.4869">
        <ele>708.211</ele>
        <time>2021-05-22T10:13:04Z</time>
      </trkpt>
      <trkpt lat="43.53535" lon="2.4869">
        <ele>708.22</ele>
        <time>2021-05-22T10:13:06Z</time>
      </trkpt>
      <trkpt lat="43.53535" lon="2.4869">
        <ele>708.224</ele>
        <time>2021-05-22T10:13:08Z</time>
      </trkpt>
      <trkpt lat="43.53535" lon="2.4869">
        <ele>708.234</ele>
        <time>2021-05-22T10:13:10Z</time>
      </trkpt>
      <trkpt lat="43.53535" lon="2.4869">
        <ele>708.245</ele>
        <time>2021-05-22T10:13:12Z</time>
      </trkpt>
      <trkpt lat="43.53535" lon="2.4869">
        <ele>708.247</ele>
        <time>2021-05-22T10:13:14Z</time>
      </trkpt>
      <trkpt lat="43.53536" lon="2.4869">
        <ele>708.427</ele>
        <time>2021-05-22T10:13:16Z</time>
      </trkpt>
      <trkpt lat="43.53536" lon="2.4869">
        <ele>708.388</ele>
        <time>2021-05-22T10:13:18Z</time>
      </trkpt>
      <trkpt lat="43.53536" lon="2.4869">
        <ele>708.39</ele>
        <time>2021-05-22T10:13:20Z</time>
      </trkpt>
      <trkpt lat="43.53536" lon="2.4869">
        <ele>708.396</ele>
        <time>2021-05-22T10:13:22Z</time>
      </trkpt>
      <trkpt lat="43.53536" lon="2.4869">
        <ele>708.399</ele>
        <time>2021-05-22T10:13:24Z</time>
      </trkpt>
      <trkpt lat="43.53536" lon="2.4869">
        <ele>708.392</ele>
        <time>2021-05-22T10:13:26Z</time>
      </trkpt>
      <trkpt lat="43.53536" lon="2.4869">
        <ele>708.383</ele>
        <time>2021-05-22T10:13:28Z</time>
      </trkpt>
      <trkpt lat="43.53536" lon="2.4869">
        <ele>708.383</ele>
        <time>2021-05-22T10:13:30Z</time>
      </trkpt>
      <trkpt lat="43.53536" lon="2.48691">
        <ele>708.686</ele>
        <time>2021-05-22T10:13:32Z</time>
      </trkpt>
      <trkpt lat="43.53536" lon="2.48692">
        <ele>707.364</ele>
        <time>2021-05-22T10:13:34Z</time>
      </trkpt>
      <trkpt lat="43.53536" lon="2.48693">
        <ele>706.612</ele>
        <time>2021-05-22T10:13:36Z</time>
      </trkpt>
      <trkpt lat="43.53536" lon="2.48693">
        <ele>705.741</ele>
        <time>2021-05-22T10:13:38Z</time>
      </trkpt>
      <trkpt lat="43.53539" lon="2.48695">
        <ele>705.639</ele>
        <time>2021-05-22T10:13:40Z</time>
      </trkpt>
      <trkpt lat="43.53539" lon="2.48698">
        <ele>705.625</ele>
        <time>2021-05-22T10:13:42Z</time>
      </trkpt>
      <trkpt lat="43.5354" lon="2.48697">
        <ele>704.586</ele>
        <time>2021-05-22T10:13:44Z</time>
      </trkpt>
      <trkpt lat="43.53541" lon="2.48696">
        <ele>704.677</ele>
        <time>2021-05-22T10:13:46Z</time>
      </trkpt>
      <trkpt lat="43.53541" lon="2.48696">
        <ele>704.811</ele>
        <time>2021-05-22T10:13:48Z</time>
      </trkpt>
      <trkpt lat="43.53541" lon="2.48696">
        <ele>705.464</ele>
        <time>2021-05-22T10:13:50Z</time>
      </trkpt>
      <trkpt lat="43.53541" lon="2.48696">
        <ele>705.706</ele>
        <time>2021-05-22T10:13:52Z</time>
      </trkpt>
      <trkpt lat="43.53541" lon="2.48696">
        <ele>705.834</ele>
        <time>2021-05-22T10:13:54Z</time>
      </trkpt>
      <trkpt lat="43.53541" lon="2.48696">
        <ele>705.844</ele>
        <time>2021-05-22T10:13:56Z</time>
      </trkpt>
      <trkpt lat="43.53541" lon="2.48696">
        <ele>705.852</ele>
        <time>2021-05-22T10:13:58Z</time>
      </trkpt>
      <trkpt lat="43.53541" lon="2.48695">
        <ele>705.728</ele>
        <time>2021-05-22T10:14:00Z</time>
      </trkpt>
      <trkpt lat="43.5354" lon="2.48694">
        <ele>706.915</ele>
        <time>2021-05-22T10:14:02Z</time>
      </trkpt>
      <trkpt lat="43.5354" lon="2.48693">
        <ele>707.001</ele>
        <time>2021-05-22T10:14:04Z</time>
      </trkpt>
      <trkpt lat="43.5354" lon="2.48693">
        <ele>707.027</ele>
        <time>2021-05-22T10:14:06Z</time>
      </trkpt>
      <trkpt lat="43.5354" lon="2.48693">
        <ele>707.045</ele>
        <time>2021-05-22T10:14:08Z</time>
      </trkpt>
      <trkpt lat="43.5354" lon="2.48693">
        <ele>707.059</ele>
        <time>2021-05-22T10:14:10Z</time>
      </trkpt>
      <trkpt lat="43.5354" lon="2.48693">
        <ele>707.065</ele>
        <time>2021-05-22T10:14:12Z</time>
      </trkpt>
      <trkpt lat="43.5354" lon="2.48693">
        <ele>707.077</ele>
        <time>2021-05-22T10:14:14Z</time>
      </trkpt>
      <trkpt lat="43.5354" lon="2.48693">
        <ele>707.076</ele>
        <time>2021-05-22T10:14:16Z</time>
      </trkpt>
      <trkpt lat="43.5354" lon="2.48693">
        <ele>707.075</ele>
        <time>2021-05-22T10:14:18Z</time>
      </trkpt>
      <trkpt lat="43.5354" lon="2.48693">
        <ele>707.074</ele>
        <time>2021-05-22T10:14:20Z</time>
      </trkpt>
      <trkpt lat="43.5354" lon="2.48693">
        <ele>707.081</ele>
        <time>2021-05-22T10:14:22Z</time>
      </trkpt>
      <trkpt lat="43.5354" lon="2.48693">
        <ele>707.075</ele>
        <time>2021-05-22T10:14:24Z</time>
      </trkpt>
      <trkpt lat="43.5354" lon="2.48693">
        <ele>707.074</ele>
        <time>2021-05-22T10:14:26Z</time>
      </trkpt>
      <trkpt lat="43.5354" lon="2.48693">
        <ele>707.081</ele>
        <time>2021-05-22T10:14:28Z</time>
      </trkpt>
      <trkpt lat="43.5354" lon="2.48693">
        <ele>707.097</ele>
        <time>2021-05-22T10:14:30Z</time>
      </trkpt>
      <trkpt lat="43.5354" lon="2.48693">
        <ele>707.139</ele>
        <time>2021-05-22T10:14:32Z</time>
      </trkpt>
      <trkpt lat="43.53539" lon="2.48693">
        <ele>707.679</ele>
        <time>2021-05-22T10:14:34Z</time>
      </trkpt>
      <trkpt lat="43.53537" lon="2.48692">
        <ele>707.854</ele>
        <time>2021-05-22T10:14:36Z</time>
      </trkpt>
      <trkpt lat="43.53537" lon="2.48691">
        <ele>707.26</ele>
        <time>2021-05-22T10:14:38Z</time>
      </trkpt>
      <trkpt lat="43.53537" lon="2.48691">
        <ele>705.011</ele>
        <time>2021-05-22T10:14:40Z</time>
      </trkpt>
      <trkpt lat="43.53536" lon="2.48691">
        <ele>704.634</ele>
        <time>2021-05-22T10:14:42Z</time>
      </trkpt>
      <trkpt lat="43.53536" lon="2.48691">
        <ele>704.628</ele>
        <time>2021-05-22T10:14:44Z</time>
      </trkpt>
      <trkpt lat="43.53536" lon="2.48691">
        <ele>704.621</ele>
        <time>2021-05-22T10:14:46Z</time>
      </trkpt>
      <trkpt lat="43.53536" lon="2.48691">
        <ele>704.615</ele>
        <time>2021-05-22T10:14:48Z</time>
      </trkpt>
      <trkpt lat="43.53536" lon="2.48691">
        <ele>704.611</ele>
        <time>2021-05-22T10:14:50Z</time>
      </trkpt>
      <trkpt lat="43.53536" lon="2.48691">
        <ele>704.611</ele>
        <time>2021-05-22T10:14:52Z</time>
      </trkpt>
      <trkpt lat="43.53536" lon="2.48691">
        <ele>704.612</ele>
        <time>2021-05-22T10:14:54Z</time>
      </trkpt>
      <trkpt lat="43.53536" lon="2.48691">
        <ele>704.612</ele>
        <time>2021-05-22T10:14:56Z</time>
      </trkpt>
      <trkpt lat="43.53536" lon="2.48691">
        <ele>705.243</ele>
        <time>2021-05-22T10:14:58Z</time>
      </trkpt>
      <trkpt lat="43.53536" lon="2.48691">
        <ele>705.252</ele>
        <time>2021-05-22T10:15:00Z</time>
      </trkpt>
      <trkpt lat="43.53536" lon="2.48691">
        <ele>705.258</ele>
        <time>2021-05-22T10:15:02Z</time>
      </trkpt>
      <trkpt lat="43.53536" lon="2.48691">
        <ele>705.263</ele>
        <time>2021-05-22T10:15:04Z</time>
      </trkpt>
      <trkpt lat="43.53536" lon="2.48691">
        <ele>705.256</ele>
        <time>2021-05-22T10:15:06Z</time>
      </trkpt>
      <trkpt lat="43.53536" lon="2.48691">
        <ele>705.257</ele>
        <time>2021-05-22T10:15:08Z</time>
      </trkpt>
      <trkpt lat="43.53536" lon="2.48691">
        <ele>705.266</ele>
        <time>2021-05-22T10:15:10Z</time>
      </trkpt>
      <trkpt lat="43.53535" lon="2.48691">
        <ele>705.398</ele>
        <time>2021-05-22T10:15:12Z</time>
      </trkpt>
      <trkpt lat="43.53535" lon="2.48691">
        <ele>705.4</ele>
        <time>2021-05-22T10:15:14Z</time>
      </trkpt>
      <trkpt lat="43.53535" lon="2.48691">
        <ele>705.394</ele>
        <time>2021-05-22T10:15:15Z</time>
      </trkpt>
      <trkpt lat="43.53535" lon="2.48691">
        <ele>705.772</ele>
        <time>2021-05-22T10:15:18Z</time>
      </trkpt>
      <trkpt lat="43.53536" lon="2.48691">
        <ele>706.011</ele>
        <time>2021-05-22T10:15:20Z</time>
      </trkpt>
      <trkpt lat="43.53537" lon="2.48691">
        <ele>704.121</ele>
        <time>2021-05-22T10:15:22Z</time>
      </trkpt>
      <trkpt lat="43.53538" lon="2.48692">
        <ele>703.696</ele>
        <time>2021-05-22T10:15:24Z</time>
      </trkpt>
      <trkpt lat="43.53539" lon="2.48692">
        <ele>703.373</ele>
        <time>2021-05-22T10:15:26Z</time>
      </trkpt>
      <trkpt lat="43.53539" lon="2.48692">
        <ele>703.374</ele>
        <time>2021-05-22T10:15:28Z</time>
      </trkpt>
      <trkpt lat="43.53539" lon="2.48692">
        <ele>703.38</ele>
        <time>2021-05-22T10:15:30Z</time>
      </trkpt>
      <trkpt lat="43.53539" lon="2.48692">
        <ele>703.376</ele>
        <time>2021-05-22T10:15:32Z</time>
      </trkpt>
      <trkpt lat="43.53539" lon="2.48692">
        <ele>703.376</ele>
        <time>2021-05-22T10:15:35Z</time>
      </trkpt>
      <trkpt lat="43.53539" lon="2.48692">
        <ele>703.378</ele>
        <time>2021-05-22T10:15:37Z</time>
      </trkpt>
      <trkpt lat="43.53538" lon="2.48691">
        <ele>703.306</ele>
        <time>2021-05-22T10:15:39Z</time>
      </trkpt>
      <trkpt lat="43.53538" lon="2.4869">
        <ele>702.884</ele>
        <time>2021-05-22T10:15:41Z</time>
      </trkpt>
      <trkpt lat="43.53538" lon="2.48689">
        <ele>702.559</ele>
        <time>2021-05-22T10:15:43Z</time>
      </trkpt>
      <trkpt lat="43.53539" lon="2.48688">
        <ele>703.495</ele>
        <time>2021-05-22T10:15:45Z</time>
      </trkpt>
      <trkpt lat="43.5354" lon="2.48688">
        <ele>703.662</ele>
        <time>2021-05-22T10:15:47Z</time>
      </trkpt>
      <trkpt lat="43.5354" lon="2.48688">
        <ele>703.893</ele>
        <time>2021-05-22T10:15:49Z</time>
      </trkpt>
      <trkpt lat="43.53538" lon="2.48687">
        <ele>702.511</ele>
        <time>2021-05-22T10:15:51Z</time>
      </trkpt>
      <trkpt lat="43.53537" lon="2.48685">
        <ele>704.081</ele>
        <time>2021-05-22T10:15:53Z</time>
      </trkpt>
      <trkpt lat="43.53538" lon="2.48684">
        <ele>703.487</ele>
        <time>2021-05-22T10:15:55Z</time>
      </trkpt>
      <trkpt lat="43.53538" lon="2.48681">
        <ele>704.806</ele>
        <time>2021-05-22T10:15:57Z</time>
      </trkpt>
      <trkpt lat="43.53539" lon="2.4868">
        <ele>705.751</ele>
        <time>2021-05-22T10:15:59Z</time>
      </trkpt>
      <trkpt lat="43.53539" lon="2.48679">
        <ele>705.105</ele>
        <time>2021-05-22T10:16:01Z</time>
      </trkpt>
      <trkpt lat="43.53537" lon="2.48678">
        <ele>703.177</ele>
        <time>2021-05-22T10:16:03Z</time>
      </trkpt>
      <trkpt lat="43.53536" lon="2.4868">
        <ele>701.513</ele>
        <time>2021-05-22T10:16:05Z</time>
      </trkpt>
      <trkpt lat="43.53536" lon="2.48682">
        <ele>699.893</ele>
        <time>2021-05-22T10:16:07Z</time>
      </trkpt>
      <trkpt lat="43.53536" lon="2.48684">
        <ele>698.305</ele>
        <time>2021-05-22T10:16:09Z</time>
      </trkpt>
      <trkpt lat="43.53537" lon="2.48685">
        <ele>697.971</ele>
        <time>2021-05-22T10:16:11Z</time>
      </trkpt>
      <trkpt lat="43.53537" lon="2.48686">
        <ele>699.469</ele>
        <time>2021-05-22T10:16:13Z</time>
      </trkpt>
      <trkpt lat="43.53537" lon="2.48686">
        <ele>701.078</ele>
        <time>2021-05-22T10:16:15Z</time>
      </trkpt>
      <trkpt lat="43.53536" lon="2.48686">
        <ele>702.256</ele>
        <time>2021-05-22T10:16:17Z</time>
      </trkpt>
      <trkpt lat="43.53536" lon="2.48685">
        <ele>702.29</ele>
        <time>2021-05-22T10:16:19Z</time>
      </trkpt>
      <trkpt lat="43.53537" lon="2.48684">
        <ele>702.246</ele>
        <time>2021-05-22T10:16:21Z</time>
      </trkpt>
      <trkpt lat="43.53536" lon="2.48683">
        <ele>702.306</ele>
        <time>2021-05-22T10:16:23Z</time>
      </trkpt>
      <trkpt lat="43.53534" lon="2.48682">
        <ele>702.703</ele>
        <time>2021-05-22T10:16:25Z</time>
      </trkpt>
      <trkpt lat="43.53533" lon="2.48681">
        <ele>703.84</ele>
        <time>2021-05-22T10:16:27Z</time>
      </trkpt>
      <trkpt lat="43.53531" lon="2.48679">
        <ele>704.1</ele>
        <time>2021-05-22T10:16:29Z</time>
      </trkpt>
      <trkpt lat="43.5353" lon="2.48678">
        <ele>704.162</ele>
        <time>2021-05-22T10:16:31Z</time>
      </trkpt>
      <trkpt lat="43.53528" lon="2.48677">
        <ele>703.673</ele>
        <time>2021-05-22T10:16:33Z</time>
      </trkpt>
      <trkpt lat="43.53527" lon="2.48676">
        <ele>702.995</ele>
        <time>2021-05-22T10:16:35Z</time>
      </trkpt>
      <trkpt lat="43.53525" lon="2.48677">
        <ele>701.904</ele>
        <time>2021-05-22T10:16:37Z</time>
      </trkpt>
      <trkpt lat="43.53524" lon="2.48677">
        <ele>701.252</ele>
        <time>2021-05-22T10:16:39Z</time>
      </trkpt>
      <trkpt lat="43.53522" lon="2.48675">
        <ele>701.653</ele>
        <time>2021-05-22T10:16:41Z</time>
      </trkpt>
      <trkpt lat="43.5352" lon="2.48673">
        <ele>701.734</ele>
        <time>2021-05-22T10:16:43Z</time>
      </trkpt>
      <trkpt lat="43.53519" lon="2.48672">
        <ele>701.319</ele>
        <time>2021-05-22T10:16:45Z</time>
      </trkpt>
      <trkpt lat="43.53517" lon="2.48672">
        <ele>700.367</ele>
        <time>2021-05-22T10:16:47Z</time>
      </trkpt>
      <trkpt lat="43.53516" lon="2.48671">
        <ele>700.555</ele>
        <time>2021-05-22T10:16:49Z</time>
      </trkpt>
      <trkpt lat="43.53515" lon="2.4867">
        <ele>701.143</ele>
        <time>2021-05-22T10:16:51Z</time>
      </trkpt>
      <trkpt lat="43.53514" lon="2.48669">
        <ele>700.054</ele>
        <time>2021-05-22T10:16:53Z</time>
      </trkpt>
      <trkpt lat="43.53512" lon="2.48669">
        <ele>699.94</ele>
        <time>2021-05-22T10:16:55Z</time>
      </trkpt>
      <trkpt lat="43.53511" lon="2.48667">
        <ele>700.368</ele>
        <time>2021-05-22T10:16:57Z</time>
      </trkpt>
      <trkpt lat="43.53509" lon="2.48666">
        <ele>700.735</ele>
        <time>2021-05-22T10:16:59Z</time>
      </trkpt>
      <trkpt lat="43.53507" lon="2.48665">
        <ele>700.64</ele>
        <time>2021-05-22T10:17:01Z</time>
      </trkpt>
      <trkpt lat="43.53505" lon="2.48664">
        <ele>700.028</ele>
        <time>2021-05-22T10:17:03Z</time>
      </trkpt>
      <trkpt lat="43.53504" lon="2.48664">
        <ele>699.029</ele>
        <time>2021-05-22T10:17:05Z</time>
      </trkpt>
      <trkpt lat="43.53502" lon="2.48665">
        <ele>698.97</ele>
        <time>2021-05-22T10:17:07Z</time>
      </trkpt>
      <trkpt lat="43.535" lon="2.48663">
        <ele>699.443</ele>
        <time>2021-05-22T10:17:09Z</time>
      </trkpt>
      <trkpt lat="43.53498" lon="2.48663">
        <ele>698.374</ele>
        <time>2021-05-22T10:17:11Z</time>
      </trkpt>
      <trkpt lat="43.53497" lon="2.48662">
        <ele>697.12</ele>
        <time>2021-05-22T10:17:13Z</time>
      </trkpt>
      <trkpt lat="43.53495" lon="2.48661">
        <ele>696.436</ele>
        <time>2021-05-22T10:17:15Z</time>
      </trkpt>
      <trkpt lat="43.53492" lon="2.48661">
        <ele>696.303</ele>
        <time>2021-05-22T10:17:17Z</time>
      </trkpt>
      <trkpt lat="43.5349" lon="2.48661">
        <ele>697.044</ele>
        <time>2021-05-22T10:17:19Z</time>
      </trkpt>
      <trkpt lat="43.53488" lon="2.48661">
        <ele>697.005</ele>
        <time>2021-05-22T10:17:21Z</time>
      </trkpt>
      <trkpt lat="43.53486" lon="2.48661">
        <ele>697.854</ele>
        <time>2021-05-22T10:17:23Z</time>
      </trkpt>
      <trkpt lat="43.53484" lon="2.48661">
        <ele>697.284</ele>
        <time>2021-05-22T10:17:25Z</time>
      </trkpt>
      <trkpt lat="43.53482" lon="2.48661">
        <ele>697.472</ele>
        <time>2021-05-22T10:17:27Z</time>
      </trkpt>
      <trkpt lat="43.53479" lon="2.4866">
        <ele>697.698</ele>
        <time>2021-05-22T10:17:29Z</time>
      </trkpt>
      <trkpt lat="43.53477" lon="2.4866">
        <ele>697.369</ele>
        <time>2021-05-22T10:17:31Z</time>
      </trkpt>
      <trkpt lat="43.53475" lon="2.48659">
        <ele>694.668</ele>
        <time>2021-05-22T10:17:33Z</time>
      </trkpt>
      <trkpt lat="43.53474" lon="2.48658">
        <ele>694.273</ele>
        <time>2021-05-22T10:17:35Z</time>
      </trkpt>
      <trkpt lat="43.53472" lon="2.4866">
        <ele>694.34</ele>
        <time>2021-05-22T10:17:37Z</time>
      </trkpt>
      <trkpt lat="43.5347" lon="2.48658">
        <ele>693.959</ele>
        <time>2021-05-22T10:17:39Z</time>
      </trkpt>
      <trkpt lat="43.53468" lon="2.48657">
        <ele>694.434</ele>
        <time>2021-05-22T10:17:41Z</time>
      </trkpt>
      <trkpt lat="43.53467" lon="2.48655">
        <ele>694.414</ele>
        <time>2021-05-22T10:17:43Z</time>
      </trkpt>
      <trkpt lat="43.53464" lon="2.48655">
        <ele>694.997</ele>
        <time>2021-05-22T10:17:45Z</time>
      </trkpt>
      <trkpt lat="43.53463" lon="2.48654">
        <ele>694.314</ele>
        <time>2021-05-22T10:17:47Z</time>
      </trkpt>
      <trkpt lat="43.53461" lon="2.48653">
        <ele>695.711</ele>
        <time>2021-05-22T10:17:49Z</time>
      </trkpt>
      <trkpt lat="43.53459" lon="2.48653">
        <ele>694.881</ele>
        <time>2021-05-22T10:17:51Z</time>
      </trkpt>
      <trkpt lat="43.53457" lon="2.48652">
        <ele>693.713</ele>
        <time>2021-05-22T10:17:53Z</time>
      </trkpt>
      <trkpt lat="43.53455" lon="2.48653">
        <ele>694.079</ele>
        <time>2021-05-22T10:17:55Z</time>
      </trkpt>
      <trkpt lat="43.53454" lon="2.48654">
        <ele>694.927</ele>
        <time>2021-05-22T10:17:57Z</time>
      </trkpt>
      <trkpt lat="43.53452" lon="2.48655">
        <ele>694.948</ele>
        <time>2021-05-22T10:17:59Z</time>
      </trkpt>
      <trkpt lat="43.5345" lon="2.48656">
        <ele>696.491</ele>
        <time>2021-05-22T10:18:01Z</time>
      </trkpt>
      <trkpt lat="43.5345" lon="2.48656">
        <ele>696.484</ele>
        <time>2021-05-22T10:18:03Z</time>
      </trkpt>
      <trkpt lat="43.5345" lon="2.48658">
        <ele>696.29</ele>
        <time>2021-05-22T10:18:05Z</time>
      </trkpt>
      <trkpt lat="43.53448" lon="2.48659">
        <ele>694.848</ele>
        <time>2021-05-22T10:18:07Z</time>
      </trkpt>
      <trkpt lat="43.53447" lon="2.48659">
        <ele>693.469</ele>
        <time>2021-05-22T10:18:09Z</time>
      </trkpt>
      <trkpt lat="43.53445" lon="2.4866">
        <ele>692.432</ele>
        <time>2021-05-22T10:18:11Z</time>
      </trkpt>
      <trkpt lat="43.53443" lon="2.4866">
        <ele>690.673</ele>
        <time>2021-05-22T10:18:13Z</time>
      </trkpt>
      <trkpt lat="43.53441" lon="2.4866">
        <ele>688.744</ele>
        <time>2021-05-22T10:18:15Z</time>
      </trkpt>
      <trkpt lat="43.53439" lon="2.4866">
        <ele>689.048</ele>
        <time>2021-05-22T10:18:17Z</time>
      </trkpt>
      <trkpt lat="43.53437" lon="2.48661">
        <ele>688.492</ele>
        <time>2021-05-22T10:18:19Z</time>
      </trkpt>
      <trkpt lat="43.53435" lon="2.48661">
        <ele>689.227</ele>
        <time>2021-05-22T10:18:21Z</time>
      </trkpt>
      <trkpt lat="43.53433" lon="2.4866">
        <ele>688.798</ele>
        <time>2021-05-22T10:18:23Z</time>
      </trkpt>
      <trkpt lat="43.53431" lon="2.4866">
        <ele>688.697</ele>
        <time>2021-05-22T10:18:25Z</time>
      </trkpt>
      <trkpt lat="43.53429" lon="2.48659">
        <ele>688.026</ele>
        <time>2021-05-22T10:18:27Z</time>
      </trkpt>
      <trkpt lat="43.53426" lon="2.48659">
        <ele>688.01</ele>
        <time>2021-05-22T10:18:29Z</time>
      </trkpt>
      <trkpt lat="43.53423" lon="2.48663">
        <ele>690.191</ele>
        <time>2021-05-22T10:18:31Z</time>
      </trkpt>
      <trkpt lat="43.53421" lon="2.48665">
        <ele>692.135</ele>
        <time>2021-05-22T10:18:33Z</time>
      </trkpt>
      <trkpt lat="43.53419" lon="2.48664">
        <ele>693.125</ele>
        <time>2021-05-22T10:18:35Z</time>
      </trkpt>
      <trkpt lat="43.53417" lon="2.48664">
        <ele>691.665</ele>
        <time>2021-05-22T10:18:37Z</time>
      </trkpt>
      <trkpt lat="43.53416" lon="2.48665">
        <ele>691.078</ele>
        <time>2021-05-22T10:18:39Z</time>
      </trkpt>
      <trkpt lat="43.53415" lon="2.48667">
        <ele>690.97</ele>
        <time>2021-05-22T10:18:41Z</time>
      </trkpt>
      <trkpt lat="43.53414" lon="2.4867">
        <ele>691.016</ele>
        <time>2021-05-22T10:18:43Z</time>
      </trkpt>
      <trkpt lat="43.53413" lon="2.48672">
        <ele>690.487</ele>
        <time>2021-05-22T10:18:45Z</time>
      </trkpt>
      <trkpt lat="43.53413" lon="2.48674">
        <ele>690.5</ele>
        <time>2021-05-22T10:18:47Z</time>
      </trkpt>
      <trkpt lat="43.53413" lon="2.48676">
        <ele>688.378</ele>
        <time>2021-05-22T10:18:49Z</time>
      </trkpt>
      <trkpt lat="43.53411" lon="2.48677">
        <ele>686.627</ele>
        <time>2021-05-22T10:18:51Z</time>
      </trkpt>
      <trkpt lat="43.53411" lon="2.48679">
        <ele>686.037</ele>
        <time>2021-05-22T10:18:53Z</time>
      </trkpt>
      <trkpt lat="43.5341" lon="2.48681">
        <ele>685.683</ele>
        <time>2021-05-22T10:18:55Z</time>
      </trkpt>
      <trkpt lat="43.5341" lon="2.48682">
        <ele>684.193</ele>
        <time>2021-05-22T10:18:57Z</time>
      </trkpt>
      <trkpt lat="43.53409" lon="2.48684">
        <ele>683.883</ele>
        <time>2021-05-22T10:18:59Z</time>
      </trkpt>
      <trkpt lat="43.53409" lon="2.48686">
        <ele>683.332</ele>
        <time>2021-05-22T10:19:01Z</time>
      </trkpt>
      <trkpt lat="43.53409" lon="2.48688">
        <ele>683.487</ele>
        <time>2021-05-22T10:19:03Z</time>
      </trkpt>
      <trkpt lat="43.53408" lon="2.4869">
        <ele>683.014</ele>
        <time>2021-05-22T10:19:05Z</time>
      </trkpt>
      <trkpt lat="43.53407" lon="2.48692">
        <ele>682.812</ele>
        <time>2021-05-22T10:19:07Z</time>
      </trkpt>
      <trkpt lat="43.53406" lon="2.48694">
        <ele>682.218</ele>
        <time>2021-05-22T10:19:09Z</time>
      </trkpt>
      <trkpt lat="43.53406" lon="2.48696">
        <ele>682.651</ele>
        <time>2021-05-22T10:19:11Z</time>
      </trkpt>
      <trkpt lat="43.53405" lon="2.48698">
        <ele>683.398</ele>
        <time>2021-05-22T10:19:13Z</time>
      </trkpt>
      <trkpt lat="43.53405" lon="2.487">
        <ele>681.733</ele>
        <time>2021-05-22T10:19:15Z</time>
      </trkpt>
      <trkpt lat="43.53405" lon="2.48702">
        <ele>681.322</ele>
        <time>2021-05-22T10:19:17Z</time>
      </trkpt>
      <trkpt lat="43.53404" lon="2.48704">
        <ele>682.753</ele>
        <time>2021-05-22T10:19:19Z</time>
      </trkpt>
      <trkpt lat="43.53403" lon="2.48706">
        <ele>683.828</ele>
        <time>2021-05-22T10:19:21Z</time>
      </trkpt>
      <trkpt lat="43.53402" lon="2.48708">
        <ele>683.88</ele>
        <time>2021-05-22T10:19:23Z</time>
      </trkpt>
      <trkpt lat="43.53402" lon="2.4871">
        <ele>684.57</ele>
        <time>2021-05-22T10:19:25Z</time>
      </trkpt>
      <trkpt lat="43.53401" lon="2.48712">
        <ele>684.552</ele>
        <time>2021-05-22T10:19:27Z</time>
      </trkpt>
      <trkpt lat="43.534" lon="2.48715">
        <ele>683.25</ele>
        <time>2021-05-22T10:19:29Z</time>
      </trkpt>
      <trkpt lat="43.534" lon="2.48717">
        <ele>683.369</ele>
        <time>2021-05-22T10:19:31Z</time>
      </trkpt>
      <trkpt lat="43.53401" lon="2.48717">
        <ele>685.146</ele>
        <time>2021-05-22T10:19:33Z</time>
      </trkpt>
      <trkpt lat="43.53402" lon="2.48717">
        <ele>685.512</ele>
        <time>2021-05-22T10:19:35Z</time>
      </trkpt>
      <trkpt lat="43.53402" lon="2.48716">
        <ele>685.522</ele>
        <time>2021-05-22T10:19:37Z</time>
      </trkpt>
      <trkpt lat="43.53402" lon="2.48716">
        <ele>686.449</ele>
        <time>2021-05-22T10:19:39Z</time>
      </trkpt>
      <trkpt lat="43.53401" lon="2.48717">
        <ele>686.58</ele>
        <time>2021-05-22T10:19:41Z</time>
      </trkpt>
      <trkpt lat="43.53399" lon="2.48719">
        <ele>685.453</ele>
        <time>2021-05-22T10:19:43Z</time>
      </trkpt>
      <trkpt lat="43.53398" lon="2.48722">
        <ele>685.771</ele>
        <time>2021-05-22T10:19:45Z</time>
      </trkpt>
      <trkpt lat="43.53396" lon="2.48724">
        <ele>685.472</ele>
        <time>2021-05-22T10:19:47Z</time>
      </trkpt>
      <trkpt lat="43.53395" lon="2.48727">
        <ele>686.084</ele>
        <time>2021-05-22T10:19:49Z</time>
      </trkpt>
      <trkpt lat="43.53394" lon="2.48728">
        <ele>685.017</ele>
        <time>2021-05-22T10:19:51Z</time>
      </trkpt>
      <trkpt lat="43.53393" lon="2.4873">
        <ele>685.458</ele>
        <time>2021-05-22T10:19:53Z</time>
      </trkpt>
      <trkpt lat="43.53391" lon="2.48732">
        <ele>685.749</ele>
        <time>2021-05-22T10:19:55Z</time>
      </trkpt>
      <trkpt lat="43.53389" lon="2.48733">
        <ele>684.718</ele>
        <time>2021-05-22T10:19:57Z</time>
      </trkpt>
      <trkpt lat="43.53387" lon="2.48736">
        <ele>683.987</ele>
        <time>2021-05-22T10:19:59Z</time>
      </trkpt>
      <trkpt lat="43.53386" lon="2.48737">
        <ele>682.976</ele>
        <time>2021-05-22T10:20:01Z</time>
      </trkpt>
      <trkpt lat="43.53384" lon="2.48739">
        <ele>682.584</ele>
        <time>2021-05-22T10:20:03Z</time>
      </trkpt>
      <trkpt lat="43.53382" lon="2.4874">
        <ele>683.069</ele>
        <time>2021-05-22T10:20:05Z</time>
      </trkpt>
      <trkpt lat="43.5338" lon="2.48742">
        <ele>684.074</ele>
        <time>2021-05-22T10:20:07Z</time>
      </trkpt>
      <trkpt lat="43.53378" lon="2.48745">
        <ele>682.667</ele>
        <time>2021-05-22T10:20:09Z</time>
      </trkpt>
      <trkpt lat="43.53378" lon="2.48746">
        <ele>681.973</ele>
        <time>2021-05-22T10:20:11Z</time>
      </trkpt>
      <trkpt lat="43.53376" lon="2.48748">
        <ele>681.505</ele>
        <time>2021-05-22T10:20:13Z</time>
      </trkpt>
      <trkpt lat="43.53374" lon="2.4875">
        <ele>680.144</ele>
        <time>2021-05-22T10:20:15Z</time>
      </trkpt>
      <trkpt lat="43.53373" lon="2.48752">
        <ele>680.919</ele>
        <time>2021-05-22T10:20:17Z</time>
      </trkpt>
      <trkpt lat="43.53371" lon="2.48753">
        <ele>678.922</ele>
        <time>2021-05-22T10:20:19Z</time>
      </trkpt>
      <trkpt lat="43.53369" lon="2.48756">
        <ele>679.766</ele>
        <time>2021-05-22T10:20:21Z</time>
      </trkpt>
      <trkpt lat="43.53368" lon="2.48758">
        <ele>679.113</ele>
        <time>2021-05-22T10:20:23Z</time>
      </trkpt>
      <trkpt lat="43.53367" lon="2.48761">
        <ele>678.936</ele>
        <time>2021-05-22T10:20:25Z</time>
      </trkpt>
      <trkpt lat="43.53366" lon="2.48764">
        <ele>678.118</ele>
        <time>2021-05-22T10:20:27Z</time>
      </trkpt>
      <trkpt lat="43.53364" lon="2.48765">
        <ele>678.826</ele>
        <time>2021-05-22T10:20:29Z</time>
      </trkpt>
      <trkpt lat="43.53362" lon="2.48766">
        <ele>678.001</ele>
        <time>2021-05-22T10:20:31Z</time>
      </trkpt>
      <trkpt lat="43.53361" lon="2.48768">
        <ele>677.287</ele>
        <time>2021-05-22T10:20:33Z</time>
      </trkpt>
      <trkpt lat="43.5336" lon="2.4877">
        <ele>676.07</ele>
        <time>2021-05-22T10:20:35Z</time>
      </trkpt>
      <trkpt lat="43.53358" lon="2.48771">
        <ele>676.056</ele>
        <time>2021-05-22T10:20:37Z</time>
      </trkpt>
      <trkpt lat="43.53357" lon="2.48773">
        <ele>674.919</ele>
        <time>2021-05-22T10:20:39Z</time>
      </trkpt>
      <trkpt lat="43.53356" lon="2.48775">
        <ele>674.941</ele>
        <time>2021-05-22T10:20:41Z</time>
      </trkpt>
      <trkpt lat="43.53354" lon="2.48777">
        <ele>675.373</ele>
        <time>2021-05-22T10:20:43Z</time>
      </trkpt>
      <trkpt lat="43.53351" lon="2.48778">
        <ele>676.244</ele>
        <time>2021-05-22T10:20:45Z</time>
      </trkpt>
      <trkpt lat="43.53349" lon="2.4878">
        <ele>677.937</ele>
        <time>2021-05-22T10:20:48Z</time>
      </trkpt>
      <trkpt lat="43.53346" lon="2.48781">
        <ele>678.559</ele>
        <time>2021-05-22T10:20:50Z</time>
      </trkpt>
      <trkpt lat="43.53344" lon="2.48783">
        <ele>679.07</ele>
        <time>2021-05-22T10:20:52Z</time>
      </trkpt>
      <trkpt lat="43.53341" lon="2.48788">
        <ele>680.718</ele>
        <time>2021-05-22T10:20:55Z</time>
      </trkpt>
      <trkpt lat="43.5334" lon="2.48791">
        <ele>680.724</ele>
        <time>2021-05-22T10:20:57Z</time>
      </trkpt>
      <trkpt lat="43.53339" lon="2.48794">
        <ele>679.361</ele>
        <time>2021-05-22T10:20:59Z</time>
      </trkpt>
      <trkpt lat="43.53338" lon="2.48797">
        <ele>677.365</ele>
        <time>2021-05-22T10:21:01Z</time>
      </trkpt>
      <trkpt lat="43.53336" lon="2.488">
        <ele>678.318</ele>
        <time>2021-05-22T10:21:03Z</time>
      </trkpt>
      <trkpt lat="43.53336" lon="2.48801">
        <ele>679.203</ele>
        <time>2021-05-22T10:21:05Z</time>
      </trkpt>
      <trkpt lat="43.53335" lon="2.48803">
        <ele>678.454</ele>
        <time>2021-05-22T10:21:07Z</time>
      </trkpt>
      <trkpt lat="43.53334" lon="2.48805">
        <ele>677.434</ele>
        <time>2021-05-22T10:21:09Z</time>
      </trkpt>
      <trkpt lat="43.53333" lon="2.48808">
        <ele>678.081</ele>
        <time>2021-05-22T10:21:11Z</time>
      </trkpt>
      <trkpt lat="43.53331" lon="2.4881">
        <ele>678.489</ele>
        <time>2021-05-22T10:21:13Z</time>
      </trkpt>
      <trkpt lat="43.53329" lon="2.48812">
        <ele>679.44</ele>
        <time>2021-05-22T10:21:15Z</time>
      </trkpt>
      <trkpt lat="43.53328" lon="2.48814">
        <ele>678.253</ele>
        <time>2021-05-22T10:21:17Z</time>
      </trkpt>
      <trkpt lat="43.53327" lon="2.48816">
        <ele>677.852</ele>
        <time>2021-05-22T10:21:19Z</time>
      </trkpt>
      <trkpt lat="43.53323" lon="2.48815">
        <ele>682.884</ele>
        <time>2021-05-22T10:21:21Z</time>
      </trkpt>
      <trkpt lat="43.53323" lon="2.48818">
        <ele>682.421</ele>
        <time>2021-05-22T10:21:23Z</time>
      </trkpt>
      <trkpt lat="43.53321" lon="2.48819">
        <ele>682.425</ele>
        <time>2021-05-22T10:21:25Z</time>
      </trkpt>
      <trkpt lat="43.5332" lon="2.48821">
        <ele>682.862</ele>
        <time>2021-05-22T10:21:27Z</time>
      </trkpt>
      <trkpt lat="43.53318" lon="2.48823">
        <ele>683.826</ele>
        <time>2021-05-22T10:21:29Z</time>
      </trkpt>
      <trkpt lat="43.53316" lon="2.48824">
        <ele>684.084</ele>
        <time>2021-05-22T10:21:31Z</time>
      </trkpt>
      <trkpt lat="43.53314" lon="2.48827">
        <ele>684.854</ele>
        <time>2021-05-22T10:21:33Z</time>
      </trkpt>
      <trkpt lat="43.53313" lon="2.4883">
        <ele>684.45</ele>
        <time>2021-05-22T10:21:35Z</time>
      </trkpt>
      <trkpt lat="43.53311" lon="2.48833">
        <ele>684.981</ele>
        <time>2021-05-22T10:21:37Z</time>
      </trkpt>
      <trkpt lat="43.53309" lon="2.48834">
        <ele>684.743</ele>
        <time>2021-05-22T10:21:39Z</time>
      </trkpt>
      <trkpt lat="43.53307" lon="2.48836">
        <ele>683.114</ele>
        <time>2021-05-22T10:21:41Z</time>
      </trkpt>
      <trkpt lat="43.53306" lon="2.48839">
        <ele>683.637</ele>
        <time>2021-05-22T10:21:43Z</time>
      </trkpt>
      <trkpt lat="43.53304" lon="2.48842">
        <ele>683.858</ele>
        <time>2021-05-22T10:21:45Z</time>
      </trkpt>
      <trkpt lat="43.53302" lon="2.48844">
        <ele>683.784</ele>
        <time>2021-05-22T10:21:47Z</time>
      </trkpt>
      <trkpt lat="43.533" lon="2.48847">
        <ele>684.14</ele>
        <time>2021-05-22T10:21:49Z</time>
      </trkpt>
      <trkpt lat="43.53299" lon="2.48849">
        <ele>684.669</ele>
        <time>2021-05-22T10:21:51Z</time>
      </trkpt>
      <trkpt lat="43.53297" lon="2.4885">
        <ele>684.899</ele>
        <time>2021-05-22T10:21:53Z</time>
      </trkpt>
      <trkpt lat="43.53294" lon="2.48853">
        <ele>686.23</ele>
        <time>2021-05-22T10:21:55Z</time>
      </trkpt>
      <trkpt lat="43.53292" lon="2.48855">
        <ele>687.964</ele>
        <time>2021-05-22T10:21:57Z</time>
      </trkpt>
      <trkpt lat="43.53289" lon="2.48855">
        <ele>690.178</ele>
        <time>2021-05-22T10:21:59Z</time>
      </trkpt>
      <trkpt lat="43.53287" lon="2.48856">
        <ele>691.133</ele>
        <time>2021-05-22T10:22:01Z</time>
      </trkpt>
      <trkpt lat="43.53284" lon="2.48858">
        <ele>692.566</ele>
        <time>2021-05-22T10:22:03Z</time>
      </trkpt>
      <trkpt lat="43.53282" lon="2.48858">
        <ele>691.136</ele>
        <time>2021-05-22T10:22:05Z</time>
      </trkpt>
      <trkpt lat="43.5328" lon="2.48859">
        <ele>692.122</ele>
        <time>2021-05-22T10:22:07Z</time>
      </trkpt>
      <trkpt lat="43.53277" lon="2.48859">
        <ele>690.846</ele>
        <time>2021-05-22T10:22:09Z</time>
      </trkpt>
      <trkpt lat="43.53276" lon="2.48861">
        <ele>690.478</ele>
        <time>2021-05-22T10:22:11Z</time>
      </trkpt>
      <trkpt lat="43.53274" lon="2.48863">
        <ele>692.163</ele>
        <time>2021-05-22T10:22:13Z</time>
      </trkpt>
      <trkpt lat="43.53272" lon="2.48864">
        <ele>692.355</ele>
        <time>2021-05-22T10:22:15Z</time>
      </trkpt>
      <trkpt lat="43.53269" lon="2.48865">
        <ele>693.846</ele>
        <time>2021-05-22T10:22:17Z</time>
      </trkpt>
      <trkpt lat="43.53267" lon="2.48866">
        <ele>693.977</ele>
        <time>2021-05-22T10:22:19Z</time>
      </trkpt>
      <trkpt lat="43.53264" lon="2.48868">
        <ele>693.814</ele>
        <time>2021-05-22T10:22:21Z</time>
      </trkpt>
      <trkpt lat="43.53262" lon="2.48869">
        <ele>693.577</ele>
        <time>2021-05-22T10:22:23Z</time>
      </trkpt>
      <trkpt lat="43.5326" lon="2.48871">
        <ele>693.761</ele>
        <time>2021-05-22T10:22:25Z</time>
      </trkpt>
      <trkpt lat="43.53259" lon="2.48872">
        <ele>693.131</ele>
        <time>2021-05-22T10:22:27Z</time>
      </trkpt>
      <trkpt lat="43.53257" lon="2.48875">
        <ele>694.231</ele>
        <time>2021-05-22T10:22:29Z</time>
      </trkpt>
      <trkpt lat="43.53257" lon="2.48877">
        <ele>692.479</ele>
        <time>2021-05-22T10:22:31Z</time>
      </trkpt>
      <trkpt lat="43.53255" lon="2.48879">
        <ele>692.7</ele>
        <time>2021-05-22T10:22:33Z</time>
      </trkpt>
      <trkpt lat="43.53253" lon="2.48879">
        <ele>693.504</ele>
        <time>2021-05-22T10:22:35Z</time>
      </trkpt>
      <trkpt lat="43.53251" lon="2.4888">
        <ele>694.81</ele>
        <time>2021-05-22T10:22:37Z</time>
      </trkpt>
      <trkpt lat="43.53249" lon="2.48882">
        <ele>696.548</ele>
        <time>2021-05-22T10:22:39Z</time>
      </trkpt>
      <trkpt lat="43.53247" lon="2.48884">
        <ele>698.281</ele>
        <time>2021-05-22T10:22:41Z</time>
      </trkpt>
      <trkpt lat="43.53246" lon="2.48886">
        <ele>699.06</ele>
        <time>2021-05-22T10:22:43Z</time>
      </trkpt>
      <trkpt lat="43.53244" lon="2.48888">
        <ele>700.684</ele>
        <time>2021-05-22T10:22:45Z</time>
      </trkpt>
      <trkpt lat="43.53244" lon="2.4889">
        <ele>700.65</ele>
        <time>2021-05-22T10:22:47Z</time>
      </trkpt>
      <trkpt lat="43.53243" lon="2.48893">
        <ele>700.565</ele>
        <time>2021-05-22T10:22:49Z</time>
      </trkpt>
      <trkpt lat="43.53242" lon="2.48896">
        <ele>700.073</ele>
        <time>2021-05-22T10:22:51Z</time>
      </trkpt>
      <trkpt lat="43.53241" lon="2.48899">
        <ele>698.907</ele>
        <time>2021-05-22T10:22:53Z</time>
      </trkpt>
      <trkpt lat="43.5324" lon="2.489">
        <ele>697.855</ele>
        <time>2021-05-22T10:22:55Z</time>
      </trkpt>
      <trkpt lat="43.53239" lon="2.48902">
        <ele>698.374</ele>
        <time>2021-05-22T10:22:57Z</time>
      </trkpt>
      <trkpt lat="43.53236" lon="2.48904">
        <ele>699.17</ele>
        <time>2021-05-22T10:22:59Z</time>
      </trkpt>
      <trkpt lat="43.53234" lon="2.48906">
        <ele>701.093</ele>
        <time>2021-05-22T10:23:01Z</time>
      </trkpt>
      <trkpt lat="43.53232" lon="2.48907">
        <ele>700.449</ele>
        <time>2021-05-22T10:23:03Z</time>
      </trkpt>
      <trkpt lat="43.53231" lon="2.48908">
        <ele>701.05</ele>
        <time>2021-05-22T10:23:05Z</time>
      </trkpt>
      <trkpt lat="43.53229" lon="2.4891">
        <ele>699.8</ele>
        <time>2021-05-22T10:23:07Z</time>
      </trkpt>
      <trkpt lat="43.53227" lon="2.48911">
        <ele>700.002</ele>
        <time>2021-05-22T10:23:09Z</time>
      </trkpt>
      <trkpt lat="43.53225" lon="2.48913">
        <ele>700.426</ele>
        <time>2021-05-22T10:23:11Z</time>
      </trkpt>
      <trkpt lat="43.53224" lon="2.48916">
        <ele>699.549</ele>
        <time>2021-05-22T10:23:13Z</time>
      </trkpt>
      <trkpt lat="43.53223" lon="2.48918">
        <ele>699.271</ele>
        <time>2021-05-22T10:23:15Z</time>
      </trkpt>
      <trkpt lat="43.53222" lon="2.48919">
        <ele>698.766</ele>
        <time>2021-05-22T10:23:16Z</time>
      </trkpt>
      <trkpt lat="43.5322" lon="2.48922">
        <ele>697.035</ele>
        <time>2021-05-22T10:23:19Z</time>
      </trkpt>
      <trkpt lat="43.53217" lon="2.48924">
        <ele>698.913</ele>
        <time>2021-05-22T10:23:21Z</time>
      </trkpt>
      <trkpt lat="43.53215" lon="2.48926">
        <ele>698.836</ele>
        <time>2021-05-22T10:23:23Z</time>
      </trkpt>
      <trkpt lat="43.53213" lon="2.48927">
        <ele>699.46</ele>
        <time>2021-05-22T10:23:25Z</time>
      </trkpt>
      <trkpt lat="43.5321" lon="2.48927">
        <ele>700</ele>
        <time>2021-05-22T10:23:27Z</time>
      </trkpt>
      <trkpt lat="43.53207" lon="2.48927">
        <ele>701.37</ele>
        <time>2021-05-22T10:23:29Z</time>
      </trkpt>
      <trkpt lat="43.53205" lon="2.48927">
        <ele>702.41</ele>
        <time>2021-05-22T10:23:31Z</time>
      </trkpt>
      <trkpt lat="43.53204" lon="2.48926">
        <ele>702.397</ele>
        <time>2021-05-22T10:23:33Z</time>
      </trkpt>
      <trkpt lat="43.53202" lon="2.48924">
        <ele>702.395</ele>
        <time>2021-05-22T10:23:35Z</time>
      </trkpt>
      <trkpt lat="43.532" lon="2.48923">
        <ele>702.285</ele>
        <time>2021-05-22T10:23:37Z</time>
      </trkpt>
      <trkpt lat="43.53198" lon="2.48923">
        <ele>701.526</ele>
        <time>2021-05-22T10:23:39Z</time>
      </trkpt>
      <trkpt lat="43.53196" lon="2.48923">
        <ele>702.879</ele>
        <time>2021-05-22T10:23:41Z</time>
      </trkpt>
      <trkpt lat="43.53194" lon="2.48922">
        <ele>703.251</ele>
        <time>2021-05-22T10:23:43Z</time>
      </trkpt>
      <trkpt lat="43.53192" lon="2.48922">
        <ele>703.243</ele>
        <time>2021-05-22T10:23:45Z</time>
      </trkpt>
      <trkpt lat="43.5319" lon="2.4892">
        <ele>704.358</ele>
        <time>2021-05-22T10:23:47Z</time>
      </trkpt>
      <trkpt lat="43.53188" lon="2.4892">
        <ele>704.971</ele>
        <time>2021-05-22T10:23:49Z</time>
      </trkpt>
      <trkpt lat="43.53185" lon="2.48919">
        <ele>704.766</ele>
        <time>2021-05-22T10:23:51Z</time>
      </trkpt>
      <trkpt lat="43.53182" lon="2.48917">
        <ele>704.724</ele>
        <time>2021-05-22T10:23:53Z</time>
      </trkpt>
      <trkpt lat="43.53181" lon="2.48916">
        <ele>705.744</ele>
        <time>2021-05-22T10:23:55Z</time>
      </trkpt>
      <trkpt lat="43.53179" lon="2.48914">
        <ele>704.872</ele>
        <time>2021-05-22T10:23:57Z</time>
      </trkpt>
      <trkpt lat="43.53177" lon="2.48913">
        <ele>705.042</ele>
        <time>2021-05-22T10:23:59Z</time>
      </trkpt>
      <trkpt lat="43.53175" lon="2.48913">
        <ele>704.747</ele>
        <time>2021-05-22T10:24:01Z</time>
      </trkpt>
      <trkpt lat="43.53173" lon="2.48911">
        <ele>704.938</ele>
        <time>2021-05-22T10:24:03Z</time>
      </trkpt>
      <trkpt lat="43.53171" lon="2.4891">
        <ele>705.52</ele>
        <time>2021-05-22T10:24:05Z</time>
      </trkpt>
      <trkpt lat="43.53169" lon="2.48909">
        <ele>705.824</ele>
        <time>2021-05-22T10:24:07Z</time>
      </trkpt>
      <trkpt lat="43.53167" lon="2.48908">
        <ele>705.927</ele>
        <time>2021-05-22T10:24:09Z</time>
      </trkpt>
      <trkpt lat="43.53165" lon="2.48907">
        <ele>706.578</ele>
        <time>2021-05-22T10:24:11Z</time>
      </trkpt>
      <trkpt lat="43.53162" lon="2.48908">
        <ele>706.067</ele>
        <time>2021-05-22T10:24:13Z</time>
      </trkpt>
      <trkpt lat="43.5316" lon="2.48909">
        <ele>705.757</ele>
        <time>2021-05-22T10:24:15Z</time>
      </trkpt>
      <trkpt lat="43.53158" lon="2.48908">
        <ele>704.494</ele>
        <time>2021-05-22T10:24:17Z</time>
      </trkpt>
      <trkpt lat="43.53155" lon="2.48909">
        <ele>701.193</ele>
        <time>2021-05-22T10:24:19Z</time>
      </trkpt>
      <trkpt lat="43.53154" lon="2.48911">
        <ele>698.829</ele>
        <time>2021-05-22T10:24:21Z</time>
      </trkpt>
      <trkpt lat="43.53153" lon="2.48913">
        <ele>697.682</ele>
        <time>2021-05-22T10:24:23Z</time>
      </trkpt>
      <trkpt lat="43.53152" lon="2.48915">
        <ele>697.498</ele>
        <time>2021-05-22T10:24:24Z</time>
      </trkpt>
      <trkpt lat="43.53148" lon="2.48921">
        <ele>697.437</ele>
        <time>2021-05-22T10:24:31Z</time>
      </trkpt>
      <trkpt lat="43.53146" lon="2.48923">
        <ele>697.436</ele>
        <time>2021-05-22T10:24:33Z</time>
      </trkpt>
      <trkpt lat="43.53144" lon="2.48924">
        <ele>696.838</ele>
        <time>2021-05-22T10:24:35Z</time>
      </trkpt>
      <trkpt lat="43.53142" lon="2.48925">
        <ele>696.075</ele>
        <time>2021-05-22T10:24:37Z</time>
      </trkpt>
      <trkpt lat="43.5314" lon="2.48924">
        <ele>695.592</ele>
        <time>2021-05-22T10:24:39Z</time>
      </trkpt>
      <trkpt lat="43.53139" lon="2.48924">
        <ele>695.147</ele>
        <time>2021-05-22T10:24:41Z</time>
      </trkpt>
      <trkpt lat="43.53137" lon="2.48924">
        <ele>695.689</ele>
        <time>2021-05-22T10:24:43Z</time>
      </trkpt>
      <trkpt lat="43.53135" lon="2.48923">
        <ele>695.11</ele>
        <time>2021-05-22T10:24:45Z</time>
      </trkpt>
      <trkpt lat="43.53134" lon="2.48923">
        <ele>694.412</ele>
        <time>2021-05-22T10:24:47Z</time>
      </trkpt>
      <trkpt lat="43.53134" lon="2.48923">
        <ele>694.607</ele>
        <time>2021-05-22T10:24:49Z</time>
      </trkpt>
      <trkpt lat="43.53133" lon="2.48924">
        <ele>694.63</ele>
        <time>2021-05-22T10:24:51Z</time>
      </trkpt>
      <trkpt lat="43.53132" lon="2.48925">
        <ele>694.996</ele>
        <time>2021-05-22T10:24:53Z</time>
      </trkpt>
      <trkpt lat="43.53132" lon="2.48927">
        <ele>694.577</ele>
        <time>2021-05-22T10:24:55Z</time>
      </trkpt>
      <trkpt lat="43.5313" lon="2.48926">
        <ele>693.63</ele>
        <time>2021-05-22T10:24:57Z</time>
      </trkpt>
      <trkpt lat="43.53129" lon="2.48926">
        <ele>694.259</ele>
        <time>2021-05-22T10:24:59Z</time>
      </trkpt>
      <trkpt lat="43.53128" lon="2.48928">
        <ele>693.861</ele>
        <time>2021-05-22T10:25:01Z</time>
      </trkpt>
      <trkpt lat="43.53126" lon="2.48928">
        <ele>695.001</ele>
        <time>2021-05-22T10:25:03Z</time>
      </trkpt>
      <trkpt lat="43.53124" lon="2.48928">
        <ele>694.601</ele>
        <time>2021-05-22T10:25:05Z</time>
      </trkpt>
      <trkpt lat="43.53122" lon="2.48928">
        <ele>693.784</ele>
        <time>2021-05-22T10:25:07Z</time>
      </trkpt>
      <trkpt lat="43.5312" lon="2.48929">
        <ele>692.2</ele>
        <time>2021-05-22T10:25:09Z</time>
      </trkpt>
      <trkpt lat="43.53118" lon="2.4893">
        <ele>690.491</ele>
        <time>2021-05-22T10:25:11Z</time>
      </trkpt>
      <trkpt lat="43.53117" lon="2.48932">
        <ele>686.404</ele>
        <time>2021-05-22T10:25:13Z</time>
      </trkpt>
      <trkpt lat="43.53115" lon="2.48934">
        <ele>685.084</ele>
        <time>2021-05-22T10:25:15Z</time>
      </trkpt>
      <trkpt lat="43.53114" lon="2.48937">
        <ele>683.149</ele>
        <time>2021-05-22T10:25:17Z</time>
      </trkpt>
      <trkpt lat="43.53113" lon="2.48939">
        <ele>682.254</ele>
        <time>2021-05-22T10:25:19Z</time>
      </trkpt>
      <trkpt lat="43.53111" lon="2.4894">
        <ele>681.185</ele>
        <time>2021-05-22T10:25:21Z</time>
      </trkpt>
      <trkpt lat="43.5311" lon="2.48942">
        <ele>680.977</ele>
        <time>2021-05-22T10:25:23Z</time>
      </trkpt>
      <trkpt lat="43.53109" lon="2.48944">
        <ele>680.673</ele>
        <time>2021-05-22T10:25:25Z</time>
      </trkpt>
      <trkpt lat="43.53108" lon="2.48946">
        <ele>680.543</ele>
        <time>2021-05-22T10:25:27Z</time>
      </trkpt>
      <trkpt lat="43.53107" lon="2.48947">
        <ele>680.346</ele>
        <time>2021-05-22T10:25:29Z</time>
      </trkpt>
      <trkpt lat="43.53106" lon="2.48949">
        <ele>680.449</ele>
        <time>2021-05-22T10:25:31Z</time>
      </trkpt>
      <trkpt lat="43.53106" lon="2.48951">
        <ele>679.069</ele>
        <time>2021-05-22T10:25:33Z</time>
      </trkpt>
      <trkpt lat="43.53106" lon="2.48953">
        <ele>678.75</ele>
        <time>2021-05-22T10:25:35Z</time>
      </trkpt>
      <trkpt lat="43.53104" lon="2.48956">
        <ele>677.296</ele>
        <time>2021-05-22T10:25:37Z</time>
      </trkpt>
      <trkpt lat="43.53103" lon="2.48959">
        <ele>675.459</ele>
        <time>2021-05-22T10:25:39Z</time>
      </trkpt>
      <trkpt lat="43.53103" lon="2.48961">
        <ele>673.928</ele>
        <time>2021-05-22T10:25:41Z</time>
      </trkpt>
      <trkpt lat="43.53102" lon="2.48963">
        <ele>673.813</ele>
        <time>2021-05-22T10:25:43Z</time>
      </trkpt>
      <trkpt lat="43.53102" lon="2.48965">
        <ele>672.702</ele>
        <time>2021-05-22T10:25:45Z</time>
      </trkpt>
      <trkpt lat="43.53101" lon="2.48967">
        <ele>672.496</ele>
        <time>2021-05-22T10:25:47Z</time>
      </trkpt>
      <trkpt lat="43.53102" lon="2.48969">
        <ele>671.299</ele>
        <time>2021-05-22T10:25:49Z</time>
      </trkpt>
      <trkpt lat="43.53101" lon="2.48972">
        <ele>671.674</ele>
        <time>2021-05-22T10:25:51Z</time>
      </trkpt>
      <trkpt lat="43.53101" lon="2.48974">
        <ele>671.819</ele>
        <time>2021-05-22T10:25:53Z</time>
      </trkpt>
      <trkpt lat="43.53101" lon="2.48977">
        <ele>671.903</ele>
        <time>2021-05-22T10:25:55Z</time>
      </trkpt>
      <trkpt lat="43.53101" lon="2.4898">
        <ele>670.173</ele>
        <time>2021-05-22T10:25:57Z</time>
      </trkpt>
      <trkpt lat="43.53102" lon="2.48982">
        <ele>669.147</ele>
        <time>2021-05-22T10:25:59Z</time>
      </trkpt>
      <trkpt lat="43.53101" lon="2.48986">
        <ele>670.407</ele>
        <time>2021-05-22T10:26:01Z</time>
      </trkpt>
      <trkpt lat="43.53102" lon="2.48988">
        <ele>670.299</ele>
        <time>2021-05-22T10:26:03Z</time>
      </trkpt>
      <trkpt lat="43.53102" lon="2.48991">
        <ele>670.98</ele>
        <time>2021-05-22T10:26:05Z</time>
      </trkpt>
      <trkpt lat="43.53101" lon="2.48995">
        <ele>673.464</ele>
        <time>2021-05-22T10:26:07Z</time>
      </trkpt>
      <trkpt lat="43.531" lon="2.48998">
        <ele>673.759</ele>
        <time>2021-05-22T10:26:09Z</time>
      </trkpt>
      <trkpt lat="43.531" lon="2.49002">
        <ele>674.672</ele>
        <time>2021-05-22T10:26:11Z</time>
      </trkpt>
      <trkpt lat="43.53099" lon="2.49005">
        <ele>675.638</ele>
        <time>2021-05-22T10:26:13Z</time>
      </trkpt>
      <trkpt lat="43.53099" lon="2.49009">
        <ele>676.646</ele>
        <time>2021-05-22T10:26:15Z</time>
      </trkpt>
      <trkpt lat="43.531" lon="2.49012">
        <ele>677.195</ele>
        <time>2021-05-22T10:26:17Z</time>
      </trkpt>
      <trkpt lat="43.53099" lon="2.49014">
        <ele>676.301</ele>
        <time>2021-05-22T10:26:19Z</time>
      </trkpt>
      <trkpt lat="43.531" lon="2.49017">
        <ele>677.611</ele>
        <time>2021-05-22T10:26:21Z</time>
      </trkpt>
      <trkpt lat="43.531" lon="2.4902">
        <ele>676.918</ele>
        <time>2021-05-22T10:26:23Z</time>
      </trkpt>
      <trkpt lat="43.53101" lon="2.49023">
        <ele>676.664</ele>
        <time>2021-05-22T10:26:25Z</time>
      </trkpt>
      <trkpt lat="43.53101" lon="2.49026">
        <ele>678.413</ele>
        <time>2021-05-22T10:26:27Z</time>
      </trkpt>
      <trkpt lat="43.53101" lon="2.4903">
        <ele>678.34</ele>
        <time>2021-05-22T10:26:29Z</time>
      </trkpt>
      <trkpt lat="43.53101" lon="2.49033">
        <ele>678.928</ele>
        <time>2021-05-22T10:26:31Z</time>
      </trkpt>
      <trkpt lat="43.53102" lon="2.49036">
        <ele>678.262</ele>
        <time>2021-05-22T10:26:33Z</time>
      </trkpt>
      <trkpt lat="43.53103" lon="2.49039">
        <ele>679.21</ele>
        <time>2021-05-22T10:26:35Z</time>
      </trkpt>
      <trkpt lat="43.53104" lon="2.49041">
        <ele>679.387</ele>
        <time>2021-05-22T10:26:37Z</time>
      </trkpt>
      <trkpt lat="43.53105" lon="2.49042">
        <ele>677.433</ele>
        <time>2021-05-22T10:26:39Z</time>
      </trkpt>
      <trkpt lat="43.53107" lon="2.49045">
        <ele>677.584</ele>
        <time>2021-05-22T10:26:41Z</time>
      </trkpt>
      <trkpt lat="43.53108" lon="2.49047">
        <ele>679.466</ele>
        <time>2021-05-22T10:26:43Z</time>
      </trkpt>
      <trkpt lat="43.53109" lon="2.49049">
        <ele>680.371</ele>
        <time>2021-05-22T10:26:45Z</time>
      </trkpt>
      <trkpt lat="43.53111" lon="2.49051">
        <ele>679.675</ele>
        <time>2021-05-22T10:26:47Z</time>
      </trkpt>
      <trkpt lat="43.53111" lon="2.49052">
        <ele>678.552</ele>
        <time>2021-05-22T10:26:49Z</time>
      </trkpt>
      <trkpt lat="43.53113" lon="2.49053">
        <ele>676.466</ele>
        <time>2021-05-22T10:26:51Z</time>
      </trkpt>
      <trkpt lat="43.53113" lon="2.49056">
        <ele>677.4</ele>
        <time>2021-05-22T10:26:53Z</time>
      </trkpt>
      <trkpt lat="43.53113" lon="2.49058">
        <ele>679.005</ele>
        <time>2021-05-22T10:26:55Z</time>
      </trkpt>
      <trkpt lat="43.53114" lon="2.49061">
        <ele>678.973</ele>
        <time>2021-05-22T10:26:57Z</time>
      </trkpt>
      <trkpt lat="43.53114" lon="2.49064">
        <ele>679.461</ele>
        <time>2021-05-22T10:26:59Z</time>
      </trkpt>
      <trkpt lat="43.53114" lon="2.49067">
        <ele>679.361</ele>
        <time>2021-05-22T10:27:01Z</time>
      </trkpt>
      <trkpt lat="43.53113" lon="2.49068">
        <ele>678.55</ele>
        <time>2021-05-22T10:27:03Z</time>
      </trkpt>
      <trkpt lat="43.53112" lon="2.4907">
        <ele>677.368</ele>
        <time>2021-05-22T10:27:05Z</time>
      </trkpt>
      <trkpt lat="43.53111" lon="2.49073">
        <ele>676.116</ele>
        <time>2021-05-22T10:27:07Z</time>
      </trkpt>
      <trkpt lat="43.5311" lon="2.49074">
        <ele>673.99</ele>
        <time>2021-05-22T10:27:09Z</time>
      </trkpt>
      <trkpt lat="43.53109" lon="2.49077">
        <ele>673.587</ele>
        <time>2021-05-22T10:27:11Z</time>
      </trkpt>
      <trkpt lat="43.53108" lon="2.4908">
        <ele>674.174</ele>
        <time>2021-05-22T10:27:13Z</time>
      </trkpt>
      <trkpt lat="43.5311" lon="2.49081">
        <ele>675.012</ele>
        <time>2021-05-22T10:27:15Z</time>
      </trkpt>
      <trkpt lat="43.53111" lon="2.4908">
        <ele>673.664</ele>
        <time>2021-05-22T10:27:17Z</time>
      </trkpt>
      <trkpt lat="43.5311" lon="2.49081">
        <ele>673.584</ele>
        <time>2021-05-22T10:27:19Z</time>
      </trkpt>
      <trkpt lat="43.5311" lon="2.49081">
        <ele>673.453</ele>
        <time>2021-05-22T10:27:21Z</time>
      </trkpt>
      <trkpt lat="43.5311" lon="2.49081">
        <ele>674.47</ele>
        <time>2021-05-22T10:27:23Z</time>
      </trkpt>
      <trkpt lat="43.53109" lon="2.49081">
        <ele>674.9</ele>
        <time>2021-05-22T10:27:25Z</time>
      </trkpt>
      <trkpt lat="43.53109" lon="2.49081">
        <ele>675.76</ele>
        <time>2021-05-22T10:27:27Z</time>
      </trkpt>
      <trkpt lat="43.53108" lon="2.49081">
        <ele>675.784</ele>
        <time>2021-05-22T10:27:29Z</time>
      </trkpt>
      <trkpt lat="43.53108" lon="2.49081">
        <ele>675.792</ele>
        <time>2021-05-22T10:27:31Z</time>
      </trkpt>
      <trkpt lat="43.53108" lon="2.49081">
        <ele>675.424</ele>
        <time>2021-05-22T10:27:33Z</time>
      </trkpt>
      <trkpt lat="43.53108" lon="2.49081">
        <ele>675.566</ele>
        <time>2021-05-22T10:27:35Z</time>
      </trkpt>
      <trkpt lat="43.53107" lon="2.49081">
        <ele>675.577</ele>
        <time>2021-05-22T10:27:37Z</time>
      </trkpt>
      <trkpt lat="43.53107" lon="2.49081">
        <ele>675.582</ele>
        <time>2021-05-22T10:27:39Z</time>
      </trkpt>
      <trkpt lat="43.53107" lon="2.49081">
        <ele>675.581</ele>
        <time>2021-05-22T10:27:41Z</time>
      </trkpt>
      <trkpt lat="43.53107" lon="2.49081">
        <ele>676.398</ele>
        <time>2021-05-22T10:27:43Z</time>
      </trkpt>
      <trkpt lat="43.53106" lon="2.49081">
        <ele>677.577</ele>
        <time>2021-05-22T10:27:45Z</time>
      </trkpt>
      <trkpt lat="43.53106" lon="2.49083">
        <ele>676.943</ele>
        <time>2021-05-22T10:27:47Z</time>
      </trkpt>
      <trkpt lat="43.53108" lon="2.49084">
        <ele>676.299</ele>
        <time>2021-05-22T10:27:49Z</time>
      </trkpt>
      <trkpt lat="43.53108" lon="2.49084">
        <ele>676.77</ele>
        <time>2021-05-22T10:27:51Z</time>
      </trkpt>
      <trkpt lat="43.53108" lon="2.49084">
        <ele>676.778</ele>
        <time>2021-05-22T10:27:53Z</time>
      </trkpt>
      <trkpt lat="43.53108" lon="2.49084">
        <ele>676.782</ele>
        <time>2021-05-22T10:27:55Z</time>
      </trkpt>
      <trkpt lat="43.53108" lon="2.49084">
        <ele>676.8</ele>
        <time>2021-05-22T10:27:57Z</time>
      </trkpt>
      <trkpt lat="43.53108" lon="2.49084">
        <ele>677.448</ele>
        <time>2021-05-22T10:27:59Z</time>
      </trkpt>
      <trkpt lat="43.53108" lon="2.49083">
        <ele>677.355</ele>
        <time>2021-05-22T10:28:01Z</time>
      </trkpt>
      <trkpt lat="43.53108" lon="2.49083">
        <ele>677.358</ele>
        <time>2021-05-22T10:28:03Z</time>
      </trkpt>
      <trkpt lat="43.53108" lon="2.49083">
        <ele>677.446</ele>
        <time>2021-05-22T10:28:05Z</time>
      </trkpt>
      <trkpt lat="43.53109" lon="2.49083">
        <ele>677.289</ele>
        <time>2021-05-22T10:28:07Z</time>
      </trkpt>
      <trkpt lat="43.53109" lon="2.49083">
        <ele>677.192</ele>
        <time>2021-05-22T10:28:09Z</time>
      </trkpt>
      <trkpt lat="43.53109" lon="2.49083">
        <ele>677.258</ele>
        <time>2021-05-22T10:28:11Z</time>
      </trkpt>
      <trkpt lat="43.53109" lon="2.49083">
        <ele>677.261</ele>
        <time>2021-05-22T10:28:13Z</time>
      </trkpt>
      <trkpt lat="43.53109" lon="2.49083">
        <ele>677.269</ele>
        <time>2021-05-22T10:28:15Z</time>
      </trkpt>
      <trkpt lat="43.53109" lon="2.49083">
        <ele>677.302</ele>
        <time>2021-05-22T10:28:17Z</time>
      </trkpt>
      <trkpt lat="43.53109" lon="2.49083">
        <ele>677.317</ele>
        <time>2021-05-22T10:28:19Z</time>
      </trkpt>
      <trkpt lat="43.53109" lon="2.49083">
        <ele>677.487</ele>
        <time>2021-05-22T10:28:21Z</time>
      </trkpt>
      <trkpt lat="43.53109" lon="2.49083">
        <ele>677.043</ele>
        <time>2021-05-22T10:28:23Z</time>
      </trkpt>
      <trkpt lat="43.53109" lon="2.49083">
        <ele>677.083</ele>
        <time>2021-05-22T10:28:25Z</time>
      </trkpt>
      <trkpt lat="43.53109" lon="2.49083">
        <ele>676.882</ele>
        <time>2021-05-22T10:28:27Z</time>
      </trkpt>
      <trkpt lat="43.53109" lon="2.49084">
        <ele>677.209</ele>
        <time>2021-05-22T10:28:29Z</time>
      </trkpt>
      <trkpt lat="43.53109" lon="2.49084">
        <ele>677.229</ele>
        <time>2021-05-22T10:28:31Z</time>
      </trkpt>
      <trkpt lat="43.53109" lon="2.49084">
        <ele>677.23</ele>
        <time>2021-05-22T10:28:33Z</time>
      </trkpt>
      <trkpt lat="43.53109" lon="2.49084">
        <ele>677.229</ele>
        <time>2021-05-22T10:28:35Z</time>
      </trkpt>
      <trkpt lat="43.53109" lon="2.49084">
        <ele>677.234</ele>
        <time>2021-05-22T10:28:37Z</time>
      </trkpt>
      <trkpt lat="43.53109" lon="2.49084">
        <ele>677.239</ele>
        <time>2021-05-22T10:28:39Z</time>
      </trkpt>
      <trkpt lat="43.53109" lon="2.49084">
        <ele>677.241</ele>
        <time>2021-05-22T10:28:41Z</time>
      </trkpt>
      <trkpt lat="43.53109" lon="2.49084">
        <ele>677.242</ele>
        <time>2021-05-22T10:28:43Z</time>
      </trkpt>
      <trkpt lat="43.53109" lon="2.49084">
        <ele>677.63</ele>
        <time>2021-05-22T10:28:45Z</time>
      </trkpt>
      <trkpt lat="43.53109" lon="2.49084">
        <ele>677.623</ele>
        <time>2021-05-22T10:28:47Z</time>
      </trkpt>
      <trkpt lat="43.53109" lon="2.49084">
        <ele>677.628</ele>
        <time>2021-05-22T10:28:49Z</time>
      </trkpt>
      <trkpt lat="43.53109" lon="2.49084">
        <ele>677.629</ele>
        <time>2021-05-22T10:28:51Z</time>
      </trkpt>
      <trkpt lat="43.53109" lon="2.49085">
        <ele>677.456</ele>
        <time>2021-05-22T10:28:53Z</time>
      </trkpt>
      <trkpt lat="43.53107" lon="2.49084">
        <ele>677.089</ele>
        <time>2021-05-22T10:28:55Z</time>
      </trkpt>
      <trkpt lat="43.53106" lon="2.49083">
        <ele>678.085</ele>
        <time>2021-05-22T10:28:57Z</time>
      </trkpt>
      <trkpt lat="43.53106" lon="2.49082">
        <ele>678.508</ele>
        <time>2021-05-22T10:28:59Z</time>
      </trkpt>
      <trkpt lat="43.53106" lon="2.49082">
        <ele>678.741</ele>
        <time>2021-05-22T10:29:01Z</time>
      </trkpt>
      <trkpt lat="43.53105" lon="2.49081">
        <ele>679.77</ele>
        <time>2021-05-22T10:29:03Z</time>
      </trkpt>
      <trkpt lat="43.53103" lon="2.49081">
        <ele>679.581</ele>
        <time>2021-05-22T10:29:05Z</time>
      </trkpt>
      <trkpt lat="43.53103" lon="2.49081">
        <ele>679.36</ele>
        <time>2021-05-22T10:29:07Z</time>
      </trkpt>
      <trkpt lat="43.53103" lon="2.49081">
        <ele>679.359</ele>
        <time>2021-05-22T10:29:09Z</time>
      </trkpt>
      <trkpt lat="43.53103" lon="2.49081">
        <ele>679.359</ele>
        <time>2021-05-22T10:29:11Z</time>
      </trkpt>
      <trkpt lat="43.53103" lon="2.49081">
        <ele>679.358</ele>
        <time>2021-05-22T10:29:13Z</time>
      </trkpt>
      <trkpt lat="43.53103" lon="2.49081">
        <ele>679.36</ele>
        <time>2021-05-22T10:29:15Z</time>
      </trkpt>
      <trkpt lat="43.53103" lon="2.49081">
        <ele>679.358</ele>
        <time>2021-05-22T10:29:17Z</time>
      </trkpt>
      <trkpt lat="43.53103" lon="2.49081">
        <ele>679.36</ele>
        <time>2021-05-22T10:29:19Z</time>
      </trkpt>
      <trkpt lat="43.53103" lon="2.49081">
        <ele>679.366</ele>
        <time>2021-05-22T10:29:21Z</time>
      </trkpt>
      <trkpt lat="43.53103" lon="2.49081">
        <ele>679.373</ele>
        <time>2021-05-22T10:29:23Z</time>
      </trkpt>
      <trkpt lat="43.53103" lon="2.49081">
        <ele>679.372</ele>
        <time>2021-05-22T10:29:25Z</time>
      </trkpt>
      <trkpt lat="43.53103" lon="2.49081">
        <ele>679.377</ele>
        <time>2021-05-22T10:29:27Z</time>
      </trkpt>
      <trkpt lat="43.53103" lon="2.49081">
        <ele>679.384</ele>
        <time>2021-05-22T10:29:29Z</time>
      </trkpt>
      <trkpt lat="43.53103" lon="2.49082">
        <ele>679.597</ele>
        <time>2021-05-22T10:29:31Z</time>
      </trkpt>
      <trkpt lat="43.53103" lon="2.49082">
        <ele>679.615</ele>
        <time>2021-05-22T10:29:33Z</time>
      </trkpt>
      <trkpt lat="43.53103" lon="2.49082">
        <ele>679.701</ele>
        <time>2021-05-22T10:29:35Z</time>
      </trkpt>
      <trkpt lat="43.53103" lon="2.49082">
        <ele>680.043</ele>
        <time>2021-05-22T10:29:37Z</time>
      </trkpt>
      <trkpt lat="43.53103" lon="2.49082">
        <ele>680.059</ele>
        <time>2021-05-22T10:29:39Z</time>
      </trkpt>
      <trkpt lat="43.53103" lon="2.49082">
        <ele>680.059</ele>
        <time>2021-05-22T10:29:41Z</time>
      </trkpt>
      <trkpt lat="43.53103" lon="2.49082">
        <ele>680.072</ele>
        <time>2021-05-22T10:29:43Z</time>
      </trkpt>
      <trkpt lat="43.53103" lon="2.49082">
        <ele>680.07</ele>
        <time>2021-05-22T10:29:45Z</time>
      </trkpt>
      <trkpt lat="43.53103" lon="2.49082">
        <ele>680.088</ele>
        <time>2021-05-22T10:29:47Z</time>
      </trkpt>
      <trkpt lat="43.53103" lon="2.49082">
        <ele>680.083</ele>
        <time>2021-05-22T10:29:49Z</time>
      </trkpt>
      <trkpt lat="43.53103" lon="2.49082">
        <ele>680.073</ele>
        <time>2021-05-22T10:29:51Z</time>
      </trkpt>
      <trkpt lat="43.53103" lon="2.49082">
        <ele>680.07</ele>
        <time>2021-05-22T10:29:53Z</time>
      </trkpt>
      <trkpt lat="43.53103" lon="2.49082">
        <ele>680.691</ele>
        <time>2021-05-22T10:29:55Z</time>
      </trkpt>
      <trkpt lat="43.53103" lon="2.49082">
        <ele>680.681</ele>
        <time>2021-05-22T10:29:57Z</time>
      </trkpt>
      <trkpt lat="43.53103" lon="2.49082">
        <ele>680.518</ele>
        <time>2021-05-22T10:29:59Z</time>
      </trkpt>
      <trkpt lat="43.53103" lon="2.49083">
        <ele>680.533</ele>
        <time>2021-05-22T10:30:01Z</time>
      </trkpt>
      <trkpt lat="43.53103" lon="2.49083">
        <ele>680.53</ele>
        <time>2021-05-22T10:30:03Z</time>
      </trkpt>
      <trkpt lat="43.53103" lon="2.49083">
        <ele>680.535</ele>
        <time>2021-05-22T10:30:05Z</time>
      </trkpt>
      <trkpt lat="43.53103" lon="2.49083">
        <ele>680.534</ele>
        <time>2021-05-22T10:30:07Z</time>
      </trkpt>
      <trkpt lat="43.53103" lon="2.49083">
        <ele>680.54</ele>
        <time>2021-05-22T10:30:09Z</time>
      </trkpt>
      <trkpt lat="43.53103" lon="2.49083">
        <ele>680.506</ele>
        <time>2021-05-22T10:30:11Z</time>
      </trkpt>
      <trkpt lat="43.53103" lon="2.49083">
        <ele>680.504</ele>
        <time>2021-05-22T10:30:13Z</time>
      </trkpt>
      <trkpt lat="43.53103" lon="2.49083">
        <ele>680.503</ele>
        <time>2021-05-22T10:30:15Z</time>
      </trkpt>
      <trkpt lat="43.53103" lon="2.49083">
        <ele>680.511</ele>
        <time>2021-05-22T10:30:17Z</time>
      </trkpt>
      <trkpt lat="43.53103" lon="2.49083">
        <ele>680.51</ele>
        <time>2021-05-22T10:30:19Z</time>
      </trkpt>
      <trkpt lat="43.53103" lon="2.49083">
        <ele>680.506</ele>
        <time>2021-05-22T10:30:21Z</time>
      </trkpt>
      <trkpt lat="43.53103" lon="2.49083">
        <ele>680.503</ele>
        <time>2021-05-22T10:30:23Z</time>
      </trkpt>
      <trkpt lat="43.53103" lon="2.49083">
        <ele>680.531</ele>
        <time>2021-05-22T10:30:25Z</time>
      </trkpt>
      <trkpt lat="43.53103" lon="2.49085">
        <ele>680.901</ele>
        <time>2021-05-22T10:30:27Z</time>
      </trkpt>
      <trkpt lat="43.53104" lon="2.49087">
        <ele>680.291</ele>
        <time>2021-05-22T10:30:29Z</time>
      </trkpt>
      <trkpt lat="43.53105" lon="2.49088">
        <ele>679.582</ele>
        <time>2021-05-22T10:30:31Z</time>
      </trkpt>
      <trkpt lat="43.53104" lon="2.4909">
        <ele>678.74</ele>
        <time>2021-05-22T10:30:33Z</time>
      </trkpt>
      <trkpt lat="43.53103" lon="2.49092">
        <ele>674.88</ele>
        <time>2021-05-22T10:30:35Z</time>
      </trkpt>
      <trkpt lat="43.53102" lon="2.49093">
        <ele>674.696</ele>
        <time>2021-05-22T10:30:37Z</time>
      </trkpt>
      <trkpt lat="43.53099" lon="2.49094">
        <ele>676.708</ele>
        <time>2021-05-22T10:30:39Z</time>
      </trkpt>
      <trkpt lat="43.53098" lon="2.49096">
        <ele>675.895</ele>
        <time>2021-05-22T10:30:41Z</time>
      </trkpt>
      <trkpt lat="43.53096" lon="2.49097">
        <ele>676.023</ele>
        <time>2021-05-22T10:30:43Z</time>
      </trkpt>
      <trkpt lat="43.53096" lon="2.49098">
        <ele>673.851</ele>
        <time>2021-05-22T10:30:45Z</time>
      </trkpt>
      <trkpt lat="43.53096" lon="2.49099">
        <ele>674.151</ele>
        <time>2021-05-22T10:30:47Z</time>
      </trkpt>
      <trkpt lat="43.53096" lon="2.491">
        <ele>674.607</ele>
        <time>2021-05-22T10:30:49Z</time>
      </trkpt>
      <trkpt lat="43.53095" lon="2.49102">
        <ele>674.843</ele>
        <time>2021-05-22T10:30:51Z</time>
      </trkpt>
      <trkpt lat="43.53093" lon="2.49104">
        <ele>674.856</ele>
        <time>2021-05-22T10:30:53Z</time>
      </trkpt>
      <trkpt lat="43.53091" lon="2.49105">
        <ele>674.983</ele>
        <time>2021-05-22T10:30:55Z</time>
      </trkpt>
      <trkpt lat="43.53089" lon="2.49108">
        <ele>675.575</ele>
        <time>2021-05-22T10:30:57Z</time>
      </trkpt>
      <trkpt lat="43.53087" lon="2.49109">
        <ele>674.478</ele>
        <time>2021-05-22T10:30:59Z</time>
      </trkpt>
      <trkpt lat="43.53085" lon="2.4911">
        <ele>674.757</ele>
        <time>2021-05-22T10:31:01Z</time>
      </trkpt>
      <trkpt lat="43.53084" lon="2.49111">
        <ele>674.254</ele>
        <time>2021-05-22T10:31:03Z</time>
      </trkpt>
      <trkpt lat="43.53082" lon="2.49112">
        <ele>674.849</ele>
        <time>2021-05-22T10:31:05Z</time>
      </trkpt>
      <trkpt lat="43.5308" lon="2.49114">
        <ele>675.598</ele>
        <time>2021-05-22T10:31:07Z</time>
      </trkpt>
      <trkpt lat="43.53079" lon="2.49115">
        <ele>674.759</ele>
        <time>2021-05-22T10:31:09Z</time>
      </trkpt>
      <trkpt lat="43.53078" lon="2.49117">
        <ele>674.011</ele>
        <time>2021-05-22T10:31:11Z</time>
      </trkpt>
      <trkpt lat="43.53076" lon="2.49118">
        <ele>671.801</ele>
        <time>2021-05-22T10:31:13Z</time>
      </trkpt>
      <trkpt lat="43.53075" lon="2.49121">
        <ele>671.234</ele>
        <time>2021-05-22T10:31:15Z</time>
      </trkpt>
      <trkpt lat="43.53074" lon="2.49124">
        <ele>670.708</ele>
        <time>2021-05-22T10:31:17Z</time>
      </trkpt>
      <trkpt lat="43.53072" lon="2.49125">
        <ele>672.164</ele>
        <time>2021-05-22T10:31:19Z</time>
      </trkpt>
      <trkpt lat="43.5307" lon="2.49128">
        <ele>672.827</ele>
        <time>2021-05-22T10:31:21Z</time>
      </trkpt>
      <trkpt lat="43.53069" lon="2.4913">
        <ele>670.653</ele>
        <time>2021-05-22T10:31:23Z</time>
      </trkpt>
      <trkpt lat="43.53068" lon="2.49133">
        <ele>669.395</ele>
        <time>2021-05-22T10:31:25Z</time>
      </trkpt>
      <trkpt lat="43.53067" lon="2.49136">
        <ele>671.486</ele>
        <time>2021-05-22T10:31:27Z</time>
      </trkpt>
      <trkpt lat="43.53066" lon="2.49139">
        <ele>671.743</ele>
        <time>2021-05-22T10:31:29Z</time>
      </trkpt>
      <trkpt lat="43.53066" lon="2.49142">
        <ele>670.85</ele>
        <time>2021-05-22T10:31:31Z</time>
      </trkpt>
      <trkpt lat="43.53067" lon="2.49145">
        <ele>667.953</ele>
        <time>2021-05-22T10:31:33Z</time>
      </trkpt>
      <trkpt lat="43.53066" lon="2.49148">
        <ele>666.896</ele>
        <time>2021-05-22T10:31:35Z</time>
      </trkpt>
      <trkpt lat="43.53066" lon="2.49151">
        <ele>666.182</ele>
        <time>2021-05-22T10:31:37Z</time>
      </trkpt>
      <trkpt lat="43.53065" lon="2.49154">
        <ele>665.856</ele>
        <time>2021-05-22T10:31:39Z</time>
      </trkpt>
      <trkpt lat="43.53065" lon="2.49157">
        <ele>665.824</ele>
        <time>2021-05-22T10:31:41Z</time>
      </trkpt>
      <trkpt lat="43.53064" lon="2.4916">
        <ele>665.142</ele>
        <time>2021-05-22T10:31:43Z</time>
      </trkpt>
      <trkpt lat="43.53063" lon="2.49162">
        <ele>664.931</ele>
        <time>2021-05-22T10:31:45Z</time>
      </trkpt>
      <trkpt lat="43.53063" lon="2.49165">
        <ele>665.198</ele>
        <time>2021-05-22T10:31:47Z</time>
      </trkpt>
      <trkpt lat="43.53062" lon="2.49167">
        <ele>664.594</ele>
        <time>2021-05-22T10:31:49Z</time>
      </trkpt>
      <trkpt lat="43.53061" lon="2.4917">
        <ele>664.077</ele>
        <time>2021-05-22T10:31:51Z</time>
      </trkpt>
      <trkpt lat="43.5306" lon="2.49173">
        <ele>663.638</ele>
        <time>2021-05-22T10:31:53Z</time>
      </trkpt>
      <trkpt lat="43.53059" lon="2.49176">
        <ele>664.418</ele>
        <time>2021-05-22T10:31:55Z</time>
      </trkpt>
      <trkpt lat="43.53058" lon="2.49179">
        <ele>663.31</ele>
        <time>2021-05-22T10:31:57Z</time>
      </trkpt>
      <trkpt lat="43.53058" lon="2.49181">
        <ele>663.472</ele>
        <time>2021-05-22T10:31:59Z</time>
      </trkpt>
      <trkpt lat="43.53057" lon="2.49185">
        <ele>663.909</ele>
        <time>2021-05-22T10:32:01Z</time>
      </trkpt>
      <trkpt lat="43.53057" lon="2.49187">
        <ele>662.758</ele>
        <time>2021-05-22T10:32:03Z</time>
      </trkpt>
      <trkpt lat="43.53057" lon="2.4919">
        <ele>662</ele>
        <time>2021-05-22T10:32:05Z</time>
      </trkpt>
      <trkpt lat="43.53056" lon="2.49193">
        <ele>660.681</ele>
        <time>2021-05-22T10:32:07Z</time>
      </trkpt>
      <trkpt lat="43.53056" lon="2.49195">
        <ele>659.158</ele>
        <time>2021-05-22T10:32:09Z</time>
      </trkpt>
      <trkpt lat="43.53055" lon="2.49197">
        <ele>660.546</ele>
        <time>2021-05-22T10:32:11Z</time>
      </trkpt>
      <trkpt lat="43.53055" lon="2.49199">
        <ele>659.329</ele>
        <time>2021-05-22T10:32:13Z</time>
      </trkpt>
      <trkpt lat="43.53054" lon="2.492">
        <ele>659.607</ele>
        <time>2021-05-22T10:32:15Z</time>
      </trkpt>
      <trkpt lat="43.53054" lon="2.492">
        <ele>659.591</ele>
        <time>2021-05-22T10:32:17Z</time>
      </trkpt>
      <trkpt lat="43.53054" lon="2.492">
        <ele>659.577</ele>
        <time>2021-05-22T10:32:19Z</time>
      </trkpt>
      <trkpt lat="43.53054" lon="2.492">
        <ele>659.562</ele>
        <time>2021-05-22T10:32:21Z</time>
      </trkpt>
      <trkpt lat="43.53054" lon="2.492">
        <ele>659.564</ele>
        <time>2021-05-22T10:32:23Z</time>
      </trkpt>
      <trkpt lat="43.53054" lon="2.492">
        <ele>659.56</ele>
        <time>2021-05-22T10:32:25Z</time>
      </trkpt>
      <trkpt lat="43.53054" lon="2.492">
        <ele>659.567</ele>
        <time>2021-05-22T10:32:27Z</time>
      </trkpt>
      <trkpt lat="43.53054" lon="2.492">
        <ele>659.255</ele>
        <time>2021-05-22T10:32:29Z</time>
      </trkpt>
      <trkpt lat="43.53054" lon="2.49201">
        <ele>659.367</ele>
        <time>2021-05-22T10:32:31Z</time>
      </trkpt>
      <trkpt lat="43.53054" lon="2.49201">
        <ele>659.378</ele>
        <time>2021-05-22T10:32:33Z</time>
      </trkpt>
      <trkpt lat="43.53054" lon="2.49201">
        <ele>659.595</ele>
        <time>2021-05-22T10:32:35Z</time>
      </trkpt>
      <trkpt lat="43.53054" lon="2.49201">
        <ele>659.367</ele>
        <time>2021-05-22T10:32:37Z</time>
      </trkpt>
      <trkpt lat="43.53053" lon="2.49201">
        <ele>659.434</ele>
        <time>2021-05-22T10:32:39Z</time>
      </trkpt>
      <trkpt lat="43.53053" lon="2.49201">
        <ele>659.441</ele>
        <time>2021-05-22T10:32:41Z</time>
      </trkpt>
      <trkpt lat="43.53053" lon="2.49201">
        <ele>659.453</ele>
        <time>2021-05-22T10:32:43Z</time>
      </trkpt>
      <trkpt lat="43.53053" lon="2.49201">
        <ele>659.586</ele>
        <time>2021-05-22T10:32:45Z</time>
      </trkpt>
      <trkpt lat="43.53053" lon="2.49201">
        <ele>659.589</ele>
        <time>2021-05-22T10:32:47Z</time>
      </trkpt>
      <trkpt lat="43.53053" lon="2.49201">
        <ele>659.584</ele>
        <time>2021-05-22T10:32:49Z</time>
      </trkpt>
      <trkpt lat="43.53053" lon="2.49201">
        <ele>660.431</ele>
        <time>2021-05-22T10:32:51Z</time>
      </trkpt>
      <trkpt lat="43.53053" lon="2.492">
        <ele>660.397</ele>
        <time>2021-05-22T10:32:53Z</time>
      </trkpt>
      <trkpt lat="43.53053" lon="2.492">
        <ele>661.256</ele>
        <time>2021-05-22T10:32:55Z</time>
      </trkpt>
      <trkpt lat="43.53053" lon="2.492">
        <ele>661.416</ele>
        <time>2021-05-22T10:32:57Z</time>
      </trkpt>
      <trkpt lat="43.53053" lon="2.492">
        <ele>661.428</ele>
        <time>2021-05-22T10:32:59Z</time>
      </trkpt>
      <trkpt lat="43.53053" lon="2.492">
        <ele>661.443</ele>
        <time>2021-05-22T10:33:01Z</time>
      </trkpt>
      <trkpt lat="43.53053" lon="2.492">
        <ele>661.457</ele>
        <time>2021-05-22T10:33:03Z</time>
      </trkpt>
      <trkpt lat="43.53053" lon="2.492">
        <ele>661.48</ele>
        <time>2021-05-22T10:33:05Z</time>
      </trkpt>
      <trkpt lat="43.53053" lon="2.492">
        <ele>661.505</ele>
        <time>2021-05-22T10:33:07Z</time>
      </trkpt>
      <trkpt lat="43.53053" lon="2.492">
        <ele>661.536</ele>
        <time>2021-05-22T10:33:09Z</time>
      </trkpt>
      <trkpt lat="43.53053" lon="2.492">
        <ele>661.57</ele>
        <time>2021-05-22T10:33:11Z</time>
      </trkpt>
      <trkpt lat="43.53053" lon="2.492">
        <ele>661.676</ele>
        <time>2021-05-22T10:33:13Z</time>
      </trkpt>
      <trkpt lat="43.53053" lon="2.492">
        <ele>662.409</ele>
        <time>2021-05-22T10:33:15Z</time>
      </trkpt>
      <trkpt lat="43.53052" lon="2.492">
        <ele>662.505</ele>
        <time>2021-05-22T10:33:17Z</time>
      </trkpt>
      <trkpt lat="43.53052" lon="2.492">
        <ele>662.517</ele>
        <time>2021-05-22T10:33:19Z</time>
      </trkpt>
      <trkpt lat="43.53052" lon="2.492">
        <ele>663.018</ele>
        <time>2021-05-22T10:33:21Z</time>
      </trkpt>
      <trkpt lat="43.53052" lon="2.492">
        <ele>662.953</ele>
        <time>2021-05-22T10:33:23Z</time>
      </trkpt>
      <trkpt lat="43.53052" lon="2.492">
        <ele>662.959</ele>
        <time>2021-05-22T10:33:25Z</time>
      </trkpt>
      <trkpt lat="43.53052" lon="2.492">
        <ele>662.973</ele>
        <time>2021-05-22T10:33:27Z</time>
      </trkpt>
      <trkpt lat="43.53052" lon="2.492">
        <ele>663.558</ele>
        <time>2021-05-22T10:33:29Z</time>
      </trkpt>
      <trkpt lat="43.53052" lon="2.492">
        <ele>663.517</ele>
        <time>2021-05-22T10:33:31Z</time>
      </trkpt>
      <trkpt lat="43.53052" lon="2.49201">
        <ele>663.449</ele>
        <time>2021-05-22T10:33:33Z</time>
      </trkpt>
      <trkpt lat="43.53051" lon="2.49204">
        <ele>664.818</ele>
        <time>2021-05-22T10:33:35Z</time>
      </trkpt>
      <trkpt lat="43.53051" lon="2.49207">
        <ele>663.983</ele>
        <time>2021-05-22T10:33:37Z</time>
      </trkpt>
      <trkpt lat="43.53051" lon="2.4921">
        <ele>664.59</ele>
        <time>2021-05-22T10:33:39Z</time>
      </trkpt>
      <trkpt lat="43.5305" lon="2.49213">
        <ele>665.243</ele>
        <time>2021-05-22T10:33:41Z</time>
      </trkpt>
      <trkpt lat="43.5305" lon="2.49216">
        <ele>664.932</ele>
        <time>2021-05-22T10:33:43Z</time>
      </trkpt>
      <trkpt lat="43.53049" lon="2.49219">
        <ele>667.652</ele>
        <time>2021-05-22T10:33:45Z</time>
      </trkpt>
      <trkpt lat="43.53048" lon="2.49222">
        <ele>669.374</ele>
        <time>2021-05-22T10:33:47Z</time>
      </trkpt>
      <trkpt lat="43.53048" lon="2.49225">
        <ele>667.84</ele>
        <time>2021-05-22T10:33:49Z</time>
      </trkpt>
      <trkpt lat="43.53049" lon="2.49228">
        <ele>664.792</ele>
        <time>2021-05-22T10:33:51Z</time>
      </trkpt>
      <trkpt lat="43.53049" lon="2.49231">
        <ele>664.492</ele>
        <time>2021-05-22T10:33:53Z</time>
      </trkpt>
      <trkpt lat="43.53048" lon="2.49234">
        <ele>664.477</ele>
        <time>2021-05-22T10:33:55Z</time>
      </trkpt>
      <trkpt lat="43.53048" lon="2.49237">
        <ele>663.885</ele>
        <time>2021-05-22T10:33:57Z</time>
      </trkpt>
      <trkpt lat="43.53048" lon="2.49239">
        <ele>664</ele>
        <time>2021-05-22T10:33:59Z</time>
      </trkpt>
      <trkpt lat="43.53047" lon="2.49242">
        <ele>664.247</ele>
        <time>2021-05-22T10:34:01Z</time>
      </trkpt>
      <trkpt lat="43.53047" lon="2.49246">
        <ele>664.272</ele>
        <time>2021-05-22T10:34:03Z</time>
      </trkpt>
      <trkpt lat="43.53046" lon="2.4925">
        <ele>665.666</ele>
        <time>2021-05-22T10:34:05Z</time>
      </trkpt>
      <trkpt lat="43.53045" lon="2.49253">
        <ele>665.653</ele>
        <time>2021-05-22T10:34:07Z</time>
      </trkpt>
      <trkpt lat="43.53044" lon="2.49256">
        <ele>665.928</ele>
        <time>2021-05-22T10:34:09Z</time>
      </trkpt>
      <trkpt lat="43.53044" lon="2.49258">
        <ele>667.354</ele>
        <time>2021-05-22T10:34:11Z</time>
      </trkpt>
      <trkpt lat="43.53044" lon="2.49261">
        <ele>666.721</ele>
        <time>2021-05-22T10:34:13Z</time>
      </trkpt>
      <trkpt lat="43.53043" lon="2.49264">
        <ele>668.433</ele>
        <time>2021-05-22T10:34:15Z</time>
      </trkpt>
      <trkpt lat="43.53041" lon="2.49267">
        <ele>667.93</ele>
        <time>2021-05-22T10:34:17Z</time>
      </trkpt>
      <trkpt lat="43.53041" lon="2.49271">
        <ele>668.16</ele>
        <time>2021-05-22T10:34:19Z</time>
      </trkpt>
      <trkpt lat="43.53041" lon="2.49272">
        <ele>666.424</ele>
        <time>2021-05-22T10:34:21Z</time>
      </trkpt>
      <trkpt lat="43.53041" lon="2.49275">
        <ele>666.613</ele>
        <time>2021-05-22T10:34:23Z</time>
      </trkpt>
      <trkpt lat="43.5304" lon="2.49277">
        <ele>667.593</ele>
        <time>2021-05-22T10:34:25Z</time>
      </trkpt>
      <trkpt lat="43.53039" lon="2.4928">
        <ele>669.717</ele>
        <time>2021-05-22T10:34:27Z</time>
      </trkpt>
      <trkpt lat="43.53038" lon="2.49283">
        <ele>671.275</ele>
        <time>2021-05-22T10:34:29Z</time>
      </trkpt>
      <trkpt lat="43.53038" lon="2.49285">
        <ele>668.695</ele>
        <time>2021-05-22T10:34:31Z</time>
      </trkpt>
      <trkpt lat="43.53038" lon="2.49287">
        <ele>667.471</ele>
        <time>2021-05-22T10:34:33Z</time>
      </trkpt>
      <trkpt lat="43.53038" lon="2.49289">
        <ele>667.018</ele>
        <time>2021-05-22T10:34:35Z</time>
      </trkpt>
      <trkpt lat="43.53037" lon="2.49291">
        <ele>665.482</ele>
        <time>2021-05-22T10:34:37Z</time>
      </trkpt>
      <trkpt lat="43.53037" lon="2.49293">
        <ele>666.27</ele>
        <time>2021-05-22T10:34:39Z</time>
      </trkpt>
      <trkpt lat="43.53036" lon="2.49295">
        <ele>666.086</ele>
        <time>2021-05-22T10:34:41Z</time>
      </trkpt>
      <trkpt lat="43.53035" lon="2.49298">
        <ele>664.632</ele>
        <time>2021-05-22T10:34:43Z</time>
      </trkpt>
      <trkpt lat="43.53035" lon="2.49301">
        <ele>663.485</ele>
        <time>2021-05-22T10:34:45Z</time>
      </trkpt>
      <trkpt lat="43.53034" lon="2.49303">
        <ele>662.553</ele>
        <time>2021-05-22T10:34:47Z</time>
      </trkpt>
      <trkpt lat="43.53033" lon="2.49306">
        <ele>663.723</ele>
        <time>2021-05-22T10:34:49Z</time>
      </trkpt>
      <trkpt lat="43.53032" lon="2.49309">
        <ele>663.733</ele>
        <time>2021-05-22T10:34:51Z</time>
      </trkpt>
      <trkpt lat="43.53031" lon="2.49312">
        <ele>664.571</ele>
        <time>2021-05-22T10:34:53Z</time>
      </trkpt>
      <trkpt lat="43.5303" lon="2.49314">
        <ele>665.634</ele>
        <time>2021-05-22T10:34:55Z</time>
      </trkpt>
      <trkpt lat="43.5303" lon="2.49318">
        <ele>666.071</ele>
        <time>2021-05-22T10:34:57Z</time>
      </trkpt>
      <trkpt lat="43.53029" lon="2.4932">
        <ele>665.628</ele>
        <time>2021-05-22T10:34:59Z</time>
      </trkpt>
      <trkpt lat="43.53028" lon="2.49323">
        <ele>664.922</ele>
        <time>2021-05-22T10:35:01Z</time>
      </trkpt>
      <trkpt lat="43.53028" lon="2.49326">
        <ele>664.058</ele>
        <time>2021-05-22T10:35:03Z</time>
      </trkpt>
      <trkpt lat="43.53027" lon="2.49329">
        <ele>662.934</ele>
        <time>2021-05-22T10:35:05Z</time>
      </trkpt>
      <trkpt lat="43.53026" lon="2.49332">
        <ele>662.162</ele>
        <time>2021-05-22T10:35:07Z</time>
      </trkpt>
      <trkpt lat="43.53026" lon="2.49334">
        <ele>660.399</ele>
        <time>2021-05-22T10:35:09Z</time>
      </trkpt>
      <trkpt lat="43.53026" lon="2.49337">
        <ele>660.354</ele>
        <time>2021-05-22T10:35:11Z</time>
      </trkpt>
      <trkpt lat="43.53026" lon="2.4934">
        <ele>659.364</ele>
        <time>2021-05-22T10:35:13Z</time>
      </trkpt>
      <trkpt lat="43.53026" lon="2.49342">
        <ele>659.759</ele>
        <time>2021-05-22T10:35:15Z</time>
      </trkpt>
      <trkpt lat="43.53026" lon="2.49345">
        <ele>658.935</ele>
        <time>2021-05-22T10:35:17Z</time>
      </trkpt>
      <trkpt lat="43.53026" lon="2.49348">
        <ele>660.423</ele>
        <time>2021-05-22T10:35:19Z</time>
      </trkpt>
      <trkpt lat="43.53026" lon="2.49351">
        <ele>660.803</ele>
        <time>2021-05-22T10:35:21Z</time>
      </trkpt>
      <trkpt lat="43.53026" lon="2.49353">
        <ele>661.388</ele>
        <time>2021-05-22T10:35:23Z</time>
      </trkpt>
      <trkpt lat="43.53026" lon="2.49357">
        <ele>661.339</ele>
        <time>2021-05-22T10:35:25Z</time>
      </trkpt>
      <trkpt lat="43.53026" lon="2.49359">
        <ele>661.294</ele>
        <time>2021-05-22T10:35:27Z</time>
      </trkpt>
      <trkpt lat="43.53027" lon="2.49362">
        <ele>660.399</ele>
        <time>2021-05-22T10:35:29Z</time>
      </trkpt>
      <trkpt lat="43.53026" lon="2.49364">
        <ele>661.173</ele>
        <time>2021-05-22T10:35:31Z</time>
      </trkpt>
      <trkpt lat="43.53026" lon="2.49368">
        <ele>661.751</ele>
        <time>2021-05-22T10:35:33Z</time>
      </trkpt>
      <trkpt lat="43.53026" lon="2.49371">
        <ele>662.616</ele>
        <time>2021-05-22T10:35:35Z</time>
      </trkpt>
      <trkpt lat="43.53026" lon="2.49374">
        <ele>662.579</ele>
        <time>2021-05-22T10:35:37Z</time>
      </trkpt>
      <trkpt lat="43.53026" lon="2.49376">
        <ele>662.907</ele>
        <time>2021-05-22T10:35:39Z</time>
      </trkpt>
      <trkpt lat="43.53025" lon="2.4938">
        <ele>663.099</ele>
        <time>2021-05-22T10:35:41Z</time>
      </trkpt>
      <trkpt lat="43.53025" lon="2.49383">
        <ele>661.24</ele>
        <time>2021-05-22T10:35:43Z</time>
      </trkpt>
      <trkpt lat="43.53026" lon="2.49386">
        <ele>661.104</ele>
        <time>2021-05-22T10:35:45Z</time>
      </trkpt>
      <trkpt lat="43.53025" lon="2.49389">
        <ele>661.07</ele>
        <time>2021-05-22T10:35:47Z</time>
      </trkpt>
      <trkpt lat="43.53025" lon="2.49392">
        <ele>661.433</ele>
        <time>2021-05-22T10:35:49Z</time>
      </trkpt>
      <trkpt lat="43.53025" lon="2.49396">
        <ele>661.607</ele>
        <time>2021-05-22T10:35:51Z</time>
      </trkpt>
      <trkpt lat="43.53024" lon="2.49399">
        <ele>661.88</ele>
        <time>2021-05-22T10:35:53Z</time>
      </trkpt>
      <trkpt lat="43.53023" lon="2.49401">
        <ele>662.097</ele>
        <time>2021-05-22T10:35:55Z</time>
      </trkpt>
      <trkpt lat="43.53023" lon="2.49404">
        <ele>661.818</ele>
        <time>2021-05-22T10:35:57Z</time>
      </trkpt>
      <trkpt lat="43.53022" lon="2.49407">
        <ele>660.303</ele>
        <time>2021-05-22T10:35:59Z</time>
      </trkpt>
      <trkpt lat="43.53022" lon="2.4941">
        <ele>659.82</ele>
        <time>2021-05-22T10:36:01Z</time>
      </trkpt>
      <trkpt lat="43.53022" lon="2.49413">
        <ele>658.973</ele>
        <time>2021-05-22T10:36:03Z</time>
      </trkpt>
      <trkpt lat="43.53021" lon="2.49417">
        <ele>660.22</ele>
        <time>2021-05-22T10:36:05Z</time>
      </trkpt>
      <trkpt lat="43.53021" lon="2.4942">
        <ele>660.212</ele>
        <time>2021-05-22T10:36:07Z</time>
      </trkpt>
      <trkpt lat="43.5302" lon="2.49424">
        <ele>663.109</ele>
        <time>2021-05-22T10:36:09Z</time>
      </trkpt>
      <trkpt lat="43.5302" lon="2.49427">
        <ele>663.369</ele>
        <time>2021-05-22T10:36:11Z</time>
      </trkpt>
      <trkpt lat="43.5302" lon="2.4943">
        <ele>663.409</ele>
        <time>2021-05-22T10:36:13Z</time>
      </trkpt>
      <trkpt lat="43.5302" lon="2.49433">
        <ele>663.319</ele>
        <time>2021-05-22T10:36:15Z</time>
      </trkpt>
      <trkpt lat="43.53019" lon="2.49436">
        <ele>662.84</ele>
        <time>2021-05-22T10:36:17Z</time>
      </trkpt>
      <trkpt lat="43.53019" lon="2.49438">
        <ele>662.386</ele>
        <time>2021-05-22T10:36:19Z</time>
      </trkpt>
      <trkpt lat="43.53019" lon="2.4944">
        <ele>663.555</ele>
        <time>2021-05-22T10:36:21Z</time>
      </trkpt>
      <trkpt lat="43.53019" lon="2.49443">
        <ele>663.476</ele>
        <time>2021-05-22T10:36:23Z</time>
      </trkpt>
      <trkpt lat="43.53019" lon="2.49446">
        <ele>663.301</ele>
        <time>2021-05-22T10:36:25Z</time>
      </trkpt>
      <trkpt lat="43.53019" lon="2.49449">
        <ele>663.094</ele>
        <time>2021-05-22T10:36:27Z</time>
      </trkpt>
      <trkpt lat="43.53019" lon="2.49452">
        <ele>661.862</ele>
        <time>2021-05-22T10:36:29Z</time>
      </trkpt>
      <trkpt lat="43.53019" lon="2.49456">
        <ele>662.682</ele>
        <time>2021-05-22T10:36:31Z</time>
      </trkpt>
      <trkpt lat="43.53018" lon="2.49459">
        <ele>661.458</ele>
        <time>2021-05-22T10:36:33Z</time>
      </trkpt>
      <trkpt lat="43.53018" lon="2.49462">
        <ele>660.982</ele>
        <time>2021-05-22T10:36:35Z</time>
      </trkpt>
      <trkpt lat="43.53017" lon="2.49465">
        <ele>661.655</ele>
        <time>2021-05-22T10:36:37Z</time>
      </trkpt>
      <trkpt lat="43.53016" lon="2.49469">
        <ele>662.511</ele>
        <time>2021-05-22T10:36:39Z</time>
      </trkpt>
      <trkpt lat="43.53015" lon="2.49472">
        <ele>662.914</ele>
        <time>2021-05-22T10:36:41Z</time>
      </trkpt>
      <trkpt lat="43.53013" lon="2.49475">
        <ele>664.956</ele>
        <time>2021-05-22T10:36:43Z</time>
      </trkpt>
      <trkpt lat="43.53012" lon="2.49478">
        <ele>665.657</ele>
        <time>2021-05-22T10:36:45Z</time>
      </trkpt>
      <trkpt lat="43.53012" lon="2.49482">
        <ele>666.174</ele>
        <time>2021-05-22T10:36:47Z</time>
      </trkpt>
      <trkpt lat="43.53011" lon="2.49485">
        <ele>667.366</ele>
        <time>2021-05-22T10:36:49Z</time>
      </trkpt>
      <trkpt lat="43.5301" lon="2.49489">
        <ele>668.57</ele>
        <time>2021-05-22T10:36:51Z</time>
      </trkpt>
      <trkpt lat="43.53009" lon="2.49493">
        <ele>671.22</ele>
        <time>2021-05-22T10:36:53Z</time>
      </trkpt>
      <trkpt lat="43.53007" lon="2.49496">
        <ele>670.683</ele>
        <time>2021-05-22T10:36:55Z</time>
      </trkpt>
      <trkpt lat="43.53005" lon="2.49498">
        <ele>672.412</ele>
        <time>2021-05-22T10:36:57Z</time>
      </trkpt>
      <trkpt lat="43.53002" lon="2.49497">
        <ele>673.553</ele>
        <time>2021-05-22T10:36:59Z</time>
      </trkpt>
      <trkpt lat="43.53" lon="2.49496">
        <ele>674.227</ele>
        <time>2021-05-22T10:37:01Z</time>
      </trkpt>
      <trkpt lat="43.52997" lon="2.49495">
        <ele>676.841</ele>
        <time>2021-05-22T10:37:03Z</time>
      </trkpt>
      <trkpt lat="43.52995" lon="2.49495">
        <ele>678.294</ele>
        <time>2021-05-22T10:37:05Z</time>
      </trkpt>
      <trkpt lat="43.52993" lon="2.49495">
        <ele>679.051</ele>
        <time>2021-05-22T10:37:07Z</time>
      </trkpt>
      <trkpt lat="43.52991" lon="2.49495">
        <ele>680.427</ele>
        <time>2021-05-22T10:37:09Z</time>
      </trkpt>
      <trkpt lat="43.5299" lon="2.49493">
        <ele>681.514</ele>
        <time>2021-05-22T10:37:11Z</time>
      </trkpt>
      <trkpt lat="43.52988" lon="2.49492">
        <ele>680.891</ele>
        <time>2021-05-22T10:37:13Z</time>
      </trkpt>
      <trkpt lat="43.52986" lon="2.49492">
        <ele>681.68</ele>
        <time>2021-05-22T10:37:15Z</time>
      </trkpt>
      <trkpt lat="43.52984" lon="2.49492">
        <ele>682.172</ele>
        <time>2021-05-22T10:37:17Z</time>
      </trkpt>
      <trkpt lat="43.52982" lon="2.49492">
        <ele>682.197</ele>
        <time>2021-05-22T10:37:19Z</time>
      </trkpt>
      <trkpt lat="43.5298" lon="2.49491">
        <ele>680.828</ele>
        <time>2021-05-22T10:37:21Z</time>
      </trkpt>
      <trkpt lat="43.52978" lon="2.49492">
        <ele>681.095</ele>
        <time>2021-05-22T10:37:23Z</time>
      </trkpt>
      <trkpt lat="43.52976" lon="2.49492">
        <ele>679.385</ele>
        <time>2021-05-22T10:37:25Z</time>
      </trkpt>
      <trkpt lat="43.52974" lon="2.49494">
        <ele>677.482</ele>
        <time>2021-05-22T10:37:27Z</time>
      </trkpt>
      <trkpt lat="43.52972" lon="2.49495">
        <ele>677.091</ele>
        <time>2021-05-22T10:37:29Z</time>
      </trkpt>
      <trkpt lat="43.52971" lon="2.49497">
        <ele>676.464</ele>
        <time>2021-05-22T10:37:31Z</time>
      </trkpt>
      <trkpt lat="43.5297" lon="2.49499">
        <ele>677.057</ele>
        <time>2021-05-22T10:37:33Z</time>
      </trkpt>
      <trkpt lat="43.5297" lon="2.49502">
        <ele>676.983</ele>
        <time>2021-05-22T10:37:35Z</time>
      </trkpt>
      <trkpt lat="43.5297" lon="2.49503">
        <ele>677.343</ele>
        <time>2021-05-22T10:37:37Z</time>
      </trkpt>
      <trkpt lat="43.52971" lon="2.49505">
        <ele>677.601</ele>
        <time>2021-05-22T10:37:39Z</time>
      </trkpt>
      <trkpt lat="43.52972" lon="2.49506">
        <ele>677.486</ele>
        <time>2021-05-22T10:37:41Z</time>
      </trkpt>
      <trkpt lat="43.52973" lon="2.49508">
        <ele>677.579</ele>
        <time>2021-05-22T10:37:43Z</time>
      </trkpt>
      <trkpt lat="43.52973" lon="2.4951">
        <ele>677.144</ele>
        <time>2021-05-22T10:37:45Z</time>
      </trkpt>
      <trkpt lat="43.52974" lon="2.49512">
        <ele>678.432</ele>
        <time>2021-05-22T10:37:47Z</time>
      </trkpt>
      <trkpt lat="43.52975" lon="2.49514">
        <ele>679.433</ele>
        <time>2021-05-22T10:37:49Z</time>
      </trkpt>
      <trkpt lat="43.52976" lon="2.49516">
        <ele>677.829</ele>
        <time>2021-05-22T10:37:51Z</time>
      </trkpt>
      <trkpt lat="43.52976" lon="2.49519">
        <ele>677.793</ele>
        <time>2021-05-22T10:37:53Z</time>
      </trkpt>
      <trkpt lat="43.52977" lon="2.49522">
        <ele>676.286</ele>
        <time>2021-05-22T10:37:55Z</time>
      </trkpt>
      <trkpt lat="43.52977" lon="2.49525">
        <ele>674.98</ele>
        <time>2021-05-22T10:37:57Z</time>
      </trkpt>
      <trkpt lat="43.52978" lon="2.49528">
        <ele>675.045</ele>
        <time>2021-05-22T10:37:59Z</time>
      </trkpt>
      <trkpt lat="43.52977" lon="2.49531">
        <ele>674.832</ele>
        <time>2021-05-22T10:38:01Z</time>
      </trkpt>
      <trkpt lat="43.52977" lon="2.49534">
        <ele>676.084</ele>
        <time>2021-05-22T10:38:03Z</time>
      </trkpt>
      <trkpt lat="43.52976" lon="2.49536">
        <ele>676.293</ele>
        <time>2021-05-22T10:38:05Z</time>
      </trkpt>
      <trkpt lat="43.52976" lon="2.49539">
        <ele>675.707</ele>
        <time>2021-05-22T10:38:07Z</time>
      </trkpt>
      <trkpt lat="43.52976" lon="2.49541">
        <ele>676.582</ele>
        <time>2021-05-22T10:38:09Z</time>
      </trkpt>
      <trkpt lat="43.52975" lon="2.49544">
        <ele>677.274</ele>
        <time>2021-05-22T10:38:11Z</time>
      </trkpt>
      <trkpt lat="43.52974" lon="2.49548">
        <ele>679.018</ele>
        <time>2021-05-22T10:38:13Z</time>
      </trkpt>
      <trkpt lat="43.52973" lon="2.49552">
        <ele>680.698</ele>
        <time>2021-05-22T10:38:15Z</time>
      </trkpt>
      <trkpt lat="43.52973" lon="2.49555">
        <ele>683.492</ele>
        <time>2021-05-22T10:38:17Z</time>
      </trkpt>
      <trkpt lat="43.52973" lon="2.49555">
        <ele>682.805</ele>
        <time>2021-05-22T10:38:19Z</time>
      </trkpt>
      <trkpt lat="43.5297" lon="2.49558">
        <ele>684.571</ele>
        <time>2021-05-22T10:38:21Z</time>
      </trkpt>
      <trkpt lat="43.52969" lon="2.49561">
        <ele>685.251</ele>
        <time>2021-05-22T10:38:23Z</time>
      </trkpt>
      <trkpt lat="43.5297" lon="2.49561">
        <ele>685.313</ele>
        <time>2021-05-22T10:38:25Z</time>
      </trkpt>
      <trkpt lat="43.5297" lon="2.49561">
        <ele>685.321</ele>
        <time>2021-05-22T10:38:27Z</time>
      </trkpt>
      <trkpt lat="43.5297" lon="2.49561">
        <ele>685.33</ele>
        <time>2021-05-22T10:38:29Z</time>
      </trkpt>
      <trkpt lat="43.5297" lon="2.49561">
        <ele>685.343</ele>
        <time>2021-05-22T10:38:31Z</time>
      </trkpt>
      <trkpt lat="43.5297" lon="2.49561">
        <ele>684.958</ele>
        <time>2021-05-22T10:38:33Z</time>
      </trkpt>
      <trkpt lat="43.52968" lon="2.49562">
        <ele>685.317</ele>
        <time>2021-05-22T10:38:35Z</time>
      </trkpt>
      <trkpt lat="43.52968" lon="2.49562">
        <ele>685.36</ele>
        <time>2021-05-22T10:38:37Z</time>
      </trkpt>
      <trkpt lat="43.52968" lon="2.49562">
        <ele>685.548</ele>
        <time>2021-05-22T10:38:39Z</time>
      </trkpt>
      <trkpt lat="43.5297" lon="2.49565">
        <ele>686.067</ele>
        <time>2021-05-22T10:38:41Z</time>
      </trkpt>
      <trkpt lat="43.5297" lon="2.49565">
        <ele>686.084</ele>
        <time>2021-05-22T10:38:43Z</time>
      </trkpt>
      <trkpt lat="43.52968" lon="2.49566">
        <ele>686.169</ele>
        <time>2021-05-22T10:38:45Z</time>
      </trkpt>
      <trkpt lat="43.52968" lon="2.49565">
        <ele>685.726</ele>
        <time>2021-05-22T10:38:47Z</time>
      </trkpt>
      <trkpt lat="43.52968" lon="2.49565">
        <ele>685.746</ele>
        <time>2021-05-22T10:38:49Z</time>
      </trkpt>
      <trkpt lat="43.52967" lon="2.49564">
        <ele>685.895</ele>
        <time>2021-05-22T10:38:51Z</time>
      </trkpt>
      <trkpt lat="43.52967" lon="2.49564">
        <ele>686.477</ele>
        <time>2021-05-22T10:38:53Z</time>
      </trkpt>
      <trkpt lat="43.52967" lon="2.49564">
        <ele>686.519</ele>
        <time>2021-05-22T10:38:55Z</time>
      </trkpt>
      <trkpt lat="43.52967" lon="2.49564">
        <ele>686.53</ele>
        <time>2021-05-22T10:38:57Z</time>
      </trkpt>
      <trkpt lat="43.52967" lon="2.49564">
        <ele>686.287</ele>
        <time>2021-05-22T10:38:59Z</time>
      </trkpt>
      <trkpt lat="43.52966" lon="2.49563">
        <ele>686.577</ele>
        <time>2021-05-22T10:39:01Z</time>
      </trkpt>
      <trkpt lat="43.52965" lon="2.49563">
        <ele>687.03</ele>
        <time>2021-05-22T10:39:03Z</time>
      </trkpt>
      <trkpt lat="43.52965" lon="2.49563">
        <ele>687.211</ele>
        <time>2021-05-22T10:39:05Z</time>
      </trkpt>
      <trkpt lat="43.52966" lon="2.49563">
        <ele>687.687</ele>
        <time>2021-05-22T10:39:07Z</time>
      </trkpt>
      <trkpt lat="43.52967" lon="2.49563">
        <ele>687.673</ele>
        <time>2021-05-22T10:39:09Z</time>
      </trkpt>
      <trkpt lat="43.52967" lon="2.49563">
        <ele>687.679</ele>
        <time>2021-05-22T10:39:11Z</time>
      </trkpt>
      <trkpt lat="43.52966" lon="2.49563">
        <ele>688.215</ele>
        <time>2021-05-22T10:39:13Z</time>
      </trkpt>
      <trkpt lat="43.52966" lon="2.49563">
        <ele>688.374</ele>
        <time>2021-05-22T10:39:15Z</time>
      </trkpt>
      <trkpt lat="43.52966" lon="2.49563">
        <ele>688.737</ele>
        <time>2021-05-22T10:39:17Z</time>
      </trkpt>
      <trkpt lat="43.52966" lon="2.49563">
        <ele>688.795</ele>
        <time>2021-05-22T10:39:19Z</time>
      </trkpt>
      <trkpt lat="43.52966" lon="2.49563">
        <ele>688.794</ele>
        <time>2021-05-22T10:39:21Z</time>
      </trkpt>
      <trkpt lat="43.52966" lon="2.49563">
        <ele>688.794</ele>
        <time>2021-05-22T10:39:23Z</time>
      </trkpt>
      <trkpt lat="43.52966" lon="2.49563">
        <ele>689.048</ele>
        <time>2021-05-22T10:39:25Z</time>
      </trkpt>
      <trkpt lat="43.52967" lon="2.49562">
        <ele>689.495</ele>
        <time>2021-05-22T10:39:27Z</time>
      </trkpt>
      <trkpt lat="43.52967" lon="2.49562">
        <ele>689.413</ele>
        <time>2021-05-22T10:39:29Z</time>
      </trkpt>
      <trkpt lat="43.52967" lon="2.49562">
        <ele>689.893</ele>
        <time>2021-05-22T10:39:31Z</time>
      </trkpt>
      <trkpt lat="43.52967" lon="2.49562">
        <ele>689.898</ele>
        <time>2021-05-22T10:39:33Z</time>
      </trkpt>
      <trkpt lat="43.52967" lon="2.49562">
        <ele>689.9</ele>
        <time>2021-05-22T10:39:35Z</time>
      </trkpt>
      <trkpt lat="43.52967" lon="2.49562">
        <ele>689.901</ele>
        <time>2021-05-22T10:39:37Z</time>
      </trkpt>
      <trkpt lat="43.52967" lon="2.49562">
        <ele>689.906</ele>
        <time>2021-05-22T10:39:39Z</time>
      </trkpt>
      <trkpt lat="43.52967" lon="2.49562">
        <ele>689.908</ele>
        <time>2021-05-22T10:39:41Z</time>
      </trkpt>
      <trkpt lat="43.52967" lon="2.49562">
        <ele>689.912</ele>
        <time>2021-05-22T10:39:43Z</time>
      </trkpt>
      <trkpt lat="43.52967" lon="2.49562">
        <ele>689.914</ele>
        <time>2021-05-22T10:39:45Z</time>
      </trkpt>
      <trkpt lat="43.52967" lon="2.49562">
        <ele>689.912</ele>
        <time>2021-05-22T10:39:47Z</time>
      </trkpt>
      <trkpt lat="43.52967" lon="2.49562">
        <ele>689.916</ele>
        <time>2021-05-22T10:39:49Z</time>
      </trkpt>
      <trkpt lat="43.52967" lon="2.49562">
        <ele>689.914</ele>
        <time>2021-05-22T10:39:51Z</time>
      </trkpt>
      <trkpt lat="43.52967" lon="2.49562">
        <ele>689.916</ele>
        <time>2021-05-22T10:39:53Z</time>
      </trkpt>
      <trkpt lat="43.52967" lon="2.49562">
        <ele>689.922</ele>
        <time>2021-05-22T10:39:55Z</time>
      </trkpt>
      <trkpt lat="43.52967" lon="2.49562">
        <ele>689.931</ele>
        <time>2021-05-22T10:39:57Z</time>
      </trkpt>
      <trkpt lat="43.52967" lon="2.49562">
        <ele>689.934</ele>
        <time>2021-05-22T10:39:59Z</time>
      </trkpt>
      <trkpt lat="43.52967" lon="2.49562">
        <ele>689.943</ele>
        <time>2021-05-22T10:40:01Z</time>
      </trkpt>
      <trkpt lat="43.52967" lon="2.49562">
        <ele>689.957</ele>
        <time>2021-05-22T10:40:03Z</time>
      </trkpt>
      <trkpt lat="43.52967" lon="2.49562">
        <ele>689.958</ele>
        <time>2021-05-22T10:40:05Z</time>
      </trkpt>
      <trkpt lat="43.52967" lon="2.49562">
        <ele>689.96</ele>
        <time>2021-05-22T10:40:07Z</time>
      </trkpt>
      <trkpt lat="43.52967" lon="2.49562">
        <ele>689.962</ele>
        <time>2021-05-22T10:40:09Z</time>
      </trkpt>
      <trkpt lat="43.52967" lon="2.49561">
        <ele>690.22</ele>
        <time>2021-05-22T10:40:11Z</time>
      </trkpt>
      <trkpt lat="43.52965" lon="2.4956">
        <ele>689.696</ele>
        <time>2021-05-22T10:40:13Z</time>
      </trkpt>
      <trkpt lat="43.52965" lon="2.49562">
        <ele>689.043</ele>
        <time>2021-05-22T10:40:15Z</time>
      </trkpt>
      <trkpt lat="43.52964" lon="2.49563">
        <ele>690.108</ele>
        <time>2021-05-22T10:40:17Z</time>
      </trkpt>
      <trkpt lat="43.52964" lon="2.49562">
        <ele>690.098</ele>
        <time>2021-05-22T10:40:19Z</time>
      </trkpt>
      <trkpt lat="43.52962" lon="2.49562">
        <ele>690.409</ele>
        <time>2021-05-22T10:40:21Z</time>
      </trkpt>
      <trkpt lat="43.5296" lon="2.49563">
        <ele>690.553</ele>
        <time>2021-05-22T10:40:23Z</time>
      </trkpt>
      <trkpt lat="43.52959" lon="2.49563">
        <ele>689.65</ele>
        <time>2021-05-22T10:40:25Z</time>
      </trkpt>
      <trkpt lat="43.52958" lon="2.49564">
        <ele>688.131</ele>
        <time>2021-05-22T10:40:27Z</time>
      </trkpt>
      <trkpt lat="43.52956" lon="2.49565">
        <ele>687.369</ele>
        <time>2021-05-22T10:40:29Z</time>
      </trkpt>
      <trkpt lat="43.52954" lon="2.49566">
        <ele>687.717</ele>
        <time>2021-05-22T10:40:31Z</time>
      </trkpt>
      <trkpt lat="43.52951" lon="2.49567">
        <ele>686.744</ele>
        <time>2021-05-22T10:40:33Z</time>
      </trkpt>
      <trkpt lat="43.52949" lon="2.49569">
        <ele>686.251</ele>
        <time>2021-05-22T10:40:35Z</time>
      </trkpt>
      <trkpt lat="43.52947" lon="2.49571">
        <ele>685.335</ele>
        <time>2021-05-22T10:40:37Z</time>
      </trkpt>
      <trkpt lat="43.52945" lon="2.49572">
        <ele>684.579</ele>
        <time>2021-05-22T10:40:39Z</time>
      </trkpt>
      <trkpt lat="43.52943" lon="2.49574">
        <ele>684.304</ele>
        <time>2021-05-22T10:40:41Z</time>
      </trkpt>
      <trkpt lat="43.52941" lon="2.49576">
        <ele>683.923</ele>
        <time>2021-05-22T10:40:43Z</time>
      </trkpt>
      <trkpt lat="43.52939" lon="2.49578">
        <ele>683.885</ele>
        <time>2021-05-22T10:40:45Z</time>
      </trkpt>
      <trkpt lat="43.52937" lon="2.4958">
        <ele>683.686</ele>
        <time>2021-05-22T10:40:47Z</time>
      </trkpt>
      <trkpt lat="43.52935" lon="2.49582">
        <ele>683.761</ele>
        <time>2021-05-22T10:40:49Z</time>
      </trkpt>
      <trkpt lat="43.52932" lon="2.49583">
        <ele>683.168</ele>
        <time>2021-05-22T10:40:51Z</time>
      </trkpt>
      <trkpt lat="43.5293" lon="2.49585">
        <ele>683.325</ele>
        <time>2021-05-22T10:40:53Z</time>
      </trkpt>
      <trkpt lat="43.52928" lon="2.49586">
        <ele>683.017</ele>
        <time>2021-05-22T10:40:55Z</time>
      </trkpt>
      <trkpt lat="43.52926" lon="2.49587">
        <ele>682.793</ele>
        <time>2021-05-22T10:40:57Z</time>
      </trkpt>
      <trkpt lat="43.52924" lon="2.49589">
        <ele>683.099</ele>
        <time>2021-05-22T10:40:59Z</time>
      </trkpt>
      <trkpt lat="43.52922" lon="2.4959">
        <ele>683.299</ele>
        <time>2021-05-22T10:41:01Z</time>
      </trkpt>
      <trkpt lat="43.5292" lon="2.49593">
        <ele>683.708</ele>
        <time>2021-05-22T10:41:03Z</time>
      </trkpt>
      <trkpt lat="43.52918" lon="2.49594">
        <ele>682.865</ele>
        <time>2021-05-22T10:41:05Z</time>
      </trkpt>
      <trkpt lat="43.52916" lon="2.49595">
        <ele>682.273</ele>
        <time>2021-05-22T10:41:07Z</time>
      </trkpt>
      <trkpt lat="43.52914" lon="2.49595">
        <ele>680.974</ele>
        <time>2021-05-22T10:41:09Z</time>
      </trkpt>
      <trkpt lat="43.52911" lon="2.49595">
        <ele>681.701</ele>
        <time>2021-05-22T10:41:11Z</time>
      </trkpt>
      <trkpt lat="43.52909" lon="2.49597">
        <ele>680.818</ele>
        <time>2021-05-22T10:41:13Z</time>
      </trkpt>
      <trkpt lat="43.52907" lon="2.49598">
        <ele>679.824</ele>
        <time>2021-05-22T10:41:15Z</time>
      </trkpt>
      <trkpt lat="43.52905" lon="2.49599">
        <ele>679.206</ele>
        <time>2021-05-22T10:41:17Z</time>
      </trkpt>
      <trkpt lat="43.52903" lon="2.496">
        <ele>678.194</ele>
        <time>2021-05-22T10:41:19Z</time>
      </trkpt>
      <trkpt lat="43.52901" lon="2.49601">
        <ele>677.062</ele>
        <time>2021-05-22T10:41:21Z</time>
      </trkpt>
      <trkpt lat="43.52899" lon="2.49602">
        <ele>676.183</ele>
        <time>2021-05-22T10:41:23Z</time>
      </trkpt>
      <trkpt lat="43.52898" lon="2.49604">
        <ele>677.723</ele>
        <time>2021-05-22T10:41:25Z</time>
      </trkpt>
      <trkpt lat="43.52896" lon="2.49606">
        <ele>680.224</ele>
        <time>2021-05-22T10:41:27Z</time>
      </trkpt>
      <trkpt lat="43.52893" lon="2.49607">
        <ele>680.87</ele>
        <time>2021-05-22T10:41:29Z</time>
      </trkpt>
      <trkpt lat="43.5289" lon="2.49608">
        <ele>680.769</ele>
        <time>2021-05-22T10:41:31Z</time>
      </trkpt>
      <trkpt lat="43.52888" lon="2.49608">
        <ele>681.142</ele>
        <time>2021-05-22T10:41:33Z</time>
      </trkpt>
      <trkpt lat="43.52886" lon="2.4961">
        <ele>680.871</ele>
        <time>2021-05-22T10:41:35Z</time>
      </trkpt>
      <trkpt lat="43.52883" lon="2.4961">
        <ele>680.773</ele>
        <time>2021-05-22T10:41:37Z</time>
      </trkpt>
      <trkpt lat="43.52882" lon="2.49612">
        <ele>680.55</ele>
        <time>2021-05-22T10:41:39Z</time>
      </trkpt>
      <trkpt lat="43.5288" lon="2.49613">
        <ele>680.798</ele>
        <time>2021-05-22T10:41:41Z</time>
      </trkpt>
      <trkpt lat="43.52878" lon="2.49614">
        <ele>680.176</ele>
        <time>2021-05-22T10:41:43Z</time>
      </trkpt>
      <trkpt lat="43.52876" lon="2.49615">
        <ele>679.972</ele>
        <time>2021-05-22T10:41:45Z</time>
      </trkpt>
      <trkpt lat="43.52874" lon="2.49616">
        <ele>679.617</ele>
        <time>2021-05-22T10:41:47Z</time>
      </trkpt>
      <trkpt lat="43.52873" lon="2.49618">
        <ele>679.671</ele>
        <time>2021-05-22T10:41:49Z</time>
      </trkpt>
      <trkpt lat="43.52871" lon="2.49618">
        <ele>679.856</ele>
        <time>2021-05-22T10:41:51Z</time>
      </trkpt>
      <trkpt lat="43.52869" lon="2.4962">
        <ele>679.913</ele>
        <time>2021-05-22T10:41:53Z</time>
      </trkpt>
      <trkpt lat="43.52868" lon="2.49621">
        <ele>679.377</ele>
        <time>2021-05-22T10:41:55Z</time>
      </trkpt>
      <trkpt lat="43.52866" lon="2.49622">
        <ele>678.585</ele>
        <time>2021-05-22T10:41:57Z</time>
      </trkpt>
      <trkpt lat="43.52863" lon="2.49623">
        <ele>678.66</ele>
        <time>2021-05-22T10:41:59Z</time>
      </trkpt>
      <trkpt lat="43.52861" lon="2.49624">
        <ele>677.819</ele>
        <time>2021-05-22T10:42:01Z</time>
      </trkpt>
      <trkpt lat="43.52859" lon="2.49626">
        <ele>677.33</ele>
        <time>2021-05-22T10:42:03Z</time>
      </trkpt>
      <trkpt lat="43.52857" lon="2.49627">
        <ele>676.532</ele>
        <time>2021-05-22T10:42:05Z</time>
      </trkpt>
      <trkpt lat="43.52855" lon="2.49628">
        <ele>676.47</ele>
        <time>2021-05-22T10:42:07Z</time>
      </trkpt>
      <trkpt lat="43.52852" lon="2.49631">
        <ele>677.819</ele>
        <time>2021-05-22T10:42:09Z</time>
      </trkpt>
      <trkpt lat="43.5285" lon="2.49633">
        <ele>678.577</ele>
        <time>2021-05-22T10:42:11Z</time>
      </trkpt>
      <trkpt lat="43.52847" lon="2.49634">
        <ele>678.48</ele>
        <time>2021-05-22T10:42:13Z</time>
      </trkpt>
      <trkpt lat="43.52845" lon="2.49635">
        <ele>677.8</ele>
        <time>2021-05-22T10:42:15Z</time>
      </trkpt>
      <trkpt lat="43.52843" lon="2.49637">
        <ele>677.239</ele>
        <time>2021-05-22T10:42:17Z</time>
      </trkpt>
      <trkpt lat="43.5284" lon="2.49637">
        <ele>677.399</ele>
        <time>2021-05-22T10:42:19Z</time>
      </trkpt>
      <trkpt lat="43.52837" lon="2.49638">
        <ele>677.107</ele>
        <time>2021-05-22T10:42:21Z</time>
      </trkpt>
      <trkpt lat="43.52835" lon="2.49638">
        <ele>675.797</ele>
        <time>2021-05-22T10:42:23Z</time>
      </trkpt>
      <trkpt lat="43.52833" lon="2.49639">
        <ele>674.968</ele>
        <time>2021-05-22T10:42:25Z</time>
      </trkpt>
      <trkpt lat="43.52831" lon="2.4964">
        <ele>674.185</ele>
        <time>2021-05-22T10:42:27Z</time>
      </trkpt>
      <trkpt lat="43.52829" lon="2.49641">
        <ele>673.907</ele>
        <time>2021-05-22T10:42:29Z</time>
      </trkpt>
      <trkpt lat="43.52827" lon="2.49641">
        <ele>673.17</ele>
        <time>2021-05-22T10:42:31Z</time>
      </trkpt>
      <trkpt lat="43.52825" lon="2.49641">
        <ele>672.645</ele>
        <time>2021-05-22T10:42:33Z</time>
      </trkpt>
      <trkpt lat="43.52823" lon="2.49642">
        <ele>672.043</ele>
        <time>2021-05-22T10:42:35Z</time>
      </trkpt>
      <trkpt lat="43.52821" lon="2.49642">
        <ele>671.655</ele>
        <time>2021-05-22T10:42:37Z</time>
      </trkpt>
      <trkpt lat="43.52819" lon="2.49643">
        <ele>671.132</ele>
        <time>2021-05-22T10:42:39Z</time>
      </trkpt>
      <trkpt lat="43.52817" lon="2.49643">
        <ele>670.878</ele>
        <time>2021-05-22T10:42:41Z</time>
      </trkpt>
      <trkpt lat="43.52815" lon="2.49644">
        <ele>669.784</ele>
        <time>2021-05-22T10:42:43Z</time>
      </trkpt>
      <trkpt lat="43.52813" lon="2.49644">
        <ele>668.68</ele>
        <time>2021-05-22T10:42:45Z</time>
      </trkpt>
      <trkpt lat="43.52811" lon="2.49644">
        <ele>669.16</ele>
        <time>2021-05-22T10:42:47Z</time>
      </trkpt>
      <trkpt lat="43.52808" lon="2.49645">
        <ele>668.865</ele>
        <time>2021-05-22T10:42:49Z</time>
      </trkpt>
      <trkpt lat="43.52806" lon="2.49645">
        <ele>669.663</ele>
        <time>2021-05-22T10:42:51Z</time>
      </trkpt>
      <trkpt lat="43.52803" lon="2.49646">
        <ele>669.826</ele>
        <time>2021-05-22T10:42:53Z</time>
      </trkpt>
      <trkpt lat="43.52801" lon="2.49647">
        <ele>670.095</ele>
        <time>2021-05-22T10:42:55Z</time>
      </trkpt>
      <trkpt lat="43.52798" lon="2.49648">
        <ele>671.952</ele>
        <time>2021-05-22T10:42:57Z</time>
      </trkpt>
      <trkpt lat="43.52795" lon="2.49649">
        <ele>672.806</ele>
        <time>2021-05-22T10:42:59Z</time>
      </trkpt>
      <trkpt lat="43.52793" lon="2.4965">
        <ele>673.559</ele>
        <time>2021-05-22T10:43:01Z</time>
      </trkpt>
      <trkpt lat="43.52791" lon="2.4965">
        <ele>673.748</ele>
        <time>2021-05-22T10:43:03Z</time>
      </trkpt>
      <trkpt lat="43.52788" lon="2.49652">
        <ele>674.148</ele>
        <time>2021-05-22T10:43:05Z</time>
      </trkpt>
      <trkpt lat="43.52786" lon="2.49651">
        <ele>673.216</ele>
        <time>2021-05-22T10:43:07Z</time>
      </trkpt>
      <trkpt lat="43.52783" lon="2.49652">
        <ele>673.031</ele>
        <time>2021-05-22T10:43:09Z</time>
      </trkpt>
      <trkpt lat="43.5278" lon="2.49651">
        <ele>670.892</ele>
        <time>2021-05-22T10:43:11Z</time>
      </trkpt>
      <trkpt lat="43.52778" lon="2.49653">
        <ele>669.661</ele>
        <time>2021-05-22T10:43:13Z</time>
      </trkpt>
      <trkpt lat="43.52775" lon="2.49653">
        <ele>670</ele>
        <time>2021-05-22T10:43:15Z</time>
      </trkpt>
      <trkpt lat="43.52773" lon="2.49653">
        <ele>669.988</ele>
        <time>2021-05-22T10:43:17Z</time>
      </trkpt>
      <trkpt lat="43.52771" lon="2.49653">
        <ele>670.962</ele>
        <time>2021-05-22T10:43:19Z</time>
      </trkpt>
      <trkpt lat="43.52768" lon="2.49654">
        <ele>671.017</ele>
        <time>2021-05-22T10:43:21Z</time>
      </trkpt>
      <trkpt lat="43.52766" lon="2.49655">
        <ele>671.781</ele>
        <time>2021-05-22T10:43:23Z</time>
      </trkpt>
      <trkpt lat="43.52764" lon="2.49656">
        <ele>673.778</ele>
        <time>2021-05-22T10:43:25Z</time>
      </trkpt>
      <trkpt lat="43.52762" lon="2.49656">
        <ele>674.702</ele>
        <time>2021-05-22T10:43:27Z</time>
      </trkpt>
      <trkpt lat="43.5276" lon="2.49656">
        <ele>672.487</ele>
        <time>2021-05-22T10:43:29Z</time>
      </trkpt>
      <trkpt lat="43.52758" lon="2.49656">
        <ele>671.233</ele>
        <time>2021-05-22T10:43:31Z</time>
      </trkpt>
      <trkpt lat="43.52756" lon="2.49657">
        <ele>672.657</ele>
        <time>2021-05-22T10:43:33Z</time>
      </trkpt>
      <trkpt lat="43.52753" lon="2.49658">
        <ele>672.873</ele>
        <time>2021-05-22T10:43:35Z</time>
      </trkpt>
      <trkpt lat="43.52751" lon="2.49659">
        <ele>672.475</ele>
        <time>2021-05-22T10:43:37Z</time>
      </trkpt>
      <trkpt lat="43.52749" lon="2.49661">
        <ele>671.097</ele>
        <time>2021-05-22T10:43:39Z</time>
      </trkpt>
      <trkpt lat="43.52747" lon="2.49662">
        <ele>671.718</ele>
        <time>2021-05-22T10:43:41Z</time>
      </trkpt>
      <trkpt lat="43.52745" lon="2.49664">
        <ele>672.302</ele>
        <time>2021-05-22T10:43:43Z</time>
      </trkpt>
      <trkpt lat="43.52742" lon="2.49665">
        <ele>673.553</ele>
        <time>2021-05-22T10:43:45Z</time>
      </trkpt>
      <trkpt lat="43.5274" lon="2.49666">
        <ele>673.501</ele>
        <time>2021-05-22T10:43:47Z</time>
      </trkpt>
      <trkpt lat="43.52739" lon="2.49667">
        <ele>672.949</ele>
        <time>2021-05-22T10:43:49Z</time>
      </trkpt>
      <trkpt lat="43.52737" lon="2.49669">
        <ele>671.978</ele>
        <time>2021-05-22T10:43:51Z</time>
      </trkpt>
      <trkpt lat="43.52735" lon="2.4967">
        <ele>671.833</ele>
        <time>2021-05-22T10:43:53Z</time>
      </trkpt>
      <trkpt lat="43.52733" lon="2.49671">
        <ele>671.297</ele>
        <time>2021-05-22T10:43:55Z</time>
      </trkpt>
      <trkpt lat="43.52731" lon="2.49673">
        <ele>671.194</ele>
        <time>2021-05-22T10:43:57Z</time>
      </trkpt>
      <trkpt lat="43.5273" lon="2.49675">
        <ele>670.61</ele>
        <time>2021-05-22T10:43:59Z</time>
      </trkpt>
      <trkpt lat="43.52728" lon="2.49676">
        <ele>671.137</ele>
        <time>2021-05-22T10:44:01Z</time>
      </trkpt>
      <trkpt lat="43.52726" lon="2.49678">
        <ele>670.903</ele>
        <time>2021-05-22T10:44:03Z</time>
      </trkpt>
      <trkpt lat="43.52725" lon="2.49679">
        <ele>671.14</ele>
        <time>2021-05-22T10:44:05Z</time>
      </trkpt>
      <trkpt lat="43.52724" lon="2.49681">
        <ele>670.742</ele>
        <time>2021-05-22T10:44:07Z</time>
      </trkpt>
      <trkpt lat="43.52722" lon="2.49683">
        <ele>670.326</ele>
        <time>2021-05-22T10:44:09Z</time>
      </trkpt>
      <trkpt lat="43.52721" lon="2.49686">
        <ele>670.169</ele>
        <time>2021-05-22T10:44:11Z</time>
      </trkpt>
      <trkpt lat="43.52719" lon="2.49687">
        <ele>669.58</ele>
        <time>2021-05-22T10:44:13Z</time>
      </trkpt>
      <trkpt lat="43.52717" lon="2.49688">
        <ele>668.771</ele>
        <time>2021-05-22T10:44:15Z</time>
      </trkpt>
      <trkpt lat="43.52715" lon="2.4969">
        <ele>668.185</ele>
        <time>2021-05-22T10:44:17Z</time>
      </trkpt>
      <trkpt lat="43.52713" lon="2.49692">
        <ele>667.849</ele>
        <time>2021-05-22T10:44:19Z</time>
      </trkpt>
      <trkpt lat="43.52711" lon="2.49694">
        <ele>668.43</ele>
        <time>2021-05-22T10:44:21Z</time>
      </trkpt>
      <trkpt lat="43.5271" lon="2.49696">
        <ele>668.389</ele>
        <time>2021-05-22T10:44:23Z</time>
      </trkpt>
      <trkpt lat="43.52709" lon="2.49698">
        <ele>668.25</ele>
        <time>2021-05-22T10:44:25Z</time>
      </trkpt>
      <trkpt lat="43.52706" lon="2.49699">
        <ele>667.053</ele>
        <time>2021-05-22T10:44:27Z</time>
      </trkpt>
      <trkpt lat="43.52705" lon="2.49702">
        <ele>666.984</ele>
        <time>2021-05-22T10:44:29Z</time>
      </trkpt>
      <trkpt lat="43.52703" lon="2.49704">
        <ele>666.986</ele>
        <time>2021-05-22T10:44:31Z</time>
      </trkpt>
      <trkpt lat="43.52702" lon="2.49706">
        <ele>667.581</ele>
        <time>2021-05-22T10:44:33Z</time>
      </trkpt>
      <trkpt lat="43.527" lon="2.49709">
        <ele>667.562</ele>
        <time>2021-05-22T10:44:35Z</time>
      </trkpt>
      <trkpt lat="43.52698" lon="2.49711">
        <ele>667.767</ele>
        <time>2021-05-22T10:44:37Z</time>
      </trkpt>
      <trkpt lat="43.52697" lon="2.49713">
        <ele>666.972</ele>
        <time>2021-05-22T10:44:39Z</time>
      </trkpt>
      <trkpt lat="43.52694" lon="2.49714">
        <ele>665.73</ele>
        <time>2021-05-22T10:44:41Z</time>
      </trkpt>
      <trkpt lat="43.52692" lon="2.49716">
        <ele>664.638</ele>
        <time>2021-05-22T10:44:43Z</time>
      </trkpt>
      <trkpt lat="43.52691" lon="2.49718">
        <ele>663.671</ele>
        <time>2021-05-22T10:44:45Z</time>
      </trkpt>
      <trkpt lat="43.52689" lon="2.49719">
        <ele>662.933</ele>
        <time>2021-05-22T10:44:47Z</time>
      </trkpt>
      <trkpt lat="43.52687" lon="2.49721">
        <ele>663.025</ele>
        <time>2021-05-22T10:44:49Z</time>
      </trkpt>
      <trkpt lat="43.52685" lon="2.49724">
        <ele>663.017</ele>
        <time>2021-05-22T10:44:51Z</time>
      </trkpt>
      <trkpt lat="43.52683" lon="2.49726">
        <ele>662.407</ele>
        <time>2021-05-22T10:44:53Z</time>
      </trkpt>
      <trkpt lat="43.52682" lon="2.49728">
        <ele>662.086</ele>
        <time>2021-05-22T10:44:55Z</time>
      </trkpt>
      <trkpt lat="43.5268" lon="2.49731">
        <ele>661.893</ele>
        <time>2021-05-22T10:44:57Z</time>
      </trkpt>
      <trkpt lat="43.52678" lon="2.49732">
        <ele>661.431</ele>
        <time>2021-05-22T10:44:59Z</time>
      </trkpt>
      <trkpt lat="43.52676" lon="2.49734">
        <ele>661.066</ele>
        <time>2021-05-22T10:45:01Z</time>
      </trkpt>
      <trkpt lat="43.52674" lon="2.49735">
        <ele>661.115</ele>
        <time>2021-05-22T10:45:03Z</time>
      </trkpt>
      <trkpt lat="43.52672" lon="2.49736">
        <ele>660.585</ele>
        <time>2021-05-22T10:45:05Z</time>
      </trkpt>
      <trkpt lat="43.5267" lon="2.49738">
        <ele>660.419</ele>
        <time>2021-05-22T10:45:07Z</time>
      </trkpt>
      <trkpt lat="43.52669" lon="2.4974">
        <ele>661.135</ele>
        <time>2021-05-22T10:45:09Z</time>
      </trkpt>
      <trkpt lat="43.52667" lon="2.49739">
        <ele>660.865</ele>
        <time>2021-05-22T10:45:11Z</time>
      </trkpt>
      <trkpt lat="43.52665" lon="2.4974">
        <ele>661.21</ele>
        <time>2021-05-22T10:45:13Z</time>
      </trkpt>
      <trkpt lat="43.52664" lon="2.49741">
        <ele>660.67</ele>
        <time>2021-05-22T10:45:15Z</time>
      </trkpt>
      <trkpt lat="43.52662" lon="2.49743">
        <ele>660.492</ele>
        <time>2021-05-22T10:45:17Z</time>
      </trkpt>
      <trkpt lat="43.5266" lon="2.49744">
        <ele>659.777</ele>
        <time>2021-05-22T10:45:19Z</time>
      </trkpt>
      <trkpt lat="43.52657" lon="2.49744">
        <ele>661.716</ele>
        <time>2021-05-22T10:45:21Z</time>
      </trkpt>
      <trkpt lat="43.52656" lon="2.49744">
        <ele>661.698</ele>
        <time>2021-05-22T10:45:23Z</time>
      </trkpt>
      <trkpt lat="43.52656" lon="2.49744">
        <ele>661.771</ele>
        <time>2021-05-22T10:45:25Z</time>
      </trkpt>
      <trkpt lat="43.52656" lon="2.49745">
        <ele>662.332</ele>
        <time>2021-05-22T10:45:27Z</time>
      </trkpt>
      <trkpt lat="43.52656" lon="2.49745">
        <ele>662.314</ele>
        <time>2021-05-22T10:45:29Z</time>
      </trkpt>
      <trkpt lat="43.52656" lon="2.49745">
        <ele>662.315</ele>
        <time>2021-05-22T10:45:31Z</time>
      </trkpt>
      <trkpt lat="43.52656" lon="2.49745">
        <ele>662.328</ele>
        <time>2021-05-22T10:45:33Z</time>
      </trkpt>
      <trkpt lat="43.52656" lon="2.49745">
        <ele>662.325</ele>
        <time>2021-05-22T10:45:35Z</time>
      </trkpt>
      <trkpt lat="43.52656" lon="2.49745">
        <ele>662.335</ele>
        <time>2021-05-22T10:45:37Z</time>
      </trkpt>
      <trkpt lat="43.52656" lon="2.49745">
        <ele>662.336</ele>
        <time>2021-05-22T10:45:39Z</time>
      </trkpt>
      <trkpt lat="43.52656" lon="2.49745">
        <ele>662.335</ele>
        <time>2021-05-22T10:45:41Z</time>
      </trkpt>
      <trkpt lat="43.52656" lon="2.49745">
        <ele>662.333</ele>
        <time>2021-05-22T10:45:43Z</time>
      </trkpt>
      <trkpt lat="43.52656" lon="2.49745">
        <ele>662.334</ele>
        <time>2021-05-22T10:45:45Z</time>
      </trkpt>
      <trkpt lat="43.52656" lon="2.49745">
        <ele>662.339</ele>
        <time>2021-05-22T10:45:47Z</time>
      </trkpt>
      <trkpt lat="43.52655" lon="2.49746">
        <ele>662.646</ele>
        <time>2021-05-22T10:45:49Z</time>
      </trkpt>
      <trkpt lat="43.52654" lon="2.49747">
        <ele>661.226</ele>
        <time>2021-05-22T10:45:51Z</time>
      </trkpt>
      <trkpt lat="43.52653" lon="2.49748">
        <ele>660.27</ele>
        <time>2021-05-22T10:45:53Z</time>
      </trkpt>
      <trkpt lat="43.52652" lon="2.49748">
        <ele>661.103</ele>
        <time>2021-05-22T10:45:55Z</time>
      </trkpt>
      <trkpt lat="43.52649" lon="2.49749">
        <ele>662.098</ele>
        <time>2021-05-22T10:45:57Z</time>
      </trkpt>
      <trkpt lat="43.52647" lon="2.4975">
        <ele>661.938</ele>
        <time>2021-05-22T10:45:59Z</time>
      </trkpt>
      <trkpt lat="43.52646" lon="2.49752">
        <ele>660.041</ele>
        <time>2021-05-22T10:46:01Z</time>
      </trkpt>
      <trkpt lat="43.52644" lon="2.49754">
        <ele>659.708</ele>
        <time>2021-05-22T10:46:03Z</time>
      </trkpt>
      <trkpt lat="43.52642" lon="2.49756">
        <ele>660.416</ele>
        <time>2021-05-22T10:46:05Z</time>
      </trkpt>
      <trkpt lat="43.5264" lon="2.49759">
        <ele>660.448</ele>
        <time>2021-05-22T10:46:07Z</time>
      </trkpt>
      <trkpt lat="43.52639" lon="2.4976">
        <ele>661.36</ele>
        <time>2021-05-22T10:46:09Z</time>
      </trkpt>
      <trkpt lat="43.52637" lon="2.49761">
        <ele>661.397</ele>
        <time>2021-05-22T10:46:11Z</time>
      </trkpt>
      <trkpt lat="43.52636" lon="2.49763">
        <ele>661.5</ele>
        <time>2021-05-22T10:46:13Z</time>
      </trkpt>
      <trkpt lat="43.52634" lon="2.49764">
        <ele>662.093</ele>
        <time>2021-05-22T10:46:15Z</time>
      </trkpt>
      <trkpt lat="43.52632" lon="2.49766">
        <ele>661.645</ele>
        <time>2021-05-22T10:46:17Z</time>
      </trkpt>
      <trkpt lat="43.5263" lon="2.49767">
        <ele>661.881</ele>
        <time>2021-05-22T10:46:19Z</time>
      </trkpt>
      <trkpt lat="43.52628" lon="2.49769">
        <ele>661.609</ele>
        <time>2021-05-22T10:46:21Z</time>
      </trkpt>
      <trkpt lat="43.52627" lon="2.49772">
        <ele>662.475</ele>
        <time>2021-05-22T10:46:23Z</time>
      </trkpt>
      <trkpt lat="43.52624" lon="2.49774">
        <ele>663.435</ele>
        <time>2021-05-22T10:46:25Z</time>
      </trkpt>
      <trkpt lat="43.52623" lon="2.49776">
        <ele>661.869</ele>
        <time>2021-05-22T10:46:27Z</time>
      </trkpt>
      <trkpt lat="43.52621" lon="2.49779">
        <ele>661.786</ele>
        <time>2021-05-22T10:46:29Z</time>
      </trkpt>
      <trkpt lat="43.5262" lon="2.49781">
        <ele>662.73</ele>
        <time>2021-05-22T10:46:31Z</time>
      </trkpt>
      <trkpt lat="43.52618" lon="2.49784">
        <ele>663.128</ele>
        <time>2021-05-22T10:46:33Z</time>
      </trkpt>
      <trkpt lat="43.52617" lon="2.49787">
        <ele>663.845</ele>
        <time>2021-05-22T10:46:35Z</time>
      </trkpt>
      <trkpt lat="43.52616" lon="2.49788">
        <ele>661.529</ele>
        <time>2021-05-22T10:46:37Z</time>
      </trkpt>
      <trkpt lat="43.52615" lon="2.4979">
        <ele>661.124</ele>
        <time>2021-05-22T10:46:39Z</time>
      </trkpt>
      <trkpt lat="43.52613" lon="2.49793">
        <ele>660.581</ele>
        <time>2021-05-22T10:46:41Z</time>
      </trkpt>
      <trkpt lat="43.52612" lon="2.49795">
        <ele>660.761</ele>
        <time>2021-05-22T10:46:43Z</time>
      </trkpt>
      <trkpt lat="43.52611" lon="2.498">
        <ele>661.813</ele>
        <time>2021-05-22T10:46:45Z</time>
      </trkpt>
      <trkpt lat="43.52609" lon="2.49803">
        <ele>659.906</ele>
        <time>2021-05-22T10:46:47Z</time>
      </trkpt>
      <trkpt lat="43.52607" lon="2.49806">
        <ele>659.535</ele>
        <time>2021-05-22T10:46:49Z</time>
      </trkpt>
      <trkpt lat="43.52605" lon="2.49808">
        <ele>659.51</ele>
        <time>2021-05-22T10:46:51Z</time>
      </trkpt>
      <trkpt lat="43.52603" lon="2.49811">
        <ele>660.759</ele>
        <time>2021-05-22T10:46:53Z</time>
      </trkpt>
      <trkpt lat="43.52602" lon="2.49815">
        <ele>662.19</ele>
        <time>2021-05-22T10:46:55Z</time>
      </trkpt>
      <trkpt lat="43.526" lon="2.49818">
        <ele>661.297</ele>
        <time>2021-05-22T10:46:57Z</time>
      </trkpt>
      <trkpt lat="43.52598" lon="2.4982">
        <ele>661.766</ele>
        <time>2021-05-22T10:46:59Z</time>
      </trkpt>
      <trkpt lat="43.52596" lon="2.49824">
        <ele>660.579</ele>
        <time>2021-05-22T10:47:01Z</time>
      </trkpt>
      <trkpt lat="43.52594" lon="2.49826">
        <ele>660.122</ele>
        <time>2021-05-22T10:47:03Z</time>
      </trkpt>
      <trkpt lat="43.52592" lon="2.49829">
        <ele>659.323</ele>
        <time>2021-05-22T10:47:05Z</time>
      </trkpt>
      <trkpt lat="43.5259" lon="2.49831">
        <ele>659.462</ele>
        <time>2021-05-22T10:47:07Z</time>
      </trkpt>
      <trkpt lat="43.52589" lon="2.49834">
        <ele>658.947</ele>
        <time>2021-05-22T10:47:09Z</time>
      </trkpt>
      <trkpt lat="43.52588" lon="2.49837">
        <ele>659.093</ele>
        <time>2021-05-22T10:47:11Z</time>
      </trkpt>
      <trkpt lat="43.52586" lon="2.49839">
        <ele>657.537</ele>
        <time>2021-05-22T10:47:13Z</time>
      </trkpt>
      <trkpt lat="43.52584" lon="2.49842">
        <ele>656.749</ele>
        <time>2021-05-22T10:47:15Z</time>
      </trkpt>
      <trkpt lat="43.52582" lon="2.49845">
        <ele>656.584</ele>
        <time>2021-05-22T10:47:17Z</time>
      </trkpt>
      <trkpt lat="43.52581" lon="2.49848">
        <ele>656.438</ele>
        <time>2021-05-22T10:47:19Z</time>
      </trkpt>
      <trkpt lat="43.52579" lon="2.4985">
        <ele>656.879</ele>
        <time>2021-05-22T10:47:21Z</time>
      </trkpt>
      <trkpt lat="43.52577" lon="2.49853">
        <ele>656.034</ele>
        <time>2021-05-22T10:47:23Z</time>
      </trkpt>
      <trkpt lat="43.52576" lon="2.49855">
        <ele>655.393</ele>
        <time>2021-05-22T10:47:25Z</time>
      </trkpt>
      <trkpt lat="43.52574" lon="2.49858">
        <ele>655.389</ele>
        <time>2021-05-22T10:47:27Z</time>
      </trkpt>
      <trkpt lat="43.52572" lon="2.4986">
        <ele>656.16</ele>
        <time>2021-05-22T10:47:29Z</time>
      </trkpt>
      <trkpt lat="43.5257" lon="2.49863">
        <ele>654.768</ele>
        <time>2021-05-22T10:47:31Z</time>
      </trkpt>
      <trkpt lat="43.52569" lon="2.49865">
        <ele>654.828</ele>
        <time>2021-05-22T10:47:33Z</time>
      </trkpt>
      <trkpt lat="43.52567" lon="2.49868">
        <ele>655.327</ele>
        <time>2021-05-22T10:47:35Z</time>
      </trkpt>
      <trkpt lat="43.52566" lon="2.4987">
        <ele>656.646</ele>
        <time>2021-05-22T10:47:37Z</time>
      </trkpt>
      <trkpt lat="43.52564" lon="2.49873">
        <ele>658.133</ele>
        <time>2021-05-22T10:47:39Z</time>
      </trkpt>
      <trkpt lat="43.52562" lon="2.49875">
        <ele>657.634</ele>
        <time>2021-05-22T10:47:41Z</time>
      </trkpt>
      <trkpt lat="43.52561" lon="2.49879">
        <ele>657.696</ele>
        <time>2021-05-22T10:47:43Z</time>
      </trkpt>
      <trkpt lat="43.52559" lon="2.49882">
        <ele>657.798</ele>
        <time>2021-05-22T10:47:45Z</time>
      </trkpt>
      <trkpt lat="43.52558" lon="2.49885">
        <ele>657.404</ele>
        <time>2021-05-22T10:47:47Z</time>
      </trkpt>
      <trkpt lat="43.52556" lon="2.49888">
        <ele>658.691</ele>
        <time>2021-05-22T10:47:49Z</time>
      </trkpt>
      <trkpt lat="43.52555" lon="2.49891">
        <ele>658.229</ele>
        <time>2021-05-22T10:47:51Z</time>
      </trkpt>
      <trkpt lat="43.52553" lon="2.49894">
        <ele>658.081</ele>
        <time>2021-05-22T10:47:53Z</time>
      </trkpt>
      <trkpt lat="43.52552" lon="2.49897">
        <ele>657.833</ele>
        <time>2021-05-22T10:47:55Z</time>
      </trkpt>
      <trkpt lat="43.5255" lon="2.499">
        <ele>656.212</ele>
        <time>2021-05-22T10:47:57Z</time>
      </trkpt>
      <trkpt lat="43.52549" lon="2.49903">
        <ele>655.282</ele>
        <time>2021-05-22T10:47:59Z</time>
      </trkpt>
      <trkpt lat="43.52548" lon="2.49907">
        <ele>654.724</ele>
        <time>2021-05-22T10:48:01Z</time>
      </trkpt>
      <trkpt lat="43.52548" lon="2.4991">
        <ele>654.148</ele>
        <time>2021-05-22T10:48:03Z</time>
      </trkpt>
      <trkpt lat="43.52546" lon="2.49913">
        <ele>652.55</ele>
        <time>2021-05-22T10:48:05Z</time>
      </trkpt>
      <trkpt lat="43.52545" lon="2.49916">
        <ele>652.133</ele>
        <time>2021-05-22T10:48:07Z</time>
      </trkpt>
      <trkpt lat="43.52544" lon="2.4992">
        <ele>650.683</ele>
        <time>2021-05-22T10:48:09Z</time>
      </trkpt>
      <trkpt lat="43.52543" lon="2.49923">
        <ele>649.942</ele>
        <time>2021-05-22T10:48:11Z</time>
      </trkpt>
      <trkpt lat="43.52542" lon="2.49926">
        <ele>648.798</ele>
        <time>2021-05-22T10:48:13Z</time>
      </trkpt>
      <trkpt lat="43.52541" lon="2.49929">
        <ele>647.815</ele>
        <time>2021-05-22T10:48:15Z</time>
      </trkpt>
      <trkpt lat="43.5254" lon="2.49932">
        <ele>646.546</ele>
        <time>2021-05-22T10:48:17Z</time>
      </trkpt>
      <trkpt lat="43.52539" lon="2.49935">
        <ele>645.651</ele>
        <time>2021-05-22T10:48:19Z</time>
      </trkpt>
      <trkpt lat="43.52538" lon="2.49939">
        <ele>644.768</ele>
        <time>2021-05-22T10:48:21Z</time>
      </trkpt>
      <trkpt lat="43.52537" lon="2.49942">
        <ele>643.116</ele>
        <time>2021-05-22T10:48:23Z</time>
      </trkpt>
      <trkpt lat="43.52537" lon="2.49945">
        <ele>642.345</ele>
        <time>2021-05-22T10:48:25Z</time>
      </trkpt>
      <trkpt lat="43.52537" lon="2.49948">
        <ele>642.829</ele>
        <time>2021-05-22T10:48:27Z</time>
      </trkpt>
      <trkpt lat="43.52536" lon="2.49951">
        <ele>641.844</ele>
        <time>2021-05-22T10:48:29Z</time>
      </trkpt>
      <trkpt lat="43.52535" lon="2.49954">
        <ele>641.603</ele>
        <time>2021-05-22T10:48:31Z</time>
      </trkpt>
      <trkpt lat="43.52535" lon="2.49957">
        <ele>640.84</ele>
        <time>2021-05-22T10:48:33Z</time>
      </trkpt>
      <trkpt lat="43.52534" lon="2.49961">
        <ele>639.69</ele>
        <time>2021-05-22T10:48:35Z</time>
      </trkpt>
      <trkpt lat="43.52534" lon="2.49964">
        <ele>639.942</ele>
        <time>2021-05-22T10:48:37Z</time>
      </trkpt>
      <trkpt lat="43.52534" lon="2.49968">
        <ele>640.082</ele>
        <time>2021-05-22T10:48:39Z</time>
      </trkpt>
      <trkpt lat="43.52534" lon="2.49972">
        <ele>641.096</ele>
        <time>2021-05-22T10:48:41Z</time>
      </trkpt>
      <trkpt lat="43.52534" lon="2.49976">
        <ele>641.105</ele>
        <time>2021-05-22T10:48:43Z</time>
      </trkpt>
      <trkpt lat="43.52534" lon="2.49979">
        <ele>640.612</ele>
        <time>2021-05-22T10:48:45Z</time>
      </trkpt>
      <trkpt lat="43.52536" lon="2.49982">
        <ele>639.795</ele>
        <time>2021-05-22T10:48:47Z</time>
      </trkpt>
      <trkpt lat="43.52537" lon="2.49985">
        <ele>638.737</ele>
        <time>2021-05-22T10:48:49Z</time>
      </trkpt>
      <trkpt lat="43.52539" lon="2.49987">
        <ele>637.795</ele>
        <time>2021-05-22T10:48:51Z</time>
      </trkpt>
      <trkpt lat="43.52541" lon="2.49989">
        <ele>637.6</ele>
        <time>2021-05-22T10:48:53Z</time>
      </trkpt>
      <trkpt lat="43.52543" lon="2.49992">
        <ele>638.076</ele>
        <time>2021-05-22T10:48:55Z</time>
      </trkpt>
      <trkpt lat="43.52544" lon="2.49994">
        <ele>638.393</ele>
        <time>2021-05-22T10:48:57Z</time>
      </trkpt>
      <trkpt lat="43.52546" lon="2.49997">
        <ele>639.4</ele>
        <time>2021-05-22T10:48:59Z</time>
      </trkpt>
      <trkpt lat="43.52547" lon="2.5">
        <ele>639.631</ele>
        <time>2021-05-22T10:49:01Z</time>
      </trkpt>
      <trkpt lat="43.5255" lon="2.50001">
        <ele>638.549</ele>
        <time>2021-05-22T10:49:03Z</time>
      </trkpt>
      <trkpt lat="43.52552" lon="2.50005">
        <ele>638.693</ele>
        <time>2021-05-22T10:49:05Z</time>
      </trkpt>
      <trkpt lat="43.52553" lon="2.50008">
        <ele>638.764</ele>
        <time>2021-05-22T10:49:07Z</time>
      </trkpt>
      <trkpt lat="43.52555" lon="2.50011">
        <ele>639.775</ele>
        <time>2021-05-22T10:49:09Z</time>
      </trkpt>
      <trkpt lat="43.52556" lon="2.50014">
        <ele>640.012</ele>
        <time>2021-05-22T10:49:11Z</time>
      </trkpt>
      <trkpt lat="43.52557" lon="2.50019">
        <ele>640.118</ele>
        <time>2021-05-22T10:49:13Z</time>
      </trkpt>
      <trkpt lat="43.52557" lon="2.50023">
        <ele>639.793</ele>
        <time>2021-05-22T10:49:15Z</time>
      </trkpt>
      <trkpt lat="43.52558" lon="2.50027">
        <ele>638.777</ele>
        <time>2021-05-22T10:49:17Z</time>
      </trkpt>
      <trkpt lat="43.52558" lon="2.5003">
        <ele>637.44</ele>
        <time>2021-05-22T10:49:19Z</time>
      </trkpt>
      <trkpt lat="43.52558" lon="2.50033">
        <ele>637.515</ele>
        <time>2021-05-22T10:49:21Z</time>
      </trkpt>
      <trkpt lat="43.52558" lon="2.50037">
        <ele>637.149</ele>
        <time>2021-05-22T10:49:23Z</time>
      </trkpt>
      <trkpt lat="43.52557" lon="2.5004">
        <ele>636.469</ele>
        <time>2021-05-22T10:49:25Z</time>
      </trkpt>
      <trkpt lat="43.52556" lon="2.50043">
        <ele>634.948</ele>
        <time>2021-05-22T10:49:27Z</time>
      </trkpt>
      <trkpt lat="43.52555" lon="2.50046">
        <ele>636.369</ele>
        <time>2021-05-22T10:49:29Z</time>
      </trkpt>
      <trkpt lat="43.52553" lon="2.50049">
        <ele>637.136</ele>
        <time>2021-05-22T10:49:31Z</time>
      </trkpt>
      <trkpt lat="43.52552" lon="2.50052">
        <ele>638.335</ele>
        <time>2021-05-22T10:49:33Z</time>
      </trkpt>
      <trkpt lat="43.5255" lon="2.50056">
        <ele>639.359</ele>
        <time>2021-05-22T10:49:35Z</time>
      </trkpt>
      <trkpt lat="43.52548" lon="2.5006">
        <ele>640.006</ele>
        <time>2021-05-22T10:49:37Z</time>
      </trkpt>
      <trkpt lat="43.52547" lon="2.50064">
        <ele>639.575</ele>
        <time>2021-05-22T10:49:39Z</time>
      </trkpt>
      <trkpt lat="43.52546" lon="2.50067">
        <ele>638.877</ele>
        <time>2021-05-22T10:49:41Z</time>
      </trkpt>
      <trkpt lat="43.52544" lon="2.50071">
        <ele>637.927</ele>
        <time>2021-05-22T10:49:43Z</time>
      </trkpt>
      <trkpt lat="43.52543" lon="2.50074">
        <ele>637.693</ele>
        <time>2021-05-22T10:49:45Z</time>
      </trkpt>
      <trkpt lat="43.52543" lon="2.50077">
        <ele>638.516</ele>
        <time>2021-05-22T10:49:47Z</time>
      </trkpt>
      <trkpt lat="43.52542" lon="2.50081">
        <ele>638.995</ele>
        <time>2021-05-22T10:49:49Z</time>
      </trkpt>
      <trkpt lat="43.52541" lon="2.50084">
        <ele>638.409</ele>
        <time>2021-05-22T10:49:51Z</time>
      </trkpt>
      <trkpt lat="43.52539" lon="2.50089">
        <ele>638.774</ele>
        <time>2021-05-22T10:49:53Z</time>
      </trkpt>
      <trkpt lat="43.52539" lon="2.50092">
        <ele>638.884</ele>
        <time>2021-05-22T10:49:55Z</time>
      </trkpt>
      <trkpt lat="43.52538" lon="2.50095">
        <ele>637.977</ele>
        <time>2021-05-22T10:49:57Z</time>
      </trkpt>
      <trkpt lat="43.52537" lon="2.50099">
        <ele>636.306</ele>
        <time>2021-05-22T10:49:59Z</time>
      </trkpt>
      <trkpt lat="43.52536" lon="2.50104">
        <ele>636.297</ele>
        <time>2021-05-22T10:50:01Z</time>
      </trkpt>
      <trkpt lat="43.52535" lon="2.50107">
        <ele>639.992</ele>
        <time>2021-05-22T10:50:03Z</time>
      </trkpt>
      <trkpt lat="43.52534" lon="2.5011">
        <ele>639.936</ele>
        <time>2021-05-22T10:50:05Z</time>
      </trkpt>
      <trkpt lat="43.52533" lon="2.50113">
        <ele>640.618</ele>
        <time>2021-05-22T10:50:07Z</time>
      </trkpt>
      <trkpt lat="43.52533" lon="2.50117">
        <ele>641.921</ele>
        <time>2021-05-22T10:50:09Z</time>
      </trkpt>
      <trkpt lat="43.52532" lon="2.50119">
        <ele>643.103</ele>
        <time>2021-05-22T10:50:11Z</time>
      </trkpt>
      <trkpt lat="43.52531" lon="2.50123">
        <ele>644.742</ele>
        <time>2021-05-22T10:50:13Z</time>
      </trkpt>
      <trkpt lat="43.5253" lon="2.50125">
        <ele>646.132</ele>
        <time>2021-05-22T10:50:15Z</time>
      </trkpt>
      <trkpt lat="43.52528" lon="2.50128">
        <ele>648.062</ele>
        <time>2021-05-22T10:50:17Z</time>
      </trkpt>
      <trkpt lat="43.52526" lon="2.5013">
        <ele>649.686</ele>
        <time>2021-05-22T10:50:19Z</time>
      </trkpt>
      <trkpt lat="43.52524" lon="2.50133">
        <ele>649.087</ele>
        <time>2021-05-22T10:50:21Z</time>
      </trkpt>
      <trkpt lat="43.52523" lon="2.50136">
        <ele>647.897</ele>
        <time>2021-05-22T10:50:23Z</time>
      </trkpt>
      <trkpt lat="43.52521" lon="2.50139">
        <ele>645.424</ele>
        <time>2021-05-22T10:50:25Z</time>
      </trkpt>
      <trkpt lat="43.52519" lon="2.50141">
        <ele>645.816</ele>
        <time>2021-05-22T10:50:27Z</time>
      </trkpt>
      <trkpt lat="43.52517" lon="2.50144">
        <ele>646.093</ele>
        <time>2021-05-22T10:50:29Z</time>
      </trkpt>
      <trkpt lat="43.52514" lon="2.50147">
        <ele>645.802</ele>
        <time>2021-05-22T10:50:31Z</time>
      </trkpt>
      <trkpt lat="43.52513" lon="2.5015">
        <ele>644.855</ele>
        <time>2021-05-22T10:50:33Z</time>
      </trkpt>
      <trkpt lat="43.52512" lon="2.50152">
        <ele>643.739</ele>
        <time>2021-05-22T10:50:35Z</time>
      </trkpt>
      <trkpt lat="43.5251" lon="2.50155">
        <ele>644.059</ele>
        <time>2021-05-22T10:50:37Z</time>
      </trkpt>
      <trkpt lat="43.52508" lon="2.50157">
        <ele>644.589</ele>
        <time>2021-05-22T10:50:39Z</time>
      </trkpt>
      <trkpt lat="43.52507" lon="2.5016">
        <ele>642.969</ele>
        <time>2021-05-22T10:50:41Z</time>
      </trkpt>
      <trkpt lat="43.52505" lon="2.50162">
        <ele>641.838</ele>
        <time>2021-05-22T10:50:43Z</time>
      </trkpt>
      <trkpt lat="43.52503" lon="2.50165">
        <ele>642.924</ele>
        <time>2021-05-22T10:50:45Z</time>
      </trkpt>
      <trkpt lat="43.52501" lon="2.50167">
        <ele>643.24</ele>
        <time>2021-05-22T10:50:47Z</time>
      </trkpt>
      <trkpt lat="43.52499" lon="2.5017">
        <ele>643.217</ele>
        <time>2021-05-22T10:50:49Z</time>
      </trkpt>
      <trkpt lat="43.52497" lon="2.50172">
        <ele>642.612</ele>
        <time>2021-05-22T10:50:51Z</time>
      </trkpt>
      <trkpt lat="43.52495" lon="2.50173">
        <ele>642.315</ele>
        <time>2021-05-22T10:50:53Z</time>
      </trkpt>
      <trkpt lat="43.52493" lon="2.50176">
        <ele>643.075</ele>
        <time>2021-05-22T10:50:55Z</time>
      </trkpt>
      <trkpt lat="43.52491" lon="2.50177">
        <ele>643.295</ele>
        <time>2021-05-22T10:50:57Z</time>
      </trkpt>
      <trkpt lat="43.52488" lon="2.50177">
        <ele>642.98</ele>
        <time>2021-05-22T10:50:59Z</time>
      </trkpt>
      <trkpt lat="43.52486" lon="2.50178">
        <ele>642.582</ele>
        <time>2021-05-22T10:51:01Z</time>
      </trkpt>
      <trkpt lat="43.52484" lon="2.50179">
        <ele>643.712</ele>
        <time>2021-05-22T10:51:03Z</time>
      </trkpt>
      <trkpt lat="43.5248" lon="2.50179">
        <ele>643.291</ele>
        <time>2021-05-22T10:51:05Z</time>
      </trkpt>
      <trkpt lat="43.52477" lon="2.50178">
        <ele>643.516</ele>
        <time>2021-05-22T10:51:07Z</time>
      </trkpt>
      <trkpt lat="43.52475" lon="2.50178">
        <ele>643.683</ele>
        <time>2021-05-22T10:51:09Z</time>
      </trkpt>
      <trkpt lat="43.52473" lon="2.50178">
        <ele>643.617</ele>
        <time>2021-05-22T10:51:11Z</time>
      </trkpt>
      <trkpt lat="43.52471" lon="2.50178">
        <ele>643.413</ele>
        <time>2021-05-22T10:51:13Z</time>
      </trkpt>
      <trkpt lat="43.52469" lon="2.50177">
        <ele>642.775</ele>
        <time>2021-05-22T10:51:15Z</time>
      </trkpt>
      <trkpt lat="43.52467" lon="2.50176">
        <ele>642.886</ele>
        <time>2021-05-22T10:51:17Z</time>
      </trkpt>
      <trkpt lat="43.52466" lon="2.50174">
        <ele>642.913</ele>
        <time>2021-05-22T10:51:19Z</time>
      </trkpt>
      <trkpt lat="43.52465" lon="2.50172">
        <ele>642.651</ele>
        <time>2021-05-22T10:51:21Z</time>
      </trkpt>
      <trkpt lat="43.52464" lon="2.5017">
        <ele>644.928</ele>
        <time>2021-05-22T10:51:23Z</time>
      </trkpt>
      <trkpt lat="43.52463" lon="2.50167">
        <ele>645.586</ele>
        <time>2021-05-22T10:51:25Z</time>
      </trkpt>
      <trkpt lat="43.52462" lon="2.50165">
        <ele>640.705</ele>
        <time>2021-05-22T10:51:27Z</time>
      </trkpt>
      <trkpt lat="43.52461" lon="2.50162">
        <ele>638.58</ele>
        <time>2021-05-22T10:51:29Z</time>
      </trkpt>
      <trkpt lat="43.52461" lon="2.50159">
        <ele>638.417</ele>
        <time>2021-05-22T10:51:31Z</time>
      </trkpt>
      <trkpt lat="43.5246" lon="2.50157">
        <ele>638.509</ele>
        <time>2021-05-22T10:51:33Z</time>
      </trkpt>
      <trkpt lat="43.52459" lon="2.50155">
        <ele>638.119</ele>
        <time>2021-05-22T10:51:35Z</time>
      </trkpt>
      <trkpt lat="43.52459" lon="2.50152">
        <ele>638.016</ele>
        <time>2021-05-22T10:51:37Z</time>
      </trkpt>
      <trkpt lat="43.52459" lon="2.50149">
        <ele>638.5</ele>
        <time>2021-05-22T10:51:39Z</time>
      </trkpt>
      <trkpt lat="43.52459" lon="2.50146">
        <ele>638.825</ele>
        <time>2021-05-22T10:51:41Z</time>
      </trkpt>
      <trkpt lat="43.52459" lon="2.50142">
        <ele>638.72</ele>
        <time>2021-05-22T10:51:43Z</time>
      </trkpt>
      <trkpt lat="43.52459" lon="2.50139">
        <ele>639.399</ele>
        <time>2021-05-22T10:51:45Z</time>
      </trkpt>
      <trkpt lat="43.5246" lon="2.50135">
        <ele>636.143</ele>
        <time>2021-05-22T10:51:47Z</time>
      </trkpt>
      <trkpt lat="43.5246" lon="2.50132">
        <ele>637.729</ele>
        <time>2021-05-22T10:51:49Z</time>
      </trkpt>
      <trkpt lat="43.5246" lon="2.5013">
        <ele>640.175</ele>
        <time>2021-05-22T10:51:51Z</time>
      </trkpt>
      <trkpt lat="43.5246" lon="2.5013">
        <ele>640.158</ele>
        <time>2021-05-22T10:51:53Z</time>
      </trkpt>
      <trkpt lat="43.52461" lon="2.50131">
        <ele>640.937</ele>
        <time>2021-05-22T10:51:55Z</time>
      </trkpt>
      <trkpt lat="43.52463" lon="2.50129">
        <ele>637.819</ele>
        <time>2021-05-22T10:51:57Z</time>
      </trkpt>
      <trkpt lat="43.52465" lon="2.50128">
        <ele>634.027</ele>
        <time>2021-05-22T10:51:59Z</time>
      </trkpt>
      <trkpt lat="43.52467" lon="2.50133">
        <ele>637.007</ele>
        <time>2021-05-22T10:52:01Z</time>
      </trkpt>
      <trkpt lat="43.52468" lon="2.50136">
        <ele>638.591</ele>
        <time>2021-05-22T10:52:03Z</time>
      </trkpt>
      <trkpt lat="43.52469" lon="2.50137">
        <ele>637.873</ele>
        <time>2021-05-22T10:52:05Z</time>
      </trkpt>
      <trkpt lat="43.52468" lon="2.50136">
        <ele>637.703</ele>
        <time>2021-05-22T10:52:07Z</time>
      </trkpt>
      <trkpt lat="43.52468" lon="2.50135">
        <ele>637.67</ele>
        <time>2021-05-22T10:52:09Z</time>
      </trkpt>
      <trkpt lat="43.52467" lon="2.50135">
        <ele>637.712</ele>
        <time>2021-05-22T10:52:11Z</time>
      </trkpt>
      <trkpt lat="43.52467" lon="2.50135">
        <ele>637.737</ele>
        <time>2021-05-22T10:52:13Z</time>
      </trkpt>
      <trkpt lat="43.52467" lon="2.50135">
        <ele>637.73</ele>
        <time>2021-05-22T10:52:15Z</time>
      </trkpt>
      <trkpt lat="43.52467" lon="2.50135">
        <ele>637.737</ele>
        <time>2021-05-22T10:52:17Z</time>
      </trkpt>
      <trkpt lat="43.52467" lon="2.50135">
        <ele>637.755</ele>
        <time>2021-05-22T10:52:19Z</time>
      </trkpt>
      <trkpt lat="43.52467" lon="2.50135">
        <ele>637.777</ele>
        <time>2021-05-22T10:52:21Z</time>
      </trkpt>
      <trkpt lat="43.52467" lon="2.50135">
        <ele>637.777</ele>
        <time>2021-05-22T10:52:23Z</time>
      </trkpt>
      <trkpt lat="43.52467" lon="2.50135">
        <ele>637.772</ele>
        <time>2021-05-22T10:52:25Z</time>
      </trkpt>
      <trkpt lat="43.52467" lon="2.50135">
        <ele>637.763</ele>
        <time>2021-05-22T10:52:27Z</time>
      </trkpt>
      <trkpt lat="43.52467" lon="2.50135">
        <ele>637.761</ele>
        <time>2021-05-22T10:52:29Z</time>
      </trkpt>
      <trkpt lat="43.52467" lon="2.50134">
        <ele>637.772</ele>
        <time>2021-05-22T10:52:31Z</time>
      </trkpt>
      <trkpt lat="43.52467" lon="2.50134">
        <ele>637.612</ele>
        <time>2021-05-22T10:52:33Z</time>
      </trkpt>
      <trkpt lat="43.52467" lon="2.50133">
        <ele>636.443</ele>
        <time>2021-05-22T10:52:35Z</time>
      </trkpt>
      <trkpt lat="43.52467" lon="2.50132">
        <ele>636.526</ele>
        <time>2021-05-22T10:52:37Z</time>
      </trkpt>
      <trkpt lat="43.52467" lon="2.50132">
        <ele>636.506</ele>
        <time>2021-05-22T10:52:39Z</time>
      </trkpt>
      <trkpt lat="43.52467" lon="2.50131">
        <ele>636.104</ele>
        <time>2021-05-22T10:52:41Z</time>
      </trkpt>
      <trkpt lat="43.52466" lon="2.5013">
        <ele>636.151</ele>
        <time>2021-05-22T10:52:43Z</time>
      </trkpt>
      <trkpt lat="43.52465" lon="2.5013">
        <ele>636.111</ele>
        <time>2021-05-22T10:52:45Z</time>
      </trkpt>
      <trkpt lat="43.52465" lon="2.5013">
        <ele>636.101</ele>
        <time>2021-05-22T10:52:47Z</time>
      </trkpt>
      <trkpt lat="43.52465" lon="2.5013">
        <ele>636.687</ele>
        <time>2021-05-22T10:52:49Z</time>
      </trkpt>
      <trkpt lat="43.52464" lon="2.50128">
        <ele>637.289</ele>
        <time>2021-05-22T10:52:51Z</time>
      </trkpt>
      <trkpt lat="43.52463" lon="2.50125">
        <ele>635.794</ele>
        <time>2021-05-22T10:52:54Z</time>
      </trkpt>
      <trkpt lat="43.52462" lon="2.50125">
        <ele>635.784</ele>
        <time>2021-05-22T10:52:56Z</time>
      </trkpt>
      <trkpt lat="43.52462" lon="2.50125">
        <ele>635.777</ele>
        <time>2021-05-22T10:52:58Z</time>
      </trkpt>
      <trkpt lat="43.52462" lon="2.50125">
        <ele>635.615</ele>
        <time>2021-05-22T10:53:00Z</time>
      </trkpt>
      <trkpt lat="43.52463" lon="2.50126">
        <ele>633.98</ele>
        <time>2021-05-22T10:53:02Z</time>
      </trkpt>
      <trkpt lat="43.52463" lon="2.50127">
        <ele>633.066</ele>
        <time>2021-05-22T10:53:04Z</time>
      </trkpt>
      <trkpt lat="43.52462" lon="2.50128">
        <ele>632.589</ele>
        <time>2021-05-22T10:53:06Z</time>
      </trkpt>
      <trkpt lat="43.52463" lon="2.50129">
        <ele>632.173</ele>
        <time>2021-05-22T10:53:08Z</time>
      </trkpt>
      <trkpt lat="43.52463" lon="2.5013">
        <ele>631.128</ele>
        <time>2021-05-22T10:53:10Z</time>
      </trkpt>
      <trkpt lat="43.52463" lon="2.50131">
        <ele>630.634</ele>
        <time>2021-05-22T10:53:12Z</time>
      </trkpt>
      <trkpt lat="43.52463" lon="2.50134">
        <ele>630.328</ele>
        <time>2021-05-22T10:53:14Z</time>
      </trkpt>
      <trkpt lat="43.52461" lon="2.50138">
        <ele>631.464</ele>
        <time>2021-05-22T10:53:16Z</time>
      </trkpt>
      <trkpt lat="43.5246" lon="2.50141">
        <ele>631.062</ele>
        <time>2021-05-22T10:53:18Z</time>
      </trkpt>
      <trkpt lat="43.5246" lon="2.50144">
        <ele>630.795</ele>
        <time>2021-05-22T10:53:20Z</time>
      </trkpt>
      <trkpt lat="43.52461" lon="2.50147">
        <ele>630.272</ele>
        <time>2021-05-22T10:53:22Z</time>
      </trkpt>
      <trkpt lat="43.52461" lon="2.50149">
        <ele>630.48</ele>
        <time>2021-05-22T10:53:24Z</time>
      </trkpt>
      <trkpt lat="43.52461" lon="2.50147">
        <ele>627.892</ele>
        <time>2021-05-22T10:53:26Z</time>
      </trkpt>
      <trkpt lat="43.52461" lon="2.50147">
        <ele>627.886</ele>
        <time>2021-05-22T10:53:28Z</time>
      </trkpt>
      <trkpt lat="43.52461" lon="2.50147">
        <ele>627.885</ele>
        <time>2021-05-22T10:53:30Z</time>
      </trkpt>
      <trkpt lat="43.52461" lon="2.50147">
        <ele>627.942</ele>
        <time>2021-05-22T10:53:32Z</time>
      </trkpt>
      <trkpt lat="43.52461" lon="2.50147">
        <ele>627.953</ele>
        <time>2021-05-22T10:53:34Z</time>
      </trkpt>
      <trkpt lat="43.52461" lon="2.50147">
        <ele>627.967</ele>
        <time>2021-05-22T10:53:36Z</time>
      </trkpt>
      <trkpt lat="43.52461" lon="2.50147">
        <ele>627.988</ele>
        <time>2021-05-22T10:53:38Z</time>
      </trkpt>
      <trkpt lat="43.52461" lon="2.50147">
        <ele>628</ele>
        <time>2021-05-22T10:53:40Z</time>
      </trkpt>
      <trkpt lat="43.52461" lon="2.50147">
        <ele>628.039</ele>
        <time>2021-05-22T10:53:42Z</time>
      </trkpt>
      <trkpt lat="43.52461" lon="2.50147">
        <ele>628.094</ele>
        <time>2021-05-22T10:53:44Z</time>
      </trkpt>
      <trkpt lat="43.52461" lon="2.50147">
        <ele>628.154</ele>
        <time>2021-05-22T10:53:46Z</time>
      </trkpt>
      <trkpt lat="43.52461" lon="2.50147">
        <ele>628.229</ele>
        <time>2021-05-22T10:53:48Z</time>
      </trkpt>
      <trkpt lat="43.52461" lon="2.50147">
        <ele>628.317</ele>
        <time>2021-05-22T10:53:50Z</time>
      </trkpt>
      <trkpt lat="43.52461" lon="2.50147">
        <ele>628.352</ele>
        <time>2021-05-22T10:53:52Z</time>
      </trkpt>
      <trkpt lat="43.52461" lon="2.50147">
        <ele>628.438</ele>
        <time>2021-05-22T10:53:54Z</time>
      </trkpt>
      <trkpt lat="43.52461" lon="2.50147">
        <ele>628.484</ele>
        <time>2021-05-22T10:53:56Z</time>
      </trkpt>
      <trkpt lat="43.52461" lon="2.50147">
        <ele>628.507</ele>
        <time>2021-05-22T10:53:58Z</time>
      </trkpt>
      <trkpt lat="43.52461" lon="2.50147">
        <ele>628.526</ele>
        <time>2021-05-22T10:54:00Z</time>
      </trkpt>
      <trkpt lat="43.52461" lon="2.50147">
        <ele>628.575</ele>
        <time>2021-05-22T10:54:02Z</time>
      </trkpt>
      <trkpt lat="43.52461" lon="2.50148">
        <ele>628.643</ele>
        <time>2021-05-22T10:54:04Z</time>
      </trkpt>
      <trkpt lat="43.52461" lon="2.50148">
        <ele>628.693</ele>
        <time>2021-05-22T10:54:06Z</time>
      </trkpt>
      <trkpt lat="43.52461" lon="2.50148">
        <ele>628.735</ele>
        <time>2021-05-22T10:54:08Z</time>
      </trkpt>
      <trkpt lat="43.52461" lon="2.50148">
        <ele>628.736</ele>
        <time>2021-05-22T10:54:10Z</time>
      </trkpt>
      <trkpt lat="43.52461" lon="2.50148">
        <ele>628.76</ele>
        <time>2021-05-22T10:54:12Z</time>
      </trkpt>
      <trkpt lat="43.52461" lon="2.50148">
        <ele>628.78</ele>
        <time>2021-05-22T10:54:14Z</time>
      </trkpt>
      <trkpt lat="43.52461" lon="2.50148">
        <ele>628.787</ele>
        <time>2021-05-22T10:54:16Z</time>
      </trkpt>
      <trkpt lat="43.52461" lon="2.50148">
        <ele>628.826</ele>
        <time>2021-05-22T10:54:18Z</time>
      </trkpt>
      <trkpt lat="43.52461" lon="2.50148">
        <ele>628.853</ele>
        <time>2021-05-22T10:54:20Z</time>
      </trkpt>
      <trkpt lat="43.52461" lon="2.50148">
        <ele>628.881</ele>
        <time>2021-05-22T10:54:22Z</time>
      </trkpt>
      <trkpt lat="43.52461" lon="2.50148">
        <ele>628.952</ele>
        <time>2021-05-22T10:54:24Z</time>
      </trkpt>
      <trkpt lat="43.52461" lon="2.50148">
        <ele>628.966</ele>
        <time>2021-05-22T10:54:26Z</time>
      </trkpt>
      <trkpt lat="43.52461" lon="2.50148">
        <ele>629.006</ele>
        <time>2021-05-22T10:54:28Z</time>
      </trkpt>
      <trkpt lat="43.52461" lon="2.50148">
        <ele>629.002</ele>
        <time>2021-05-22T10:54:30Z</time>
      </trkpt>
      <trkpt lat="43.52461" lon="2.50148">
        <ele>629.023</ele>
        <time>2021-05-22T10:54:32Z</time>
      </trkpt>
      <trkpt lat="43.52461" lon="2.50148">
        <ele>628.816</ele>
        <time>2021-05-22T10:54:34Z</time>
      </trkpt>
      <trkpt lat="43.52461" lon="2.50148">
        <ele>628.806</ele>
        <time>2021-05-22T10:54:36Z</time>
      </trkpt>
      <trkpt lat="43.52463" lon="2.50145">
        <ele>628.718</ele>
        <time>2021-05-22T10:54:38Z</time>
      </trkpt>
      <trkpt lat="43.52461" lon="2.50142">
        <ele>629.342</ele>
        <time>2021-05-22T10:54:40Z</time>
      </trkpt>
      <trkpt lat="43.52461" lon="2.50139">
        <ele>629.208</ele>
        <time>2021-05-22T10:54:42Z</time>
      </trkpt>
      <trkpt lat="43.52461" lon="2.50136">
        <ele>629.346</ele>
        <time>2021-05-22T10:54:44Z</time>
      </trkpt>
      <trkpt lat="43.5246" lon="2.50132">
        <ele>630.863</ele>
        <time>2021-05-22T10:54:46Z</time>
      </trkpt>
      <trkpt lat="43.5246" lon="2.50129">
        <ele>629.761</ele>
        <time>2021-05-22T10:54:48Z</time>
      </trkpt>
      <trkpt lat="43.5246" lon="2.50126">
        <ele>629.555</ele>
        <time>2021-05-22T10:54:50Z</time>
      </trkpt>
      <trkpt lat="43.52459" lon="2.50122">
        <ele>629.755</ele>
        <time>2021-05-22T10:54:52Z</time>
      </trkpt>
      <trkpt lat="43.52459" lon="2.50119">
        <ele>629.722</ele>
        <time>2021-05-22T10:54:54Z</time>
      </trkpt>
      <trkpt lat="43.52458" lon="2.50116">
        <ele>630.94</ele>
        <time>2021-05-22T10:54:56Z</time>
      </trkpt>
      <trkpt lat="43.52457" lon="2.50113">
        <ele>630.767</ele>
        <time>2021-05-22T10:54:58Z</time>
      </trkpt>
      <trkpt lat="43.52455" lon="2.5011">
        <ele>630.399</ele>
        <time>2021-05-22T10:55:00Z</time>
      </trkpt>
      <trkpt lat="43.52454" lon="2.50107">
        <ele>630.713</ele>
        <time>2021-05-22T10:55:02Z</time>
      </trkpt>
      <trkpt lat="43.52454" lon="2.50105">
        <ele>631.286</ele>
        <time>2021-05-22T10:55:04Z</time>
      </trkpt>
      <trkpt lat="43.52452" lon="2.50102">
        <ele>631.619</ele>
        <time>2021-05-22T10:55:06Z</time>
      </trkpt>
      <trkpt lat="43.52451" lon="2.50099">
        <ele>632.089</ele>
        <time>2021-05-22T10:55:08Z</time>
      </trkpt>
      <trkpt lat="43.52451" lon="2.50097">
        <ele>632.999</ele>
        <time>2021-05-22T10:55:10Z</time>
      </trkpt>
      <trkpt lat="43.5245" lon="2.50094">
        <ele>634.702</ele>
        <time>2021-05-22T10:55:12Z</time>
      </trkpt>
      <trkpt lat="43.52449" lon="2.50091">
        <ele>634.383</ele>
        <time>2021-05-22T10:55:14Z</time>
      </trkpt>
      <trkpt lat="43.52447" lon="2.50088">
        <ele>635.435</ele>
        <time>2021-05-22T10:55:16Z</time>
      </trkpt>
      <trkpt lat="43.52447" lon="2.50086">
        <ele>635.255</ele>
        <time>2021-05-22T10:55:18Z</time>
      </trkpt>
      <trkpt lat="43.52445" lon="2.50083">
        <ele>636.377</ele>
        <time>2021-05-22T10:55:20Z</time>
      </trkpt>
      <trkpt lat="43.52444" lon="2.5008">
        <ele>635.747</ele>
        <time>2021-05-22T10:55:22Z</time>
      </trkpt>
      <trkpt lat="43.52443" lon="2.50076">
        <ele>635.039</ele>
        <time>2021-05-22T10:55:24Z</time>
      </trkpt>
      <trkpt lat="43.52441" lon="2.50072">
        <ele>633.357</ele>
        <time>2021-05-22T10:55:26Z</time>
      </trkpt>
      <trkpt lat="43.52441" lon="2.50069">
        <ele>636.059</ele>
        <time>2021-05-22T10:55:28Z</time>
      </trkpt>
      <trkpt lat="43.5244" lon="2.50066">
        <ele>636.279</ele>
        <time>2021-05-22T10:55:30Z</time>
      </trkpt>
      <trkpt lat="43.52438" lon="2.50064">
        <ele>635.694</ele>
        <time>2021-05-22T10:55:32Z</time>
      </trkpt>
      <trkpt lat="43.52437" lon="2.50061">
        <ele>634.301</ele>
        <time>2021-05-22T10:55:34Z</time>
      </trkpt>
      <trkpt lat="43.52436" lon="2.50058">
        <ele>635.128</ele>
        <time>2021-05-22T10:55:36Z</time>
      </trkpt>
      <trkpt lat="43.52435" lon="2.50055">
        <ele>637.558</ele>
        <time>2021-05-22T10:55:38Z</time>
      </trkpt>
      <trkpt lat="43.52433" lon="2.50052">
        <ele>637.455</ele>
        <time>2021-05-22T10:55:40Z</time>
      </trkpt>
      <trkpt lat="43.52432" lon="2.5005">
        <ele>639.774</ele>
        <time>2021-05-22T10:55:42Z</time>
      </trkpt>
      <trkpt lat="43.5243" lon="2.50047">
        <ele>639.857</ele>
        <time>2021-05-22T10:55:44Z</time>
      </trkpt>
      <trkpt lat="43.52428" lon="2.50045">
        <ele>638.712</ele>
        <time>2021-05-22T10:55:46Z</time>
      </trkpt>
      <trkpt lat="43.52427" lon="2.50042">
        <ele>639.163</ele>
        <time>2021-05-22T10:55:48Z</time>
      </trkpt>
      <trkpt lat="43.52425" lon="2.5004">
        <ele>640.078</ele>
        <time>2021-05-22T10:55:50Z</time>
      </trkpt>
      <trkpt lat="43.52423" lon="2.50038">
        <ele>638.96</ele>
        <time>2021-05-22T10:55:52Z</time>
      </trkpt>
      <trkpt lat="43.52421" lon="2.50037">
        <ele>640.778</ele>
        <time>2021-05-22T10:55:54Z</time>
      </trkpt>
      <trkpt lat="43.52419" lon="2.50035">
        <ele>640.993</ele>
        <time>2021-05-22T10:55:56Z</time>
      </trkpt>
      <trkpt lat="43.52416" lon="2.50032">
        <ele>641.983</ele>
        <time>2021-05-22T10:55:58Z</time>
      </trkpt>
      <trkpt lat="43.52414" lon="2.50031">
        <ele>641.652</ele>
        <time>2021-05-22T10:56:00Z</time>
      </trkpt>
      <trkpt lat="43.52411" lon="2.50029">
        <ele>641.711</ele>
        <time>2021-05-22T10:56:02Z</time>
      </trkpt>
      <trkpt lat="43.52409" lon="2.50028">
        <ele>640.281</ele>
        <time>2021-05-22T10:56:04Z</time>
      </trkpt>
      <trkpt lat="43.52407" lon="2.50027">
        <ele>641.982</ele>
        <time>2021-05-22T10:56:06Z</time>
      </trkpt>
      <trkpt lat="43.52405" lon="2.50026">
        <ele>640.647</ele>
        <time>2021-05-22T10:56:08Z</time>
      </trkpt>
      <trkpt lat="43.52402" lon="2.50026">
        <ele>639.708</ele>
        <time>2021-05-22T10:56:10Z</time>
      </trkpt>
      <trkpt lat="43.524" lon="2.50026">
        <ele>640.783</ele>
        <time>2021-05-22T10:56:12Z</time>
      </trkpt>
      <trkpt lat="43.52398" lon="2.50026">
        <ele>642.17</ele>
        <time>2021-05-22T10:56:14Z</time>
      </trkpt>
      <trkpt lat="43.52394" lon="2.50025">
        <ele>640.268</ele>
        <time>2021-05-22T10:56:16Z</time>
      </trkpt>
      <trkpt lat="43.52392" lon="2.50025">
        <ele>639.375</ele>
        <time>2021-05-22T10:56:18Z</time>
      </trkpt>
      <trkpt lat="43.52389" lon="2.50025">
        <ele>641.508</ele>
        <time>2021-05-22T10:56:20Z</time>
      </trkpt>
      <trkpt lat="43.52386" lon="2.50023">
        <ele>642.375</ele>
        <time>2021-05-22T10:56:22Z</time>
      </trkpt>
      <trkpt lat="43.52383" lon="2.5002">
        <ele>641.495</ele>
        <time>2021-05-22T10:56:24Z</time>
      </trkpt>
      <trkpt lat="43.52381" lon="2.50018">
        <ele>641.206</ele>
        <time>2021-05-22T10:56:26Z</time>
      </trkpt>
      <trkpt lat="43.52379" lon="2.50016">
        <ele>641.512</ele>
        <time>2021-05-22T10:56:28Z</time>
      </trkpt>
      <trkpt lat="43.52376" lon="2.50014">
        <ele>641.94</ele>
        <time>2021-05-22T10:56:30Z</time>
      </trkpt>
      <trkpt lat="43.52374" lon="2.5001">
        <ele>642.21</ele>
        <time>2021-05-22T10:56:32Z</time>
      </trkpt>
      <trkpt lat="43.52373" lon="2.50006">
        <ele>642.928</ele>
        <time>2021-05-22T10:56:34Z</time>
      </trkpt>
      <trkpt lat="43.52371" lon="2.50003">
        <ele>643.434</ele>
        <time>2021-05-22T10:56:36Z</time>
      </trkpt>
      <trkpt lat="43.5237" lon="2.49999">
        <ele>645.826</ele>
        <time>2021-05-22T10:56:38Z</time>
      </trkpt>
      <trkpt lat="43.52369" lon="2.49995">
        <ele>648.707</ele>
        <time>2021-05-22T10:56:40Z</time>
      </trkpt>
      <trkpt lat="43.5237" lon="2.49992">
        <ele>647.201</ele>
        <time>2021-05-22T10:56:42Z</time>
      </trkpt>
      <trkpt lat="43.52369" lon="2.49988">
        <ele>647.21</ele>
        <time>2021-05-22T10:56:44Z</time>
      </trkpt>
      <trkpt lat="43.52368" lon="2.49985">
        <ele>646.085</ele>
        <time>2021-05-22T10:56:46Z</time>
      </trkpt>
      <trkpt lat="43.52367" lon="2.49982">
        <ele>646.134</ele>
        <time>2021-05-22T10:56:48Z</time>
      </trkpt>
      <trkpt lat="43.52367" lon="2.49979">
        <ele>646.212</ele>
        <time>2021-05-22T10:56:50Z</time>
      </trkpt>
      <trkpt lat="43.52366" lon="2.49976">
        <ele>644.89</ele>
        <time>2021-05-22T10:56:52Z</time>
      </trkpt>
      <trkpt lat="43.52366" lon="2.49973">
        <ele>644.697</ele>
        <time>2021-05-22T10:56:54Z</time>
      </trkpt>
      <trkpt lat="43.52366" lon="2.4997">
        <ele>643.527</ele>
        <time>2021-05-22T10:56:56Z</time>
      </trkpt>
      <trkpt lat="43.52365" lon="2.49967">
        <ele>642.81</ele>
        <time>2021-05-22T10:56:58Z</time>
      </trkpt>
      <trkpt lat="43.52365" lon="2.49964">
        <ele>642.801</ele>
        <time>2021-05-22T10:57:00Z</time>
      </trkpt>
      <trkpt lat="43.52365" lon="2.49961">
        <ele>642.972</ele>
        <time>2021-05-22T10:57:02Z</time>
      </trkpt>
      <trkpt lat="43.52364" lon="2.49957">
        <ele>645.299</ele>
        <time>2021-05-22T10:57:04Z</time>
      </trkpt>
      <trkpt lat="43.52363" lon="2.49954">
        <ele>645.504</ele>
        <time>2021-05-22T10:57:06Z</time>
      </trkpt>
      <trkpt lat="43.52362" lon="2.49951">
        <ele>645.986</ele>
        <time>2021-05-22T10:57:08Z</time>
      </trkpt>
      <trkpt lat="43.52362" lon="2.49947">
        <ele>647.89</ele>
        <time>2021-05-22T10:57:10Z</time>
      </trkpt>
      <trkpt lat="43.52361" lon="2.49943">
        <ele>649.149</ele>
        <time>2021-05-22T10:57:12Z</time>
      </trkpt>
      <trkpt lat="43.52359" lon="2.49938">
        <ele>649.214</ele>
        <time>2021-05-22T10:57:14Z</time>
      </trkpt>
      <trkpt lat="43.52359" lon="2.49934">
        <ele>647.725</ele>
        <time>2021-05-22T10:57:16Z</time>
      </trkpt>
      <trkpt lat="43.52357" lon="2.49932">
        <ele>647.662</ele>
        <time>2021-05-22T10:57:18Z</time>
      </trkpt>
      <trkpt lat="43.52357" lon="2.49928">
        <ele>647.03</ele>
        <time>2021-05-22T10:57:20Z</time>
      </trkpt>
      <trkpt lat="43.52357" lon="2.49925">
        <ele>647.721</ele>
        <time>2021-05-22T10:57:22Z</time>
      </trkpt>
      <trkpt lat="43.52356" lon="2.49922">
        <ele>648.632</ele>
        <time>2021-05-22T10:57:24Z</time>
      </trkpt>
      <trkpt lat="43.52356" lon="2.49919">
        <ele>649.287</ele>
        <time>2021-05-22T10:57:26Z</time>
      </trkpt>
      <trkpt lat="43.52356" lon="2.49914">
        <ele>651.776</ele>
        <time>2021-05-22T10:57:28Z</time>
      </trkpt>
      <trkpt lat="43.52355" lon="2.4991">
        <ele>651.743</ele>
        <time>2021-05-22T10:57:30Z</time>
      </trkpt>
      <trkpt lat="43.52354" lon="2.49907">
        <ele>651.49</ele>
        <time>2021-05-22T10:57:32Z</time>
      </trkpt>
      <trkpt lat="43.52353" lon="2.49904">
        <ele>651.879</ele>
        <time>2021-05-22T10:57:34Z</time>
      </trkpt>
      <trkpt lat="43.52352" lon="2.499">
        <ele>652.108</ele>
        <time>2021-05-22T10:57:36Z</time>
      </trkpt>
      <trkpt lat="43.52351" lon="2.49895">
        <ele>652.879</ele>
        <time>2021-05-22T10:57:38Z</time>
      </trkpt>
      <trkpt lat="43.5235" lon="2.49892">
        <ele>651.221</ele>
        <time>2021-05-22T10:57:40Z</time>
      </trkpt>
      <trkpt lat="43.52349" lon="2.49889">
        <ele>650.417</ele>
        <time>2021-05-22T10:57:42Z</time>
      </trkpt>
      <trkpt lat="43.5235" lon="2.49886">
        <ele>651.144</ele>
        <time>2021-05-22T10:57:44Z</time>
      </trkpt>
      <trkpt lat="43.52349" lon="2.49883">
        <ele>650.678</ele>
        <time>2021-05-22T10:57:46Z</time>
      </trkpt>
      <trkpt lat="43.52349" lon="2.4988">
        <ele>650.226</ele>
        <time>2021-05-22T10:57:48Z</time>
      </trkpt>
      <trkpt lat="43.52347" lon="2.49877">
        <ele>650.297</ele>
        <time>2021-05-22T10:57:50Z</time>
      </trkpt>
      <trkpt lat="43.52346" lon="2.49875">
        <ele>650.423</ele>
        <time>2021-05-22T10:57:52Z</time>
      </trkpt>
      <trkpt lat="43.52346" lon="2.49873">
        <ele>650.137</ele>
        <time>2021-05-22T10:57:54Z</time>
      </trkpt>
      <trkpt lat="43.52345" lon="2.49871">
        <ele>649.193</ele>
        <time>2021-05-22T10:57:56Z</time>
      </trkpt>
      <trkpt lat="43.52345" lon="2.49869">
        <ele>650.179</ele>
        <time>2021-05-22T10:57:58Z</time>
      </trkpt>
      <trkpt lat="43.52345" lon="2.49868">
        <ele>651.573</ele>
        <time>2021-05-22T10:58:00Z</time>
      </trkpt>
      <trkpt lat="43.52345" lon="2.49868">
        <ele>650.769</ele>
        <time>2021-05-22T10:58:02Z</time>
      </trkpt>
      <trkpt lat="43.52346" lon="2.49867">
        <ele>650.917</ele>
        <time>2021-05-22T10:58:04Z</time>
      </trkpt>
      <trkpt lat="43.52347" lon="2.49865">
        <ele>650.747</ele>
        <time>2021-05-22T10:58:06Z</time>
      </trkpt>
      <trkpt lat="43.52348" lon="2.49861">
        <ele>650.836</ele>
        <time>2021-05-22T10:58:08Z</time>
      </trkpt>
      <trkpt lat="43.52347" lon="2.49858">
        <ele>651.758</ele>
        <time>2021-05-22T10:58:10Z</time>
      </trkpt>
      <trkpt lat="43.52346" lon="2.49855">
        <ele>650.931</ele>
        <time>2021-05-22T10:58:12Z</time>
      </trkpt>
      <trkpt lat="43.52344" lon="2.49853">
        <ele>651.154</ele>
        <time>2021-05-22T10:58:14Z</time>
      </trkpt>
      <trkpt lat="43.52343" lon="2.4985">
        <ele>651.179</ele>
        <time>2021-05-22T10:58:16Z</time>
      </trkpt>
      <trkpt lat="43.52342" lon="2.49847">
        <ele>650.662</ele>
        <time>2021-05-22T10:58:18Z</time>
      </trkpt>
      <trkpt lat="43.52341" lon="2.49844">
        <ele>651.304</ele>
        <time>2021-05-22T10:58:20Z</time>
      </trkpt>
      <trkpt lat="43.5234" lon="2.49841">
        <ele>652.29</ele>
        <time>2021-05-22T10:58:22Z</time>
      </trkpt>
      <trkpt lat="43.52339" lon="2.49838">
        <ele>652.299</ele>
        <time>2021-05-22T10:58:24Z</time>
      </trkpt>
      <trkpt lat="43.52339" lon="2.49838">
        <ele>652.119</ele>
        <time>2021-05-22T10:58:26Z</time>
      </trkpt>
      <trkpt lat="43.52339" lon="2.49838">
        <ele>652.094</ele>
        <time>2021-05-22T10:58:28Z</time>
      </trkpt>
      <trkpt lat="43.52339" lon="2.49838">
        <ele>652.074</ele>
        <time>2021-05-22T10:58:30Z</time>
      </trkpt>
      <trkpt lat="43.52338" lon="2.49838">
        <ele>652.8</ele>
        <time>2021-05-22T10:58:32Z</time>
      </trkpt>
      <trkpt lat="43.52337" lon="2.49838">
        <ele>652.745</ele>
        <time>2021-05-22T10:58:34Z</time>
      </trkpt>
      <trkpt lat="43.52337" lon="2.49838">
        <ele>654.141</ele>
        <time>2021-05-22T10:58:36Z</time>
      </trkpt>
      <trkpt lat="43.52336" lon="2.49838">
        <ele>654.139</ele>
        <time>2021-05-22T10:58:38Z</time>
      </trkpt>
      <trkpt lat="43.52336" lon="2.49838">
        <ele>654.133</ele>
        <time>2021-05-22T10:58:40Z</time>
      </trkpt>
      <trkpt lat="43.52336" lon="2.49838">
        <ele>654.135</ele>
        <time>2021-05-22T10:58:42Z</time>
      </trkpt>
      <trkpt lat="43.52336" lon="2.49837">
        <ele>654.007</ele>
        <time>2021-05-22T10:58:44Z</time>
      </trkpt>
      <trkpt lat="43.52335" lon="2.49837">
        <ele>655.002</ele>
        <time>2021-05-22T10:58:46Z</time>
      </trkpt>
      <trkpt lat="43.52335" lon="2.49836">
        <ele>655.253</ele>
        <time>2021-05-22T10:58:48Z</time>
      </trkpt>
      <trkpt lat="43.52334" lon="2.49834">
        <ele>655.008</ele>
        <time>2021-05-22T10:58:50Z</time>
      </trkpt>
      <trkpt lat="43.52332" lon="2.49833">
        <ele>654.383</ele>
        <time>2021-05-22T10:58:52Z</time>
      </trkpt>
      <trkpt lat="43.5233" lon="2.49832">
        <ele>654.229</ele>
        <time>2021-05-22T10:58:54Z</time>
      </trkpt>
      <trkpt lat="43.52328" lon="2.4983">
        <ele>652.237</ele>
        <time>2021-05-22T10:58:56Z</time>
      </trkpt>
      <trkpt lat="43.52326" lon="2.49827">
        <ele>651.703</ele>
        <time>2021-05-22T10:58:58Z</time>
      </trkpt>
      <trkpt lat="43.52325" lon="2.49825">
        <ele>650.923</ele>
        <time>2021-05-22T10:59:00Z</time>
      </trkpt>
      <trkpt lat="43.52323" lon="2.49823">
        <ele>651.173</ele>
        <time>2021-05-22T10:59:02Z</time>
      </trkpt>
      <trkpt lat="43.5232" lon="2.49822">
        <ele>650.452</ele>
        <time>2021-05-22T10:59:04Z</time>
      </trkpt>
      <trkpt lat="43.52317" lon="2.4982">
        <ele>647.199</ele>
        <time>2021-05-22T10:59:06Z</time>
      </trkpt>
      <trkpt lat="43.52315" lon="2.49819">
        <ele>647.744</ele>
        <time>2021-05-22T10:59:08Z</time>
      </trkpt>
      <trkpt lat="43.52314" lon="2.49818">
        <ele>646.306</ele>
        <time>2021-05-22T10:59:10Z</time>
      </trkpt>
      <trkpt lat="43.52312" lon="2.49819">
        <ele>645.046</ele>
        <time>2021-05-22T10:59:12Z</time>
      </trkpt>
      <trkpt lat="43.5231" lon="2.49819">
        <ele>644.465</ele>
        <time>2021-05-22T10:59:14Z</time>
      </trkpt>
      <trkpt lat="43.52308" lon="2.49818">
        <ele>643.897</ele>
        <time>2021-05-22T10:59:16Z</time>
      </trkpt>
      <trkpt lat="43.52307" lon="2.49818">
        <ele>643.858</ele>
        <time>2021-05-22T10:59:18Z</time>
      </trkpt>
      <trkpt lat="43.52304" lon="2.49818">
        <ele>642.08</ele>
        <time>2021-05-22T10:59:20Z</time>
      </trkpt>
      <trkpt lat="43.52302" lon="2.49818">
        <ele>641.453</ele>
        <time>2021-05-22T10:59:22Z</time>
      </trkpt>
      <trkpt lat="43.523" lon="2.49819">
        <ele>639.539</ele>
        <time>2021-05-22T10:59:24Z</time>
      </trkpt>
      <trkpt lat="43.52298" lon="2.49819">
        <ele>640.839</ele>
        <time>2021-05-22T10:59:26Z</time>
      </trkpt>
      <trkpt lat="43.52297" lon="2.49819">
        <ele>640.354</ele>
        <time>2021-05-22T10:59:28Z</time>
      </trkpt>
      <trkpt lat="43.52295" lon="2.49818">
        <ele>639.624</ele>
        <time>2021-05-22T10:59:30Z</time>
      </trkpt>
      <trkpt lat="43.52296" lon="2.49818">
        <ele>640.043</ele>
        <time>2021-05-22T10:59:32Z</time>
      </trkpt>
      <trkpt lat="43.52296" lon="2.49818">
        <ele>640.053</ele>
        <time>2021-05-22T10:59:34Z</time>
      </trkpt>
      <trkpt lat="43.52296" lon="2.49818">
        <ele>640.059</ele>
        <time>2021-05-22T10:59:36Z</time>
      </trkpt>
      <trkpt lat="43.52296" lon="2.49818">
        <ele>640.061</ele>
        <time>2021-05-22T10:59:38Z</time>
      </trkpt>
      <trkpt lat="43.52296" lon="2.49818">
        <ele>640.064</ele>
        <time>2021-05-22T10:59:40Z</time>
      </trkpt>
      <trkpt lat="43.52296" lon="2.49818">
        <ele>640.067</ele>
        <time>2021-05-22T10:59:42Z</time>
      </trkpt>
      <trkpt lat="43.52296" lon="2.49818">
        <ele>639.861</ele>
        <time>2021-05-22T10:59:44Z</time>
      </trkpt>
      <trkpt lat="43.52296" lon="2.49819">
        <ele>640.368</ele>
        <time>2021-05-22T10:59:46Z</time>
      </trkpt>
      <trkpt lat="43.52297" lon="2.49819">
        <ele>640.582</ele>
        <time>2021-05-22T10:59:48Z</time>
      </trkpt>
      <trkpt lat="43.52299" lon="2.49819">
        <ele>641.635</ele>
        <time>2021-05-22T10:59:50Z</time>
      </trkpt>
      <trkpt lat="43.523" lon="2.49818">
        <ele>642.539</ele>
        <time>2021-05-22T10:59:52Z</time>
      </trkpt>
      <trkpt lat="43.52302" lon="2.49827">
        <ele>643.697</ele>
        <time>2021-05-22T10:59:54Z</time>
      </trkpt>
      <trkpt lat="43.52304" lon="2.49827">
        <ele>642.763</ele>
        <time>2021-05-22T10:59:56Z</time>
      </trkpt>
      <trkpt lat="43.52307" lon="2.49827">
        <ele>644.202</ele>
        <time>2021-05-22T10:59:58Z</time>
      </trkpt>
      <trkpt lat="43.52309" lon="2.49826">
        <ele>646.033</ele>
        <time>2021-05-22T11:00:00Z</time>
      </trkpt>
      <trkpt lat="43.52307" lon="2.49825">
        <ele>645.474</ele>
        <time>2021-05-22T11:00:02Z</time>
      </trkpt>
      <trkpt lat="43.52308" lon="2.49825">
        <ele>645.841</ele>
        <time>2021-05-22T11:00:04Z</time>
      </trkpt>
      <trkpt lat="43.5231" lon="2.49824">
        <ele>646.943</ele>
        <time>2021-05-22T11:00:06Z</time>
      </trkpt>
      <trkpt lat="43.52312" lon="2.49824">
        <ele>645.733</ele>
        <time>2021-05-22T11:00:08Z</time>
      </trkpt>
      <trkpt lat="43.52314" lon="2.49825">
        <ele>645.336</ele>
        <time>2021-05-22T11:00:10Z</time>
      </trkpt>
      <trkpt lat="43.52316" lon="2.49826">
        <ele>645.757</ele>
        <time>2021-05-22T11:00:12Z</time>
      </trkpt>
      <trkpt lat="43.52318" lon="2.49827">
        <ele>646.104</ele>
        <time>2021-05-22T11:00:14Z</time>
      </trkpt>
      <trkpt lat="43.5232" lon="2.49828">
        <ele>646.072</ele>
        <time>2021-05-22T11:00:16Z</time>
      </trkpt>
      <trkpt lat="43.52322" lon="2.49828">
        <ele>645.373</ele>
        <time>2021-05-22T11:00:18Z</time>
      </trkpt>
      <trkpt lat="43.52324" lon="2.49828">
        <ele>644.784</ele>
        <time>2021-05-22T11:00:20Z</time>
      </trkpt>
      <trkpt lat="43.52326" lon="2.49829">
        <ele>643.871</ele>
        <time>2021-05-22T11:00:22Z</time>
      </trkpt>
      <trkpt lat="43.52326" lon="2.49833">
        <ele>642.448</ele>
        <time>2021-05-22T11:00:24Z</time>
      </trkpt>
      <trkpt lat="43.52327" lon="2.49835">
        <ele>643.786</ele>
        <time>2021-05-22T11:00:26Z</time>
      </trkpt>
      <trkpt lat="43.52329" lon="2.49832">
        <ele>643.701</ele>
        <time>2021-05-22T11:00:28Z</time>
      </trkpt>
      <trkpt lat="43.5233" lon="2.4983">
        <ele>645.643</ele>
        <time>2021-05-22T11:00:30Z</time>
      </trkpt>
      <trkpt lat="43.5233" lon="2.49827">
        <ele>644.412</ele>
        <time>2021-05-22T11:00:32Z</time>
      </trkpt>
      <trkpt lat="43.52332" lon="2.49823">
        <ele>643.946</ele>
        <time>2021-05-22T11:00:34Z</time>
      </trkpt>
      <trkpt lat="43.52334" lon="2.4982">
        <ele>642.402</ele>
        <time>2021-05-22T11:00:36Z</time>
      </trkpt>
      <trkpt lat="43.52336" lon="2.49816">
        <ele>642.166</ele>
        <time>2021-05-22T11:00:38Z</time>
      </trkpt>
      <trkpt lat="43.52336" lon="2.49813">
        <ele>642.896</ele>
        <time>2021-05-22T11:00:40Z</time>
      </trkpt>
      <trkpt lat="43.52337" lon="2.4981">
        <ele>643.781</ele>
        <time>2021-05-22T11:00:42Z</time>
      </trkpt>
      <trkpt lat="43.52338" lon="2.49807">
        <ele>643.662</ele>
        <time>2021-05-22T11:00:44Z</time>
      </trkpt>
      <trkpt lat="43.52338" lon="2.49804">
        <ele>643.277</ele>
        <time>2021-05-22T11:00:46Z</time>
      </trkpt>
      <trkpt lat="43.52339" lon="2.49802">
        <ele>642.645</ele>
        <time>2021-05-22T11:00:48Z</time>
      </trkpt>
      <trkpt lat="43.52339" lon="2.49799">
        <ele>643.826</ele>
        <time>2021-05-22T11:00:50Z</time>
      </trkpt>
      <trkpt lat="43.52339" lon="2.49793">
        <ele>644.281</ele>
        <time>2021-05-22T11:00:52Z</time>
      </trkpt>
      <trkpt lat="43.52338" lon="2.49789">
        <ele>644.533</ele>
        <time>2021-05-22T11:00:54Z</time>
      </trkpt>
      <trkpt lat="43.52337" lon="2.49785">
        <ele>644.49</ele>
        <time>2021-05-22T11:00:56Z</time>
      </trkpt>
      <trkpt lat="43.52336" lon="2.49782">
        <ele>644.225</ele>
        <time>2021-05-22T11:00:58Z</time>
      </trkpt>
      <trkpt lat="43.52336" lon="2.49779">
        <ele>642.597</ele>
        <time>2021-05-22T11:01:00Z</time>
      </trkpt>
      <trkpt lat="43.52334" lon="2.49778">
        <ele>640.883</ele>
        <time>2021-05-22T11:01:02Z</time>
      </trkpt>
      <trkpt lat="43.52334" lon="2.49777">
        <ele>640.764</ele>
        <time>2021-05-22T11:01:04Z</time>
      </trkpt>
      <trkpt lat="43.52332" lon="2.49776">
        <ele>641.529</ele>
        <time>2021-05-22T11:01:06Z</time>
      </trkpt>
      <trkpt lat="43.52331" lon="2.49774">
        <ele>640.774</ele>
        <time>2021-05-22T11:01:08Z</time>
      </trkpt>
      <trkpt lat="43.5233" lon="2.49772">
        <ele>641.314</ele>
        <time>2021-05-22T11:01:10Z</time>
      </trkpt>
      <trkpt lat="43.52328" lon="2.49769">
        <ele>642.357</ele>
        <time>2021-05-22T11:01:12Z</time>
      </trkpt>
      <trkpt lat="43.52327" lon="2.49767">
        <ele>640.573</ele>
        <time>2021-05-22T11:01:14Z</time>
      </trkpt>
      <trkpt lat="43.52326" lon="2.49766">
        <ele>641.469</ele>
        <time>2021-05-22T11:01:16Z</time>
      </trkpt>
      <trkpt lat="43.52325" lon="2.49763">
        <ele>640.514</ele>
        <time>2021-05-22T11:01:18Z</time>
      </trkpt>
      <trkpt lat="43.52323" lon="2.49762">
        <ele>638.927</ele>
        <time>2021-05-22T11:01:20Z</time>
      </trkpt>
      <trkpt lat="43.52321" lon="2.4976">
        <ele>636.751</ele>
        <time>2021-05-22T11:01:22Z</time>
      </trkpt>
      <trkpt lat="43.52319" lon="2.49759">
        <ele>636.545</ele>
        <time>2021-05-22T11:01:24Z</time>
      </trkpt>
      <trkpt lat="43.52317" lon="2.49758">
        <ele>636.114</ele>
        <time>2021-05-22T11:01:26Z</time>
      </trkpt>
      <trkpt lat="43.52316" lon="2.49757">
        <ele>636.157</ele>
        <time>2021-05-22T11:01:28Z</time>
      </trkpt>
      <trkpt lat="43.52314" lon="2.49755">
        <ele>636.307</ele>
        <time>2021-05-22T11:01:30Z</time>
      </trkpt>
      <trkpt lat="43.52312" lon="2.49752">
        <ele>634.094</ele>
        <time>2021-05-22T11:01:32Z</time>
      </trkpt>
      <trkpt lat="43.52309" lon="2.49751">
        <ele>631.548</ele>
        <time>2021-05-22T11:01:34Z</time>
      </trkpt>
      <trkpt lat="43.52307" lon="2.49751">
        <ele>632.341</ele>
        <time>2021-05-22T11:01:36Z</time>
      </trkpt>
      <trkpt lat="43.52304" lon="2.4975">
        <ele>633.166</ele>
        <time>2021-05-22T11:01:38Z</time>
      </trkpt>
      <trkpt lat="43.52302" lon="2.49749">
        <ele>632.98</ele>
        <time>2021-05-22T11:01:40Z</time>
      </trkpt>
      <trkpt lat="43.523" lon="2.49748">
        <ele>634.69</ele>
        <time>2021-05-22T11:01:42Z</time>
      </trkpt>
      <trkpt lat="43.52299" lon="2.49748">
        <ele>634.522</ele>
        <time>2021-05-22T11:01:44Z</time>
      </trkpt>
      <trkpt lat="43.52297" lon="2.49746">
        <ele>634.582</ele>
        <time>2021-05-22T11:01:46Z</time>
      </trkpt>
      <trkpt lat="43.52295" lon="2.49744">
        <ele>634.332</ele>
        <time>2021-05-22T11:01:48Z</time>
      </trkpt>
      <trkpt lat="43.52295" lon="2.49741">
        <ele>635.187</ele>
        <time>2021-05-22T11:01:50Z</time>
      </trkpt>
      <trkpt lat="43.52295" lon="2.49738">
        <ele>634.706</ele>
        <time>2021-05-22T11:01:52Z</time>
      </trkpt>
      <trkpt lat="43.52297" lon="2.49735">
        <ele>635.623</ele>
        <time>2021-05-22T11:01:54Z</time>
      </trkpt>
      <trkpt lat="43.52299" lon="2.49733">
        <ele>637.406</ele>
        <time>2021-05-22T11:01:56Z</time>
      </trkpt>
      <trkpt lat="43.52301" lon="2.49731">
        <ele>637.478</ele>
        <time>2021-05-22T11:01:58Z</time>
      </trkpt>
      <trkpt lat="43.52302" lon="2.49729">
        <ele>638.228</ele>
        <time>2021-05-22T11:02:00Z</time>
      </trkpt>
      <trkpt lat="43.52304" lon="2.49728">
        <ele>639.453</ele>
        <time>2021-05-22T11:02:02Z</time>
      </trkpt>
      <trkpt lat="43.52305" lon="2.49727">
        <ele>640.509</ele>
        <time>2021-05-22T11:02:04Z</time>
      </trkpt>
      <trkpt lat="43.52306" lon="2.49726">
        <ele>640.994</ele>
        <time>2021-05-22T11:02:06Z</time>
      </trkpt>
      <trkpt lat="43.52307" lon="2.49724">
        <ele>640.359</ele>
        <time>2021-05-22T11:02:08Z</time>
      </trkpt>
      <trkpt lat="43.52308" lon="2.49722">
        <ele>640.658</ele>
        <time>2021-05-22T11:02:10Z</time>
      </trkpt>
      <trkpt lat="43.52309" lon="2.4972">
        <ele>640.507</ele>
        <time>2021-05-22T11:02:12Z</time>
      </trkpt>
      <trkpt lat="43.52311" lon="2.49718">
        <ele>640.467</ele>
        <time>2021-05-22T11:02:14Z</time>
      </trkpt>
      <trkpt lat="43.52311" lon="2.49715">
        <ele>638.638</ele>
        <time>2021-05-22T11:02:16Z</time>
      </trkpt>
      <trkpt lat="43.52313" lon="2.49713">
        <ele>637.383</ele>
        <time>2021-05-22T11:02:18Z</time>
      </trkpt>
      <trkpt lat="43.52315" lon="2.4971">
        <ele>636.686</ele>
        <time>2021-05-22T11:02:20Z</time>
      </trkpt>
      <trkpt lat="43.52316" lon="2.4971">
        <ele>635.793</ele>
        <time>2021-05-22T11:02:22Z</time>
      </trkpt>
      <trkpt lat="43.52318" lon="2.4971">
        <ele>635.175</ele>
        <time>2021-05-22T11:02:24Z</time>
      </trkpt>
      <trkpt lat="43.5232" lon="2.49709">
        <ele>636.716</ele>
        <time>2021-05-22T11:02:26Z</time>
      </trkpt>
      <trkpt lat="43.52322" lon="2.49708">
        <ele>635.816</ele>
        <time>2021-05-22T11:02:28Z</time>
      </trkpt>
      <trkpt lat="43.52323" lon="2.49707">
        <ele>634.458</ele>
        <time>2021-05-22T11:02:30Z</time>
      </trkpt>
      <trkpt lat="43.52324" lon="2.49706">
        <ele>635.959</ele>
        <time>2021-05-22T11:02:32Z</time>
      </trkpt>
      <trkpt lat="43.52326" lon="2.49705">
        <ele>635.423</ele>
        <time>2021-05-22T11:02:34Z</time>
      </trkpt>
      <trkpt lat="43.52327" lon="2.49706">
        <ele>635.103</ele>
        <time>2021-05-22T11:02:36Z</time>
      </trkpt>
      <trkpt lat="43.52328" lon="2.49705">
        <ele>635.81</ele>
        <time>2021-05-22T11:02:37Z</time>
      </trkpt>
      <trkpt lat="43.52329" lon="2.49705">
        <ele>634.477</ele>
        <time>2021-05-22T11:02:40Z</time>
      </trkpt>
      <trkpt lat="43.52331" lon="2.49704">
        <ele>633.93</ele>
        <time>2021-05-22T11:02:42Z</time>
      </trkpt>
      <trkpt lat="43.52332" lon="2.49702">
        <ele>632.585</ele>
        <time>2021-05-22T11:02:44Z</time>
      </trkpt>
      <trkpt lat="43.52334" lon="2.49699">
        <ele>632.244</ele>
        <time>2021-05-22T11:02:46Z</time>
      </trkpt>
      <trkpt lat="43.52336" lon="2.49697">
        <ele>630.259</ele>
        <time>2021-05-22T11:02:48Z</time>
      </trkpt>
      <trkpt lat="43.52338" lon="2.49694">
        <ele>630.895</ele>
        <time>2021-05-22T11:02:50Z</time>
      </trkpt>
      <trkpt lat="43.5234" lon="2.49692">
        <ele>631.418</ele>
        <time>2021-05-22T11:02:52Z</time>
      </trkpt>
      <trkpt lat="43.52341" lon="2.49688">
        <ele>631.048</ele>
        <time>2021-05-22T11:02:54Z</time>
      </trkpt>
      <trkpt lat="43.52341" lon="2.49685">
        <ele>631.486</ele>
        <time>2021-05-22T11:02:56Z</time>
      </trkpt>
      <trkpt lat="43.52342" lon="2.49682">
        <ele>632.705</ele>
        <time>2021-05-22T11:02:58Z</time>
      </trkpt>
      <trkpt lat="43.52342" lon="2.49678">
        <ele>632.454</ele>
        <time>2021-05-22T11:03:00Z</time>
      </trkpt>
      <trkpt lat="43.52343" lon="2.49676">
        <ele>630.119</ele>
        <time>2021-05-22T11:03:02Z</time>
      </trkpt>
      <trkpt lat="43.52343" lon="2.49673">
        <ele>630.176</ele>
        <time>2021-05-22T11:03:04Z</time>
      </trkpt>
      <trkpt lat="43.52344" lon="2.4967">
        <ele>628.805</ele>
        <time>2021-05-22T11:03:06Z</time>
      </trkpt>
      <trkpt lat="43.52346" lon="2.49669">
        <ele>629.983</ele>
        <time>2021-05-22T11:03:08Z</time>
      </trkpt>
      <trkpt lat="43.52347" lon="2.49667">
        <ele>629.657</ele>
        <time>2021-05-22T11:03:10Z</time>
      </trkpt>
      <trkpt lat="43.52348" lon="2.49665">
        <ele>629.427</ele>
        <time>2021-05-22T11:03:12Z</time>
      </trkpt>
      <trkpt lat="43.5235" lon="2.49664">
        <ele>627.424</ele>
        <time>2021-05-22T11:03:14Z</time>
      </trkpt>
      <trkpt lat="43.52351" lon="2.49662">
        <ele>626.995</ele>
        <time>2021-05-22T11:03:16Z</time>
      </trkpt>
      <trkpt lat="43.52351" lon="2.49659">
        <ele>624.861</ele>
        <time>2021-05-22T11:03:18Z</time>
      </trkpt>
      <trkpt lat="43.52354" lon="2.49657">
        <ele>624.429</ele>
        <time>2021-05-22T11:03:20Z</time>
      </trkpt>
      <trkpt lat="43.52356" lon="2.49656">
        <ele>624.491</ele>
        <time>2021-05-22T11:03:22Z</time>
      </trkpt>
      <trkpt lat="43.52358" lon="2.49655">
        <ele>623.664</ele>
        <time>2021-05-22T11:03:24Z</time>
      </trkpt>
      <trkpt lat="43.5236" lon="2.49654">
        <ele>624.061</ele>
        <time>2021-05-22T11:03:26Z</time>
      </trkpt>
      <trkpt lat="43.52361" lon="2.49651">
        <ele>622.644</ele>
        <time>2021-05-22T11:03:28Z</time>
      </trkpt>
      <trkpt lat="43.52362" lon="2.49648">
        <ele>621.112</ele>
        <time>2021-05-22T11:03:30Z</time>
      </trkpt>
      <trkpt lat="43.52364" lon="2.49645">
        <ele>621.151</ele>
        <time>2021-05-22T11:03:32Z</time>
      </trkpt>
      <trkpt lat="43.52363" lon="2.49641">
        <ele>620.003</ele>
        <time>2021-05-22T11:03:34Z</time>
      </trkpt>
      <trkpt lat="43.52363" lon="2.49639">
        <ele>620.875</ele>
        <time>2021-05-22T11:03:36Z</time>
      </trkpt>
      <trkpt lat="43.52362" lon="2.49635">
        <ele>619.327</ele>
        <time>2021-05-22T11:03:38Z</time>
      </trkpt>
      <trkpt lat="43.5236" lon="2.49633">
        <ele>618.289</ele>
        <time>2021-05-22T11:03:40Z</time>
      </trkpt>
      <trkpt lat="43.52359" lon="2.4963">
        <ele>618.088</ele>
        <time>2021-05-22T11:03:42Z</time>
      </trkpt>
      <trkpt lat="43.52357" lon="2.49629">
        <ele>617.11</ele>
        <time>2021-05-22T11:03:44Z</time>
      </trkpt>
      <trkpt lat="43.52356" lon="2.49627">
        <ele>616.434</ele>
        <time>2021-05-22T11:03:46Z</time>
      </trkpt>
      <trkpt lat="43.52354" lon="2.49626">
        <ele>615.232</ele>
        <time>2021-05-22T11:03:48Z</time>
      </trkpt>
      <trkpt lat="43.52352" lon="2.49625">
        <ele>614.554</ele>
        <time>2021-05-22T11:03:50Z</time>
      </trkpt>
      <trkpt lat="43.52352" lon="2.49625">
        <ele>614.04</ele>
        <time>2021-05-22T11:03:52Z</time>
      </trkpt>
      <trkpt lat="43.52352" lon="2.49625">
        <ele>614.05</ele>
        <time>2021-05-22T11:03:54Z</time>
      </trkpt>
      <trkpt lat="43.52352" lon="2.49625">
        <ele>614.047</ele>
        <time>2021-05-22T11:03:56Z</time>
      </trkpt>
      <trkpt lat="43.52352" lon="2.49625">
        <ele>614.045</ele>
        <time>2021-05-22T11:03:58Z</time>
      </trkpt>
      <trkpt lat="43.52352" lon="2.49625">
        <ele>614.022</ele>
        <time>2021-05-22T11:04:00Z</time>
      </trkpt>
      <trkpt lat="43.52352" lon="2.49625">
        <ele>614.012</ele>
        <time>2021-05-22T11:04:02Z</time>
      </trkpt>
      <trkpt lat="43.52352" lon="2.49625">
        <ele>613.996</ele>
        <time>2021-05-22T11:04:04Z</time>
      </trkpt>
      <trkpt lat="43.52352" lon="2.49625">
        <ele>613.998</ele>
        <time>2021-05-22T11:04:06Z</time>
      </trkpt>
      <trkpt lat="43.52352" lon="2.49625">
        <ele>613.997</ele>
        <time>2021-05-22T11:04:08Z</time>
      </trkpt>
      <trkpt lat="43.52352" lon="2.49625">
        <ele>613.997</ele>
        <time>2021-05-22T11:04:10Z</time>
      </trkpt>
      <trkpt lat="43.5235" lon="2.49625">
        <ele>613.869</ele>
        <time>2021-05-22T11:04:12Z</time>
      </trkpt>
      <trkpt lat="43.52349" lon="2.49625">
        <ele>613.437</ele>
        <time>2021-05-22T11:04:14Z</time>
      </trkpt>
      <trkpt lat="43.52347" lon="2.49626">
        <ele>614.052</ele>
        <time>2021-05-22T11:04:16Z</time>
      </trkpt>
      <trkpt lat="43.52345" lon="2.49627">
        <ele>613.889</ele>
        <time>2021-05-22T11:04:18Z</time>
      </trkpt>
      <trkpt lat="43.52343" lon="2.49627">
        <ele>614.446</ele>
        <time>2021-05-22T11:04:20Z</time>
      </trkpt>
      <trkpt lat="43.52342" lon="2.49627">
        <ele>613.326</ele>
        <time>2021-05-22T11:04:22Z</time>
      </trkpt>
      <trkpt lat="43.5234" lon="2.49627">
        <ele>613.1</ele>
        <time>2021-05-22T11:04:24Z</time>
      </trkpt>
      <trkpt lat="43.52338" lon="2.49627">
        <ele>613.369</ele>
        <time>2021-05-22T11:04:26Z</time>
      </trkpt>
      <trkpt lat="43.52336" lon="2.49627">
        <ele>614.126</ele>
        <time>2021-05-22T11:04:28Z</time>
      </trkpt>
      <trkpt lat="43.52335" lon="2.49629">
        <ele>612.197</ele>
        <time>2021-05-22T11:04:30Z</time>
      </trkpt>
      <trkpt lat="43.52333" lon="2.49628">
        <ele>609.93</ele>
        <time>2021-05-22T11:04:32Z</time>
      </trkpt>
      <trkpt lat="43.52331" lon="2.49626">
        <ele>609.027</ele>
        <time>2021-05-22T11:04:34Z</time>
      </trkpt>
      <trkpt lat="43.52331" lon="2.49623">
        <ele>607.308</ele>
        <time>2021-05-22T11:04:36Z</time>
      </trkpt>
      <trkpt lat="43.52331" lon="2.49619">
        <ele>610.013</ele>
        <time>2021-05-22T11:04:38Z</time>
      </trkpt>
      <trkpt lat="43.52332" lon="2.49617">
        <ele>610.409</ele>
        <time>2021-05-22T11:04:40Z</time>
      </trkpt>
      <trkpt lat="43.52333" lon="2.49614">
        <ele>611.068</ele>
        <time>2021-05-22T11:04:42Z</time>
      </trkpt>
      <trkpt lat="43.52335" lon="2.49611">
        <ele>611.807</ele>
        <time>2021-05-22T11:04:44Z</time>
      </trkpt>
      <trkpt lat="43.52336" lon="2.49609">
        <ele>611.119</ele>
        <time>2021-05-22T11:04:46Z</time>
      </trkpt>
      <trkpt lat="43.52338" lon="2.49606">
        <ele>610.05</ele>
        <time>2021-05-22T11:04:48Z</time>
      </trkpt>
      <trkpt lat="43.52339" lon="2.49605">
        <ele>611.469</ele>
        <time>2021-05-22T11:04:50Z</time>
      </trkpt>
      <trkpt lat="43.52341" lon="2.49602">
        <ele>610.667</ele>
        <time>2021-05-22T11:04:52Z</time>
      </trkpt>
      <trkpt lat="43.52343" lon="2.496">
        <ele>609.69</ele>
        <time>2021-05-22T11:04:54Z</time>
      </trkpt>
      <trkpt lat="43.52345" lon="2.49598">
        <ele>608.348</ele>
        <time>2021-05-22T11:04:56Z</time>
      </trkpt>
      <trkpt lat="43.52347" lon="2.49596">
        <ele>606.984</ele>
        <time>2021-05-22T11:04:58Z</time>
      </trkpt>
      <trkpt lat="43.52349" lon="2.49595">
        <ele>608.307</ele>
        <time>2021-05-22T11:05:00Z</time>
      </trkpt>
      <trkpt lat="43.52351" lon="2.49594">
        <ele>608.723</ele>
        <time>2021-05-22T11:05:02Z</time>
      </trkpt>
      <trkpt lat="43.52352" lon="2.49592">
        <ele>610.637</ele>
        <time>2021-05-22T11:05:04Z</time>
      </trkpt>
      <trkpt lat="43.52354" lon="2.49591">
        <ele>611.024</ele>
        <time>2021-05-22T11:05:06Z</time>
      </trkpt>
      <trkpt lat="43.52356" lon="2.4959">
        <ele>612.523</ele>
        <time>2021-05-22T11:05:08Z</time>
      </trkpt>
      <trkpt lat="43.52358" lon="2.49589">
        <ele>612.963</ele>
        <time>2021-05-22T11:05:10Z</time>
      </trkpt>
      <trkpt lat="43.5236" lon="2.49589">
        <ele>613.576</ele>
        <time>2021-05-22T11:05:12Z</time>
      </trkpt>
      <trkpt lat="43.52361" lon="2.49589">
        <ele>614.517</ele>
        <time>2021-05-22T11:05:14Z</time>
      </trkpt>
      <trkpt lat="43.52363" lon="2.49589">
        <ele>615.852</ele>
        <time>2021-05-22T11:05:16Z</time>
      </trkpt>
      <trkpt lat="43.52365" lon="2.49589">
        <ele>615.832</ele>
        <time>2021-05-22T11:05:18Z</time>
      </trkpt>
      <trkpt lat="43.52366" lon="2.4959">
        <ele>615.499</ele>
        <time>2021-05-22T11:05:20Z</time>
      </trkpt>
      <trkpt lat="43.52367" lon="2.49591">
        <ele>614.723</ele>
        <time>2021-05-22T11:05:22Z</time>
      </trkpt>
      <trkpt lat="43.52369" lon="2.49589">
        <ele>615.466</ele>
        <time>2021-05-22T11:05:24Z</time>
      </trkpt>
      <trkpt lat="43.5237" lon="2.49588">
        <ele>615.747</ele>
        <time>2021-05-22T11:05:26Z</time>
      </trkpt>
      <trkpt lat="43.52371" lon="2.49585">
        <ele>616.873</ele>
        <time>2021-05-22T11:05:28Z</time>
      </trkpt>
      <trkpt lat="43.52369" lon="2.49582">
        <ele>616.263</ele>
        <time>2021-05-22T11:05:30Z</time>
      </trkpt>
      <trkpt lat="43.52369" lon="2.49581">
        <ele>615.843</ele>
        <time>2021-05-22T11:05:32Z</time>
      </trkpt>
      <trkpt lat="43.52367" lon="2.49581">
        <ele>615.282</ele>
        <time>2021-05-22T11:05:34Z</time>
      </trkpt>
      <trkpt lat="43.52365" lon="2.49581">
        <ele>615.653</ele>
        <time>2021-05-22T11:05:36Z</time>
      </trkpt>
      <trkpt lat="43.52362" lon="2.4958">
        <ele>615.802</ele>
        <time>2021-05-22T11:05:38Z</time>
      </trkpt>
      <trkpt lat="43.52361" lon="2.49579">
        <ele>615.536</ele>
        <time>2021-05-22T11:05:40Z</time>
      </trkpt>
      <trkpt lat="43.5236" lon="2.49577">
        <ele>614.218</ele>
        <time>2021-05-22T11:05:42Z</time>
      </trkpt>
      <trkpt lat="43.52359" lon="2.49574">
        <ele>613.005</ele>
        <time>2021-05-22T11:05:44Z</time>
      </trkpt>
      <trkpt lat="43.52358" lon="2.49573">
        <ele>611.904</ele>
        <time>2021-05-22T11:05:46Z</time>
      </trkpt>
      <trkpt lat="43.52358" lon="2.49573">
        <ele>612.092</ele>
        <time>2021-05-22T11:05:48Z</time>
      </trkpt>
      <trkpt lat="43.52358" lon="2.49573">
        <ele>612.09</ele>
        <time>2021-05-22T11:05:50Z</time>
      </trkpt>
      <trkpt lat="43.52358" lon="2.49573">
        <ele>612.08</ele>
        <time>2021-05-22T11:05:52Z</time>
      </trkpt>
      <trkpt lat="43.52358" lon="2.49573">
        <ele>612.082</ele>
        <time>2021-05-22T11:05:54Z</time>
      </trkpt>
      <trkpt lat="43.52358" lon="2.49573">
        <ele>612.078</ele>
        <time>2021-05-22T11:05:56Z</time>
      </trkpt>
      <trkpt lat="43.52358" lon="2.49573">
        <ele>612.074</ele>
        <time>2021-05-22T11:05:58Z</time>
      </trkpt>
      <trkpt lat="43.52358" lon="2.49573">
        <ele>612.102</ele>
        <time>2021-05-22T11:06:00Z</time>
      </trkpt>
      <trkpt lat="43.52358" lon="2.49573">
        <ele>613.676</ele>
        <time>2021-05-22T11:06:02Z</time>
      </trkpt>
      <trkpt lat="43.52358" lon="2.49574">
        <ele>613.744</ele>
        <time>2021-05-22T11:06:04Z</time>
      </trkpt>
      <trkpt lat="43.52358" lon="2.49574">
        <ele>613.749</ele>
        <time>2021-05-22T11:06:06Z</time>
      </trkpt>
      <trkpt lat="43.52358" lon="2.49574">
        <ele>613.761</ele>
        <time>2021-05-22T11:06:08Z</time>
      </trkpt>
      <trkpt lat="43.52358" lon="2.49573">
        <ele>613.838</ele>
        <time>2021-05-22T11:06:10Z</time>
      </trkpt>
      <trkpt lat="43.52357" lon="2.49573">
        <ele>613.963</ele>
        <time>2021-05-22T11:06:12Z</time>
      </trkpt>
      <trkpt lat="43.52357" lon="2.49573">
        <ele>614.058</ele>
        <time>2021-05-22T11:06:14Z</time>
      </trkpt>
      <trkpt lat="43.52357" lon="2.49573">
        <ele>613.859</ele>
        <time>2021-05-22T11:06:16Z</time>
      </trkpt>
      <trkpt lat="43.52357" lon="2.49573">
        <ele>613.855</ele>
        <time>2021-05-22T11:06:18Z</time>
      </trkpt>
      <trkpt lat="43.52357" lon="2.49573">
        <ele>613.863</ele>
        <time>2021-05-22T11:06:20Z</time>
      </trkpt>
      <trkpt lat="43.52357" lon="2.49573">
        <ele>613.868</ele>
        <time>2021-05-22T11:06:22Z</time>
      </trkpt>
      <trkpt lat="43.52357" lon="2.49573">
        <ele>613.873</ele>
        <time>2021-05-22T11:06:24Z</time>
      </trkpt>
      <trkpt lat="43.52357" lon="2.49573">
        <ele>613.869</ele>
        <time>2021-05-22T11:06:26Z</time>
      </trkpt>
      <trkpt lat="43.52357" lon="2.49573">
        <ele>613.847</ele>
        <time>2021-05-22T11:06:28Z</time>
      </trkpt>
      <trkpt lat="43.52357" lon="2.49573">
        <ele>613.846</ele>
        <time>2021-05-22T11:06:30Z</time>
      </trkpt>
      <trkpt lat="43.52357" lon="2.49573">
        <ele>613.854</ele>
        <time>2021-05-22T11:06:32Z</time>
      </trkpt>
      <trkpt lat="43.52357" lon="2.49573">
        <ele>613.867</ele>
        <time>2021-05-22T11:06:34Z</time>
      </trkpt>
      <trkpt lat="43.52357" lon="2.49573">
        <ele>613.875</ele>
        <time>2021-05-22T11:06:36Z</time>
      </trkpt>
      <trkpt lat="43.52357" lon="2.49574">
        <ele>613.218</ele>
        <time>2021-05-22T11:06:38Z</time>
      </trkpt>
      <trkpt lat="43.52357" lon="2.49574">
        <ele>613.038</ele>
        <time>2021-05-22T11:06:40Z</time>
      </trkpt>
      <trkpt lat="43.52357" lon="2.49574">
        <ele>613.049</ele>
        <time>2021-05-22T11:06:42Z</time>
      </trkpt>
      <trkpt lat="43.52357" lon="2.49574">
        <ele>613.051</ele>
        <time>2021-05-22T11:06:44Z</time>
      </trkpt>
      <trkpt lat="43.52357" lon="2.49574">
        <ele>613.043</ele>
        <time>2021-05-22T11:06:46Z</time>
      </trkpt>
      <trkpt lat="43.52357" lon="2.49574">
        <ele>613.046</ele>
        <time>2021-05-22T11:06:48Z</time>
      </trkpt>
      <trkpt lat="43.52357" lon="2.49574">
        <ele>613.053</ele>
        <time>2021-05-22T11:06:50Z</time>
      </trkpt>
      <trkpt lat="43.52357" lon="2.49574">
        <ele>613.053</ele>
        <time>2021-05-22T11:06:52Z</time>
      </trkpt>
      <trkpt lat="43.52357" lon="2.49574">
        <ele>613.053</ele>
        <time>2021-05-22T11:06:54Z</time>
      </trkpt>
      <trkpt lat="43.52357" lon="2.49574">
        <ele>613.06</ele>
        <time>2021-05-22T11:06:56Z</time>
      </trkpt>
      <trkpt lat="43.52357" lon="2.49574">
        <ele>613.061</ele>
        <time>2021-05-22T11:06:58Z</time>
      </trkpt>
      <trkpt lat="43.52357" lon="2.49574">
        <ele>613.062</ele>
        <time>2021-05-22T11:07:00Z</time>
      </trkpt>
      <trkpt lat="43.52357" lon="2.49574">
        <ele>613.054</ele>
        <time>2021-05-22T11:07:02Z</time>
      </trkpt>
      <trkpt lat="43.52357" lon="2.49574">
        <ele>613.045</ele>
        <time>2021-05-22T11:07:04Z</time>
      </trkpt>
      <trkpt lat="43.52357" lon="2.49574">
        <ele>613.06</ele>
        <time>2021-05-22T11:07:06Z</time>
      </trkpt>
      <trkpt lat="43.52357" lon="2.49574">
        <ele>613.049</ele>
        <time>2021-05-22T11:07:08Z</time>
      </trkpt>
      <trkpt lat="43.52357" lon="2.49574">
        <ele>613.104</ele>
        <time>2021-05-22T11:07:10Z</time>
      </trkpt>
      <trkpt lat="43.52357" lon="2.49573">
        <ele>612.627</ele>
        <time>2021-05-22T11:07:12Z</time>
      </trkpt>
      <trkpt lat="43.52356" lon="2.49573">
        <ele>612.638</ele>
        <time>2021-05-22T11:07:14Z</time>
      </trkpt>
      <trkpt lat="43.52356" lon="2.49571">
        <ele>612.712</ele>
        <time>2021-05-22T11:07:16Z</time>
      </trkpt>
      <trkpt lat="43.52355" lon="2.4957">
        <ele>614.448</ele>
        <time>2021-05-22T11:07:18Z</time>
      </trkpt>
      <trkpt lat="43.52353" lon="2.49569">
        <ele>615.045</ele>
        <time>2021-05-22T11:07:20Z</time>
      </trkpt>
      <trkpt lat="43.52352" lon="2.49569">
        <ele>613.033</ele>
        <time>2021-05-22T11:07:22Z</time>
      </trkpt>
      <trkpt lat="43.52352" lon="2.4957">
        <ele>614.535</ele>
        <time>2021-05-22T11:07:24Z</time>
      </trkpt>
      <trkpt lat="43.52352" lon="2.4957">
        <ele>612.865</ele>
        <time>2021-05-22T11:07:26Z</time>
      </trkpt>
      <trkpt lat="43.52351" lon="2.4957">
        <ele>615.262</ele>
        <time>2021-05-22T11:07:28Z</time>
      </trkpt>
      <trkpt lat="43.52349" lon="2.49569">
        <ele>614.461</ele>
        <time>2021-05-22T11:07:30Z</time>
      </trkpt>
      <trkpt lat="43.52348" lon="2.49568">
        <ele>615.926</ele>
        <time>2021-05-22T11:07:32Z</time>
      </trkpt>
      <trkpt lat="43.52347" lon="2.49566">
        <ele>615.899</ele>
        <time>2021-05-22T11:07:34Z</time>
      </trkpt>
      <trkpt lat="43.52347" lon="2.49565">
        <ele>617.506</ele>
        <time>2021-05-22T11:07:36Z</time>
      </trkpt>
      <trkpt lat="43.52347" lon="2.49564">
        <ele>617.287</ele>
        <time>2021-05-22T11:07:38Z</time>
      </trkpt>
      <trkpt lat="43.52347" lon="2.49562">
        <ele>618.199</ele>
        <time>2021-05-22T11:07:40Z</time>
      </trkpt>
      <trkpt lat="43.52348" lon="2.4956">
        <ele>618.932</ele>
        <time>2021-05-22T11:07:42Z</time>
      </trkpt>
      <trkpt lat="43.52345" lon="2.49561">
        <ele>617.62</ele>
        <time>2021-05-22T11:07:44Z</time>
      </trkpt>
      <trkpt lat="43.52343" lon="2.4956">
        <ele>617.044</ele>
        <time>2021-05-22T11:07:46Z</time>
      </trkpt>
      <trkpt lat="43.52342" lon="2.49557">
        <ele>616.498</ele>
        <time>2021-05-22T11:07:48Z</time>
      </trkpt>
      <trkpt lat="43.52341" lon="2.49555">
        <ele>612.041</ele>
        <time>2021-05-22T11:07:50Z</time>
      </trkpt>
      <trkpt lat="43.5234" lon="2.49551">
        <ele>610.598</ele>
        <time>2021-05-22T11:07:52Z</time>
      </trkpt>
      <trkpt lat="43.5234" lon="2.49549">
        <ele>610.344</ele>
        <time>2021-05-22T11:07:54Z</time>
      </trkpt>
      <trkpt lat="43.52339" lon="2.49547">
        <ele>609.597</ele>
        <time>2021-05-22T11:07:56Z</time>
      </trkpt>
      <trkpt lat="43.52338" lon="2.49545">
        <ele>608.54</ele>
        <time>2021-05-22T11:07:58Z</time>
      </trkpt>
      <trkpt lat="43.52337" lon="2.49544">
        <ele>605.629</ele>
        <time>2021-05-22T11:08:00Z</time>
      </trkpt>
      <trkpt lat="43.52336" lon="2.49542">
        <ele>604.633</ele>
        <time>2021-05-22T11:08:02Z</time>
      </trkpt>
      <trkpt lat="43.52336" lon="2.4954">
        <ele>605.458</ele>
        <time>2021-05-22T11:08:04Z</time>
      </trkpt>
      <trkpt lat="43.52335" lon="2.49538">
        <ele>605.476</ele>
        <time>2021-05-22T11:08:06Z</time>
      </trkpt>
      <trkpt lat="43.52335" lon="2.49536">
        <ele>604.956</ele>
        <time>2021-05-22T11:08:08Z</time>
      </trkpt>
      <trkpt lat="43.52335" lon="2.49534">
        <ele>605.962</ele>
        <time>2021-05-22T11:08:10Z</time>
      </trkpt>
      <trkpt lat="43.52334" lon="2.49532">
        <ele>603.012</ele>
        <time>2021-05-22T11:08:12Z</time>
      </trkpt>
      <trkpt lat="43.52333" lon="2.4953">
        <ele>605.671</ele>
        <time>2021-05-22T11:08:14Z</time>
      </trkpt>
      <trkpt lat="43.52332" lon="2.49528">
        <ele>606.666</ele>
        <time>2021-05-22T11:08:16Z</time>
      </trkpt>
      <trkpt lat="43.52332" lon="2.49524">
        <ele>607.949</ele>
        <time>2021-05-22T11:08:18Z</time>
      </trkpt>
      <trkpt lat="43.52332" lon="2.49521">
        <ele>609.416</ele>
        <time>2021-05-22T11:08:20Z</time>
      </trkpt>
      <trkpt lat="43.52331" lon="2.49518">
        <ele>607.349</ele>
        <time>2021-05-22T11:08:22Z</time>
      </trkpt>
      <trkpt lat="43.52331" lon="2.49516">
        <ele>605.297</ele>
        <time>2021-05-22T11:08:24Z</time>
      </trkpt>
      <trkpt lat="43.52331" lon="2.49512">
        <ele>605.291</ele>
        <time>2021-05-22T11:08:26Z</time>
      </trkpt>
      <trkpt lat="43.5233" lon="2.4951">
        <ele>603.545</ele>
        <time>2021-05-22T11:08:28Z</time>
      </trkpt>
      <trkpt lat="43.5233" lon="2.49507">
        <ele>602.388</ele>
        <time>2021-05-22T11:08:30Z</time>
      </trkpt>
      <trkpt lat="43.52329" lon="2.49504">
        <ele>602.586</ele>
        <time>2021-05-22T11:08:32Z</time>
      </trkpt>
      <trkpt lat="43.52328" lon="2.49501">
        <ele>602.427</ele>
        <time>2021-05-22T11:08:34Z</time>
      </trkpt>
      <trkpt lat="43.52328" lon="2.49499">
        <ele>600.132</ele>
        <time>2021-05-22T11:08:36Z</time>
      </trkpt>
      <trkpt lat="43.52327" lon="2.49497">
        <ele>599.139</ele>
        <time>2021-05-22T11:08:38Z</time>
      </trkpt>
      <trkpt lat="43.52326" lon="2.49495">
        <ele>599.202</ele>
        <time>2021-05-22T11:08:40Z</time>
      </trkpt>
      <trkpt lat="43.52326" lon="2.49492">
        <ele>599.282</ele>
        <time>2021-05-22T11:08:42Z</time>
      </trkpt>
      <trkpt lat="43.52326" lon="2.49489">
        <ele>598.202</ele>
        <time>2021-05-22T11:08:44Z</time>
      </trkpt>
      <trkpt lat="43.52327" lon="2.49486">
        <ele>596.727</ele>
        <time>2021-05-22T11:08:46Z</time>
      </trkpt>
      <trkpt lat="43.52327" lon="2.49482">
        <ele>594.824</ele>
        <time>2021-05-22T11:08:48Z</time>
      </trkpt>
      <trkpt lat="43.52327" lon="2.4948">
        <ele>594.274</ele>
        <time>2021-05-22T11:08:50Z</time>
      </trkpt>
      <trkpt lat="43.52326" lon="2.49477">
        <ele>596.005</ele>
        <time>2021-05-22T11:08:52Z</time>
      </trkpt>
      <trkpt lat="43.52325" lon="2.49475">
        <ele>597.064</ele>
        <time>2021-05-22T11:08:54Z</time>
      </trkpt>
      <trkpt lat="43.52324" lon="2.49471">
        <ele>597.472</ele>
        <time>2021-05-22T11:08:56Z</time>
      </trkpt>
      <trkpt lat="43.52324" lon="2.49468">
        <ele>596.971</ele>
        <time>2021-05-22T11:08:58Z</time>
      </trkpt>
      <trkpt lat="43.52324" lon="2.49464">
        <ele>597.755</ele>
        <time>2021-05-22T11:09:00Z</time>
      </trkpt>
      <trkpt lat="43.52324" lon="2.49461">
        <ele>598.665</ele>
        <time>2021-05-22T11:09:02Z</time>
      </trkpt>
      <trkpt lat="43.52325" lon="2.49458">
        <ele>597.381</ele>
        <time>2021-05-22T11:09:04Z</time>
      </trkpt>
      <trkpt lat="43.52325" lon="2.49454">
        <ele>594.885</ele>
        <time>2021-05-22T11:09:06Z</time>
      </trkpt>
      <trkpt lat="43.52325" lon="2.49451">
        <ele>594.738</ele>
        <time>2021-05-22T11:09:08Z</time>
      </trkpt>
      <trkpt lat="43.52325" lon="2.49448">
        <ele>594.758</ele>
        <time>2021-05-22T11:09:10Z</time>
      </trkpt>
      <trkpt lat="43.52326" lon="2.49444">
        <ele>596.502</ele>
        <time>2021-05-22T11:09:12Z</time>
      </trkpt>
      <trkpt lat="43.52326" lon="2.49441">
        <ele>597.869</ele>
        <time>2021-05-22T11:09:14Z</time>
      </trkpt>
      <trkpt lat="43.52326" lon="2.49438">
        <ele>597.687</ele>
        <time>2021-05-22T11:09:16Z</time>
      </trkpt>
      <trkpt lat="43.52326" lon="2.49435">
        <ele>598.279</ele>
        <time>2021-05-22T11:09:18Z</time>
      </trkpt>
      <trkpt lat="43.52326" lon="2.49431">
        <ele>596.179</ele>
        <time>2021-05-22T11:09:20Z</time>
      </trkpt>
      <trkpt lat="43.52325" lon="2.49428">
        <ele>596.271</ele>
        <time>2021-05-22T11:09:22Z</time>
      </trkpt>
      <trkpt lat="43.52325" lon="2.49424">
        <ele>596.819</ele>
        <time>2021-05-22T11:09:24Z</time>
      </trkpt>
      <trkpt lat="43.52324" lon="2.49421">
        <ele>594.922</ele>
        <time>2021-05-22T11:09:26Z</time>
      </trkpt>
      <trkpt lat="43.52323" lon="2.49418">
        <ele>594.183</ele>
        <time>2021-05-22T11:09:28Z</time>
      </trkpt>
      <trkpt lat="43.52323" lon="2.49415">
        <ele>591.686</ele>
        <time>2021-05-22T11:09:30Z</time>
      </trkpt>
      <trkpt lat="43.52321" lon="2.49412">
        <ele>591.126</ele>
        <time>2021-05-22T11:09:32Z</time>
      </trkpt>
      <trkpt lat="43.5232" lon="2.4941">
        <ele>590.766</ele>
        <time>2021-05-22T11:09:34Z</time>
      </trkpt>
      <trkpt lat="43.52318" lon="2.49409">
        <ele>590.845</ele>
        <time>2021-05-22T11:09:36Z</time>
      </trkpt>
      <trkpt lat="43.52316" lon="2.49406">
        <ele>588.888</ele>
        <time>2021-05-22T11:09:38Z</time>
      </trkpt>
      <trkpt lat="43.52315" lon="2.49403">
        <ele>589.321</ele>
        <time>2021-05-22T11:09:40Z</time>
      </trkpt>
      <trkpt lat="43.52313" lon="2.494">
        <ele>587.111</ele>
        <time>2021-05-22T11:09:42Z</time>
      </trkpt>
      <trkpt lat="43.52311" lon="2.49397">
        <ele>585.022</ele>
        <time>2021-05-22T11:09:44Z</time>
      </trkpt>
      <trkpt lat="43.52309" lon="2.49396">
        <ele>584.45</ele>
        <time>2021-05-22T11:09:46Z</time>
      </trkpt>
      <trkpt lat="43.52307" lon="2.49395">
        <ele>583.794</ele>
        <time>2021-05-22T11:09:48Z</time>
      </trkpt>
      <trkpt lat="43.52305" lon="2.49394">
        <ele>584.277</ele>
        <time>2021-05-22T11:09:50Z</time>
      </trkpt>
      <trkpt lat="43.52304" lon="2.49394">
        <ele>583.783</ele>
        <time>2021-05-22T11:09:52Z</time>
      </trkpt>
      <trkpt lat="43.52302" lon="2.49394">
        <ele>581.908</ele>
        <time>2021-05-22T11:09:54Z</time>
      </trkpt>
      <trkpt lat="43.523" lon="2.49393">
        <ele>581.716</ele>
        <time>2021-05-22T11:09:56Z</time>
      </trkpt>
      <trkpt lat="43.52298" lon="2.49393">
        <ele>581.593</ele>
        <time>2021-05-22T11:09:58Z</time>
      </trkpt>
      <trkpt lat="43.52296" lon="2.49392">
        <ele>580.916</ele>
        <time>2021-05-22T11:10:00Z</time>
      </trkpt>
      <trkpt lat="43.52295" lon="2.4939">
        <ele>579.453</ele>
        <time>2021-05-22T11:10:02Z</time>
      </trkpt>
      <trkpt lat="43.52294" lon="2.49388">
        <ele>578.631</ele>
        <time>2021-05-22T11:10:04Z</time>
      </trkpt>
      <trkpt lat="43.52292" lon="2.49386">
        <ele>577.514</ele>
        <time>2021-05-22T11:10:06Z</time>
      </trkpt>
      <trkpt lat="43.52293" lon="2.49384">
        <ele>577.417</ele>
        <time>2021-05-22T11:10:08Z</time>
      </trkpt>
      <trkpt lat="43.52293" lon="2.49384">
        <ele>577.446</ele>
        <time>2021-05-22T11:10:10Z</time>
      </trkpt>
      <trkpt lat="43.52293" lon="2.49384">
        <ele>577.433</ele>
        <time>2021-05-22T11:10:12Z</time>
      </trkpt>
      <trkpt lat="43.52293" lon="2.49383">
        <ele>577.413</ele>
        <time>2021-05-22T11:10:14Z</time>
      </trkpt>
      <trkpt lat="43.52293" lon="2.49383">
        <ele>577.393</ele>
        <time>2021-05-22T11:10:16Z</time>
      </trkpt>
      <trkpt lat="43.52293" lon="2.49383">
        <ele>577.37</ele>
        <time>2021-05-22T11:10:18Z</time>
      </trkpt>
      <trkpt lat="43.52293" lon="2.49383">
        <ele>577.337</ele>
        <time>2021-05-22T11:10:20Z</time>
      </trkpt>
      <trkpt lat="43.52293" lon="2.49383">
        <ele>577.327</ele>
        <time>2021-05-22T11:10:22Z</time>
      </trkpt>
      <trkpt lat="43.52293" lon="2.49383">
        <ele>576.684</ele>
        <time>2021-05-22T11:10:24Z</time>
      </trkpt>
      <trkpt lat="43.52293" lon="2.49382">
        <ele>578.109</ele>
        <time>2021-05-22T11:10:26Z</time>
      </trkpt>
      <trkpt lat="43.52294" lon="2.49382">
        <ele>579.358</ele>
        <time>2021-05-22T11:10:28Z</time>
      </trkpt>
      <trkpt lat="43.52294" lon="2.49382">
        <ele>579.351</ele>
        <time>2021-05-22T11:10:30Z</time>
      </trkpt>
      <trkpt lat="43.52294" lon="2.49382">
        <ele>579.343</ele>
        <time>2021-05-22T11:10:32Z</time>
      </trkpt>
      <trkpt lat="43.52294" lon="2.49382">
        <ele>579.337</ele>
        <time>2021-05-22T11:10:34Z</time>
      </trkpt>
      <trkpt lat="43.52294" lon="2.49382">
        <ele>579.322</ele>
        <time>2021-05-22T11:10:36Z</time>
      </trkpt>
      <trkpt lat="43.52293" lon="2.49382">
        <ele>579.317</ele>
        <time>2021-05-22T11:10:38Z</time>
      </trkpt>
      <trkpt lat="43.52294" lon="2.49382">
        <ele>579.334</ele>
        <time>2021-05-22T11:10:40Z</time>
      </trkpt>
      <trkpt lat="43.52295" lon="2.49381">
        <ele>582.128</ele>
        <time>2021-05-22T11:10:42Z</time>
      </trkpt>
      <trkpt lat="43.52296" lon="2.49379">
        <ele>584.812</ele>
        <time>2021-05-22T11:10:44Z</time>
      </trkpt>
      <trkpt lat="43.52296" lon="2.49378">
        <ele>582.366</ele>
        <time>2021-05-22T11:10:46Z</time>
      </trkpt>
      <trkpt lat="43.52297" lon="2.49377">
        <ele>583.438</ele>
        <time>2021-05-22T11:10:48Z</time>
      </trkpt>
      <trkpt lat="43.52297" lon="2.49376">
        <ele>585.078</ele>
        <time>2021-05-22T11:10:50Z</time>
      </trkpt>
      <trkpt lat="43.52297" lon="2.49376">
        <ele>585.092</ele>
        <time>2021-05-22T11:10:52Z</time>
      </trkpt>
      <trkpt lat="43.52297" lon="2.49376">
        <ele>585.12</ele>
        <time>2021-05-22T11:10:54Z</time>
      </trkpt>
      <trkpt lat="43.52297" lon="2.49376">
        <ele>585.138</ele>
        <time>2021-05-22T11:10:56Z</time>
      </trkpt>
      <trkpt lat="43.52297" lon="2.49376">
        <ele>585.148</ele>
        <time>2021-05-22T11:10:58Z</time>
      </trkpt>
      <trkpt lat="43.52297" lon="2.49376">
        <ele>585.48</ele>
        <time>2021-05-22T11:11:00Z</time>
      </trkpt>
      <trkpt lat="43.52297" lon="2.49376">
        <ele>585.524</ele>
        <time>2021-05-22T11:11:02Z</time>
      </trkpt>
      <trkpt lat="43.52297" lon="2.49376">
        <ele>585.832</ele>
        <time>2021-05-22T11:11:04Z</time>
      </trkpt>
      <trkpt lat="43.52297" lon="2.49376">
        <ele>585.848</ele>
        <time>2021-05-22T11:11:06Z</time>
      </trkpt>
      <trkpt lat="43.52297" lon="2.49376">
        <ele>585.852</ele>
        <time>2021-05-22T11:11:08Z</time>
      </trkpt>
      <trkpt lat="43.52297" lon="2.49376">
        <ele>585.867</ele>
        <time>2021-05-22T11:11:10Z</time>
      </trkpt>
      <trkpt lat="43.52297" lon="2.49376">
        <ele>585.874</ele>
        <time>2021-05-22T11:11:12Z</time>
      </trkpt>
      <trkpt lat="43.52297" lon="2.49376">
        <ele>586.721</ele>
        <time>2021-05-22T11:11:14Z</time>
      </trkpt>
      <trkpt lat="43.52298" lon="2.49375">
        <ele>585.006</ele>
        <time>2021-05-22T11:11:16Z</time>
      </trkpt>
      <trkpt lat="43.52298" lon="2.49375">
        <ele>584.994</ele>
        <time>2021-05-22T11:11:18Z</time>
      </trkpt>
      <trkpt lat="43.52298" lon="2.49375">
        <ele>584.993</ele>
        <time>2021-05-22T11:11:20Z</time>
      </trkpt>
      <trkpt lat="43.52298" lon="2.49374">
        <ele>585.543</ele>
        <time>2021-05-22T11:11:22Z</time>
      </trkpt>
      <trkpt lat="43.52298" lon="2.49374">
        <ele>585.542</ele>
        <time>2021-05-22T11:11:24Z</time>
      </trkpt>
      <trkpt lat="43.52299" lon="2.49375">
        <ele>587.262</ele>
        <time>2021-05-22T11:11:26Z</time>
      </trkpt>
      <trkpt lat="43.52299" lon="2.49375">
        <ele>587.232</ele>
        <time>2021-05-22T11:11:28Z</time>
      </trkpt>
      <trkpt lat="43.523" lon="2.49375">
        <ele>586.744</ele>
        <time>2021-05-22T11:11:30Z</time>
      </trkpt>
      <trkpt lat="43.523" lon="2.49373">
        <ele>588.292</ele>
        <time>2021-05-22T11:11:32Z</time>
      </trkpt>
      <trkpt lat="43.523" lon="2.49373">
        <ele>588.286</ele>
        <time>2021-05-22T11:11:34Z</time>
      </trkpt>
      <trkpt lat="43.523" lon="2.49373">
        <ele>588.286</ele>
        <time>2021-05-22T11:11:36Z</time>
      </trkpt>
      <trkpt lat="43.523" lon="2.49373">
        <ele>588.281</ele>
        <time>2021-05-22T11:11:38Z</time>
      </trkpt>
      <trkpt lat="43.523" lon="2.49373">
        <ele>588.374</ele>
        <time>2021-05-22T11:11:40Z</time>
      </trkpt>
      <trkpt lat="43.523" lon="2.49372">
        <ele>588.386</ele>
        <time>2021-05-22T11:11:42Z</time>
      </trkpt>
      <trkpt lat="43.523" lon="2.49372">
        <ele>588.364</ele>
        <time>2021-05-22T11:11:44Z</time>
      </trkpt>
      <trkpt lat="43.523" lon="2.49372">
        <ele>588.362</ele>
        <time>2021-05-22T11:11:46Z</time>
      </trkpt>
      <trkpt lat="43.523" lon="2.49372">
        <ele>588.363</ele>
        <time>2021-05-22T11:11:48Z</time>
      </trkpt>
      <trkpt lat="43.52299" lon="2.49373">
        <ele>586.896</ele>
        <time>2021-05-22T11:11:50Z</time>
      </trkpt>
      <trkpt lat="43.52298" lon="2.49374">
        <ele>585.308</ele>
        <time>2021-05-22T11:11:52Z</time>
      </trkpt>
      <trkpt lat="43.52298" lon="2.49375">
        <ele>586.009</ele>
        <time>2021-05-22T11:11:54Z</time>
      </trkpt>
      <trkpt lat="43.52297" lon="2.49375">
        <ele>585.71</ele>
        <time>2021-05-22T11:11:56Z</time>
      </trkpt>
      <trkpt lat="43.52297" lon="2.49376">
        <ele>585.797</ele>
        <time>2021-05-22T11:11:58Z</time>
      </trkpt>
      <trkpt lat="43.52296" lon="2.49377">
        <ele>585.641</ele>
        <time>2021-05-22T11:12:00Z</time>
      </trkpt>
      <trkpt lat="43.52294" lon="2.49378">
        <ele>586.765</ele>
        <time>2021-05-22T11:12:02Z</time>
      </trkpt>
      <trkpt lat="43.52294" lon="2.49379">
        <ele>586.367</ele>
        <time>2021-05-22T11:12:04Z</time>
      </trkpt>
      <trkpt lat="43.52292" lon="2.4938">
        <ele>586.533</ele>
        <time>2021-05-22T11:12:06Z</time>
      </trkpt>
      <trkpt lat="43.52291" lon="2.49381">
        <ele>585.732</ele>
        <time>2021-05-22T11:12:08Z</time>
      </trkpt>
      <trkpt lat="43.52291" lon="2.49382">
        <ele>585.385</ele>
        <time>2021-05-22T11:12:10Z</time>
      </trkpt>
      <trkpt lat="43.52289" lon="2.49382">
        <ele>585.238</ele>
        <time>2021-05-22T11:12:12Z</time>
      </trkpt>
      <trkpt lat="43.52288" lon="2.49383">
        <ele>585.102</ele>
        <time>2021-05-22T11:12:14Z</time>
      </trkpt>
      <trkpt lat="43.52286" lon="2.49384">
        <ele>585.102</ele>
        <time>2021-05-22T11:12:16Z</time>
      </trkpt>
      <trkpt lat="43.52284" lon="2.49384">
        <ele>584.932</ele>
        <time>2021-05-22T11:12:18Z</time>
      </trkpt>
      <trkpt lat="43.52282" lon="2.49385">
        <ele>584.159</ele>
        <time>2021-05-22T11:12:20Z</time>
      </trkpt>
      <trkpt lat="43.52281" lon="2.49387">
        <ele>583.521</ele>
        <time>2021-05-22T11:12:22Z</time>
      </trkpt>
      <trkpt lat="43.52279" lon="2.49389">
        <ele>583.021</ele>
        <time>2021-05-22T11:12:24Z</time>
      </trkpt>
      <trkpt lat="43.52278" lon="2.49389">
        <ele>583.397</ele>
        <time>2021-05-22T11:12:26Z</time>
      </trkpt>
      <trkpt lat="43.52276" lon="2.49389">
        <ele>583.583</ele>
        <time>2021-05-22T11:12:28Z</time>
      </trkpt>
      <trkpt lat="43.52274" lon="2.4939">
        <ele>583.727</ele>
        <time>2021-05-22T11:12:30Z</time>
      </trkpt>
      <trkpt lat="43.52273" lon="2.49392">
        <ele>582.28</ele>
        <time>2021-05-22T11:12:32Z</time>
      </trkpt>
      <trkpt lat="43.52271" lon="2.49393">
        <ele>584.032</ele>
        <time>2021-05-22T11:12:34Z</time>
      </trkpt>
      <trkpt lat="43.52268" lon="2.49393">
        <ele>584.207</ele>
        <time>2021-05-22T11:12:36Z</time>
      </trkpt>
      <trkpt lat="43.52268" lon="2.49394">
        <ele>585.282</ele>
        <time>2021-05-22T11:12:38Z</time>
      </trkpt>
      <trkpt lat="43.52266" lon="2.49397">
        <ele>584.367</ele>
        <time>2021-05-22T11:12:40Z</time>
      </trkpt>
      <trkpt lat="43.52264" lon="2.49398">
        <ele>584.996</ele>
        <time>2021-05-22T11:12:42Z</time>
      </trkpt>
      <trkpt lat="43.52263" lon="2.49399">
        <ele>584.084</ele>
        <time>2021-05-22T11:12:44Z</time>
      </trkpt>
      <trkpt lat="43.5226" lon="2.49398">
        <ele>581.268</ele>
        <time>2021-05-22T11:12:46Z</time>
      </trkpt>
      <trkpt lat="43.52259" lon="2.49399">
        <ele>578.036</ele>
        <time>2021-05-22T11:12:48Z</time>
      </trkpt>
      <trkpt lat="43.52256" lon="2.494">
        <ele>578.123</ele>
        <time>2021-05-22T11:12:50Z</time>
      </trkpt>
      <trkpt lat="43.52254" lon="2.49399">
        <ele>579.501</ele>
        <time>2021-05-22T11:12:52Z</time>
      </trkpt>
      <trkpt lat="43.52253" lon="2.49399">
        <ele>578.034</ele>
        <time>2021-05-22T11:12:54Z</time>
      </trkpt>
      <trkpt lat="43.5225" lon="2.49398">
        <ele>578.145</ele>
        <time>2021-05-22T11:12:56Z</time>
      </trkpt>
      <trkpt lat="43.52247" lon="2.49398">
        <ele>575.267</ele>
        <time>2021-05-22T11:12:58Z</time>
      </trkpt>
      <trkpt lat="43.52245" lon="2.49398">
        <ele>575.459</ele>
        <time>2021-05-22T11:13:00Z</time>
      </trkpt>
      <trkpt lat="43.52242" lon="2.49399">
        <ele>574.046</ele>
        <time>2021-05-22T11:13:02Z</time>
      </trkpt>
      <trkpt lat="43.5224" lon="2.49398">
        <ele>575.967</ele>
        <time>2021-05-22T11:13:04Z</time>
      </trkpt>
      <trkpt lat="43.52238" lon="2.49397">
        <ele>577.583</ele>
        <time>2021-05-22T11:13:06Z</time>
      </trkpt>
      <trkpt lat="43.52236" lon="2.49397">
        <ele>577.234</ele>
        <time>2021-05-22T11:13:08Z</time>
      </trkpt>
      <trkpt lat="43.52234" lon="2.49397">
        <ele>577.453</ele>
        <time>2021-05-22T11:13:10Z</time>
      </trkpt>
      <trkpt lat="43.52231" lon="2.49397">
        <ele>577.775</ele>
        <time>2021-05-22T11:13:12Z</time>
      </trkpt>
      <trkpt lat="43.52229" lon="2.49396">
        <ele>579.241</ele>
        <time>2021-05-22T11:13:14Z</time>
      </trkpt>
      <trkpt lat="43.52227" lon="2.49396">
        <ele>579.251</ele>
        <time>2021-05-22T11:13:16Z</time>
      </trkpt>
      <trkpt lat="43.52225" lon="2.49397">
        <ele>583.033</ele>
        <time>2021-05-22T11:13:18Z</time>
      </trkpt>
      <trkpt lat="43.52223" lon="2.49396">
        <ele>584.452</ele>
        <time>2021-05-22T11:13:20Z</time>
      </trkpt>
      <trkpt lat="43.52221" lon="2.49396">
        <ele>585.058</ele>
        <time>2021-05-22T11:13:22Z</time>
      </trkpt>
      <trkpt lat="43.52219" lon="2.49395">
        <ele>585.728</ele>
        <time>2021-05-22T11:13:24Z</time>
      </trkpt>
      <trkpt lat="43.52217" lon="2.49394">
        <ele>586.724</ele>
        <time>2021-05-22T11:13:26Z</time>
      </trkpt>
      <trkpt lat="43.52215" lon="2.49395">
        <ele>585.158</ele>
        <time>2021-05-22T11:13:28Z</time>
      </trkpt>
      <trkpt lat="43.52213" lon="2.49393">
        <ele>585.108</ele>
        <time>2021-05-22T11:13:30Z</time>
      </trkpt>
      <trkpt lat="43.52211" lon="2.49393">
        <ele>586.017</ele>
        <time>2021-05-22T11:13:32Z</time>
      </trkpt>
      <trkpt lat="43.52209" lon="2.49393">
        <ele>585.241</ele>
        <time>2021-05-22T11:13:34Z</time>
      </trkpt>
      <trkpt lat="43.52207" lon="2.49393">
        <ele>587.188</ele>
        <time>2021-05-22T11:13:36Z</time>
      </trkpt>
      <trkpt lat="43.52205" lon="2.49393">
        <ele>585.17</ele>
        <time>2021-05-22T11:13:38Z</time>
      </trkpt>
      <trkpt lat="43.52203" lon="2.49393">
        <ele>584.198</ele>
        <time>2021-05-22T11:13:40Z</time>
      </trkpt>
      <trkpt lat="43.522" lon="2.49392">
        <ele>582.504</ele>
        <time>2021-05-22T11:13:42Z</time>
      </trkpt>
      <trkpt lat="43.52198" lon="2.49391">
        <ele>582.754</ele>
        <time>2021-05-22T11:13:44Z</time>
      </trkpt>
      <trkpt lat="43.52196" lon="2.4939">
        <ele>581.446</ele>
        <time>2021-05-22T11:13:46Z</time>
      </trkpt>
      <trkpt lat="43.52195" lon="2.49391">
        <ele>580.71</ele>
        <time>2021-05-22T11:13:48Z</time>
      </trkpt>
      <trkpt lat="43.52193" lon="2.49391">
        <ele>580.03</ele>
        <time>2021-05-22T11:13:50Z</time>
      </trkpt>
      <trkpt lat="43.52191" lon="2.49392">
        <ele>579.499</ele>
        <time>2021-05-22T11:13:52Z</time>
      </trkpt>
      <trkpt lat="43.52189" lon="2.49393">
        <ele>577.18</ele>
        <time>2021-05-22T11:13:54Z</time>
      </trkpt>
      <trkpt lat="43.52187" lon="2.49395">
        <ele>576.82</ele>
        <time>2021-05-22T11:13:56Z</time>
      </trkpt>
      <trkpt lat="43.52184" lon="2.49396">
        <ele>577.585</ele>
        <time>2021-05-22T11:13:58Z</time>
      </trkpt>
      <trkpt lat="43.52182" lon="2.49397">
        <ele>579.648</ele>
        <time>2021-05-22T11:14:00Z</time>
      </trkpt>
      <trkpt lat="43.52179" lon="2.49397">
        <ele>579.45</ele>
        <time>2021-05-22T11:14:02Z</time>
      </trkpt>
      <trkpt lat="43.52177" lon="2.49398">
        <ele>578.745</ele>
        <time>2021-05-22T11:14:04Z</time>
      </trkpt>
      <trkpt lat="43.52175" lon="2.49399">
        <ele>578.079</ele>
        <time>2021-05-22T11:14:06Z</time>
      </trkpt>
      <trkpt lat="43.52173" lon="2.49399">
        <ele>577.765</ele>
        <time>2021-05-22T11:14:08Z</time>
      </trkpt>
      <trkpt lat="43.52171" lon="2.49402">
        <ele>577.685</ele>
        <time>2021-05-22T11:14:10Z</time>
      </trkpt>
      <trkpt lat="43.52168" lon="2.49403">
        <ele>576.366</ele>
        <time>2021-05-22T11:14:12Z</time>
      </trkpt>
      <trkpt lat="43.52167" lon="2.49405">
        <ele>574.699</ele>
        <time>2021-05-22T11:14:14Z</time>
      </trkpt>
      <trkpt lat="43.52165" lon="2.49406">
        <ele>570.226</ele>
        <time>2021-05-22T11:14:16Z</time>
      </trkpt>
      <trkpt lat="43.52162" lon="2.49407">
        <ele>571.233</ele>
        <time>2021-05-22T11:14:18Z</time>
      </trkpt>
      <trkpt lat="43.5216" lon="2.49407">
        <ele>573.385</ele>
        <time>2021-05-22T11:14:20Z</time>
      </trkpt>
      <trkpt lat="43.52158" lon="2.49408">
        <ele>575.443</ele>
        <time>2021-05-22T11:14:22Z</time>
      </trkpt>
      <trkpt lat="43.52156" lon="2.4941">
        <ele>578.097</ele>
        <time>2021-05-22T11:14:24Z</time>
      </trkpt>
      <trkpt lat="43.52154" lon="2.49411">
        <ele>577.915</ele>
        <time>2021-05-22T11:14:26Z</time>
      </trkpt>
      <trkpt lat="43.52151" lon="2.49412">
        <ele>577.489</ele>
        <time>2021-05-22T11:14:28Z</time>
      </trkpt>
      <trkpt lat="43.52149" lon="2.49412">
        <ele>577.604</ele>
        <time>2021-05-22T11:14:30Z</time>
      </trkpt>
      <trkpt lat="43.52147" lon="2.49412">
        <ele>578.268</ele>
        <time>2021-05-22T11:14:32Z</time>
      </trkpt>
      <trkpt lat="43.52144" lon="2.49413">
        <ele>578.575</ele>
        <time>2021-05-22T11:14:34Z</time>
      </trkpt>
      <trkpt lat="43.52142" lon="2.49415">
        <ele>580.15</ele>
        <time>2021-05-22T11:14:36Z</time>
      </trkpt>
      <trkpt lat="43.5214" lon="2.49417">
        <ele>579.62</ele>
        <time>2021-05-22T11:14:38Z</time>
      </trkpt>
      <trkpt lat="43.52138" lon="2.49418">
        <ele>579.555</ele>
        <time>2021-05-22T11:14:40Z</time>
      </trkpt>
      <trkpt lat="43.52136" lon="2.49419">
        <ele>579.217</ele>
        <time>2021-05-22T11:14:42Z</time>
      </trkpt>
      <trkpt lat="43.52134" lon="2.49419">
        <ele>578.827</ele>
        <time>2021-05-22T11:14:44Z</time>
      </trkpt>
      <trkpt lat="43.52131" lon="2.49419">
        <ele>578.224</ele>
        <time>2021-05-22T11:14:46Z</time>
      </trkpt>
      <trkpt lat="43.52129" lon="2.49419">
        <ele>578.979</ele>
        <time>2021-05-22T11:14:48Z</time>
      </trkpt>
      <trkpt lat="43.52127" lon="2.49418">
        <ele>578.497</ele>
        <time>2021-05-22T11:14:50Z</time>
      </trkpt>
      <trkpt lat="43.52124" lon="2.49416">
        <ele>577.729</ele>
        <time>2021-05-22T11:14:52Z</time>
      </trkpt>
      <trkpt lat="43.52122" lon="2.49415">
        <ele>577.532</ele>
        <time>2021-05-22T11:14:54Z</time>
      </trkpt>
      <trkpt lat="43.52119" lon="2.49415">
        <ele>577.192</ele>
        <time>2021-05-22T11:14:56Z</time>
      </trkpt>
      <trkpt lat="43.52117" lon="2.49414">
        <ele>576.299</ele>
        <time>2021-05-22T11:14:58Z</time>
      </trkpt>
      <trkpt lat="43.52115" lon="2.49415">
        <ele>576.244</ele>
        <time>2021-05-22T11:15:00Z</time>
      </trkpt>
      <trkpt lat="43.52112" lon="2.49415">
        <ele>576.34</ele>
        <time>2021-05-22T11:15:02Z</time>
      </trkpt>
      <trkpt lat="43.5211" lon="2.49415">
        <ele>575.448</ele>
        <time>2021-05-22T11:15:04Z</time>
      </trkpt>
      <trkpt lat="43.52108" lon="2.49414">
        <ele>579.034</ele>
        <time>2021-05-22T11:15:06Z</time>
      </trkpt>
      <trkpt lat="43.52106" lon="2.49413">
        <ele>579.217</ele>
        <time>2021-05-22T11:15:08Z</time>
      </trkpt>
      <trkpt lat="43.52104" lon="2.49414">
        <ele>579.22</ele>
        <time>2021-05-22T11:15:10Z</time>
      </trkpt>
      <trkpt lat="43.52102" lon="2.49415">
        <ele>578.985</ele>
        <time>2021-05-22T11:15:12Z</time>
      </trkpt>
      <trkpt lat="43.52099" lon="2.49416">
        <ele>578.138</ele>
        <time>2021-05-22T11:15:14Z</time>
      </trkpt>
      <trkpt lat="43.52097" lon="2.49416">
        <ele>576.514</ele>
        <time>2021-05-22T11:15:16Z</time>
      </trkpt>
      <trkpt lat="43.52096" lon="2.49418">
        <ele>575.504</ele>
        <time>2021-05-22T11:15:18Z</time>
      </trkpt>
      <trkpt lat="43.52093" lon="2.49417">
        <ele>575.979</ele>
        <time>2021-05-22T11:15:20Z</time>
      </trkpt>
      <trkpt lat="43.52091" lon="2.49417">
        <ele>575.79</ele>
        <time>2021-05-22T11:15:22Z</time>
      </trkpt>
      <trkpt lat="43.52088" lon="2.49417">
        <ele>574.928</ele>
        <time>2021-05-22T11:15:24Z</time>
      </trkpt>
      <trkpt lat="43.52086" lon="2.49417">
        <ele>573.578</ele>
        <time>2021-05-22T11:15:26Z</time>
      </trkpt>
      <trkpt lat="43.52083" lon="2.49417">
        <ele>574.119</ele>
        <time>2021-05-22T11:15:28Z</time>
      </trkpt>
      <trkpt lat="43.52081" lon="2.49419">
        <ele>573.742</ele>
        <time>2021-05-22T11:15:30Z</time>
      </trkpt>
      <trkpt lat="43.52079" lon="2.4942">
        <ele>573.473</ele>
        <time>2021-05-22T11:15:32Z</time>
      </trkpt>
      <trkpt lat="43.52078" lon="2.49421">
        <ele>573.332</ele>
        <time>2021-05-22T11:15:34Z</time>
      </trkpt>
      <trkpt lat="43.52077" lon="2.49422">
        <ele>571.585</ele>
        <time>2021-05-22T11:15:36Z</time>
      </trkpt>
      <trkpt lat="43.52073" lon="2.49424">
        <ele>571.458</ele>
        <time>2021-05-22T11:15:38Z</time>
      </trkpt>
      <trkpt lat="43.52072" lon="2.49423">
        <ele>571.501</ele>
        <time>2021-05-22T11:15:40Z</time>
      </trkpt>
      <trkpt lat="43.5207" lon="2.49425">
        <ele>573.301</ele>
        <time>2021-05-22T11:15:42Z</time>
      </trkpt>
      <trkpt lat="43.52069" lon="2.49427">
        <ele>573.377</ele>
        <time>2021-05-22T11:15:44Z</time>
      </trkpt>
      <trkpt lat="43.52067" lon="2.49428">
        <ele>571.346</ele>
        <time>2021-05-22T11:15:46Z</time>
      </trkpt>
      <trkpt lat="43.52066" lon="2.49428">
        <ele>569.925</ele>
        <time>2021-05-22T11:15:48Z</time>
      </trkpt>
      <trkpt lat="43.52064" lon="2.49428">
        <ele>570.151</ele>
        <time>2021-05-22T11:15:50Z</time>
      </trkpt>
      <trkpt lat="43.52063" lon="2.49429">
        <ele>568.785</ele>
        <time>2021-05-22T11:15:52Z</time>
      </trkpt>
      <trkpt lat="43.52062" lon="2.49429">
        <ele>569.395</ele>
        <time>2021-05-22T11:15:54Z</time>
      </trkpt>
      <trkpt lat="43.52061" lon="2.4943">
        <ele>569.753</ele>
        <time>2021-05-22T11:15:56Z</time>
      </trkpt>
      <trkpt lat="43.52059" lon="2.4943">
        <ele>568.452</ele>
        <time>2021-05-22T11:15:58Z</time>
      </trkpt>
      <trkpt lat="43.52057" lon="2.49429">
        <ele>568.529</ele>
        <time>2021-05-22T11:16:00Z</time>
      </trkpt>
      <trkpt lat="43.52056" lon="2.49426">
        <ele>568.648</ele>
        <time>2021-05-22T11:16:02Z</time>
      </trkpt>
      <trkpt lat="43.52054" lon="2.49425">
        <ele>568.958</ele>
        <time>2021-05-22T11:16:04Z</time>
      </trkpt>
      <trkpt lat="43.52052" lon="2.49426">
        <ele>568.501</ele>
        <time>2021-05-22T11:16:06Z</time>
      </trkpt>
      <trkpt lat="43.5205" lon="2.49427">
        <ele>565.998</ele>
        <time>2021-05-22T11:16:08Z</time>
      </trkpt>
      <trkpt lat="43.52048" lon="2.49428">
        <ele>564.716</ele>
        <time>2021-05-22T11:16:10Z</time>
      </trkpt>
      <trkpt lat="43.52046" lon="2.49428">
        <ele>564.409</ele>
        <time>2021-05-22T11:16:12Z</time>
      </trkpt>
      <trkpt lat="43.52044" lon="2.49429">
        <ele>564.376</ele>
        <time>2021-05-22T11:16:14Z</time>
      </trkpt>
      <trkpt lat="43.52042" lon="2.49429">
        <ele>564.851</ele>
        <time>2021-05-22T11:16:16Z</time>
      </trkpt>
      <trkpt lat="43.5204" lon="2.49429">
        <ele>564.202</ele>
        <time>2021-05-22T11:16:18Z</time>
      </trkpt>
      <trkpt lat="43.52038" lon="2.4943">
        <ele>564.216</ele>
        <time>2021-05-22T11:16:20Z</time>
      </trkpt>
      <trkpt lat="43.52036" lon="2.4943">
        <ele>563.287</ele>
        <time>2021-05-22T11:16:22Z</time>
      </trkpt>
      <trkpt lat="43.52034" lon="2.49429">
        <ele>564.802</ele>
        <time>2021-05-22T11:16:24Z</time>
      </trkpt>
      <trkpt lat="43.52032" lon="2.49428">
        <ele>563.951</ele>
        <time>2021-05-22T11:16:26Z</time>
      </trkpt>
      <trkpt lat="43.5203" lon="2.49428">
        <ele>564.657</ele>
        <time>2021-05-22T11:16:28Z</time>
      </trkpt>
      <trkpt lat="43.52028" lon="2.49427">
        <ele>564.241</ele>
        <time>2021-05-22T11:16:30Z</time>
      </trkpt>
      <trkpt lat="43.52027" lon="2.49426">
        <ele>564.649</ele>
        <time>2021-05-22T11:16:32Z</time>
      </trkpt>
      <trkpt lat="43.52024" lon="2.49425">
        <ele>564.197</ele>
        <time>2021-05-22T11:16:34Z</time>
      </trkpt>
      <trkpt lat="43.52022" lon="2.49424">
        <ele>563.262</ele>
        <time>2021-05-22T11:16:36Z</time>
      </trkpt>
      <trkpt lat="43.52019" lon="2.49424">
        <ele>563.017</ele>
        <time>2021-05-22T11:16:38Z</time>
      </trkpt>
      <trkpt lat="43.52017" lon="2.49424">
        <ele>562.989</ele>
        <time>2021-05-22T11:16:40Z</time>
      </trkpt>
      <trkpt lat="43.52016" lon="2.49422">
        <ele>563.979</ele>
        <time>2021-05-22T11:16:42Z</time>
      </trkpt>
      <trkpt lat="43.52014" lon="2.4942">
        <ele>564.472</ele>
        <time>2021-05-22T11:16:44Z</time>
      </trkpt>
      <trkpt lat="43.52014" lon="2.49419">
        <ele>564.041</ele>
        <time>2021-05-22T11:16:46Z</time>
      </trkpt>
      <trkpt lat="43.52014" lon="2.49419">
        <ele>564.043</ele>
        <time>2021-05-22T11:16:48Z</time>
      </trkpt>
      <trkpt lat="43.52014" lon="2.49419">
        <ele>564.026</ele>
        <time>2021-05-22T11:16:50Z</time>
      </trkpt>
      <trkpt lat="43.52014" lon="2.49419">
        <ele>564.024</ele>
        <time>2021-05-22T11:16:52Z</time>
      </trkpt>
      <trkpt lat="43.52014" lon="2.49419">
        <ele>564.014</ele>
        <time>2021-05-22T11:16:54Z</time>
      </trkpt>
      <trkpt lat="43.52014" lon="2.49419">
        <ele>564.012</ele>
        <time>2021-05-22T11:16:56Z</time>
      </trkpt>
      <trkpt lat="43.52012" lon="2.49418">
        <ele>561.332</ele>
        <time>2021-05-22T11:16:58Z</time>
      </trkpt>
      <trkpt lat="43.52009" lon="2.49417">
        <ele>562.089</ele>
        <time>2021-05-22T11:17:00Z</time>
      </trkpt>
      <trkpt lat="43.52008" lon="2.49416">
        <ele>564.113</ele>
        <time>2021-05-22T11:17:02Z</time>
      </trkpt>
      <trkpt lat="43.52006" lon="2.49416">
        <ele>562.272</ele>
        <time>2021-05-22T11:17:04Z</time>
      </trkpt>
      <trkpt lat="43.52004" lon="2.49417">
        <ele>561.334</ele>
        <time>2021-05-22T11:17:06Z</time>
      </trkpt>
      <trkpt lat="43.52002" lon="2.49418">
        <ele>560.405</ele>
        <time>2021-05-22T11:17:08Z</time>
      </trkpt>
      <trkpt lat="43.52" lon="2.49419">
        <ele>559.416</ele>
        <time>2021-05-22T11:17:10Z</time>
      </trkpt>
      <trkpt lat="43.51998" lon="2.4942">
        <ele>560.238</ele>
        <time>2021-05-22T11:17:12Z</time>
      </trkpt>
      <trkpt lat="43.51997" lon="2.49422">
        <ele>558.029</ele>
        <time>2021-05-22T11:17:14Z</time>
      </trkpt>
      <trkpt lat="43.51995" lon="2.49423">
        <ele>555.749</ele>
        <time>2021-05-22T11:17:16Z</time>
      </trkpt>
      <trkpt lat="43.51994" lon="2.49422">
        <ele>555.695</ele>
        <time>2021-05-22T11:17:18Z</time>
      </trkpt>
      <trkpt lat="43.51992" lon="2.49421">
        <ele>556.664</ele>
        <time>2021-05-22T11:17:20Z</time>
      </trkpt>
      <trkpt lat="43.51991" lon="2.4942">
        <ele>556.047</ele>
        <time>2021-05-22T11:17:22Z</time>
      </trkpt>
      <trkpt lat="43.51988" lon="2.49421">
        <ele>559.624</ele>
        <time>2021-05-22T11:17:24Z</time>
      </trkpt>
      <trkpt lat="43.51987" lon="2.49423">
        <ele>559.04</ele>
        <time>2021-05-22T11:17:26Z</time>
      </trkpt>
      <trkpt lat="43.51985" lon="2.49424">
        <ele>557.383</ele>
        <time>2021-05-22T11:17:28Z</time>
      </trkpt>
      <trkpt lat="43.51984" lon="2.49426">
        <ele>555.841</ele>
        <time>2021-05-22T11:17:30Z</time>
      </trkpt>
      <trkpt lat="43.51981" lon="2.49427">
        <ele>552.014</ele>
        <time>2021-05-22T11:17:32Z</time>
      </trkpt>
      <trkpt lat="43.51979" lon="2.49427">
        <ele>552.447</ele>
        <time>2021-05-22T11:17:34Z</time>
      </trkpt>
      <trkpt lat="43.51977" lon="2.49428">
        <ele>551.874</ele>
        <time>2021-05-22T11:17:36Z</time>
      </trkpt>
      <trkpt lat="43.51975" lon="2.49428">
        <ele>552.518</ele>
        <time>2021-05-22T11:17:38Z</time>
      </trkpt>
      <trkpt lat="43.51973" lon="2.49428">
        <ele>552.762</ele>
        <time>2021-05-22T11:17:40Z</time>
      </trkpt>
      <trkpt lat="43.51971" lon="2.49429">
        <ele>552.892</ele>
        <time>2021-05-22T11:17:42Z</time>
      </trkpt>
      <trkpt lat="43.51969" lon="2.4943">
        <ele>552.853</ele>
        <time>2021-05-22T11:17:44Z</time>
      </trkpt>
      <trkpt lat="43.51967" lon="2.49431">
        <ele>551.802</ele>
        <time>2021-05-22T11:17:46Z</time>
      </trkpt>
      <trkpt lat="43.51965" lon="2.49433">
        <ele>549.376</ele>
        <time>2021-05-22T11:17:48Z</time>
      </trkpt>
      <trkpt lat="43.51963" lon="2.49435">
        <ele>551.381</ele>
        <time>2021-05-22T11:17:50Z</time>
      </trkpt>
      <trkpt lat="43.51962" lon="2.49437">
        <ele>553.145</ele>
        <time>2021-05-22T11:17:52Z</time>
      </trkpt>
      <trkpt lat="43.5196" lon="2.49438">
        <ele>552.263</ele>
        <time>2021-05-22T11:17:54Z</time>
      </trkpt>
      <trkpt lat="43.51958" lon="2.49439">
        <ele>552.127</ele>
        <time>2021-05-22T11:17:56Z</time>
      </trkpt>
      <trkpt lat="43.51957" lon="2.49441">
        <ele>549.891</ele>
        <time>2021-05-22T11:17:58Z</time>
      </trkpt>
      <trkpt lat="43.51955" lon="2.49442">
        <ele>549.169</ele>
        <time>2021-05-22T11:18:00Z</time>
      </trkpt>
      <trkpt lat="43.51954" lon="2.49443">
        <ele>548.329</ele>
        <time>2021-05-22T11:18:02Z</time>
      </trkpt>
      <trkpt lat="43.51952" lon="2.49444">
        <ele>547.472</ele>
        <time>2021-05-22T11:18:04Z</time>
      </trkpt>
      <trkpt lat="43.5195" lon="2.49444">
        <ele>549.974</ele>
        <time>2021-05-22T11:18:06Z</time>
      </trkpt>
      <trkpt lat="43.51947" lon="2.49445">
        <ele>551.246</ele>
        <time>2021-05-22T11:18:08Z</time>
      </trkpt>
      <trkpt lat="43.51945" lon="2.49445">
        <ele>551.632</ele>
        <time>2021-05-22T11:18:10Z</time>
      </trkpt>
      <trkpt lat="43.51943" lon="2.49445">
        <ele>554.561</ele>
        <time>2021-05-22T11:18:12Z</time>
      </trkpt>
      <trkpt lat="43.51941" lon="2.49445">
        <ele>555.18</ele>
        <time>2021-05-22T11:18:14Z</time>
      </trkpt>
      <trkpt lat="43.51939" lon="2.49445">
        <ele>556.267</ele>
        <time>2021-05-22T11:18:16Z</time>
      </trkpt>
      <trkpt lat="43.51938" lon="2.49444">
        <ele>557.648</ele>
        <time>2021-05-22T11:18:18Z</time>
      </trkpt>
      <trkpt lat="43.51936" lon="2.49444">
        <ele>558.869</ele>
        <time>2021-05-22T11:18:20Z</time>
      </trkpt>
      <trkpt lat="43.51933" lon="2.49444">
        <ele>559.161</ele>
        <time>2021-05-22T11:18:22Z</time>
      </trkpt>
      <trkpt lat="43.51931" lon="2.49444">
        <ele>558.379</ele>
        <time>2021-05-22T11:18:24Z</time>
      </trkpt>
      <trkpt lat="43.51929" lon="2.49444">
        <ele>555.608</ele>
        <time>2021-05-22T11:18:26Z</time>
      </trkpt>
      <trkpt lat="43.51927" lon="2.49444">
        <ele>556.177</ele>
        <time>2021-05-22T11:18:28Z</time>
      </trkpt>
      <trkpt lat="43.51925" lon="2.49445">
        <ele>556.382</ele>
        <time>2021-05-22T11:18:30Z</time>
      </trkpt>
      <trkpt lat="43.51923" lon="2.49444">
        <ele>556.556</ele>
        <time>2021-05-22T11:18:32Z</time>
      </trkpt>
      <trkpt lat="43.5192" lon="2.49444">
        <ele>560.465</ele>
        <time>2021-05-22T11:18:34Z</time>
      </trkpt>
      <trkpt lat="43.51918" lon="2.49443">
        <ele>562.157</ele>
        <time>2021-05-22T11:18:36Z</time>
      </trkpt>
      <trkpt lat="43.51915" lon="2.49442">
        <ele>563.096</ele>
        <time>2021-05-22T11:18:38Z</time>
      </trkpt>
      <trkpt lat="43.51913" lon="2.49442">
        <ele>562.33</ele>
        <time>2021-05-22T11:18:40Z</time>
      </trkpt>
      <trkpt lat="43.51911" lon="2.49441">
        <ele>562.94</ele>
        <time>2021-05-22T11:18:42Z</time>
      </trkpt>
      <trkpt lat="43.51909" lon="2.4944">
        <ele>562.294</ele>
        <time>2021-05-22T11:18:44Z</time>
      </trkpt>
      <trkpt lat="43.51907" lon="2.49439">
        <ele>561.211</ele>
        <time>2021-05-22T11:18:46Z</time>
      </trkpt>
      <trkpt lat="43.51904" lon="2.49439">
        <ele>561.917</ele>
        <time>2021-05-22T11:18:48Z</time>
      </trkpt>
      <trkpt lat="43.51903" lon="2.49439">
        <ele>562.671</ele>
        <time>2021-05-22T11:18:50Z</time>
      </trkpt>
      <trkpt lat="43.51901" lon="2.49438">
        <ele>564.418</ele>
        <time>2021-05-22T11:18:52Z</time>
      </trkpt>
      <trkpt lat="43.51899" lon="2.49438">
        <ele>564.299</ele>
        <time>2021-05-22T11:18:54Z</time>
      </trkpt>
      <trkpt lat="43.51896" lon="2.49437">
        <ele>564.394</ele>
        <time>2021-05-22T11:18:56Z</time>
      </trkpt>
      <trkpt lat="43.51894" lon="2.49437">
        <ele>565.384</ele>
        <time>2021-05-22T11:18:58Z</time>
      </trkpt>
      <trkpt lat="43.51892" lon="2.49436">
        <ele>566.978</ele>
        <time>2021-05-22T11:19:00Z</time>
      </trkpt>
      <trkpt lat="43.5189" lon="2.49437">
        <ele>566.452</ele>
        <time>2021-05-22T11:19:02Z</time>
      </trkpt>
      <trkpt lat="43.51889" lon="2.49439">
        <ele>563.603</ele>
        <time>2021-05-22T11:19:04Z</time>
      </trkpt>
      <trkpt lat="43.51886" lon="2.49439">
        <ele>562.909</ele>
        <time>2021-05-22T11:19:06Z</time>
      </trkpt>
      <trkpt lat="43.51885" lon="2.49441">
        <ele>560.769</ele>
        <time>2021-05-22T11:19:08Z</time>
      </trkpt>
      <trkpt lat="43.51883" lon="2.49442">
        <ele>558.777</ele>
        <time>2021-05-22T11:19:10Z</time>
      </trkpt>
      <trkpt lat="43.51881" lon="2.49442">
        <ele>556.472</ele>
        <time>2021-05-22T11:19:12Z</time>
      </trkpt>
      <trkpt lat="43.51879" lon="2.49443">
        <ele>555.649</ele>
        <time>2021-05-22T11:19:14Z</time>
      </trkpt>
      <trkpt lat="43.51877" lon="2.49444">
        <ele>552.933</ele>
        <time>2021-05-22T11:19:16Z</time>
      </trkpt>
      <trkpt lat="43.51875" lon="2.49444">
        <ele>552.265</ele>
        <time>2021-05-22T11:19:18Z</time>
      </trkpt>
      <trkpt lat="43.51873" lon="2.49445">
        <ele>550.494</ele>
        <time>2021-05-22T11:19:20Z</time>
      </trkpt>
      <trkpt lat="43.51871" lon="2.49446">
        <ele>550.344</ele>
        <time>2021-05-22T11:19:22Z</time>
      </trkpt>
      <trkpt lat="43.5187" lon="2.49448">
        <ele>550.564</ele>
        <time>2021-05-22T11:19:24Z</time>
      </trkpt>
      <trkpt lat="43.51869" lon="2.4945">
        <ele>550.32</ele>
        <time>2021-05-22T11:19:26Z</time>
      </trkpt>
      <trkpt lat="43.51868" lon="2.49452">
        <ele>549.306</ele>
        <time>2021-05-22T11:19:28Z</time>
      </trkpt>
      <trkpt lat="43.51866" lon="2.49453">
        <ele>549.072</ele>
        <time>2021-05-22T11:19:30Z</time>
      </trkpt>
      <trkpt lat="43.51866" lon="2.49454">
        <ele>548.97</ele>
        <time>2021-05-22T11:19:32Z</time>
      </trkpt>
      <trkpt lat="43.51866" lon="2.49454">
        <ele>548.981</ele>
        <time>2021-05-22T11:19:34Z</time>
      </trkpt>
      <trkpt lat="43.51866" lon="2.49454">
        <ele>548.985</ele>
        <time>2021-05-22T11:19:36Z</time>
      </trkpt>
      <trkpt lat="43.51866" lon="2.49454">
        <ele>549</ele>
        <time>2021-05-22T11:19:38Z</time>
      </trkpt>
      <trkpt lat="43.51866" lon="2.49453">
        <ele>549.804</ele>
        <time>2021-05-22T11:19:40Z</time>
      </trkpt>
      <trkpt lat="43.51866" lon="2.49453">
        <ele>549.845</ele>
        <time>2021-05-22T11:19:42Z</time>
      </trkpt>
      <trkpt lat="43.51866" lon="2.49453">
        <ele>549.863</ele>
        <time>2021-05-22T11:19:44Z</time>
      </trkpt>
      <trkpt lat="43.51866" lon="2.49453">
        <ele>549.861</ele>
        <time>2021-05-22T11:19:46Z</time>
      </trkpt>
      <trkpt lat="43.51866" lon="2.49453">
        <ele>549.889</ele>
        <time>2021-05-22T11:19:48Z</time>
      </trkpt>
      <trkpt lat="43.51866" lon="2.49454">
        <ele>551.447</ele>
        <time>2021-05-22T11:19:50Z</time>
      </trkpt>
      <trkpt lat="43.51865" lon="2.49454">
        <ele>552.411</ele>
        <time>2021-05-22T11:19:52Z</time>
      </trkpt>
      <trkpt lat="43.51865" lon="2.49454">
        <ele>552.446</ele>
        <time>2021-05-22T11:19:54Z</time>
      </trkpt>
      <trkpt lat="43.51865" lon="2.49454">
        <ele>552.459</ele>
        <time>2021-05-22T11:19:56Z</time>
      </trkpt>
      <trkpt lat="43.51865" lon="2.49454">
        <ele>552.462</ele>
        <time>2021-05-22T11:19:58Z</time>
      </trkpt>
      <trkpt lat="43.51865" lon="2.49454">
        <ele>552.449</ele>
        <time>2021-05-22T11:20:00Z</time>
      </trkpt>
      <trkpt lat="43.51865" lon="2.49454">
        <ele>552.455</ele>
        <time>2021-05-22T11:20:02Z</time>
      </trkpt>
      <trkpt lat="43.51865" lon="2.49454">
        <ele>552.46</ele>
        <time>2021-05-22T11:20:04Z</time>
      </trkpt>
      <trkpt lat="43.51865" lon="2.49454">
        <ele>552.453</ele>
        <time>2021-05-22T11:20:06Z</time>
      </trkpt>
      <trkpt lat="43.51865" lon="2.49454">
        <ele>552.43</ele>
        <time>2021-05-22T11:20:08Z</time>
      </trkpt>
      <trkpt lat="43.51865" lon="2.49454">
        <ele>552.424</ele>
        <time>2021-05-22T11:20:10Z</time>
      </trkpt>
      <trkpt lat="43.51865" lon="2.49454">
        <ele>552.436</ele>
        <time>2021-05-22T11:20:12Z</time>
      </trkpt>
      <trkpt lat="43.51865" lon="2.49454">
        <ele>552.429</ele>
        <time>2021-05-22T11:20:14Z</time>
      </trkpt>
      <trkpt lat="43.51865" lon="2.49454">
        <ele>552.431</ele>
        <time>2021-05-22T11:20:16Z</time>
      </trkpt>
      <trkpt lat="43.51865" lon="2.49454">
        <ele>552.43</ele>
        <time>2021-05-22T11:20:18Z</time>
      </trkpt>
      <trkpt lat="43.51865" lon="2.49454">
        <ele>552.407</ele>
        <time>2021-05-22T11:20:20Z</time>
      </trkpt>
      <trkpt lat="43.51865" lon="2.49454">
        <ele>552.396</ele>
        <time>2021-05-22T11:20:22Z</time>
      </trkpt>
      <trkpt lat="43.51865" lon="2.49454">
        <ele>552.399</ele>
        <time>2021-05-22T11:20:24Z</time>
      </trkpt>
      <trkpt lat="43.51865" lon="2.49454">
        <ele>552.409</ele>
        <time>2021-05-22T11:20:26Z</time>
      </trkpt>
      <trkpt lat="43.51865" lon="2.49454">
        <ele>552.415</ele>
        <time>2021-05-22T11:20:28Z</time>
      </trkpt>
      <trkpt lat="43.51865" lon="2.49454">
        <ele>552.425</ele>
        <time>2021-05-22T11:20:30Z</time>
      </trkpt>
      <trkpt lat="43.51865" lon="2.49454">
        <ele>552.44</ele>
        <time>2021-05-22T11:20:32Z</time>
      </trkpt>
      <trkpt lat="43.51865" lon="2.49454">
        <ele>552.441</ele>
        <time>2021-05-22T11:20:34Z</time>
      </trkpt>
      <trkpt lat="43.51865" lon="2.49454">
        <ele>552.443</ele>
        <time>2021-05-22T11:20:36Z</time>
      </trkpt>
      <trkpt lat="43.51865" lon="2.49454">
        <ele>552.453</ele>
        <time>2021-05-22T11:20:38Z</time>
      </trkpt>
      <trkpt lat="43.51865" lon="2.49454">
        <ele>552.458</ele>
        <time>2021-05-22T11:20:40Z</time>
      </trkpt>
      <trkpt lat="43.51865" lon="2.49454">
        <ele>552.451</ele>
        <time>2021-05-22T11:20:42Z</time>
      </trkpt>
      <trkpt lat="43.51865" lon="2.49454">
        <ele>552.449</ele>
        <time>2021-05-22T11:20:44Z</time>
      </trkpt>
      <trkpt lat="43.51865" lon="2.49454">
        <ele>552.46</ele>
        <time>2021-05-22T11:20:46Z</time>
      </trkpt>
      <trkpt lat="43.51865" lon="2.49454">
        <ele>552.48</ele>
        <time>2021-05-22T11:20:48Z</time>
      </trkpt>
      <trkpt lat="43.51865" lon="2.49454">
        <ele>552.487</ele>
        <time>2021-05-22T11:20:50Z</time>
      </trkpt>
      <trkpt lat="43.51865" lon="2.49454">
        <ele>552.521</ele>
        <time>2021-05-22T11:20:52Z</time>
      </trkpt>
      <trkpt lat="43.51865" lon="2.49454">
        <ele>552.569</ele>
        <time>2021-05-22T11:20:54Z</time>
      </trkpt>
      <trkpt lat="43.51865" lon="2.49454">
        <ele>552.575</ele>
        <time>2021-05-22T11:20:56Z</time>
      </trkpt>
      <trkpt lat="43.51865" lon="2.49454">
        <ele>552.564</ele>
        <time>2021-05-22T11:20:58Z</time>
      </trkpt>
      <trkpt lat="43.51865" lon="2.49454">
        <ele>552.552</ele>
        <time>2021-05-22T11:21:00Z</time>
      </trkpt>
      <trkpt lat="43.51865" lon="2.49454">
        <ele>552.539</ele>
        <time>2021-05-22T11:21:02Z</time>
      </trkpt>
      <trkpt lat="43.51865" lon="2.49454">
        <ele>552.51</ele>
        <time>2021-05-22T11:21:04Z</time>
      </trkpt>
      <trkpt lat="43.51865" lon="2.49454">
        <ele>552.523</ele>
        <time>2021-05-22T11:21:06Z</time>
      </trkpt>
      <trkpt lat="43.51865" lon="2.49454">
        <ele>552.523</ele>
        <time>2021-05-22T11:21:08Z</time>
      </trkpt>
      <trkpt lat="43.51865" lon="2.49454">
        <ele>552.535</ele>
        <time>2021-05-22T11:21:10Z</time>
      </trkpt>
      <trkpt lat="43.51865" lon="2.49454">
        <ele>552.556</ele>
        <time>2021-05-22T11:21:12Z</time>
      </trkpt>
      <trkpt lat="43.51865" lon="2.49454">
        <ele>552.591</ele>
        <time>2021-05-22T11:21:14Z</time>
      </trkpt>
      <trkpt lat="43.51865" lon="2.49454">
        <ele>552.611</ele>
        <time>2021-05-22T11:21:16Z</time>
      </trkpt>
      <trkpt lat="43.51865" lon="2.49454">
        <ele>552.633</ele>
        <time>2021-05-22T11:21:18Z</time>
      </trkpt>
      <trkpt lat="43.51865" lon="2.49454">
        <ele>552.635</ele>
        <time>2021-05-22T11:21:20Z</time>
      </trkpt>
      <trkpt lat="43.51865" lon="2.49454">
        <ele>552.655</ele>
        <time>2021-05-22T11:21:22Z</time>
      </trkpt>
      <trkpt lat="43.51865" lon="2.49454">
        <ele>552.704</ele>
        <time>2021-05-22T11:21:24Z</time>
      </trkpt>
      <trkpt lat="43.51865" lon="2.49454">
        <ele>552.743</ele>
        <time>2021-05-22T11:21:26Z</time>
      </trkpt>
      <trkpt lat="43.51865" lon="2.49454">
        <ele>552.774</ele>
        <time>2021-05-22T11:21:28Z</time>
      </trkpt>
      <trkpt lat="43.51865" lon="2.49454">
        <ele>552.812</ele>
        <time>2021-05-22T11:21:30Z</time>
      </trkpt>
      <trkpt lat="43.51865" lon="2.49454">
        <ele>552.848</ele>
        <time>2021-05-22T11:21:32Z</time>
      </trkpt>
      <trkpt lat="43.51865" lon="2.49454">
        <ele>552.883</ele>
        <time>2021-05-22T11:21:34Z</time>
      </trkpt>
      <trkpt lat="43.51865" lon="2.49454">
        <ele>552.906</ele>
        <time>2021-05-22T11:21:36Z</time>
      </trkpt>
      <trkpt lat="43.51865" lon="2.49454">
        <ele>552.927</ele>
        <time>2021-05-22T11:21:38Z</time>
      </trkpt>
      <trkpt lat="43.51865" lon="2.49454">
        <ele>552.933</ele>
        <time>2021-05-22T11:21:40Z</time>
      </trkpt>
      <trkpt lat="43.51864" lon="2.49454">
        <ele>552.923</ele>
        <time>2021-05-22T11:21:42Z</time>
      </trkpt>
      <trkpt lat="43.51864" lon="2.49454">
        <ele>552.947</ele>
        <time>2021-05-22T11:21:44Z</time>
      </trkpt>
      <trkpt lat="43.51864" lon="2.49454">
        <ele>552.948</ele>
        <time>2021-05-22T11:21:46Z</time>
      </trkpt>
      <trkpt lat="43.51864" lon="2.49454">
        <ele>552.958</ele>
        <time>2021-05-22T11:21:48Z</time>
      </trkpt>
      <trkpt lat="43.51864" lon="2.49454">
        <ele>552.982</ele>
        <time>2021-05-22T11:21:50Z</time>
      </trkpt>
      <trkpt lat="43.51864" lon="2.49454">
        <ele>552.999</ele>
        <time>2021-05-22T11:21:52Z</time>
      </trkpt>
      <trkpt lat="43.51864" lon="2.49454">
        <ele>553.019</ele>
        <time>2021-05-22T11:21:54Z</time>
      </trkpt>
      <trkpt lat="43.51864" lon="2.49454">
        <ele>553.037</ele>
        <time>2021-05-22T11:21:56Z</time>
      </trkpt>
      <trkpt lat="43.51864" lon="2.49454">
        <ele>553.055</ele>
        <time>2021-05-22T11:21:58Z</time>
      </trkpt>
      <trkpt lat="43.51864" lon="2.49454">
        <ele>553.065</ele>
        <time>2021-05-22T11:22:00Z</time>
      </trkpt>
      <trkpt lat="43.51864" lon="2.49454">
        <ele>553.072</ele>
        <time>2021-05-22T11:22:02Z</time>
      </trkpt>
      <trkpt lat="43.51864" lon="2.49454">
        <ele>553.062</ele>
        <time>2021-05-22T11:22:04Z</time>
      </trkpt>
      <trkpt lat="43.51864" lon="2.49454">
        <ele>553.07</ele>
        <time>2021-05-22T11:22:06Z</time>
      </trkpt>
      <trkpt lat="43.51864" lon="2.49454">
        <ele>553.093</ele>
        <time>2021-05-22T11:22:08Z</time>
      </trkpt>
      <trkpt lat="43.51864" lon="2.49454">
        <ele>553.09</ele>
        <time>2021-05-22T11:22:10Z</time>
      </trkpt>
      <trkpt lat="43.51864" lon="2.49454">
        <ele>553.11</ele>
        <time>2021-05-22T11:22:12Z</time>
      </trkpt>
      <trkpt lat="43.51864" lon="2.49454">
        <ele>553.125</ele>
        <time>2021-05-22T11:22:14Z</time>
      </trkpt>
      <trkpt lat="43.51864" lon="2.49454">
        <ele>553.148</ele>
        <time>2021-05-22T11:22:16Z</time>
      </trkpt>
      <trkpt lat="43.51864" lon="2.49454">
        <ele>552.61</ele>
        <time>2021-05-22T11:22:18Z</time>
      </trkpt>
      <trkpt lat="43.51864" lon="2.49453">
        <ele>552.957</ele>
        <time>2021-05-22T11:22:20Z</time>
      </trkpt>
      <trkpt lat="43.51864" lon="2.49453">
        <ele>552.999</ele>
        <time>2021-05-22T11:22:22Z</time>
      </trkpt>
      <trkpt lat="43.51864" lon="2.49453">
        <ele>553.039</ele>
        <time>2021-05-22T11:22:24Z</time>
      </trkpt>
      <trkpt lat="43.51864" lon="2.49453">
        <ele>553.042</ele>
        <time>2021-05-22T11:22:26Z</time>
      </trkpt>
      <trkpt lat="43.51864" lon="2.49453">
        <ele>553.055</ele>
        <time>2021-05-22T11:22:28Z</time>
      </trkpt>
      <trkpt lat="43.51864" lon="2.49453">
        <ele>553.072</ele>
        <time>2021-05-22T11:22:30Z</time>
      </trkpt>
      <trkpt lat="43.51864" lon="2.49453">
        <ele>553.128</ele>
        <time>2021-05-22T11:22:32Z</time>
      </trkpt>
      <trkpt lat="43.51864" lon="2.49453">
        <ele>553.168</ele>
        <time>2021-05-22T11:22:34Z</time>
      </trkpt>
      <trkpt lat="43.51864" lon="2.49453">
        <ele>553.197</ele>
        <time>2021-05-22T11:22:36Z</time>
      </trkpt>
      <trkpt lat="43.51864" lon="2.49453">
        <ele>553.216</ele>
        <time>2021-05-22T11:22:38Z</time>
      </trkpt>
      <trkpt lat="43.51864" lon="2.49453">
        <ele>553.204</ele>
        <time>2021-05-22T11:22:40Z</time>
      </trkpt>
      <trkpt lat="43.51863" lon="2.49453">
        <ele>553.222</ele>
        <time>2021-05-22T11:22:42Z</time>
      </trkpt>
      <trkpt lat="43.51863" lon="2.49453">
        <ele>553.263</ele>
        <time>2021-05-22T11:22:44Z</time>
      </trkpt>
      <trkpt lat="43.51863" lon="2.49453">
        <ele>553.314</ele>
        <time>2021-05-22T11:22:46Z</time>
      </trkpt>
      <trkpt lat="43.51863" lon="2.49453">
        <ele>553.332</ele>
        <time>2021-05-22T11:22:48Z</time>
      </trkpt>
      <trkpt lat="43.51863" lon="2.49453">
        <ele>553.335</ele>
        <time>2021-05-22T11:22:50Z</time>
      </trkpt>
      <trkpt lat="43.51863" lon="2.49453">
        <ele>553.352</ele>
        <time>2021-05-22T11:22:52Z</time>
      </trkpt>
      <trkpt lat="43.51863" lon="2.49453">
        <ele>553.361</ele>
        <time>2021-05-22T11:22:54Z</time>
      </trkpt>
      <trkpt lat="43.51863" lon="2.49453">
        <ele>553.386</ele>
        <time>2021-05-22T11:22:56Z</time>
      </trkpt>
      <trkpt lat="43.51863" lon="2.49453">
        <ele>553.424</ele>
        <time>2021-05-22T11:22:58Z</time>
      </trkpt>
      <trkpt lat="43.51863" lon="2.49453">
        <ele>554.271</ele>
        <time>2021-05-22T11:23:00Z</time>
      </trkpt>
      <trkpt lat="43.51863" lon="2.49453">
        <ele>556.78</ele>
        <time>2021-05-22T11:23:02Z</time>
      </trkpt>
      <trkpt lat="43.51863" lon="2.49454">
        <ele>558.598</ele>
        <time>2021-05-22T11:23:04Z</time>
      </trkpt>
      <trkpt lat="43.51863" lon="2.49454">
        <ele>558.602</ele>
        <time>2021-05-22T11:23:06Z</time>
      </trkpt>
      <trkpt lat="43.51863" lon="2.49454">
        <ele>558.602</ele>
        <time>2021-05-22T11:23:08Z</time>
      </trkpt>
      <trkpt lat="43.51863" lon="2.49454">
        <ele>558.603</ele>
        <time>2021-05-22T11:23:10Z</time>
      </trkpt>
      <trkpt lat="43.51863" lon="2.49454">
        <ele>558.594</ele>
        <time>2021-05-22T11:23:12Z</time>
      </trkpt>
      <trkpt lat="43.51863" lon="2.49454">
        <ele>558.372</ele>
        <time>2021-05-22T11:23:14Z</time>
      </trkpt>
      <trkpt lat="43.51862" lon="2.49455">
        <ele>557.587</ele>
        <time>2021-05-22T11:23:16Z</time>
      </trkpt>
      <trkpt lat="43.51861" lon="2.49457">
        <ele>558.148</ele>
        <time>2021-05-22T11:23:18Z</time>
      </trkpt>
      <trkpt lat="43.51859" lon="2.49457">
        <ele>558.6</ele>
        <time>2021-05-22T11:23:20Z</time>
      </trkpt>
      <trkpt lat="43.51857" lon="2.49456">
        <ele>557.566</ele>
        <time>2021-05-22T11:23:22Z</time>
      </trkpt>
      <trkpt lat="43.51856" lon="2.49456">
        <ele>556.883</ele>
        <time>2021-05-22T11:23:24Z</time>
      </trkpt>
      <trkpt lat="43.51853" lon="2.49455">
        <ele>556.018</ele>
        <time>2021-05-22T11:23:26Z</time>
      </trkpt>
      <trkpt lat="43.51851" lon="2.49455">
        <ele>555.26</ele>
        <time>2021-05-22T11:23:28Z</time>
      </trkpt>
      <trkpt lat="43.51849" lon="2.49455">
        <ele>555.446</ele>
        <time>2021-05-22T11:23:30Z</time>
      </trkpt>
      <trkpt lat="43.51847" lon="2.49454">
        <ele>555.156</ele>
        <time>2021-05-22T11:23:32Z</time>
      </trkpt>
      <trkpt lat="43.51845" lon="2.49455">
        <ele>554.866</ele>
        <time>2021-05-22T11:23:34Z</time>
      </trkpt>
      <trkpt lat="43.51843" lon="2.49456">
        <ele>552.956</ele>
        <time>2021-05-22T11:23:36Z</time>
      </trkpt>
      <trkpt lat="43.51841" lon="2.49456">
        <ele>554.193</ele>
        <time>2021-05-22T11:23:38Z</time>
      </trkpt>
      <trkpt lat="43.51839" lon="2.49456">
        <ele>554.264</ele>
        <time>2021-05-22T11:23:40Z</time>
      </trkpt>
      <trkpt lat="43.51837" lon="2.49457">
        <ele>552.993</ele>
        <time>2021-05-22T11:23:42Z</time>
      </trkpt>
      <trkpt lat="43.51835" lon="2.49457">
        <ele>551.804</ele>
        <time>2021-05-22T11:23:44Z</time>
      </trkpt>
      <trkpt lat="43.51834" lon="2.49459">
        <ele>550.698</ele>
        <time>2021-05-22T11:23:46Z</time>
      </trkpt>
      <trkpt lat="43.51831" lon="2.4946">
        <ele>548.996</ele>
        <time>2021-05-22T11:23:48Z</time>
      </trkpt>
      <trkpt lat="43.51829" lon="2.49461">
        <ele>548.569</ele>
        <time>2021-05-22T11:23:50Z</time>
      </trkpt>
      <trkpt lat="43.51827" lon="2.49461">
        <ele>549.098</ele>
        <time>2021-05-22T11:23:52Z</time>
      </trkpt>
      <trkpt lat="43.51825" lon="2.4946">
        <ele>550.085</ele>
        <time>2021-05-22T11:23:54Z</time>
      </trkpt>
      <trkpt lat="43.51823" lon="2.49458">
        <ele>550.352</ele>
        <time>2021-05-22T11:23:56Z</time>
      </trkpt>
      <trkpt lat="43.51821" lon="2.49458">
        <ele>549.546</ele>
        <time>2021-05-22T11:23:58Z</time>
      </trkpt>
      <trkpt lat="43.51818" lon="2.49457">
        <ele>551.198</ele>
        <time>2021-05-22T11:24:00Z</time>
      </trkpt>
      <trkpt lat="43.51816" lon="2.49457">
        <ele>552.382</ele>
        <time>2021-05-22T11:24:02Z</time>
      </trkpt>
      <trkpt lat="43.51814" lon="2.49457">
        <ele>552.512</ele>
        <time>2021-05-22T11:24:04Z</time>
      </trkpt>
      <trkpt lat="43.51812" lon="2.49457">
        <ele>553.228</ele>
        <time>2021-05-22T11:24:06Z</time>
      </trkpt>
      <trkpt lat="43.51809" lon="2.49456">
        <ele>553.869</ele>
        <time>2021-05-22T11:24:08Z</time>
      </trkpt>
      <trkpt lat="43.51807" lon="2.49456">
        <ele>552.395</ele>
        <time>2021-05-22T11:24:10Z</time>
      </trkpt>
      <trkpt lat="43.51805" lon="2.49456">
        <ele>551.548</ele>
        <time>2021-05-22T11:24:12Z</time>
      </trkpt>
      <trkpt lat="43.51802" lon="2.49457">
        <ele>553.008</ele>
        <time>2021-05-22T11:24:14Z</time>
      </trkpt>
      <trkpt lat="43.518" lon="2.49458">
        <ele>552.118</ele>
        <time>2021-05-22T11:24:16Z</time>
      </trkpt>
      <trkpt lat="43.51799" lon="2.49459">
        <ele>550.64</ele>
        <time>2021-05-22T11:24:18Z</time>
      </trkpt>
      <trkpt lat="43.51797" lon="2.49461">
        <ele>552.227</ele>
        <time>2021-05-22T11:24:20Z</time>
      </trkpt>
      <trkpt lat="43.51795" lon="2.49462">
        <ele>552.99</ele>
        <time>2021-05-22T11:24:22Z</time>
      </trkpt>
      <trkpt lat="43.51793" lon="2.49463">
        <ele>553.149</ele>
        <time>2021-05-22T11:24:24Z</time>
      </trkpt>
      <trkpt lat="43.51791" lon="2.49465">
        <ele>552.9</ele>
        <time>2021-05-22T11:24:26Z</time>
      </trkpt>
      <trkpt lat="43.51789" lon="2.49466">
        <ele>553.152</ele>
        <time>2021-05-22T11:24:28Z</time>
      </trkpt>
      <trkpt lat="43.51787" lon="2.49468">
        <ele>552.321</ele>
        <time>2021-05-22T11:24:30Z</time>
      </trkpt>
      <trkpt lat="43.51785" lon="2.49469">
        <ele>551.009</ele>
        <time>2021-05-22T11:24:32Z</time>
      </trkpt>
      <trkpt lat="43.51782" lon="2.49469">
        <ele>550.34</ele>
        <time>2021-05-22T11:24:34Z</time>
      </trkpt>
      <trkpt lat="43.5178" lon="2.49469">
        <ele>551.824</ele>
        <time>2021-05-22T11:24:36Z</time>
      </trkpt>
      <trkpt lat="43.51778" lon="2.4947">
        <ele>550.905</ele>
        <time>2021-05-22T11:24:38Z</time>
      </trkpt>
      <trkpt lat="43.51775" lon="2.49471">
        <ele>551.56</ele>
        <time>2021-05-22T11:24:40Z</time>
      </trkpt>
      <trkpt lat="43.51773" lon="2.49471">
        <ele>550.117</ele>
        <time>2021-05-22T11:24:42Z</time>
      </trkpt>
      <trkpt lat="43.51771" lon="2.49472">
        <ele>551.08</ele>
        <time>2021-05-22T11:24:44Z</time>
      </trkpt>
      <trkpt lat="43.51769" lon="2.49473">
        <ele>550.136</ele>
        <time>2021-05-22T11:24:46Z</time>
      </trkpt>
      <trkpt lat="43.51767" lon="2.49475">
        <ele>549.018</ele>
        <time>2021-05-22T11:24:48Z</time>
      </trkpt>
      <trkpt lat="43.51766" lon="2.49477">
        <ele>547.906</ele>
        <time>2021-05-22T11:24:50Z</time>
      </trkpt>
      <trkpt lat="43.51764" lon="2.49479">
        <ele>546.579</ele>
        <time>2021-05-22T11:24:52Z</time>
      </trkpt>
      <trkpt lat="43.51763" lon="2.49481">
        <ele>547.267</ele>
        <time>2021-05-22T11:24:54Z</time>
      </trkpt>
      <trkpt lat="43.5176" lon="2.49482">
        <ele>545.736</ele>
        <time>2021-05-22T11:24:56Z</time>
      </trkpt>
      <trkpt lat="43.51758" lon="2.49484">
        <ele>543.913</ele>
        <time>2021-05-22T11:24:58Z</time>
      </trkpt>
      <trkpt lat="43.51756" lon="2.49487">
        <ele>542.577</ele>
        <time>2021-05-22T11:25:00Z</time>
      </trkpt>
      <trkpt lat="43.51755" lon="2.49488">
        <ele>540.853</ele>
        <time>2021-05-22T11:25:02Z</time>
      </trkpt>
      <trkpt lat="43.51753" lon="2.4949">
        <ele>539.314</ele>
        <time>2021-05-22T11:25:04Z</time>
      </trkpt>
      <trkpt lat="43.51751" lon="2.49492">
        <ele>538.416</ele>
        <time>2021-05-22T11:25:06Z</time>
      </trkpt>
      <trkpt lat="43.51749" lon="2.49493">
        <ele>537.587</ele>
        <time>2021-05-22T11:25:08Z</time>
      </trkpt>
      <trkpt lat="43.51747" lon="2.49496">
        <ele>537.479</ele>
        <time>2021-05-22T11:25:10Z</time>
      </trkpt>
      <trkpt lat="43.51746" lon="2.49498">
        <ele>537.731</ele>
        <time>2021-05-22T11:25:12Z</time>
      </trkpt>
      <trkpt lat="43.51744" lon="2.49499">
        <ele>538.553</ele>
        <time>2021-05-22T11:25:14Z</time>
      </trkpt>
      <trkpt lat="43.51741" lon="2.495">
        <ele>539.606</ele>
        <time>2021-05-22T11:25:16Z</time>
      </trkpt>
      <trkpt lat="43.51739" lon="2.49501">
        <ele>540.389</ele>
        <time>2021-05-22T11:25:18Z</time>
      </trkpt>
      <trkpt lat="43.51737" lon="2.49502">
        <ele>539.214</ele>
        <time>2021-05-22T11:25:20Z</time>
      </trkpt>
      <trkpt lat="43.51736" lon="2.49504">
        <ele>536.392</ele>
        <time>2021-05-22T11:25:22Z</time>
      </trkpt>
      <trkpt lat="43.51735" lon="2.49506">
        <ele>533.667</ele>
        <time>2021-05-22T11:25:24Z</time>
      </trkpt>
      <trkpt lat="43.51732" lon="2.49506">
        <ele>534.913</ele>
        <time>2021-05-22T11:25:26Z</time>
      </trkpt>
      <trkpt lat="43.5173" lon="2.49508">
        <ele>535.301</ele>
        <time>2021-05-22T11:25:28Z</time>
      </trkpt>
      <trkpt lat="43.51728" lon="2.49508">
        <ele>534.355</ele>
        <time>2021-05-22T11:25:30Z</time>
      </trkpt>
      <trkpt lat="43.51726" lon="2.4951">
        <ele>532.465</ele>
        <time>2021-05-22T11:25:32Z</time>
      </trkpt>
      <trkpt lat="43.51725" lon="2.49511">
        <ele>531.047</ele>
        <time>2021-05-22T11:25:34Z</time>
      </trkpt>
      <trkpt lat="43.51723" lon="2.49513">
        <ele>528.56</ele>
        <time>2021-05-22T11:25:36Z</time>
      </trkpt>
      <trkpt lat="43.51722" lon="2.49516">
        <ele>525.625</ele>
        <time>2021-05-22T11:25:38Z</time>
      </trkpt>
      <trkpt lat="43.5172" lon="2.49517">
        <ele>525.193</ele>
        <time>2021-05-22T11:25:40Z</time>
      </trkpt>
      <trkpt lat="43.51719" lon="2.49519">
        <ele>525.286</ele>
        <time>2021-05-22T11:25:42Z</time>
      </trkpt>
      <trkpt lat="43.51716" lon="2.4952">
        <ele>524.428</ele>
        <time>2021-05-22T11:25:44Z</time>
      </trkpt>
      <trkpt lat="43.51715" lon="2.49523">
        <ele>522.679</ele>
        <time>2021-05-22T11:25:46Z</time>
      </trkpt>
      <trkpt lat="43.51712" lon="2.49525">
        <ele>522.353</ele>
        <time>2021-05-22T11:25:48Z</time>
      </trkpt>
      <trkpt lat="43.51709" lon="2.49526">
        <ele>523.688</ele>
        <time>2021-05-22T11:25:50Z</time>
      </trkpt>
      <trkpt lat="43.51706" lon="2.49527">
        <ele>522.895</ele>
        <time>2021-05-22T11:25:52Z</time>
      </trkpt>
      <trkpt lat="43.51704" lon="2.49528">
        <ele>522.587</ele>
        <time>2021-05-22T11:25:54Z</time>
      </trkpt>
      <trkpt lat="43.51702" lon="2.49529">
        <ele>521.5</ele>
        <time>2021-05-22T11:25:56Z</time>
      </trkpt>
      <trkpt lat="43.517" lon="2.4953">
        <ele>522.657</ele>
        <time>2021-05-22T11:25:58Z</time>
      </trkpt>
      <trkpt lat="43.51698" lon="2.4953">
        <ele>523.477</ele>
        <time>2021-05-22T11:26:00Z</time>
      </trkpt>
      <trkpt lat="43.51696" lon="2.49532">
        <ele>522.796</ele>
        <time>2021-05-22T11:26:02Z</time>
      </trkpt>
      <trkpt lat="43.51694" lon="2.49532">
        <ele>522.688</ele>
        <time>2021-05-22T11:26:04Z</time>
      </trkpt>
      <trkpt lat="43.51691" lon="2.49533">
        <ele>523.35</ele>
        <time>2021-05-22T11:26:06Z</time>
      </trkpt>
      <trkpt lat="43.51689" lon="2.49533">
        <ele>525.26</ele>
        <time>2021-05-22T11:26:08Z</time>
      </trkpt>
      <trkpt lat="43.51687" lon="2.49533">
        <ele>526.444</ele>
        <time>2021-05-22T11:26:10Z</time>
      </trkpt>
      <trkpt lat="43.51684" lon="2.49534">
        <ele>526.595</ele>
        <time>2021-05-22T11:26:12Z</time>
      </trkpt>
      <trkpt lat="43.51682" lon="2.49535">
        <ele>526.936</ele>
        <time>2021-05-22T11:26:14Z</time>
      </trkpt>
      <trkpt lat="43.51679" lon="2.49535">
        <ele>528.491</ele>
        <time>2021-05-22T11:26:16Z</time>
      </trkpt>
      <trkpt lat="43.51677" lon="2.49537">
        <ele>528.764</ele>
        <time>2021-05-22T11:26:18Z</time>
      </trkpt>
      <trkpt lat="43.51675" lon="2.49538">
        <ele>528.398</ele>
        <time>2021-05-22T11:26:20Z</time>
      </trkpt>
      <trkpt lat="43.51673" lon="2.49539">
        <ele>528.607</ele>
        <time>2021-05-22T11:26:22Z</time>
      </trkpt>
      <trkpt lat="43.51671" lon="2.49539">
        <ele>528.526</ele>
        <time>2021-05-22T11:26:24Z</time>
      </trkpt>
      <trkpt lat="43.51669" lon="2.4954">
        <ele>529.493</ele>
        <time>2021-05-22T11:26:26Z</time>
      </trkpt>
      <trkpt lat="43.51667" lon="2.49539">
        <ele>530.212</ele>
        <time>2021-05-22T11:26:28Z</time>
      </trkpt>
      <trkpt lat="43.51664" lon="2.4954">
        <ele>531.795</ele>
        <time>2021-05-22T11:26:30Z</time>
      </trkpt>
      <trkpt lat="43.51662" lon="2.49541">
        <ele>531.927</ele>
        <time>2021-05-22T11:26:32Z</time>
      </trkpt>
      <trkpt lat="43.51661" lon="2.49543">
        <ele>532.497</ele>
        <time>2021-05-22T11:26:34Z</time>
      </trkpt>
      <trkpt lat="43.51659" lon="2.49545">
        <ele>536.098</ele>
        <time>2021-05-22T11:26:36Z</time>
      </trkpt>
      <trkpt lat="43.51659" lon="2.49546">
        <ele>537.728</ele>
        <time>2021-05-22T11:26:38Z</time>
      </trkpt>
      <trkpt lat="43.51659" lon="2.49547">
        <ele>541.33</ele>
        <time>2021-05-22T11:26:40Z</time>
      </trkpt>
      <trkpt lat="43.5166" lon="2.49546">
        <ele>544.395</ele>
        <time>2021-05-22T11:26:42Z</time>
      </trkpt>
      <trkpt lat="43.51661" lon="2.49545">
        <ele>546.848</ele>
        <time>2021-05-22T11:26:44Z</time>
      </trkpt>
      <trkpt lat="43.51661" lon="2.49545">
        <ele>550.523</ele>
        <time>2021-05-22T11:26:46Z</time>
      </trkpt>
      <trkpt lat="43.51662" lon="2.49545">
        <ele>552.282</ele>
        <time>2021-05-22T11:26:48Z</time>
      </trkpt>
      <trkpt lat="43.51663" lon="2.49545">
        <ele>553.697</ele>
        <time>2021-05-22T11:26:50Z</time>
      </trkpt>
      <trkpt lat="43.51664" lon="2.49546">
        <ele>554.671</ele>
        <time>2021-05-22T11:26:52Z</time>
      </trkpt>
      <trkpt lat="43.51665" lon="2.49546">
        <ele>558.899</ele>
        <time>2021-05-22T11:26:54Z</time>
      </trkpt>
      <trkpt lat="43.51666" lon="2.49548">
        <ele>560.866</ele>
        <time>2021-05-22T11:26:56Z</time>
      </trkpt>
      <trkpt lat="43.51667" lon="2.49548">
        <ele>565.256</ele>
        <time>2021-05-22T11:26:58Z</time>
      </trkpt>
      <trkpt lat="43.51668" lon="2.49549">
        <ele>566.63</ele>
        <time>2021-05-22T11:27:00Z</time>
      </trkpt>
      <trkpt lat="43.51669" lon="2.4955">
        <ele>565.786</ele>
        <time>2021-05-22T11:27:02Z</time>
      </trkpt>
      <trkpt lat="43.51669" lon="2.49552">
        <ele>566.313</ele>
        <time>2021-05-22T11:27:04Z</time>
      </trkpt>
      <trkpt lat="43.5167" lon="2.49554">
        <ele>566.256</ele>
        <time>2021-05-22T11:27:06Z</time>
      </trkpt>
      <trkpt lat="43.51671" lon="2.49555">
        <ele>567.822</ele>
        <time>2021-05-22T11:27:08Z</time>
      </trkpt>
      <trkpt lat="43.51673" lon="2.49556">
        <ele>569.636</ele>
        <time>2021-05-22T11:27:10Z</time>
      </trkpt>
      <trkpt lat="43.51674" lon="2.49557">
        <ele>570.957</ele>
        <time>2021-05-22T11:27:12Z</time>
      </trkpt>
      <trkpt lat="43.51675" lon="2.49557">
        <ele>571.997</ele>
        <time>2021-05-22T11:27:14Z</time>
      </trkpt>
      <trkpt lat="43.51677" lon="2.49558">
        <ele>572.428</ele>
        <time>2021-05-22T11:27:16Z</time>
      </trkpt>
      <trkpt lat="43.51678" lon="2.49558">
        <ele>572.04</ele>
        <time>2021-05-22T11:27:18Z</time>
      </trkpt>
      <trkpt lat="43.51679" lon="2.49558">
        <ele>572.111</ele>
        <time>2021-05-22T11:27:20Z</time>
      </trkpt>
      <trkpt lat="43.5168" lon="2.49558">
        <ele>572.117</ele>
        <time>2021-05-22T11:27:22Z</time>
      </trkpt>
      <trkpt lat="43.51681" lon="2.49559">
        <ele>572.537</ele>
        <time>2021-05-22T11:27:24Z</time>
      </trkpt>
      <trkpt lat="43.51683" lon="2.49559">
        <ele>574.835</ele>
        <time>2021-05-22T11:27:26Z</time>
      </trkpt>
      <trkpt lat="43.51685" lon="2.4956">
        <ele>575.636</ele>
        <time>2021-05-22T11:27:28Z</time>
      </trkpt>
      <trkpt lat="43.51686" lon="2.49561">
        <ele>576.663</ele>
        <time>2021-05-22T11:27:30Z</time>
      </trkpt>
      <trkpt lat="43.51686" lon="2.49562">
        <ele>576.901</ele>
        <time>2021-05-22T11:27:32Z</time>
      </trkpt>
      <trkpt lat="43.51687" lon="2.49562">
        <ele>577.128</ele>
        <time>2021-05-22T11:27:34Z</time>
      </trkpt>
      <trkpt lat="43.51689" lon="2.49562">
        <ele>579.07</ele>
        <time>2021-05-22T11:27:36Z</time>
      </trkpt>
      <trkpt lat="43.5169" lon="2.49563">
        <ele>581.876</ele>
        <time>2021-05-22T11:27:38Z</time>
      </trkpt>
      <trkpt lat="43.51691" lon="2.49564">
        <ele>583.199</ele>
        <time>2021-05-22T11:27:40Z</time>
      </trkpt>
      <trkpt lat="43.5169" lon="2.49566">
        <ele>584.028</ele>
        <time>2021-05-22T11:27:42Z</time>
      </trkpt>
      <trkpt lat="43.51689" lon="2.49568">
        <ele>584.564</ele>
        <time>2021-05-22T11:27:44Z</time>
      </trkpt>
      <trkpt lat="43.51688" lon="2.4957">
        <ele>584.718</ele>
        <time>2021-05-22T11:27:46Z</time>
      </trkpt>
      <trkpt lat="43.51687" lon="2.49572">
        <ele>582.871</ele>
        <time>2021-05-22T11:27:48Z</time>
      </trkpt>
      <trkpt lat="43.51686" lon="2.49572">
        <ele>583.869</ele>
        <time>2021-05-22T11:27:50Z</time>
      </trkpt>
      <trkpt lat="43.51684" lon="2.49572">
        <ele>583.656</ele>
        <time>2021-05-22T11:27:52Z</time>
      </trkpt>
      <trkpt lat="43.51683" lon="2.49573">
        <ele>584.34</ele>
        <time>2021-05-22T11:27:54Z</time>
      </trkpt>
      <trkpt lat="43.51682" lon="2.49574">
        <ele>584.119</ele>
        <time>2021-05-22T11:27:56Z</time>
      </trkpt>
      <trkpt lat="43.5168" lon="2.49575">
        <ele>583.894</ele>
        <time>2021-05-22T11:27:58Z</time>
      </trkpt>
      <trkpt lat="43.51679" lon="2.49574">
        <ele>586.417</ele>
        <time>2021-05-22T11:28:00Z</time>
      </trkpt>
      <trkpt lat="43.51677" lon="2.49574">
        <ele>585.586</ele>
        <time>2021-05-22T11:28:02Z</time>
      </trkpt>
      <trkpt lat="43.51675" lon="2.49574">
        <ele>584.412</ele>
        <time>2021-05-22T11:28:04Z</time>
      </trkpt>
      <trkpt lat="43.51673" lon="2.49574">
        <ele>584.176</ele>
        <time>2021-05-22T11:28:06Z</time>
      </trkpt>
      <trkpt lat="43.51671" lon="2.49574">
        <ele>583.632</ele>
        <time>2021-05-22T11:28:08Z</time>
      </trkpt>
      <trkpt lat="43.51669" lon="2.49575">
        <ele>582.848</ele>
        <time>2021-05-22T11:28:10Z</time>
      </trkpt>
      <trkpt lat="43.51668" lon="2.49575">
        <ele>582.637</ele>
        <time>2021-05-22T11:28:12Z</time>
      </trkpt>
      <trkpt lat="43.51667" lon="2.49575">
        <ele>584.234</ele>
        <time>2021-05-22T11:28:14Z</time>
      </trkpt>
      <trkpt lat="43.51665" lon="2.49576">
        <ele>583.995</ele>
        <time>2021-05-22T11:28:16Z</time>
      </trkpt>
      <trkpt lat="43.51663" lon="2.49576">
        <ele>587.139</ele>
        <time>2021-05-22T11:28:18Z</time>
      </trkpt>
      <trkpt lat="43.51661" lon="2.49575">
        <ele>588.723</ele>
        <time>2021-05-22T11:28:20Z</time>
      </trkpt>
      <trkpt lat="43.51658" lon="2.49576">
        <ele>589.662</ele>
        <time>2021-05-22T11:28:22Z</time>
      </trkpt>
      <trkpt lat="43.51656" lon="2.49576">
        <ele>590.205</ele>
        <time>2021-05-22T11:28:24Z</time>
      </trkpt>
      <trkpt lat="43.51653" lon="2.49577">
        <ele>589.465</ele>
        <time>2021-05-22T11:28:26Z</time>
      </trkpt>
      <trkpt lat="43.51651" lon="2.49578">
        <ele>589.321</ele>
        <time>2021-05-22T11:28:28Z</time>
      </trkpt>
      <trkpt lat="43.5165" lon="2.49581">
        <ele>587.962</ele>
        <time>2021-05-22T11:28:30Z</time>
      </trkpt>
      <trkpt lat="43.51648" lon="2.49582">
        <ele>586.63</ele>
        <time>2021-05-22T11:28:32Z</time>
      </trkpt>
      <trkpt lat="43.51646" lon="2.49583">
        <ele>585.532</ele>
        <time>2021-05-22T11:28:34Z</time>
      </trkpt>
      <trkpt lat="43.51644" lon="2.49583">
        <ele>585.479</ele>
        <time>2021-05-22T11:28:36Z</time>
      </trkpt>
      <trkpt lat="43.51642" lon="2.49583">
        <ele>587.234</ele>
        <time>2021-05-22T11:28:38Z</time>
      </trkpt>
      <trkpt lat="43.51639" lon="2.49583">
        <ele>587.17</ele>
        <time>2021-05-22T11:28:40Z</time>
      </trkpt>
      <trkpt lat="43.51637" lon="2.49584">
        <ele>587.72</ele>
        <time>2021-05-22T11:28:42Z</time>
      </trkpt>
      <trkpt lat="43.51635" lon="2.49585">
        <ele>588.42</ele>
        <time>2021-05-22T11:28:44Z</time>
      </trkpt>
      <trkpt lat="43.51633" lon="2.49587">
        <ele>587.932</ele>
        <time>2021-05-22T11:28:46Z</time>
      </trkpt>
      <trkpt lat="43.51631" lon="2.49588">
        <ele>588.007</ele>
        <time>2021-05-22T11:28:48Z</time>
      </trkpt>
      <trkpt lat="43.51629" lon="2.49588">
        <ele>587.557</ele>
        <time>2021-05-22T11:28:50Z</time>
      </trkpt>
      <trkpt lat="43.51627" lon="2.49587">
        <ele>589.5</ele>
        <time>2021-05-22T11:28:52Z</time>
      </trkpt>
      <trkpt lat="43.51624" lon="2.49588">
        <ele>589.085</ele>
        <time>2021-05-22T11:28:54Z</time>
      </trkpt>
      <trkpt lat="43.51622" lon="2.49588">
        <ele>588.534</ele>
        <time>2021-05-22T11:28:56Z</time>
      </trkpt>
      <trkpt lat="43.51619" lon="2.49589">
        <ele>588.926</ele>
        <time>2021-05-22T11:28:58Z</time>
      </trkpt>
      <trkpt lat="43.51616" lon="2.49588">
        <ele>590.429</ele>
        <time>2021-05-22T11:29:00Z</time>
      </trkpt>
      <trkpt lat="43.51614" lon="2.49588">
        <ele>591.803</ele>
        <time>2021-05-22T11:29:02Z</time>
      </trkpt>
      <trkpt lat="43.51612" lon="2.49589">
        <ele>591.681</ele>
        <time>2021-05-22T11:29:04Z</time>
      </trkpt>
      <trkpt lat="43.5161" lon="2.49589">
        <ele>591.921</ele>
        <time>2021-05-22T11:29:06Z</time>
      </trkpt>
      <trkpt lat="43.51608" lon="2.4959">
        <ele>592.866</ele>
        <time>2021-05-22T11:29:08Z</time>
      </trkpt>
      <trkpt lat="43.51606" lon="2.4959">
        <ele>593.696</ele>
        <time>2021-05-22T11:29:10Z</time>
      </trkpt>
      <trkpt lat="43.51604" lon="2.49591">
        <ele>593.444</ele>
        <time>2021-05-22T11:29:12Z</time>
      </trkpt>
      <trkpt lat="43.51602" lon="2.4959">
        <ele>593.34</ele>
        <time>2021-05-22T11:29:14Z</time>
      </trkpt>
      <trkpt lat="43.516" lon="2.4959">
        <ele>593.516</ele>
        <time>2021-05-22T11:29:16Z</time>
      </trkpt>
      <trkpt lat="43.51598" lon="2.4959">
        <ele>593.995</ele>
        <time>2021-05-22T11:29:18Z</time>
      </trkpt>
      <trkpt lat="43.51596" lon="2.49591">
        <ele>593.485</ele>
        <time>2021-05-22T11:29:20Z</time>
      </trkpt>
      <trkpt lat="43.51594" lon="2.49592">
        <ele>593.013</ele>
        <time>2021-05-22T11:29:22Z</time>
      </trkpt>
      <trkpt lat="43.51592" lon="2.49593">
        <ele>591.067</ele>
        <time>2021-05-22T11:29:24Z</time>
      </trkpt>
      <trkpt lat="43.5159" lon="2.49594">
        <ele>589.675</ele>
        <time>2021-05-22T11:29:26Z</time>
      </trkpt>
      <trkpt lat="43.51588" lon="2.49596">
        <ele>588.852</ele>
        <time>2021-05-22T11:29:28Z</time>
      </trkpt>
      <trkpt lat="43.51586" lon="2.49597">
        <ele>589.795</ele>
        <time>2021-05-22T11:29:30Z</time>
      </trkpt>
      <trkpt lat="43.51584" lon="2.49597">
        <ele>590.771</ele>
        <time>2021-05-22T11:29:32Z</time>
      </trkpt>
      <trkpt lat="43.51582" lon="2.49596">
        <ele>591.463</ele>
        <time>2021-05-22T11:29:34Z</time>
      </trkpt>
      <trkpt lat="43.5158" lon="2.49596">
        <ele>591.966</ele>
        <time>2021-05-22T11:29:36Z</time>
      </trkpt>
      <trkpt lat="43.51578" lon="2.49596">
        <ele>592.444</ele>
        <time>2021-05-22T11:29:38Z</time>
      </trkpt>
      <trkpt lat="43.51575" lon="2.49596">
        <ele>592.338</ele>
        <time>2021-05-22T11:29:40Z</time>
      </trkpt>
      <trkpt lat="43.51573" lon="2.49595">
        <ele>592.66</ele>
        <time>2021-05-22T11:29:42Z</time>
      </trkpt>
      <trkpt lat="43.51571" lon="2.49595">
        <ele>593.554</ele>
        <time>2021-05-22T11:29:44Z</time>
      </trkpt>
      <trkpt lat="43.51569" lon="2.49595">
        <ele>594.085</ele>
        <time>2021-05-22T11:29:46Z</time>
      </trkpt>
      <trkpt lat="43.51567" lon="2.49595">
        <ele>594.852</ele>
        <time>2021-05-22T11:29:48Z</time>
      </trkpt>
      <trkpt lat="43.51565" lon="2.49596">
        <ele>595.285</ele>
        <time>2021-05-22T11:29:50Z</time>
      </trkpt>
      <trkpt lat="43.51562" lon="2.49596">
        <ele>596.314</ele>
        <time>2021-05-22T11:29:52Z</time>
      </trkpt>
      <trkpt lat="43.5156" lon="2.49596">
        <ele>596.809</ele>
        <time>2021-05-22T11:29:54Z</time>
      </trkpt>
      <trkpt lat="43.51558" lon="2.49596">
        <ele>597.608</ele>
        <time>2021-05-22T11:29:56Z</time>
      </trkpt>
      <trkpt lat="43.51557" lon="2.49596">
        <ele>598.072</ele>
        <time>2021-05-22T11:29:58Z</time>
      </trkpt>
      <trkpt lat="43.51555" lon="2.49596">
        <ele>600.248</ele>
        <time>2021-05-22T11:30:00Z</time>
      </trkpt>
      <trkpt lat="43.51553" lon="2.49596">
        <ele>603.016</ele>
        <time>2021-05-22T11:30:02Z</time>
      </trkpt>
      <trkpt lat="43.51551" lon="2.49596">
        <ele>603.238</ele>
        <time>2021-05-22T11:30:04Z</time>
      </trkpt>
      <trkpt lat="43.51549" lon="2.49596">
        <ele>602.78</ele>
        <time>2021-05-22T11:30:06Z</time>
      </trkpt>
      <trkpt lat="43.51547" lon="2.49595">
        <ele>603.051</ele>
        <time>2021-05-22T11:30:08Z</time>
      </trkpt>
      <trkpt lat="43.51545" lon="2.49595">
        <ele>603.357</ele>
        <time>2021-05-22T11:30:10Z</time>
      </trkpt>
      <trkpt lat="43.51542" lon="2.49594">
        <ele>604.855</ele>
        <time>2021-05-22T11:30:12Z</time>
      </trkpt>
      <trkpt lat="43.5154" lon="2.49594">
        <ele>605.599</ele>
        <time>2021-05-22T11:30:14Z</time>
      </trkpt>
      <trkpt lat="43.51539" lon="2.49594">
        <ele>607.226</ele>
        <time>2021-05-22T11:30:16Z</time>
      </trkpt>
      <trkpt lat="43.51537" lon="2.49594">
        <ele>609.162</ele>
        <time>2021-05-22T11:30:18Z</time>
      </trkpt>
      <trkpt lat="43.51534" lon="2.49595">
        <ele>607.557</ele>
        <time>2021-05-22T11:30:20Z</time>
      </trkpt>
      <trkpt lat="43.51532" lon="2.49594">
        <ele>606.657</ele>
        <time>2021-05-22T11:30:22Z</time>
      </trkpt>
      <trkpt lat="43.5153" lon="2.49593">
        <ele>607.95</ele>
        <time>2021-05-22T11:30:24Z</time>
      </trkpt>
      <trkpt lat="43.51528" lon="2.49592">
        <ele>608.328</ele>
        <time>2021-05-22T11:30:26Z</time>
      </trkpt>
      <trkpt lat="43.51527" lon="2.49591">
        <ele>607.776</ele>
        <time>2021-05-22T11:30:28Z</time>
      </trkpt>
      <trkpt lat="43.51525" lon="2.4959">
        <ele>608.189</ele>
        <time>2021-05-22T11:30:30Z</time>
      </trkpt>
      <trkpt lat="43.51524" lon="2.4959">
        <ele>607.782</ele>
        <time>2021-05-22T11:30:32Z</time>
      </trkpt>
      <trkpt lat="43.51523" lon="2.49588">
        <ele>608.971</ele>
        <time>2021-05-22T11:30:34Z</time>
      </trkpt>
      <trkpt lat="43.51524" lon="2.49585">
        <ele>608.479</ele>
        <time>2021-05-22T11:30:36Z</time>
      </trkpt>
      <trkpt lat="43.51524" lon="2.49582">
        <ele>609.877</ele>
        <time>2021-05-22T11:30:38Z</time>
      </trkpt>
      <trkpt lat="43.51522" lon="2.4958">
        <ele>610.337</ele>
        <time>2021-05-22T11:30:40Z</time>
      </trkpt>
      <trkpt lat="43.51519" lon="2.49578">
        <ele>610.003</ele>
        <time>2021-05-22T11:30:42Z</time>
      </trkpt>
      <trkpt lat="43.51516" lon="2.49578">
        <ele>609.867</ele>
        <time>2021-05-22T11:30:44Z</time>
      </trkpt>
      <trkpt lat="43.51514" lon="2.49577">
        <ele>610.338</ele>
        <time>2021-05-22T11:30:46Z</time>
      </trkpt>
      <trkpt lat="43.51512" lon="2.49575">
        <ele>610.797</ele>
        <time>2021-05-22T11:30:48Z</time>
      </trkpt>
      <trkpt lat="43.5151" lon="2.49574">
        <ele>611.987</ele>
        <time>2021-05-22T11:30:50Z</time>
      </trkpt>
      <trkpt lat="43.51508" lon="2.49573">
        <ele>613.935</ele>
        <time>2021-05-22T11:30:52Z</time>
      </trkpt>
      <trkpt lat="43.51506" lon="2.49572">
        <ele>613.976</ele>
        <time>2021-05-22T11:30:54Z</time>
      </trkpt>
      <trkpt lat="43.51504" lon="2.49571">
        <ele>614.577</ele>
        <time>2021-05-22T11:30:56Z</time>
      </trkpt>
      <trkpt lat="43.51502" lon="2.4957">
        <ele>614.356</ele>
        <time>2021-05-22T11:30:58Z</time>
      </trkpt>
      <trkpt lat="43.515" lon="2.49568">
        <ele>613.589</ele>
        <time>2021-05-22T11:31:00Z</time>
      </trkpt>
      <trkpt lat="43.51498" lon="2.49567">
        <ele>613.923</ele>
        <time>2021-05-22T11:31:02Z</time>
      </trkpt>
      <trkpt lat="43.51496" lon="2.49564">
        <ele>613.52</ele>
        <time>2021-05-22T11:31:04Z</time>
      </trkpt>
      <trkpt lat="43.51494" lon="2.49562">
        <ele>614.749</ele>
        <time>2021-05-22T11:31:06Z</time>
      </trkpt>
      <trkpt lat="43.51492" lon="2.4956">
        <ele>616.211</ele>
        <time>2021-05-22T11:31:08Z</time>
      </trkpt>
      <trkpt lat="43.51492" lon="2.49557">
        <ele>616.275</ele>
        <time>2021-05-22T11:31:10Z</time>
      </trkpt>
      <trkpt lat="43.51494" lon="2.49558">
        <ele>615.878</ele>
        <time>2021-05-22T11:31:12Z</time>
      </trkpt>
      <trkpt lat="43.51494" lon="2.49558">
        <ele>615.943</ele>
        <time>2021-05-22T11:31:14Z</time>
      </trkpt>
      <trkpt lat="43.51494" lon="2.49558">
        <ele>616.228</ele>
        <time>2021-05-22T11:31:16Z</time>
      </trkpt>
      <trkpt lat="43.51493" lon="2.49557">
        <ele>616.5</ele>
        <time>2021-05-22T11:31:18Z</time>
      </trkpt>
      <trkpt lat="43.51491" lon="2.49554">
        <ele>615.636</ele>
        <time>2021-05-22T11:31:20Z</time>
      </trkpt>
      <trkpt lat="43.51489" lon="2.49554">
        <ele>614.737</ele>
        <time>2021-05-22T11:31:22Z</time>
      </trkpt>
      <trkpt lat="43.51487" lon="2.49554">
        <ele>614.953</ele>
        <time>2021-05-22T11:31:24Z</time>
      </trkpt>
      <trkpt lat="43.51483" lon="2.49558">
        <ele>611.339</ele>
        <time>2021-05-22T11:31:26Z</time>
      </trkpt>
      <trkpt lat="43.51482" lon="2.49557">
        <ele>611.316</ele>
        <time>2021-05-22T11:31:28Z</time>
      </trkpt>
      <trkpt lat="43.5148" lon="2.49552">
        <ele>615.045</ele>
        <time>2021-05-22T11:31:30Z</time>
      </trkpt>
      <trkpt lat="43.51478" lon="2.4955">
        <ele>615.365</ele>
        <time>2021-05-22T11:31:32Z</time>
      </trkpt>
      <trkpt lat="43.51477" lon="2.49548">
        <ele>617.828</ele>
        <time>2021-05-22T11:31:34Z</time>
      </trkpt>
      <trkpt lat="43.51475" lon="2.49545">
        <ele>618.782</ele>
        <time>2021-05-22T11:31:36Z</time>
      </trkpt>
      <trkpt lat="43.51473" lon="2.49542">
        <ele>618.417</ele>
        <time>2021-05-22T11:31:38Z</time>
      </trkpt>
      <trkpt lat="43.51471" lon="2.49541">
        <ele>618.68</ele>
        <time>2021-05-22T11:31:40Z</time>
      </trkpt>
      <trkpt lat="43.51469" lon="2.49538">
        <ele>621.248</ele>
        <time>2021-05-22T11:31:42Z</time>
      </trkpt>
      <trkpt lat="43.51468" lon="2.49535">
        <ele>621.901</ele>
        <time>2021-05-22T11:31:44Z</time>
      </trkpt>
      <trkpt lat="43.51467" lon="2.49533">
        <ele>620.643</ele>
        <time>2021-05-22T11:31:46Z</time>
      </trkpt>
      <trkpt lat="43.51466" lon="2.4953">
        <ele>621.122</ele>
        <time>2021-05-22T11:31:48Z</time>
      </trkpt>
      <trkpt lat="43.51465" lon="2.49528">
        <ele>622.449</ele>
        <time>2021-05-22T11:31:50Z</time>
      </trkpt>
      <trkpt lat="43.51464" lon="2.49526">
        <ele>622.971</ele>
        <time>2021-05-22T11:31:52Z</time>
      </trkpt>
      <trkpt lat="43.51463" lon="2.49525">
        <ele>623.081</ele>
        <time>2021-05-22T11:31:54Z</time>
      </trkpt>
      <trkpt lat="43.51462" lon="2.49523">
        <ele>624.873</ele>
        <time>2021-05-22T11:31:56Z</time>
      </trkpt>
      <trkpt lat="43.51462" lon="2.49522">
        <ele>625.499</ele>
        <time>2021-05-22T11:31:58Z</time>
      </trkpt>
      <trkpt lat="43.51461" lon="2.4952">
        <ele>623.899</ele>
        <time>2021-05-22T11:32:00Z</time>
      </trkpt>
      <trkpt lat="43.51459" lon="2.49518">
        <ele>624.48</ele>
        <time>2021-05-22T11:32:02Z</time>
      </trkpt>
      <trkpt lat="43.51458" lon="2.49516">
        <ele>625.144</ele>
        <time>2021-05-22T11:32:04Z</time>
      </trkpt>
      <trkpt lat="43.51458" lon="2.49513">
        <ele>624.656</ele>
        <time>2021-05-22T11:32:06Z</time>
      </trkpt>
      <trkpt lat="43.51456" lon="2.49512">
        <ele>624.234</ele>
        <time>2021-05-22T11:32:08Z</time>
      </trkpt>
      <trkpt lat="43.51455" lon="2.4951">
        <ele>625.624</ele>
        <time>2021-05-22T11:32:10Z</time>
      </trkpt>
      <trkpt lat="43.51454" lon="2.49508">
        <ele>625.77</ele>
        <time>2021-05-22T11:32:12Z</time>
      </trkpt>
      <trkpt lat="43.51452" lon="2.49505">
        <ele>625.174</ele>
        <time>2021-05-22T11:32:14Z</time>
      </trkpt>
      <trkpt lat="43.51451" lon="2.49502">
        <ele>626.035</ele>
        <time>2021-05-22T11:32:16Z</time>
      </trkpt>
      <trkpt lat="43.51451" lon="2.495">
        <ele>627.46</ele>
        <time>2021-05-22T11:32:18Z</time>
      </trkpt>
      <trkpt lat="43.5145" lon="2.49498">
        <ele>627.243</ele>
        <time>2021-05-22T11:32:20Z</time>
      </trkpt>
      <trkpt lat="43.51449" lon="2.49496">
        <ele>626.336</ele>
        <time>2021-05-22T11:32:22Z</time>
      </trkpt>
      <trkpt lat="43.51449" lon="2.49493">
        <ele>627.794</ele>
        <time>2021-05-22T11:32:24Z</time>
      </trkpt>
      <trkpt lat="43.51448" lon="2.49491">
        <ele>626.626</ele>
        <time>2021-05-22T11:32:26Z</time>
      </trkpt>
      <trkpt lat="43.51448" lon="2.49489">
        <ele>627.298</ele>
        <time>2021-05-22T11:32:27Z</time>
      </trkpt>
      <trkpt lat="43.51447" lon="2.49479">
        <ele>627.74</ele>
        <time>2021-05-22T11:32:34Z</time>
      </trkpt>
      <trkpt lat="43.51446" lon="2.49475">
        <ele>628.029</ele>
        <time>2021-05-22T11:32:36Z</time>
      </trkpt>
      <trkpt lat="43.51445" lon="2.49472">
        <ele>624.935</ele>
        <time>2021-05-22T11:32:38Z</time>
      </trkpt>
      <trkpt lat="43.51443" lon="2.49469">
        <ele>624.134</ele>
        <time>2021-05-22T11:32:40Z</time>
      </trkpt>
      <trkpt lat="43.51442" lon="2.49466">
        <ele>621.64</ele>
        <time>2021-05-22T11:32:42Z</time>
      </trkpt>
      <trkpt lat="43.51441" lon="2.49463">
        <ele>620.935</ele>
        <time>2021-05-22T11:32:44Z</time>
      </trkpt>
      <trkpt lat="43.51441" lon="2.4946">
        <ele>621.064</ele>
        <time>2021-05-22T11:32:46Z</time>
      </trkpt>
      <trkpt lat="43.5144" lon="2.49457">
        <ele>620.739</ele>
        <time>2021-05-22T11:32:48Z</time>
      </trkpt>
      <trkpt lat="43.51439" lon="2.49454">
        <ele>619.784</ele>
        <time>2021-05-22T11:32:50Z</time>
      </trkpt>
      <trkpt lat="43.51438" lon="2.49451">
        <ele>618.827</ele>
        <time>2021-05-22T11:32:52Z</time>
      </trkpt>
      <trkpt lat="43.51437" lon="2.49449">
        <ele>618.782</ele>
        <time>2021-05-22T11:32:54Z</time>
      </trkpt>
      <trkpt lat="43.51436" lon="2.49446">
        <ele>618.834</ele>
        <time>2021-05-22T11:32:56Z</time>
      </trkpt>
      <trkpt lat="43.51436" lon="2.49443">
        <ele>618.12</ele>
        <time>2021-05-22T11:32:58Z</time>
      </trkpt>
      <trkpt lat="43.51435" lon="2.49442">
        <ele>618.781</ele>
        <time>2021-05-22T11:33:00Z</time>
      </trkpt>
      <trkpt lat="43.51433" lon="2.4944">
        <ele>618.844</ele>
        <time>2021-05-22T11:33:02Z</time>
      </trkpt>
      <trkpt lat="43.51432" lon="2.49439">
        <ele>618.938</ele>
        <time>2021-05-22T11:33:04Z</time>
      </trkpt>
      <trkpt lat="43.51432" lon="2.49437">
        <ele>618.576</ele>
        <time>2021-05-22T11:33:06Z</time>
      </trkpt>
      <trkpt lat="43.51431" lon="2.49435">
        <ele>619.179</ele>
        <time>2021-05-22T11:33:08Z</time>
      </trkpt>
      <trkpt lat="43.51432" lon="2.49434">
        <ele>618.288</ele>
        <time>2021-05-22T11:33:10Z</time>
      </trkpt>
      <trkpt lat="43.51433" lon="2.49434">
        <ele>618.854</ele>
        <time>2021-05-22T11:33:12Z</time>
      </trkpt>
      <trkpt lat="43.51434" lon="2.49433">
        <ele>620.053</ele>
        <time>2021-05-22T11:33:14Z</time>
      </trkpt>
      <trkpt lat="43.51434" lon="2.49433">
        <ele>620.058</ele>
        <time>2021-05-22T11:33:16Z</time>
      </trkpt>
      <trkpt lat="43.51434" lon="2.49433">
        <ele>620.074</ele>
        <time>2021-05-22T11:33:18Z</time>
      </trkpt>
      <trkpt lat="43.51434" lon="2.49432">
        <ele>620.798</ele>
        <time>2021-05-22T11:33:20Z</time>
      </trkpt>
      <trkpt lat="43.51434" lon="2.49429">
        <ele>621.219</ele>
        <time>2021-05-22T11:33:22Z</time>
      </trkpt>
      <trkpt lat="43.51436" lon="2.49426">
        <ele>622.972</ele>
        <time>2021-05-22T11:33:24Z</time>
      </trkpt>
      <trkpt lat="43.51437" lon="2.49419">
        <ele>624.835</ele>
        <time>2021-05-22T11:33:26Z</time>
      </trkpt>
      <trkpt lat="43.51436" lon="2.49416">
        <ele>626.988</ele>
        <time>2021-05-22T11:33:28Z</time>
      </trkpt>
      <trkpt lat="43.51435" lon="2.49413">
        <ele>627.604</ele>
        <time>2021-05-22T11:33:30Z</time>
      </trkpt>
      <trkpt lat="43.51434" lon="2.49411">
        <ele>626.957</ele>
        <time>2021-05-22T11:33:32Z</time>
      </trkpt>
      <trkpt lat="43.51433" lon="2.49408">
        <ele>625.152</ele>
        <time>2021-05-22T11:33:34Z</time>
      </trkpt>
      <trkpt lat="43.51435" lon="2.49406">
        <ele>626.516</ele>
        <time>2021-05-22T11:33:36Z</time>
      </trkpt>
      <trkpt lat="43.51434" lon="2.49404">
        <ele>625.72</ele>
        <time>2021-05-22T11:33:38Z</time>
      </trkpt>
      <trkpt lat="43.51434" lon="2.49402">
        <ele>627.444</ele>
        <time>2021-05-22T11:33:40Z</time>
      </trkpt>
      <trkpt lat="43.51434" lon="2.49398">
        <ele>628.299</ele>
        <time>2021-05-22T11:33:42Z</time>
      </trkpt>
      <trkpt lat="43.51434" lon="2.49395">
        <ele>628.793</ele>
        <time>2021-05-22T11:33:44Z</time>
      </trkpt>
      <trkpt lat="43.51434" lon="2.49392">
        <ele>629.321</ele>
        <time>2021-05-22T11:33:46Z</time>
      </trkpt>
      <trkpt lat="43.51434" lon="2.49389">
        <ele>629.985</ele>
        <time>2021-05-22T11:33:48Z</time>
      </trkpt>
      <trkpt lat="43.51435" lon="2.49385">
        <ele>632.236</ele>
        <time>2021-05-22T11:33:50Z</time>
      </trkpt>
      <trkpt lat="43.51435" lon="2.49382">
        <ele>631.882</ele>
        <time>2021-05-22T11:33:52Z</time>
      </trkpt>
      <trkpt lat="43.51435" lon="2.49378">
        <ele>629.434</ele>
        <time>2021-05-22T11:33:54Z</time>
      </trkpt>
      <trkpt lat="43.51435" lon="2.49374">
        <ele>630.289</ele>
        <time>2021-05-22T11:33:56Z</time>
      </trkpt>
      <trkpt lat="43.51435" lon="2.4937">
        <ele>629.426</ele>
        <time>2021-05-22T11:33:58Z</time>
      </trkpt>
      <trkpt lat="43.51433" lon="2.49366">
        <ele>627.733</ele>
        <time>2021-05-22T11:34:00Z</time>
      </trkpt>
      <trkpt lat="43.51432" lon="2.49361">
        <ele>627.547</ele>
        <time>2021-05-22T11:34:02Z</time>
      </trkpt>
      <trkpt lat="43.51431" lon="2.49357">
        <ele>627.07</ele>
        <time>2021-05-22T11:34:04Z</time>
      </trkpt>
      <trkpt lat="43.51431" lon="2.49353">
        <ele>627.336</ele>
        <time>2021-05-22T11:34:06Z</time>
      </trkpt>
      <trkpt lat="43.51432" lon="2.49349">
        <ele>627.941</ele>
        <time>2021-05-22T11:34:08Z</time>
      </trkpt>
      <trkpt lat="43.51432" lon="2.49345">
        <ele>628.514</ele>
        <time>2021-05-22T11:34:10Z</time>
      </trkpt>
      <trkpt lat="43.51433" lon="2.49342">
        <ele>630.064</ele>
        <time>2021-05-22T11:34:12Z</time>
      </trkpt>
      <trkpt lat="43.51433" lon="2.49337">
        <ele>631.248</ele>
        <time>2021-05-22T11:34:14Z</time>
      </trkpt>
      <trkpt lat="43.51433" lon="2.49332">
        <ele>633.331</ele>
        <time>2021-05-22T11:34:16Z</time>
      </trkpt>
      <trkpt lat="43.51433" lon="2.49329">
        <ele>634.122</ele>
        <time>2021-05-22T11:34:18Z</time>
      </trkpt>
      <trkpt lat="43.51433" lon="2.49326">
        <ele>635.297</ele>
        <time>2021-05-22T11:34:20Z</time>
      </trkpt>
      <trkpt lat="43.51432" lon="2.49323">
        <ele>634.148</ele>
        <time>2021-05-22T11:34:22Z</time>
      </trkpt>
      <trkpt lat="43.51431" lon="2.4932">
        <ele>633.005</ele>
        <time>2021-05-22T11:34:24Z</time>
      </trkpt>
      <trkpt lat="43.5143" lon="2.49317">
        <ele>633.613</ele>
        <time>2021-05-22T11:34:26Z</time>
      </trkpt>
      <trkpt lat="43.51429" lon="2.49314">
        <ele>632.988</ele>
        <time>2021-05-22T11:34:28Z</time>
      </trkpt>
      <trkpt lat="43.51428" lon="2.4931">
        <ele>633.254</ele>
        <time>2021-05-22T11:34:30Z</time>
      </trkpt>
      <trkpt lat="43.51428" lon="2.49306">
        <ele>633.984</ele>
        <time>2021-05-22T11:34:32Z</time>
      </trkpt>
      <trkpt lat="43.51427" lon="2.49302">
        <ele>633.721</ele>
        <time>2021-05-22T11:34:34Z</time>
      </trkpt>
      <trkpt lat="43.51426" lon="2.49298">
        <ele>632.453</ele>
        <time>2021-05-22T11:34:36Z</time>
      </trkpt>
      <trkpt lat="43.51425" lon="2.49295">
        <ele>633.813</ele>
        <time>2021-05-22T11:34:38Z</time>
      </trkpt>
      <trkpt lat="43.51424" lon="2.49291">
        <ele>634.426</ele>
        <time>2021-05-22T11:34:40Z</time>
      </trkpt>
      <trkpt lat="43.51424" lon="2.49288">
        <ele>634.644</ele>
        <time>2021-05-22T11:34:42Z</time>
      </trkpt>
      <trkpt lat="43.51422" lon="2.49284">
        <ele>633.17</ele>
        <time>2021-05-22T11:34:44Z</time>
      </trkpt>
      <trkpt lat="43.5142" lon="2.4928">
        <ele>632.359</ele>
        <time>2021-05-22T11:34:46Z</time>
      </trkpt>
      <trkpt lat="43.51419" lon="2.49276">
        <ele>632.934</ele>
        <time>2021-05-22T11:34:48Z</time>
      </trkpt>
      <trkpt lat="43.51417" lon="2.49273">
        <ele>631.468</ele>
        <time>2021-05-22T11:34:50Z</time>
      </trkpt>
      <trkpt lat="43.51416" lon="2.4927">
        <ele>631.21</ele>
        <time>2021-05-22T11:34:52Z</time>
      </trkpt>
      <trkpt lat="43.51414" lon="2.49266">
        <ele>631.157</ele>
        <time>2021-05-22T11:34:54Z</time>
      </trkpt>
      <trkpt lat="43.51413" lon="2.49262">
        <ele>631.88</ele>
        <time>2021-05-22T11:34:56Z</time>
      </trkpt>
      <trkpt lat="43.51411" lon="2.49256">
        <ele>633.144</ele>
        <time>2021-05-22T11:34:58Z</time>
      </trkpt>
      <trkpt lat="43.5141" lon="2.49248">
        <ele>632.681</ele>
        <time>2021-05-22T11:35:00Z</time>
      </trkpt>
      <trkpt lat="43.51408" lon="2.49242">
        <ele>633.194</ele>
        <time>2021-05-22T11:35:02Z</time>
      </trkpt>
      <trkpt lat="43.51406" lon="2.49236">
        <ele>634.55</ele>
        <time>2021-05-22T11:35:04Z</time>
      </trkpt>
      <trkpt lat="43.51403" lon="2.49231">
        <ele>634.505</ele>
        <time>2021-05-22T11:35:06Z</time>
      </trkpt>
      <trkpt lat="43.514" lon="2.49224">
        <ele>634.228</ele>
        <time>2021-05-22T11:35:08Z</time>
      </trkpt>
      <trkpt lat="43.51396" lon="2.49218">
        <ele>633.687</ele>
        <time>2021-05-22T11:35:10Z</time>
      </trkpt>
      <trkpt lat="43.51393" lon="2.49211">
        <ele>633.526</ele>
        <time>2021-05-22T11:35:12Z</time>
      </trkpt>
      <trkpt lat="43.51391" lon="2.49204">
        <ele>631.392</ele>
        <time>2021-05-22T11:35:14Z</time>
      </trkpt>
      <trkpt lat="43.51388" lon="2.49198">
        <ele>630.211</ele>
        <time>2021-05-22T11:35:16Z</time>
      </trkpt>
      <trkpt lat="43.51386" lon="2.49191">
        <ele>630.926</ele>
        <time>2021-05-22T11:35:18Z</time>
      </trkpt>
      <trkpt lat="43.51384" lon="2.49186">
        <ele>631.324</ele>
        <time>2021-05-22T11:35:20Z</time>
      </trkpt>
      <trkpt lat="43.51381" lon="2.49181">
        <ele>633.537</ele>
        <time>2021-05-22T11:35:22Z</time>
      </trkpt>
      <trkpt lat="43.51377" lon="2.49177">
        <ele>632.857</ele>
        <time>2021-05-22T11:35:24Z</time>
      </trkpt>
      <trkpt lat="43.51373" lon="2.49174">
        <ele>632.699</ele>
        <time>2021-05-22T11:35:26Z</time>
      </trkpt>
      <trkpt lat="43.5137" lon="2.4917">
        <ele>632.207</ele>
        <time>2021-05-22T11:35:28Z</time>
      </trkpt>
      <trkpt lat="43.51367" lon="2.49166">
        <ele>631.76</ele>
        <time>2021-05-22T11:35:30Z</time>
      </trkpt>
      <trkpt lat="43.51364" lon="2.49161">
        <ele>630.574</ele>
        <time>2021-05-22T11:35:32Z</time>
      </trkpt>
      <trkpt lat="43.51361" lon="2.49158">
        <ele>630.96</ele>
        <time>2021-05-22T11:35:34Z</time>
      </trkpt>
      <trkpt lat="43.51357" lon="2.49154">
        <ele>634.14</ele>
        <time>2021-05-22T11:35:36Z</time>
      </trkpt>
      <trkpt lat="43.51354" lon="2.49149">
        <ele>635.918</ele>
        <time>2021-05-22T11:35:38Z</time>
      </trkpt>
      <trkpt lat="43.51351" lon="2.49146">
        <ele>633.822</ele>
        <time>2021-05-22T11:35:40Z</time>
      </trkpt>
      <trkpt lat="43.51347" lon="2.49144">
        <ele>633.022</ele>
        <time>2021-05-22T11:35:42Z</time>
      </trkpt>
      <trkpt lat="43.51343" lon="2.49141">
        <ele>635.359</ele>
        <time>2021-05-22T11:35:44Z</time>
      </trkpt>
      <trkpt lat="43.51341" lon="2.4914">
        <ele>633.746</ele>
        <time>2021-05-22T11:35:45Z</time>
      </trkpt>
      <trkpt lat="43.51336" lon="2.49138">
        <ele>632.12</ele>
        <time>2021-05-22T11:35:48Z</time>
      </trkpt>
      <trkpt lat="43.51331" lon="2.49136">
        <ele>630.731</ele>
        <time>2021-05-22T11:35:50Z</time>
      </trkpt>
      <trkpt lat="43.51328" lon="2.49133">
        <ele>628.994</ele>
        <time>2021-05-22T11:35:52Z</time>
      </trkpt>
      <trkpt lat="43.51325" lon="2.49132">
        <ele>630.41</ele>
        <time>2021-05-22T11:35:54Z</time>
      </trkpt>
      <trkpt lat="43.51321" lon="2.49131">
        <ele>631.337</ele>
        <time>2021-05-22T11:35:56Z</time>
      </trkpt>
      <trkpt lat="43.51319" lon="2.49131">
        <ele>630.961</ele>
        <time>2021-05-22T11:35:58Z</time>
      </trkpt>
      <trkpt lat="43.51317" lon="2.49132">
        <ele>631.31</ele>
        <time>2021-05-22T11:36:00Z</time>
      </trkpt>
      <trkpt lat="43.51314" lon="2.49133">
        <ele>631.122</ele>
        <time>2021-05-22T11:36:02Z</time>
      </trkpt>
      <trkpt lat="43.51313" lon="2.49133">
        <ele>632.627</ele>
        <time>2021-05-22T11:36:04Z</time>
      </trkpt>
      <trkpt lat="43.51315" lon="2.49133">
        <ele>634.439</ele>
        <time>2021-05-22T11:36:06Z</time>
      </trkpt>
      <trkpt lat="43.51316" lon="2.49132">
        <ele>636.125</ele>
        <time>2021-05-22T11:36:08Z</time>
      </trkpt>
      <trkpt lat="43.51318" lon="2.49131">
        <ele>637.112</ele>
        <time>2021-05-22T11:36:10Z</time>
      </trkpt>
      <trkpt lat="43.51319" lon="2.49131">
        <ele>637.28</ele>
        <time>2021-05-22T11:36:12Z</time>
      </trkpt>
      <trkpt lat="43.51321" lon="2.4913">
        <ele>637.243</ele>
        <time>2021-05-22T11:36:14Z</time>
      </trkpt>
      <trkpt lat="43.51322" lon="2.49131">
        <ele>636.722</ele>
        <time>2021-05-22T11:36:16Z</time>
      </trkpt>
      <trkpt lat="43.51323" lon="2.49132">
        <ele>633.374</ele>
        <time>2021-05-22T11:36:18Z</time>
      </trkpt>
      <trkpt lat="43.51325" lon="2.49133">
        <ele>630.752</ele>
        <time>2021-05-22T11:36:20Z</time>
      </trkpt>
      <trkpt lat="43.51328" lon="2.49136">
        <ele>631.494</ele>
        <time>2021-05-22T11:36:22Z</time>
      </trkpt>
      <trkpt lat="43.51331" lon="2.49137">
        <ele>630.193</ele>
        <time>2021-05-22T11:36:24Z</time>
      </trkpt>
      <trkpt lat="43.51334" lon="2.49139">
        <ele>629.122</ele>
        <time>2021-05-22T11:36:26Z</time>
      </trkpt>
      <trkpt lat="43.51338" lon="2.49141">
        <ele>627.348</ele>
        <time>2021-05-22T11:36:28Z</time>
      </trkpt>
      <trkpt lat="43.51342" lon="2.49144">
        <ele>626.379</ele>
        <time>2021-05-22T11:36:30Z</time>
      </trkpt>
      <trkpt lat="43.51346" lon="2.49147">
        <ele>625.71</ele>
        <time>2021-05-22T11:36:32Z</time>
      </trkpt>
      <trkpt lat="43.51349" lon="2.4915">
        <ele>626.597</ele>
        <time>2021-05-22T11:36:34Z</time>
      </trkpt>
      <trkpt lat="43.51352" lon="2.49155">
        <ele>625.534</ele>
        <time>2021-05-22T11:36:36Z</time>
      </trkpt>
      <trkpt lat="43.51357" lon="2.4916">
        <ele>625.01</ele>
        <time>2021-05-22T11:36:38Z</time>
      </trkpt>
      <trkpt lat="43.5136" lon="2.49166">
        <ele>624.647</ele>
        <time>2021-05-22T11:36:40Z</time>
      </trkpt>
      <trkpt lat="43.51364" lon="2.4917">
        <ele>624.784</ele>
        <time>2021-05-22T11:36:42Z</time>
      </trkpt>
      <trkpt lat="43.51367" lon="2.49175">
        <ele>624.933</ele>
        <time>2021-05-22T11:36:44Z</time>
      </trkpt>
      <trkpt lat="43.5137" lon="2.4918">
        <ele>624.672</ele>
        <time>2021-05-22T11:36:46Z</time>
      </trkpt>
      <trkpt lat="43.51374" lon="2.49184">
        <ele>626.087</ele>
        <time>2021-05-22T11:36:48Z</time>
      </trkpt>
      <trkpt lat="43.51377" lon="2.49189">
        <ele>626.652</ele>
        <time>2021-05-22T11:36:50Z</time>
      </trkpt>
      <trkpt lat="43.5138" lon="2.49194">
        <ele>626.717</ele>
        <time>2021-05-22T11:36:52Z</time>
      </trkpt>
      <trkpt lat="43.51384" lon="2.49203">
        <ele>626.801</ele>
        <time>2021-05-22T11:36:55Z</time>
      </trkpt>
      <trkpt lat="43.51387" lon="2.49207">
        <ele>626.043</ele>
        <time>2021-05-22T11:36:57Z</time>
      </trkpt>
      <trkpt lat="43.5139" lon="2.49211">
        <ele>626.787</ele>
        <time>2021-05-22T11:36:59Z</time>
      </trkpt>
      <trkpt lat="43.51392" lon="2.49215">
        <ele>626.265</ele>
        <time>2021-05-22T11:37:01Z</time>
      </trkpt>
      <trkpt lat="43.51395" lon="2.49219">
        <ele>625.514</ele>
        <time>2021-05-22T11:37:03Z</time>
      </trkpt>
      <trkpt lat="43.51397" lon="2.49224">
        <ele>623.865</ele>
        <time>2021-05-22T11:37:05Z</time>
      </trkpt>
      <trkpt lat="43.51399" lon="2.49228">
        <ele>624.119</ele>
        <time>2021-05-22T11:37:07Z</time>
      </trkpt>
      <trkpt lat="43.51401" lon="2.49233">
        <ele>624.017</ele>
        <time>2021-05-22T11:37:09Z</time>
      </trkpt>
      <trkpt lat="43.51404" lon="2.49239">
        <ele>623.484</ele>
        <time>2021-05-22T11:37:11Z</time>
      </trkpt>
      <trkpt lat="43.51406" lon="2.49244">
        <ele>622.907</ele>
        <time>2021-05-22T11:37:13Z</time>
      </trkpt>
      <trkpt lat="43.51408" lon="2.49249">
        <ele>622.247</ele>
        <time>2021-05-22T11:37:15Z</time>
      </trkpt>
      <trkpt lat="43.51411" lon="2.49255">
        <ele>622.039</ele>
        <time>2021-05-22T11:37:17Z</time>
      </trkpt>
      <trkpt lat="43.51412" lon="2.49262">
        <ele>622.507</ele>
        <time>2021-05-22T11:37:19Z</time>
      </trkpt>
      <trkpt lat="43.51414" lon="2.49268">
        <ele>623.363</ele>
        <time>2021-05-22T11:37:21Z</time>
      </trkpt>
      <trkpt lat="43.51415" lon="2.49271">
        <ele>621.819</ele>
        <time>2021-05-22T11:37:22Z</time>
      </trkpt>
      <trkpt lat="43.51417" lon="2.4928">
        <ele>621.614</ele>
        <time>2021-05-22T11:37:25Z</time>
      </trkpt>
      <trkpt lat="43.51418" lon="2.49285">
        <ele>621.682</ele>
        <time>2021-05-22T11:37:27Z</time>
      </trkpt>
      <trkpt lat="43.51419" lon="2.4929">
        <ele>623.254</ele>
        <time>2021-05-22T11:37:29Z</time>
      </trkpt>
      <trkpt lat="43.5142" lon="2.49296">
        <ele>625.576</ele>
        <time>2021-05-22T11:37:31Z</time>
      </trkpt>
      <trkpt lat="43.51421" lon="2.49301">
        <ele>625.675</ele>
        <time>2021-05-22T11:37:33Z</time>
      </trkpt>
      <trkpt lat="43.51422" lon="2.49307">
        <ele>626.645</ele>
        <time>2021-05-22T11:37:35Z</time>
      </trkpt>
      <trkpt lat="43.51422" lon="2.49314">
        <ele>626.541</ele>
        <time>2021-05-22T11:37:37Z</time>
      </trkpt>
      <trkpt lat="43.51423" lon="2.4932">
        <ele>627.044</ele>
        <time>2021-05-22T11:37:39Z</time>
      </trkpt>
      <trkpt lat="43.51424" lon="2.49327">
        <ele>627.356</ele>
        <time>2021-05-22T11:37:41Z</time>
      </trkpt>
      <trkpt lat="43.51424" lon="2.49333">
        <ele>625.81</ele>
        <time>2021-05-22T11:37:43Z</time>
      </trkpt>
      <trkpt lat="43.51424" lon="2.4934">
        <ele>627.052</ele>
        <time>2021-05-22T11:37:45Z</time>
      </trkpt>
      <trkpt lat="43.51425" lon="2.49347">
        <ele>627.061</ele>
        <time>2021-05-22T11:37:47Z</time>
      </trkpt>
      <trkpt lat="43.51426" lon="2.49353">
        <ele>625.496</ele>
        <time>2021-05-22T11:37:49Z</time>
      </trkpt>
      <trkpt lat="43.51427" lon="2.49359">
        <ele>625.413</ele>
        <time>2021-05-22T11:37:51Z</time>
      </trkpt>
      <trkpt lat="43.51428" lon="2.49365">
        <ele>626.555</ele>
        <time>2021-05-22T11:37:53Z</time>
      </trkpt>
      <trkpt lat="43.51428" lon="2.49371">
        <ele>628.099</ele>
        <time>2021-05-22T11:37:55Z</time>
      </trkpt>
      <trkpt lat="43.51428" lon="2.49377">
        <ele>628.393</ele>
        <time>2021-05-22T11:37:57Z</time>
      </trkpt>
      <trkpt lat="43.51428" lon="2.49381">
        <ele>628.994</ele>
        <time>2021-05-22T11:37:59Z</time>
      </trkpt>
      <trkpt lat="43.51429" lon="2.49384">
        <ele>630.352</ele>
        <time>2021-05-22T11:38:01Z</time>
      </trkpt>
      <trkpt lat="43.51429" lon="2.49388">
        <ele>629.988</ele>
        <time>2021-05-22T11:38:03Z</time>
      </trkpt>
      <trkpt lat="43.51429" lon="2.4939">
        <ele>629.203</ele>
        <time>2021-05-22T11:38:05Z</time>
      </trkpt>
      <trkpt lat="43.51428" lon="2.49393">
        <ele>629.38</ele>
        <time>2021-05-22T11:38:07Z</time>
      </trkpt>
      <trkpt lat="43.51428" lon="2.49394">
        <ele>629.494</ele>
        <time>2021-05-22T11:38:08Z</time>
      </trkpt>
      <trkpt lat="43.51427" lon="2.49396">
        <ele>627.936</ele>
        <time>2021-05-22T11:38:11Z</time>
      </trkpt>
      <trkpt lat="43.51427" lon="2.49395">
        <ele>627.965</ele>
        <time>2021-05-22T11:38:13Z</time>
      </trkpt>
      <trkpt lat="43.51427" lon="2.49395">
        <ele>627.958</ele>
        <time>2021-05-22T11:38:15Z</time>
      </trkpt>
      <trkpt lat="43.51427" lon="2.49396">
        <ele>627.885</ele>
        <time>2021-05-22T11:38:17Z</time>
      </trkpt>
      <trkpt lat="43.51426" lon="2.49398">
        <ele>628.584</ele>
        <time>2021-05-22T11:38:19Z</time>
      </trkpt>
      <trkpt lat="43.51426" lon="2.49401">
        <ele>628.555</ele>
        <time>2021-05-22T11:38:21Z</time>
      </trkpt>
      <trkpt lat="43.51427" lon="2.49403">
        <ele>628.043</ele>
        <time>2021-05-22T11:38:23Z</time>
      </trkpt>
      <trkpt lat="43.51427" lon="2.49405">
        <ele>628.038</ele>
        <time>2021-05-22T11:38:25Z</time>
      </trkpt>
      <trkpt lat="43.51426" lon="2.49407">
        <ele>627.745</ele>
        <time>2021-05-22T11:38:27Z</time>
      </trkpt>
      <trkpt lat="43.51426" lon="2.49405">
        <ele>625.966</ele>
        <time>2021-05-22T11:38:29Z</time>
      </trkpt>
      <trkpt lat="43.51425" lon="2.49406">
        <ele>626.483</ele>
        <time>2021-05-22T11:38:31Z</time>
      </trkpt>
      <trkpt lat="43.51425" lon="2.49406">
        <ele>626.8</ele>
        <time>2021-05-22T11:38:33Z</time>
      </trkpt>
      <trkpt lat="43.51425" lon="2.49406">
        <ele>626.827</ele>
        <time>2021-05-22T11:38:35Z</time>
      </trkpt>
      <trkpt lat="43.51425" lon="2.49405">
        <ele>627.051</ele>
        <time>2021-05-22T11:38:37Z</time>
      </trkpt>
      <trkpt lat="43.51425" lon="2.49405">
        <ele>627.222</ele>
        <time>2021-05-22T11:38:39Z</time>
      </trkpt>
      <trkpt lat="43.51425" lon="2.49406">
        <ele>627.234</ele>
        <time>2021-05-22T11:38:41Z</time>
      </trkpt>
      <trkpt lat="43.51426" lon="2.49407">
        <ele>627.517</ele>
        <time>2021-05-22T11:38:43Z</time>
      </trkpt>
      <trkpt lat="43.51426" lon="2.49406">
        <ele>627.071</ele>
        <time>2021-05-22T11:38:45Z</time>
      </trkpt>
      <trkpt lat="43.51425" lon="2.49407">
        <ele>626.95</ele>
        <time>2021-05-22T11:38:47Z</time>
      </trkpt>
      <trkpt lat="43.51425" lon="2.49407">
        <ele>626.921</ele>
        <time>2021-05-22T11:38:49Z</time>
      </trkpt>
      <trkpt lat="43.51425" lon="2.49408">
        <ele>626.696</ele>
        <time>2021-05-22T11:38:51Z</time>
      </trkpt>
      <trkpt lat="43.51425" lon="2.49408">
        <ele>626.712</ele>
        <time>2021-05-22T11:38:53Z</time>
      </trkpt>
      <trkpt lat="43.51424" lon="2.49409">
        <ele>627.23</ele>
        <time>2021-05-22T11:38:55Z</time>
      </trkpt>
      <trkpt lat="43.51423" lon="2.49409">
        <ele>627.936</ele>
        <time>2021-05-22T11:38:57Z</time>
      </trkpt>
      <trkpt lat="43.51422" lon="2.49409">
        <ele>628.001</ele>
        <time>2021-05-22T11:38:59Z</time>
      </trkpt>
      <trkpt lat="43.51423" lon="2.49411">
        <ele>627.328</ele>
        <time>2021-05-22T11:39:01Z</time>
      </trkpt>
      <trkpt lat="43.51424" lon="2.49411">
        <ele>627.105</ele>
        <time>2021-05-22T11:39:03Z</time>
      </trkpt>
      <trkpt lat="43.51424" lon="2.49412">
        <ele>626.705</ele>
        <time>2021-05-22T11:39:05Z</time>
      </trkpt>
      <trkpt lat="43.51424" lon="2.49412">
        <ele>626.683</ele>
        <time>2021-05-22T11:39:07Z</time>
      </trkpt>
      <trkpt lat="43.51424" lon="2.49412">
        <ele>626.675</ele>
        <time>2021-05-22T11:39:09Z</time>
      </trkpt>
      <trkpt lat="43.51424" lon="2.49412">
        <ele>626.665</ele>
        <time>2021-05-22T11:39:11Z</time>
      </trkpt>
      <trkpt lat="43.51424" lon="2.49412">
        <ele>626.657</ele>
        <time>2021-05-22T11:39:13Z</time>
      </trkpt>
      <trkpt lat="43.51424" lon="2.49412">
        <ele>626.656</ele>
        <time>2021-05-22T11:39:15Z</time>
      </trkpt>
      <trkpt lat="43.51424" lon="2.49413">
        <ele>626.624</ele>
        <time>2021-05-22T11:39:17Z</time>
      </trkpt>
      <trkpt lat="43.51424" lon="2.49413">
        <ele>626.62</ele>
        <time>2021-05-22T11:39:19Z</time>
      </trkpt>
      <trkpt lat="43.51424" lon="2.49413">
        <ele>626.595</ele>
        <time>2021-05-22T11:39:21Z</time>
      </trkpt>
      <trkpt lat="43.51424" lon="2.49413">
        <ele>626.586</ele>
        <time>2021-05-22T11:39:23Z</time>
      </trkpt>
      <trkpt lat="43.51424" lon="2.49413">
        <ele>626.589</ele>
        <time>2021-05-22T11:39:25Z</time>
      </trkpt>
      <trkpt lat="43.51424" lon="2.49413">
        <ele>626.585</ele>
        <time>2021-05-22T11:39:27Z</time>
      </trkpt>
      <trkpt lat="43.51424" lon="2.49413">
        <ele>626.577</ele>
        <time>2021-05-22T11:39:29Z</time>
      </trkpt>
      <trkpt lat="43.51424" lon="2.49413">
        <ele>626.572</ele>
        <time>2021-05-22T11:39:31Z</time>
      </trkpt>
      <trkpt lat="43.51424" lon="2.49413">
        <ele>626.564</ele>
        <time>2021-05-22T11:39:33Z</time>
      </trkpt>
      <trkpt lat="43.51424" lon="2.49413">
        <ele>626.562</ele>
        <time>2021-05-22T11:39:35Z</time>
      </trkpt>
      <trkpt lat="43.51424" lon="2.49413">
        <ele>626.557</ele>
        <time>2021-05-22T11:39:37Z</time>
      </trkpt>
      <trkpt lat="43.51424" lon="2.49413">
        <ele>626.553</ele>
        <time>2021-05-22T11:39:39Z</time>
      </trkpt>
      <trkpt lat="43.51424" lon="2.49413">
        <ele>626.542</ele>
        <time>2021-05-22T11:39:41Z</time>
      </trkpt>
      <trkpt lat="43.51425" lon="2.49413">
        <ele>626.661</ele>
        <time>2021-05-22T11:39:43Z</time>
      </trkpt>
      <trkpt lat="43.51424" lon="2.49413">
        <ele>626.683</ele>
        <time>2021-05-22T11:39:45Z</time>
      </trkpt>
      <trkpt lat="43.51424" lon="2.49413">
        <ele>626.682</ele>
        <time>2021-05-22T11:39:47Z</time>
      </trkpt>
      <trkpt lat="43.51424" lon="2.49413">
        <ele>626.681</ele>
        <time>2021-05-22T11:39:49Z</time>
      </trkpt>
      <trkpt lat="43.51424" lon="2.49413">
        <ele>626.685</ele>
        <time>2021-05-22T11:39:51Z</time>
      </trkpt>
      <trkpt lat="43.51424" lon="2.49413">
        <ele>626.689</ele>
        <time>2021-05-22T11:39:53Z</time>
      </trkpt>
      <trkpt lat="43.51424" lon="2.49413">
        <ele>626.689</ele>
        <time>2021-05-22T11:39:55Z</time>
      </trkpt>
      <trkpt lat="43.51424" lon="2.49413">
        <ele>626.691</ele>
        <time>2021-05-22T11:39:57Z</time>
      </trkpt>
      <trkpt lat="43.51424" lon="2.49413">
        <ele>626.692</ele>
        <time>2021-05-22T11:39:59Z</time>
      </trkpt>
      <trkpt lat="43.51424" lon="2.49413">
        <ele>626.699</ele>
        <time>2021-05-22T11:40:01Z</time>
      </trkpt>
      <trkpt lat="43.51424" lon="2.49413">
        <ele>626.703</ele>
        <time>2021-05-22T11:40:03Z</time>
      </trkpt>
      <trkpt lat="43.51424" lon="2.49413">
        <ele>626.71</ele>
        <time>2021-05-22T11:40:05Z</time>
      </trkpt>
      <trkpt lat="43.51424" lon="2.49413">
        <ele>626.714</ele>
        <time>2021-05-22T11:40:07Z</time>
      </trkpt>
      <trkpt lat="43.51424" lon="2.49413">
        <ele>626.716</ele>
        <time>2021-05-22T11:40:09Z</time>
      </trkpt>
      <trkpt lat="43.51424" lon="2.49413">
        <ele>626.848</ele>
        <time>2021-05-22T11:40:11Z</time>
      </trkpt>
      <trkpt lat="43.51424" lon="2.49413">
        <ele>626.631</ele>
        <time>2021-05-22T11:40:13Z</time>
      </trkpt>
      <trkpt lat="43.51425" lon="2.49413">
        <ele>626.575</ele>
        <time>2021-05-22T11:40:15Z</time>
      </trkpt>
      <trkpt lat="43.51425" lon="2.49413">
        <ele>626.572</ele>
        <time>2021-05-22T11:40:17Z</time>
      </trkpt>
      <trkpt lat="43.51425" lon="2.49413">
        <ele>626.57</ele>
        <time>2021-05-22T11:40:19Z</time>
      </trkpt>
      <trkpt lat="43.51425" lon="2.49413">
        <ele>626.575</ele>
        <time>2021-05-22T11:40:21Z</time>
      </trkpt>
      <trkpt lat="43.51425" lon="2.49413">
        <ele>626.573</ele>
        <time>2021-05-22T11:40:23Z</time>
      </trkpt>
      <trkpt lat="43.51425" lon="2.49413">
        <ele>626.572</ele>
        <time>2021-05-22T11:40:25Z</time>
      </trkpt>
      <trkpt lat="43.51424" lon="2.49413">
        <ele>626.357</ele>
        <time>2021-05-22T11:40:27Z</time>
      </trkpt>
      <trkpt lat="43.51425" lon="2.49413">
        <ele>626.135</ele>
        <time>2021-05-22T11:40:29Z</time>
      </trkpt>
      <trkpt lat="43.51425" lon="2.49413">
        <ele>626.128</ele>
        <time>2021-05-22T11:40:31Z</time>
      </trkpt>
      <trkpt lat="43.51425" lon="2.49413">
        <ele>626.128</ele>
        <time>2021-05-22T11:40:33Z</time>
      </trkpt>
      <trkpt lat="43.51425" lon="2.49413">
        <ele>625.878</ele>
        <time>2021-05-22T11:40:35Z</time>
      </trkpt>
      <trkpt lat="43.51425" lon="2.49413">
        <ele>625.583</ele>
        <time>2021-05-22T11:40:37Z</time>
      </trkpt>
      <trkpt lat="43.51425" lon="2.49413">
        <ele>624.601</ele>
        <time>2021-05-22T11:40:39Z</time>
      </trkpt>
      <trkpt lat="43.51425" lon="2.49413">
        <ele>624.617</ele>
        <time>2021-05-22T11:40:41Z</time>
      </trkpt>
      <trkpt lat="43.51425" lon="2.49413">
        <ele>624.623</ele>
        <time>2021-05-22T11:40:43Z</time>
      </trkpt>
      <trkpt lat="43.51425" lon="2.49413">
        <ele>624.187</ele>
        <time>2021-05-22T11:40:45Z</time>
      </trkpt>
      <trkpt lat="43.51425" lon="2.49413">
        <ele>623.829</ele>
        <time>2021-05-22T11:40:47Z</time>
      </trkpt>
      <trkpt lat="43.51426" lon="2.49413">
        <ele>623.352</ele>
        <time>2021-05-22T11:40:49Z</time>
      </trkpt>
      <trkpt lat="43.51426" lon="2.49413">
        <ele>623.355</ele>
        <time>2021-05-22T11:40:51Z</time>
      </trkpt>
      <trkpt lat="43.51426" lon="2.49413">
        <ele>623.36</ele>
        <time>2021-05-22T11:40:53Z</time>
      </trkpt>
      <trkpt lat="43.51426" lon="2.49413">
        <ele>623.355</ele>
        <time>2021-05-22T11:40:55Z</time>
      </trkpt>
      <trkpt lat="43.51426" lon="2.49413">
        <ele>623.356</ele>
        <time>2021-05-22T11:40:57Z</time>
      </trkpt>
      <trkpt lat="43.51426" lon="2.49413">
        <ele>623.354</ele>
        <time>2021-05-22T11:40:59Z</time>
      </trkpt>
      <trkpt lat="43.51426" lon="2.49413">
        <ele>623.352</ele>
        <time>2021-05-22T11:41:01Z</time>
      </trkpt>
      <trkpt lat="43.51426" lon="2.49413">
        <ele>623.351</ele>
        <time>2021-05-22T11:41:03Z</time>
      </trkpt>
      <trkpt lat="43.51426" lon="2.49413">
        <ele>623.351</ele>
        <time>2021-05-22T11:41:05Z</time>
      </trkpt>
      <trkpt lat="43.51426" lon="2.49413">
        <ele>623.352</ele>
        <time>2021-05-22T11:41:07Z</time>
      </trkpt>
      <trkpt lat="43.51426" lon="2.49413">
        <ele>623.308</ele>
        <time>2021-05-22T11:41:09Z</time>
      </trkpt>
      <trkpt lat="43.51427" lon="2.49414">
        <ele>623.062</ele>
        <time>2021-05-22T11:41:11Z</time>
      </trkpt>
      <trkpt lat="43.51427" lon="2.49414">
        <ele>623.077</ele>
        <time>2021-05-22T11:41:13Z</time>
      </trkpt>
      <trkpt lat="43.51427" lon="2.49414">
        <ele>623.08</ele>
        <time>2021-05-22T11:41:15Z</time>
      </trkpt>
      <trkpt lat="43.51427" lon="2.49414">
        <ele>623.085</ele>
        <time>2021-05-22T11:41:17Z</time>
      </trkpt>
      <trkpt lat="43.51427" lon="2.49414">
        <ele>623.082</ele>
        <time>2021-05-22T11:41:19Z</time>
      </trkpt>
      <trkpt lat="43.51427" lon="2.49414">
        <ele>623.086</ele>
        <time>2021-05-22T11:41:21Z</time>
      </trkpt>
      <trkpt lat="43.51427" lon="2.49414">
        <ele>623.089</ele>
        <time>2021-05-22T11:41:23Z</time>
      </trkpt>
      <trkpt lat="43.51427" lon="2.49414">
        <ele>623.093</ele>
        <time>2021-05-22T11:41:25Z</time>
      </trkpt>
      <trkpt lat="43.51427" lon="2.49414">
        <ele>623.094</ele>
        <time>2021-05-22T11:41:27Z</time>
      </trkpt>
      <trkpt lat="43.51427" lon="2.49414">
        <ele>623.096</ele>
        <time>2021-05-22T11:41:29Z</time>
      </trkpt>
      <trkpt lat="43.51427" lon="2.49414">
        <ele>623.102</ele>
        <time>2021-05-22T11:41:31Z</time>
      </trkpt>
      <trkpt lat="43.51427" lon="2.49414">
        <ele>623.104</ele>
        <time>2021-05-22T11:41:33Z</time>
      </trkpt>
      <trkpt lat="43.51427" lon="2.49414">
        <ele>623.108</ele>
        <time>2021-05-22T11:41:35Z</time>
      </trkpt>
      <trkpt lat="43.51427" lon="2.49414">
        <ele>623.106</ele>
        <time>2021-05-22T11:41:37Z</time>
      </trkpt>
      <trkpt lat="43.51427" lon="2.49414">
        <ele>623.111</ele>
        <time>2021-05-22T11:41:39Z</time>
      </trkpt>
      <trkpt lat="43.51427" lon="2.49414">
        <ele>623.113</ele>
        <time>2021-05-22T11:41:41Z</time>
      </trkpt>
      <trkpt lat="43.51427" lon="2.49414">
        <ele>623.117</ele>
        <time>2021-05-22T11:41:43Z</time>
      </trkpt>
      <trkpt lat="43.51427" lon="2.49414">
        <ele>623.121</ele>
        <time>2021-05-22T11:41:45Z</time>
      </trkpt>
      <trkpt lat="43.51427" lon="2.49414">
        <ele>623.123</ele>
        <time>2021-05-22T11:41:47Z</time>
      </trkpt>
      <trkpt lat="43.51427" lon="2.49414">
        <ele>623.337</ele>
        <time>2021-05-22T11:41:49Z</time>
      </trkpt>
      <trkpt lat="43.51427" lon="2.49414">
        <ele>623.351</ele>
        <time>2021-05-22T11:41:51Z</time>
      </trkpt>
      <trkpt lat="43.51427" lon="2.49414">
        <ele>623.351</ele>
        <time>2021-05-22T11:41:53Z</time>
      </trkpt>
      <trkpt lat="43.51427" lon="2.49414">
        <ele>623.347</ele>
        <time>2021-05-22T11:41:55Z</time>
      </trkpt>
      <trkpt lat="43.51427" lon="2.49414">
        <ele>623.343</ele>
        <time>2021-05-22T11:41:57Z</time>
      </trkpt>
      <trkpt lat="43.51427" lon="2.49414">
        <ele>623.339</ele>
        <time>2021-05-22T11:41:59Z</time>
      </trkpt>
      <trkpt lat="43.51427" lon="2.49414">
        <ele>623.339</ele>
        <time>2021-05-22T11:42:01Z</time>
      </trkpt>
      <trkpt lat="43.51427" lon="2.49414">
        <ele>623.339</ele>
        <time>2021-05-22T11:42:03Z</time>
      </trkpt>
      <trkpt lat="43.51427" lon="2.49414">
        <ele>623.165</ele>
        <time>2021-05-22T11:42:05Z</time>
      </trkpt>
      <trkpt lat="43.51427" lon="2.49414">
        <ele>623.164</ele>
        <time>2021-05-22T11:42:07Z</time>
      </trkpt>
      <trkpt lat="43.51427" lon="2.49414">
        <ele>623.165</ele>
        <time>2021-05-22T11:42:09Z</time>
      </trkpt>
      <trkpt lat="43.51427" lon="2.49414">
        <ele>623.165</ele>
        <time>2021-05-22T11:42:11Z</time>
      </trkpt>
      <trkpt lat="43.51427" lon="2.49414">
        <ele>623.166</ele>
        <time>2021-05-22T11:42:13Z</time>
      </trkpt>
      <trkpt lat="43.51427" lon="2.49414">
        <ele>623.165</ele>
        <time>2021-05-22T11:42:15Z</time>
      </trkpt>
      <trkpt lat="43.51427" lon="2.49414">
        <ele>623.164</ele>
        <time>2021-05-22T11:42:17Z</time>
      </trkpt>
      <trkpt lat="43.51427" lon="2.49414">
        <ele>623.166</ele>
        <time>2021-05-22T11:42:19Z</time>
      </trkpt>
      <trkpt lat="43.51427" lon="2.49414">
        <ele>623.174</ele>
        <time>2021-05-22T11:42:21Z</time>
      </trkpt>
      <trkpt lat="43.51427" lon="2.49414">
        <ele>623.174</ele>
        <time>2021-05-22T11:42:23Z</time>
      </trkpt>
      <trkpt lat="43.51427" lon="2.49414">
        <ele>623.176</ele>
        <time>2021-05-22T11:42:25Z</time>
      </trkpt>
      <trkpt lat="43.51427" lon="2.49414">
        <ele>623.184</ele>
        <time>2021-05-22T11:42:27Z</time>
      </trkpt>
      <trkpt lat="43.51427" lon="2.49414">
        <ele>623.191</ele>
        <time>2021-05-22T11:42:29Z</time>
      </trkpt>
      <trkpt lat="43.51427" lon="2.49414">
        <ele>623.208</ele>
        <time>2021-05-22T11:42:31Z</time>
      </trkpt>
      <trkpt lat="43.51427" lon="2.49414">
        <ele>623.207</ele>
        <time>2021-05-22T11:42:33Z</time>
      </trkpt>
      <trkpt lat="43.51427" lon="2.49414">
        <ele>623.207</ele>
        <time>2021-05-22T11:42:35Z</time>
      </trkpt>
      <trkpt lat="43.51427" lon="2.49414">
        <ele>623.299</ele>
        <time>2021-05-22T11:42:37Z</time>
      </trkpt>
      <trkpt lat="43.51427" lon="2.49414">
        <ele>623.3</ele>
        <time>2021-05-22T11:42:39Z</time>
      </trkpt>
      <trkpt lat="43.51427" lon="2.49414">
        <ele>623.302</ele>
        <time>2021-05-22T11:42:41Z</time>
      </trkpt>
      <trkpt lat="43.51427" lon="2.49414">
        <ele>623.302</ele>
        <time>2021-05-22T11:42:43Z</time>
      </trkpt>
      <trkpt lat="43.51427" lon="2.49414">
        <ele>623.304</ele>
        <time>2021-05-22T11:42:45Z</time>
      </trkpt>
      <trkpt lat="43.51427" lon="2.49414">
        <ele>623.308</ele>
        <time>2021-05-22T11:42:47Z</time>
      </trkpt>
      <trkpt lat="43.51427" lon="2.49414">
        <ele>623.311</ele>
        <time>2021-05-22T11:42:49Z</time>
      </trkpt>
      <trkpt lat="43.51427" lon="2.49414">
        <ele>623.313</ele>
        <time>2021-05-22T11:42:51Z</time>
      </trkpt>
      <trkpt lat="43.51426" lon="2.49414">
        <ele>623.587</ele>
        <time>2021-05-22T11:42:53Z</time>
      </trkpt>
      <trkpt lat="43.51426" lon="2.49414">
        <ele>623.602</ele>
        <time>2021-05-22T11:42:55Z</time>
      </trkpt>
      <trkpt lat="43.51426" lon="2.49414">
        <ele>623.604</ele>
        <time>2021-05-22T11:42:57Z</time>
      </trkpt>
      <trkpt lat="43.51426" lon="2.49414">
        <ele>623.606</ele>
        <time>2021-05-22T11:42:59Z</time>
      </trkpt>
      <trkpt lat="43.51426" lon="2.49414">
        <ele>623.606</ele>
        <time>2021-05-22T11:43:01Z</time>
      </trkpt>
      <trkpt lat="43.51426" lon="2.49414">
        <ele>623.71</ele>
        <time>2021-05-22T11:43:03Z</time>
      </trkpt>
      <trkpt lat="43.51426" lon="2.49413">
        <ele>624.076</ele>
        <time>2021-05-22T11:43:05Z</time>
      </trkpt>
      <trkpt lat="43.51426" lon="2.49413">
        <ele>624.077</ele>
        <time>2021-05-22T11:43:07Z</time>
      </trkpt>
      <trkpt lat="43.51426" lon="2.49413">
        <ele>624.08</ele>
        <time>2021-05-22T11:43:09Z</time>
      </trkpt>
      <trkpt lat="43.51426" lon="2.49413">
        <ele>624.079</ele>
        <time>2021-05-22T11:43:11Z</time>
      </trkpt>
      <trkpt lat="43.51426" lon="2.49413">
        <ele>624.081</ele>
        <time>2021-05-22T11:43:13Z</time>
      </trkpt>
      <trkpt lat="43.51426" lon="2.49413">
        <ele>624.08</ele>
        <time>2021-05-22T11:43:15Z</time>
      </trkpt>
      <trkpt lat="43.51426" lon="2.49413">
        <ele>624.082</ele>
        <time>2021-05-22T11:43:17Z</time>
      </trkpt>
      <trkpt lat="43.51426" lon="2.49413">
        <ele>624.084</ele>
        <time>2021-05-22T11:43:19Z</time>
      </trkpt>
      <trkpt lat="43.51426" lon="2.49413">
        <ele>624.087</ele>
        <time>2021-05-22T11:43:21Z</time>
      </trkpt>
      <trkpt lat="43.51426" lon="2.49413">
        <ele>624.092</ele>
        <time>2021-05-22T11:43:23Z</time>
      </trkpt>
      <trkpt lat="43.51426" lon="2.49413">
        <ele>624.094</ele>
        <time>2021-05-22T11:43:25Z</time>
      </trkpt>
      <trkpt lat="43.51426" lon="2.49413">
        <ele>624.097</ele>
        <time>2021-05-22T11:43:27Z</time>
      </trkpt>
      <trkpt lat="43.51426" lon="2.49413">
        <ele>624.101</ele>
        <time>2021-05-22T11:43:29Z</time>
      </trkpt>
      <trkpt lat="43.51426" lon="2.49413">
        <ele>624.109</ele>
        <time>2021-05-22T11:43:31Z</time>
      </trkpt>
      <trkpt lat="43.51426" lon="2.49413">
        <ele>624.109</ele>
        <time>2021-05-22T11:43:33Z</time>
      </trkpt>
      <trkpt lat="43.51426" lon="2.49413">
        <ele>624.111</ele>
        <time>2021-05-22T11:43:35Z</time>
      </trkpt>
      <trkpt lat="43.51426" lon="2.49413">
        <ele>624.114</ele>
        <time>2021-05-22T11:43:37Z</time>
      </trkpt>
      <trkpt lat="43.51426" lon="2.49413">
        <ele>624.112</ele>
        <time>2021-05-22T11:43:39Z</time>
      </trkpt>
      <trkpt lat="43.51426" lon="2.49413">
        <ele>624.116</ele>
        <time>2021-05-22T11:43:41Z</time>
      </trkpt>
      <trkpt lat="43.51426" lon="2.49413">
        <ele>624.113</ele>
        <time>2021-05-22T11:43:43Z</time>
      </trkpt>
      <trkpt lat="43.51426" lon="2.49413">
        <ele>624.115</ele>
        <time>2021-05-22T11:43:45Z</time>
      </trkpt>
      <trkpt lat="43.51426" lon="2.49413">
        <ele>624.11</ele>
        <time>2021-05-22T11:43:47Z</time>
      </trkpt>
      <trkpt lat="43.51426" lon="2.49413">
        <ele>624.111</ele>
        <time>2021-05-22T11:43:49Z</time>
      </trkpt>
      <trkpt lat="43.51426" lon="2.49413">
        <ele>624.109</ele>
        <time>2021-05-22T11:43:51Z</time>
      </trkpt>
      <trkpt lat="43.51426" lon="2.49413">
        <ele>624.109</ele>
        <time>2021-05-22T11:43:53Z</time>
      </trkpt>
      <trkpt lat="43.51426" lon="2.49413">
        <ele>624.109</ele>
        <time>2021-05-22T11:43:55Z</time>
      </trkpt>
      <trkpt lat="43.51426" lon="2.49413">
        <ele>624.111</ele>
        <time>2021-05-22T11:43:57Z</time>
      </trkpt>
      <trkpt lat="43.51426" lon="2.49413">
        <ele>624.109</ele>
        <time>2021-05-22T11:43:59Z</time>
      </trkpt>
      <trkpt lat="43.51426" lon="2.49413">
        <ele>624.057</ele>
        <time>2021-05-22T11:44:01Z</time>
      </trkpt>
      <trkpt lat="43.51426" lon="2.49413">
        <ele>624.075</ele>
        <time>2021-05-22T11:44:03Z</time>
      </trkpt>
      <trkpt lat="43.51426" lon="2.49413">
        <ele>624.08</ele>
        <time>2021-05-22T11:44:05Z</time>
      </trkpt>
      <trkpt lat="43.51426" lon="2.49413">
        <ele>624.08</ele>
        <time>2021-05-22T11:44:07Z</time>
      </trkpt>
      <trkpt lat="43.51426" lon="2.49413">
        <ele>624.08</ele>
        <time>2021-05-22T11:44:09Z</time>
      </trkpt>
      <trkpt lat="43.51426" lon="2.49413">
        <ele>624.084</ele>
        <time>2021-05-22T11:44:11Z</time>
      </trkpt>
      <trkpt lat="43.51426" lon="2.49413">
        <ele>624.086</ele>
        <time>2021-05-22T11:44:13Z</time>
      </trkpt>
      <trkpt lat="43.51426" lon="2.49413">
        <ele>624.095</ele>
        <time>2021-05-22T11:44:15Z</time>
      </trkpt>
      <trkpt lat="43.51426" lon="2.49413">
        <ele>624.097</ele>
        <time>2021-05-22T11:44:17Z</time>
      </trkpt>
      <trkpt lat="43.51426" lon="2.49413">
        <ele>624.096</ele>
        <time>2021-05-22T11:44:19Z</time>
      </trkpt>
      <trkpt lat="43.51426" lon="2.49413">
        <ele>624.097</ele>
        <time>2021-05-22T11:44:21Z</time>
      </trkpt>
      <trkpt lat="43.51426" lon="2.49413">
        <ele>624.103</ele>
        <time>2021-05-22T11:44:23Z</time>
      </trkpt>
      <trkpt lat="43.51426" lon="2.49413">
        <ele>624.109</ele>
        <time>2021-05-22T11:44:25Z</time>
      </trkpt>
      <trkpt lat="43.51426" lon="2.49413">
        <ele>624.118</ele>
        <time>2021-05-22T11:44:27Z</time>
      </trkpt>
      <trkpt lat="43.51426" lon="2.49413">
        <ele>624.135</ele>
        <time>2021-05-22T11:44:29Z</time>
      </trkpt>
      <trkpt lat="43.51426" lon="2.49413">
        <ele>624.147</ele>
        <time>2021-05-22T11:44:31Z</time>
      </trkpt>
      <trkpt lat="43.51426" lon="2.49413">
        <ele>624.153</ele>
        <time>2021-05-22T11:44:33Z</time>
      </trkpt>
      <trkpt lat="43.51426" lon="2.49413">
        <ele>624.163</ele>
        <time>2021-05-22T11:44:35Z</time>
      </trkpt>
      <trkpt lat="43.51426" lon="2.49413">
        <ele>624.166</ele>
        <time>2021-05-22T11:44:37Z</time>
      </trkpt>
      <trkpt lat="43.51426" lon="2.49413">
        <ele>624.172</ele>
        <time>2021-05-22T11:44:39Z</time>
      </trkpt>
      <trkpt lat="43.51426" lon="2.49413">
        <ele>624.171</ele>
        <time>2021-05-22T11:44:41Z</time>
      </trkpt>
      <trkpt lat="43.51426" lon="2.49413">
        <ele>624.176</ele>
        <time>2021-05-22T11:44:43Z</time>
      </trkpt>
      <trkpt lat="43.51426" lon="2.49413">
        <ele>624.178</ele>
        <time>2021-05-22T11:44:45Z</time>
      </trkpt>
      <trkpt lat="43.51426" lon="2.49413">
        <ele>624.18</ele>
        <time>2021-05-22T11:44:47Z</time>
      </trkpt>
      <trkpt lat="43.51426" lon="2.49413">
        <ele>624.182</ele>
        <time>2021-05-22T11:44:49Z</time>
      </trkpt>
      <trkpt lat="43.51426" lon="2.49413">
        <ele>624.186</ele>
        <time>2021-05-22T11:44:51Z</time>
      </trkpt>
      <trkpt lat="43.51426" lon="2.49413">
        <ele>624.191</ele>
        <time>2021-05-22T11:44:53Z</time>
      </trkpt>
      <trkpt lat="43.51426" lon="2.49413">
        <ele>624.197</ele>
        <time>2021-05-22T11:44:55Z</time>
      </trkpt>
      <trkpt lat="43.51426" lon="2.49413">
        <ele>624.206</ele>
        <time>2021-05-22T11:44:57Z</time>
      </trkpt>
      <trkpt lat="43.51426" lon="2.49413">
        <ele>624.218</ele>
        <time>2021-05-22T11:44:59Z</time>
      </trkpt>
      <trkpt lat="43.51426" lon="2.49413">
        <ele>624.225</ele>
        <time>2021-05-22T11:45:01Z</time>
      </trkpt>
      <trkpt lat="43.51426" lon="2.49414">
        <ele>624.23</ele>
        <time>2021-05-22T11:45:03Z</time>
      </trkpt>
      <trkpt lat="43.51426" lon="2.49414">
        <ele>624.234</ele>
        <time>2021-05-22T11:45:05Z</time>
      </trkpt>
      <trkpt lat="43.51426" lon="2.49414">
        <ele>624.241</ele>
        <time>2021-05-22T11:45:07Z</time>
      </trkpt>
      <trkpt lat="43.51426" lon="2.49414">
        <ele>624.252</ele>
        <time>2021-05-22T11:45:09Z</time>
      </trkpt>
      <trkpt lat="43.51426" lon="2.49414">
        <ele>624.258</ele>
        <time>2021-05-22T11:45:11Z</time>
      </trkpt>
      <trkpt lat="43.51426" lon="2.49414">
        <ele>624.259</ele>
        <time>2021-05-22T11:45:13Z</time>
      </trkpt>
      <trkpt lat="43.51426" lon="2.49414">
        <ele>624.263</ele>
        <time>2021-05-22T11:45:15Z</time>
      </trkpt>
      <trkpt lat="43.51426" lon="2.49414">
        <ele>624.262</ele>
        <time>2021-05-22T11:45:17Z</time>
      </trkpt>
      <trkpt lat="43.51426" lon="2.49414">
        <ele>624.265</ele>
        <time>2021-05-22T11:45:19Z</time>
      </trkpt>
      <trkpt lat="43.51426" lon="2.49414">
        <ele>624.267</ele>
        <time>2021-05-22T11:45:21Z</time>
      </trkpt>
      <trkpt lat="43.51426" lon="2.49414">
        <ele>624.271</ele>
        <time>2021-05-22T11:45:23Z</time>
      </trkpt>
      <trkpt lat="43.51426" lon="2.49414">
        <ele>624.278</ele>
        <time>2021-05-22T11:45:25Z</time>
      </trkpt>
      <trkpt lat="43.51426" lon="2.49414">
        <ele>624.279</ele>
        <time>2021-05-22T11:45:27Z</time>
      </trkpt>
      <trkpt lat="43.51426" lon="2.49414">
        <ele>624.281</ele>
        <time>2021-05-22T11:45:29Z</time>
      </trkpt>
      <trkpt lat="43.51426" lon="2.49414">
        <ele>624.283</ele>
        <time>2021-05-22T11:45:31Z</time>
      </trkpt>
      <trkpt lat="43.51426" lon="2.49414">
        <ele>624.288</ele>
        <time>2021-05-22T11:45:33Z</time>
      </trkpt>
      <trkpt lat="43.51426" lon="2.49414">
        <ele>624.289</ele>
        <time>2021-05-22T11:45:35Z</time>
      </trkpt>
      <trkpt lat="43.51426" lon="2.49414">
        <ele>624.287</ele>
        <time>2021-05-22T11:45:37Z</time>
      </trkpt>
      <trkpt lat="43.51426" lon="2.49414">
        <ele>624.291</ele>
        <time>2021-05-22T11:45:39Z</time>
      </trkpt>
      <trkpt lat="43.51426" lon="2.49414">
        <ele>624.293</ele>
        <time>2021-05-22T11:45:41Z</time>
      </trkpt>
      <trkpt lat="43.51426" lon="2.49414">
        <ele>624.295</ele>
        <time>2021-05-22T11:45:43Z</time>
      </trkpt>
      <trkpt lat="43.51426" lon="2.49414">
        <ele>624.298</ele>
        <time>2021-05-22T11:45:45Z</time>
      </trkpt>
      <trkpt lat="43.51426" lon="2.49414">
        <ele>624.301</ele>
        <time>2021-05-22T11:45:47Z</time>
      </trkpt>
      <trkpt lat="43.51426" lon="2.49414">
        <ele>624.304</ele>
        <time>2021-05-22T11:45:49Z</time>
      </trkpt>
      <trkpt lat="43.51426" lon="2.49414">
        <ele>624.307</ele>
        <time>2021-05-22T11:45:51Z</time>
      </trkpt>
      <trkpt lat="43.51426" lon="2.49414">
        <ele>624.308</ele>
        <time>2021-05-22T11:45:53Z</time>
      </trkpt>
      <trkpt lat="43.51426" lon="2.49414">
        <ele>624.308</ele>
        <time>2021-05-22T11:45:55Z</time>
      </trkpt>
      <trkpt lat="43.51426" lon="2.49414">
        <ele>624.311</ele>
        <time>2021-05-22T11:45:57Z</time>
      </trkpt>
      <trkpt lat="43.51426" lon="2.49414">
        <ele>624.314</ele>
        <time>2021-05-22T11:45:59Z</time>
      </trkpt>
      <trkpt lat="43.51426" lon="2.49414">
        <ele>624.325</ele>
        <time>2021-05-22T11:46:01Z</time>
      </trkpt>
      <trkpt lat="43.51426" lon="2.49414">
        <ele>624.33</ele>
        <time>2021-05-22T11:46:03Z</time>
      </trkpt>
      <trkpt lat="43.51426" lon="2.49414">
        <ele>624.331</ele>
        <time>2021-05-22T11:46:05Z</time>
      </trkpt>
      <trkpt lat="43.51426" lon="2.49414">
        <ele>624.331</ele>
        <time>2021-05-22T11:46:07Z</time>
      </trkpt>
      <trkpt lat="43.51426" lon="2.49414">
        <ele>624.335</ele>
        <time>2021-05-22T11:46:09Z</time>
      </trkpt>
      <trkpt lat="43.51426" lon="2.49414">
        <ele>624.342</ele>
        <time>2021-05-22T11:46:11Z</time>
      </trkpt>
      <trkpt lat="43.51426" lon="2.49414">
        <ele>624.35</ele>
        <time>2021-05-22T11:46:13Z</time>
      </trkpt>
      <trkpt lat="43.51426" lon="2.49414">
        <ele>624.36</ele>
        <time>2021-05-22T11:46:15Z</time>
      </trkpt>
      <trkpt lat="43.51426" lon="2.49414">
        <ele>624.372</ele>
        <time>2021-05-22T11:46:17Z</time>
      </trkpt>
      <trkpt lat="43.51426" lon="2.49414">
        <ele>624.381</ele>
        <time>2021-05-22T11:46:19Z</time>
      </trkpt>
      <trkpt lat="43.51426" lon="2.49414">
        <ele>624.386</ele>
        <time>2021-05-22T11:46:21Z</time>
      </trkpt>
      <trkpt lat="43.51426" lon="2.49414">
        <ele>624.394</ele>
        <time>2021-05-22T11:46:23Z</time>
      </trkpt>
      <trkpt lat="43.51426" lon="2.49414">
        <ele>624.396</ele>
        <time>2021-05-22T11:46:25Z</time>
      </trkpt>
      <trkpt lat="43.51426" lon="2.49414">
        <ele>624.398</ele>
        <time>2021-05-22T11:46:27Z</time>
      </trkpt>
      <trkpt lat="43.51426" lon="2.49414">
        <ele>624.399</ele>
        <time>2021-05-22T11:46:29Z</time>
      </trkpt>
      <trkpt lat="43.51426" lon="2.49414">
        <ele>624.403</ele>
        <time>2021-05-22T11:46:31Z</time>
      </trkpt>
      <trkpt lat="43.51426" lon="2.49414">
        <ele>624.403</ele>
        <time>2021-05-22T11:46:33Z</time>
      </trkpt>
      <trkpt lat="43.51426" lon="2.49414">
        <ele>624.402</ele>
        <time>2021-05-22T11:46:35Z</time>
      </trkpt>
      <trkpt lat="43.51426" lon="2.49414">
        <ele>624.402</ele>
        <time>2021-05-22T11:46:37Z</time>
      </trkpt>
      <trkpt lat="43.51426" lon="2.49414">
        <ele>624.406</ele>
        <time>2021-05-22T11:46:39Z</time>
      </trkpt>
      <trkpt lat="43.51426" lon="2.49414">
        <ele>624.4</ele>
        <time>2021-05-22T11:46:41Z</time>
      </trkpt>
      <trkpt lat="43.51426" lon="2.49414">
        <ele>624.399</ele>
        <time>2021-05-22T11:46:43Z</time>
      </trkpt>
      <trkpt lat="43.51426" lon="2.49414">
        <ele>624.401</ele>
        <time>2021-05-22T11:46:45Z</time>
      </trkpt>
      <trkpt lat="43.51426" lon="2.49414">
        <ele>624.393</ele>
        <time>2021-05-22T11:46:47Z</time>
      </trkpt>
      <trkpt lat="43.51426" lon="2.49414">
        <ele>624.392</ele>
        <time>2021-05-22T11:46:49Z</time>
      </trkpt>
      <trkpt lat="43.51426" lon="2.49414">
        <ele>624.388</ele>
        <time>2021-05-22T11:46:51Z</time>
      </trkpt>
      <trkpt lat="43.51426" lon="2.49414">
        <ele>624.392</ele>
        <time>2021-05-22T11:46:53Z</time>
      </trkpt>
      <trkpt lat="43.51426" lon="2.49414">
        <ele>624.395</ele>
        <time>2021-05-22T11:46:55Z</time>
      </trkpt>
      <trkpt lat="43.51426" lon="2.49414">
        <ele>624.399</ele>
        <time>2021-05-22T11:46:57Z</time>
      </trkpt>
      <trkpt lat="43.51426" lon="2.49414">
        <ele>624.401</ele>
        <time>2021-05-22T11:46:59Z</time>
      </trkpt>
      <trkpt lat="43.51426" lon="2.49414">
        <ele>624.402</ele>
        <time>2021-05-22T11:47:01Z</time>
      </trkpt>
      <trkpt lat="43.51426" lon="2.49414">
        <ele>624.401</ele>
        <time>2021-05-22T11:47:03Z</time>
      </trkpt>
      <trkpt lat="43.51426" lon="2.49414">
        <ele>624.401</ele>
        <time>2021-05-22T11:47:05Z</time>
      </trkpt>
      <trkpt lat="43.51426" lon="2.49414">
        <ele>624.407</ele>
        <time>2021-05-22T11:47:07Z</time>
      </trkpt>
      <trkpt lat="43.51426" lon="2.49414">
        <ele>624.41</ele>
        <time>2021-05-22T11:47:09Z</time>
      </trkpt>
      <trkpt lat="43.51426" lon="2.49414">
        <ele>624.412</ele>
        <time>2021-05-22T11:47:11Z</time>
      </trkpt>
      <trkpt lat="43.51426" lon="2.49414">
        <ele>624.413</ele>
        <time>2021-05-22T11:47:13Z</time>
      </trkpt>
      <trkpt lat="43.51426" lon="2.49414">
        <ele>624.413</ele>
        <time>2021-05-22T11:47:15Z</time>
      </trkpt>
      <trkpt lat="43.51426" lon="2.49414">
        <ele>624.415</ele>
        <time>2021-05-22T11:47:17Z</time>
      </trkpt>
      <trkpt lat="43.51426" lon="2.49414">
        <ele>624.418</ele>
        <time>2021-05-22T11:47:19Z</time>
      </trkpt>
      <trkpt lat="43.51426" lon="2.49414">
        <ele>624.422</ele>
        <time>2021-05-22T11:47:21Z</time>
      </trkpt>
      <trkpt lat="43.51426" lon="2.49414">
        <ele>624.428</ele>
        <time>2021-05-22T11:47:23Z</time>
      </trkpt>
      <trkpt lat="43.51426" lon="2.49414">
        <ele>624.432</ele>
        <time>2021-05-22T11:47:25Z</time>
      </trkpt>
      <trkpt lat="43.51426" lon="2.49414">
        <ele>624.437</ele>
        <time>2021-05-22T11:47:27Z</time>
      </trkpt>
      <trkpt lat="43.51426" lon="2.49414">
        <ele>624.439</ele>
        <time>2021-05-22T11:47:29Z</time>
      </trkpt>
      <trkpt lat="43.51426" lon="2.49414">
        <ele>624.448</ele>
        <time>2021-05-22T11:47:31Z</time>
      </trkpt>
      <trkpt lat="43.51426" lon="2.49414">
        <ele>624.454</ele>
        <time>2021-05-22T11:47:33Z</time>
      </trkpt>
      <trkpt lat="43.51426" lon="2.49414">
        <ele>624.458</ele>
        <time>2021-05-22T11:47:35Z</time>
      </trkpt>
      <trkpt lat="43.51426" lon="2.49414">
        <ele>624.465</ele>
        <time>2021-05-22T11:47:37Z</time>
      </trkpt>
      <trkpt lat="43.51426" lon="2.49414">
        <ele>624.474</ele>
        <time>2021-05-22T11:47:39Z</time>
      </trkpt>
      <trkpt lat="43.51426" lon="2.49414">
        <ele>624.481</ele>
        <time>2021-05-22T11:47:41Z</time>
      </trkpt>
      <trkpt lat="43.51426" lon="2.49414">
        <ele>624.485</ele>
        <time>2021-05-22T11:47:43Z</time>
      </trkpt>
      <trkpt lat="43.51426" lon="2.49414">
        <ele>624.491</ele>
        <time>2021-05-22T11:47:45Z</time>
      </trkpt>
      <trkpt lat="43.51426" lon="2.49414">
        <ele>624.497</ele>
        <time>2021-05-22T11:47:47Z</time>
      </trkpt>
      <trkpt lat="43.51426" lon="2.49414">
        <ele>624.505</ele>
        <time>2021-05-22T11:47:49Z</time>
      </trkpt>
      <trkpt lat="43.51426" lon="2.49414">
        <ele>624.515</ele>
        <time>2021-05-22T11:47:51Z</time>
      </trkpt>
      <trkpt lat="43.51426" lon="2.49414">
        <ele>624.52</ele>
        <time>2021-05-22T11:47:53Z</time>
      </trkpt>
      <trkpt lat="43.51426" lon="2.49414">
        <ele>624.522</ele>
        <time>2021-05-22T11:47:55Z</time>
      </trkpt>
      <trkpt lat="43.51426" lon="2.49414">
        <ele>624.522</ele>
        <time>2021-05-22T11:47:57Z</time>
      </trkpt>
      <trkpt lat="43.51426" lon="2.49414">
        <ele>624.529</ele>
        <time>2021-05-22T11:47:59Z</time>
      </trkpt>
      <trkpt lat="43.51426" lon="2.49414">
        <ele>624.524</ele>
        <time>2021-05-22T11:48:01Z</time>
      </trkpt>
      <trkpt lat="43.51426" lon="2.49414">
        <ele>624.528</ele>
        <time>2021-05-22T11:48:03Z</time>
      </trkpt>
      <trkpt lat="43.51426" lon="2.49414">
        <ele>624.535</ele>
        <time>2021-05-22T11:48:05Z</time>
      </trkpt>
      <trkpt lat="43.51426" lon="2.49414">
        <ele>624.539</ele>
        <time>2021-05-22T11:48:07Z</time>
      </trkpt>
      <trkpt lat="43.51426" lon="2.49414">
        <ele>624.543</ele>
        <time>2021-05-22T11:48:09Z</time>
      </trkpt>
      <trkpt lat="43.51426" lon="2.49414">
        <ele>624.55</ele>
        <time>2021-05-22T11:48:11Z</time>
      </trkpt>
      <trkpt lat="43.51426" lon="2.49414">
        <ele>624.559</ele>
        <time>2021-05-22T11:48:13Z</time>
      </trkpt>
      <trkpt lat="43.51426" lon="2.49414">
        <ele>624.565</ele>
        <time>2021-05-22T11:48:15Z</time>
      </trkpt>
      <trkpt lat="43.51426" lon="2.49414">
        <ele>624.577</ele>
        <time>2021-05-22T11:48:17Z</time>
      </trkpt>
      <trkpt lat="43.51426" lon="2.49414">
        <ele>624.577</ele>
        <time>2021-05-22T11:48:19Z</time>
      </trkpt>
      <trkpt lat="43.51426" lon="2.49414">
        <ele>624.585</ele>
        <time>2021-05-22T11:48:21Z</time>
      </trkpt>
      <trkpt lat="43.51426" lon="2.49414">
        <ele>624.589</ele>
        <time>2021-05-22T11:48:23Z</time>
      </trkpt>
      <trkpt lat="43.51426" lon="2.49414">
        <ele>624.593</ele>
        <time>2021-05-22T11:48:25Z</time>
      </trkpt>
      <trkpt lat="43.51426" lon="2.49414">
        <ele>624.594</ele>
        <time>2021-05-22T11:48:27Z</time>
      </trkpt>
      <trkpt lat="43.51426" lon="2.49414">
        <ele>624.594</ele>
        <time>2021-05-22T11:48:29Z</time>
      </trkpt>
      <trkpt lat="43.51426" lon="2.49414">
        <ele>624.595</ele>
        <time>2021-05-22T11:48:31Z</time>
      </trkpt>
      <trkpt lat="43.51426" lon="2.49414">
        <ele>624.595</ele>
        <time>2021-05-22T11:48:33Z</time>
      </trkpt>
      <trkpt lat="43.51426" lon="2.49414">
        <ele>624.596</ele>
        <time>2021-05-22T11:48:35Z</time>
      </trkpt>
      <trkpt lat="43.51426" lon="2.49414">
        <ele>624.6</ele>
        <time>2021-05-22T11:48:37Z</time>
      </trkpt>
      <trkpt lat="43.51426" lon="2.49414">
        <ele>624.598</ele>
        <time>2021-05-22T11:48:39Z</time>
      </trkpt>
      <trkpt lat="43.51426" lon="2.49414">
        <ele>624.604</ele>
        <time>2021-05-22T11:48:41Z</time>
      </trkpt>
      <trkpt lat="43.51426" lon="2.49414">
        <ele>624.604</ele>
        <time>2021-05-22T11:48:43Z</time>
      </trkpt>
      <trkpt lat="43.51426" lon="2.49414">
        <ele>624.608</ele>
        <time>2021-05-22T11:48:45Z</time>
      </trkpt>
      <trkpt lat="43.51426" lon="2.49414">
        <ele>624.619</ele>
        <time>2021-05-22T11:48:47Z</time>
      </trkpt>
      <trkpt lat="43.51426" lon="2.49414">
        <ele>624.621</ele>
        <time>2021-05-22T11:48:49Z</time>
      </trkpt>
      <trkpt lat="43.51426" lon="2.49414">
        <ele>624.622</ele>
        <time>2021-05-22T11:48:51Z</time>
      </trkpt>
      <trkpt lat="43.51426" lon="2.49414">
        <ele>624.621</ele>
        <time>2021-05-22T11:48:53Z</time>
      </trkpt>
      <trkpt lat="43.51426" lon="2.49414">
        <ele>624.622</ele>
        <time>2021-05-22T11:48:55Z</time>
      </trkpt>
      <trkpt lat="43.51426" lon="2.49414">
        <ele>624.627</ele>
        <time>2021-05-22T11:48:57Z</time>
      </trkpt>
      <trkpt lat="43.51426" lon="2.49414">
        <ele>624.632</ele>
        <time>2021-05-22T11:48:59Z</time>
      </trkpt>
      <trkpt lat="43.51426" lon="2.49414">
        <ele>624.635</ele>
        <time>2021-05-22T11:49:01Z</time>
      </trkpt>
      <trkpt lat="43.51426" lon="2.49414">
        <ele>624.634</ele>
        <time>2021-05-22T11:49:03Z</time>
      </trkpt>
      <trkpt lat="43.51426" lon="2.49414">
        <ele>624.637</ele>
        <time>2021-05-22T11:49:05Z</time>
      </trkpt>
      <trkpt lat="43.51426" lon="2.49414">
        <ele>624.642</ele>
        <time>2021-05-22T11:49:07Z</time>
      </trkpt>
      <trkpt lat="43.51426" lon="2.49414">
        <ele>624.642</ele>
        <time>2021-05-22T11:49:09Z</time>
      </trkpt>
      <trkpt lat="43.51426" lon="2.49414">
        <ele>624.647</ele>
        <time>2021-05-22T11:49:11Z</time>
      </trkpt>
      <trkpt lat="43.51426" lon="2.49414">
        <ele>624.647</ele>
        <time>2021-05-22T11:49:13Z</time>
      </trkpt>
      <trkpt lat="43.51426" lon="2.49414">
        <ele>624.647</ele>
        <time>2021-05-22T11:49:15Z</time>
      </trkpt>
      <trkpt lat="43.51426" lon="2.49414">
        <ele>624.644</ele>
        <time>2021-05-22T11:49:17Z</time>
      </trkpt>
      <trkpt lat="43.51426" lon="2.49414">
        <ele>624.645</ele>
        <time>2021-05-22T11:49:19Z</time>
      </trkpt>
      <trkpt lat="43.51426" lon="2.49414">
        <ele>624.646</ele>
        <time>2021-05-22T11:49:21Z</time>
      </trkpt>
      <trkpt lat="43.51426" lon="2.49414">
        <ele>624.649</ele>
        <time>2021-05-22T11:49:23Z</time>
      </trkpt>
      <trkpt lat="43.51426" lon="2.49414">
        <ele>624.65</ele>
        <time>2021-05-22T11:49:25Z</time>
      </trkpt>
      <trkpt lat="43.51426" lon="2.49414">
        <ele>624.65</ele>
        <time>2021-05-22T11:49:27Z</time>
      </trkpt>
      <trkpt lat="43.51426" lon="2.49414">
        <ele>624.654</ele>
        <time>2021-05-22T11:49:29Z</time>
      </trkpt>
      <trkpt lat="43.51426" lon="2.49414">
        <ele>624.658</ele>
        <time>2021-05-22T11:49:31Z</time>
      </trkpt>
      <trkpt lat="43.51426" lon="2.49414">
        <ele>624.661</ele>
        <time>2021-05-22T11:49:33Z</time>
      </trkpt>
      <trkpt lat="43.51426" lon="2.49414">
        <ele>624.662</ele>
        <time>2021-05-22T11:49:35Z</time>
      </trkpt>
      <trkpt lat="43.51426" lon="2.49414">
        <ele>624.664</ele>
        <time>2021-05-22T11:49:37Z</time>
      </trkpt>
      <trkpt lat="43.51426" lon="2.49414">
        <ele>624.667</ele>
        <time>2021-05-22T11:49:39Z</time>
      </trkpt>
      <trkpt lat="43.51426" lon="2.49414">
        <ele>624.666</ele>
        <time>2021-05-22T11:49:41Z</time>
      </trkpt>
      <trkpt lat="43.51426" lon="2.49414">
        <ele>624.669</ele>
        <time>2021-05-22T11:49:43Z</time>
      </trkpt>
      <trkpt lat="43.51426" lon="2.49414">
        <ele>624.672</ele>
        <time>2021-05-22T11:49:45Z</time>
      </trkpt>
      <trkpt lat="43.51426" lon="2.49414">
        <ele>624.672</ele>
        <time>2021-05-22T11:49:47Z</time>
      </trkpt>
      <trkpt lat="43.51426" lon="2.49414">
        <ele>625.053</ele>
        <time>2021-05-22T11:49:49Z</time>
      </trkpt>
      <trkpt lat="43.51426" lon="2.49414">
        <ele>625.218</ele>
        <time>2021-05-22T11:49:51Z</time>
      </trkpt>
      <trkpt lat="43.51426" lon="2.49414">
        <ele>625.23</ele>
        <time>2021-05-22T11:49:53Z</time>
      </trkpt>
      <trkpt lat="43.51426" lon="2.49414">
        <ele>625.254</ele>
        <time>2021-05-22T11:49:55Z</time>
      </trkpt>
      <trkpt lat="43.51426" lon="2.49414">
        <ele>625.277</ele>
        <time>2021-05-22T11:49:57Z</time>
      </trkpt>
      <trkpt lat="43.51426" lon="2.49414">
        <ele>625.284</ele>
        <time>2021-05-22T11:49:59Z</time>
      </trkpt>
      <trkpt lat="43.51426" lon="2.49414">
        <ele>625.294</ele>
        <time>2021-05-22T11:50:01Z</time>
      </trkpt>
      <trkpt lat="43.51426" lon="2.49414">
        <ele>625.299</ele>
        <time>2021-05-22T11:50:03Z</time>
      </trkpt>
      <trkpt lat="43.51426" lon="2.49414">
        <ele>625.302</ele>
        <time>2021-05-22T11:50:05Z</time>
      </trkpt>
      <trkpt lat="43.51426" lon="2.49414">
        <ele>625.318</ele>
        <time>2021-05-22T11:50:07Z</time>
      </trkpt>
      <trkpt lat="43.51426" lon="2.49414">
        <ele>625.326</ele>
        <time>2021-05-22T11:50:09Z</time>
      </trkpt>
      <trkpt lat="43.51426" lon="2.49414">
        <ele>625.349</ele>
        <time>2021-05-22T11:50:11Z</time>
      </trkpt>
      <trkpt lat="43.51426" lon="2.49414">
        <ele>625.367</ele>
        <time>2021-05-22T11:50:13Z</time>
      </trkpt>
      <trkpt lat="43.51426" lon="2.49414">
        <ele>625.376</ele>
        <time>2021-05-22T11:50:15Z</time>
      </trkpt>
      <trkpt lat="43.51426" lon="2.49414">
        <ele>625.382</ele>
        <time>2021-05-22T11:50:17Z</time>
      </trkpt>
      <trkpt lat="43.51426" lon="2.49414">
        <ele>625.389</ele>
        <time>2021-05-22T11:50:19Z</time>
      </trkpt>
      <trkpt lat="43.51426" lon="2.49414">
        <ele>625.391</ele>
        <time>2021-05-22T11:50:21Z</time>
      </trkpt>
      <trkpt lat="43.51426" lon="2.49414">
        <ele>625.394</ele>
        <time>2021-05-22T11:50:23Z</time>
      </trkpt>
      <trkpt lat="43.51426" lon="2.49414">
        <ele>625.399</ele>
        <time>2021-05-22T11:50:25Z</time>
      </trkpt>
      <trkpt lat="43.51426" lon="2.49414">
        <ele>625.377</ele>
        <time>2021-05-22T11:50:27Z</time>
      </trkpt>
      <trkpt lat="43.51426" lon="2.49414">
        <ele>625.387</ele>
        <time>2021-05-22T11:50:29Z</time>
      </trkpt>
      <trkpt lat="43.51426" lon="2.49414">
        <ele>624.914</ele>
        <time>2021-05-22T11:50:31Z</time>
      </trkpt>
      <trkpt lat="43.51426" lon="2.49413">
        <ele>624.842</ele>
        <time>2021-05-22T11:50:33Z</time>
      </trkpt>
      <trkpt lat="43.51426" lon="2.49413">
        <ele>624.843</ele>
        <time>2021-05-22T11:50:35Z</time>
      </trkpt>
      <trkpt lat="43.51426" lon="2.49413">
        <ele>624.853</ele>
        <time>2021-05-22T11:50:37Z</time>
      </trkpt>
      <trkpt lat="43.51426" lon="2.49413">
        <ele>624.856</ele>
        <time>2021-05-22T11:50:39Z</time>
      </trkpt>
      <trkpt lat="43.51426" lon="2.49413">
        <ele>624.857</ele>
        <time>2021-05-22T11:50:41Z</time>
      </trkpt>
      <trkpt lat="43.51426" lon="2.49413">
        <ele>624.86</ele>
        <time>2021-05-22T11:50:43Z</time>
      </trkpt>
      <trkpt lat="43.51426" lon="2.49413">
        <ele>624.86</ele>
        <time>2021-05-22T11:50:45Z</time>
      </trkpt>
      <trkpt lat="43.51426" lon="2.49413">
        <ele>624.869</ele>
        <time>2021-05-22T11:50:47Z</time>
      </trkpt>
      <trkpt lat="43.51426" lon="2.49413">
        <ele>624.876</ele>
        <time>2021-05-22T11:50:49Z</time>
      </trkpt>
      <trkpt lat="43.51426" lon="2.49413">
        <ele>624.879</ele>
        <time>2021-05-22T11:50:51Z</time>
      </trkpt>
      <trkpt lat="43.51426" lon="2.49413">
        <ele>624.899</ele>
        <time>2021-05-22T11:50:53Z</time>
      </trkpt>
      <trkpt lat="43.51426" lon="2.49413">
        <ele>624.893</ele>
        <time>2021-05-22T11:50:55Z</time>
      </trkpt>
      <trkpt lat="43.51426" lon="2.49413">
        <ele>624.893</ele>
        <time>2021-05-22T11:50:57Z</time>
      </trkpt>
      <trkpt lat="43.51426" lon="2.49413">
        <ele>624.929</ele>
        <time>2021-05-22T11:50:59Z</time>
      </trkpt>
      <trkpt lat="43.51426" lon="2.49413">
        <ele>624.944</ele>
        <time>2021-05-22T11:51:01Z</time>
      </trkpt>
      <trkpt lat="43.51426" lon="2.49413">
        <ele>624.953</ele>
        <time>2021-05-22T11:51:03Z</time>
      </trkpt>
      <trkpt lat="43.51426" lon="2.49413">
        <ele>624.971</ele>
        <time>2021-05-22T11:51:05Z</time>
      </trkpt>
      <trkpt lat="43.51426" lon="2.49413">
        <ele>624.985</ele>
        <time>2021-05-22T11:51:07Z</time>
      </trkpt>
      <trkpt lat="43.51426" lon="2.49413">
        <ele>624.996</ele>
        <time>2021-05-22T11:51:09Z</time>
      </trkpt>
      <trkpt lat="43.51426" lon="2.49413">
        <ele>625.005</ele>
        <time>2021-05-22T11:51:11Z</time>
      </trkpt>
      <trkpt lat="43.51426" lon="2.49413">
        <ele>625.017</ele>
        <time>2021-05-22T11:51:13Z</time>
      </trkpt>
      <trkpt lat="43.51426" lon="2.49413">
        <ele>625.031</ele>
        <time>2021-05-22T11:51:15Z</time>
      </trkpt>
      <trkpt lat="43.51425" lon="2.49413">
        <ele>625.04</ele>
        <time>2021-05-22T11:51:17Z</time>
      </trkpt>
      <trkpt lat="43.51425" lon="2.49413">
        <ele>625.051</ele>
        <time>2021-05-22T11:51:19Z</time>
      </trkpt>
      <trkpt lat="43.51425" lon="2.49413">
        <ele>625.063</ele>
        <time>2021-05-22T11:51:21Z</time>
      </trkpt>
      <trkpt lat="43.51425" lon="2.49413">
        <ele>625.074</ele>
        <time>2021-05-22T11:51:23Z</time>
      </trkpt>
      <trkpt lat="43.51425" lon="2.49413">
        <ele>625.076</ele>
        <time>2021-05-22T11:51:25Z</time>
      </trkpt>
      <trkpt lat="43.51425" lon="2.49413">
        <ele>625.084</ele>
        <time>2021-05-22T11:51:27Z</time>
      </trkpt>
      <trkpt lat="43.51425" lon="2.49413">
        <ele>625.092</ele>
        <time>2021-05-22T11:51:29Z</time>
      </trkpt>
      <trkpt lat="43.51425" lon="2.49413">
        <ele>625.097</ele>
        <time>2021-05-22T11:51:31Z</time>
      </trkpt>
      <trkpt lat="43.51425" lon="2.49413">
        <ele>625.1</ele>
        <time>2021-05-22T11:51:33Z</time>
      </trkpt>
      <trkpt lat="43.51425" lon="2.49413">
        <ele>625.104</ele>
        <time>2021-05-22T11:51:35Z</time>
      </trkpt>
      <trkpt lat="43.51425" lon="2.49413">
        <ele>625.118</ele>
        <time>2021-05-22T11:51:37Z</time>
      </trkpt>
      <trkpt lat="43.51425" lon="2.49413">
        <ele>625.132</ele>
        <time>2021-05-22T11:51:39Z</time>
      </trkpt>
      <trkpt lat="43.51425" lon="2.49413">
        <ele>625.139</ele>
        <time>2021-05-22T11:51:41Z</time>
      </trkpt>
      <trkpt lat="43.51425" lon="2.49413">
        <ele>625.153</ele>
        <time>2021-05-22T11:51:43Z</time>
      </trkpt>
      <trkpt lat="43.51425" lon="2.49413">
        <ele>625.162</ele>
        <time>2021-05-22T11:51:45Z</time>
      </trkpt>
      <trkpt lat="43.51425" lon="2.49413">
        <ele>625.175</ele>
        <time>2021-05-22T11:51:47Z</time>
      </trkpt>
      <trkpt lat="43.51425" lon="2.49413">
        <ele>625.198</ele>
        <time>2021-05-22T11:51:49Z</time>
      </trkpt>
      <trkpt lat="43.51425" lon="2.49413">
        <ele>625.218</ele>
        <time>2021-05-22T11:51:51Z</time>
      </trkpt>
      <trkpt lat="43.51425" lon="2.49413">
        <ele>625.235</ele>
        <time>2021-05-22T11:51:53Z</time>
      </trkpt>
      <trkpt lat="43.51425" lon="2.49413">
        <ele>625.248</ele>
        <time>2021-05-22T11:51:55Z</time>
      </trkpt>
      <trkpt lat="43.51425" lon="2.49413">
        <ele>625.254</ele>
        <time>2021-05-22T11:51:57Z</time>
      </trkpt>
      <trkpt lat="43.51425" lon="2.49413">
        <ele>625.268</ele>
        <time>2021-05-22T11:51:59Z</time>
      </trkpt>
      <trkpt lat="43.51425" lon="2.49413">
        <ele>625.272</ele>
        <time>2021-05-22T11:52:01Z</time>
      </trkpt>
      <trkpt lat="43.51425" lon="2.49413">
        <ele>625.28</ele>
        <time>2021-05-22T11:52:03Z</time>
      </trkpt>
      <trkpt lat="43.51425" lon="2.49413">
        <ele>625.293</ele>
        <time>2021-05-22T11:52:05Z</time>
      </trkpt>
      <trkpt lat="43.51425" lon="2.49413">
        <ele>625.293</ele>
        <time>2021-05-22T11:52:07Z</time>
      </trkpt>
      <trkpt lat="43.51425" lon="2.49413">
        <ele>625.291</ele>
        <time>2021-05-22T11:52:09Z</time>
      </trkpt>
      <trkpt lat="43.51425" lon="2.49413">
        <ele>625.304</ele>
        <time>2021-05-22T11:52:11Z</time>
      </trkpt>
      <trkpt lat="43.51425" lon="2.49413">
        <ele>625.305</ele>
        <time>2021-05-22T11:52:13Z</time>
      </trkpt>
      <trkpt lat="43.51425" lon="2.49413">
        <ele>625.304</ele>
        <time>2021-05-22T11:52:15Z</time>
      </trkpt>
      <trkpt lat="43.51425" lon="2.49413">
        <ele>625.303</ele>
        <time>2021-05-22T11:52:17Z</time>
      </trkpt>
      <trkpt lat="43.51425" lon="2.49413">
        <ele>625.297</ele>
        <time>2021-05-22T11:52:19Z</time>
      </trkpt>
      <trkpt lat="43.51425" lon="2.49413">
        <ele>625.29</ele>
        <time>2021-05-22T11:52:21Z</time>
      </trkpt>
      <trkpt lat="43.51425" lon="2.49413">
        <ele>625.3</ele>
        <time>2021-05-22T11:52:23Z</time>
      </trkpt>
      <trkpt lat="43.51425" lon="2.49413">
        <ele>625.301</ele>
        <time>2021-05-22T11:52:25Z</time>
      </trkpt>
      <trkpt lat="43.51425" lon="2.49413">
        <ele>625.301</ele>
        <time>2021-05-22T11:52:27Z</time>
      </trkpt>
      <trkpt lat="43.51425" lon="2.49413">
        <ele>625.307</ele>
        <time>2021-05-22T11:52:29Z</time>
      </trkpt>
      <trkpt lat="43.51425" lon="2.49413">
        <ele>625.315</ele>
        <time>2021-05-22T11:52:31Z</time>
      </trkpt>
      <trkpt lat="43.51425" lon="2.49413">
        <ele>625.315</ele>
        <time>2021-05-22T11:52:33Z</time>
      </trkpt>
      <trkpt lat="43.51425" lon="2.49413">
        <ele>625.309</ele>
        <time>2021-05-22T11:52:35Z</time>
      </trkpt>
      <trkpt lat="43.51425" lon="2.49413">
        <ele>625.31</ele>
        <time>2021-05-22T11:52:37Z</time>
      </trkpt>
      <trkpt lat="43.51425" lon="2.49413">
        <ele>625.307</ele>
        <time>2021-05-22T11:52:39Z</time>
      </trkpt>
      <trkpt lat="43.51425" lon="2.49413">
        <ele>625.312</ele>
        <time>2021-05-22T11:52:41Z</time>
      </trkpt>
      <trkpt lat="43.51425" lon="2.49413">
        <ele>625.317</ele>
        <time>2021-05-22T11:52:43Z</time>
      </trkpt>
      <trkpt lat="43.51425" lon="2.49413">
        <ele>625.326</ele>
        <time>2021-05-22T11:52:45Z</time>
      </trkpt>
      <trkpt lat="43.51425" lon="2.49413">
        <ele>625.34</ele>
        <time>2021-05-22T11:52:47Z</time>
      </trkpt>
      <trkpt lat="43.51425" lon="2.49413">
        <ele>625.347</ele>
        <time>2021-05-22T11:52:49Z</time>
      </trkpt>
      <trkpt lat="43.51425" lon="2.49413">
        <ele>625.353</ele>
        <time>2021-05-22T11:52:51Z</time>
      </trkpt>
      <trkpt lat="43.51425" lon="2.49413">
        <ele>625.348</ele>
        <time>2021-05-22T11:52:53Z</time>
      </trkpt>
      <trkpt lat="43.51425" lon="2.49413">
        <ele>625.348</ele>
        <time>2021-05-22T11:52:55Z</time>
      </trkpt>
      <trkpt lat="43.51425" lon="2.49413">
        <ele>625.349</ele>
        <time>2021-05-22T11:52:57Z</time>
      </trkpt>
      <trkpt lat="43.51425" lon="2.49413">
        <ele>625.35</ele>
        <time>2021-05-22T11:52:59Z</time>
      </trkpt>
      <trkpt lat="43.51425" lon="2.49413">
        <ele>625.358</ele>
        <time>2021-05-22T11:53:01Z</time>
      </trkpt>
      <trkpt lat="43.51425" lon="2.49413">
        <ele>625.36</ele>
        <time>2021-05-22T11:53:03Z</time>
      </trkpt>
      <trkpt lat="43.51425" lon="2.49413">
        <ele>625.361</ele>
        <time>2021-05-22T11:53:05Z</time>
      </trkpt>
      <trkpt lat="43.51425" lon="2.49413">
        <ele>625.362</ele>
        <time>2021-05-22T11:53:07Z</time>
      </trkpt>
      <trkpt lat="43.51425" lon="2.49413">
        <ele>625.364</ele>
        <time>2021-05-22T11:53:09Z</time>
      </trkpt>
      <trkpt lat="43.51425" lon="2.49413">
        <ele>625.364</ele>
        <time>2021-05-22T11:53:11Z</time>
      </trkpt>
      <trkpt lat="43.51425" lon="2.49413">
        <ele>625.363</ele>
        <time>2021-05-22T11:53:13Z</time>
      </trkpt>
      <trkpt lat="43.51425" lon="2.49413">
        <ele>625.374</ele>
        <time>2021-05-22T11:53:15Z</time>
      </trkpt>
      <trkpt lat="43.51425" lon="2.49413">
        <ele>625.379</ele>
        <time>2021-05-22T11:53:17Z</time>
      </trkpt>
      <trkpt lat="43.51425" lon="2.49413">
        <ele>625.389</ele>
        <time>2021-05-22T11:53:19Z</time>
      </trkpt>
      <trkpt lat="43.51425" lon="2.49413">
        <ele>625.398</ele>
        <time>2021-05-22T11:53:21Z</time>
      </trkpt>
      <trkpt lat="43.51425" lon="2.49413">
        <ele>625.405</ele>
        <time>2021-05-22T11:53:23Z</time>
      </trkpt>
      <trkpt lat="43.51425" lon="2.49413">
        <ele>625.41</ele>
        <time>2021-05-22T11:53:25Z</time>
      </trkpt>
      <trkpt lat="43.51425" lon="2.49413">
        <ele>625.421</ele>
        <time>2021-05-22T11:53:27Z</time>
      </trkpt>
      <trkpt lat="43.51425" lon="2.49413">
        <ele>625.437</ele>
        <time>2021-05-22T11:53:29Z</time>
      </trkpt>
      <trkpt lat="43.51425" lon="2.49413">
        <ele>625.445</ele>
        <time>2021-05-22T11:53:31Z</time>
      </trkpt>
      <trkpt lat="43.51425" lon="2.49413">
        <ele>625.453</ele>
        <time>2021-05-22T11:53:33Z</time>
      </trkpt>
      <trkpt lat="43.51425" lon="2.49413">
        <ele>625.454</ele>
        <time>2021-05-22T11:53:35Z</time>
      </trkpt>
      <trkpt lat="43.51425" lon="2.49413">
        <ele>625.462</ele>
        <time>2021-05-22T11:53:37Z</time>
      </trkpt>
      <trkpt lat="43.51425" lon="2.49413">
        <ele>625.456</ele>
        <time>2021-05-22T11:53:39Z</time>
      </trkpt>
      <trkpt lat="43.51425" lon="2.49413">
        <ele>625.454</ele>
        <time>2021-05-22T11:53:41Z</time>
      </trkpt>
      <trkpt lat="43.51425" lon="2.49413">
        <ele>625.448</ele>
        <time>2021-05-22T11:53:43Z</time>
      </trkpt>
      <trkpt lat="43.51425" lon="2.49413">
        <ele>625.448</ele>
        <time>2021-05-22T11:53:45Z</time>
      </trkpt>
      <trkpt lat="43.51425" lon="2.49413">
        <ele>625.461</ele>
        <time>2021-05-22T11:53:47Z</time>
      </trkpt>
      <trkpt lat="43.51425" lon="2.49413">
        <ele>625.461</ele>
        <time>2021-05-22T11:53:49Z</time>
      </trkpt>
      <trkpt lat="43.51425" lon="2.49413">
        <ele>625.46</ele>
        <time>2021-05-22T11:53:51Z</time>
      </trkpt>
      <trkpt lat="43.51425" lon="2.49413">
        <ele>625.461</ele>
        <time>2021-05-22T11:53:53Z</time>
      </trkpt>
      <trkpt lat="43.51425" lon="2.49413">
        <ele>625.464</ele>
        <time>2021-05-22T11:53:55Z</time>
      </trkpt>
      <trkpt lat="43.51425" lon="2.49413">
        <ele>625.458</ele>
        <time>2021-05-22T11:53:57Z</time>
      </trkpt>
      <trkpt lat="43.51425" lon="2.49413">
        <ele>625.454</ele>
        <time>2021-05-22T11:53:59Z</time>
      </trkpt>
      <trkpt lat="43.51425" lon="2.49413">
        <ele>625.447</ele>
        <time>2021-05-22T11:54:01Z</time>
      </trkpt>
      <trkpt lat="43.51425" lon="2.49413">
        <ele>625.449</ele>
        <time>2021-05-22T11:54:03Z</time>
      </trkpt>
      <trkpt lat="43.51425" lon="2.49413">
        <ele>625.456</ele>
        <time>2021-05-22T11:54:05Z</time>
      </trkpt>
      <trkpt lat="43.51425" lon="2.49413">
        <ele>625.477</ele>
        <time>2021-05-22T11:54:07Z</time>
      </trkpt>
      <trkpt lat="43.51425" lon="2.49413">
        <ele>625.486</ele>
        <time>2021-05-22T11:54:09Z</time>
      </trkpt>
      <trkpt lat="43.51425" lon="2.49413">
        <ele>625.503</ele>
        <time>2021-05-22T11:54:11Z</time>
      </trkpt>
      <trkpt lat="43.51425" lon="2.49413">
        <ele>625.51</ele>
        <time>2021-05-22T11:54:13Z</time>
      </trkpt>
      <trkpt lat="43.51425" lon="2.49413">
        <ele>625.515</ele>
        <time>2021-05-22T11:54:15Z</time>
      </trkpt>
      <trkpt lat="43.51425" lon="2.49413">
        <ele>625.522</ele>
        <time>2021-05-22T11:54:17Z</time>
      </trkpt>
      <trkpt lat="43.51425" lon="2.49413">
        <ele>625.52</ele>
        <time>2021-05-22T11:54:19Z</time>
      </trkpt>
      <trkpt lat="43.51425" lon="2.49413">
        <ele>625.518</ele>
        <time>2021-05-22T11:54:21Z</time>
      </trkpt>
      <trkpt lat="43.51425" lon="2.49413">
        <ele>625.516</ele>
        <time>2021-05-22T11:54:23Z</time>
      </trkpt>
      <trkpt lat="43.51425" lon="2.49413">
        <ele>625.508</ele>
        <time>2021-05-22T11:54:25Z</time>
      </trkpt>
      <trkpt lat="43.51425" lon="2.49413">
        <ele>625.507</ele>
        <time>2021-05-22T11:54:27Z</time>
      </trkpt>
      <trkpt lat="43.51425" lon="2.49413">
        <ele>625.501</ele>
        <time>2021-05-22T11:54:29Z</time>
      </trkpt>
      <trkpt lat="43.51425" lon="2.49413">
        <ele>625.502</ele>
        <time>2021-05-22T11:54:31Z</time>
      </trkpt>
      <trkpt lat="43.51425" lon="2.49413">
        <ele>625.51</ele>
        <time>2021-05-22T11:54:33Z</time>
      </trkpt>
      <trkpt lat="43.51425" lon="2.49413">
        <ele>625.516</ele>
        <time>2021-05-22T11:54:35Z</time>
      </trkpt>
      <trkpt lat="43.51425" lon="2.49413">
        <ele>625.523</ele>
        <time>2021-05-22T11:54:37Z</time>
      </trkpt>
      <trkpt lat="43.51425" lon="2.49413">
        <ele>625.535</ele>
        <time>2021-05-22T11:54:39Z</time>
      </trkpt>
      <trkpt lat="43.51425" lon="2.49413">
        <ele>625.55</ele>
        <time>2021-05-22T11:54:41Z</time>
      </trkpt>
      <trkpt lat="43.51425" lon="2.49413">
        <ele>625.546</ele>
        <time>2021-05-22T11:54:43Z</time>
      </trkpt>
      <trkpt lat="43.51425" lon="2.49413">
        <ele>625.55</ele>
        <time>2021-05-22T11:54:45Z</time>
      </trkpt>
      <trkpt lat="43.51425" lon="2.49413">
        <ele>625.566</ele>
        <time>2021-05-22T11:54:47Z</time>
      </trkpt>
      <trkpt lat="43.51425" lon="2.49413">
        <ele>625.569</ele>
        <time>2021-05-22T11:54:49Z</time>
      </trkpt>
      <trkpt lat="43.51425" lon="2.49413">
        <ele>625.572</ele>
        <time>2021-05-22T11:54:51Z</time>
      </trkpt>
      <trkpt lat="43.51425" lon="2.49413">
        <ele>625.571</ele>
        <time>2021-05-22T11:54:53Z</time>
      </trkpt>
      <trkpt lat="43.51425" lon="2.49413">
        <ele>625.582</ele>
        <time>2021-05-22T11:54:55Z</time>
      </trkpt>
      <trkpt lat="43.51425" lon="2.49413">
        <ele>625.602</ele>
        <time>2021-05-22T11:54:57Z</time>
      </trkpt>
      <trkpt lat="43.51425" lon="2.49413">
        <ele>625.606</ele>
        <time>2021-05-22T11:54:59Z</time>
      </trkpt>
      <trkpt lat="43.51425" lon="2.49413">
        <ele>625.615</ele>
        <time>2021-05-22T11:55:01Z</time>
      </trkpt>
      <trkpt lat="43.51425" lon="2.49413">
        <ele>625.631</ele>
        <time>2021-05-22T11:55:03Z</time>
      </trkpt>
      <trkpt lat="43.51425" lon="2.49413">
        <ele>625.642</ele>
        <time>2021-05-22T11:55:04Z</time>
      </trkpt>
      <trkpt lat="43.51425" lon="2.49413">
        <ele>625.666</ele>
        <time>2021-05-22T11:55:11Z</time>
      </trkpt>
      <trkpt lat="43.51425" lon="2.49413">
        <ele>625.674</ele>
        <time>2021-05-22T11:55:13Z</time>
      </trkpt>
      <trkpt lat="43.51425" lon="2.49413">
        <ele>625.678</ele>
        <time>2021-05-22T11:55:15Z</time>
      </trkpt>
      <trkpt lat="43.51425" lon="2.49413">
        <ele>625.69</ele>
        <time>2021-05-22T11:55:17Z</time>
      </trkpt>
      <trkpt lat="43.51425" lon="2.49413">
        <ele>625.703</ele>
        <time>2021-05-22T11:55:19Z</time>
      </trkpt>
      <trkpt lat="43.51425" lon="2.49413">
        <ele>625.718</ele>
        <time>2021-05-22T11:55:21Z</time>
      </trkpt>
      <trkpt lat="43.51425" lon="2.49413">
        <ele>625.734</ele>
        <time>2021-05-22T11:55:24Z</time>
      </trkpt>
      <trkpt lat="43.51425" lon="2.49413">
        <ele>625.754</ele>
        <time>2021-05-22T11:55:26Z</time>
      </trkpt>
      <trkpt lat="43.51425" lon="2.49413">
        <ele>625.768</ele>
        <time>2021-05-22T11:55:28Z</time>
      </trkpt>
      <trkpt lat="43.51425" lon="2.49413">
        <ele>625.78</ele>
        <time>2021-05-22T11:55:30Z</time>
      </trkpt>
      <trkpt lat="43.51425" lon="2.49413">
        <ele>625.794</ele>
        <time>2021-05-22T11:55:32Z</time>
      </trkpt>
      <trkpt lat="43.51425" lon="2.49413">
        <ele>625.801</ele>
        <time>2021-05-22T11:55:34Z</time>
      </trkpt>
      <trkpt lat="43.51425" lon="2.49413">
        <ele>625.803</ele>
        <time>2021-05-22T11:55:36Z</time>
      </trkpt>
      <trkpt lat="43.51425" lon="2.49413">
        <ele>625.812</ele>
        <time>2021-05-22T11:55:38Z</time>
      </trkpt>
      <trkpt lat="43.51425" lon="2.49413">
        <ele>625.819</ele>
        <time>2021-05-22T11:55:40Z</time>
      </trkpt>
      <trkpt lat="43.51425" lon="2.49413">
        <ele>625.821</ele>
        <time>2021-05-22T11:55:42Z</time>
      </trkpt>
      <trkpt lat="43.51425" lon="2.49413">
        <ele>625.824</ele>
        <time>2021-05-22T11:55:44Z</time>
      </trkpt>
      <trkpt lat="43.51425" lon="2.49413">
        <ele>625.829</ele>
        <time>2021-05-22T11:55:46Z</time>
      </trkpt>
      <trkpt lat="43.51425" lon="2.49413">
        <ele>625.83</ele>
        <time>2021-05-22T11:55:48Z</time>
      </trkpt>
      <trkpt lat="43.51425" lon="2.49413">
        <ele>625.835</ele>
        <time>2021-05-22T11:55:50Z</time>
      </trkpt>
      <trkpt lat="43.51425" lon="2.49413">
        <ele>625.84</ele>
        <time>2021-05-22T11:55:52Z</time>
      </trkpt>
      <trkpt lat="43.51425" lon="2.49413">
        <ele>625.848</ele>
        <time>2021-05-22T11:55:54Z</time>
      </trkpt>
      <trkpt lat="43.51425" lon="2.49413">
        <ele>625.856</ele>
        <time>2021-05-22T11:55:56Z</time>
      </trkpt>
      <trkpt lat="43.51425" lon="2.49413">
        <ele>625.866</ele>
        <time>2021-05-22T11:55:58Z</time>
      </trkpt>
      <trkpt lat="43.51425" lon="2.49413">
        <ele>625.869</ele>
        <time>2021-05-22T11:56:00Z</time>
      </trkpt>
      <trkpt lat="43.51425" lon="2.49413">
        <ele>625.873</ele>
        <time>2021-05-22T11:56:02Z</time>
      </trkpt>
      <trkpt lat="43.51425" lon="2.49413">
        <ele>625.872</ele>
        <time>2021-05-22T11:56:04Z</time>
      </trkpt>
      <trkpt lat="43.51425" lon="2.49413">
        <ele>625.868</ele>
        <time>2021-05-22T11:56:06Z</time>
      </trkpt>
      <trkpt lat="43.51425" lon="2.49413">
        <ele>625.863</ele>
        <time>2021-05-22T11:56:08Z</time>
      </trkpt>
      <trkpt lat="43.51425" lon="2.49413">
        <ele>625.856</ele>
        <time>2021-05-22T11:56:10Z</time>
      </trkpt>
      <trkpt lat="43.51425" lon="2.49413">
        <ele>625.848</ele>
        <time>2021-05-22T11:56:12Z</time>
      </trkpt>
      <trkpt lat="43.51425" lon="2.49413">
        <ele>625.84</ele>
        <time>2021-05-22T11:56:14Z</time>
      </trkpt>
      <trkpt lat="43.51425" lon="2.49413">
        <ele>625.84</ele>
        <time>2021-05-22T11:56:16Z</time>
      </trkpt>
      <trkpt lat="43.51425" lon="2.49413">
        <ele>625.839</ele>
        <time>2021-05-22T11:56:18Z</time>
      </trkpt>
      <trkpt lat="43.51425" lon="2.49413">
        <ele>625.839</ele>
        <time>2021-05-22T11:56:20Z</time>
      </trkpt>
      <trkpt lat="43.51425" lon="2.49413">
        <ele>625.844</ele>
        <time>2021-05-22T11:56:22Z</time>
      </trkpt>
      <trkpt lat="43.51425" lon="2.49413">
        <ele>625.849</ele>
        <time>2021-05-22T11:56:24Z</time>
      </trkpt>
      <trkpt lat="43.51425" lon="2.49413">
        <ele>625.856</ele>
        <time>2021-05-22T11:56:26Z</time>
      </trkpt>
      <trkpt lat="43.51425" lon="2.49413">
        <ele>625.858</ele>
        <time>2021-05-22T11:56:28Z</time>
      </trkpt>
      <trkpt lat="43.51425" lon="2.49413">
        <ele>625.86</ele>
        <time>2021-05-22T11:56:30Z</time>
      </trkpt>
      <trkpt lat="43.51425" lon="2.49413">
        <ele>625.865</ele>
        <time>2021-05-22T11:56:32Z</time>
      </trkpt>
      <trkpt lat="43.51425" lon="2.49413">
        <ele>625.866</ele>
        <time>2021-05-22T11:56:34Z</time>
      </trkpt>
      <trkpt lat="43.51425" lon="2.49413">
        <ele>625.862</ele>
        <time>2021-05-22T11:56:36Z</time>
      </trkpt>
      <trkpt lat="43.51425" lon="2.49413">
        <ele>625.858</ele>
        <time>2021-05-22T11:56:39Z</time>
      </trkpt>
      <trkpt lat="43.51425" lon="2.49413">
        <ele>625.856</ele>
        <time>2021-05-22T11:56:41Z</time>
      </trkpt>
      <trkpt lat="43.51425" lon="2.49413">
        <ele>625.854</ele>
        <time>2021-05-22T11:56:43Z</time>
      </trkpt>
      <trkpt lat="43.51425" lon="2.49413">
        <ele>625.855</ele>
        <time>2021-05-22T11:56:45Z</time>
      </trkpt>
      <trkpt lat="43.51425" lon="2.49413">
        <ele>625.854</ele>
        <time>2021-05-22T11:56:47Z</time>
      </trkpt>
      <trkpt lat="43.51425" lon="2.49413">
        <ele>625.855</ele>
        <time>2021-05-22T11:56:49Z</time>
      </trkpt>
      <trkpt lat="43.51425" lon="2.49413">
        <ele>625.88</ele>
        <time>2021-05-22T11:56:51Z</time>
      </trkpt>
      <trkpt lat="43.51425" lon="2.49413">
        <ele>625.906</ele>
        <time>2021-05-22T11:56:53Z</time>
      </trkpt>
      <trkpt lat="43.51425" lon="2.49413">
        <ele>625.932</ele>
        <time>2021-05-22T11:56:55Z</time>
      </trkpt>
      <trkpt lat="43.51425" lon="2.49413">
        <ele>625.955</ele>
        <time>2021-05-22T11:56:57Z</time>
      </trkpt>
      <trkpt lat="43.51425" lon="2.49413">
        <ele>625.964</ele>
        <time>2021-05-22T11:56:59Z</time>
      </trkpt>
      <trkpt lat="43.51425" lon="2.49413">
        <ele>625.973</ele>
        <time>2021-05-22T11:57:01Z</time>
      </trkpt>
      <trkpt lat="43.51425" lon="2.49413">
        <ele>625.995</ele>
        <time>2021-05-22T11:57:03Z</time>
      </trkpt>
      <trkpt lat="43.51425" lon="2.49413">
        <ele>625.992</ele>
        <time>2021-05-22T11:57:05Z</time>
      </trkpt>
      <trkpt lat="43.51425" lon="2.49413">
        <ele>625.982</ele>
        <time>2021-05-22T11:57:07Z</time>
      </trkpt>
      <trkpt lat="43.51425" lon="2.49413">
        <ele>625.983</ele>
        <time>2021-05-22T11:57:09Z</time>
      </trkpt>
      <trkpt lat="43.51425" lon="2.49413">
        <ele>625.981</ele>
        <time>2021-05-22T11:57:11Z</time>
      </trkpt>
      <trkpt lat="43.51425" lon="2.49413">
        <ele>625.985</ele>
        <time>2021-05-22T11:57:13Z</time>
      </trkpt>
      <trkpt lat="43.51425" lon="2.49413">
        <ele>625.988</ele>
        <time>2021-05-22T11:57:15Z</time>
      </trkpt>
      <trkpt lat="43.51425" lon="2.49413">
        <ele>626.002</ele>
        <time>2021-05-22T11:57:17Z</time>
      </trkpt>
      <trkpt lat="43.51425" lon="2.49413">
        <ele>626.013</ele>
        <time>2021-05-22T11:57:19Z</time>
      </trkpt>
      <trkpt lat="43.51425" lon="2.49413">
        <ele>626.017</ele>
        <time>2021-05-22T11:57:21Z</time>
      </trkpt>
      <trkpt lat="43.51425" lon="2.49413">
        <ele>626.015</ele>
        <time>2021-05-22T11:57:23Z</time>
      </trkpt>
      <trkpt lat="43.51425" lon="2.49413">
        <ele>626.019</ele>
        <time>2021-05-22T11:57:25Z</time>
      </trkpt>
      <trkpt lat="43.51425" lon="2.49413">
        <ele>626.023</ele>
        <time>2021-05-22T11:57:27Z</time>
      </trkpt>
      <trkpt lat="43.51425" lon="2.49413">
        <ele>626.03</ele>
        <time>2021-05-22T11:57:29Z</time>
      </trkpt>
      <trkpt lat="43.51425" lon="2.49413">
        <ele>626.045</ele>
        <time>2021-05-22T11:57:31Z</time>
      </trkpt>
      <trkpt lat="43.51425" lon="2.49413">
        <ele>626.056</ele>
        <time>2021-05-22T11:57:33Z</time>
      </trkpt>
      <trkpt lat="43.51425" lon="2.49413">
        <ele>626.064</ele>
        <time>2021-05-22T11:57:35Z</time>
      </trkpt>
      <trkpt lat="43.51425" lon="2.49413">
        <ele>626.065</ele>
        <time>2021-05-22T11:57:37Z</time>
      </trkpt>
      <trkpt lat="43.51425" lon="2.49413">
        <ele>626.069</ele>
        <time>2021-05-22T11:57:39Z</time>
      </trkpt>
      <trkpt lat="43.51425" lon="2.49413">
        <ele>626.08</ele>
        <time>2021-05-22T11:57:41Z</time>
      </trkpt>
      <trkpt lat="43.51425" lon="2.49413">
        <ele>626.093</ele>
        <time>2021-05-22T11:57:43Z</time>
      </trkpt>
      <trkpt lat="43.51425" lon="2.49413">
        <ele>626.095</ele>
        <time>2021-05-22T11:57:45Z</time>
      </trkpt>
      <trkpt lat="43.51425" lon="2.49413">
        <ele>626.092</ele>
        <time>2021-05-22T11:57:47Z</time>
      </trkpt>
      <trkpt lat="43.51425" lon="2.49413">
        <ele>626.103</ele>
        <time>2021-05-22T11:57:49Z</time>
      </trkpt>
      <trkpt lat="43.51425" lon="2.49413">
        <ele>626.11</ele>
        <time>2021-05-22T11:57:51Z</time>
      </trkpt>
      <trkpt lat="43.51425" lon="2.49413">
        <ele>626.116</ele>
        <time>2021-05-22T11:57:53Z</time>
      </trkpt>
      <trkpt lat="43.51425" lon="2.49413">
        <ele>626.121</ele>
        <time>2021-05-22T11:57:55Z</time>
      </trkpt>
      <trkpt lat="43.51425" lon="2.49413">
        <ele>626.123</ele>
        <time>2021-05-22T11:57:57Z</time>
      </trkpt>
      <trkpt lat="43.51425" lon="2.49413">
        <ele>626.786</ele>
        <time>2021-05-22T11:57:59Z</time>
      </trkpt>
      <trkpt lat="43.51425" lon="2.49413">
        <ele>626.753</ele>
        <time>2021-05-22T11:58:01Z</time>
      </trkpt>
      <trkpt lat="43.51425" lon="2.49413">
        <ele>626.756</ele>
        <time>2021-05-22T11:58:03Z</time>
      </trkpt>
      <trkpt lat="43.51425" lon="2.49413">
        <ele>626.755</ele>
        <time>2021-05-22T11:58:05Z</time>
      </trkpt>
      <trkpt lat="43.51425" lon="2.49413">
        <ele>626.757</ele>
        <time>2021-05-22T11:58:07Z</time>
      </trkpt>
      <trkpt lat="43.51425" lon="2.49413">
        <ele>626.759</ele>
        <time>2021-05-22T11:58:09Z</time>
      </trkpt>
      <trkpt lat="43.51425" lon="2.49413">
        <ele>626.761</ele>
        <time>2021-05-22T11:58:11Z</time>
      </trkpt>
      <trkpt lat="43.51425" lon="2.49413">
        <ele>626.765</ele>
        <time>2021-05-22T11:58:13Z</time>
      </trkpt>
      <trkpt lat="43.51425" lon="2.49413">
        <ele>626.765</ele>
        <time>2021-05-22T11:58:15Z</time>
      </trkpt>
      <trkpt lat="43.51425" lon="2.49413">
        <ele>626.766</ele>
        <time>2021-05-22T11:58:17Z</time>
      </trkpt>
      <trkpt lat="43.51425" lon="2.49413">
        <ele>626.766</ele>
        <time>2021-05-22T11:58:19Z</time>
      </trkpt>
      <trkpt lat="43.51425" lon="2.49413">
        <ele>626.768</ele>
        <time>2021-05-22T11:58:21Z</time>
      </trkpt>
      <trkpt lat="43.51425" lon="2.49413">
        <ele>626.769</ele>
        <time>2021-05-22T11:58:23Z</time>
      </trkpt>
      <trkpt lat="43.51425" lon="2.49413">
        <ele>626.777</ele>
        <time>2021-05-22T11:58:25Z</time>
      </trkpt>
      <trkpt lat="43.51425" lon="2.49414">
        <ele>626.629</ele>
        <time>2021-05-22T11:58:27Z</time>
      </trkpt>
      <trkpt lat="43.51425" lon="2.49414">
        <ele>626.608</ele>
        <time>2021-05-22T11:58:29Z</time>
      </trkpt>
      <trkpt lat="43.51425" lon="2.49414">
        <ele>626.609</ele>
        <time>2021-05-22T11:58:31Z</time>
      </trkpt>
      <trkpt lat="43.51425" lon="2.49414">
        <ele>626.605</ele>
        <time>2021-05-22T11:58:33Z</time>
      </trkpt>
      <trkpt lat="43.51425" lon="2.49414">
        <ele>626.603</ele>
        <time>2021-05-22T11:58:35Z</time>
      </trkpt>
      <trkpt lat="43.51425" lon="2.49414">
        <ele>626.603</ele>
        <time>2021-05-22T11:58:37Z</time>
      </trkpt>
      <trkpt lat="43.51425" lon="2.49414">
        <ele>626.603</ele>
        <time>2021-05-22T11:58:39Z</time>
      </trkpt>
      <trkpt lat="43.51425" lon="2.49414">
        <ele>626.601</ele>
        <time>2021-05-22T11:58:41Z</time>
      </trkpt>
      <trkpt lat="43.51425" lon="2.49414">
        <ele>626.603</ele>
        <time>2021-05-22T11:58:43Z</time>
      </trkpt>
      <trkpt lat="43.51425" lon="2.49414">
        <ele>626.609</ele>
        <time>2021-05-22T11:58:45Z</time>
      </trkpt>
      <trkpt lat="43.51425" lon="2.49414">
        <ele>626.609</ele>
        <time>2021-05-22T11:58:47Z</time>
      </trkpt>
      <trkpt lat="43.51425" lon="2.49414">
        <ele>626.607</ele>
        <time>2021-05-22T11:58:49Z</time>
      </trkpt>
      <trkpt lat="43.51425" lon="2.49414">
        <ele>626.605</ele>
        <time>2021-05-22T11:58:51Z</time>
      </trkpt>
      <trkpt lat="43.51425" lon="2.49414">
        <ele>626.603</ele>
        <time>2021-05-22T11:58:53Z</time>
      </trkpt>
      <trkpt lat="43.51425" lon="2.49414">
        <ele>626.599</ele>
        <time>2021-05-22T11:58:55Z</time>
      </trkpt>
      <trkpt lat="43.51425" lon="2.49414">
        <ele>626.598</ele>
        <time>2021-05-22T11:58:57Z</time>
      </trkpt>
      <trkpt lat="43.51425" lon="2.49414">
        <ele>626.596</ele>
        <time>2021-05-22T11:58:59Z</time>
      </trkpt>
      <trkpt lat="43.51425" lon="2.49414">
        <ele>626.594</ele>
        <time>2021-05-22T11:59:01Z</time>
      </trkpt>
      <trkpt lat="43.51425" lon="2.49414">
        <ele>626.592</ele>
        <time>2021-05-22T11:59:03Z</time>
      </trkpt>
      <trkpt lat="43.51425" lon="2.49414">
        <ele>626.586</ele>
        <time>2021-05-22T11:59:05Z</time>
      </trkpt>
      <trkpt lat="43.51425" lon="2.49414">
        <ele>626.581</ele>
        <time>2021-05-22T11:59:07Z</time>
      </trkpt>
      <trkpt lat="43.51425" lon="2.49414">
        <ele>626.578</ele>
        <time>2021-05-22T11:59:10Z</time>
      </trkpt>
      <trkpt lat="43.51425" lon="2.49414">
        <ele>626.579</ele>
        <time>2021-05-22T11:59:12Z</time>
      </trkpt>
      <trkpt lat="43.51425" lon="2.49414">
        <ele>626.576</ele>
        <time>2021-05-22T11:59:14Z</time>
      </trkpt>
      <trkpt lat="43.51425" lon="2.49414">
        <ele>626.576</ele>
        <time>2021-05-22T11:59:16Z</time>
      </trkpt>
      <trkpt lat="43.51425" lon="2.49414">
        <ele>626.578</ele>
        <time>2021-05-22T11:59:18Z</time>
      </trkpt>
      <trkpt lat="43.51425" lon="2.49414">
        <ele>626.578</ele>
        <time>2021-05-22T11:59:20Z</time>
      </trkpt>
      <trkpt lat="43.51425" lon="2.49414">
        <ele>626.579</ele>
        <time>2021-05-22T11:59:22Z</time>
      </trkpt>
      <trkpt lat="43.51425" lon="2.49414">
        <ele>626.583</ele>
        <time>2021-05-22T11:59:24Z</time>
      </trkpt>
      <trkpt lat="43.51425" lon="2.49414">
        <ele>626.585</ele>
        <time>2021-05-22T11:59:26Z</time>
      </trkpt>
      <trkpt lat="43.51425" lon="2.49414">
        <ele>626.586</ele>
        <time>2021-05-22T11:59:28Z</time>
      </trkpt>
      <trkpt lat="43.51425" lon="2.49414">
        <ele>626.583</ele>
        <time>2021-05-22T11:59:30Z</time>
      </trkpt>
      <trkpt lat="43.51425" lon="2.49414">
        <ele>626.578</ele>
        <time>2021-05-22T11:59:32Z</time>
      </trkpt>
      <trkpt lat="43.51425" lon="2.49414">
        <ele>626.574</ele>
        <time>2021-05-22T11:59:34Z</time>
      </trkpt>
      <trkpt lat="43.51425" lon="2.49414">
        <ele>626.568</ele>
        <time>2021-05-22T11:59:36Z</time>
      </trkpt>
      <trkpt lat="43.51425" lon="2.49414">
        <ele>626.561</ele>
        <time>2021-05-22T11:59:38Z</time>
      </trkpt>
      <trkpt lat="43.51425" lon="2.49414">
        <ele>626.556</ele>
        <time>2021-05-22T11:59:40Z</time>
      </trkpt>
      <trkpt lat="43.51425" lon="2.49414">
        <ele>626.547</ele>
        <time>2021-05-22T11:59:42Z</time>
      </trkpt>
      <trkpt lat="43.51425" lon="2.49414">
        <ele>626.543</ele>
        <time>2021-05-22T11:59:44Z</time>
      </trkpt>
      <trkpt lat="43.51425" lon="2.49414">
        <ele>626.534</ele>
        <time>2021-05-22T11:59:46Z</time>
      </trkpt>
      <trkpt lat="43.51425" lon="2.49414">
        <ele>626.525</ele>
        <time>2021-05-22T11:59:48Z</time>
      </trkpt>
      <trkpt lat="43.51425" lon="2.49414">
        <ele>626.518</ele>
        <time>2021-05-22T11:59:50Z</time>
      </trkpt>
      <trkpt lat="43.51425" lon="2.49414">
        <ele>626.509</ele>
        <time>2021-05-22T11:59:52Z</time>
      </trkpt>
      <trkpt lat="43.51425" lon="2.49414">
        <ele>626.506</ele>
        <time>2021-05-22T11:59:54Z</time>
      </trkpt>
      <trkpt lat="43.51425" lon="2.49414">
        <ele>626.498</ele>
        <time>2021-05-22T11:59:56Z</time>
      </trkpt>
      <trkpt lat="43.51425" lon="2.49414">
        <ele>626.489</ele>
        <time>2021-05-22T11:59:58Z</time>
      </trkpt>
      <trkpt lat="43.51425" lon="2.49414">
        <ele>626.479</ele>
        <time>2021-05-22T12:00:00Z</time>
      </trkpt>
      <trkpt lat="43.51425" lon="2.49414">
        <ele>626.47</ele>
        <time>2021-05-22T12:00:02Z</time>
      </trkpt>
      <trkpt lat="43.51425" lon="2.49414">
        <ele>626.457</ele>
        <time>2021-05-22T12:00:04Z</time>
      </trkpt>
      <trkpt lat="43.51425" lon="2.49414">
        <ele>626.449</ele>
        <time>2021-05-22T12:00:06Z</time>
      </trkpt>
      <trkpt lat="43.51425" lon="2.49414">
        <ele>626.441</ele>
        <time>2021-05-22T12:00:08Z</time>
      </trkpt>
      <trkpt lat="43.51425" lon="2.49414">
        <ele>626.431</ele>
        <time>2021-05-22T12:00:10Z</time>
      </trkpt>
      <trkpt lat="43.51425" lon="2.49414">
        <ele>626.422</ele>
        <time>2021-05-22T12:00:12Z</time>
      </trkpt>
      <trkpt lat="43.51425" lon="2.49414">
        <ele>626.412</ele>
        <time>2021-05-22T12:00:14Z</time>
      </trkpt>
      <trkpt lat="43.51425" lon="2.49414">
        <ele>626.4</ele>
        <time>2021-05-22T12:00:16Z</time>
      </trkpt>
      <trkpt lat="43.51425" lon="2.49414">
        <ele>626.396</ele>
        <time>2021-05-22T12:00:18Z</time>
      </trkpt>
      <trkpt lat="43.51425" lon="2.49414">
        <ele>626.387</ele>
        <time>2021-05-22T12:00:20Z</time>
      </trkpt>
      <trkpt lat="43.51425" lon="2.49414">
        <ele>626.384</ele>
        <time>2021-05-22T12:00:22Z</time>
      </trkpt>
      <trkpt lat="43.51425" lon="2.49414">
        <ele>626.381</ele>
        <time>2021-05-22T12:00:24Z</time>
      </trkpt>
      <trkpt lat="43.51425" lon="2.49414">
        <ele>626.379</ele>
        <time>2021-05-22T12:00:26Z</time>
      </trkpt>
      <trkpt lat="43.51425" lon="2.49414">
        <ele>626.375</ele>
        <time>2021-05-22T12:00:28Z</time>
      </trkpt>
      <trkpt lat="43.51425" lon="2.49414">
        <ele>626.375</ele>
        <time>2021-05-22T12:00:30Z</time>
      </trkpt>
      <trkpt lat="43.51425" lon="2.49414">
        <ele>626.376</ele>
        <time>2021-05-22T12:00:32Z</time>
      </trkpt>
      <trkpt lat="43.51425" lon="2.49414">
        <ele>626.377</ele>
        <time>2021-05-22T12:00:34Z</time>
      </trkpt>
      <trkpt lat="43.51425" lon="2.49414">
        <ele>626.375</ele>
        <time>2021-05-22T12:00:36Z</time>
      </trkpt>
      <trkpt lat="43.51425" lon="2.49414">
        <ele>626.372</ele>
        <time>2021-05-22T12:00:38Z</time>
      </trkpt>
      <trkpt lat="43.51425" lon="2.49414">
        <ele>626.362</ele>
        <time>2021-05-22T12:00:40Z</time>
      </trkpt>
      <trkpt lat="43.51425" lon="2.49414">
        <ele>626.358</ele>
        <time>2021-05-22T12:00:42Z</time>
      </trkpt>
      <trkpt lat="43.51425" lon="2.49414">
        <ele>626.353</ele>
        <time>2021-05-22T12:00:44Z</time>
      </trkpt>
      <trkpt lat="43.51425" lon="2.49414">
        <ele>626.348</ele>
        <time>2021-05-22T12:00:46Z</time>
      </trkpt>
      <trkpt lat="43.51425" lon="2.49414">
        <ele>626.353</ele>
        <time>2021-05-22T12:00:48Z</time>
      </trkpt>
      <trkpt lat="43.51425" lon="2.49414">
        <ele>626.148</ele>
        <time>2021-05-22T12:00:50Z</time>
      </trkpt>
      <trkpt lat="43.51425" lon="2.49414">
        <ele>626.197</ele>
        <time>2021-05-22T12:00:52Z</time>
      </trkpt>
      <trkpt lat="43.51424" lon="2.49414">
        <ele>625.933</ele>
        <time>2021-05-22T12:00:54Z</time>
      </trkpt>
      <trkpt lat="43.51424" lon="2.49414">
        <ele>625.935</ele>
        <time>2021-05-22T12:00:56Z</time>
      </trkpt>
      <trkpt lat="43.51424" lon="2.49414">
        <ele>625.938</ele>
        <time>2021-05-22T12:00:58Z</time>
      </trkpt>
      <trkpt lat="43.51424" lon="2.49414">
        <ele>625.934</ele>
        <time>2021-05-22T12:01:00Z</time>
      </trkpt>
      <trkpt lat="43.51424" lon="2.49414">
        <ele>625.929</ele>
        <time>2021-05-22T12:01:02Z</time>
      </trkpt>
      <trkpt lat="43.51424" lon="2.49414">
        <ele>625.923</ele>
        <time>2021-05-22T12:01:04Z</time>
      </trkpt>
      <trkpt lat="43.51424" lon="2.49414">
        <ele>625.926</ele>
        <time>2021-05-22T12:01:06Z</time>
      </trkpt>
      <trkpt lat="43.51424" lon="2.49414">
        <ele>625.924</ele>
        <time>2021-05-22T12:01:08Z</time>
      </trkpt>
      <trkpt lat="43.51424" lon="2.49414">
        <ele>625.925</ele>
        <time>2021-05-22T12:01:10Z</time>
      </trkpt>
      <trkpt lat="43.51424" lon="2.49414">
        <ele>625.933</ele>
        <time>2021-05-22T12:01:12Z</time>
      </trkpt>
      <trkpt lat="43.51424" lon="2.49414">
        <ele>625.934</ele>
        <time>2021-05-22T12:01:14Z</time>
      </trkpt>
      <trkpt lat="43.51424" lon="2.49414">
        <ele>625.929</ele>
        <time>2021-05-22T12:01:16Z</time>
      </trkpt>
      <trkpt lat="43.51424" lon="2.49414">
        <ele>625.928</ele>
        <time>2021-05-22T12:01:18Z</time>
      </trkpt>
      <trkpt lat="43.51424" lon="2.49414">
        <ele>625.926</ele>
        <time>2021-05-22T12:01:20Z</time>
      </trkpt>
      <trkpt lat="43.51424" lon="2.49414">
        <ele>625.924</ele>
        <time>2021-05-22T12:01:22Z</time>
      </trkpt>
      <trkpt lat="43.51424" lon="2.49414">
        <ele>625.915</ele>
        <time>2021-05-22T12:01:24Z</time>
      </trkpt>
      <trkpt lat="43.51424" lon="2.49414">
        <ele>625.914</ele>
        <time>2021-05-22T12:01:26Z</time>
      </trkpt>
      <trkpt lat="43.51424" lon="2.49414">
        <ele>625.921</ele>
        <time>2021-05-22T12:01:28Z</time>
      </trkpt>
      <trkpt lat="43.51424" lon="2.49414">
        <ele>625.925</ele>
        <time>2021-05-22T12:01:30Z</time>
      </trkpt>
      <trkpt lat="43.51424" lon="2.49414">
        <ele>625.932</ele>
        <time>2021-05-22T12:01:32Z</time>
      </trkpt>
      <trkpt lat="43.51424" lon="2.49414">
        <ele>625.94</ele>
        <time>2021-05-22T12:01:34Z</time>
      </trkpt>
      <trkpt lat="43.51424" lon="2.49414">
        <ele>625.951</ele>
        <time>2021-05-22T12:01:36Z</time>
      </trkpt>
      <trkpt lat="43.51424" lon="2.49414">
        <ele>625.961</ele>
        <time>2021-05-22T12:01:38Z</time>
      </trkpt>
      <trkpt lat="43.51424" lon="2.49414">
        <ele>625.97</ele>
        <time>2021-05-22T12:01:40Z</time>
      </trkpt>
      <trkpt lat="43.51424" lon="2.49414">
        <ele>625.976</ele>
        <time>2021-05-22T12:01:42Z</time>
      </trkpt>
      <trkpt lat="43.51424" lon="2.49414">
        <ele>625.982</ele>
        <time>2021-05-22T12:01:44Z</time>
      </trkpt>
      <trkpt lat="43.51424" lon="2.49414">
        <ele>625.985</ele>
        <time>2021-05-22T12:01:46Z</time>
      </trkpt>
      <trkpt lat="43.51424" lon="2.49414">
        <ele>625.995</ele>
        <time>2021-05-22T12:01:48Z</time>
      </trkpt>
      <trkpt lat="43.51424" lon="2.49414">
        <ele>625.998</ele>
        <time>2021-05-22T12:01:50Z</time>
      </trkpt>
      <trkpt lat="43.51424" lon="2.49414">
        <ele>626.008</ele>
        <time>2021-05-22T12:01:52Z</time>
      </trkpt>
      <trkpt lat="43.51424" lon="2.49414">
        <ele>626.008</ele>
        <time>2021-05-22T12:01:54Z</time>
      </trkpt>
      <trkpt lat="43.51424" lon="2.49414">
        <ele>626.012</ele>
        <time>2021-05-22T12:01:56Z</time>
      </trkpt>
      <trkpt lat="43.51424" lon="2.49414">
        <ele>626.027</ele>
        <time>2021-05-22T12:01:58Z</time>
      </trkpt>
      <trkpt lat="43.51424" lon="2.49414">
        <ele>626.03</ele>
        <time>2021-05-22T12:02:00Z</time>
      </trkpt>
      <trkpt lat="43.51424" lon="2.49414">
        <ele>626.041</ele>
        <time>2021-05-22T12:02:02Z</time>
      </trkpt>
      <trkpt lat="43.51424" lon="2.49414">
        <ele>626.044</ele>
        <time>2021-05-22T12:02:04Z</time>
      </trkpt>
      <trkpt lat="43.51424" lon="2.49414">
        <ele>626.051</ele>
        <time>2021-05-22T12:02:06Z</time>
      </trkpt>
      <trkpt lat="43.51424" lon="2.49414">
        <ele>626.062</ele>
        <time>2021-05-22T12:02:08Z</time>
      </trkpt>
      <trkpt lat="43.51424" lon="2.49414">
        <ele>626.07</ele>
        <time>2021-05-22T12:02:10Z</time>
      </trkpt>
      <trkpt lat="43.51424" lon="2.49414">
        <ele>626.086</ele>
        <time>2021-05-22T12:02:12Z</time>
      </trkpt>
      <trkpt lat="43.51424" lon="2.49414">
        <ele>626.095</ele>
        <time>2021-05-22T12:02:14Z</time>
      </trkpt>
      <trkpt lat="43.51424" lon="2.49414">
        <ele>626.119</ele>
        <time>2021-05-22T12:02:16Z</time>
      </trkpt>
      <trkpt lat="43.51424" lon="2.49414">
        <ele>626.131</ele>
        <time>2021-05-22T12:02:18Z</time>
      </trkpt>
      <trkpt lat="43.51424" lon="2.49414">
        <ele>626.154</ele>
        <time>2021-05-22T12:02:20Z</time>
      </trkpt>
      <trkpt lat="43.51424" lon="2.49414">
        <ele>626.164</ele>
        <time>2021-05-22T12:02:22Z</time>
      </trkpt>
      <trkpt lat="43.51424" lon="2.49414">
        <ele>626.18</ele>
        <time>2021-05-22T12:02:24Z</time>
      </trkpt>
      <trkpt lat="43.51424" lon="2.49414">
        <ele>626.191</ele>
        <time>2021-05-22T12:02:26Z</time>
      </trkpt>
      <trkpt lat="43.51424" lon="2.49414">
        <ele>626.204</ele>
        <time>2021-05-22T12:02:28Z</time>
      </trkpt>
      <trkpt lat="43.51424" lon="2.49414">
        <ele>626.217</ele>
        <time>2021-05-22T12:02:30Z</time>
      </trkpt>
      <trkpt lat="43.51424" lon="2.49414">
        <ele>626.231</ele>
        <time>2021-05-22T12:02:32Z</time>
      </trkpt>
      <trkpt lat="43.51424" lon="2.49413">
        <ele>626.24</ele>
        <time>2021-05-22T12:02:34Z</time>
      </trkpt>
      <trkpt lat="43.51424" lon="2.49413">
        <ele>626.249</ele>
        <time>2021-05-22T12:02:36Z</time>
      </trkpt>
      <trkpt lat="43.51424" lon="2.49413">
        <ele>626.26</ele>
        <time>2021-05-22T12:02:38Z</time>
      </trkpt>
      <trkpt lat="43.51424" lon="2.49413">
        <ele>626.274</ele>
        <time>2021-05-22T12:02:40Z</time>
      </trkpt>
      <trkpt lat="43.51424" lon="2.49413">
        <ele>626.289</ele>
        <time>2021-05-22T12:02:42Z</time>
      </trkpt>
      <trkpt lat="43.51424" lon="2.49413">
        <ele>626.309</ele>
        <time>2021-05-22T12:02:44Z</time>
      </trkpt>
      <trkpt lat="43.51424" lon="2.49413">
        <ele>626.391</ele>
        <time>2021-05-22T12:02:52Z</time>
      </trkpt>
      <trkpt lat="43.51424" lon="2.49413">
        <ele>626.393</ele>
        <time>2021-05-22T12:02:54Z</time>
      </trkpt>
      <trkpt lat="43.51424" lon="2.49413">
        <ele>626.399</ele>
        <time>2021-05-22T12:02:56Z</time>
      </trkpt>
      <trkpt lat="43.51424" lon="2.49414">
        <ele>626.407</ele>
        <time>2021-05-22T12:02:58Z</time>
      </trkpt>
      <trkpt lat="43.51424" lon="2.49414">
        <ele>626.415</ele>
        <time>2021-05-22T12:03:00Z</time>
      </trkpt>
      <trkpt lat="43.51424" lon="2.49414">
        <ele>626.417</ele>
        <time>2021-05-22T12:03:02Z</time>
      </trkpt>
      <trkpt lat="43.51424" lon="2.49414">
        <ele>626.419</ele>
        <time>2021-05-22T12:03:04Z</time>
      </trkpt>
      <trkpt lat="43.51424" lon="2.49414">
        <ele>626.418</ele>
        <time>2021-05-22T12:03:06Z</time>
      </trkpt>
      <trkpt lat="43.51424" lon="2.49413">
        <ele>626.156</ele>
        <time>2021-05-22T12:03:08Z</time>
      </trkpt>
      <trkpt lat="43.51426" lon="2.49412">
        <ele>625.64</ele>
        <time>2021-05-22T12:03:10Z</time>
      </trkpt>
      <trkpt lat="43.51426" lon="2.49412">
        <ele>626.191</ele>
        <time>2021-05-22T12:03:12Z</time>
      </trkpt>
      <trkpt lat="43.51426" lon="2.49411">
        <ele>624.203</ele>
        <time>2021-05-22T12:03:14Z</time>
      </trkpt>
      <trkpt lat="43.51426" lon="2.49412">
        <ele>625.259</ele>
        <time>2021-05-22T12:03:16Z</time>
      </trkpt>
      <trkpt lat="43.51425" lon="2.49412">
        <ele>624.653</ele>
        <time>2021-05-22T12:03:18Z</time>
      </trkpt>
      <trkpt lat="43.51425" lon="2.49413">
        <ele>625.056</ele>
        <time>2021-05-22T12:03:20Z</time>
      </trkpt>
      <trkpt lat="43.51425" lon="2.49413">
        <ele>625.125</ele>
        <time>2021-05-22T12:03:22Z</time>
      </trkpt>
      <trkpt lat="43.51425" lon="2.49413">
        <ele>625.129</ele>
        <time>2021-05-22T12:03:24Z</time>
      </trkpt>
      <trkpt lat="43.51424" lon="2.49413">
        <ele>624.978</ele>
        <time>2021-05-22T12:03:26Z</time>
      </trkpt>
      <trkpt lat="43.51424" lon="2.49412">
        <ele>625.26</ele>
        <time>2021-05-22T12:03:28Z</time>
      </trkpt>
      <trkpt lat="43.51424" lon="2.49412">
        <ele>625.249</ele>
        <time>2021-05-22T12:03:30Z</time>
      </trkpt>
      <trkpt lat="43.51424" lon="2.49412">
        <ele>625.596</ele>
        <time>2021-05-22T12:03:32Z</time>
      </trkpt>
      <trkpt lat="43.51424" lon="2.49412">
        <ele>626.032</ele>
        <time>2021-05-22T12:03:34Z</time>
      </trkpt>
      <trkpt lat="43.51424" lon="2.49412">
        <ele>626.704</ele>
        <time>2021-05-22T12:03:36Z</time>
      </trkpt>
      <trkpt lat="43.51425" lon="2.49413">
        <ele>628.496</ele>
        <time>2021-05-22T12:03:38Z</time>
      </trkpt>
      <trkpt lat="43.51425" lon="2.49414">
        <ele>626.849</ele>
        <time>2021-05-22T12:03:40Z</time>
      </trkpt>
      <trkpt lat="43.51425" lon="2.49415">
        <ele>626.826</ele>
        <time>2021-05-22T12:03:42Z</time>
      </trkpt>
      <trkpt lat="43.51425" lon="2.49415">
        <ele>626.817</ele>
        <time>2021-05-22T12:03:44Z</time>
      </trkpt>
      <trkpt lat="43.51425" lon="2.49416">
        <ele>626.592</ele>
        <time>2021-05-22T12:03:46Z</time>
      </trkpt>
      <trkpt lat="43.51425" lon="2.49416">
        <ele>626.633</ele>
        <time>2021-05-22T12:03:48Z</time>
      </trkpt>
      <trkpt lat="43.51424" lon="2.49416">
        <ele>626.43</ele>
        <time>2021-05-22T12:03:50Z</time>
      </trkpt>
      <trkpt lat="43.51424" lon="2.49416">
        <ele>626.484</ele>
        <time>2021-05-22T12:03:52Z</time>
      </trkpt>
      <trkpt lat="43.51424" lon="2.49416">
        <ele>626.424</ele>
        <time>2021-05-22T12:03:54Z</time>
      </trkpt>
      <trkpt lat="43.51424" lon="2.49416">
        <ele>626.424</ele>
        <time>2021-05-22T12:03:56Z</time>
      </trkpt>
      <trkpt lat="43.51424" lon="2.49416">
        <ele>626.428</ele>
        <time>2021-05-22T12:03:58Z</time>
      </trkpt>
      <trkpt lat="43.51424" lon="2.49416">
        <ele>626.429</ele>
        <time>2021-05-22T12:04:00Z</time>
      </trkpt>
      <trkpt lat="43.51424" lon="2.49416">
        <ele>626.431</ele>
        <time>2021-05-22T12:04:02Z</time>
      </trkpt>
      <trkpt lat="43.51424" lon="2.49416">
        <ele>626.432</ele>
        <time>2021-05-22T12:04:04Z</time>
      </trkpt>
      <trkpt lat="43.51424" lon="2.49416">
        <ele>626.432</ele>
        <time>2021-05-22T12:04:06Z</time>
      </trkpt>
      <trkpt lat="43.51424" lon="2.49416">
        <ele>626.429</ele>
        <time>2021-05-22T12:04:08Z</time>
      </trkpt>
      <trkpt lat="43.51424" lon="2.49416">
        <ele>626.425</ele>
        <time>2021-05-22T12:04:10Z</time>
      </trkpt>
      <trkpt lat="43.51424" lon="2.49416">
        <ele>626.422</ele>
        <time>2021-05-22T12:04:12Z</time>
      </trkpt>
      <trkpt lat="43.51424" lon="2.49416">
        <ele>626.416</ele>
        <time>2021-05-22T12:04:14Z</time>
      </trkpt>
      <trkpt lat="43.51424" lon="2.49416">
        <ele>626.418</ele>
        <time>2021-05-22T12:04:16Z</time>
      </trkpt>
      <trkpt lat="43.51424" lon="2.49416">
        <ele>626.421</ele>
        <time>2021-05-22T12:04:18Z</time>
      </trkpt>
      <trkpt lat="43.51424" lon="2.49416">
        <ele>626.433</ele>
        <time>2021-05-22T12:04:20Z</time>
      </trkpt>
      <trkpt lat="43.51424" lon="2.49416">
        <ele>626.435</ele>
        <time>2021-05-22T12:04:22Z</time>
      </trkpt>
      <trkpt lat="43.51424" lon="2.49416">
        <ele>626.434</ele>
        <time>2021-05-22T12:04:24Z</time>
      </trkpt>
      <trkpt lat="43.51424" lon="2.49416">
        <ele>626.433</ele>
        <time>2021-05-22T12:04:26Z</time>
      </trkpt>
      <trkpt lat="43.51424" lon="2.49416">
        <ele>626.429</ele>
        <time>2021-05-22T12:04:28Z</time>
      </trkpt>
      <trkpt lat="43.51424" lon="2.49417">
        <ele>626.462</ele>
        <time>2021-05-22T12:04:30Z</time>
      </trkpt>
      <trkpt lat="43.51424" lon="2.49417">
        <ele>626.466</ele>
        <time>2021-05-22T12:04:32Z</time>
      </trkpt>
      <trkpt lat="43.51424" lon="2.49417">
        <ele>626.475</ele>
        <time>2021-05-22T12:04:34Z</time>
      </trkpt>
      <trkpt lat="43.51424" lon="2.49417">
        <ele>626.472</ele>
        <time>2021-05-22T12:04:36Z</time>
      </trkpt>
      <trkpt lat="43.51424" lon="2.49417">
        <ele>626.468</ele>
        <time>2021-05-22T12:04:38Z</time>
      </trkpt>
      <trkpt lat="43.51424" lon="2.49417">
        <ele>626.464</ele>
        <time>2021-05-22T12:04:40Z</time>
      </trkpt>
      <trkpt lat="43.51424" lon="2.49417">
        <ele>626.462</ele>
        <time>2021-05-22T12:04:42Z</time>
      </trkpt>
      <trkpt lat="43.51424" lon="2.49417">
        <ele>626.461</ele>
        <time>2021-05-22T12:04:44Z</time>
      </trkpt>
      <trkpt lat="43.51424" lon="2.49417">
        <ele>626.457</ele>
        <time>2021-05-22T12:04:46Z</time>
      </trkpt>
      <trkpt lat="43.51424" lon="2.49417">
        <ele>626.463</ele>
        <time>2021-05-22T12:04:48Z</time>
      </trkpt>
      <trkpt lat="43.51424" lon="2.49417">
        <ele>626.465</ele>
        <time>2021-05-22T12:04:50Z</time>
      </trkpt>
      <trkpt lat="43.51424" lon="2.49417">
        <ele>626.464</ele>
        <time>2021-05-22T12:04:52Z</time>
      </trkpt>
      <trkpt lat="43.51424" lon="2.49417">
        <ele>626.41</ele>
        <time>2021-05-22T12:04:54Z</time>
      </trkpt>
      <trkpt lat="43.51424" lon="2.49417">
        <ele>626.42</ele>
        <time>2021-05-22T12:04:56Z</time>
      </trkpt>
      <trkpt lat="43.51424" lon="2.49417">
        <ele>626.432</ele>
        <time>2021-05-22T12:04:58Z</time>
      </trkpt>
      <trkpt lat="43.51424" lon="2.49417">
        <ele>626.808</ele>
        <time>2021-05-22T12:05:00Z</time>
      </trkpt>
      <trkpt lat="43.51424" lon="2.49417">
        <ele>626.897</ele>
        <time>2021-05-22T12:05:02Z</time>
      </trkpt>
      <trkpt lat="43.51424" lon="2.49417">
        <ele>626.904</ele>
        <time>2021-05-22T12:05:04Z</time>
      </trkpt>
      <trkpt lat="43.51424" lon="2.49417">
        <ele>626.898</ele>
        <time>2021-05-22T12:05:06Z</time>
      </trkpt>
      <trkpt lat="43.51423" lon="2.49418">
        <ele>627.723</ele>
        <time>2021-05-22T12:05:08Z</time>
      </trkpt>
      <trkpt lat="43.51424" lon="2.49418">
        <ele>627.764</ele>
        <time>2021-05-22T12:05:10Z</time>
      </trkpt>
      <trkpt lat="43.51423" lon="2.49419">
        <ele>627.113</ele>
        <time>2021-05-22T12:05:12Z</time>
      </trkpt>
      <trkpt lat="43.51423" lon="2.49419">
        <ele>627.111</ele>
        <time>2021-05-22T12:05:14Z</time>
      </trkpt>
      <trkpt lat="43.51423" lon="2.49419">
        <ele>627.125</ele>
        <time>2021-05-22T12:05:16Z</time>
      </trkpt>
      <trkpt lat="43.51423" lon="2.49419">
        <ele>627.126</ele>
        <time>2021-05-22T12:05:18Z</time>
      </trkpt>
      <trkpt lat="43.51423" lon="2.49419">
        <ele>627.128</ele>
        <time>2021-05-22T12:05:20Z</time>
      </trkpt>
      <trkpt lat="43.51423" lon="2.49419">
        <ele>627.129</ele>
        <time>2021-05-22T12:05:22Z</time>
      </trkpt>
      <trkpt lat="43.51423" lon="2.49419">
        <ele>627.128</ele>
        <time>2021-05-22T12:05:24Z</time>
      </trkpt>
      <trkpt lat="43.51423" lon="2.49419">
        <ele>627.129</ele>
        <time>2021-05-22T12:05:26Z</time>
      </trkpt>
      <trkpt lat="43.51423" lon="2.49419">
        <ele>627.128</ele>
        <time>2021-05-22T12:05:28Z</time>
      </trkpt>
      <trkpt lat="43.51423" lon="2.49419">
        <ele>627.128</ele>
        <time>2021-05-22T12:05:30Z</time>
      </trkpt>
      <trkpt lat="43.51423" lon="2.49419">
        <ele>627.128</ele>
        <time>2021-05-22T12:05:32Z</time>
      </trkpt>
      <trkpt lat="43.51423" lon="2.49419">
        <ele>627.132</ele>
        <time>2021-05-22T12:05:34Z</time>
      </trkpt>
      <trkpt lat="43.51423" lon="2.49419">
        <ele>627.129</ele>
        <time>2021-05-22T12:05:36Z</time>
      </trkpt>
      <trkpt lat="43.51423" lon="2.49419">
        <ele>627.13</ele>
        <time>2021-05-22T12:05:38Z</time>
      </trkpt>
      <trkpt lat="43.51423" lon="2.49419">
        <ele>627.136</ele>
        <time>2021-05-22T12:05:40Z</time>
      </trkpt>
      <trkpt lat="43.51423" lon="2.49419">
        <ele>627.135</ele>
        <time>2021-05-22T12:05:42Z</time>
      </trkpt>
      <trkpt lat="43.51423" lon="2.49419">
        <ele>627.137</ele>
        <time>2021-05-22T12:05:44Z</time>
      </trkpt>
      <trkpt lat="43.51423" lon="2.49419">
        <ele>627.135</ele>
        <time>2021-05-22T12:05:46Z</time>
      </trkpt>
      <trkpt lat="43.51423" lon="2.49419">
        <ele>627.136</ele>
        <time>2021-05-22T12:05:48Z</time>
      </trkpt>
      <trkpt lat="43.51423" lon="2.49419">
        <ele>627.133</ele>
        <time>2021-05-22T12:05:50Z</time>
      </trkpt>
      <trkpt lat="43.51423" lon="2.49419">
        <ele>627.132</ele>
        <time>2021-05-22T12:05:52Z</time>
      </trkpt>
      <trkpt lat="43.51423" lon="2.49419">
        <ele>627.132</ele>
        <time>2021-05-22T12:05:54Z</time>
      </trkpt>
      <trkpt lat="43.51423" lon="2.49419">
        <ele>627.131</ele>
        <time>2021-05-22T12:05:56Z</time>
      </trkpt>
      <trkpt lat="43.51423" lon="2.49419">
        <ele>627.131</ele>
        <time>2021-05-22T12:05:58Z</time>
      </trkpt>
      <trkpt lat="43.51423" lon="2.49419">
        <ele>627.129</ele>
        <time>2021-05-22T12:06:00Z</time>
      </trkpt>
      <trkpt lat="43.51423" lon="2.49419">
        <ele>627.126</ele>
        <time>2021-05-22T12:06:02Z</time>
      </trkpt>
      <trkpt lat="43.51423" lon="2.49419">
        <ele>627.122</ele>
        <time>2021-05-22T12:06:04Z</time>
      </trkpt>
      <trkpt lat="43.51423" lon="2.49419">
        <ele>627.122</ele>
        <time>2021-05-22T12:06:06Z</time>
      </trkpt>
      <trkpt lat="43.51423" lon="2.49419">
        <ele>627.13</ele>
        <time>2021-05-22T12:06:08Z</time>
      </trkpt>
      <trkpt lat="43.51423" lon="2.49419">
        <ele>627.131</ele>
        <time>2021-05-22T12:06:10Z</time>
      </trkpt>
      <trkpt lat="43.51423" lon="2.49419">
        <ele>627.129</ele>
        <time>2021-05-22T12:06:12Z</time>
      </trkpt>
      <trkpt lat="43.51423" lon="2.49419">
        <ele>627.133</ele>
        <time>2021-05-22T12:06:14Z</time>
      </trkpt>
      <trkpt lat="43.51423" lon="2.49419">
        <ele>627.142</ele>
        <time>2021-05-22T12:06:16Z</time>
      </trkpt>
      <trkpt lat="43.51423" lon="2.49419">
        <ele>627.144</ele>
        <time>2021-05-22T12:06:18Z</time>
      </trkpt>
      <trkpt lat="43.51423" lon="2.49419">
        <ele>627.15</ele>
        <time>2021-05-22T12:06:20Z</time>
      </trkpt>
      <trkpt lat="43.51423" lon="2.49419">
        <ele>627.153</ele>
        <time>2021-05-22T12:06:22Z</time>
      </trkpt>
      <trkpt lat="43.51423" lon="2.49419">
        <ele>627.154</ele>
        <time>2021-05-22T12:06:24Z</time>
      </trkpt>
      <trkpt lat="43.51423" lon="2.49419">
        <ele>627.164</ele>
        <time>2021-05-22T12:06:26Z</time>
      </trkpt>
      <trkpt lat="43.51423" lon="2.49419">
        <ele>627.18</ele>
        <time>2021-05-22T12:06:28Z</time>
      </trkpt>
      <trkpt lat="43.51423" lon="2.49419">
        <ele>627.181</ele>
        <time>2021-05-22T12:06:30Z</time>
      </trkpt>
      <trkpt lat="43.51423" lon="2.49419">
        <ele>627.179</ele>
        <time>2021-05-22T12:06:32Z</time>
      </trkpt>
      <trkpt lat="43.51423" lon="2.49419">
        <ele>627.179</ele>
        <time>2021-05-22T12:06:34Z</time>
      </trkpt>
      <trkpt lat="43.51423" lon="2.49419">
        <ele>627.182</ele>
        <time>2021-05-22T12:06:36Z</time>
      </trkpt>
      <trkpt lat="43.51423" lon="2.49419">
        <ele>627.179</ele>
        <time>2021-05-22T12:06:38Z</time>
      </trkpt>
      <trkpt lat="43.51423" lon="2.49419">
        <ele>627.18</ele>
        <time>2021-05-22T12:06:40Z</time>
      </trkpt>
      <trkpt lat="43.51423" lon="2.49419">
        <ele>627.187</ele>
        <time>2021-05-22T12:06:42Z</time>
      </trkpt>
      <trkpt lat="43.51423" lon="2.49419">
        <ele>627.188</ele>
        <time>2021-05-22T12:06:44Z</time>
      </trkpt>
      <trkpt lat="43.51423" lon="2.49419">
        <ele>627.187</ele>
        <time>2021-05-22T12:06:46Z</time>
      </trkpt>
      <trkpt lat="43.51423" lon="2.49419">
        <ele>627.187</ele>
        <time>2021-05-22T12:06:48Z</time>
      </trkpt>
      <trkpt lat="43.51423" lon="2.49419">
        <ele>627.19</ele>
        <time>2021-05-22T12:06:50Z</time>
      </trkpt>
      <trkpt lat="43.51423" lon="2.49419">
        <ele>627.276</ele>
        <time>2021-05-22T12:06:52Z</time>
      </trkpt>
      <trkpt lat="43.51423" lon="2.49419">
        <ele>627.947</ele>
        <time>2021-05-22T12:06:54Z</time>
      </trkpt>
      <trkpt lat="43.51423" lon="2.49419">
        <ele>627.831</ele>
        <time>2021-05-22T12:06:56Z</time>
      </trkpt>
      <trkpt lat="43.51423" lon="2.49419">
        <ele>627.886</ele>
        <time>2021-05-22T12:06:58Z</time>
      </trkpt>
      <trkpt lat="43.51423" lon="2.49419">
        <ele>627.884</ele>
        <time>2021-05-22T12:07:00Z</time>
      </trkpt>
      <trkpt lat="43.51423" lon="2.49419">
        <ele>627.882</ele>
        <time>2021-05-22T12:07:02Z</time>
      </trkpt>
      <trkpt lat="43.51423" lon="2.49419">
        <ele>627.88</ele>
        <time>2021-05-22T12:07:04Z</time>
      </trkpt>
      <trkpt lat="43.51423" lon="2.49419">
        <ele>627.879</ele>
        <time>2021-05-22T12:07:06Z</time>
      </trkpt>
      <trkpt lat="43.51423" lon="2.49419">
        <ele>627.883</ele>
        <time>2021-05-22T12:07:08Z</time>
      </trkpt>
      <trkpt lat="43.51424" lon="2.49418">
        <ele>627.913</ele>
        <time>2021-05-22T12:07:10Z</time>
      </trkpt>
      <trkpt lat="43.51425" lon="2.49416">
        <ele>627.317</ele>
        <time>2021-05-22T12:07:12Z</time>
      </trkpt>
      <trkpt lat="43.51426" lon="2.49415">
        <ele>627.35</ele>
        <time>2021-05-22T12:07:14Z</time>
      </trkpt>
      <trkpt lat="43.51427" lon="2.49415">
        <ele>626.819</ele>
        <time>2021-05-22T12:07:16Z</time>
      </trkpt>
      <trkpt lat="43.51427" lon="2.49414">
        <ele>626.596</ele>
        <time>2021-05-22T12:07:18Z</time>
      </trkpt>
      <trkpt lat="43.51427" lon="2.49414">
        <ele>626.686</ele>
        <time>2021-05-22T12:07:20Z</time>
      </trkpt>
      <trkpt lat="43.51426" lon="2.49414">
        <ele>626.609</ele>
        <time>2021-05-22T12:07:22Z</time>
      </trkpt>
      <trkpt lat="43.51425" lon="2.49414">
        <ele>625.07</ele>
        <time>2021-05-22T12:07:24Z</time>
      </trkpt>
      <trkpt lat="43.51424" lon="2.49414">
        <ele>624.136</ele>
        <time>2021-05-22T12:07:26Z</time>
      </trkpt>
      <trkpt lat="43.51423" lon="2.49414">
        <ele>624.193</ele>
        <time>2021-05-22T12:07:28Z</time>
      </trkpt>
      <trkpt lat="43.51423" lon="2.49414">
        <ele>622.695</ele>
        <time>2021-05-22T12:07:30Z</time>
      </trkpt>
      <trkpt lat="43.51422" lon="2.49413">
        <ele>622.352</ele>
        <time>2021-05-22T12:07:32Z</time>
      </trkpt>
      <trkpt lat="43.51421" lon="2.49413">
        <ele>622.34</ele>
        <time>2021-05-22T12:07:34Z</time>
      </trkpt>
      <trkpt lat="43.51421" lon="2.49413">
        <ele>622.297</ele>
        <time>2021-05-22T12:07:36Z</time>
      </trkpt>
      <trkpt lat="43.51421" lon="2.49413">
        <ele>622.291</ele>
        <time>2021-05-22T12:07:38Z</time>
      </trkpt>
      <trkpt lat="43.51421" lon="2.49413">
        <ele>622.291</ele>
        <time>2021-05-22T12:07:40Z</time>
      </trkpt>
      <trkpt lat="43.51421" lon="2.49413">
        <ele>622.288</ele>
        <time>2021-05-22T12:07:42Z</time>
      </trkpt>
      <trkpt lat="43.51421" lon="2.49413">
        <ele>622.291</ele>
        <time>2021-05-22T12:07:44Z</time>
      </trkpt>
      <trkpt lat="43.51421" lon="2.49413">
        <ele>622.295</ele>
        <time>2021-05-22T12:07:46Z</time>
      </trkpt>
      <trkpt lat="43.51421" lon="2.49413">
        <ele>622.295</ele>
        <time>2021-05-22T12:07:48Z</time>
      </trkpt>
      <trkpt lat="43.51421" lon="2.49413">
        <ele>622.298</ele>
        <time>2021-05-22T12:07:50Z</time>
      </trkpt>
      <trkpt lat="43.51421" lon="2.49413">
        <ele>622.292</ele>
        <time>2021-05-22T12:07:52Z</time>
      </trkpt>
      <trkpt lat="43.51421" lon="2.49413">
        <ele>622.294</ele>
        <time>2021-05-22T12:07:54Z</time>
      </trkpt>
      <trkpt lat="43.51421" lon="2.49413">
        <ele>622.297</ele>
        <time>2021-05-22T12:07:56Z</time>
      </trkpt>
      <trkpt lat="43.51421" lon="2.49413">
        <ele>622.298</ele>
        <time>2021-05-22T12:07:58Z</time>
      </trkpt>
      <trkpt lat="43.51421" lon="2.49413">
        <ele>622.375</ele>
        <time>2021-05-22T12:08:00Z</time>
      </trkpt>
      <trkpt lat="43.51421" lon="2.49413">
        <ele>622.385</ele>
        <time>2021-05-22T12:08:02Z</time>
      </trkpt>
      <trkpt lat="43.51421" lon="2.49413">
        <ele>622.384</ele>
        <time>2021-05-22T12:08:04Z</time>
      </trkpt>
      <trkpt lat="43.51421" lon="2.49413">
        <ele>622.379</ele>
        <time>2021-05-22T12:08:06Z</time>
      </trkpt>
      <trkpt lat="43.51421" lon="2.49413">
        <ele>622.381</ele>
        <time>2021-05-22T12:08:08Z</time>
      </trkpt>
      <trkpt lat="43.51421" lon="2.49413">
        <ele>622.402</ele>
        <time>2021-05-22T12:08:10Z</time>
      </trkpt>
      <trkpt lat="43.51421" lon="2.49413">
        <ele>622.409</ele>
        <time>2021-05-22T12:08:12Z</time>
      </trkpt>
      <trkpt lat="43.51421" lon="2.49413">
        <ele>622.411</ele>
        <time>2021-05-22T12:08:14Z</time>
      </trkpt>
      <trkpt lat="43.51421" lon="2.49413">
        <ele>621.911</ele>
        <time>2021-05-22T12:08:16Z</time>
      </trkpt>
      <trkpt lat="43.51421" lon="2.49413">
        <ele>621.902</ele>
        <time>2021-05-22T12:08:18Z</time>
      </trkpt>
      <trkpt lat="43.51421" lon="2.49413">
        <ele>621.668</ele>
        <time>2021-05-22T12:08:20Z</time>
      </trkpt>
      <trkpt lat="43.51421" lon="2.49413">
        <ele>621.663</ele>
        <time>2021-05-22T12:08:22Z</time>
      </trkpt>
      <trkpt lat="43.51421" lon="2.49413">
        <ele>621.659</ele>
        <time>2021-05-22T12:08:24Z</time>
      </trkpt>
      <trkpt lat="43.51421" lon="2.49413">
        <ele>621.661</ele>
        <time>2021-05-22T12:08:26Z</time>
      </trkpt>
      <trkpt lat="43.51421" lon="2.49413">
        <ele>621.653</ele>
        <time>2021-05-22T12:08:28Z</time>
      </trkpt>
      <trkpt lat="43.51421" lon="2.49413">
        <ele>621.652</ele>
        <time>2021-05-22T12:08:30Z</time>
      </trkpt>
      <trkpt lat="43.51421" lon="2.49413">
        <ele>621.651</ele>
        <time>2021-05-22T12:08:32Z</time>
      </trkpt>
      <trkpt lat="43.51421" lon="2.49413">
        <ele>621.641</ele>
        <time>2021-05-22T12:08:34Z</time>
      </trkpt>
      <trkpt lat="43.51421" lon="2.49413">
        <ele>621.635</ele>
        <time>2021-05-22T12:08:36Z</time>
      </trkpt>
      <trkpt lat="43.51421" lon="2.49413">
        <ele>621.625</ele>
        <time>2021-05-22T12:08:38Z</time>
      </trkpt>
      <trkpt lat="43.51421" lon="2.49413">
        <ele>621.623</ele>
        <time>2021-05-22T12:08:40Z</time>
      </trkpt>
      <trkpt lat="43.51421" lon="2.49413">
        <ele>621.615</ele>
        <time>2021-05-22T12:08:42Z</time>
      </trkpt>
      <trkpt lat="43.51421" lon="2.49413">
        <ele>621.611</ele>
        <time>2021-05-22T12:08:44Z</time>
      </trkpt>
      <trkpt lat="43.51421" lon="2.49413">
        <ele>621.605</ele>
        <time>2021-05-22T12:08:46Z</time>
      </trkpt>
      <trkpt lat="43.51421" lon="2.49413">
        <ele>621.599</ele>
        <time>2021-05-22T12:08:48Z</time>
      </trkpt>
      <trkpt lat="43.51421" lon="2.49413">
        <ele>621.593</ele>
        <time>2021-05-22T12:08:50Z</time>
      </trkpt>
      <trkpt lat="43.51421" lon="2.49413">
        <ele>621.589</ele>
        <time>2021-05-22T12:08:52Z</time>
      </trkpt>
      <trkpt lat="43.51421" lon="2.49413">
        <ele>621.588</ele>
        <time>2021-05-22T12:08:54Z</time>
      </trkpt>
      <trkpt lat="43.51421" lon="2.49413">
        <ele>621.589</ele>
        <time>2021-05-22T12:08:56Z</time>
      </trkpt>
      <trkpt lat="43.51421" lon="2.49413">
        <ele>621.589</ele>
        <time>2021-05-22T12:08:58Z</time>
      </trkpt>
      <trkpt lat="43.51421" lon="2.49413">
        <ele>621.589</ele>
        <time>2021-05-22T12:09:00Z</time>
      </trkpt>
      <trkpt lat="43.51421" lon="2.49413">
        <ele>621.59</ele>
        <time>2021-05-22T12:09:02Z</time>
      </trkpt>
      <trkpt lat="43.51421" lon="2.49413">
        <ele>621.593</ele>
        <time>2021-05-22T12:09:04Z</time>
      </trkpt>
      <trkpt lat="43.51421" lon="2.49413">
        <ele>621.598</ele>
        <time>2021-05-22T12:09:06Z</time>
      </trkpt>
      <trkpt lat="43.51421" lon="2.49413">
        <ele>621.605</ele>
        <time>2021-05-22T12:09:08Z</time>
      </trkpt>
      <trkpt lat="43.51421" lon="2.49413">
        <ele>621.608</ele>
        <time>2021-05-22T12:09:10Z</time>
      </trkpt>
      <trkpt lat="43.51421" lon="2.49413">
        <ele>621.605</ele>
        <time>2021-05-22T12:09:12Z</time>
      </trkpt>
      <trkpt lat="43.51421" lon="2.49413">
        <ele>621.608</ele>
        <time>2021-05-22T12:09:14Z</time>
      </trkpt>
      <trkpt lat="43.51421" lon="2.49413">
        <ele>621.613</ele>
        <time>2021-05-22T12:09:16Z</time>
      </trkpt>
      <trkpt lat="43.51421" lon="2.49413">
        <ele>621.613</ele>
        <time>2021-05-22T12:09:18Z</time>
      </trkpt>
      <trkpt lat="43.51421" lon="2.49413">
        <ele>621.615</ele>
        <time>2021-05-22T12:09:20Z</time>
      </trkpt>
      <trkpt lat="43.51421" lon="2.49413">
        <ele>621.614</ele>
        <time>2021-05-22T12:09:22Z</time>
      </trkpt>
      <trkpt lat="43.51421" lon="2.49413">
        <ele>621.614</ele>
        <time>2021-05-22T12:09:24Z</time>
      </trkpt>
      <trkpt lat="43.51421" lon="2.49413">
        <ele>621.617</ele>
        <time>2021-05-22T12:09:26Z</time>
      </trkpt>
      <trkpt lat="43.51421" lon="2.49413">
        <ele>621.616</ele>
        <time>2021-05-22T12:09:28Z</time>
      </trkpt>
      <trkpt lat="43.51421" lon="2.49413">
        <ele>621.616</ele>
        <time>2021-05-22T12:09:30Z</time>
      </trkpt>
      <trkpt lat="43.51421" lon="2.49413">
        <ele>621.616</ele>
        <time>2021-05-22T12:09:32Z</time>
      </trkpt>
      <trkpt lat="43.51421" lon="2.49413">
        <ele>621.612</ele>
        <time>2021-05-22T12:09:34Z</time>
      </trkpt>
      <trkpt lat="43.51421" lon="2.49413">
        <ele>621.617</ele>
        <time>2021-05-22T12:09:36Z</time>
      </trkpt>
      <trkpt lat="43.51421" lon="2.49413">
        <ele>621.623</ele>
        <time>2021-05-22T12:09:38Z</time>
      </trkpt>
      <trkpt lat="43.51421" lon="2.49413">
        <ele>621.636</ele>
        <time>2021-05-22T12:09:40Z</time>
      </trkpt>
      <trkpt lat="43.51421" lon="2.49413">
        <ele>621.645</ele>
        <time>2021-05-22T12:09:42Z</time>
      </trkpt>
      <trkpt lat="43.51421" lon="2.49413">
        <ele>621.651</ele>
        <time>2021-05-22T12:09:44Z</time>
      </trkpt>
      <trkpt lat="43.51421" lon="2.49413">
        <ele>621.662</ele>
        <time>2021-05-22T12:09:46Z</time>
      </trkpt>
      <trkpt lat="43.51421" lon="2.49413">
        <ele>621.677</ele>
        <time>2021-05-22T12:09:48Z</time>
      </trkpt>
      <trkpt lat="43.51421" lon="2.49413">
        <ele>621.683</ele>
        <time>2021-05-22T12:09:50Z</time>
      </trkpt>
      <trkpt lat="43.51421" lon="2.49413">
        <ele>621.693</ele>
        <time>2021-05-22T12:09:52Z</time>
      </trkpt>
      <trkpt lat="43.51421" lon="2.49413">
        <ele>621.699</ele>
        <time>2021-05-22T12:09:54Z</time>
      </trkpt>
      <trkpt lat="43.51421" lon="2.49413">
        <ele>621.702</ele>
        <time>2021-05-22T12:09:56Z</time>
      </trkpt>
      <trkpt lat="43.51421" lon="2.49413">
        <ele>621.704</ele>
        <time>2021-05-22T12:09:58Z</time>
      </trkpt>
      <trkpt lat="43.51421" lon="2.49413">
        <ele>621.707</ele>
        <time>2021-05-22T12:10:00Z</time>
      </trkpt>
      <trkpt lat="43.51421" lon="2.49413">
        <ele>621.711</ele>
        <time>2021-05-22T12:10:02Z</time>
      </trkpt>
      <trkpt lat="43.51421" lon="2.49413">
        <ele>621.719</ele>
        <time>2021-05-22T12:10:04Z</time>
      </trkpt>
      <trkpt lat="43.51421" lon="2.49413">
        <ele>621.718</ele>
        <time>2021-05-22T12:10:06Z</time>
      </trkpt>
      <trkpt lat="43.51421" lon="2.49413">
        <ele>621.72</ele>
        <time>2021-05-22T12:10:08Z</time>
      </trkpt>
      <trkpt lat="43.51421" lon="2.49413">
        <ele>621.72</ele>
        <time>2021-05-22T12:10:10Z</time>
      </trkpt>
      <trkpt lat="43.51421" lon="2.49413">
        <ele>621.723</ele>
        <time>2021-05-22T12:10:12Z</time>
      </trkpt>
      <trkpt lat="43.51421" lon="2.49413">
        <ele>621.725</ele>
        <time>2021-05-22T12:10:14Z</time>
      </trkpt>
      <trkpt lat="43.51421" lon="2.49413">
        <ele>621.725</ele>
        <time>2021-05-22T12:10:16Z</time>
      </trkpt>
      <trkpt lat="43.51421" lon="2.49413">
        <ele>621.719</ele>
        <time>2021-05-22T12:10:18Z</time>
      </trkpt>
      <trkpt lat="43.51421" lon="2.49413">
        <ele>621.721</ele>
        <time>2021-05-22T12:10:20Z</time>
      </trkpt>
      <trkpt lat="43.51421" lon="2.49413">
        <ele>621.719</ele>
        <time>2021-05-22T12:10:22Z</time>
      </trkpt>
      <trkpt lat="43.51421" lon="2.49413">
        <ele>621.721</ele>
        <time>2021-05-22T12:10:24Z</time>
      </trkpt>
      <trkpt lat="43.51421" lon="2.49413">
        <ele>621.718</ele>
        <time>2021-05-22T12:10:26Z</time>
      </trkpt>
      <trkpt lat="43.51421" lon="2.49413">
        <ele>621.723</ele>
        <time>2021-05-22T12:10:28Z</time>
      </trkpt>
      <trkpt lat="43.51421" lon="2.49413">
        <ele>621.718</ele>
        <time>2021-05-22T12:10:30Z</time>
      </trkpt>
      <trkpt lat="43.51421" lon="2.49413">
        <ele>621.718</ele>
        <time>2021-05-22T12:10:32Z</time>
      </trkpt>
      <trkpt lat="43.51421" lon="2.49413">
        <ele>621.725</ele>
        <time>2021-05-22T12:10:34Z</time>
      </trkpt>
      <trkpt lat="43.51421" lon="2.49413">
        <ele>621.721</ele>
        <time>2021-05-22T12:10:36Z</time>
      </trkpt>
      <trkpt lat="43.51421" lon="2.49413">
        <ele>621.712</ele>
        <time>2021-05-22T12:10:38Z</time>
      </trkpt>
      <trkpt lat="43.51421" lon="2.49413">
        <ele>621.711</ele>
        <time>2021-05-22T12:10:40Z</time>
      </trkpt>
      <trkpt lat="43.51421" lon="2.49413">
        <ele>621.707</ele>
        <time>2021-05-22T12:10:42Z</time>
      </trkpt>
      <trkpt lat="43.51421" lon="2.49413">
        <ele>621.701</ele>
        <time>2021-05-22T12:10:44Z</time>
      </trkpt>
      <trkpt lat="43.51421" lon="2.49413">
        <ele>621.697</ele>
        <time>2021-05-22T12:10:46Z</time>
      </trkpt>
      <trkpt lat="43.51421" lon="2.49413">
        <ele>621.688</ele>
        <time>2021-05-22T12:10:48Z</time>
      </trkpt>
      <trkpt lat="43.51421" lon="2.49413">
        <ele>621.685</ele>
        <time>2021-05-22T12:10:50Z</time>
      </trkpt>
      <trkpt lat="43.51421" lon="2.49413">
        <ele>621.686</ele>
        <time>2021-05-22T12:10:52Z</time>
      </trkpt>
      <trkpt lat="43.51421" lon="2.49413">
        <ele>621.695</ele>
        <time>2021-05-22T12:10:54Z</time>
      </trkpt>
      <trkpt lat="43.5142" lon="2.4941">
        <ele>621.786</ele>
        <time>2021-05-22T12:10:56Z</time>
      </trkpt>
      <trkpt lat="43.51422" lon="2.49409">
        <ele>623.261</ele>
        <time>2021-05-22T12:10:58Z</time>
      </trkpt>
      <trkpt lat="43.51424" lon="2.49409">
        <ele>624.93</ele>
        <time>2021-05-22T12:11:00Z</time>
      </trkpt>
      <trkpt lat="43.51424" lon="2.4941">
        <ele>624.781</ele>
        <time>2021-05-22T12:11:02Z</time>
      </trkpt>
      <trkpt lat="43.51424" lon="2.4941">
        <ele>624.782</ele>
        <time>2021-05-22T12:11:04Z</time>
      </trkpt>
      <trkpt lat="43.51424" lon="2.4941">
        <ele>624.461</ele>
        <time>2021-05-22T12:11:06Z</time>
      </trkpt>
      <trkpt lat="43.51424" lon="2.49411">
        <ele>623.589</ele>
        <time>2021-05-22T12:11:08Z</time>
      </trkpt>
      <trkpt lat="43.51426" lon="2.49413">
        <ele>624.258</ele>
        <time>2021-05-22T12:11:10Z</time>
      </trkpt>
      <trkpt lat="43.51428" lon="2.49418">
        <ele>625.031</ele>
        <time>2021-05-22T12:11:12Z</time>
      </trkpt>
      <trkpt lat="43.51422" lon="2.49419">
        <ele>624.73</ele>
        <time>2021-05-22T12:11:14Z</time>
      </trkpt>
      <trkpt lat="43.51421" lon="2.49415">
        <ele>625.414</ele>
        <time>2021-05-22T12:11:16Z</time>
      </trkpt>
      <trkpt lat="43.51421" lon="2.49413">
        <ele>625.047</ele>
        <time>2021-05-22T12:11:18Z</time>
      </trkpt>
      <trkpt lat="43.51421" lon="2.49412">
        <ele>625.034</ele>
        <time>2021-05-22T12:11:20Z</time>
      </trkpt>
      <trkpt lat="43.51421" lon="2.49412">
        <ele>625.044</ele>
        <time>2021-05-22T12:11:22Z</time>
      </trkpt>
      <trkpt lat="43.51421" lon="2.49413">
        <ele>624.468</ele>
        <time>2021-05-22T12:11:24Z</time>
      </trkpt>
      <trkpt lat="43.51422" lon="2.49412">
        <ele>622.774</ele>
        <time>2021-05-22T12:11:26Z</time>
      </trkpt>
      <trkpt lat="43.51419" lon="2.4941">
        <ele>617.691</ele>
        <time>2021-05-22T12:11:28Z</time>
      </trkpt>
      <trkpt lat="43.51418" lon="2.49411">
        <ele>617.283</ele>
        <time>2021-05-22T12:11:30Z</time>
      </trkpt>
      <trkpt lat="43.51418" lon="2.49411">
        <ele>617.247</ele>
        <time>2021-05-22T12:11:32Z</time>
      </trkpt>
      <trkpt lat="43.51418" lon="2.49412">
        <ele>616.691</ele>
        <time>2021-05-22T12:11:34Z</time>
      </trkpt>
      <trkpt lat="43.51418" lon="2.49411">
        <ele>616.521</ele>
        <time>2021-05-22T12:11:36Z</time>
      </trkpt>
      <trkpt lat="43.51417" lon="2.49411">
        <ele>615.707</ele>
        <time>2021-05-22T12:11:38Z</time>
      </trkpt>
      <trkpt lat="43.51417" lon="2.49411">
        <ele>616.251</ele>
        <time>2021-05-22T12:11:40Z</time>
      </trkpt>
      <trkpt lat="43.51417" lon="2.49411">
        <ele>616.259</ele>
        <time>2021-05-22T12:11:42Z</time>
      </trkpt>
      <trkpt lat="43.51417" lon="2.49411">
        <ele>616.266</ele>
        <time>2021-05-22T12:11:44Z</time>
      </trkpt>
      <trkpt lat="43.51417" lon="2.49411">
        <ele>616.273</ele>
        <time>2021-05-22T12:11:46Z</time>
      </trkpt>
      <trkpt lat="43.51417" lon="2.49411">
        <ele>616.276</ele>
        <time>2021-05-22T12:11:48Z</time>
      </trkpt>
      <trkpt lat="43.51417" lon="2.49411">
        <ele>616.285</ele>
        <time>2021-05-22T12:11:50Z</time>
      </trkpt>
      <trkpt lat="43.51418" lon="2.49411">
        <ele>616.447</ele>
        <time>2021-05-22T12:11:52Z</time>
      </trkpt>
      <trkpt lat="43.51418" lon="2.49411">
        <ele>616.457</ele>
        <time>2021-05-22T12:11:54Z</time>
      </trkpt>
      <trkpt lat="43.51418" lon="2.49411">
        <ele>616.487</ele>
        <time>2021-05-22T12:11:56Z</time>
      </trkpt>
      <trkpt lat="43.51418" lon="2.49411">
        <ele>616.493</ele>
        <time>2021-05-22T12:11:58Z</time>
      </trkpt>
      <trkpt lat="43.51418" lon="2.49411">
        <ele>616.513</ele>
        <time>2021-05-22T12:12:00Z</time>
      </trkpt>
      <trkpt lat="43.51418" lon="2.49411">
        <ele>616.519</ele>
        <time>2021-05-22T12:12:02Z</time>
      </trkpt>
      <trkpt lat="43.51418" lon="2.49411">
        <ele>616.521</ele>
        <time>2021-05-22T12:12:04Z</time>
      </trkpt>
      <trkpt lat="43.51418" lon="2.49411">
        <ele>616.526</ele>
        <time>2021-05-22T12:12:06Z</time>
      </trkpt>
      <trkpt lat="43.51418" lon="2.49411">
        <ele>616.536</ele>
        <time>2021-05-22T12:12:08Z</time>
      </trkpt>
      <trkpt lat="43.51418" lon="2.49411">
        <ele>616.542</ele>
        <time>2021-05-22T12:12:10Z</time>
      </trkpt>
      <trkpt lat="43.51418" lon="2.49411">
        <ele>616.557</ele>
        <time>2021-05-22T12:12:12Z</time>
      </trkpt>
      <trkpt lat="43.51418" lon="2.49411">
        <ele>616.573</ele>
        <time>2021-05-22T12:12:14Z</time>
      </trkpt>
      <trkpt lat="43.51418" lon="2.49411">
        <ele>616.581</ele>
        <time>2021-05-22T12:12:16Z</time>
      </trkpt>
      <trkpt lat="43.51418" lon="2.49411">
        <ele>616.593</ele>
        <time>2021-05-22T12:12:18Z</time>
      </trkpt>
      <trkpt lat="43.51418" lon="2.49411">
        <ele>616.604</ele>
        <time>2021-05-22T12:12:20Z</time>
      </trkpt>
      <trkpt lat="43.51418" lon="2.49411">
        <ele>616.616</ele>
        <time>2021-05-22T12:12:22Z</time>
      </trkpt>
      <trkpt lat="43.51418" lon="2.49411">
        <ele>616.633</ele>
        <time>2021-05-22T12:12:24Z</time>
      </trkpt>
      <trkpt lat="43.51418" lon="2.49411">
        <ele>616.646</ele>
        <time>2021-05-22T12:12:26Z</time>
      </trkpt>
      <trkpt lat="43.51418" lon="2.49411">
        <ele>616.654</ele>
        <time>2021-05-22T12:12:28Z</time>
      </trkpt>
      <trkpt lat="43.51418" lon="2.49411">
        <ele>616.665</ele>
        <time>2021-05-22T12:12:30Z</time>
      </trkpt>
      <trkpt lat="43.51418" lon="2.49411">
        <ele>616.685</ele>
        <time>2021-05-22T12:12:32Z</time>
      </trkpt>
      <trkpt lat="43.51418" lon="2.49411">
        <ele>616.685</ele>
        <time>2021-05-22T12:12:34Z</time>
      </trkpt>
      <trkpt lat="43.51418" lon="2.49411">
        <ele>616.687</ele>
        <time>2021-05-22T12:12:36Z</time>
      </trkpt>
      <trkpt lat="43.51418" lon="2.49411">
        <ele>616.692</ele>
        <time>2021-05-22T12:12:38Z</time>
      </trkpt>
      <trkpt lat="43.51418" lon="2.49411">
        <ele>616.711</ele>
        <time>2021-05-22T12:12:40Z</time>
      </trkpt>
      <trkpt lat="43.51418" lon="2.49411">
        <ele>616.728</ele>
        <time>2021-05-22T12:12:42Z</time>
      </trkpt>
      <trkpt lat="43.51418" lon="2.49411">
        <ele>616.762</ele>
        <time>2021-05-22T12:12:44Z</time>
      </trkpt>
      <trkpt lat="43.51418" lon="2.49412">
        <ele>616.785</ele>
        <time>2021-05-22T12:12:46Z</time>
      </trkpt>
      <trkpt lat="43.51418" lon="2.49412">
        <ele>616.798</ele>
        <time>2021-05-22T12:12:48Z</time>
      </trkpt>
      <trkpt lat="43.51418" lon="2.49412">
        <ele>616.809</ele>
        <time>2021-05-22T12:12:50Z</time>
      </trkpt>
      <trkpt lat="43.51418" lon="2.49412">
        <ele>616.82</ele>
        <time>2021-05-22T12:12:52Z</time>
      </trkpt>
      <trkpt lat="43.51418" lon="2.49412">
        <ele>616.83</ele>
        <time>2021-05-22T12:12:54Z</time>
      </trkpt>
      <trkpt lat="43.51418" lon="2.49412">
        <ele>616.837</ele>
        <time>2021-05-22T12:12:56Z</time>
      </trkpt>
      <trkpt lat="43.51418" lon="2.49412">
        <ele>616.851</ele>
        <time>2021-05-22T12:12:58Z</time>
      </trkpt>
      <trkpt lat="43.51418" lon="2.49412">
        <ele>616.87</ele>
        <time>2021-05-22T12:13:00Z</time>
      </trkpt>
      <trkpt lat="43.51418" lon="2.49412">
        <ele>616.881</ele>
        <time>2021-05-22T12:13:02Z</time>
      </trkpt>
      <trkpt lat="43.51418" lon="2.49412">
        <ele>616.897</ele>
        <time>2021-05-22T12:13:04Z</time>
      </trkpt>
      <trkpt lat="43.51418" lon="2.49412">
        <ele>616.905</ele>
        <time>2021-05-22T12:13:06Z</time>
      </trkpt>
      <trkpt lat="43.51418" lon="2.49412">
        <ele>616.919</ele>
        <time>2021-05-22T12:13:08Z</time>
      </trkpt>
      <trkpt lat="43.51418" lon="2.49412">
        <ele>616.935</ele>
        <time>2021-05-22T12:13:10Z</time>
      </trkpt>
      <trkpt lat="43.51418" lon="2.49412">
        <ele>616.948</ele>
        <time>2021-05-22T12:13:12Z</time>
      </trkpt>
      <trkpt lat="43.51418" lon="2.49412">
        <ele>616.968</ele>
        <time>2021-05-22T12:13:14Z</time>
      </trkpt>
      <trkpt lat="43.51418" lon="2.49412">
        <ele>616.966</ele>
        <time>2021-05-22T12:13:16Z</time>
      </trkpt>
      <trkpt lat="43.51418" lon="2.49412">
        <ele>616.972</ele>
        <time>2021-05-22T12:13:18Z</time>
      </trkpt>
      <trkpt lat="43.51418" lon="2.49412">
        <ele>616.974</ele>
        <time>2021-05-22T12:13:20Z</time>
      </trkpt>
      <trkpt lat="43.51418" lon="2.49412">
        <ele>616.978</ele>
        <time>2021-05-22T12:13:22Z</time>
      </trkpt>
      <trkpt lat="43.51418" lon="2.49412">
        <ele>616.981</ele>
        <time>2021-05-22T12:13:24Z</time>
      </trkpt>
      <trkpt lat="43.51418" lon="2.49412">
        <ele>616.984</ele>
        <time>2021-05-22T12:13:26Z</time>
      </trkpt>
      <trkpt lat="43.51418" lon="2.49412">
        <ele>616.99</ele>
        <time>2021-05-22T12:13:28Z</time>
      </trkpt>
      <trkpt lat="43.51418" lon="2.49412">
        <ele>616.998</ele>
        <time>2021-05-22T12:13:30Z</time>
      </trkpt>
      <trkpt lat="43.51418" lon="2.49412">
        <ele>617.006</ele>
        <time>2021-05-22T12:13:32Z</time>
      </trkpt>
      <trkpt lat="43.51418" lon="2.49412">
        <ele>617.019</ele>
        <time>2021-05-22T12:13:34Z</time>
      </trkpt>
      <trkpt lat="43.51418" lon="2.49412">
        <ele>617.028</ele>
        <time>2021-05-22T12:13:36Z</time>
      </trkpt>
      <trkpt lat="43.51418" lon="2.49412">
        <ele>617.04</ele>
        <time>2021-05-22T12:13:38Z</time>
      </trkpt>
      <trkpt lat="43.51418" lon="2.49412">
        <ele>617.059</ele>
        <time>2021-05-22T12:13:40Z</time>
      </trkpt>
      <trkpt lat="43.51418" lon="2.49412">
        <ele>617.061</ele>
        <time>2021-05-22T12:13:42Z</time>
      </trkpt>
      <trkpt lat="43.51418" lon="2.49412">
        <ele>617.053</ele>
        <time>2021-05-22T12:13:44Z</time>
      </trkpt>
      <trkpt lat="43.51418" lon="2.49412">
        <ele>617.05</ele>
        <time>2021-05-22T12:13:46Z</time>
      </trkpt>
      <trkpt lat="43.51418" lon="2.49412">
        <ele>617.051</ele>
        <time>2021-05-22T12:13:48Z</time>
      </trkpt>
      <trkpt lat="43.51418" lon="2.49412">
        <ele>617.052</ele>
        <time>2021-05-22T12:13:50Z</time>
      </trkpt>
      <trkpt lat="43.51418" lon="2.49412">
        <ele>617.065</ele>
        <time>2021-05-22T12:13:52Z</time>
      </trkpt>
      <trkpt lat="43.51418" lon="2.49412">
        <ele>617.082</ele>
        <time>2021-05-22T12:13:54Z</time>
      </trkpt>
      <trkpt lat="43.51418" lon="2.49412">
        <ele>617.104</ele>
        <time>2021-05-22T12:13:56Z</time>
      </trkpt>
      <trkpt lat="43.51418" lon="2.49412">
        <ele>617.119</ele>
        <time>2021-05-22T12:13:58Z</time>
      </trkpt>
      <trkpt lat="43.51418" lon="2.49412">
        <ele>617.14</ele>
        <time>2021-05-22T12:14:00Z</time>
      </trkpt>
      <trkpt lat="43.51418" lon="2.49412">
        <ele>617.163</ele>
        <time>2021-05-22T12:14:02Z</time>
      </trkpt>
      <trkpt lat="43.51418" lon="2.49412">
        <ele>617.183</ele>
        <time>2021-05-22T12:14:04Z</time>
      </trkpt>
      <trkpt lat="43.51418" lon="2.49412">
        <ele>617.197</ele>
        <time>2021-05-22T12:14:06Z</time>
      </trkpt>
      <trkpt lat="43.51418" lon="2.49412">
        <ele>617.212</ele>
        <time>2021-05-22T12:14:08Z</time>
      </trkpt>
      <trkpt lat="43.51418" lon="2.49412">
        <ele>617.223</ele>
        <time>2021-05-22T12:14:10Z</time>
      </trkpt>
      <trkpt lat="43.51418" lon="2.49412">
        <ele>617.226</ele>
        <time>2021-05-22T12:14:12Z</time>
      </trkpt>
      <trkpt lat="43.51418" lon="2.49412">
        <ele>617.23</ele>
        <time>2021-05-22T12:14:14Z</time>
      </trkpt>
      <trkpt lat="43.51418" lon="2.49412">
        <ele>617.23</ele>
        <time>2021-05-22T12:14:16Z</time>
      </trkpt>
      <trkpt lat="43.51418" lon="2.49412">
        <ele>617.236</ele>
        <time>2021-05-22T12:14:18Z</time>
      </trkpt>
      <trkpt lat="43.51418" lon="2.49412">
        <ele>617.24</ele>
        <time>2021-05-22T12:14:20Z</time>
      </trkpt>
      <trkpt lat="43.51418" lon="2.49412">
        <ele>617.241</ele>
        <time>2021-05-22T12:14:22Z</time>
      </trkpt>
      <trkpt lat="43.51418" lon="2.49412">
        <ele>617.243</ele>
        <time>2021-05-22T12:14:24Z</time>
      </trkpt>
      <trkpt lat="43.51418" lon="2.49412">
        <ele>617.247</ele>
        <time>2021-05-22T12:14:26Z</time>
      </trkpt>
      <trkpt lat="43.51418" lon="2.49412">
        <ele>617.255</ele>
        <time>2021-05-22T12:14:28Z</time>
      </trkpt>
      <trkpt lat="43.51418" lon="2.49412">
        <ele>617.256</ele>
        <time>2021-05-22T12:14:30Z</time>
      </trkpt>
      <trkpt lat="43.51418" lon="2.49412">
        <ele>617.254</ele>
        <time>2021-05-22T12:14:32Z</time>
      </trkpt>
      <trkpt lat="43.51418" lon="2.49412">
        <ele>617.262</ele>
        <time>2021-05-22T12:14:34Z</time>
      </trkpt>
      <trkpt lat="43.51418" lon="2.49412">
        <ele>617.273</ele>
        <time>2021-05-22T12:14:36Z</time>
      </trkpt>
      <trkpt lat="43.51418" lon="2.49412">
        <ele>617.273</ele>
        <time>2021-05-22T12:14:38Z</time>
      </trkpt>
      <trkpt lat="43.51418" lon="2.49412">
        <ele>617.28</ele>
        <time>2021-05-22T12:14:40Z</time>
      </trkpt>
      <trkpt lat="43.51418" lon="2.49412">
        <ele>617.29</ele>
        <time>2021-05-22T12:14:42Z</time>
      </trkpt>
      <trkpt lat="43.51418" lon="2.49412">
        <ele>617.308</ele>
        <time>2021-05-22T12:14:44Z</time>
      </trkpt>
      <trkpt lat="43.51418" lon="2.49412">
        <ele>617.314</ele>
        <time>2021-05-22T12:14:46Z</time>
      </trkpt>
      <trkpt lat="43.51418" lon="2.49412">
        <ele>617.318</ele>
        <time>2021-05-22T12:14:48Z</time>
      </trkpt>
      <trkpt lat="43.51418" lon="2.49412">
        <ele>617.324</ele>
        <time>2021-05-22T12:14:50Z</time>
      </trkpt>
      <trkpt lat="43.51418" lon="2.49412">
        <ele>617.336</ele>
        <time>2021-05-22T12:14:52Z</time>
      </trkpt>
      <trkpt lat="43.51418" lon="2.49412">
        <ele>617.344</ele>
        <time>2021-05-22T12:14:54Z</time>
      </trkpt>
      <trkpt lat="43.51418" lon="2.49412">
        <ele>617.355</ele>
        <time>2021-05-22T12:14:56Z</time>
      </trkpt>
      <trkpt lat="43.51418" lon="2.49412">
        <ele>617.369</ele>
        <time>2021-05-22T12:14:58Z</time>
      </trkpt>
      <trkpt lat="43.51418" lon="2.49412">
        <ele>617.386</ele>
        <time>2021-05-22T12:15:00Z</time>
      </trkpt>
      <trkpt lat="43.51418" lon="2.49412">
        <ele>617.408</ele>
        <time>2021-05-22T12:15:02Z</time>
      </trkpt>
      <trkpt lat="43.51418" lon="2.49412">
        <ele>617.432</ele>
        <time>2021-05-22T12:15:04Z</time>
      </trkpt>
      <trkpt lat="43.51418" lon="2.49412">
        <ele>617.452</ele>
        <time>2021-05-22T12:15:06Z</time>
      </trkpt>
      <trkpt lat="43.51418" lon="2.49412">
        <ele>617.474</ele>
        <time>2021-05-22T12:15:08Z</time>
      </trkpt>
      <trkpt lat="43.51418" lon="2.49412">
        <ele>617.481</ele>
        <time>2021-05-22T12:15:10Z</time>
      </trkpt>
      <trkpt lat="43.51418" lon="2.49412">
        <ele>617.494</ele>
        <time>2021-05-22T12:15:12Z</time>
      </trkpt>
      <trkpt lat="43.51418" lon="2.49412">
        <ele>617.507</ele>
        <time>2021-05-22T12:15:14Z</time>
      </trkpt>
      <trkpt lat="43.51418" lon="2.49412">
        <ele>617.512</ele>
        <time>2021-05-22T12:15:16Z</time>
      </trkpt>
      <trkpt lat="43.51418" lon="2.49412">
        <ele>617.517</ele>
        <time>2021-05-22T12:15:18Z</time>
      </trkpt>
      <trkpt lat="43.51418" lon="2.49412">
        <ele>617.515</ele>
        <time>2021-05-22T12:15:20Z</time>
      </trkpt>
      <trkpt lat="43.51418" lon="2.49412">
        <ele>617.517</ele>
        <time>2021-05-22T12:15:22Z</time>
      </trkpt>
      <trkpt lat="43.51418" lon="2.49412">
        <ele>617.515</ele>
        <time>2021-05-22T12:15:24Z</time>
      </trkpt>
      <trkpt lat="43.51418" lon="2.49412">
        <ele>617.519</ele>
        <time>2021-05-22T12:15:26Z</time>
      </trkpt>
      <trkpt lat="43.51418" lon="2.49412">
        <ele>617.518</ele>
        <time>2021-05-22T12:15:28Z</time>
      </trkpt>
      <trkpt lat="43.51418" lon="2.49412">
        <ele>617.517</ele>
        <time>2021-05-22T12:15:30Z</time>
      </trkpt>
      <trkpt lat="43.51418" lon="2.49412">
        <ele>617.514</ele>
        <time>2021-05-22T12:15:32Z</time>
      </trkpt>
      <trkpt lat="43.51418" lon="2.49412">
        <ele>617.509</ele>
        <time>2021-05-22T12:15:34Z</time>
      </trkpt>
      <trkpt lat="43.51418" lon="2.49412">
        <ele>617.51</ele>
        <time>2021-05-22T12:15:36Z</time>
      </trkpt>
      <trkpt lat="43.51418" lon="2.49412">
        <ele>617.525</ele>
        <time>2021-05-22T12:15:38Z</time>
      </trkpt>
      <trkpt lat="43.51418" lon="2.49412">
        <ele>617.536</ele>
        <time>2021-05-22T12:15:40Z</time>
      </trkpt>
      <trkpt lat="43.51418" lon="2.49412">
        <ele>617.558</ele>
        <time>2021-05-22T12:15:42Z</time>
      </trkpt>
      <trkpt lat="43.51419" lon="2.49412">
        <ele>617.674</ele>
        <time>2021-05-22T12:15:44Z</time>
      </trkpt>
      <trkpt lat="43.51419" lon="2.49412">
        <ele>617.686</ele>
        <time>2021-05-22T12:15:46Z</time>
      </trkpt>
      <trkpt lat="43.51419" lon="2.49412">
        <ele>617.688</ele>
        <time>2021-05-22T12:15:48Z</time>
      </trkpt>
      <trkpt lat="43.51419" lon="2.49412">
        <ele>617.696</ele>
        <time>2021-05-22T12:15:50Z</time>
      </trkpt>
      <trkpt lat="43.51419" lon="2.49412">
        <ele>617.703</ele>
        <time>2021-05-22T12:15:52Z</time>
      </trkpt>
      <trkpt lat="43.51419" lon="2.49412">
        <ele>617.705</ele>
        <time>2021-05-22T12:15:54Z</time>
      </trkpt>
      <trkpt lat="43.51419" lon="2.49412">
        <ele>617.709</ele>
        <time>2021-05-22T12:15:56Z</time>
      </trkpt>
      <trkpt lat="43.51419" lon="2.49412">
        <ele>617.725</ele>
        <time>2021-05-22T12:15:58Z</time>
      </trkpt>
      <trkpt lat="43.51419" lon="2.49412">
        <ele>617.729</ele>
        <time>2021-05-22T12:16:00Z</time>
      </trkpt>
      <trkpt lat="43.51419" lon="2.49412">
        <ele>617.739</ele>
        <time>2021-05-22T12:16:02Z</time>
      </trkpt>
      <trkpt lat="43.51419" lon="2.49412">
        <ele>617.743</ele>
        <time>2021-05-22T12:16:04Z</time>
      </trkpt>
      <trkpt lat="43.51419" lon="2.49412">
        <ele>617.752</ele>
        <time>2021-05-22T12:16:06Z</time>
      </trkpt>
      <trkpt lat="43.51419" lon="2.49412">
        <ele>617.756</ele>
        <time>2021-05-22T12:16:08Z</time>
      </trkpt>
      <trkpt lat="43.51419" lon="2.49412">
        <ele>617.769</ele>
        <time>2021-05-22T12:16:10Z</time>
      </trkpt>
      <trkpt lat="43.51419" lon="2.49412">
        <ele>617.783</ele>
        <time>2021-05-22T12:16:12Z</time>
      </trkpt>
      <trkpt lat="43.51419" lon="2.49412">
        <ele>617.794</ele>
        <time>2021-05-22T12:16:14Z</time>
      </trkpt>
      <trkpt lat="43.51419" lon="2.49412">
        <ele>617.816</ele>
        <time>2021-05-22T12:16:16Z</time>
      </trkpt>
      <trkpt lat="43.51419" lon="2.49412">
        <ele>617.83</ele>
        <time>2021-05-22T12:16:18Z</time>
      </trkpt>
      <trkpt lat="43.51419" lon="2.49413">
        <ele>617.845</ele>
        <time>2021-05-22T12:16:20Z</time>
      </trkpt>
      <trkpt lat="43.51419" lon="2.49413">
        <ele>617.853</ele>
        <time>2021-05-22T12:16:22Z</time>
      </trkpt>
      <trkpt lat="43.51419" lon="2.49413">
        <ele>617.859</ele>
        <time>2021-05-22T12:16:24Z</time>
      </trkpt>
      <trkpt lat="43.51419" lon="2.49413">
        <ele>617.862</ele>
        <time>2021-05-22T12:16:26Z</time>
      </trkpt>
      <trkpt lat="43.51419" lon="2.49413">
        <ele>617.874</ele>
        <time>2021-05-22T12:16:28Z</time>
      </trkpt>
      <trkpt lat="43.51419" lon="2.49413">
        <ele>617.889</ele>
        <time>2021-05-22T12:16:30Z</time>
      </trkpt>
      <trkpt lat="43.51419" lon="2.49413">
        <ele>617.909</ele>
        <time>2021-05-22T12:16:32Z</time>
      </trkpt>
      <trkpt lat="43.51419" lon="2.49413">
        <ele>617.921</ele>
        <time>2021-05-22T12:16:34Z</time>
      </trkpt>
      <trkpt lat="43.51419" lon="2.49413">
        <ele>617.935</ele>
        <time>2021-05-22T12:16:36Z</time>
      </trkpt>
      <trkpt lat="43.51419" lon="2.49413">
        <ele>617.952</ele>
        <time>2021-05-22T12:16:38Z</time>
      </trkpt>
      <trkpt lat="43.51419" lon="2.49413">
        <ele>617.96</ele>
        <time>2021-05-22T12:16:40Z</time>
      </trkpt>
      <trkpt lat="43.51419" lon="2.49413">
        <ele>617.974</ele>
        <time>2021-05-22T12:16:42Z</time>
      </trkpt>
      <trkpt lat="43.51419" lon="2.49413">
        <ele>617.983</ele>
        <time>2021-05-22T12:16:44Z</time>
      </trkpt>
      <trkpt lat="43.51419" lon="2.49413">
        <ele>618</ele>
        <time>2021-05-22T12:16:46Z</time>
      </trkpt>
      <trkpt lat="43.51419" lon="2.49413">
        <ele>618.013</ele>
        <time>2021-05-22T12:16:48Z</time>
      </trkpt>
      <trkpt lat="43.51419" lon="2.49413">
        <ele>618.026</ele>
        <time>2021-05-22T12:16:50Z</time>
      </trkpt>
      <trkpt lat="43.51419" lon="2.49413">
        <ele>618.031</ele>
        <time>2021-05-22T12:16:52Z</time>
      </trkpt>
      <trkpt lat="43.51419" lon="2.49413">
        <ele>618.035</ele>
        <time>2021-05-22T12:16:54Z</time>
      </trkpt>
      <trkpt lat="43.51419" lon="2.49413">
        <ele>618.044</ele>
        <time>2021-05-22T12:16:56Z</time>
      </trkpt>
      <trkpt lat="43.51419" lon="2.49413">
        <ele>618.065</ele>
        <time>2021-05-22T12:16:58Z</time>
      </trkpt>
      <trkpt lat="43.51419" lon="2.49413">
        <ele>618.091</ele>
        <time>2021-05-22T12:17:00Z</time>
      </trkpt>
      <trkpt lat="43.51419" lon="2.49413">
        <ele>618.109</ele>
        <time>2021-05-22T12:17:02Z</time>
      </trkpt>
      <trkpt lat="43.51419" lon="2.49413">
        <ele>618.129</ele>
        <time>2021-05-22T12:17:04Z</time>
      </trkpt>
      <trkpt lat="43.51419" lon="2.49413">
        <ele>618.154</ele>
        <time>2021-05-22T12:17:06Z</time>
      </trkpt>
      <trkpt lat="43.51419" lon="2.49413">
        <ele>618.175</ele>
        <time>2021-05-22T12:17:08Z</time>
      </trkpt>
      <trkpt lat="43.51419" lon="2.49413">
        <ele>618.196</ele>
        <time>2021-05-22T12:17:10Z</time>
      </trkpt>
      <trkpt lat="43.51419" lon="2.49413">
        <ele>618.207</ele>
        <time>2021-05-22T12:17:12Z</time>
      </trkpt>
      <trkpt lat="43.51419" lon="2.49413">
        <ele>618.233</ele>
        <time>2021-05-22T12:17:14Z</time>
      </trkpt>
      <trkpt lat="43.51419" lon="2.49413">
        <ele>618.251</ele>
        <time>2021-05-22T12:17:16Z</time>
      </trkpt>
      <trkpt lat="43.51419" lon="2.49413">
        <ele>618.28</ele>
        <time>2021-05-22T12:17:18Z</time>
      </trkpt>
      <trkpt lat="43.51419" lon="2.49413">
        <ele>618.304</ele>
        <time>2021-05-22T12:17:20Z</time>
      </trkpt>
      <trkpt lat="43.51419" lon="2.49413">
        <ele>618.327</ele>
        <time>2021-05-22T12:17:22Z</time>
      </trkpt>
      <trkpt lat="43.51419" lon="2.49413">
        <ele>618.337</ele>
        <time>2021-05-22T12:17:24Z</time>
      </trkpt>
      <trkpt lat="43.51419" lon="2.49413">
        <ele>618.358</ele>
        <time>2021-05-22T12:17:26Z</time>
      </trkpt>
      <trkpt lat="43.51419" lon="2.49413">
        <ele>618.376</ele>
        <time>2021-05-22T12:17:28Z</time>
      </trkpt>
      <trkpt lat="43.51419" lon="2.49413">
        <ele>618.392</ele>
        <time>2021-05-22T12:17:30Z</time>
      </trkpt>
      <trkpt lat="43.51419" lon="2.49413">
        <ele>618.408</ele>
        <time>2021-05-22T12:17:32Z</time>
      </trkpt>
      <trkpt lat="43.51419" lon="2.49413">
        <ele>618.424</ele>
        <time>2021-05-22T12:17:34Z</time>
      </trkpt>
      <trkpt lat="43.51419" lon="2.49413">
        <ele>618.435</ele>
        <time>2021-05-22T12:17:36Z</time>
      </trkpt>
      <trkpt lat="43.51419" lon="2.49413">
        <ele>618.44</ele>
        <time>2021-05-22T12:17:38Z</time>
      </trkpt>
      <trkpt lat="43.51419" lon="2.49413">
        <ele>618.446</ele>
        <time>2021-05-22T12:17:40Z</time>
      </trkpt>
      <trkpt lat="43.51419" lon="2.49413">
        <ele>618.457</ele>
        <time>2021-05-22T12:17:42Z</time>
      </trkpt>
      <trkpt lat="43.51419" lon="2.49413">
        <ele>618.468</ele>
        <time>2021-05-22T12:17:44Z</time>
      </trkpt>
      <trkpt lat="43.51419" lon="2.49413">
        <ele>618.479</ele>
        <time>2021-05-22T12:17:46Z</time>
      </trkpt>
      <trkpt lat="43.51419" lon="2.49413">
        <ele>618.495</ele>
        <time>2021-05-22T12:17:48Z</time>
      </trkpt>
      <trkpt lat="43.51419" lon="2.49413">
        <ele>618.517</ele>
        <time>2021-05-22T12:17:50Z</time>
      </trkpt>
      <trkpt lat="43.51419" lon="2.49413">
        <ele>618.53</ele>
        <time>2021-05-22T12:17:52Z</time>
      </trkpt>
      <trkpt lat="43.51419" lon="2.49413">
        <ele>618.549</ele>
        <time>2021-05-22T12:17:54Z</time>
      </trkpt>
      <trkpt lat="43.51419" lon="2.49413">
        <ele>618.558</ele>
        <time>2021-05-22T12:17:56Z</time>
      </trkpt>
      <trkpt lat="43.51419" lon="2.49413">
        <ele>617.973</ele>
        <time>2021-05-22T12:17:58Z</time>
      </trkpt>
      <trkpt lat="43.51418" lon="2.49413">
        <ele>617.922</ele>
        <time>2021-05-22T12:18:00Z</time>
      </trkpt>
      <trkpt lat="43.51418" lon="2.49413">
        <ele>617.927</ele>
        <time>2021-05-22T12:18:02Z</time>
      </trkpt>
      <trkpt lat="43.51418" lon="2.49413">
        <ele>617.935</ele>
        <time>2021-05-22T12:18:04Z</time>
      </trkpt>
      <trkpt lat="43.51418" lon="2.49414">
        <ele>618.106</ele>
        <time>2021-05-22T12:18:06Z</time>
      </trkpt>
      <trkpt lat="43.51418" lon="2.49414">
        <ele>618.146</ele>
        <time>2021-05-22T12:18:08Z</time>
      </trkpt>
      <trkpt lat="43.51418" lon="2.49414">
        <ele>618.103</ele>
        <time>2021-05-22T12:18:10Z</time>
      </trkpt>
      <trkpt lat="43.51418" lon="2.49414">
        <ele>618.104</ele>
        <time>2021-05-22T12:18:12Z</time>
      </trkpt>
      <trkpt lat="43.51418" lon="2.49414">
        <ele>618.105</ele>
        <time>2021-05-22T12:18:14Z</time>
      </trkpt>
      <trkpt lat="43.51418" lon="2.49414">
        <ele>618.108</ele>
        <time>2021-05-22T12:18:16Z</time>
      </trkpt>
      <trkpt lat="43.51418" lon="2.49414">
        <ele>618.114</ele>
        <time>2021-05-22T12:18:18Z</time>
      </trkpt>
      <trkpt lat="43.51418" lon="2.49414">
        <ele>618.118</ele>
        <time>2021-05-22T12:18:20Z</time>
      </trkpt>
      <trkpt lat="43.51418" lon="2.49414">
        <ele>618.121</ele>
        <time>2021-05-22T12:18:22Z</time>
      </trkpt>
      <trkpt lat="43.51418" lon="2.49414">
        <ele>618.122</ele>
        <time>2021-05-22T12:18:24Z</time>
      </trkpt>
      <trkpt lat="43.51418" lon="2.49414">
        <ele>618.117</ele>
        <time>2021-05-22T12:18:26Z</time>
      </trkpt>
      <trkpt lat="43.51418" lon="2.49414">
        <ele>618.112</ele>
        <time>2021-05-22T12:18:28Z</time>
      </trkpt>
      <trkpt lat="43.51418" lon="2.49414">
        <ele>618.114</ele>
        <time>2021-05-22T12:18:30Z</time>
      </trkpt>
      <trkpt lat="43.51418" lon="2.49414">
        <ele>618.114</ele>
        <time>2021-05-22T12:18:32Z</time>
      </trkpt>
      <trkpt lat="43.51418" lon="2.49414">
        <ele>618.111</ele>
        <time>2021-05-22T12:18:34Z</time>
      </trkpt>
      <trkpt lat="43.51418" lon="2.49414">
        <ele>618.111</ele>
        <time>2021-05-22T12:18:36Z</time>
      </trkpt>
      <trkpt lat="43.51418" lon="2.49414">
        <ele>618.115</ele>
        <time>2021-05-22T12:18:38Z</time>
      </trkpt>
      <trkpt lat="43.51418" lon="2.49414">
        <ele>618.115</ele>
        <time>2021-05-22T12:18:40Z</time>
      </trkpt>
      <trkpt lat="43.51418" lon="2.49414">
        <ele>618.114</ele>
        <time>2021-05-22T12:18:42Z</time>
      </trkpt>
      <trkpt lat="43.51418" lon="2.49414">
        <ele>618.115</ele>
        <time>2021-05-22T12:18:44Z</time>
      </trkpt>
      <trkpt lat="43.51418" lon="2.49414">
        <ele>618.121</ele>
        <time>2021-05-22T12:18:46Z</time>
      </trkpt>
      <trkpt lat="43.51418" lon="2.49414">
        <ele>618.506</ele>
        <time>2021-05-22T12:18:48Z</time>
      </trkpt>
      <trkpt lat="43.51418" lon="2.49414">
        <ele>618.515</ele>
        <time>2021-05-22T12:18:50Z</time>
      </trkpt>
      <trkpt lat="43.51418" lon="2.49414">
        <ele>618.521</ele>
        <time>2021-05-22T12:18:52Z</time>
      </trkpt>
      <trkpt lat="43.51418" lon="2.49414">
        <ele>618.525</ele>
        <time>2021-05-22T12:18:54Z</time>
      </trkpt>
      <trkpt lat="43.51418" lon="2.49414">
        <ele>618.592</ele>
        <time>2021-05-22T12:18:56Z</time>
      </trkpt>
      <trkpt lat="43.51418" lon="2.49413">
        <ele>618.712</ele>
        <time>2021-05-22T12:18:58Z</time>
      </trkpt>
      <trkpt lat="43.51418" lon="2.49413">
        <ele>618.758</ele>
        <time>2021-05-22T12:19:00Z</time>
      </trkpt>
      <trkpt lat="43.51418" lon="2.49413">
        <ele>618.758</ele>
        <time>2021-05-22T12:19:02Z</time>
      </trkpt>
      <trkpt lat="43.51418" lon="2.49413">
        <ele>618.76</ele>
        <time>2021-05-22T12:19:04Z</time>
      </trkpt>
      <trkpt lat="43.51418" lon="2.49413">
        <ele>618.765</ele>
        <time>2021-05-22T12:19:06Z</time>
      </trkpt>
      <trkpt lat="43.51418" lon="2.49413">
        <ele>618.937</ele>
        <time>2021-05-22T12:19:08Z</time>
      </trkpt>
      <trkpt lat="43.51418" lon="2.49413">
        <ele>618.943</ele>
        <time>2021-05-22T12:19:10Z</time>
      </trkpt>
      <trkpt lat="43.51418" lon="2.49413">
        <ele>619.394</ele>
        <time>2021-05-22T12:19:12Z</time>
      </trkpt>
      <trkpt lat="43.51419" lon="2.49412">
        <ele>619.709</ele>
        <time>2021-05-22T12:19:14Z</time>
      </trkpt>
      <trkpt lat="43.51419" lon="2.49412">
        <ele>619.713</ele>
        <time>2021-05-22T12:19:16Z</time>
      </trkpt>
      <trkpt lat="43.51419" lon="2.49412">
        <ele>619.716</ele>
        <time>2021-05-22T12:19:18Z</time>
      </trkpt>
      <trkpt lat="43.5142" lon="2.49413">
        <ele>620.579</ele>
        <time>2021-05-22T12:19:20Z</time>
      </trkpt>
      <trkpt lat="43.51419" lon="2.49413">
        <ele>620.757</ele>
        <time>2021-05-22T12:19:22Z</time>
      </trkpt>
      <trkpt lat="43.5142" lon="2.49413">
        <ele>620.766</ele>
        <time>2021-05-22T12:19:24Z</time>
      </trkpt>
      <trkpt lat="43.5142" lon="2.49413">
        <ele>620.774</ele>
        <time>2021-05-22T12:19:26Z</time>
      </trkpt>
      <trkpt lat="43.5142" lon="2.49413">
        <ele>620.787</ele>
        <time>2021-05-22T12:19:28Z</time>
      </trkpt>
      <trkpt lat="43.5142" lon="2.49413">
        <ele>620.792</ele>
        <time>2021-05-22T12:19:30Z</time>
      </trkpt>
      <trkpt lat="43.5142" lon="2.49413">
        <ele>620.793</ele>
        <time>2021-05-22T12:19:32Z</time>
      </trkpt>
      <trkpt lat="43.5142" lon="2.49413">
        <ele>620.786</ele>
        <time>2021-05-22T12:19:34Z</time>
      </trkpt>
      <trkpt lat="43.5142" lon="2.49413">
        <ele>620.788</ele>
        <time>2021-05-22T12:19:36Z</time>
      </trkpt>
      <trkpt lat="43.5142" lon="2.49412">
        <ele>620.946</ele>
        <time>2021-05-22T12:19:38Z</time>
      </trkpt>
      <trkpt lat="43.5142" lon="2.49412">
        <ele>621.428</ele>
        <time>2021-05-22T12:19:40Z</time>
      </trkpt>
      <trkpt lat="43.5142" lon="2.49411">
        <ele>621.028</ele>
        <time>2021-05-22T12:19:42Z</time>
      </trkpt>
      <trkpt lat="43.5142" lon="2.49411">
        <ele>620.822</ele>
        <time>2021-05-22T12:19:44Z</time>
      </trkpt>
      <trkpt lat="43.5142" lon="2.49411">
        <ele>620.474</ele>
        <time>2021-05-22T12:19:46Z</time>
      </trkpt>
      <trkpt lat="43.51419" lon="2.49412">
        <ele>620.508</ele>
        <time>2021-05-22T12:19:48Z</time>
      </trkpt>
      <trkpt lat="43.51419" lon="2.49412">
        <ele>620.29</ele>
        <time>2021-05-22T12:19:50Z</time>
      </trkpt>
      <trkpt lat="43.51419" lon="2.49413">
        <ele>620.468</ele>
        <time>2021-05-22T12:19:52Z</time>
      </trkpt>
      <trkpt lat="43.51419" lon="2.49413">
        <ele>620.459</ele>
        <time>2021-05-22T12:19:54Z</time>
      </trkpt>
      <trkpt lat="43.51419" lon="2.49413">
        <ele>620.457</ele>
        <time>2021-05-22T12:19:56Z</time>
      </trkpt>
      <trkpt lat="43.51419" lon="2.49413">
        <ele>620.327</ele>
        <time>2021-05-22T12:19:58Z</time>
      </trkpt>
      <trkpt lat="43.51419" lon="2.49413">
        <ele>620.319</ele>
        <time>2021-05-22T12:20:00Z</time>
      </trkpt>
      <trkpt lat="43.51419" lon="2.49413">
        <ele>620.32</ele>
        <time>2021-05-22T12:20:02Z</time>
      </trkpt>
      <trkpt lat="43.51419" lon="2.49413">
        <ele>620.319</ele>
        <time>2021-05-22T12:20:04Z</time>
      </trkpt>
      <trkpt lat="43.51419" lon="2.49413">
        <ele>620.316</ele>
        <time>2021-05-22T12:20:06Z</time>
      </trkpt>
      <trkpt lat="43.51419" lon="2.49413">
        <ele>620.31</ele>
        <time>2021-05-22T12:20:08Z</time>
      </trkpt>
      <trkpt lat="43.51419" lon="2.49413">
        <ele>620.308</ele>
        <time>2021-05-22T12:20:10Z</time>
      </trkpt>
      <trkpt lat="43.51419" lon="2.49413">
        <ele>620.303</ele>
        <time>2021-05-22T12:20:12Z</time>
      </trkpt>
      <trkpt lat="43.51419" lon="2.49413">
        <ele>620.301</ele>
        <time>2021-05-22T12:20:14Z</time>
      </trkpt>
      <trkpt lat="43.5142" lon="2.49414">
        <ele>620.124</ele>
        <time>2021-05-22T12:20:16Z</time>
      </trkpt>
      <trkpt lat="43.5142" lon="2.49413">
        <ele>619.243</ele>
        <time>2021-05-22T12:20:18Z</time>
      </trkpt>
      <trkpt lat="43.5142" lon="2.49413">
        <ele>619.253</ele>
        <time>2021-05-22T12:20:20Z</time>
      </trkpt>
      <trkpt lat="43.5142" lon="2.49413">
        <ele>619.253</ele>
        <time>2021-05-22T12:20:22Z</time>
      </trkpt>
      <trkpt lat="43.5142" lon="2.49413">
        <ele>619.2</ele>
        <time>2021-05-22T12:20:24Z</time>
      </trkpt>
      <trkpt lat="43.5142" lon="2.49413">
        <ele>619.206</ele>
        <time>2021-05-22T12:20:26Z</time>
      </trkpt>
      <trkpt lat="43.5142" lon="2.49414">
        <ele>619.247</ele>
        <time>2021-05-22T12:20:28Z</time>
      </trkpt>
      <trkpt lat="43.5142" lon="2.49414">
        <ele>619.235</ele>
        <time>2021-05-22T12:20:30Z</time>
      </trkpt>
      <trkpt lat="43.5142" lon="2.49414">
        <ele>619.219</ele>
        <time>2021-05-22T12:20:32Z</time>
      </trkpt>
      <trkpt lat="43.5142" lon="2.49414">
        <ele>619.21</ele>
        <time>2021-05-22T12:20:34Z</time>
      </trkpt>
      <trkpt lat="43.5142" lon="2.49414">
        <ele>619.206</ele>
        <time>2021-05-22T12:20:36Z</time>
      </trkpt>
      <trkpt lat="43.5142" lon="2.49414">
        <ele>619.203</ele>
        <time>2021-05-22T12:20:38Z</time>
      </trkpt>
      <trkpt lat="43.5142" lon="2.49414">
        <ele>619.197</ele>
        <time>2021-05-22T12:20:40Z</time>
      </trkpt>
      <trkpt lat="43.5142" lon="2.49414">
        <ele>619.317</ele>
        <time>2021-05-22T12:20:42Z</time>
      </trkpt>
      <trkpt lat="43.5142" lon="2.49414">
        <ele>619.522</ele>
        <time>2021-05-22T12:20:44Z</time>
      </trkpt>
      <trkpt lat="43.5142" lon="2.49414">
        <ele>619.519</ele>
        <time>2021-05-22T12:20:46Z</time>
      </trkpt>
      <trkpt lat="43.5142" lon="2.49414">
        <ele>619.521</ele>
        <time>2021-05-22T12:20:48Z</time>
      </trkpt>
      <trkpt lat="43.5142" lon="2.49414">
        <ele>619.522</ele>
        <time>2021-05-22T12:20:50Z</time>
      </trkpt>
      <trkpt lat="43.5142" lon="2.49414">
        <ele>619.516</ele>
        <time>2021-05-22T12:20:52Z</time>
      </trkpt>
      <trkpt lat="43.5142" lon="2.49414">
        <ele>619.516</ele>
        <time>2021-05-22T12:20:54Z</time>
      </trkpt>
      <trkpt lat="43.5142" lon="2.49414">
        <ele>619.519</ele>
        <time>2021-05-22T12:20:56Z</time>
      </trkpt>
      <trkpt lat="43.5142" lon="2.49413">
        <ele>619.716</ele>
        <time>2021-05-22T12:20:58Z</time>
      </trkpt>
      <trkpt lat="43.51419" lon="2.49412">
        <ele>620.195</ele>
        <time>2021-05-22T12:21:00Z</time>
      </trkpt>
      <trkpt lat="43.51418" lon="2.49411">
        <ele>622.054</ele>
        <time>2021-05-22T12:21:02Z</time>
      </trkpt>
      <trkpt lat="43.51416" lon="2.49412">
        <ele>621.248</ele>
        <time>2021-05-22T12:21:04Z</time>
      </trkpt>
      <trkpt lat="43.51416" lon="2.49412">
        <ele>619.917</ele>
        <time>2021-05-22T12:21:06Z</time>
      </trkpt>
      <trkpt lat="43.51418" lon="2.49413">
        <ele>619.803</ele>
        <time>2021-05-22T12:21:08Z</time>
      </trkpt>
      <trkpt lat="43.5142" lon="2.49414">
        <ele>619.735</ele>
        <time>2021-05-22T12:21:10Z</time>
      </trkpt>
      <trkpt lat="43.51422" lon="2.49414">
        <ele>620.8</ele>
        <time>2021-05-22T12:21:12Z</time>
      </trkpt>
      <trkpt lat="43.51422" lon="2.49414">
        <ele>619.6</ele>
        <time>2021-05-22T12:21:14Z</time>
      </trkpt>
      <trkpt lat="43.51422" lon="2.49413">
        <ele>619.605</ele>
        <time>2021-05-22T12:21:16Z</time>
      </trkpt>
      <trkpt lat="43.51422" lon="2.49413">
        <ele>619.603</ele>
        <time>2021-05-22T12:21:18Z</time>
      </trkpt>
      <trkpt lat="43.51422" lon="2.49414">
        <ele>619.413</ele>
        <time>2021-05-22T12:21:20Z</time>
      </trkpt>
      <trkpt lat="43.51422" lon="2.49414">
        <ele>619.183</ele>
        <time>2021-05-22T12:21:22Z</time>
      </trkpt>
      <trkpt lat="43.51423" lon="2.49414">
        <ele>619.179</ele>
        <time>2021-05-22T12:21:24Z</time>
      </trkpt>
      <trkpt lat="43.51423" lon="2.49414">
        <ele>619.177</ele>
        <time>2021-05-22T12:21:26Z</time>
      </trkpt>
      <trkpt lat="43.51423" lon="2.49414">
        <ele>619.191</ele>
        <time>2021-05-22T12:21:28Z</time>
      </trkpt>
      <trkpt lat="43.51423" lon="2.49414">
        <ele>619.196</ele>
        <time>2021-05-22T12:21:30Z</time>
      </trkpt>
      <trkpt lat="43.51423" lon="2.49414">
        <ele>619.202</ele>
        <time>2021-05-22T12:21:32Z</time>
      </trkpt>
      <trkpt lat="43.51423" lon="2.49415">
        <ele>619.742</ele>
        <time>2021-05-22T12:21:34Z</time>
      </trkpt>
      <trkpt lat="43.51423" lon="2.49415">
        <ele>619.72</ele>
        <time>2021-05-22T12:21:36Z</time>
      </trkpt>
      <trkpt lat="43.51423" lon="2.49415">
        <ele>619.72</ele>
        <time>2021-05-22T12:21:38Z</time>
      </trkpt>
      <trkpt lat="43.51423" lon="2.49415">
        <ele>619.722</ele>
        <time>2021-05-22T12:21:40Z</time>
      </trkpt>
      <trkpt lat="43.51423" lon="2.49415">
        <ele>619.723</ele>
        <time>2021-05-22T12:21:42Z</time>
      </trkpt>
      <trkpt lat="43.51423" lon="2.49415">
        <ele>619.722</ele>
        <time>2021-05-22T12:21:44Z</time>
      </trkpt>
      <trkpt lat="43.51423" lon="2.49415">
        <ele>619.73</ele>
        <time>2021-05-22T12:21:46Z</time>
      </trkpt>
      <trkpt lat="43.51423" lon="2.49415">
        <ele>619.727</ele>
        <time>2021-05-22T12:21:48Z</time>
      </trkpt>
      <trkpt lat="43.51423" lon="2.49415">
        <ele>619.725</ele>
        <time>2021-05-22T12:21:50Z</time>
      </trkpt>
      <trkpt lat="43.51423" lon="2.49415">
        <ele>619.724</ele>
        <time>2021-05-22T12:21:52Z</time>
      </trkpt>
      <trkpt lat="43.51423" lon="2.49415">
        <ele>619.735</ele>
        <time>2021-05-22T12:21:54Z</time>
      </trkpt>
      <trkpt lat="43.51423" lon="2.49415">
        <ele>619.74</ele>
        <time>2021-05-22T12:21:56Z</time>
      </trkpt>
      <trkpt lat="43.51423" lon="2.49415">
        <ele>619.745</ele>
        <time>2021-05-22T12:21:58Z</time>
      </trkpt>
      <trkpt lat="43.51423" lon="2.49415">
        <ele>619.75</ele>
        <time>2021-05-22T12:22:00Z</time>
      </trkpt>
      <trkpt lat="43.51423" lon="2.49415">
        <ele>619.762</ele>
        <time>2021-05-22T12:22:02Z</time>
      </trkpt>
      <trkpt lat="43.51423" lon="2.49415">
        <ele>619.769</ele>
        <time>2021-05-22T12:22:04Z</time>
      </trkpt>
      <trkpt lat="43.51423" lon="2.49415">
        <ele>619.782</ele>
        <time>2021-05-22T12:22:06Z</time>
      </trkpt>
      <trkpt lat="43.51423" lon="2.49415">
        <ele>619.805</ele>
        <time>2021-05-22T12:22:08Z</time>
      </trkpt>
      <trkpt lat="43.51424" lon="2.49415">
        <ele>619.864</ele>
        <time>2021-05-22T12:22:10Z</time>
      </trkpt>
      <trkpt lat="43.51424" lon="2.49415">
        <ele>619.843</ele>
        <time>2021-05-22T12:22:12Z</time>
      </trkpt>
      <trkpt lat="43.51424" lon="2.49415">
        <ele>619.845</ele>
        <time>2021-05-22T12:22:14Z</time>
      </trkpt>
      <trkpt lat="43.51424" lon="2.49415">
        <ele>619.853</ele>
        <time>2021-05-22T12:22:16Z</time>
      </trkpt>
      <trkpt lat="43.51424" lon="2.49415">
        <ele>619.852</ele>
        <time>2021-05-22T12:22:18Z</time>
      </trkpt>
      <trkpt lat="43.51424" lon="2.49415">
        <ele>619.874</ele>
        <time>2021-05-22T12:22:20Z</time>
      </trkpt>
      <trkpt lat="43.51424" lon="2.49415">
        <ele>619.881</ele>
        <time>2021-05-22T12:22:22Z</time>
      </trkpt>
      <trkpt lat="43.51424" lon="2.49415">
        <ele>619.882</ele>
        <time>2021-05-22T12:22:24Z</time>
      </trkpt>
      <trkpt lat="43.51424" lon="2.49415">
        <ele>619.881</ele>
        <time>2021-05-22T12:22:26Z</time>
      </trkpt>
      <trkpt lat="43.51424" lon="2.49415">
        <ele>619.884</ele>
        <time>2021-05-22T12:22:28Z</time>
      </trkpt>
      <trkpt lat="43.51424" lon="2.49415">
        <ele>620.001</ele>
        <time>2021-05-22T12:22:30Z</time>
      </trkpt>
      <trkpt lat="43.51425" lon="2.49415">
        <ele>620.026</ele>
        <time>2021-05-22T12:22:32Z</time>
      </trkpt>
      <trkpt lat="43.51426" lon="2.49415">
        <ele>620.433</ele>
        <time>2021-05-22T12:22:34Z</time>
      </trkpt>
      <trkpt lat="43.51427" lon="2.49415">
        <ele>620.188</ele>
        <time>2021-05-22T12:22:36Z</time>
      </trkpt>
      <trkpt lat="43.51427" lon="2.49414">
        <ele>620.166</ele>
        <time>2021-05-22T12:22:38Z</time>
      </trkpt>
      <trkpt lat="43.51427" lon="2.49414">
        <ele>619.746</ele>
        <time>2021-05-22T12:22:40Z</time>
      </trkpt>
      <trkpt lat="43.51426" lon="2.49414">
        <ele>619.809</ele>
        <time>2021-05-22T12:22:42Z</time>
      </trkpt>
      <trkpt lat="43.51426" lon="2.49414">
        <ele>619.807</ele>
        <time>2021-05-22T12:22:44Z</time>
      </trkpt>
      <trkpt lat="43.51426" lon="2.49414">
        <ele>619.809</ele>
        <time>2021-05-22T12:22:46Z</time>
      </trkpt>
      <trkpt lat="43.51426" lon="2.49414">
        <ele>619.804</ele>
        <time>2021-05-22T12:22:48Z</time>
      </trkpt>
      <trkpt lat="43.51426" lon="2.49414">
        <ele>619.806</ele>
        <time>2021-05-22T12:22:50Z</time>
      </trkpt>
      <trkpt lat="43.51426" lon="2.49414">
        <ele>619.794</ele>
        <time>2021-05-22T12:22:52Z</time>
      </trkpt>
      <trkpt lat="43.51426" lon="2.49414">
        <ele>619.786</ele>
        <time>2021-05-22T12:22:54Z</time>
      </trkpt>
      <trkpt lat="43.51426" lon="2.49414">
        <ele>619.796</ele>
        <time>2021-05-22T12:22:56Z</time>
      </trkpt>
      <trkpt lat="43.51426" lon="2.49414">
        <ele>619.793</ele>
        <time>2021-05-22T12:22:58Z</time>
      </trkpt>
      <trkpt lat="43.51426" lon="2.49414">
        <ele>619.786</ele>
        <time>2021-05-22T12:23:00Z</time>
      </trkpt>
      <trkpt lat="43.51426" lon="2.49414">
        <ele>619.77</ele>
        <time>2021-05-22T12:23:02Z</time>
      </trkpt>
      <trkpt lat="43.51426" lon="2.49414">
        <ele>619.75</ele>
        <time>2021-05-22T12:23:04Z</time>
      </trkpt>
      <trkpt lat="43.51426" lon="2.49414">
        <ele>619.735</ele>
        <time>2021-05-22T12:23:06Z</time>
      </trkpt>
      <trkpt lat="43.51426" lon="2.49414">
        <ele>619.711</ele>
        <time>2021-05-22T12:23:08Z</time>
      </trkpt>
      <trkpt lat="43.51426" lon="2.49414">
        <ele>619.698</ele>
        <time>2021-05-22T12:23:10Z</time>
      </trkpt>
      <trkpt lat="43.51426" lon="2.49414">
        <ele>619.685</ele>
        <time>2021-05-22T12:23:12Z</time>
      </trkpt>
      <trkpt lat="43.51426" lon="2.49414">
        <ele>619.668</ele>
        <time>2021-05-22T12:23:14Z</time>
      </trkpt>
      <trkpt lat="43.51426" lon="2.49414">
        <ele>619.657</ele>
        <time>2021-05-22T12:23:16Z</time>
      </trkpt>
      <trkpt lat="43.51426" lon="2.49414">
        <ele>619.639</ele>
        <time>2021-05-22T12:23:18Z</time>
      </trkpt>
      <trkpt lat="43.51426" lon="2.49414">
        <ele>619.622</ele>
        <time>2021-05-22T12:23:20Z</time>
      </trkpt>
      <trkpt lat="43.51426" lon="2.49414">
        <ele>619.609</ele>
        <time>2021-05-22T12:23:22Z</time>
      </trkpt>
      <trkpt lat="43.51426" lon="2.49414">
        <ele>619.594</ele>
        <time>2021-05-22T12:23:24Z</time>
      </trkpt>
      <trkpt lat="43.51426" lon="2.49414">
        <ele>619.576</ele>
        <time>2021-05-22T12:23:26Z</time>
      </trkpt>
      <trkpt lat="43.51426" lon="2.49414">
        <ele>619.562</ele>
        <time>2021-05-22T12:23:28Z</time>
      </trkpt>
      <trkpt lat="43.51426" lon="2.49414">
        <ele>619.561</ele>
        <time>2021-05-22T12:23:30Z</time>
      </trkpt>
      <trkpt lat="43.51425" lon="2.49413">
        <ele>618.674</ele>
        <time>2021-05-22T12:23:32Z</time>
      </trkpt>
      <trkpt lat="43.51425" lon="2.49412">
        <ele>618.982</ele>
        <time>2021-05-22T12:23:34Z</time>
      </trkpt>
      <trkpt lat="43.51425" lon="2.49412">
        <ele>619.036</ele>
        <time>2021-05-22T12:23:36Z</time>
      </trkpt>
      <trkpt lat="43.51425" lon="2.49412">
        <ele>618.967</ele>
        <time>2021-05-22T12:23:38Z</time>
      </trkpt>
      <trkpt lat="43.51425" lon="2.49412">
        <ele>618.963</ele>
        <time>2021-05-22T12:23:40Z</time>
      </trkpt>
      <trkpt lat="43.51425" lon="2.49412">
        <ele>618.947</ele>
        <time>2021-05-22T12:23:42Z</time>
      </trkpt>
      <trkpt lat="43.51425" lon="2.49412">
        <ele>618.94</ele>
        <time>2021-05-22T12:23:44Z</time>
      </trkpt>
      <trkpt lat="43.51425" lon="2.49412">
        <ele>618.92</ele>
        <time>2021-05-22T12:23:46Z</time>
      </trkpt>
      <trkpt lat="43.51425" lon="2.49412">
        <ele>618.908</ele>
        <time>2021-05-22T12:23:48Z</time>
      </trkpt>
      <trkpt lat="43.51425" lon="2.49412">
        <ele>618.9</ele>
        <time>2021-05-22T12:23:50Z</time>
      </trkpt>
      <trkpt lat="43.51425" lon="2.49412">
        <ele>618.893</ele>
        <time>2021-05-22T12:23:52Z</time>
      </trkpt>
      <trkpt lat="43.51425" lon="2.49412">
        <ele>618.88</ele>
        <time>2021-05-22T12:23:54Z</time>
      </trkpt>
      <trkpt lat="43.51425" lon="2.49412">
        <ele>618.872</ele>
        <time>2021-05-22T12:23:56Z</time>
      </trkpt>
      <trkpt lat="43.51425" lon="2.49412">
        <ele>618.862</ele>
        <time>2021-05-22T12:23:58Z</time>
      </trkpt>
      <trkpt lat="43.51425" lon="2.49412">
        <ele>618.853</ele>
        <time>2021-05-22T12:24:00Z</time>
      </trkpt>
      <trkpt lat="43.51425" lon="2.49412">
        <ele>618.845</ele>
        <time>2021-05-22T12:24:02Z</time>
      </trkpt>
      <trkpt lat="43.51425" lon="2.49412">
        <ele>618.827</ele>
        <time>2021-05-22T12:24:04Z</time>
      </trkpt>
      <trkpt lat="43.51425" lon="2.49412">
        <ele>618.813</ele>
        <time>2021-05-22T12:24:06Z</time>
      </trkpt>
      <trkpt lat="43.51425" lon="2.49412">
        <ele>618.812</ele>
        <time>2021-05-22T12:24:08Z</time>
      </trkpt>
      <trkpt lat="43.51425" lon="2.49412">
        <ele>618.826</ele>
        <time>2021-05-22T12:24:10Z</time>
      </trkpt>
      <trkpt lat="43.51425" lon="2.49412">
        <ele>618.843</ele>
        <time>2021-05-22T12:24:12Z</time>
      </trkpt>
      <trkpt lat="43.51425" lon="2.49412">
        <ele>618.849</ele>
        <time>2021-05-22T12:24:14Z</time>
      </trkpt>
      <trkpt lat="43.51425" lon="2.49412">
        <ele>618.858</ele>
        <time>2021-05-22T12:24:16Z</time>
      </trkpt>
      <trkpt lat="43.51425" lon="2.49412">
        <ele>619.006</ele>
        <time>2021-05-22T12:24:18Z</time>
      </trkpt>
      <trkpt lat="43.51425" lon="2.49412">
        <ele>619.021</ele>
        <time>2021-05-22T12:24:20Z</time>
      </trkpt>
      <trkpt lat="43.51425" lon="2.49412">
        <ele>619.021</ele>
        <time>2021-05-22T12:24:22Z</time>
      </trkpt>
      <trkpt lat="43.51425" lon="2.49412">
        <ele>619.02</ele>
        <time>2021-05-22T12:24:24Z</time>
      </trkpt>
      <trkpt lat="43.51425" lon="2.49412">
        <ele>619.021</ele>
        <time>2021-05-22T12:24:26Z</time>
      </trkpt>
      <trkpt lat="43.51425" lon="2.49412">
        <ele>619.021</ele>
        <time>2021-05-22T12:24:28Z</time>
      </trkpt>
      <trkpt lat="43.51425" lon="2.49412">
        <ele>619.025</ele>
        <time>2021-05-22T12:24:30Z</time>
      </trkpt>
      <trkpt lat="43.51425" lon="2.49412">
        <ele>619.041</ele>
        <time>2021-05-22T12:24:32Z</time>
      </trkpt>
      <trkpt lat="43.51425" lon="2.49411">
        <ele>619.036</ele>
        <time>2021-05-22T12:24:34Z</time>
      </trkpt>
      <trkpt lat="43.51425" lon="2.49411">
        <ele>619.065</ele>
        <time>2021-05-22T12:24:36Z</time>
      </trkpt>
      <trkpt lat="43.51425" lon="2.49411">
        <ele>619.052</ele>
        <time>2021-05-22T12:24:38Z</time>
      </trkpt>
      <trkpt lat="43.51425" lon="2.49411">
        <ele>619.049</ele>
        <time>2021-05-22T12:24:40Z</time>
      </trkpt>
      <trkpt lat="43.51425" lon="2.49411">
        <ele>619.047</ele>
        <time>2021-05-22T12:24:42Z</time>
      </trkpt>
      <trkpt lat="43.51425" lon="2.49411">
        <ele>619.045</ele>
        <time>2021-05-22T12:24:44Z</time>
      </trkpt>
      <trkpt lat="43.51425" lon="2.49411">
        <ele>619.05</ele>
        <time>2021-05-22T12:24:46Z</time>
      </trkpt>
      <trkpt lat="43.51425" lon="2.49411">
        <ele>619.052</ele>
        <time>2021-05-22T12:24:48Z</time>
      </trkpt>
      <trkpt lat="43.51425" lon="2.49411">
        <ele>619.049</ele>
        <time>2021-05-22T12:24:50Z</time>
      </trkpt>
      <trkpt lat="43.51425" lon="2.49411">
        <ele>619.047</ele>
        <time>2021-05-22T12:24:52Z</time>
      </trkpt>
      <trkpt lat="43.51425" lon="2.49411">
        <ele>619.058</ele>
        <time>2021-05-22T12:24:54Z</time>
      </trkpt>
      <trkpt lat="43.51425" lon="2.49411">
        <ele>619.064</ele>
        <time>2021-05-22T12:24:56Z</time>
      </trkpt>
      <trkpt lat="43.51425" lon="2.49411">
        <ele>619.068</ele>
        <time>2021-05-22T12:24:58Z</time>
      </trkpt>
      <trkpt lat="43.51425" lon="2.49411">
        <ele>619.066</ele>
        <time>2021-05-22T12:25:00Z</time>
      </trkpt>
      <trkpt lat="43.51424" lon="2.49411">
        <ele>618.943</ele>
        <time>2021-05-22T12:25:02Z</time>
      </trkpt>
      <trkpt lat="43.51424" lon="2.49411">
        <ele>618.941</ele>
        <time>2021-05-22T12:25:04Z</time>
      </trkpt>
      <trkpt lat="43.51424" lon="2.49411">
        <ele>618.944</ele>
        <time>2021-05-22T12:25:06Z</time>
      </trkpt>
      <trkpt lat="43.51424" lon="2.49411">
        <ele>618.939</ele>
        <time>2021-05-22T12:25:08Z</time>
      </trkpt>
      <trkpt lat="43.51424" lon="2.49411">
        <ele>618.943</ele>
        <time>2021-05-22T12:25:10Z</time>
      </trkpt>
      <trkpt lat="43.51424" lon="2.49411">
        <ele>618.944</ele>
        <time>2021-05-22T12:25:12Z</time>
      </trkpt>
      <trkpt lat="43.51424" lon="2.49411">
        <ele>618.949</ele>
        <time>2021-05-22T12:25:14Z</time>
      </trkpt>
      <trkpt lat="43.51424" lon="2.49411">
        <ele>618.959</ele>
        <time>2021-05-22T12:25:16Z</time>
      </trkpt>
      <trkpt lat="43.51424" lon="2.49411">
        <ele>618.957</ele>
        <time>2021-05-22T12:25:18Z</time>
      </trkpt>
      <trkpt lat="43.51424" lon="2.49411">
        <ele>618.96</ele>
        <time>2021-05-22T12:25:20Z</time>
      </trkpt>
      <trkpt lat="43.51424" lon="2.49411">
        <ele>618.963</ele>
        <time>2021-05-22T12:25:22Z</time>
      </trkpt>
      <trkpt lat="43.51425" lon="2.49411">
        <ele>618.573</ele>
        <time>2021-05-22T12:25:24Z</time>
      </trkpt>
      <trkpt lat="43.51425" lon="2.49412">
        <ele>618.32</ele>
        <time>2021-05-22T12:25:26Z</time>
      </trkpt>
      <trkpt lat="43.51425" lon="2.49412">
        <ele>618.487</ele>
        <time>2021-05-22T12:25:28Z</time>
      </trkpt>
      <trkpt lat="43.51425" lon="2.49412">
        <ele>618.49</ele>
        <time>2021-05-22T12:25:30Z</time>
      </trkpt>
      <trkpt lat="43.51425" lon="2.49412">
        <ele>618.487</ele>
        <time>2021-05-22T12:25:32Z</time>
      </trkpt>
      <trkpt lat="43.51425" lon="2.49412">
        <ele>618.49</ele>
        <time>2021-05-22T12:25:34Z</time>
      </trkpt>
      <trkpt lat="43.51425" lon="2.49412">
        <ele>618.489</ele>
        <time>2021-05-22T12:25:36Z</time>
      </trkpt>
      <trkpt lat="43.51425" lon="2.49412">
        <ele>618.492</ele>
        <time>2021-05-22T12:25:38Z</time>
      </trkpt>
      <trkpt lat="43.51425" lon="2.49412">
        <ele>618.49</ele>
        <time>2021-05-22T12:25:40Z</time>
      </trkpt>
      <trkpt lat="43.51425" lon="2.49412">
        <ele>618.485</ele>
        <time>2021-05-22T12:25:42Z</time>
      </trkpt>
      <trkpt lat="43.51425" lon="2.49412">
        <ele>618.485</ele>
        <time>2021-05-22T12:25:44Z</time>
      </trkpt>
      <trkpt lat="43.51425" lon="2.49412">
        <ele>618.483</ele>
        <time>2021-05-22T12:25:46Z</time>
      </trkpt>
      <trkpt lat="43.51425" lon="2.49412">
        <ele>618.481</ele>
        <time>2021-05-22T12:25:48Z</time>
      </trkpt>
      <trkpt lat="43.51425" lon="2.49412">
        <ele>618.482</ele>
        <time>2021-05-22T12:25:50Z</time>
      </trkpt>
      <trkpt lat="43.51425" lon="2.49412">
        <ele>618.483</ele>
        <time>2021-05-22T12:25:52Z</time>
      </trkpt>
      <trkpt lat="43.51425" lon="2.49412">
        <ele>618.493</ele>
        <time>2021-05-22T12:25:54Z</time>
      </trkpt>
      <trkpt lat="43.51425" lon="2.49412">
        <ele>618.495</ele>
        <time>2021-05-22T12:25:56Z</time>
      </trkpt>
      <trkpt lat="43.51425" lon="2.49412">
        <ele>618.498</ele>
        <time>2021-05-22T12:25:58Z</time>
      </trkpt>
      <trkpt lat="43.51425" lon="2.49412">
        <ele>618.501</ele>
        <time>2021-05-22T12:26:00Z</time>
      </trkpt>
      <trkpt lat="43.51425" lon="2.49412">
        <ele>618.496</ele>
        <time>2021-05-22T12:26:02Z</time>
      </trkpt>
      <trkpt lat="43.51425" lon="2.49412">
        <ele>618.502</ele>
        <time>2021-05-22T12:26:04Z</time>
      </trkpt>
      <trkpt lat="43.51425" lon="2.49412">
        <ele>618.502</ele>
        <time>2021-05-22T12:26:06Z</time>
      </trkpt>
      <trkpt lat="43.51425" lon="2.49412">
        <ele>618.504</ele>
        <time>2021-05-22T12:26:08Z</time>
      </trkpt>
      <trkpt lat="43.51425" lon="2.49412">
        <ele>618.509</ele>
        <time>2021-05-22T12:26:10Z</time>
      </trkpt>
      <trkpt lat="43.51425" lon="2.49412">
        <ele>618.524</ele>
        <time>2021-05-22T12:26:12Z</time>
      </trkpt>
      <trkpt lat="43.51425" lon="2.49412">
        <ele>617.946</ele>
        <time>2021-05-22T12:26:14Z</time>
      </trkpt>
      <trkpt lat="43.51425" lon="2.49412">
        <ele>618.03</ele>
        <time>2021-05-22T12:26:16Z</time>
      </trkpt>
      <trkpt lat="43.51425" lon="2.49412">
        <ele>618.043</ele>
        <time>2021-05-22T12:26:18Z</time>
      </trkpt>
      <trkpt lat="43.51425" lon="2.49412">
        <ele>618.06</ele>
        <time>2021-05-22T12:26:20Z</time>
      </trkpt>
      <trkpt lat="43.51425" lon="2.49412">
        <ele>618.105</ele>
        <time>2021-05-22T12:26:22Z</time>
      </trkpt>
      <trkpt lat="43.51425" lon="2.49412">
        <ele>618.114</ele>
        <time>2021-05-22T12:26:24Z</time>
      </trkpt>
      <trkpt lat="43.51425" lon="2.49412">
        <ele>618.134</ele>
        <time>2021-05-22T12:26:26Z</time>
      </trkpt>
      <trkpt lat="43.51425" lon="2.49412">
        <ele>618.157</ele>
        <time>2021-05-22T12:26:28Z</time>
      </trkpt>
      <trkpt lat="43.51425" lon="2.49412">
        <ele>618.166</ele>
        <time>2021-05-22T12:26:30Z</time>
      </trkpt>
      <trkpt lat="43.51425" lon="2.49412">
        <ele>618.183</ele>
        <time>2021-05-22T12:26:32Z</time>
      </trkpt>
      <trkpt lat="43.51424" lon="2.49412">
        <ele>618.452</ele>
        <time>2021-05-22T12:26:34Z</time>
      </trkpt>
      <trkpt lat="43.51424" lon="2.49411">
        <ele>618.457</ele>
        <time>2021-05-22T12:26:36Z</time>
      </trkpt>
      <trkpt lat="43.51424" lon="2.49411">
        <ele>618.533</ele>
        <time>2021-05-22T12:26:38Z</time>
      </trkpt>
      <trkpt lat="43.51424" lon="2.49411">
        <ele>619.228</ele>
        <time>2021-05-22T12:26:40Z</time>
      </trkpt>
      <trkpt lat="43.51424" lon="2.49411">
        <ele>619.452</ele>
        <time>2021-05-22T12:26:42Z</time>
      </trkpt>
      <trkpt lat="43.51424" lon="2.49411">
        <ele>619.443</ele>
        <time>2021-05-22T12:26:44Z</time>
      </trkpt>
      <trkpt lat="43.51424" lon="2.49411">
        <ele>619.478</ele>
        <time>2021-05-22T12:26:46Z</time>
      </trkpt>
      <trkpt lat="43.51424" lon="2.49411">
        <ele>619.492</ele>
        <time>2021-05-22T12:26:48Z</time>
      </trkpt>
      <trkpt lat="43.51424" lon="2.49411">
        <ele>619.534</ele>
        <time>2021-05-22T12:26:50Z</time>
      </trkpt>
      <trkpt lat="43.51424" lon="2.49411">
        <ele>619.574</ele>
        <time>2021-05-22T12:26:52Z</time>
      </trkpt>
      <trkpt lat="43.51424" lon="2.49411">
        <ele>619.912</ele>
        <time>2021-05-22T12:26:54Z</time>
      </trkpt>
      <trkpt lat="43.51424" lon="2.49411">
        <ele>619.839</ele>
        <time>2021-05-22T12:26:56Z</time>
      </trkpt>
      <trkpt lat="43.51424" lon="2.49411">
        <ele>619.795</ele>
        <time>2021-05-22T12:26:58Z</time>
      </trkpt>
      <trkpt lat="43.51424" lon="2.49412">
        <ele>619.806</ele>
        <time>2021-05-22T12:27:00Z</time>
      </trkpt>
      <trkpt lat="43.51423" lon="2.49412">
        <ele>619.344</ele>
        <time>2021-05-22T12:27:02Z</time>
      </trkpt>
      <trkpt lat="43.51423" lon="2.49412">
        <ele>619.337</ele>
        <time>2021-05-22T12:27:04Z</time>
      </trkpt>
      <trkpt lat="43.51423" lon="2.49412">
        <ele>619.334</ele>
        <time>2021-05-22T12:27:06Z</time>
      </trkpt>
      <trkpt lat="43.51423" lon="2.49412">
        <ele>619.334</ele>
        <time>2021-05-22T12:27:08Z</time>
      </trkpt>
      <trkpt lat="43.51422" lon="2.49413">
        <ele>619.358</ele>
        <time>2021-05-22T12:27:10Z</time>
      </trkpt>
      <trkpt lat="43.51422" lon="2.49413">
        <ele>619.342</ele>
        <time>2021-05-22T12:27:12Z</time>
      </trkpt>
      <trkpt lat="43.51422" lon="2.49413">
        <ele>619.335</ele>
        <time>2021-05-22T12:27:14Z</time>
      </trkpt>
      <trkpt lat="43.51422" lon="2.49413">
        <ele>619.325</ele>
        <time>2021-05-22T12:27:16Z</time>
      </trkpt>
      <trkpt lat="43.51422" lon="2.49413">
        <ele>619.317</ele>
        <time>2021-05-22T12:27:18Z</time>
      </trkpt>
      <trkpt lat="43.51422" lon="2.49413">
        <ele>619.311</ele>
        <time>2021-05-22T12:27:20Z</time>
      </trkpt>
      <trkpt lat="43.51422" lon="2.49413">
        <ele>619.305</ele>
        <time>2021-05-22T12:27:22Z</time>
      </trkpt>
      <trkpt lat="43.51422" lon="2.49413">
        <ele>619.298</ele>
        <time>2021-05-22T12:27:24Z</time>
      </trkpt>
      <trkpt lat="43.51422" lon="2.49413">
        <ele>619.296</ele>
        <time>2021-05-22T12:27:26Z</time>
      </trkpt>
      <trkpt lat="43.51422" lon="2.49412">
        <ele>619.183</ele>
        <time>2021-05-22T12:27:28Z</time>
      </trkpt>
      <trkpt lat="43.51422" lon="2.49413">
        <ele>619.176</ele>
        <time>2021-05-22T12:27:30Z</time>
      </trkpt>
      <trkpt lat="43.51422" lon="2.49413">
        <ele>619.171</ele>
        <time>2021-05-22T12:27:32Z</time>
      </trkpt>
      <trkpt lat="43.51422" lon="2.49413">
        <ele>619.176</ele>
        <time>2021-05-22T12:27:34Z</time>
      </trkpt>
      <trkpt lat="43.51422" lon="2.49412">
        <ele>619.202</ele>
        <time>2021-05-22T12:27:36Z</time>
      </trkpt>
      <trkpt lat="43.51422" lon="2.49412">
        <ele>619.21</ele>
        <time>2021-05-22T12:27:38Z</time>
      </trkpt>
      <trkpt lat="43.51422" lon="2.49412">
        <ele>619.24</ele>
        <time>2021-05-22T12:27:40Z</time>
      </trkpt>
      <trkpt lat="43.51422" lon="2.49412">
        <ele>619.251</ele>
        <time>2021-05-22T12:27:42Z</time>
      </trkpt>
      <trkpt lat="43.51422" lon="2.49412">
        <ele>619.272</ele>
        <time>2021-05-22T12:27:44Z</time>
      </trkpt>
      <trkpt lat="43.51422" lon="2.49412">
        <ele>619.283</ele>
        <time>2021-05-22T12:27:46Z</time>
      </trkpt>
      <trkpt lat="43.51422" lon="2.49412">
        <ele>619.288</ele>
        <time>2021-05-22T12:27:48Z</time>
      </trkpt>
      <trkpt lat="43.51422" lon="2.49412">
        <ele>619.284</ele>
        <time>2021-05-22T12:27:50Z</time>
      </trkpt>
      <trkpt lat="43.51422" lon="2.49412">
        <ele>619.287</ele>
        <time>2021-05-22T12:27:52Z</time>
      </trkpt>
      <trkpt lat="43.51422" lon="2.49412">
        <ele>619.299</ele>
        <time>2021-05-22T12:27:54Z</time>
      </trkpt>
      <trkpt lat="43.51422" lon="2.49412">
        <ele>619.313</ele>
        <time>2021-05-22T12:27:56Z</time>
      </trkpt>
      <trkpt lat="43.51422" lon="2.49412">
        <ele>619.326</ele>
        <time>2021-05-22T12:27:58Z</time>
      </trkpt>
      <trkpt lat="43.51422" lon="2.49412">
        <ele>619.33</ele>
        <time>2021-05-22T12:28:00Z</time>
      </trkpt>
      <trkpt lat="43.51422" lon="2.49412">
        <ele>619.327</ele>
        <time>2021-05-22T12:28:02Z</time>
      </trkpt>
      <trkpt lat="43.51422" lon="2.49412">
        <ele>619.332</ele>
        <time>2021-05-22T12:28:04Z</time>
      </trkpt>
      <trkpt lat="43.51422" lon="2.49412">
        <ele>619.347</ele>
        <time>2021-05-22T12:28:06Z</time>
      </trkpt>
      <trkpt lat="43.51422" lon="2.49412">
        <ele>619.357</ele>
        <time>2021-05-22T12:28:08Z</time>
      </trkpt>
      <trkpt lat="43.51422" lon="2.49412">
        <ele>619.361</ele>
        <time>2021-05-22T12:28:10Z</time>
      </trkpt>
      <trkpt lat="43.51422" lon="2.49412">
        <ele>619.365</ele>
        <time>2021-05-22T12:28:13Z</time>
      </trkpt>
      <trkpt lat="43.51422" lon="2.49412">
        <ele>619.374</ele>
        <time>2021-05-22T12:28:15Z</time>
      </trkpt>
      <trkpt lat="43.51422" lon="2.49412">
        <ele>619.369</ele>
        <time>2021-05-22T12:28:17Z</time>
      </trkpt>
      <trkpt lat="43.51422" lon="2.49412">
        <ele>619.378</ele>
        <time>2021-05-22T12:28:19Z</time>
      </trkpt>
      <trkpt lat="43.51422" lon="2.49412">
        <ele>619.387</ele>
        <time>2021-05-22T12:28:21Z</time>
      </trkpt>
      <trkpt lat="43.51422" lon="2.49412">
        <ele>619.403</ele>
        <time>2021-05-22T12:28:23Z</time>
      </trkpt>
      <trkpt lat="43.51422" lon="2.49412">
        <ele>619.415</ele>
        <time>2021-05-22T12:28:25Z</time>
      </trkpt>
      <trkpt lat="43.51422" lon="2.49412">
        <ele>619.412</ele>
        <time>2021-05-22T12:28:27Z</time>
      </trkpt>
      <trkpt lat="43.51422" lon="2.49412">
        <ele>619.419</ele>
        <time>2021-05-22T12:28:29Z</time>
      </trkpt>
      <trkpt lat="43.51422" lon="2.49412">
        <ele>619.42</ele>
        <time>2021-05-22T12:28:31Z</time>
      </trkpt>
      <trkpt lat="43.51422" lon="2.49412">
        <ele>619.417</ele>
        <time>2021-05-22T12:28:33Z</time>
      </trkpt>
      <trkpt lat="43.51422" lon="2.49412">
        <ele>619.419</ele>
        <time>2021-05-22T12:28:35Z</time>
      </trkpt>
      <trkpt lat="43.51422" lon="2.49412">
        <ele>619.415</ele>
        <time>2021-05-22T12:28:37Z</time>
      </trkpt>
      <trkpt lat="43.51423" lon="2.49412">
        <ele>619.469</ele>
        <time>2021-05-22T12:28:39Z</time>
      </trkpt>
      <trkpt lat="43.51422" lon="2.49412">
        <ele>618.77</ele>
        <time>2021-05-22T12:28:41Z</time>
      </trkpt>
      <trkpt lat="43.51422" lon="2.49412">
        <ele>618.911</ele>
        <time>2021-05-22T12:28:43Z</time>
      </trkpt>
      <trkpt lat="43.51422" lon="2.49412">
        <ele>618.91</ele>
        <time>2021-05-22T12:28:45Z</time>
      </trkpt>
      <trkpt lat="43.51422" lon="2.49412">
        <ele>618.91</ele>
        <time>2021-05-22T12:28:47Z</time>
      </trkpt>
      <trkpt lat="43.51422" lon="2.49412">
        <ele>618.907</ele>
        <time>2021-05-22T12:28:49Z</time>
      </trkpt>
      <trkpt lat="43.51422" lon="2.49412">
        <ele>618.893</ele>
        <time>2021-05-22T12:28:51Z</time>
      </trkpt>
      <trkpt lat="43.51422" lon="2.49412">
        <ele>618.886</ele>
        <time>2021-05-22T12:28:53Z</time>
      </trkpt>
      <trkpt lat="43.51422" lon="2.49412">
        <ele>618.882</ele>
        <time>2021-05-22T12:28:55Z</time>
      </trkpt>
      <trkpt lat="43.51422" lon="2.49412">
        <ele>618.853</ele>
        <time>2021-05-22T12:28:57Z</time>
      </trkpt>
      <trkpt lat="43.51422" lon="2.49411">
        <ele>618.855</ele>
        <time>2021-05-22T12:28:59Z</time>
      </trkpt>
      <trkpt lat="43.51422" lon="2.49411">
        <ele>618.881</ele>
        <time>2021-05-22T12:29:01Z</time>
      </trkpt>
      <trkpt lat="43.51422" lon="2.49411">
        <ele>618.874</ele>
        <time>2021-05-22T12:29:03Z</time>
      </trkpt>
      <trkpt lat="43.51422" lon="2.49411">
        <ele>618.871</ele>
        <time>2021-05-22T12:29:05Z</time>
      </trkpt>
      <trkpt lat="43.51422" lon="2.49411">
        <ele>618.867</ele>
        <time>2021-05-22T12:29:07Z</time>
      </trkpt>
      <trkpt lat="43.51422" lon="2.49411">
        <ele>618.862</ele>
        <time>2021-05-22T12:29:09Z</time>
      </trkpt>
      <trkpt lat="43.51422" lon="2.49411">
        <ele>618.857</ele>
        <time>2021-05-22T12:29:11Z</time>
      </trkpt>
      <trkpt lat="43.51422" lon="2.49411">
        <ele>618.852</ele>
        <time>2021-05-22T12:29:13Z</time>
      </trkpt>
      <trkpt lat="43.51422" lon="2.49411">
        <ele>618.845</ele>
        <time>2021-05-22T12:29:15Z</time>
      </trkpt>
      <trkpt lat="43.51422" lon="2.49411">
        <ele>618.593</ele>
        <time>2021-05-22T12:29:17Z</time>
      </trkpt>
      <trkpt lat="43.51422" lon="2.49411">
        <ele>618.58</ele>
        <time>2021-05-22T12:29:19Z</time>
      </trkpt>
      <trkpt lat="43.51422" lon="2.49411">
        <ele>618.578</ele>
        <time>2021-05-22T12:29:21Z</time>
      </trkpt>
      <trkpt lat="43.51422" lon="2.49411">
        <ele>618.579</ele>
        <time>2021-05-22T12:29:23Z</time>
      </trkpt>
      <trkpt lat="43.51423" lon="2.49411">
        <ele>619.45</ele>
        <time>2021-05-22T12:29:25Z</time>
      </trkpt>
      <trkpt lat="43.51423" lon="2.49411">
        <ele>619.424</ele>
        <time>2021-05-22T12:29:27Z</time>
      </trkpt>
      <trkpt lat="43.51423" lon="2.49411">
        <ele>619.438</ele>
        <time>2021-05-22T12:29:29Z</time>
      </trkpt>
      <trkpt lat="43.51423" lon="2.49411">
        <ele>619.437</ele>
        <time>2021-05-22T12:29:31Z</time>
      </trkpt>
      <trkpt lat="43.51423" lon="2.49411">
        <ele>619.735</ele>
        <time>2021-05-22T12:29:33Z</time>
      </trkpt>
      <trkpt lat="43.51423" lon="2.4941">
        <ele>619.66</ele>
        <time>2021-05-22T12:29:35Z</time>
      </trkpt>
      <trkpt lat="43.51423" lon="2.4941">
        <ele>619.662</ele>
        <time>2021-05-22T12:29:38Z</time>
      </trkpt>
      <trkpt lat="43.51423" lon="2.4941">
        <ele>619.666</ele>
        <time>2021-05-22T12:29:40Z</time>
      </trkpt>
      <trkpt lat="43.51423" lon="2.4941">
        <ele>619.689</ele>
        <time>2021-05-22T12:29:42Z</time>
      </trkpt>
      <trkpt lat="43.51423" lon="2.4941">
        <ele>619.704</ele>
        <time>2021-05-22T12:29:44Z</time>
      </trkpt>
      <trkpt lat="43.51423" lon="2.4941">
        <ele>619.723</ele>
        <time>2021-05-22T12:29:46Z</time>
      </trkpt>
      <trkpt lat="43.51423" lon="2.4941">
        <ele>619.753</ele>
        <time>2021-05-22T12:29:48Z</time>
      </trkpt>
      <trkpt lat="43.51423" lon="2.4941">
        <ele>619.766</ele>
        <time>2021-05-22T12:29:50Z</time>
      </trkpt>
      <trkpt lat="43.51423" lon="2.4941">
        <ele>619.808</ele>
        <time>2021-05-22T12:29:52Z</time>
      </trkpt>
      <trkpt lat="43.51423" lon="2.4941">
        <ele>619.806</ele>
        <time>2021-05-22T12:29:54Z</time>
      </trkpt>
      <trkpt lat="43.51423" lon="2.4941">
        <ele>619.806</ele>
        <time>2021-05-22T12:29:56Z</time>
      </trkpt>
      <trkpt lat="43.51423" lon="2.4941">
        <ele>619.79</ele>
        <time>2021-05-22T12:29:58Z</time>
      </trkpt>
      <trkpt lat="43.51423" lon="2.49409">
        <ele>619.837</ele>
        <time>2021-05-22T12:30:00Z</time>
      </trkpt>
      <trkpt lat="43.51423" lon="2.49409">
        <ele>620.321</ele>
        <time>2021-05-22T12:30:02Z</time>
      </trkpt>
      <trkpt lat="43.51424" lon="2.49409">
        <ele>620.393</ele>
        <time>2021-05-22T12:30:04Z</time>
      </trkpt>
      <trkpt lat="43.51424" lon="2.49409">
        <ele>620.405</ele>
        <time>2021-05-22T12:30:06Z</time>
      </trkpt>
      <trkpt lat="43.51424" lon="2.49409">
        <ele>620.405</ele>
        <time>2021-05-22T12:30:08Z</time>
      </trkpt>
      <trkpt lat="43.51424" lon="2.49409">
        <ele>620.414</ele>
        <time>2021-05-22T12:30:10Z</time>
      </trkpt>
      <trkpt lat="43.51424" lon="2.49409">
        <ele>620.417</ele>
        <time>2021-05-22T12:30:12Z</time>
      </trkpt>
      <trkpt lat="43.51424" lon="2.49409">
        <ele>620.417</ele>
        <time>2021-05-22T12:30:14Z</time>
      </trkpt>
      <trkpt lat="43.51424" lon="2.49409">
        <ele>620.42</ele>
        <time>2021-05-22T12:30:16Z</time>
      </trkpt>
      <trkpt lat="43.51424" lon="2.49409">
        <ele>620.425</ele>
        <time>2021-05-22T12:30:18Z</time>
      </trkpt>
      <trkpt lat="43.51424" lon="2.49409">
        <ele>620.425</ele>
        <time>2021-05-22T12:30:20Z</time>
      </trkpt>
      <trkpt lat="43.51424" lon="2.49409">
        <ele>620.438</ele>
        <time>2021-05-22T12:30:22Z</time>
      </trkpt>
      <trkpt lat="43.51424" lon="2.49409">
        <ele>620.439</ele>
        <time>2021-05-22T12:30:24Z</time>
      </trkpt>
      <trkpt lat="43.51424" lon="2.49409">
        <ele>620.44</ele>
        <time>2021-05-22T12:30:26Z</time>
      </trkpt>
      <trkpt lat="43.51424" lon="2.49409">
        <ele>620.437</ele>
        <time>2021-05-22T12:30:28Z</time>
      </trkpt>
      <trkpt lat="43.51424" lon="2.49409">
        <ele>620.435</ele>
        <time>2021-05-22T12:30:30Z</time>
      </trkpt>
      <trkpt lat="43.51424" lon="2.49409">
        <ele>620.454</ele>
        <time>2021-05-22T12:30:32Z</time>
      </trkpt>
      <trkpt lat="43.51424" lon="2.49409">
        <ele>620.495</ele>
        <time>2021-05-22T12:30:34Z</time>
      </trkpt>
      <trkpt lat="43.51424" lon="2.49409">
        <ele>620.498</ele>
        <time>2021-05-22T12:30:36Z</time>
      </trkpt>
      <trkpt lat="43.51424" lon="2.49409">
        <ele>620.498</ele>
        <time>2021-05-22T12:30:38Z</time>
      </trkpt>
      <trkpt lat="43.51424" lon="2.49408">
        <ele>620.325</ele>
        <time>2021-05-22T12:30:40Z</time>
      </trkpt>
      <trkpt lat="43.51424" lon="2.49408">
        <ele>620.335</ele>
        <time>2021-05-22T12:30:42Z</time>
      </trkpt>
      <trkpt lat="43.51424" lon="2.49408">
        <ele>620.339</ele>
        <time>2021-05-22T12:30:44Z</time>
      </trkpt>
      <trkpt lat="43.51424" lon="2.49408">
        <ele>620.347</ele>
        <time>2021-05-22T12:30:46Z</time>
      </trkpt>
      <trkpt lat="43.51424" lon="2.49408">
        <ele>620.349</ele>
        <time>2021-05-22T12:30:48Z</time>
      </trkpt>
      <trkpt lat="43.51424" lon="2.49408">
        <ele>620.36</ele>
        <time>2021-05-22T12:30:50Z</time>
      </trkpt>
      <trkpt lat="43.51424" lon="2.49408">
        <ele>620.377</ele>
        <time>2021-05-22T12:30:52Z</time>
      </trkpt>
      <trkpt lat="43.51424" lon="2.49408">
        <ele>620.387</ele>
        <time>2021-05-22T12:30:54Z</time>
      </trkpt>
      <trkpt lat="43.51424" lon="2.49408">
        <ele>620.398</ele>
        <time>2021-05-22T12:30:56Z</time>
      </trkpt>
      <trkpt lat="43.51424" lon="2.49408">
        <ele>620.408</ele>
        <time>2021-05-22T12:30:58Z</time>
      </trkpt>
      <trkpt lat="43.51424" lon="2.49408">
        <ele>620.416</ele>
        <time>2021-05-22T12:31:00Z</time>
      </trkpt>
      <trkpt lat="43.51424" lon="2.49408">
        <ele>620.427</ele>
        <time>2021-05-22T12:31:02Z</time>
      </trkpt>
      <trkpt lat="43.51424" lon="2.49408">
        <ele>620.436</ele>
        <time>2021-05-22T12:31:04Z</time>
      </trkpt>
      <trkpt lat="43.51424" lon="2.49408">
        <ele>620.438</ele>
        <time>2021-05-22T12:31:06Z</time>
      </trkpt>
      <trkpt lat="43.51424" lon="2.49408">
        <ele>620.441</ele>
        <time>2021-05-22T12:31:08Z</time>
      </trkpt>
      <trkpt lat="43.51424" lon="2.49408">
        <ele>620.462</ele>
        <time>2021-05-22T12:31:10Z</time>
      </trkpt>
      <trkpt lat="43.51424" lon="2.49408">
        <ele>620.465</ele>
        <time>2021-05-22T12:31:12Z</time>
      </trkpt>
      <trkpt lat="43.51424" lon="2.49408">
        <ele>620.468</ele>
        <time>2021-05-22T12:31:14Z</time>
      </trkpt>
      <trkpt lat="43.51424" lon="2.49408">
        <ele>620.474</ele>
        <time>2021-05-22T12:31:16Z</time>
      </trkpt>
      <trkpt lat="43.51424" lon="2.49408">
        <ele>620.471</ele>
        <time>2021-05-22T12:31:18Z</time>
      </trkpt>
      <trkpt lat="43.51424" lon="2.49408">
        <ele>620.464</ele>
        <time>2021-05-22T12:31:20Z</time>
      </trkpt>
      <trkpt lat="43.51424" lon="2.49408">
        <ele>620.464</ele>
        <time>2021-05-22T12:31:22Z</time>
      </trkpt>
      <trkpt lat="43.51424" lon="2.49408">
        <ele>620.462</ele>
        <time>2021-05-22T12:31:24Z</time>
      </trkpt>
      <trkpt lat="43.51424" lon="2.49408">
        <ele>620.461</ele>
        <time>2021-05-22T12:31:26Z</time>
      </trkpt>
      <trkpt lat="43.51424" lon="2.49408">
        <ele>620.466</ele>
        <time>2021-05-22T12:31:28Z</time>
      </trkpt>
      <trkpt lat="43.51424" lon="2.49408">
        <ele>620.467</ele>
        <time>2021-05-22T12:31:30Z</time>
      </trkpt>
      <trkpt lat="43.51424" lon="2.49408">
        <ele>620.472</ele>
        <time>2021-05-22T12:31:32Z</time>
      </trkpt>
      <trkpt lat="43.51424" lon="2.49408">
        <ele>620.478</ele>
        <time>2021-05-22T12:31:34Z</time>
      </trkpt>
      <trkpt lat="43.51424" lon="2.49408">
        <ele>620.481</ele>
        <time>2021-05-22T12:31:36Z</time>
      </trkpt>
      <trkpt lat="43.51424" lon="2.49408">
        <ele>620.485</ele>
        <time>2021-05-22T12:31:38Z</time>
      </trkpt>
      <trkpt lat="43.51424" lon="2.49408">
        <ele>620.485</ele>
        <time>2021-05-22T12:31:40Z</time>
      </trkpt>
      <trkpt lat="43.51424" lon="2.49408">
        <ele>620.849</ele>
        <time>2021-05-22T12:31:42Z</time>
      </trkpt>
      <trkpt lat="43.51424" lon="2.49408">
        <ele>620.304</ele>
        <time>2021-05-22T12:31:44Z</time>
      </trkpt>
      <trkpt lat="43.51424" lon="2.49409">
        <ele>619.739</ele>
        <time>2021-05-22T12:31:46Z</time>
      </trkpt>
      <trkpt lat="43.51424" lon="2.49409">
        <ele>619.726</ele>
        <time>2021-05-22T12:31:48Z</time>
      </trkpt>
      <trkpt lat="43.51424" lon="2.49409">
        <ele>619.73</ele>
        <time>2021-05-22T12:31:50Z</time>
      </trkpt>
      <trkpt lat="43.51424" lon="2.49409">
        <ele>619.734</ele>
        <time>2021-05-22T12:31:52Z</time>
      </trkpt>
      <trkpt lat="43.51424" lon="2.49409">
        <ele>619.735</ele>
        <time>2021-05-22T12:31:54Z</time>
      </trkpt>
      <trkpt lat="43.51424" lon="2.49409">
        <ele>619.737</ele>
        <time>2021-05-22T12:31:56Z</time>
      </trkpt>
      <trkpt lat="43.51424" lon="2.49409">
        <ele>619.729</ele>
        <time>2021-05-22T12:31:59Z</time>
      </trkpt>
      <trkpt lat="43.51424" lon="2.49409">
        <ele>619.718</ele>
        <time>2021-05-22T12:32:01Z</time>
      </trkpt>
      <trkpt lat="43.51425" lon="2.49409">
        <ele>619.792</ele>
        <time>2021-05-22T12:32:03Z</time>
      </trkpt>
      <trkpt lat="43.51425" lon="2.49409">
        <ele>620.217</ele>
        <time>2021-05-22T12:32:05Z</time>
      </trkpt>
      <trkpt lat="43.51425" lon="2.49409">
        <ele>620.397</ele>
        <time>2021-05-22T12:32:07Z</time>
      </trkpt>
      <trkpt lat="43.51425" lon="2.49409">
        <ele>620.402</ele>
        <time>2021-05-22T12:32:09Z</time>
      </trkpt>
      <trkpt lat="43.51425" lon="2.49409">
        <ele>620.411</ele>
        <time>2021-05-22T12:32:11Z</time>
      </trkpt>
      <trkpt lat="43.51425" lon="2.49409">
        <ele>620.421</ele>
        <time>2021-05-22T12:32:13Z</time>
      </trkpt>
      <trkpt lat="43.51425" lon="2.49409">
        <ele>620.445</ele>
        <time>2021-05-22T12:32:15Z</time>
      </trkpt>
      <trkpt lat="43.51425" lon="2.49409">
        <ele>620.45</ele>
        <time>2021-05-22T12:32:17Z</time>
      </trkpt>
      <trkpt lat="43.51425" lon="2.49409">
        <ele>620.486</ele>
        <time>2021-05-22T12:32:19Z</time>
      </trkpt>
      <trkpt lat="43.51425" lon="2.49409">
        <ele>620.477</ele>
        <time>2021-05-22T12:32:21Z</time>
      </trkpt>
      <trkpt lat="43.51425" lon="2.49409">
        <ele>620.487</ele>
        <time>2021-05-22T12:32:23Z</time>
      </trkpt>
      <trkpt lat="43.51425" lon="2.49409">
        <ele>620.52</ele>
        <time>2021-05-22T12:32:25Z</time>
      </trkpt>
      <trkpt lat="43.51425" lon="2.49409">
        <ele>620.514</ele>
        <time>2021-05-22T12:32:27Z</time>
      </trkpt>
      <trkpt lat="43.51425" lon="2.49409">
        <ele>620.514</ele>
        <time>2021-05-22T12:32:29Z</time>
      </trkpt>
      <trkpt lat="43.51425" lon="2.49409">
        <ele>620.514</ele>
        <time>2021-05-22T12:32:31Z</time>
      </trkpt>
      <trkpt lat="43.51425" lon="2.49409">
        <ele>620.517</ele>
        <time>2021-05-22T12:32:33Z</time>
      </trkpt>
      <trkpt lat="43.51425" lon="2.49409">
        <ele>620.517</ele>
        <time>2021-05-22T12:32:35Z</time>
      </trkpt>
      <trkpt lat="43.51425" lon="2.49409">
        <ele>620.522</ele>
        <time>2021-05-22T12:32:37Z</time>
      </trkpt>
      <trkpt lat="43.51425" lon="2.49409">
        <ele>620.527</ele>
        <time>2021-05-22T12:32:39Z</time>
      </trkpt>
      <trkpt lat="43.51425" lon="2.49409">
        <ele>620.54</ele>
        <time>2021-05-22T12:32:41Z</time>
      </trkpt>
      <trkpt lat="43.51425" lon="2.49409">
        <ele>620.537</ele>
        <time>2021-05-22T12:32:43Z</time>
      </trkpt>
      <trkpt lat="43.51425" lon="2.49409">
        <ele>620.548</ele>
        <time>2021-05-22T12:32:45Z</time>
      </trkpt>
      <trkpt lat="43.51425" lon="2.49409">
        <ele>620.57</ele>
        <time>2021-05-22T12:32:47Z</time>
      </trkpt>
      <trkpt lat="43.51425" lon="2.49409">
        <ele>620.586</ele>
        <time>2021-05-22T12:32:49Z</time>
      </trkpt>
      <trkpt lat="43.51425" lon="2.49409">
        <ele>620.597</ele>
        <time>2021-05-22T12:32:51Z</time>
      </trkpt>
      <trkpt lat="43.51425" lon="2.49409">
        <ele>620.599</ele>
        <time>2021-05-22T12:32:53Z</time>
      </trkpt>
      <trkpt lat="43.51425" lon="2.49409">
        <ele>620.595</ele>
        <time>2021-05-22T12:32:55Z</time>
      </trkpt>
      <trkpt lat="43.51425" lon="2.49408">
        <ele>620.592</ele>
        <time>2021-05-22T12:32:57Z</time>
      </trkpt>
      <trkpt lat="43.51425" lon="2.49408">
        <ele>620.595</ele>
        <time>2021-05-22T12:32:59Z</time>
      </trkpt>
      <trkpt lat="43.51425" lon="2.49408">
        <ele>620.602</ele>
        <time>2021-05-22T12:33:01Z</time>
      </trkpt>
      <trkpt lat="43.51425" lon="2.49408">
        <ele>620.6</ele>
        <time>2021-05-22T12:33:03Z</time>
      </trkpt>
      <trkpt lat="43.51425" lon="2.49408">
        <ele>620.6</ele>
        <time>2021-05-22T12:33:05Z</time>
      </trkpt>
      <trkpt lat="43.51425" lon="2.49408">
        <ele>620.602</ele>
        <time>2021-05-22T12:33:07Z</time>
      </trkpt>
      <trkpt lat="43.51425" lon="2.49408">
        <ele>620.605</ele>
        <time>2021-05-22T12:33:09Z</time>
      </trkpt>
      <trkpt lat="43.51425" lon="2.49408">
        <ele>620.605</ele>
        <time>2021-05-22T12:33:11Z</time>
      </trkpt>
      <trkpt lat="43.51425" lon="2.49408">
        <ele>620.609</ele>
        <time>2021-05-22T12:33:13Z</time>
      </trkpt>
      <trkpt lat="43.51425" lon="2.49408">
        <ele>620.61</ele>
        <time>2021-05-22T12:33:15Z</time>
      </trkpt>
      <trkpt lat="43.51425" lon="2.49408">
        <ele>620.617</ele>
        <time>2021-05-22T12:33:17Z</time>
      </trkpt>
      <trkpt lat="43.51425" lon="2.49408">
        <ele>620.62</ele>
        <time>2021-05-22T12:33:19Z</time>
      </trkpt>
      <trkpt lat="43.51425" lon="2.49408">
        <ele>620.63</ele>
        <time>2021-05-22T12:33:21Z</time>
      </trkpt>
      <trkpt lat="43.51425" lon="2.49408">
        <ele>620.638</ele>
        <time>2021-05-22T12:33:23Z</time>
      </trkpt>
      <trkpt lat="43.51425" lon="2.49408">
        <ele>620.647</ele>
        <time>2021-05-22T12:33:25Z</time>
      </trkpt>
      <trkpt lat="43.51425" lon="2.49408">
        <ele>620.642</ele>
        <time>2021-05-22T12:33:27Z</time>
      </trkpt>
      <trkpt lat="43.51425" lon="2.49408">
        <ele>620.643</ele>
        <time>2021-05-22T12:33:29Z</time>
      </trkpt>
      <trkpt lat="43.51425" lon="2.49408">
        <ele>620.639</ele>
        <time>2021-05-22T12:33:31Z</time>
      </trkpt>
      <trkpt lat="43.51425" lon="2.49408">
        <ele>620.641</ele>
        <time>2021-05-22T12:33:33Z</time>
      </trkpt>
      <trkpt lat="43.51425" lon="2.49408">
        <ele>620.63</ele>
        <time>2021-05-22T12:33:35Z</time>
      </trkpt>
      <trkpt lat="43.51425" lon="2.49408">
        <ele>620.62</ele>
        <time>2021-05-22T12:33:37Z</time>
      </trkpt>
      <trkpt lat="43.51425" lon="2.49408">
        <ele>620.609</ele>
        <time>2021-05-22T12:33:39Z</time>
      </trkpt>
      <trkpt lat="43.51425" lon="2.49408">
        <ele>620.607</ele>
        <time>2021-05-22T12:33:41Z</time>
      </trkpt>
      <trkpt lat="43.51425" lon="2.49408">
        <ele>620.609</ele>
        <time>2021-05-22T12:33:43Z</time>
      </trkpt>
      <trkpt lat="43.51425" lon="2.49408">
        <ele>620.609</ele>
        <time>2021-05-22T12:33:45Z</time>
      </trkpt>
      <trkpt lat="43.51425" lon="2.49408">
        <ele>620.611</ele>
        <time>2021-05-22T12:33:47Z</time>
      </trkpt>
      <trkpt lat="43.51425" lon="2.49408">
        <ele>620.615</ele>
        <time>2021-05-22T12:33:49Z</time>
      </trkpt>
      <trkpt lat="43.51425" lon="2.49408">
        <ele>620.613</ele>
        <time>2021-05-22T12:33:51Z</time>
      </trkpt>
      <trkpt lat="43.51425" lon="2.49407">
        <ele>621.037</ele>
        <time>2021-05-22T12:33:53Z</time>
      </trkpt>
      <trkpt lat="43.51425" lon="2.49407">
        <ele>621.069</ele>
        <time>2021-05-22T12:33:55Z</time>
      </trkpt>
      <trkpt lat="43.51425" lon="2.49407">
        <ele>621.091</ele>
        <time>2021-05-22T12:33:57Z</time>
      </trkpt>
      <trkpt lat="43.51425" lon="2.49407">
        <ele>621.128</ele>
        <time>2021-05-22T12:33:59Z</time>
      </trkpt>
      <trkpt lat="43.51425" lon="2.49407">
        <ele>621.176</ele>
        <time>2021-05-22T12:34:01Z</time>
      </trkpt>
      <trkpt lat="43.51425" lon="2.49407">
        <ele>621.2</ele>
        <time>2021-05-22T12:34:03Z</time>
      </trkpt>
      <trkpt lat="43.51425" lon="2.49407">
        <ele>621.224</ele>
        <time>2021-05-22T12:34:05Z</time>
      </trkpt>
      <trkpt lat="43.51425" lon="2.49407">
        <ele>621.23</ele>
        <time>2021-05-22T12:34:07Z</time>
      </trkpt>
      <trkpt lat="43.51425" lon="2.49407">
        <ele>621.232</ele>
        <time>2021-05-22T12:34:09Z</time>
      </trkpt>
      <trkpt lat="43.51425" lon="2.49407">
        <ele>621.243</ele>
        <time>2021-05-22T12:34:11Z</time>
      </trkpt>
      <trkpt lat="43.51425" lon="2.49407">
        <ele>621.246</ele>
        <time>2021-05-22T12:34:13Z</time>
      </trkpt>
      <trkpt lat="43.51425" lon="2.49407">
        <ele>621.245</ele>
        <time>2021-05-22T12:34:15Z</time>
      </trkpt>
      <trkpt lat="43.51425" lon="2.49407">
        <ele>621.243</ele>
        <time>2021-05-22T12:34:17Z</time>
      </trkpt>
      <trkpt lat="43.51425" lon="2.49407">
        <ele>621.264</ele>
        <time>2021-05-22T12:34:19Z</time>
      </trkpt>
      <trkpt lat="43.51425" lon="2.49407">
        <ele>621.271</ele>
        <time>2021-05-22T12:34:21Z</time>
      </trkpt>
      <trkpt lat="43.51425" lon="2.49407">
        <ele>621.264</ele>
        <time>2021-05-22T12:34:23Z</time>
      </trkpt>
      <trkpt lat="43.51425" lon="2.49407">
        <ele>621.266</ele>
        <time>2021-05-22T12:34:25Z</time>
      </trkpt>
      <trkpt lat="43.51425" lon="2.49407">
        <ele>621.267</ele>
        <time>2021-05-22T12:34:27Z</time>
      </trkpt>
      <trkpt lat="43.51425" lon="2.49407">
        <ele>621.262</ele>
        <time>2021-05-22T12:34:29Z</time>
      </trkpt>
      <trkpt lat="43.51425" lon="2.49407">
        <ele>621.261</ele>
        <time>2021-05-22T12:34:31Z</time>
      </trkpt>
      <trkpt lat="43.51425" lon="2.49407">
        <ele>621.262</ele>
        <time>2021-05-22T12:34:33Z</time>
      </trkpt>
      <trkpt lat="43.51425" lon="2.49407">
        <ele>621.262</ele>
        <time>2021-05-22T12:34:35Z</time>
      </trkpt>
      <trkpt lat="43.51425" lon="2.49407">
        <ele>621.275</ele>
        <time>2021-05-22T12:34:37Z</time>
      </trkpt>
      <trkpt lat="43.51425" lon="2.49407">
        <ele>621.278</ele>
        <time>2021-05-22T12:34:39Z</time>
      </trkpt>
      <trkpt lat="43.51425" lon="2.49407">
        <ele>621.278</ele>
        <time>2021-05-22T12:34:41Z</time>
      </trkpt>
      <trkpt lat="43.51425" lon="2.49407">
        <ele>621.282</ele>
        <time>2021-05-22T12:34:43Z</time>
      </trkpt>
      <trkpt lat="43.51425" lon="2.49407">
        <ele>621.282</ele>
        <time>2021-05-22T12:34:45Z</time>
      </trkpt>
      <trkpt lat="43.51425" lon="2.49407">
        <ele>621.279</ele>
        <time>2021-05-22T12:34:47Z</time>
      </trkpt>
      <trkpt lat="43.51425" lon="2.49407">
        <ele>621.271</ele>
        <time>2021-05-22T12:34:49Z</time>
      </trkpt>
      <trkpt lat="43.51425" lon="2.49407">
        <ele>621.266</ele>
        <time>2021-05-22T12:34:51Z</time>
      </trkpt>
      <trkpt lat="43.51425" lon="2.49407">
        <ele>621.261</ele>
        <time>2021-05-22T12:34:53Z</time>
      </trkpt>
      <trkpt lat="43.51425" lon="2.49407">
        <ele>621.263</ele>
        <time>2021-05-22T12:34:55Z</time>
      </trkpt>
      <trkpt lat="43.51425" lon="2.49407">
        <ele>621.262</ele>
        <time>2021-05-22T12:34:57Z</time>
      </trkpt>
      <trkpt lat="43.51425" lon="2.49407">
        <ele>621.263</ele>
        <time>2021-05-22T12:34:59Z</time>
      </trkpt>
      <trkpt lat="43.51425" lon="2.49407">
        <ele>621.268</ele>
        <time>2021-05-22T12:35:01Z</time>
      </trkpt>
      <trkpt lat="43.51425" lon="2.49407">
        <ele>621.271</ele>
        <time>2021-05-22T12:35:03Z</time>
      </trkpt>
      <trkpt lat="43.51425" lon="2.49407">
        <ele>621.274</ele>
        <time>2021-05-22T12:35:05Z</time>
      </trkpt>
      <trkpt lat="43.51425" lon="2.49407">
        <ele>621.273</ele>
        <time>2021-05-22T12:35:07Z</time>
      </trkpt>
      <trkpt lat="43.51425" lon="2.49407">
        <ele>621.283</ele>
        <time>2021-05-22T12:35:09Z</time>
      </trkpt>
      <trkpt lat="43.51425" lon="2.49407">
        <ele>621.741</ele>
        <time>2021-05-22T12:35:11Z</time>
      </trkpt>
      <trkpt lat="43.51425" lon="2.49406">
        <ele>621.769</ele>
        <time>2021-05-22T12:35:13Z</time>
      </trkpt>
      <trkpt lat="43.51425" lon="2.49406">
        <ele>621.764</ele>
        <time>2021-05-22T12:35:15Z</time>
      </trkpt>
      <trkpt lat="43.51425" lon="2.49406">
        <ele>621.766</ele>
        <time>2021-05-22T12:35:17Z</time>
      </trkpt>
      <trkpt lat="43.51425" lon="2.49406">
        <ele>621.766</ele>
        <time>2021-05-22T12:35:19Z</time>
      </trkpt>
      <trkpt lat="43.51425" lon="2.49406">
        <ele>621.768</ele>
        <time>2021-05-22T12:35:21Z</time>
      </trkpt>
      <trkpt lat="43.51425" lon="2.49406">
        <ele>621.784</ele>
        <time>2021-05-22T12:35:23Z</time>
      </trkpt>
      <trkpt lat="43.51425" lon="2.49406">
        <ele>621.781</ele>
        <time>2021-05-22T12:35:25Z</time>
      </trkpt>
      <trkpt lat="43.51425" lon="2.49406">
        <ele>621.782</ele>
        <time>2021-05-22T12:35:27Z</time>
      </trkpt>
      <trkpt lat="43.51425" lon="2.49406">
        <ele>621.779</ele>
        <time>2021-05-22T12:35:29Z</time>
      </trkpt>
      <trkpt lat="43.51425" lon="2.49406">
        <ele>621.777</ele>
        <time>2021-05-22T12:35:31Z</time>
      </trkpt>
      <trkpt lat="43.51425" lon="2.49406">
        <ele>621.771</ele>
        <time>2021-05-22T12:35:33Z</time>
      </trkpt>
      <trkpt lat="43.51425" lon="2.49406">
        <ele>621.764</ele>
        <time>2021-05-22T12:35:35Z</time>
      </trkpt>
      <trkpt lat="43.51425" lon="2.49406">
        <ele>621.786</ele>
        <time>2021-05-22T12:35:37Z</time>
      </trkpt>
      <trkpt lat="43.51425" lon="2.49406">
        <ele>621.784</ele>
        <time>2021-05-22T12:35:39Z</time>
      </trkpt>
      <trkpt lat="43.51425" lon="2.49406">
        <ele>621.177</ele>
        <time>2021-05-22T12:35:41Z</time>
      </trkpt>
      <trkpt lat="43.51426" lon="2.49406">
        <ele>622.043</ele>
        <time>2021-05-22T12:35:43Z</time>
      </trkpt>
      <trkpt lat="43.51426" lon="2.49405">
        <ele>621.866</ele>
        <time>2021-05-22T12:35:45Z</time>
      </trkpt>
      <trkpt lat="43.51425" lon="2.49403">
        <ele>621.46</ele>
        <time>2021-05-22T12:35:47Z</time>
      </trkpt>
      <trkpt lat="43.51425" lon="2.49401">
        <ele>621.347</ele>
        <time>2021-05-22T12:35:49Z</time>
      </trkpt>
      <trkpt lat="43.51425" lon="2.49398">
        <ele>621.197</ele>
        <time>2021-05-22T12:35:51Z</time>
      </trkpt>
      <trkpt lat="43.51425" lon="2.49396">
        <ele>621.066</ele>
        <time>2021-05-22T12:35:53Z</time>
      </trkpt>
      <trkpt lat="43.51426" lon="2.49393">
        <ele>620.994</ele>
        <time>2021-05-22T12:35:55Z</time>
      </trkpt>
      <trkpt lat="43.51427" lon="2.49391">
        <ele>621.18</ele>
        <time>2021-05-22T12:35:57Z</time>
      </trkpt>
      <trkpt lat="43.51427" lon="2.49388">
        <ele>621.479</ele>
        <time>2021-05-22T12:35:59Z</time>
      </trkpt>
      <trkpt lat="43.51427" lon="2.49386">
        <ele>621.424</ele>
        <time>2021-05-22T12:36:01Z</time>
      </trkpt>
      <trkpt lat="43.51426" lon="2.49384">
        <ele>620.934</ele>
        <time>2021-05-22T12:36:03Z</time>
      </trkpt>
      <trkpt lat="43.51426" lon="2.49381">
        <ele>620.049</ele>
        <time>2021-05-22T12:36:05Z</time>
      </trkpt>
      <trkpt lat="43.51428" lon="2.49379">
        <ele>621.036</ele>
        <time>2021-05-22T12:36:07Z</time>
      </trkpt>
      <trkpt lat="43.51428" lon="2.49376">
        <ele>622.46</ele>
        <time>2021-05-22T12:36:09Z</time>
      </trkpt>
      <trkpt lat="43.51429" lon="2.49373">
        <ele>622.461</ele>
        <time>2021-05-22T12:36:11Z</time>
      </trkpt>
      <trkpt lat="43.51429" lon="2.4937">
        <ele>622.546</ele>
        <time>2021-05-22T12:36:13Z</time>
      </trkpt>
      <trkpt lat="43.5143" lon="2.49365">
        <ele>624.599</ele>
        <time>2021-05-22T12:36:15Z</time>
      </trkpt>
      <trkpt lat="43.5143" lon="2.49362">
        <ele>624.908</ele>
        <time>2021-05-22T12:36:17Z</time>
      </trkpt>
      <trkpt lat="43.51431" lon="2.49359">
        <ele>624.861</ele>
        <time>2021-05-22T12:36:19Z</time>
      </trkpt>
      <trkpt lat="43.5143" lon="2.49354">
        <ele>627.203</ele>
        <time>2021-05-22T12:36:21Z</time>
      </trkpt>
      <trkpt lat="43.51429" lon="2.49352">
        <ele>627.252</ele>
        <time>2021-05-22T12:36:23Z</time>
      </trkpt>
      <trkpt lat="43.51429" lon="2.49349">
        <ele>626.797</ele>
        <time>2021-05-22T12:36:25Z</time>
      </trkpt>
      <trkpt lat="43.5143" lon="2.49347">
        <ele>625.903</ele>
        <time>2021-05-22T12:36:27Z</time>
      </trkpt>
      <trkpt lat="43.5143" lon="2.49344">
        <ele>627.251</ele>
        <time>2021-05-22T12:36:29Z</time>
      </trkpt>
      <trkpt lat="43.5143" lon="2.49341">
        <ele>628.185</ele>
        <time>2021-05-22T12:36:31Z</time>
      </trkpt>
      <trkpt lat="43.51429" lon="2.49338">
        <ele>628.432</ele>
        <time>2021-05-22T12:36:33Z</time>
      </trkpt>
      <trkpt lat="43.51429" lon="2.49335">
        <ele>628.328</ele>
        <time>2021-05-22T12:36:35Z</time>
      </trkpt>
      <trkpt lat="43.51429" lon="2.49333">
        <ele>626.794</ele>
        <time>2021-05-22T12:36:37Z</time>
      </trkpt>
      <trkpt lat="43.51428" lon="2.4933">
        <ele>627.089</ele>
        <time>2021-05-22T12:36:39Z</time>
      </trkpt>
      <trkpt lat="43.51427" lon="2.49326">
        <ele>628.992</ele>
        <time>2021-05-22T12:36:41Z</time>
      </trkpt>
      <trkpt lat="43.51428" lon="2.49324">
        <ele>629.072</ele>
        <time>2021-05-22T12:36:43Z</time>
      </trkpt>
      <trkpt lat="43.51427" lon="2.4932">
        <ele>628.949</ele>
        <time>2021-05-22T12:36:45Z</time>
      </trkpt>
      <trkpt lat="43.51427" lon="2.49317">
        <ele>629.044</ele>
        <time>2021-05-22T12:36:47Z</time>
      </trkpt>
      <trkpt lat="43.51427" lon="2.49315">
        <ele>628.262</ele>
        <time>2021-05-22T12:36:49Z</time>
      </trkpt>
      <trkpt lat="43.51427" lon="2.49311">
        <ele>629.03</ele>
        <time>2021-05-22T12:36:51Z</time>
      </trkpt>
      <trkpt lat="43.51428" lon="2.49307">
        <ele>630.586</ele>
        <time>2021-05-22T12:36:53Z</time>
      </trkpt>
      <trkpt lat="43.51428" lon="2.49305">
        <ele>631.676</ele>
        <time>2021-05-22T12:36:54Z</time>
      </trkpt>
      <trkpt lat="43.51428" lon="2.49297">
        <ele>632.35</ele>
        <time>2021-05-22T12:36:58Z</time>
      </trkpt>
      <trkpt lat="43.51428" lon="2.49294">
        <ele>634.044</ele>
        <time>2021-05-22T12:37:00Z</time>
      </trkpt>
      <trkpt lat="43.51429" lon="2.49291">
        <ele>634.443</ele>
        <time>2021-05-22T12:37:02Z</time>
      </trkpt>
      <trkpt lat="43.51429" lon="2.49288">
        <ele>636.766</ele>
        <time>2021-05-22T12:37:04Z</time>
      </trkpt>
      <trkpt lat="43.51429" lon="2.49285">
        <ele>636.511</ele>
        <time>2021-05-22T12:37:06Z</time>
      </trkpt>
      <trkpt lat="43.51428" lon="2.49282">
        <ele>636.487</ele>
        <time>2021-05-22T12:37:08Z</time>
      </trkpt>
      <trkpt lat="43.51427" lon="2.49279">
        <ele>636.352</ele>
        <time>2021-05-22T12:37:10Z</time>
      </trkpt>
      <trkpt lat="43.51426" lon="2.49277">
        <ele>636.502</ele>
        <time>2021-05-22T12:37:12Z</time>
      </trkpt>
      <trkpt lat="43.51425" lon="2.49274">
        <ele>636.951</ele>
        <time>2021-05-22T12:37:14Z</time>
      </trkpt>
      <trkpt lat="43.51423" lon="2.49271">
        <ele>636.838</ele>
        <time>2021-05-22T12:37:16Z</time>
      </trkpt>
      <trkpt lat="43.51422" lon="2.49268">
        <ele>636.652</ele>
        <time>2021-05-22T12:37:18Z</time>
      </trkpt>
      <trkpt lat="43.51421" lon="2.49265">
        <ele>636.692</ele>
        <time>2021-05-22T12:37:20Z</time>
      </trkpt>
      <trkpt lat="43.51421" lon="2.49263">
        <ele>638.624</ele>
        <time>2021-05-22T12:37:22Z</time>
      </trkpt>
      <trkpt lat="43.5142" lon="2.4926">
        <ele>638.898</ele>
        <time>2021-05-22T12:37:24Z</time>
      </trkpt>
      <trkpt lat="43.51419" lon="2.49257">
        <ele>638.446</ele>
        <time>2021-05-22T12:37:26Z</time>
      </trkpt>
      <trkpt lat="43.51417" lon="2.49255">
        <ele>637.898</ele>
        <time>2021-05-22T12:37:28Z</time>
      </trkpt>
      <trkpt lat="43.51416" lon="2.49252">
        <ele>637.675</ele>
        <time>2021-05-22T12:37:30Z</time>
      </trkpt>
      <trkpt lat="43.51414" lon="2.49249">
        <ele>638.081</ele>
        <time>2021-05-22T12:37:32Z</time>
      </trkpt>
      <trkpt lat="43.51413" lon="2.49244">
        <ele>640.289</ele>
        <time>2021-05-22T12:37:34Z</time>
      </trkpt>
      <trkpt lat="43.51412" lon="2.49241">
        <ele>640.791</ele>
        <time>2021-05-22T12:37:36Z</time>
      </trkpt>
      <trkpt lat="43.51412" lon="2.49238">
        <ele>641.335</ele>
        <time>2021-05-22T12:37:38Z</time>
      </trkpt>
      <trkpt lat="43.51411" lon="2.49235">
        <ele>641.282</ele>
        <time>2021-05-22T12:37:40Z</time>
      </trkpt>
      <trkpt lat="43.5141" lon="2.49232">
        <ele>641.313</ele>
        <time>2021-05-22T12:37:42Z</time>
      </trkpt>
      <trkpt lat="43.51409" lon="2.49231">
        <ele>641.293</ele>
        <time>2021-05-22T12:37:43Z</time>
      </trkpt>
      <trkpt lat="43.51405" lon="2.49222">
        <ele>639.859</ele>
        <time>2021-05-22T12:37:50Z</time>
      </trkpt>
      <trkpt lat="43.51404" lon="2.49219">
        <ele>639.648</ele>
        <time>2021-05-22T12:37:52Z</time>
      </trkpt>
      <trkpt lat="43.51403" lon="2.49216">
        <ele>640.21</ele>
        <time>2021-05-22T12:37:54Z</time>
      </trkpt>
      <trkpt lat="43.51402" lon="2.49213">
        <ele>642.32</ele>
        <time>2021-05-22T12:37:56Z</time>
      </trkpt>
      <trkpt lat="43.51401" lon="2.4921">
        <ele>643.113</ele>
        <time>2021-05-22T12:37:58Z</time>
      </trkpt>
      <trkpt lat="43.51399" lon="2.49208">
        <ele>642.228</ele>
        <time>2021-05-22T12:38:00Z</time>
      </trkpt>
      <trkpt lat="43.51398" lon="2.49205">
        <ele>642.285</ele>
        <time>2021-05-22T12:38:02Z</time>
      </trkpt>
      <trkpt lat="43.51396" lon="2.49202">
        <ele>641.714</ele>
        <time>2021-05-22T12:38:04Z</time>
      </trkpt>
      <trkpt lat="43.51395" lon="2.49198">
        <ele>642.407</ele>
        <time>2021-05-22T12:38:06Z</time>
      </trkpt>
      <trkpt lat="43.51395" lon="2.49194">
        <ele>644.452</ele>
        <time>2021-05-22T12:38:08Z</time>
      </trkpt>
      <trkpt lat="43.51392" lon="2.49191">
        <ele>644.782</ele>
        <time>2021-05-22T12:38:10Z</time>
      </trkpt>
      <trkpt lat="43.51391" lon="2.49187">
        <ele>646.1</ele>
        <time>2021-05-22T12:38:12Z</time>
      </trkpt>
      <trkpt lat="43.5139" lon="2.49184">
        <ele>646.807</ele>
        <time>2021-05-22T12:38:14Z</time>
      </trkpt>
      <trkpt lat="43.51389" lon="2.49183">
        <ele>646.747</ele>
        <time>2021-05-22T12:38:16Z</time>
      </trkpt>
      <trkpt lat="43.51387" lon="2.49181">
        <ele>645.054</ele>
        <time>2021-05-22T12:38:18Z</time>
      </trkpt>
      <trkpt lat="43.51386" lon="2.49178">
        <ele>646.347</ele>
        <time>2021-05-22T12:38:20Z</time>
      </trkpt>
      <trkpt lat="43.51385" lon="2.49176">
        <ele>646.807</ele>
        <time>2021-05-22T12:38:22Z</time>
      </trkpt>
      <trkpt lat="43.51383" lon="2.49174">
        <ele>646.255</ele>
        <time>2021-05-22T12:38:24Z</time>
      </trkpt>
      <trkpt lat="43.51382" lon="2.49172">
        <ele>646.247</ele>
        <time>2021-05-22T12:38:26Z</time>
      </trkpt>
      <trkpt lat="43.51381" lon="2.4917">
        <ele>647.465</ele>
        <time>2021-05-22T12:38:28Z</time>
      </trkpt>
      <trkpt lat="43.51379" lon="2.49167">
        <ele>648.777</ele>
        <time>2021-05-22T12:38:30Z</time>
      </trkpt>
      <trkpt lat="43.51377" lon="2.49165">
        <ele>648.649</ele>
        <time>2021-05-22T12:38:32Z</time>
      </trkpt>
      <trkpt lat="43.51376" lon="2.49162">
        <ele>648.706</ele>
        <time>2021-05-22T12:38:34Z</time>
      </trkpt>
      <trkpt lat="43.51375" lon="2.4916">
        <ele>648.158</ele>
        <time>2021-05-22T12:38:36Z</time>
      </trkpt>
      <trkpt lat="43.51372" lon="2.49158">
        <ele>647.695</ele>
        <time>2021-05-22T12:38:38Z</time>
      </trkpt>
      <trkpt lat="43.51369" lon="2.49157">
        <ele>644.784</ele>
        <time>2021-05-22T12:38:40Z</time>
      </trkpt>
      <trkpt lat="43.51367" lon="2.49155">
        <ele>644.907</ele>
        <time>2021-05-22T12:38:42Z</time>
      </trkpt>
      <trkpt lat="43.51366" lon="2.49153">
        <ele>644.804</ele>
        <time>2021-05-22T12:38:43Z</time>
      </trkpt>
      <trkpt lat="43.51362" lon="2.4915">
        <ele>643.445</ele>
        <time>2021-05-22T12:38:46Z</time>
      </trkpt>
      <trkpt lat="43.51359" lon="2.49148">
        <ele>642.955</ele>
        <time>2021-05-22T12:38:48Z</time>
      </trkpt>
      <trkpt lat="43.51357" lon="2.49146">
        <ele>642.865</ele>
        <time>2021-05-22T12:38:50Z</time>
      </trkpt>
      <trkpt lat="43.51356" lon="2.49143">
        <ele>644.629</ele>
        <time>2021-05-22T12:38:52Z</time>
      </trkpt>
      <trkpt lat="43.51353" lon="2.49142">
        <ele>642.708</ele>
        <time>2021-05-22T12:38:54Z</time>
      </trkpt>
      <trkpt lat="43.51351" lon="2.49141">
        <ele>639.913</ele>
        <time>2021-05-22T12:38:56Z</time>
      </trkpt>
      <trkpt lat="43.51349" lon="2.4914">
        <ele>637.444</ele>
        <time>2021-05-22T12:38:58Z</time>
      </trkpt>
      <trkpt lat="43.51346" lon="2.49138">
        <ele>637.404</ele>
        <time>2021-05-22T12:39:00Z</time>
      </trkpt>
      <trkpt lat="43.51344" lon="2.49135">
        <ele>638.383</ele>
        <time>2021-05-22T12:39:02Z</time>
      </trkpt>
      <trkpt lat="43.51341" lon="2.49133">
        <ele>638.796</ele>
        <time>2021-05-22T12:39:04Z</time>
      </trkpt>
      <trkpt lat="43.51338" lon="2.49132">
        <ele>640.051</ele>
        <time>2021-05-22T12:39:06Z</time>
      </trkpt>
      <trkpt lat="43.51336" lon="2.49131">
        <ele>640.518</ele>
        <time>2021-05-22T12:39:08Z</time>
      </trkpt>
      <trkpt lat="43.51334" lon="2.4913">
        <ele>639.76</ele>
        <time>2021-05-22T12:39:10Z</time>
      </trkpt>
      <trkpt lat="43.51332" lon="2.49129">
        <ele>639.829</ele>
        <time>2021-05-22T12:39:12Z</time>
      </trkpt>
      <trkpt lat="43.51329" lon="2.49128">
        <ele>639.706</ele>
        <time>2021-05-22T12:39:14Z</time>
      </trkpt>
      <trkpt lat="43.51327" lon="2.49127">
        <ele>640.155</ele>
        <time>2021-05-22T12:39:16Z</time>
      </trkpt>
      <trkpt lat="43.51325" lon="2.49126">
        <ele>638.664</ele>
        <time>2021-05-22T12:39:18Z</time>
      </trkpt>
      <trkpt lat="43.51323" lon="2.49125">
        <ele>638.55</ele>
        <time>2021-05-22T12:39:20Z</time>
      </trkpt>
      <trkpt lat="43.51321" lon="2.49125">
        <ele>639.106</ele>
        <time>2021-05-22T12:39:22Z</time>
      </trkpt>
      <trkpt lat="43.51319" lon="2.49124">
        <ele>639.713</ele>
        <time>2021-05-22T12:39:24Z</time>
      </trkpt>
      <trkpt lat="43.51317" lon="2.49123">
        <ele>639.912</ele>
        <time>2021-05-22T12:39:26Z</time>
      </trkpt>
      <trkpt lat="43.51314" lon="2.49123">
        <ele>640.335</ele>
        <time>2021-05-22T12:39:28Z</time>
      </trkpt>
      <trkpt lat="43.51312" lon="2.49123">
        <ele>640.291</ele>
        <time>2021-05-22T12:39:30Z</time>
      </trkpt>
      <trkpt lat="43.51311" lon="2.49124">
        <ele>639.411</ele>
        <time>2021-05-22T12:39:32Z</time>
      </trkpt>
      <trkpt lat="43.51309" lon="2.49126">
        <ele>638.993</ele>
        <time>2021-05-22T12:39:34Z</time>
      </trkpt>
      <trkpt lat="43.51307" lon="2.49127">
        <ele>639.245</ele>
        <time>2021-05-22T12:39:36Z</time>
      </trkpt>
      <trkpt lat="43.51305" lon="2.49126">
        <ele>639.284</ele>
        <time>2021-05-22T12:39:38Z</time>
      </trkpt>
      <trkpt lat="43.51304" lon="2.49124">
        <ele>639.31</ele>
        <time>2021-05-22T12:39:40Z</time>
      </trkpt>
      <trkpt lat="43.51302" lon="2.49123">
        <ele>639.567</ele>
        <time>2021-05-22T12:39:42Z</time>
      </trkpt>
      <trkpt lat="43.513" lon="2.49122">
        <ele>639.463</ele>
        <time>2021-05-22T12:39:44Z</time>
      </trkpt>
      <trkpt lat="43.51299" lon="2.49121">
        <ele>638.756</ele>
        <time>2021-05-22T12:39:46Z</time>
      </trkpt>
      <trkpt lat="43.51297" lon="2.49121">
        <ele>638.55</ele>
        <time>2021-05-22T12:39:48Z</time>
      </trkpt>
      <trkpt lat="43.51295" lon="2.49121">
        <ele>638.852</ele>
        <time>2021-05-22T12:39:50Z</time>
      </trkpt>
      <trkpt lat="43.51293" lon="2.4912">
        <ele>638.019</ele>
        <time>2021-05-22T12:39:52Z</time>
      </trkpt>
      <trkpt lat="43.51292" lon="2.49119">
        <ele>637.617</ele>
        <time>2021-05-22T12:39:54Z</time>
      </trkpt>
      <trkpt lat="43.5129" lon="2.49118">
        <ele>637.628</ele>
        <time>2021-05-22T12:39:56Z</time>
      </trkpt>
      <trkpt lat="43.51288" lon="2.49117">
        <ele>637.393</ele>
        <time>2021-05-22T12:39:58Z</time>
      </trkpt>
      <trkpt lat="43.51287" lon="2.49117">
        <ele>637.193</ele>
        <time>2021-05-22T12:40:00Z</time>
      </trkpt>
      <trkpt lat="43.51284" lon="2.49116">
        <ele>638.476</ele>
        <time>2021-05-22T12:40:02Z</time>
      </trkpt>
      <trkpt lat="43.51281" lon="2.49115">
        <ele>638.541</ele>
        <time>2021-05-22T12:40:04Z</time>
      </trkpt>
      <trkpt lat="43.51278" lon="2.49114">
        <ele>637.592</ele>
        <time>2021-05-22T12:40:06Z</time>
      </trkpt>
      <trkpt lat="43.51275" lon="2.49112">
        <ele>638.236</ele>
        <time>2021-05-22T12:40:08Z</time>
      </trkpt>
      <trkpt lat="43.51273" lon="2.49111">
        <ele>638.41</ele>
        <time>2021-05-22T12:40:10Z</time>
      </trkpt>
      <trkpt lat="43.51271" lon="2.49112">
        <ele>636.651</ele>
        <time>2021-05-22T12:40:12Z</time>
      </trkpt>
      <trkpt lat="43.51269" lon="2.49112">
        <ele>635.121</ele>
        <time>2021-05-22T12:40:14Z</time>
      </trkpt>
      <trkpt lat="43.51267" lon="2.49111">
        <ele>634.24</ele>
        <time>2021-05-22T12:40:16Z</time>
      </trkpt>
      <trkpt lat="43.51264" lon="2.49112">
        <ele>633.753</ele>
        <time>2021-05-22T12:40:18Z</time>
      </trkpt>
      <trkpt lat="43.51262" lon="2.49112">
        <ele>633.029</ele>
        <time>2021-05-22T12:40:20Z</time>
      </trkpt>
      <trkpt lat="43.51259" lon="2.49112">
        <ele>632.349</ele>
        <time>2021-05-22T12:40:22Z</time>
      </trkpt>
      <trkpt lat="43.51257" lon="2.49112">
        <ele>632.267</ele>
        <time>2021-05-22T12:40:24Z</time>
      </trkpt>
      <trkpt lat="43.51254" lon="2.49111">
        <ele>631.586</ele>
        <time>2021-05-22T12:40:26Z</time>
      </trkpt>
      <trkpt lat="43.51252" lon="2.49111">
        <ele>631.011</ele>
        <time>2021-05-22T12:40:28Z</time>
      </trkpt>
      <trkpt lat="43.51249" lon="2.4911">
        <ele>631.685</ele>
        <time>2021-05-22T12:40:30Z</time>
      </trkpt>
      <trkpt lat="43.51246" lon="2.4911">
        <ele>631.165</ele>
        <time>2021-05-22T12:40:32Z</time>
      </trkpt>
      <trkpt lat="43.51244" lon="2.4911">
        <ele>630.639</ele>
        <time>2021-05-22T12:40:34Z</time>
      </trkpt>
      <trkpt lat="43.51241" lon="2.49109">
        <ele>630.579</ele>
        <time>2021-05-22T12:40:36Z</time>
      </trkpt>
      <trkpt lat="43.51239" lon="2.49109">
        <ele>630.131</ele>
        <time>2021-05-22T12:40:38Z</time>
      </trkpt>
      <trkpt lat="43.51235" lon="2.49109">
        <ele>630.651</ele>
        <time>2021-05-22T12:40:40Z</time>
      </trkpt>
      <trkpt lat="43.51233" lon="2.4911">
        <ele>630.628</ele>
        <time>2021-05-22T12:40:42Z</time>
      </trkpt>
      <trkpt lat="43.51231" lon="2.49111">
        <ele>631.729</ele>
        <time>2021-05-22T12:40:44Z</time>
      </trkpt>
      <trkpt lat="43.51228" lon="2.49112">
        <ele>632.883</ele>
        <time>2021-05-22T12:40:46Z</time>
      </trkpt>
      <trkpt lat="43.51226" lon="2.49113">
        <ele>631.372</ele>
        <time>2021-05-22T12:40:48Z</time>
      </trkpt>
      <trkpt lat="43.51224" lon="2.49113">
        <ele>631.375</ele>
        <time>2021-05-22T12:40:50Z</time>
      </trkpt>
      <trkpt lat="43.51222" lon="2.49114">
        <ele>630.607</ele>
        <time>2021-05-22T12:40:52Z</time>
      </trkpt>
      <trkpt lat="43.51219" lon="2.49116">
        <ele>630.984</ele>
        <time>2021-05-22T12:40:54Z</time>
      </trkpt>
      <trkpt lat="43.51217" lon="2.49116">
        <ele>631.707</ele>
        <time>2021-05-22T12:40:56Z</time>
      </trkpt>
      <trkpt lat="43.51215" lon="2.49117">
        <ele>630.813</ele>
        <time>2021-05-22T12:40:58Z</time>
      </trkpt>
      <trkpt lat="43.51212" lon="2.49117">
        <ele>631.479</ele>
        <time>2021-05-22T12:41:00Z</time>
      </trkpt>
      <trkpt lat="43.5121" lon="2.49119">
        <ele>631.479</ele>
        <time>2021-05-22T12:41:02Z</time>
      </trkpt>
      <trkpt lat="43.51207" lon="2.4912">
        <ele>631.026</ele>
        <time>2021-05-22T12:41:04Z</time>
      </trkpt>
      <trkpt lat="43.51204" lon="2.49122">
        <ele>630.766</ele>
        <time>2021-05-22T12:41:06Z</time>
      </trkpt>
      <trkpt lat="43.51202" lon="2.49124">
        <ele>629.528</ele>
        <time>2021-05-22T12:41:08Z</time>
      </trkpt>
      <trkpt lat="43.512" lon="2.49126">
        <ele>628.816</ele>
        <time>2021-05-22T12:41:10Z</time>
      </trkpt>
      <trkpt lat="43.51197" lon="2.49127">
        <ele>629.328</ele>
        <time>2021-05-22T12:41:12Z</time>
      </trkpt>
      <trkpt lat="43.51195" lon="2.49128">
        <ele>629.57</ele>
        <time>2021-05-22T12:41:14Z</time>
      </trkpt>
      <trkpt lat="43.51193" lon="2.49131">
        <ele>628.12</ele>
        <time>2021-05-22T12:41:16Z</time>
      </trkpt>
      <trkpt lat="43.51191" lon="2.49132">
        <ele>627.117</ele>
        <time>2021-05-22T12:41:18Z</time>
      </trkpt>
      <trkpt lat="43.51188" lon="2.49133">
        <ele>626.88</ele>
        <time>2021-05-22T12:41:20Z</time>
      </trkpt>
      <trkpt lat="43.51186" lon="2.49134">
        <ele>626.734</ele>
        <time>2021-05-22T12:41:22Z</time>
      </trkpt>
      <trkpt lat="43.51183" lon="2.49136">
        <ele>627.648</ele>
        <time>2021-05-22T12:41:24Z</time>
      </trkpt>
      <trkpt lat="43.5118" lon="2.49137">
        <ele>627.78</ele>
        <time>2021-05-22T12:41:26Z</time>
      </trkpt>
      <trkpt lat="43.51178" lon="2.49138">
        <ele>628.048</ele>
        <time>2021-05-22T12:41:28Z</time>
      </trkpt>
      <trkpt lat="43.51174" lon="2.4914">
        <ele>630.215</ele>
        <time>2021-05-22T12:41:30Z</time>
      </trkpt>
      <trkpt lat="43.51172" lon="2.49141">
        <ele>629.605</ele>
        <time>2021-05-22T12:41:32Z</time>
      </trkpt>
      <trkpt lat="43.5117" lon="2.49142">
        <ele>630.111</ele>
        <time>2021-05-22T12:41:34Z</time>
      </trkpt>
      <trkpt lat="43.51169" lon="2.49143">
        <ele>628.93</ele>
        <time>2021-05-22T12:41:36Z</time>
      </trkpt>
      <trkpt lat="43.51167" lon="2.49145">
        <ele>628.131</ele>
        <time>2021-05-22T12:41:38Z</time>
      </trkpt>
      <trkpt lat="43.51165" lon="2.49148">
        <ele>628.645</ele>
        <time>2021-05-22T12:41:40Z</time>
      </trkpt>
      <trkpt lat="43.51163" lon="2.4915">
        <ele>628.482</ele>
        <time>2021-05-22T12:41:42Z</time>
      </trkpt>
      <trkpt lat="43.51161" lon="2.49151">
        <ele>630.474</ele>
        <time>2021-05-22T12:41:44Z</time>
      </trkpt>
      <trkpt lat="43.51159" lon="2.49153">
        <ele>630.797</ele>
        <time>2021-05-22T12:41:46Z</time>
      </trkpt>
      <trkpt lat="43.51157" lon="2.49155">
        <ele>630.347</ele>
        <time>2021-05-22T12:41:48Z</time>
      </trkpt>
      <trkpt lat="43.51155" lon="2.49157">
        <ele>630.838</ele>
        <time>2021-05-22T12:41:50Z</time>
      </trkpt>
      <trkpt lat="43.51153" lon="2.49159">
        <ele>630.723</ele>
        <time>2021-05-22T12:41:52Z</time>
      </trkpt>
      <trkpt lat="43.51151" lon="2.49161">
        <ele>629.916</ele>
        <time>2021-05-22T12:41:54Z</time>
      </trkpt>
      <trkpt lat="43.51149" lon="2.49163">
        <ele>629.248</ele>
        <time>2021-05-22T12:41:56Z</time>
      </trkpt>
      <trkpt lat="43.51147" lon="2.49165">
        <ele>627.665</ele>
        <time>2021-05-22T12:41:58Z</time>
      </trkpt>
      <trkpt lat="43.51145" lon="2.49167">
        <ele>627.468</ele>
        <time>2021-05-22T12:42:00Z</time>
      </trkpt>
      <trkpt lat="43.51143" lon="2.49169">
        <ele>626.905</ele>
        <time>2021-05-22T12:42:02Z</time>
      </trkpt>
      <trkpt lat="43.51142" lon="2.49172">
        <ele>627.084</ele>
        <time>2021-05-22T12:42:04Z</time>
      </trkpt>
      <trkpt lat="43.51141" lon="2.49174">
        <ele>626.928</ele>
        <time>2021-05-22T12:42:06Z</time>
      </trkpt>
      <trkpt lat="43.51139" lon="2.49175">
        <ele>626.196</ele>
        <time>2021-05-22T12:42:08Z</time>
      </trkpt>
      <trkpt lat="43.51137" lon="2.49176">
        <ele>626.853</ele>
        <time>2021-05-22T12:42:10Z</time>
      </trkpt>
      <trkpt lat="43.51135" lon="2.49178">
        <ele>627.158</ele>
        <time>2021-05-22T12:42:12Z</time>
      </trkpt>
      <trkpt lat="43.51133" lon="2.4918">
        <ele>627.131</ele>
        <time>2021-05-22T12:42:14Z</time>
      </trkpt>
      <trkpt lat="43.51131" lon="2.49182">
        <ele>627.938</ele>
        <time>2021-05-22T12:42:16Z</time>
      </trkpt>
      <trkpt lat="43.5113" lon="2.49182">
        <ele>628.559</ele>
        <time>2021-05-22T12:42:18Z</time>
      </trkpt>
      <trkpt lat="43.51128" lon="2.49183">
        <ele>628.4</ele>
        <time>2021-05-22T12:42:20Z</time>
      </trkpt>
      <trkpt lat="43.51125" lon="2.49185">
        <ele>628.89</ele>
        <time>2021-05-22T12:42:22Z</time>
      </trkpt>
      <trkpt lat="43.51123" lon="2.49185">
        <ele>628.997</ele>
        <time>2021-05-22T12:42:24Z</time>
      </trkpt>
      <trkpt lat="43.51121" lon="2.49186">
        <ele>629.265</ele>
        <time>2021-05-22T12:42:26Z</time>
      </trkpt>
      <trkpt lat="43.51119" lon="2.49187">
        <ele>629.496</ele>
        <time>2021-05-22T12:42:28Z</time>
      </trkpt>
      <trkpt lat="43.51117" lon="2.49188">
        <ele>629.097</ele>
        <time>2021-05-22T12:42:30Z</time>
      </trkpt>
      <trkpt lat="43.51115" lon="2.49189">
        <ele>627.962</ele>
        <time>2021-05-22T12:42:32Z</time>
      </trkpt>
      <trkpt lat="43.51113" lon="2.49191">
        <ele>628.796</ele>
        <time>2021-05-22T12:42:34Z</time>
      </trkpt>
      <trkpt lat="43.5111" lon="2.49191">
        <ele>628.492</ele>
        <time>2021-05-22T12:42:36Z</time>
      </trkpt>
      <trkpt lat="43.51106" lon="2.49193">
        <ele>629.288</ele>
        <time>2021-05-22T12:42:38Z</time>
      </trkpt>
      <trkpt lat="43.51104" lon="2.49193">
        <ele>630.027</ele>
        <time>2021-05-22T12:42:40Z</time>
      </trkpt>
      <trkpt lat="43.51102" lon="2.49194">
        <ele>630.685</ele>
        <time>2021-05-22T12:42:42Z</time>
      </trkpt>
      <trkpt lat="43.51099" lon="2.49195">
        <ele>633.888</ele>
        <time>2021-05-22T12:42:44Z</time>
      </trkpt>
      <trkpt lat="43.51099" lon="2.49194">
        <ele>633.586</ele>
        <time>2021-05-22T12:42:46Z</time>
      </trkpt>
      <trkpt lat="43.51095" lon="2.49194">
        <ele>634.24</ele>
        <time>2021-05-22T12:42:48Z</time>
      </trkpt>
      <trkpt lat="43.51096" lon="2.49194">
        <ele>631.885</ele>
        <time>2021-05-22T12:42:50Z</time>
      </trkpt>
      <trkpt lat="43.51097" lon="2.49193">
        <ele>631.713</ele>
        <time>2021-05-22T12:42:52Z</time>
      </trkpt>
      <trkpt lat="43.51097" lon="2.49192">
        <ele>630.466</ele>
        <time>2021-05-22T12:42:54Z</time>
      </trkpt>
      <trkpt lat="43.51098" lon="2.4919">
        <ele>630.346</ele>
        <time>2021-05-22T12:42:56Z</time>
      </trkpt>
      <trkpt lat="43.51097" lon="2.49187">
        <ele>631.32</ele>
        <time>2021-05-22T12:42:58Z</time>
      </trkpt>
      <trkpt lat="43.51097" lon="2.49184">
        <ele>630.131</ele>
        <time>2021-05-22T12:43:00Z</time>
      </trkpt>
      <trkpt lat="43.51096" lon="2.49181">
        <ele>629.609</ele>
        <time>2021-05-22T12:43:02Z</time>
      </trkpt>
      <trkpt lat="43.51097" lon="2.49179">
        <ele>628.373</ele>
        <time>2021-05-22T12:43:04Z</time>
      </trkpt>
      <trkpt lat="43.51096" lon="2.49177">
        <ele>627.673</ele>
        <time>2021-05-22T12:43:06Z</time>
      </trkpt>
      <trkpt lat="43.51095" lon="2.49174">
        <ele>627.463</ele>
        <time>2021-05-22T12:43:08Z</time>
      </trkpt>
      <trkpt lat="43.51095" lon="2.49171">
        <ele>628.204</ele>
        <time>2021-05-22T12:43:10Z</time>
      </trkpt>
      <trkpt lat="43.51093" lon="2.49168">
        <ele>627.689</ele>
        <time>2021-05-22T12:43:12Z</time>
      </trkpt>
      <trkpt lat="43.51093" lon="2.49164">
        <ele>626.595</ele>
        <time>2021-05-22T12:43:14Z</time>
      </trkpt>
      <trkpt lat="43.51094" lon="2.49161">
        <ele>626.273</ele>
        <time>2021-05-22T12:43:16Z</time>
      </trkpt>
      <trkpt lat="43.51093" lon="2.49159">
        <ele>624.965</ele>
        <time>2021-05-22T12:43:18Z</time>
      </trkpt>
      <trkpt lat="43.51094" lon="2.49156">
        <ele>623.728</ele>
        <time>2021-05-22T12:43:20Z</time>
      </trkpt>
      <trkpt lat="43.51094" lon="2.49153">
        <ele>623.589</ele>
        <time>2021-05-22T12:43:22Z</time>
      </trkpt>
      <trkpt lat="43.51094" lon="2.49151">
        <ele>623.128</ele>
        <time>2021-05-22T12:43:24Z</time>
      </trkpt>
      <trkpt lat="43.51093" lon="2.49148">
        <ele>622.41</ele>
        <time>2021-05-22T12:43:26Z</time>
      </trkpt>
      <trkpt lat="43.51092" lon="2.49146">
        <ele>620.742</ele>
        <time>2021-05-22T12:43:28Z</time>
      </trkpt>
      <trkpt lat="43.51091" lon="2.49143">
        <ele>620.41</ele>
        <time>2021-05-22T12:43:30Z</time>
      </trkpt>
      <trkpt lat="43.51091" lon="2.4914">
        <ele>618.801</ele>
        <time>2021-05-22T12:43:32Z</time>
      </trkpt>
      <trkpt lat="43.51091" lon="2.49137">
        <ele>618.472</ele>
        <time>2021-05-22T12:43:34Z</time>
      </trkpt>
      <trkpt lat="43.51091" lon="2.49133">
        <ele>617.624</ele>
        <time>2021-05-22T12:43:36Z</time>
      </trkpt>
      <trkpt lat="43.51091" lon="2.4913">
        <ele>616.167</ele>
        <time>2021-05-22T12:43:38Z</time>
      </trkpt>
      <trkpt lat="43.51091" lon="2.49128">
        <ele>612.856</ele>
        <time>2021-05-22T12:43:40Z</time>
      </trkpt>
      <trkpt lat="43.5109" lon="2.49125">
        <ele>611.802</ele>
        <time>2021-05-22T12:43:42Z</time>
      </trkpt>
      <trkpt lat="43.5109" lon="2.49122">
        <ele>610.528</ele>
        <time>2021-05-22T12:43:44Z</time>
      </trkpt>
      <trkpt lat="43.51089" lon="2.49118">
        <ele>611.619</ele>
        <time>2021-05-22T12:43:46Z</time>
      </trkpt>
      <trkpt lat="43.51089" lon="2.49114">
        <ele>613.094</ele>
        <time>2021-05-22T12:43:48Z</time>
      </trkpt>
      <trkpt lat="43.51088" lon="2.49111">
        <ele>612.612</ele>
        <time>2021-05-22T12:43:50Z</time>
      </trkpt>
      <trkpt lat="43.51087" lon="2.49107">
        <ele>612.387</ele>
        <time>2021-05-22T12:43:52Z</time>
      </trkpt>
      <trkpt lat="43.51087" lon="2.49105">
        <ele>611.16</ele>
        <time>2021-05-22T12:43:54Z</time>
      </trkpt>
      <trkpt lat="43.51085" lon="2.49102">
        <ele>609.996</ele>
        <time>2021-05-22T12:43:56Z</time>
      </trkpt>
      <trkpt lat="43.51084" lon="2.49099">
        <ele>610.879</ele>
        <time>2021-05-22T12:43:58Z</time>
      </trkpt>
      <trkpt lat="43.51083" lon="2.49096">
        <ele>610.531</ele>
        <time>2021-05-22T12:44:00Z</time>
      </trkpt>
      <trkpt lat="43.51081" lon="2.49093">
        <ele>610.525</ele>
        <time>2021-05-22T12:44:02Z</time>
      </trkpt>
      <trkpt lat="43.51079" lon="2.49089">
        <ele>610.775</ele>
        <time>2021-05-22T12:44:04Z</time>
      </trkpt>
      <trkpt lat="43.51079" lon="2.49086">
        <ele>610.355</ele>
        <time>2021-05-22T12:44:06Z</time>
      </trkpt>
      <trkpt lat="43.51078" lon="2.49083">
        <ele>609.219</ele>
        <time>2021-05-22T12:44:08Z</time>
      </trkpt>
      <trkpt lat="43.51077" lon="2.49081">
        <ele>609.217</ele>
        <time>2021-05-22T12:44:10Z</time>
      </trkpt>
      <trkpt lat="43.51075" lon="2.49078">
        <ele>608.166</ele>
        <time>2021-05-22T12:44:12Z</time>
      </trkpt>
      <trkpt lat="43.51074" lon="2.49075">
        <ele>608.509</ele>
        <time>2021-05-22T12:44:14Z</time>
      </trkpt>
      <trkpt lat="43.51072" lon="2.49072">
        <ele>608.814</ele>
        <time>2021-05-22T12:44:16Z</time>
      </trkpt>
      <trkpt lat="43.5107" lon="2.49069">
        <ele>609.436</ele>
        <time>2021-05-22T12:44:18Z</time>
      </trkpt>
      <trkpt lat="43.51069" lon="2.49064">
        <ele>608.936</ele>
        <time>2021-05-22T12:44:20Z</time>
      </trkpt>
      <trkpt lat="43.51068" lon="2.49061">
        <ele>608.35</ele>
        <time>2021-05-22T12:44:22Z</time>
      </trkpt>
      <trkpt lat="43.51067" lon="2.49059">
        <ele>607.289</ele>
        <time>2021-05-22T12:44:24Z</time>
      </trkpt>
      <trkpt lat="43.51065" lon="2.49056">
        <ele>607.487</ele>
        <time>2021-05-22T12:44:26Z</time>
      </trkpt>
      <trkpt lat="43.51064" lon="2.49053">
        <ele>606.115</ele>
        <time>2021-05-22T12:44:28Z</time>
      </trkpt>
      <trkpt lat="43.51064" lon="2.49049">
        <ele>604.41</ele>
        <time>2021-05-22T12:44:30Z</time>
      </trkpt>
      <trkpt lat="43.51062" lon="2.49045">
        <ele>603.648</ele>
        <time>2021-05-22T12:44:32Z</time>
      </trkpt>
      <trkpt lat="43.51061" lon="2.49042">
        <ele>602.948</ele>
        <time>2021-05-22T12:44:34Z</time>
      </trkpt>
      <trkpt lat="43.5106" lon="2.4904">
        <ele>602.488</ele>
        <time>2021-05-22T12:44:36Z</time>
      </trkpt>
      <trkpt lat="43.51059" lon="2.49037">
        <ele>601.7</ele>
        <time>2021-05-22T12:44:38Z</time>
      </trkpt>
      <trkpt lat="43.51058" lon="2.49034">
        <ele>601.311</ele>
        <time>2021-05-22T12:44:40Z</time>
      </trkpt>
      <trkpt lat="43.51057" lon="2.49032">
        <ele>601.054</ele>
        <time>2021-05-22T12:44:42Z</time>
      </trkpt>
      <trkpt lat="43.51055" lon="2.49029">
        <ele>600.247</ele>
        <time>2021-05-22T12:44:44Z</time>
      </trkpt>
      <trkpt lat="43.51054" lon="2.49026">
        <ele>599.624</ele>
        <time>2021-05-22T12:44:46Z</time>
      </trkpt>
      <trkpt lat="43.51053" lon="2.49023">
        <ele>599.603</ele>
        <time>2021-05-22T12:44:48Z</time>
      </trkpt>
      <trkpt lat="43.51052" lon="2.4902">
        <ele>599.567</ele>
        <time>2021-05-22T12:44:50Z</time>
      </trkpt>
      <trkpt lat="43.51051" lon="2.49017">
        <ele>599.043</ele>
        <time>2021-05-22T12:44:52Z</time>
      </trkpt>
      <trkpt lat="43.5105" lon="2.49014">
        <ele>598.472</ele>
        <time>2021-05-22T12:44:54Z</time>
      </trkpt>
      <trkpt lat="43.51049" lon="2.49011">
        <ele>597.824</ele>
        <time>2021-05-22T12:44:56Z</time>
      </trkpt>
      <trkpt lat="43.51048" lon="2.49008">
        <ele>597.336</ele>
        <time>2021-05-22T12:44:58Z</time>
      </trkpt>
      <trkpt lat="43.51047" lon="2.49004">
        <ele>598.11</ele>
        <time>2021-05-22T12:45:00Z</time>
      </trkpt>
      <trkpt lat="43.51045" lon="2.49001">
        <ele>598.885</ele>
        <time>2021-05-22T12:45:02Z</time>
      </trkpt>
      <trkpt lat="43.51044" lon="2.48998">
        <ele>598.147</ele>
        <time>2021-05-22T12:45:04Z</time>
      </trkpt>
      <trkpt lat="43.51042" lon="2.48995">
        <ele>597.337</ele>
        <time>2021-05-22T12:45:06Z</time>
      </trkpt>
      <trkpt lat="43.51041" lon="2.48991">
        <ele>597.161</ele>
        <time>2021-05-22T12:45:08Z</time>
      </trkpt>
      <trkpt lat="43.51039" lon="2.48987">
        <ele>598.092</ele>
        <time>2021-05-22T12:45:10Z</time>
      </trkpt>
      <trkpt lat="43.51038" lon="2.48983">
        <ele>598.5</ele>
        <time>2021-05-22T12:45:12Z</time>
      </trkpt>
      <trkpt lat="43.51037" lon="2.4898">
        <ele>598.463</ele>
        <time>2021-05-22T12:45:14Z</time>
      </trkpt>
      <trkpt lat="43.51036" lon="2.48976">
        <ele>597.564</ele>
        <time>2021-05-22T12:45:16Z</time>
      </trkpt>
      <trkpt lat="43.51035" lon="2.48973">
        <ele>597.831</ele>
        <time>2021-05-22T12:45:18Z</time>
      </trkpt>
      <trkpt lat="43.51034" lon="2.48969">
        <ele>597.985</ele>
        <time>2021-05-22T12:45:20Z</time>
      </trkpt>
      <trkpt lat="43.51033" lon="2.48966">
        <ele>598.324</ele>
        <time>2021-05-22T12:45:22Z</time>
      </trkpt>
      <trkpt lat="43.51032" lon="2.48963">
        <ele>597.977</ele>
        <time>2021-05-22T12:45:24Z</time>
      </trkpt>
      <trkpt lat="43.51031" lon="2.4896">
        <ele>597.612</ele>
        <time>2021-05-22T12:45:26Z</time>
      </trkpt>
      <trkpt lat="43.5103" lon="2.48956">
        <ele>597.347</ele>
        <time>2021-05-22T12:45:28Z</time>
      </trkpt>
      <trkpt lat="43.51029" lon="2.48953">
        <ele>597.998</ele>
        <time>2021-05-22T12:45:30Z</time>
      </trkpt>
      <trkpt lat="43.51028" lon="2.4895">
        <ele>598.11</ele>
        <time>2021-05-22T12:45:32Z</time>
      </trkpt>
      <trkpt lat="43.51027" lon="2.48947">
        <ele>598.222</ele>
        <time>2021-05-22T12:45:34Z</time>
      </trkpt>
      <trkpt lat="43.51026" lon="2.48944">
        <ele>598.035</ele>
        <time>2021-05-22T12:45:36Z</time>
      </trkpt>
      <trkpt lat="43.51026" lon="2.48941">
        <ele>597.176</ele>
        <time>2021-05-22T12:45:38Z</time>
      </trkpt>
      <trkpt lat="43.51025" lon="2.48937">
        <ele>597.161</ele>
        <time>2021-05-22T12:45:40Z</time>
      </trkpt>
      <trkpt lat="43.51024" lon="2.48934">
        <ele>596.586</ele>
        <time>2021-05-22T12:45:42Z</time>
      </trkpt>
      <trkpt lat="43.51023" lon="2.48931">
        <ele>596.26</ele>
        <time>2021-05-22T12:45:44Z</time>
      </trkpt>
      <trkpt lat="43.51022" lon="2.48927">
        <ele>596.074</ele>
        <time>2021-05-22T12:45:46Z</time>
      </trkpt>
      <trkpt lat="43.51022" lon="2.48924">
        <ele>595.885</ele>
        <time>2021-05-22T12:45:48Z</time>
      </trkpt>
      <trkpt lat="43.51021" lon="2.4892">
        <ele>595.637</ele>
        <time>2021-05-22T12:45:50Z</time>
      </trkpt>
      <trkpt lat="43.51021" lon="2.48917">
        <ele>595.282</ele>
        <time>2021-05-22T12:45:52Z</time>
      </trkpt>
      <trkpt lat="43.51021" lon="2.48913">
        <ele>595.611</ele>
        <time>2021-05-22T12:45:54Z</time>
      </trkpt>
      <trkpt lat="43.51021" lon="2.48909">
        <ele>596.32</ele>
        <time>2021-05-22T12:45:56Z</time>
      </trkpt>
      <trkpt lat="43.51022" lon="2.48906">
        <ele>596.678</ele>
        <time>2021-05-22T12:45:58Z</time>
      </trkpt>
      <trkpt lat="43.51022" lon="2.48902">
        <ele>596.909</ele>
        <time>2021-05-22T12:46:00Z</time>
      </trkpt>
      <trkpt lat="43.51023" lon="2.48898">
        <ele>597.968</ele>
        <time>2021-05-22T12:46:02Z</time>
      </trkpt>
      <trkpt lat="43.51023" lon="2.48895">
        <ele>599.102</ele>
        <time>2021-05-22T12:46:04Z</time>
      </trkpt>
      <trkpt lat="43.51024" lon="2.48891">
        <ele>598.928</ele>
        <time>2021-05-22T12:46:06Z</time>
      </trkpt>
      <trkpt lat="43.51023" lon="2.48888">
        <ele>598.923</ele>
        <time>2021-05-22T12:46:08Z</time>
      </trkpt>
      <trkpt lat="43.51023" lon="2.48884">
        <ele>598.857</ele>
        <time>2021-05-22T12:46:10Z</time>
      </trkpt>
      <trkpt lat="43.51025" lon="2.48883">
        <ele>597.728</ele>
        <time>2021-05-22T12:46:12Z</time>
      </trkpt>
      <trkpt lat="43.51025" lon="2.48887">
        <ele>598.901</ele>
        <time>2021-05-22T12:46:14Z</time>
      </trkpt>
      <trkpt lat="43.51024" lon="2.48891">
        <ele>598.713</ele>
        <time>2021-05-22T12:46:16Z</time>
      </trkpt>
      <trkpt lat="43.51023" lon="2.48894">
        <ele>598.623</ele>
        <time>2021-05-22T12:46:18Z</time>
      </trkpt>
      <trkpt lat="43.51022" lon="2.48897">
        <ele>598.415</ele>
        <time>2021-05-22T12:46:20Z</time>
      </trkpt>
      <trkpt lat="43.51021" lon="2.489">
        <ele>598.217</ele>
        <time>2021-05-22T12:46:22Z</time>
      </trkpt>
      <trkpt lat="43.5102" lon="2.48901">
        <ele>597.389</ele>
        <time>2021-05-22T12:46:24Z</time>
      </trkpt>
      <trkpt lat="43.51019" lon="2.48904">
        <ele>597.022</ele>
        <time>2021-05-22T12:46:26Z</time>
      </trkpt>
      <trkpt lat="43.51017" lon="2.48905">
        <ele>596.867</ele>
        <time>2021-05-22T12:46:28Z</time>
      </trkpt>
      <trkpt lat="43.51015" lon="2.48905">
        <ele>595.416</ele>
        <time>2021-05-22T12:46:30Z</time>
      </trkpt>
      <trkpt lat="43.51014" lon="2.48904">
        <ele>594.919</ele>
        <time>2021-05-22T12:46:32Z</time>
      </trkpt>
      <trkpt lat="43.51012" lon="2.48902">
        <ele>594.282</ele>
        <time>2021-05-22T12:46:34Z</time>
      </trkpt>
      <trkpt lat="43.5101" lon="2.48902">
        <ele>593.715</ele>
        <time>2021-05-22T12:46:36Z</time>
      </trkpt>
      <trkpt lat="43.51008" lon="2.489">
        <ele>593.677</ele>
        <time>2021-05-22T12:46:38Z</time>
      </trkpt>
      <trkpt lat="43.51008" lon="2.48899">
        <ele>592.888</ele>
        <time>2021-05-22T12:46:40Z</time>
      </trkpt>
      <trkpt lat="43.51005" lon="2.48896">
        <ele>594.503</ele>
        <time>2021-05-22T12:46:42Z</time>
      </trkpt>
      <trkpt lat="43.51004" lon="2.48896">
        <ele>593.969</ele>
        <time>2021-05-22T12:46:44Z</time>
      </trkpt>
      <trkpt lat="43.51002" lon="2.48894">
        <ele>595.103</ele>
        <time>2021-05-22T12:46:46Z</time>
      </trkpt>
      <trkpt lat="43.51" lon="2.48893">
        <ele>595.039</ele>
        <time>2021-05-22T12:46:48Z</time>
      </trkpt>
      <trkpt lat="43.50997" lon="2.48891">
        <ele>595.18</ele>
        <time>2021-05-22T12:46:50Z</time>
      </trkpt>
      <trkpt lat="43.50994" lon="2.4889">
        <ele>595.078</ele>
        <time>2021-05-22T12:46:52Z</time>
      </trkpt>
      <trkpt lat="43.50992" lon="2.48889">
        <ele>593.736</ele>
        <time>2021-05-22T12:46:54Z</time>
      </trkpt>
      <trkpt lat="43.5099" lon="2.48888">
        <ele>593.671</ele>
        <time>2021-05-22T12:46:56Z</time>
      </trkpt>
      <trkpt lat="43.50988" lon="2.48887">
        <ele>593.724</ele>
        <time>2021-05-22T12:46:58Z</time>
      </trkpt>
      <trkpt lat="43.50985" lon="2.48886">
        <ele>593.648</ele>
        <time>2021-05-22T12:47:00Z</time>
      </trkpt>
      <trkpt lat="43.50983" lon="2.48885">
        <ele>593.232</ele>
        <time>2021-05-22T12:47:02Z</time>
      </trkpt>
      <trkpt lat="43.50981" lon="2.48884">
        <ele>592.747</ele>
        <time>2021-05-22T12:47:04Z</time>
      </trkpt>
      <trkpt lat="43.50979" lon="2.48883">
        <ele>592.74</ele>
        <time>2021-05-22T12:47:06Z</time>
      </trkpt>
      <trkpt lat="43.50977" lon="2.48882">
        <ele>592.891</ele>
        <time>2021-05-22T12:47:08Z</time>
      </trkpt>
      <trkpt lat="43.50975" lon="2.48881">
        <ele>594.18</ele>
        <time>2021-05-22T12:47:10Z</time>
      </trkpt>
      <trkpt lat="43.50973" lon="2.4888">
        <ele>593.554</ele>
        <time>2021-05-22T12:47:12Z</time>
      </trkpt>
      <trkpt lat="43.50971" lon="2.48879">
        <ele>594.397</ele>
        <time>2021-05-22T12:47:14Z</time>
      </trkpt>
      <trkpt lat="43.50969" lon="2.48877">
        <ele>593.607</ele>
        <time>2021-05-22T12:47:16Z</time>
      </trkpt>
      <trkpt lat="43.50967" lon="2.48876">
        <ele>593.59</ele>
        <time>2021-05-22T12:47:18Z</time>
      </trkpt>
      <trkpt lat="43.50965" lon="2.48875">
        <ele>593.096</ele>
        <time>2021-05-22T12:47:20Z</time>
      </trkpt>
      <trkpt lat="43.50962" lon="2.48872">
        <ele>593.788</ele>
        <time>2021-05-22T12:47:22Z</time>
      </trkpt>
      <trkpt lat="43.50959" lon="2.4887">
        <ele>594.038</ele>
        <time>2021-05-22T12:47:24Z</time>
      </trkpt>
      <trkpt lat="43.50958" lon="2.48868">
        <ele>594.811</ele>
        <time>2021-05-22T12:47:26Z</time>
      </trkpt>
      <trkpt lat="43.50956" lon="2.48866">
        <ele>594.579</ele>
        <time>2021-05-22T12:47:28Z</time>
      </trkpt>
      <trkpt lat="43.50954" lon="2.48864">
        <ele>593.894</ele>
        <time>2021-05-22T12:47:30Z</time>
      </trkpt>
      <trkpt lat="43.50953" lon="2.48861">
        <ele>593.975</ele>
        <time>2021-05-22T12:47:32Z</time>
      </trkpt>
      <trkpt lat="43.50951" lon="2.4886">
        <ele>594.75</ele>
        <time>2021-05-22T12:47:34Z</time>
      </trkpt>
      <trkpt lat="43.50948" lon="2.48858">
        <ele>594.03</ele>
        <time>2021-05-22T12:47:36Z</time>
      </trkpt>
      <trkpt lat="43.50946" lon="2.48856">
        <ele>593.251</ele>
        <time>2021-05-22T12:47:38Z</time>
      </trkpt>
      <trkpt lat="43.50944" lon="2.48855">
        <ele>594.04</ele>
        <time>2021-05-22T12:47:40Z</time>
      </trkpt>
      <trkpt lat="43.50941" lon="2.48853">
        <ele>592.835</ele>
        <time>2021-05-22T12:47:42Z</time>
      </trkpt>
      <trkpt lat="43.50939" lon="2.48851">
        <ele>592.326</ele>
        <time>2021-05-22T12:47:44Z</time>
      </trkpt>
      <trkpt lat="43.50937" lon="2.4885">
        <ele>592.498</ele>
        <time>2021-05-22T12:47:46Z</time>
      </trkpt>
      <trkpt lat="43.50934" lon="2.48849">
        <ele>592.906</ele>
        <time>2021-05-22T12:47:48Z</time>
      </trkpt>
      <trkpt lat="43.50932" lon="2.48848">
        <ele>591.802</ele>
        <time>2021-05-22T12:47:50Z</time>
      </trkpt>
      <trkpt lat="43.5093" lon="2.48847">
        <ele>590.376</ele>
        <time>2021-05-22T12:47:52Z</time>
      </trkpt>
      <trkpt lat="43.50929" lon="2.48844">
        <ele>591.148</ele>
        <time>2021-05-22T12:47:54Z</time>
      </trkpt>
      <trkpt lat="43.50927" lon="2.48841">
        <ele>593.114</ele>
        <time>2021-05-22T12:47:56Z</time>
      </trkpt>
      <trkpt lat="43.50925" lon="2.48838">
        <ele>592.857</ele>
        <time>2021-05-22T12:47:58Z</time>
      </trkpt>
      <trkpt lat="43.50923" lon="2.48836">
        <ele>592.412</ele>
        <time>2021-05-22T12:48:00Z</time>
      </trkpt>
      <trkpt lat="43.5092" lon="2.48833">
        <ele>591.631</ele>
        <time>2021-05-22T12:48:02Z</time>
      </trkpt>
      <trkpt lat="43.50917" lon="2.4883">
        <ele>592.213</ele>
        <time>2021-05-22T12:48:04Z</time>
      </trkpt>
      <trkpt lat="43.50915" lon="2.48827">
        <ele>591.114</ele>
        <time>2021-05-22T12:48:06Z</time>
      </trkpt>
      <trkpt lat="43.50913" lon="2.48825">
        <ele>591.607</ele>
        <time>2021-05-22T12:48:08Z</time>
      </trkpt>
      <trkpt lat="43.50911" lon="2.48824">
        <ele>591.479</ele>
        <time>2021-05-22T12:48:10Z</time>
      </trkpt>
      <trkpt lat="43.50911" lon="2.48823">
        <ele>590.342</ele>
        <time>2021-05-22T12:48:12Z</time>
      </trkpt>
      <trkpt lat="43.50911" lon="2.48823">
        <ele>589.023</ele>
        <time>2021-05-22T12:48:14Z</time>
      </trkpt>
      <trkpt lat="43.50911" lon="2.48821">
        <ele>588.822</ele>
        <time>2021-05-22T12:48:16Z</time>
      </trkpt>
      <trkpt lat="43.50912" lon="2.48817">
        <ele>588.566</ele>
        <time>2021-05-22T12:48:18Z</time>
      </trkpt>
      <trkpt lat="43.50914" lon="2.48815">
        <ele>588.189</ele>
        <time>2021-05-22T12:48:20Z</time>
      </trkpt>
      <trkpt lat="43.50916" lon="2.48812">
        <ele>588.349</ele>
        <time>2021-05-22T12:48:22Z</time>
      </trkpt>
      <trkpt lat="43.50918" lon="2.48809">
        <ele>588.281</ele>
        <time>2021-05-22T12:48:24Z</time>
      </trkpt>
      <trkpt lat="43.5092" lon="2.48807">
        <ele>588.177</ele>
        <time>2021-05-22T12:48:26Z</time>
      </trkpt>
      <trkpt lat="43.50922" lon="2.48804">
        <ele>588.106</ele>
        <time>2021-05-22T12:48:28Z</time>
      </trkpt>
      <trkpt lat="43.50923" lon="2.48801">
        <ele>588.361</ele>
        <time>2021-05-22T12:48:30Z</time>
      </trkpt>
      <trkpt lat="43.50925" lon="2.48799">
        <ele>587.712</ele>
        <time>2021-05-22T12:48:32Z</time>
      </trkpt>
      <trkpt lat="43.50926" lon="2.48796">
        <ele>587.639</ele>
        <time>2021-05-22T12:48:34Z</time>
      </trkpt>
      <trkpt lat="43.50927" lon="2.48792">
        <ele>588.033</ele>
        <time>2021-05-22T12:48:36Z</time>
      </trkpt>
      <trkpt lat="43.50929" lon="2.48789">
        <ele>588.347</ele>
        <time>2021-05-22T12:48:38Z</time>
      </trkpt>
      <trkpt lat="43.50931" lon="2.48786">
        <ele>588.461</ele>
        <time>2021-05-22T12:48:40Z</time>
      </trkpt>
      <trkpt lat="43.50933" lon="2.48783">
        <ele>588.379</ele>
        <time>2021-05-22T12:48:42Z</time>
      </trkpt>
      <trkpt lat="43.50935" lon="2.48781">
        <ele>586.984</ele>
        <time>2021-05-22T12:48:44Z</time>
      </trkpt>
      <trkpt lat="43.50937" lon="2.48778">
        <ele>587.446</ele>
        <time>2021-05-22T12:48:46Z</time>
      </trkpt>
      <trkpt lat="43.50939" lon="2.48775">
        <ele>587.822</ele>
        <time>2021-05-22T12:48:48Z</time>
      </trkpt>
      <trkpt lat="43.5094" lon="2.48773">
        <ele>587.844</ele>
        <time>2021-05-22T12:48:50Z</time>
      </trkpt>
      <trkpt lat="43.50942" lon="2.4877">
        <ele>587.955</ele>
        <time>2021-05-22T12:48:52Z</time>
      </trkpt>
      <trkpt lat="43.50943" lon="2.48768">
        <ele>588.001</ele>
        <time>2021-05-22T12:48:54Z</time>
      </trkpt>
      <trkpt lat="43.50945" lon="2.48766">
        <ele>587.727</ele>
        <time>2021-05-22T12:48:56Z</time>
      </trkpt>
      <trkpt lat="43.50947" lon="2.48763">
        <ele>586.742</ele>
        <time>2021-05-22T12:48:58Z</time>
      </trkpt>
      <trkpt lat="43.50949" lon="2.4876">
        <ele>586.996</ele>
        <time>2021-05-22T12:49:00Z</time>
      </trkpt>
      <trkpt lat="43.5095" lon="2.48757">
        <ele>587.071</ele>
        <time>2021-05-22T12:49:02Z</time>
      </trkpt>
      <trkpt lat="43.50951" lon="2.48754">
        <ele>586.974</ele>
        <time>2021-05-22T12:49:04Z</time>
      </trkpt>
      <trkpt lat="43.50953" lon="2.48751">
        <ele>586.748</ele>
        <time>2021-05-22T12:49:06Z</time>
      </trkpt>
      <trkpt lat="43.50956" lon="2.48749">
        <ele>586.866</ele>
        <time>2021-05-22T12:49:08Z</time>
      </trkpt>
      <trkpt lat="43.50958" lon="2.48746">
        <ele>587.355</ele>
        <time>2021-05-22T12:49:10Z</time>
      </trkpt>
      <trkpt lat="43.50961" lon="2.48744">
        <ele>588.395</ele>
        <time>2021-05-22T12:49:12Z</time>
      </trkpt>
      <trkpt lat="43.50963" lon="2.4874">
        <ele>587.198</ele>
        <time>2021-05-22T12:49:14Z</time>
      </trkpt>
      <trkpt lat="43.50965" lon="2.48737">
        <ele>587.221</ele>
        <time>2021-05-22T12:49:16Z</time>
      </trkpt>
      <trkpt lat="43.50967" lon="2.48735">
        <ele>586.678</ele>
        <time>2021-05-22T12:49:18Z</time>
      </trkpt>
      <trkpt lat="43.5097" lon="2.48732">
        <ele>587.053</ele>
        <time>2021-05-22T12:49:20Z</time>
      </trkpt>
      <trkpt lat="43.50972" lon="2.48729">
        <ele>586.4</ele>
        <time>2021-05-22T12:49:22Z</time>
      </trkpt>
      <trkpt lat="43.50974" lon="2.48726">
        <ele>586.711</ele>
        <time>2021-05-22T12:49:24Z</time>
      </trkpt>
      <trkpt lat="43.50977" lon="2.48723">
        <ele>587.334</ele>
        <time>2021-05-22T12:49:26Z</time>
      </trkpt>
      <trkpt lat="43.50979" lon="2.48721">
        <ele>587.161</ele>
        <time>2021-05-22T12:49:28Z</time>
      </trkpt>
      <trkpt lat="43.5098" lon="2.48718">
        <ele>587.557</ele>
        <time>2021-05-22T12:49:30Z</time>
      </trkpt>
      <trkpt lat="43.50982" lon="2.48714">
        <ele>587.133</ele>
        <time>2021-05-22T12:49:32Z</time>
      </trkpt>
      <trkpt lat="43.50982" lon="2.48711">
        <ele>586.898</ele>
        <time>2021-05-22T12:49:34Z</time>
      </trkpt>
      <trkpt lat="43.50982" lon="2.48708">
        <ele>586.92</ele>
        <time>2021-05-22T12:49:36Z</time>
      </trkpt>
      <trkpt lat="43.50982" lon="2.48704">
        <ele>587.125</ele>
        <time>2021-05-22T12:49:38Z</time>
      </trkpt>
      <trkpt lat="43.5098" lon="2.48701">
        <ele>586.789</ele>
        <time>2021-05-22T12:49:40Z</time>
      </trkpt>
      <trkpt lat="43.50979" lon="2.48698">
        <ele>586.871</ele>
        <time>2021-05-22T12:49:42Z</time>
      </trkpt>
      <trkpt lat="43.50978" lon="2.48695">
        <ele>587.207</ele>
        <time>2021-05-22T12:49:44Z</time>
      </trkpt>
      <trkpt lat="43.50977" lon="2.48692">
        <ele>586.806</ele>
        <time>2021-05-22T12:49:46Z</time>
      </trkpt>
      <trkpt lat="43.50976" lon="2.48689">
        <ele>586.644</ele>
        <time>2021-05-22T12:49:48Z</time>
      </trkpt>
      <trkpt lat="43.50974" lon="2.48686">
        <ele>585.894</ele>
        <time>2021-05-22T12:49:50Z</time>
      </trkpt>
      <trkpt lat="43.50973" lon="2.48683">
        <ele>585.905</ele>
        <time>2021-05-22T12:49:52Z</time>
      </trkpt>
      <trkpt lat="43.50972" lon="2.4868">
        <ele>585.675</ele>
        <time>2021-05-22T12:49:54Z</time>
      </trkpt>
      <trkpt lat="43.50972" lon="2.48676">
        <ele>585.288</ele>
        <time>2021-05-22T12:49:56Z</time>
      </trkpt>
      <trkpt lat="43.50971" lon="2.48673">
        <ele>584.942</ele>
        <time>2021-05-22T12:49:58Z</time>
      </trkpt>
      <trkpt lat="43.5097" lon="2.4867">
        <ele>584.933</ele>
        <time>2021-05-22T12:50:00Z</time>
      </trkpt>
      <trkpt lat="43.50969" lon="2.48667">
        <ele>585.09</ele>
        <time>2021-05-22T12:50:02Z</time>
      </trkpt>
      <trkpt lat="43.50968" lon="2.48664">
        <ele>585.174</ele>
        <time>2021-05-22T12:50:04Z</time>
      </trkpt>
      <trkpt lat="43.50967" lon="2.48661">
        <ele>584.154</ele>
        <time>2021-05-22T12:50:06Z</time>
      </trkpt>
      <trkpt lat="43.50966" lon="2.48658">
        <ele>584.22</ele>
        <time>2021-05-22T12:50:08Z</time>
      </trkpt>
      <trkpt lat="43.50965" lon="2.48655">
        <ele>583.706</ele>
        <time>2021-05-22T12:50:10Z</time>
      </trkpt>
      <trkpt lat="43.50964" lon="2.48651">
        <ele>582.93</ele>
        <time>2021-05-22T12:50:12Z</time>
      </trkpt>
      <trkpt lat="43.50963" lon="2.48648">
        <ele>583.644</ele>
        <time>2021-05-22T12:50:14Z</time>
      </trkpt>
      <trkpt lat="43.50961" lon="2.48647">
        <ele>585.355</ele>
        <time>2021-05-22T12:50:16Z</time>
      </trkpt>
      <trkpt lat="43.50958" lon="2.48646">
        <ele>587.101</ele>
        <time>2021-05-22T12:50:18Z</time>
      </trkpt>
      <trkpt lat="43.50958" lon="2.48642">
        <ele>587.21</ele>
        <time>2021-05-22T12:50:20Z</time>
      </trkpt>
      <trkpt lat="43.50957" lon="2.48639">
        <ele>587.284</ele>
        <time>2021-05-22T12:50:22Z</time>
      </trkpt>
      <trkpt lat="43.50957" lon="2.48635">
        <ele>586.052</ele>
        <time>2021-05-22T12:50:24Z</time>
      </trkpt>
      <trkpt lat="43.50957" lon="2.48632">
        <ele>585.489</ele>
        <time>2021-05-22T12:50:26Z</time>
      </trkpt>
      <trkpt lat="43.50957" lon="2.48628">
        <ele>585.522</ele>
        <time>2021-05-22T12:50:28Z</time>
      </trkpt>
      <trkpt lat="43.50956" lon="2.48625">
        <ele>585.519</ele>
        <time>2021-05-22T12:50:30Z</time>
      </trkpt>
      <trkpt lat="43.50955" lon="2.48621">
        <ele>585.766</ele>
        <time>2021-05-22T12:50:32Z</time>
      </trkpt>
      <trkpt lat="43.50954" lon="2.48618">
        <ele>585.312</ele>
        <time>2021-05-22T12:50:34Z</time>
      </trkpt>
      <trkpt lat="43.50953" lon="2.48615">
        <ele>584.749</ele>
        <time>2021-05-22T12:50:36Z</time>
      </trkpt>
      <trkpt lat="43.50952" lon="2.48613">
        <ele>584.136</ele>
        <time>2021-05-22T12:50:38Z</time>
      </trkpt>
      <trkpt lat="43.50951" lon="2.4861">
        <ele>584.169</ele>
        <time>2021-05-22T12:50:40Z</time>
      </trkpt>
      <trkpt lat="43.50949" lon="2.48608">
        <ele>584.473</ele>
        <time>2021-05-22T12:50:42Z</time>
      </trkpt>
      <trkpt lat="43.50946" lon="2.48605">
        <ele>585.226</ele>
        <time>2021-05-22T12:50:44Z</time>
      </trkpt>
      <trkpt lat="43.50945" lon="2.48601">
        <ele>585.263</ele>
        <time>2021-05-22T12:50:46Z</time>
      </trkpt>
      <trkpt lat="43.50944" lon="2.48598">
        <ele>585.847</ele>
        <time>2021-05-22T12:50:48Z</time>
      </trkpt>
      <trkpt lat="43.50943" lon="2.48594">
        <ele>586.002</ele>
        <time>2021-05-22T12:50:50Z</time>
      </trkpt>
      <trkpt lat="43.50942" lon="2.48591">
        <ele>587.259</ele>
        <time>2021-05-22T12:50:52Z</time>
      </trkpt>
      <trkpt lat="43.50941" lon="2.48588">
        <ele>587.82</ele>
        <time>2021-05-22T12:50:54Z</time>
      </trkpt>
      <trkpt lat="43.5094" lon="2.48585">
        <ele>588.241</ele>
        <time>2021-05-22T12:50:56Z</time>
      </trkpt>
      <trkpt lat="43.50937" lon="2.48581">
        <ele>588.149</ele>
        <time>2021-05-22T12:50:58Z</time>
      </trkpt>
      <trkpt lat="43.50936" lon="2.48579">
        <ele>589.92</ele>
        <time>2021-05-22T12:51:00Z</time>
      </trkpt>
      <trkpt lat="43.50935" lon="2.48575">
        <ele>589.462</ele>
        <time>2021-05-22T12:51:02Z</time>
      </trkpt>
      <trkpt lat="43.50934" lon="2.48572">
        <ele>589.045</ele>
        <time>2021-05-22T12:51:04Z</time>
      </trkpt>
      <trkpt lat="43.50933" lon="2.48569">
        <ele>588.744</ele>
        <time>2021-05-22T12:51:06Z</time>
      </trkpt>
      <trkpt lat="43.50932" lon="2.48566">
        <ele>588.22</ele>
        <time>2021-05-22T12:51:08Z</time>
      </trkpt>
      <trkpt lat="43.5093" lon="2.48565">
        <ele>587.524</ele>
        <time>2021-05-22T12:51:10Z</time>
      </trkpt>
      <trkpt lat="43.50928" lon="2.48562">
        <ele>588.382</ele>
        <time>2021-05-22T12:51:12Z</time>
      </trkpt>
      <trkpt lat="43.50927" lon="2.48559">
        <ele>588.558</ele>
        <time>2021-05-22T12:51:14Z</time>
      </trkpt>
      <trkpt lat="43.50925" lon="2.48555">
        <ele>587.239</ele>
        <time>2021-05-22T12:51:16Z</time>
      </trkpt>
      <trkpt lat="43.50923" lon="2.48553">
        <ele>585.325</ele>
        <time>2021-05-22T12:51:18Z</time>
      </trkpt>
      <trkpt lat="43.50922" lon="2.4855">
        <ele>587.559</ele>
        <time>2021-05-22T12:51:20Z</time>
      </trkpt>
      <trkpt lat="43.5092" lon="2.48547">
        <ele>588.157</ele>
        <time>2021-05-22T12:51:22Z</time>
      </trkpt>
      <trkpt lat="43.50919" lon="2.48544">
        <ele>589.082</ele>
        <time>2021-05-22T12:51:24Z</time>
      </trkpt>
      <trkpt lat="43.50917" lon="2.48541">
        <ele>587.991</ele>
        <time>2021-05-22T12:51:26Z</time>
      </trkpt>
      <trkpt lat="43.50915" lon="2.48539">
        <ele>587.328</ele>
        <time>2021-05-22T12:51:28Z</time>
      </trkpt>
      <trkpt lat="43.50913" lon="2.48536">
        <ele>588.143</ele>
        <time>2021-05-22T12:51:30Z</time>
      </trkpt>
      <trkpt lat="43.50911" lon="2.48534">
        <ele>587.578</ele>
        <time>2021-05-22T12:51:32Z</time>
      </trkpt>
      <trkpt lat="43.50909" lon="2.48532">
        <ele>587.243</ele>
        <time>2021-05-22T12:51:34Z</time>
      </trkpt>
      <trkpt lat="43.50907" lon="2.4853">
        <ele>588.711</ele>
        <time>2021-05-22T12:51:36Z</time>
      </trkpt>
      <trkpt lat="43.50904" lon="2.48528">
        <ele>588.943</ele>
        <time>2021-05-22T12:51:38Z</time>
      </trkpt>
      <trkpt lat="43.50903" lon="2.48526">
        <ele>587.928</ele>
        <time>2021-05-22T12:51:40Z</time>
      </trkpt>
      <trkpt lat="43.50901" lon="2.48523">
        <ele>588.086</ele>
        <time>2021-05-22T12:51:42Z</time>
      </trkpt>
      <trkpt lat="43.50899" lon="2.48521">
        <ele>586.714</ele>
        <time>2021-05-22T12:51:44Z</time>
      </trkpt>
      <trkpt lat="43.50897" lon="2.4852">
        <ele>587.108</ele>
        <time>2021-05-22T12:51:46Z</time>
      </trkpt>
      <trkpt lat="43.50895" lon="2.48518">
        <ele>587.522</ele>
        <time>2021-05-22T12:51:48Z</time>
      </trkpt>
      <trkpt lat="43.50893" lon="2.48516">
        <ele>588.088</ele>
        <time>2021-05-22T12:51:50Z</time>
      </trkpt>
      <trkpt lat="43.50891" lon="2.48513">
        <ele>587.485</ele>
        <time>2021-05-22T12:51:52Z</time>
      </trkpt>
      <trkpt lat="43.50889" lon="2.48512">
        <ele>588.608</ele>
        <time>2021-05-22T12:51:54Z</time>
      </trkpt>
      <trkpt lat="43.50885" lon="2.4851">
        <ele>589.547</ele>
        <time>2021-05-22T12:51:56Z</time>
      </trkpt>
      <trkpt lat="43.50883" lon="2.48508">
        <ele>588.055</ele>
        <time>2021-05-22T12:51:58Z</time>
      </trkpt>
      <trkpt lat="43.5088" lon="2.48506">
        <ele>587.523</ele>
        <time>2021-05-22T12:52:00Z</time>
      </trkpt>
      <trkpt lat="43.50877" lon="2.48504">
        <ele>588.422</ele>
        <time>2021-05-22T12:52:02Z</time>
      </trkpt>
      <trkpt lat="43.50875" lon="2.48502">
        <ele>587.01</ele>
        <time>2021-05-22T12:52:04Z</time>
      </trkpt>
      <trkpt lat="43.50872" lon="2.485">
        <ele>585.733</ele>
        <time>2021-05-22T12:52:06Z</time>
      </trkpt>
      <trkpt lat="43.5087" lon="2.48499">
        <ele>585.978</ele>
        <time>2021-05-22T12:52:08Z</time>
      </trkpt>
      <trkpt lat="43.50868" lon="2.48496">
        <ele>587.24</ele>
        <time>2021-05-22T12:52:10Z</time>
      </trkpt>
      <trkpt lat="43.50866" lon="2.48493">
        <ele>587.284</ele>
        <time>2021-05-22T12:52:12Z</time>
      </trkpt>
      <trkpt lat="43.50864" lon="2.4849">
        <ele>587.341</ele>
        <time>2021-05-22T12:52:14Z</time>
      </trkpt>
      <trkpt lat="43.50862" lon="2.48488">
        <ele>586.534</ele>
        <time>2021-05-22T12:52:16Z</time>
      </trkpt>
      <trkpt lat="43.50861" lon="2.48484">
        <ele>587.389</ele>
        <time>2021-05-22T12:52:18Z</time>
      </trkpt>
      <trkpt lat="43.50859" lon="2.48482">
        <ele>588.172</ele>
        <time>2021-05-22T12:52:20Z</time>
      </trkpt>
      <trkpt lat="43.50858" lon="2.4848">
        <ele>587.657</ele>
        <time>2021-05-22T12:52:22Z</time>
      </trkpt>
      <trkpt lat="43.50856" lon="2.48478">
        <ele>587.461</ele>
        <time>2021-05-22T12:52:24Z</time>
      </trkpt>
      <trkpt lat="43.50855" lon="2.48477">
        <ele>586.582</ele>
        <time>2021-05-22T12:52:26Z</time>
      </trkpt>
      <trkpt lat="43.50853" lon="2.48474">
        <ele>587.14</ele>
        <time>2021-05-22T12:52:28Z</time>
      </trkpt>
      <trkpt lat="43.50851" lon="2.48472">
        <ele>587.088</ele>
        <time>2021-05-22T12:52:30Z</time>
      </trkpt>
      <trkpt lat="43.5085" lon="2.48471">
        <ele>587.327</ele>
        <time>2021-05-22T12:52:32Z</time>
      </trkpt>
      <trkpt lat="43.50848" lon="2.48469">
        <ele>588.026</ele>
        <time>2021-05-22T12:52:34Z</time>
      </trkpt>
      <trkpt lat="43.50846" lon="2.48466">
        <ele>588.24</ele>
        <time>2021-05-22T12:52:36Z</time>
      </trkpt>
      <trkpt lat="43.50845" lon="2.48466">
        <ele>587.726</ele>
        <time>2021-05-22T12:52:38Z</time>
      </trkpt>
      <trkpt lat="43.50844" lon="2.48464">
        <ele>588.026</ele>
        <time>2021-05-22T12:52:40Z</time>
      </trkpt>
      <trkpt lat="43.50842" lon="2.48462">
        <ele>587.912</ele>
        <time>2021-05-22T12:52:42Z</time>
      </trkpt>
      <trkpt lat="43.50841" lon="2.48461">
        <ele>587.211</ele>
        <time>2021-05-22T12:52:44Z</time>
      </trkpt>
      <trkpt lat="43.50839" lon="2.48459">
        <ele>588.166</ele>
        <time>2021-05-22T12:52:46Z</time>
      </trkpt>
      <trkpt lat="43.50838" lon="2.48456">
        <ele>588.523</ele>
        <time>2021-05-22T12:52:48Z</time>
      </trkpt>
      <trkpt lat="43.50836" lon="2.48455">
        <ele>587.509</ele>
        <time>2021-05-22T12:52:50Z</time>
      </trkpt>
      <trkpt lat="43.50834" lon="2.48453">
        <ele>586.984</ele>
        <time>2021-05-22T12:52:52Z</time>
      </trkpt>
      <trkpt lat="43.50833" lon="2.48452">
        <ele>586.389</ele>
        <time>2021-05-22T12:52:54Z</time>
      </trkpt>
      <trkpt lat="43.50831" lon="2.4845">
        <ele>587.066</ele>
        <time>2021-05-22T12:52:56Z</time>
      </trkpt>
      <trkpt lat="43.50829" lon="2.48447">
        <ele>588.403</ele>
        <time>2021-05-22T12:52:58Z</time>
      </trkpt>
      <trkpt lat="43.50828" lon="2.48444">
        <ele>589.353</ele>
        <time>2021-05-22T12:53:00Z</time>
      </trkpt>
      <trkpt lat="43.50826" lon="2.48441">
        <ele>589.66</ele>
        <time>2021-05-22T12:53:02Z</time>
      </trkpt>
      <trkpt lat="43.50824" lon="2.4844">
        <ele>587.689</ele>
        <time>2021-05-22T12:53:04Z</time>
      </trkpt>
      <trkpt lat="43.50822" lon="2.4844">
        <ele>587.069</ele>
        <time>2021-05-22T12:53:06Z</time>
      </trkpt>
      <trkpt lat="43.5082" lon="2.48439">
        <ele>585.906</ele>
        <time>2021-05-22T12:53:08Z</time>
      </trkpt>
      <trkpt lat="43.50818" lon="2.48438">
        <ele>584.853</ele>
        <time>2021-05-22T12:53:10Z</time>
      </trkpt>
      <trkpt lat="43.50816" lon="2.48435">
        <ele>584.886</ele>
        <time>2021-05-22T12:53:12Z</time>
      </trkpt>
      <trkpt lat="43.50815" lon="2.48433">
        <ele>585.36</ele>
        <time>2021-05-22T12:53:14Z</time>
      </trkpt>
      <trkpt lat="43.50813" lon="2.48431">
        <ele>585.041</ele>
        <time>2021-05-22T12:53:16Z</time>
      </trkpt>
      <trkpt lat="43.50812" lon="2.48429">
        <ele>585.162</ele>
        <time>2021-05-22T12:53:18Z</time>
      </trkpt>
      <trkpt lat="43.50809" lon="2.48427">
        <ele>584.941</ele>
        <time>2021-05-22T12:53:20Z</time>
      </trkpt>
      <trkpt lat="43.50806" lon="2.48425">
        <ele>585.784</ele>
        <time>2021-05-22T12:53:22Z</time>
      </trkpt>
      <trkpt lat="43.50804" lon="2.48423">
        <ele>584.482</ele>
        <time>2021-05-22T12:53:24Z</time>
      </trkpt>
      <trkpt lat="43.50802" lon="2.48421">
        <ele>584.273</ele>
        <time>2021-05-22T12:53:26Z</time>
      </trkpt>
      <trkpt lat="43.50801" lon="2.48418">
        <ele>583.958</ele>
        <time>2021-05-22T12:53:28Z</time>
      </trkpt>
      <trkpt lat="43.508" lon="2.48415">
        <ele>584.334</ele>
        <time>2021-05-22T12:53:30Z</time>
      </trkpt>
      <trkpt lat="43.50798" lon="2.48413">
        <ele>583.804</ele>
        <time>2021-05-22T12:53:32Z</time>
      </trkpt>
      <trkpt lat="43.50797" lon="2.4841">
        <ele>584.621</ele>
        <time>2021-05-22T12:53:34Z</time>
      </trkpt>
      <trkpt lat="43.50795" lon="2.48408">
        <ele>582.721</ele>
        <time>2021-05-22T12:53:36Z</time>
      </trkpt>
      <trkpt lat="43.50793" lon="2.48405">
        <ele>581.213</ele>
        <time>2021-05-22T12:53:38Z</time>
      </trkpt>
      <trkpt lat="43.50792" lon="2.48402">
        <ele>580.914</ele>
        <time>2021-05-22T12:53:40Z</time>
      </trkpt>
      <trkpt lat="43.5079" lon="2.484">
        <ele>579.595</ele>
        <time>2021-05-22T12:53:42Z</time>
      </trkpt>
      <trkpt lat="43.50789" lon="2.48398">
        <ele>579.422</ele>
        <time>2021-05-22T12:53:44Z</time>
      </trkpt>
      <trkpt lat="43.50787" lon="2.48395">
        <ele>579.672</ele>
        <time>2021-05-22T12:53:46Z</time>
      </trkpt>
      <trkpt lat="43.50785" lon="2.48393">
        <ele>580.544</ele>
        <time>2021-05-22T12:53:48Z</time>
      </trkpt>
      <trkpt lat="43.50783" lon="2.48392">
        <ele>580.305</ele>
        <time>2021-05-22T12:53:50Z</time>
      </trkpt>
      <trkpt lat="43.50781" lon="2.4839">
        <ele>580.63</ele>
        <time>2021-05-22T12:53:52Z</time>
      </trkpt>
      <trkpt lat="43.5078" lon="2.48388">
        <ele>580.214</ele>
        <time>2021-05-22T12:53:54Z</time>
      </trkpt>
      <trkpt lat="43.50779" lon="2.48384">
        <ele>581.469</ele>
        <time>2021-05-22T12:53:56Z</time>
      </trkpt>
      <trkpt lat="43.50777" lon="2.48382">
        <ele>579.35</ele>
        <time>2021-05-22T12:53:58Z</time>
      </trkpt>
      <trkpt lat="43.50776" lon="2.48379">
        <ele>578.609</ele>
        <time>2021-05-22T12:54:00Z</time>
      </trkpt>
      <trkpt lat="43.50774" lon="2.48377">
        <ele>578.214</ele>
        <time>2021-05-22T12:54:02Z</time>
      </trkpt>
      <trkpt lat="43.50773" lon="2.48375">
        <ele>577.995</ele>
        <time>2021-05-22T12:54:04Z</time>
      </trkpt>
      <trkpt lat="43.50771" lon="2.48373">
        <ele>577.588</ele>
        <time>2021-05-22T12:54:06Z</time>
      </trkpt>
      <trkpt lat="43.50769" lon="2.48371">
        <ele>579.024</ele>
        <time>2021-05-22T12:54:08Z</time>
      </trkpt>
      <trkpt lat="43.50768" lon="2.48369">
        <ele>578.008</ele>
        <time>2021-05-22T12:54:10Z</time>
      </trkpt>
      <trkpt lat="43.50766" lon="2.48366">
        <ele>577.812</ele>
        <time>2021-05-22T12:54:12Z</time>
      </trkpt>
      <trkpt lat="43.50764" lon="2.48364">
        <ele>575.749</ele>
        <time>2021-05-22T12:54:14Z</time>
      </trkpt>
      <trkpt lat="43.50763" lon="2.48361">
        <ele>575.299</ele>
        <time>2021-05-22T12:54:16Z</time>
      </trkpt>
      <trkpt lat="43.50762" lon="2.48359">
        <ele>574.717</ele>
        <time>2021-05-22T12:54:18Z</time>
      </trkpt>
      <trkpt lat="43.5076" lon="2.48358">
        <ele>574.772</ele>
        <time>2021-05-22T12:54:20Z</time>
      </trkpt>
      <trkpt lat="43.50758" lon="2.48356">
        <ele>574.65</ele>
        <time>2021-05-22T12:54:22Z</time>
      </trkpt>
      <trkpt lat="43.50757" lon="2.48353">
        <ele>574.99</ele>
        <time>2021-05-22T12:54:24Z</time>
      </trkpt>
      <trkpt lat="43.50755" lon="2.48351">
        <ele>575.116</ele>
        <time>2021-05-22T12:54:26Z</time>
      </trkpt>
      <trkpt lat="43.50754" lon="2.4835">
        <ele>574.531</ele>
        <time>2021-05-22T12:54:28Z</time>
      </trkpt>
      <trkpt lat="43.50752" lon="2.48347">
        <ele>574.57</ele>
        <time>2021-05-22T12:54:30Z</time>
      </trkpt>
      <trkpt lat="43.5075" lon="2.48345">
        <ele>574.199</ele>
        <time>2021-05-22T12:54:32Z</time>
      </trkpt>
      <trkpt lat="43.50749" lon="2.48342">
        <ele>573.861</ele>
        <time>2021-05-22T12:54:34Z</time>
      </trkpt>
      <trkpt lat="43.50747" lon="2.4834">
        <ele>573.621</ele>
        <time>2021-05-22T12:54:36Z</time>
      </trkpt>
      <trkpt lat="43.50746" lon="2.48338">
        <ele>573.517</ele>
        <time>2021-05-22T12:54:38Z</time>
      </trkpt>
      <trkpt lat="43.50744" lon="2.48336">
        <ele>571.969</ele>
        <time>2021-05-22T12:54:40Z</time>
      </trkpt>
      <trkpt lat="43.50743" lon="2.48334">
        <ele>571.877</ele>
        <time>2021-05-22T12:54:42Z</time>
      </trkpt>
      <trkpt lat="43.50742" lon="2.48332">
        <ele>571.058</ele>
        <time>2021-05-22T12:54:44Z</time>
      </trkpt>
      <trkpt lat="43.5074" lon="2.4833">
        <ele>568.351</ele>
        <time>2021-05-22T12:54:46Z</time>
      </trkpt>
      <trkpt lat="43.50738" lon="2.48328">
        <ele>569.203</ele>
        <time>2021-05-22T12:54:48Z</time>
      </trkpt>
      <trkpt lat="43.50737" lon="2.48326">
        <ele>569.683</ele>
        <time>2021-05-22T12:54:50Z</time>
      </trkpt>
      <trkpt lat="43.50735" lon="2.48325">
        <ele>568.3</ele>
        <time>2021-05-22T12:54:52Z</time>
      </trkpt>
      <trkpt lat="43.50734" lon="2.48323">
        <ele>567.959</ele>
        <time>2021-05-22T12:54:54Z</time>
      </trkpt>
      <trkpt lat="43.50733" lon="2.48321">
        <ele>566.829</ele>
        <time>2021-05-22T12:54:56Z</time>
      </trkpt>
      <trkpt lat="43.50731" lon="2.48319">
        <ele>566.737</ele>
        <time>2021-05-22T12:54:58Z</time>
      </trkpt>
      <trkpt lat="43.5073" lon="2.48316">
        <ele>567.379</ele>
        <time>2021-05-22T12:55:00Z</time>
      </trkpt>
      <trkpt lat="43.50728" lon="2.48314">
        <ele>567.139</ele>
        <time>2021-05-22T12:55:02Z</time>
      </trkpt>
      <trkpt lat="43.50727" lon="2.48311">
        <ele>566.716</ele>
        <time>2021-05-22T12:55:04Z</time>
      </trkpt>
      <trkpt lat="43.50727" lon="2.48309">
        <ele>567.199</ele>
        <time>2021-05-22T12:55:06Z</time>
      </trkpt>
      <trkpt lat="43.50725" lon="2.48306">
        <ele>567.415</ele>
        <time>2021-05-22T12:55:08Z</time>
      </trkpt>
      <trkpt lat="43.50724" lon="2.48304">
        <ele>567.313</ele>
        <time>2021-05-22T12:55:10Z</time>
      </trkpt>
      <trkpt lat="43.50722" lon="2.48302">
        <ele>566.245</ele>
        <time>2021-05-22T12:55:12Z</time>
      </trkpt>
      <trkpt lat="43.50721" lon="2.48301">
        <ele>565.342</ele>
        <time>2021-05-22T12:55:14Z</time>
      </trkpt>
      <trkpt lat="43.50717" lon="2.48288">
        <ele>567.459</ele>
        <time>2021-05-22T12:55:21Z</time>
      </trkpt>
      <trkpt lat="43.50716" lon="2.48284">
        <ele>568.477</ele>
        <time>2021-05-22T12:55:23Z</time>
      </trkpt>
      <trkpt lat="43.50715" lon="2.48281">
        <ele>568.839</ele>
        <time>2021-05-22T12:55:25Z</time>
      </trkpt>
      <trkpt lat="43.50714" lon="2.48277">
        <ele>568.849</ele>
        <time>2021-05-22T12:55:27Z</time>
      </trkpt>
      <trkpt lat="43.50713" lon="2.48274">
        <ele>569.125</ele>
        <time>2021-05-22T12:55:29Z</time>
      </trkpt>
      <trkpt lat="43.50713" lon="2.4827">
        <ele>569.301</ele>
        <time>2021-05-22T12:55:31Z</time>
      </trkpt>
      <trkpt lat="43.50713" lon="2.48266">
        <ele>568.757</ele>
        <time>2021-05-22T12:55:33Z</time>
      </trkpt>
      <trkpt lat="43.50713" lon="2.48263">
        <ele>567.384</ele>
        <time>2021-05-22T12:55:35Z</time>
      </trkpt>
      <trkpt lat="43.50713" lon="2.48261">
        <ele>566.383</ele>
        <time>2021-05-22T12:55:37Z</time>
      </trkpt>
      <trkpt lat="43.50713" lon="2.48258">
        <ele>566.769</ele>
        <time>2021-05-22T12:55:39Z</time>
      </trkpt>
      <trkpt lat="43.50714" lon="2.48255">
        <ele>566.794</ele>
        <time>2021-05-22T12:55:41Z</time>
      </trkpt>
      <trkpt lat="43.50715" lon="2.48252">
        <ele>566.904</ele>
        <time>2021-05-22T12:55:43Z</time>
      </trkpt>
      <trkpt lat="43.50716" lon="2.4825">
        <ele>566.646</ele>
        <time>2021-05-22T12:55:45Z</time>
      </trkpt>
      <trkpt lat="43.50716" lon="2.48247">
        <ele>566.418</ele>
        <time>2021-05-22T12:55:47Z</time>
      </trkpt>
      <trkpt lat="43.50717" lon="2.48244">
        <ele>565.863</ele>
        <time>2021-05-22T12:55:49Z</time>
      </trkpt>
      <trkpt lat="43.50717" lon="2.48241">
        <ele>566.123</ele>
        <time>2021-05-22T12:55:51Z</time>
      </trkpt>
      <trkpt lat="43.50718" lon="2.48239">
        <ele>566.609</ele>
        <time>2021-05-22T12:55:53Z</time>
      </trkpt>
      <trkpt lat="43.50719" lon="2.48236">
        <ele>567.111</ele>
        <time>2021-05-22T12:55:55Z</time>
      </trkpt>
      <trkpt lat="43.5072" lon="2.48233">
        <ele>567.047</ele>
        <time>2021-05-22T12:55:57Z</time>
      </trkpt>
      <trkpt lat="43.50721" lon="2.48228">
        <ele>567.556</ele>
        <time>2021-05-22T12:55:59Z</time>
      </trkpt>
      <trkpt lat="43.50723" lon="2.48225">
        <ele>568.554</ele>
        <time>2021-05-22T12:56:01Z</time>
      </trkpt>
      <trkpt lat="43.50724" lon="2.48222">
        <ele>568.616</ele>
        <time>2021-05-22T12:56:03Z</time>
      </trkpt>
      <trkpt lat="43.50726" lon="2.48218">
        <ele>568.672</ele>
        <time>2021-05-22T12:56:05Z</time>
      </trkpt>
      <trkpt lat="43.50726" lon="2.48216">
        <ele>569.172</ele>
        <time>2021-05-22T12:56:07Z</time>
      </trkpt>
      <trkpt lat="43.50727" lon="2.48213">
        <ele>569.288</ele>
        <time>2021-05-22T12:56:09Z</time>
      </trkpt>
      <trkpt lat="43.50728" lon="2.4821">
        <ele>569.738</ele>
        <time>2021-05-22T12:56:11Z</time>
      </trkpt>
      <trkpt lat="43.5073" lon="2.48206">
        <ele>570.194</ele>
        <time>2021-05-22T12:56:13Z</time>
      </trkpt>
      <trkpt lat="43.50732" lon="2.48203">
        <ele>570.444</ele>
        <time>2021-05-22T12:56:15Z</time>
      </trkpt>
      <trkpt lat="43.50733" lon="2.48199">
        <ele>571.29</ele>
        <time>2021-05-22T12:56:17Z</time>
      </trkpt>
      <trkpt lat="43.50735" lon="2.48195">
        <ele>571.36</ele>
        <time>2021-05-22T12:56:19Z</time>
      </trkpt>
      <trkpt lat="43.50736" lon="2.48193">
        <ele>571.574</ele>
        <time>2021-05-22T12:56:21Z</time>
      </trkpt>
      <trkpt lat="43.50737" lon="2.4819">
        <ele>571.422</ele>
        <time>2021-05-22T12:56:23Z</time>
      </trkpt>
      <trkpt lat="43.50738" lon="2.48187">
        <ele>572.253</ele>
        <time>2021-05-22T12:56:25Z</time>
      </trkpt>
      <trkpt lat="43.5074" lon="2.48184">
        <ele>572.585</ele>
        <time>2021-05-22T12:56:27Z</time>
      </trkpt>
      <trkpt lat="43.5074" lon="2.48181">
        <ele>573.029</ele>
        <time>2021-05-22T12:56:29Z</time>
      </trkpt>
      <trkpt lat="43.50741" lon="2.48179">
        <ele>572.501</ele>
        <time>2021-05-22T12:56:31Z</time>
      </trkpt>
      <trkpt lat="43.50742" lon="2.48176">
        <ele>572.719</ele>
        <time>2021-05-22T12:56:33Z</time>
      </trkpt>
      <trkpt lat="43.50743" lon="2.48174">
        <ele>572.496</ele>
        <time>2021-05-22T12:56:35Z</time>
      </trkpt>
      <trkpt lat="43.50744" lon="2.48171">
        <ele>572.591</ele>
        <time>2021-05-22T12:56:37Z</time>
      </trkpt>
      <trkpt lat="43.50745" lon="2.48169">
        <ele>572.525</ele>
        <time>2021-05-22T12:56:39Z</time>
      </trkpt>
      <trkpt lat="43.50745" lon="2.48164">
        <ele>573.373</ele>
        <time>2021-05-22T12:56:41Z</time>
      </trkpt>
      <trkpt lat="43.50743" lon="2.48161">
        <ele>573.9</ele>
        <time>2021-05-22T12:56:43Z</time>
      </trkpt>
      <trkpt lat="43.50741" lon="2.48159">
        <ele>574.698</ele>
        <time>2021-05-22T12:56:45Z</time>
      </trkpt>
      <trkpt lat="43.50741" lon="2.4816">
        <ele>574.573</ele>
        <time>2021-05-22T12:56:47Z</time>
      </trkpt>
      <trkpt lat="43.50741" lon="2.4816">
        <ele>574.57</ele>
        <time>2021-05-22T12:56:49Z</time>
      </trkpt>
      <trkpt lat="43.5074" lon="2.4816">
        <ele>573.855</ele>
        <time>2021-05-22T12:56:51Z</time>
      </trkpt>
      <trkpt lat="43.5074" lon="2.48161">
        <ele>573.485</ele>
        <time>2021-05-22T12:56:53Z</time>
      </trkpt>
      <trkpt lat="43.5074" lon="2.48161">
        <ele>573.312</ele>
        <time>2021-05-22T12:56:55Z</time>
      </trkpt>
      <trkpt lat="43.5074" lon="2.48161">
        <ele>573.294</ele>
        <time>2021-05-22T12:56:57Z</time>
      </trkpt>
      <trkpt lat="43.5074" lon="2.48162">
        <ele>573.267</ele>
        <time>2021-05-22T12:56:59Z</time>
      </trkpt>
      <trkpt lat="43.5074" lon="2.48162">
        <ele>573.272</ele>
        <time>2021-05-22T12:57:01Z</time>
      </trkpt>
      <trkpt lat="43.5074" lon="2.48162">
        <ele>573.248</ele>
        <time>2021-05-22T12:57:03Z</time>
      </trkpt>
      <trkpt lat="43.5074" lon="2.48162">
        <ele>573.241</ele>
        <time>2021-05-22T12:57:05Z</time>
      </trkpt>
      <trkpt lat="43.5074" lon="2.48162">
        <ele>573.247</ele>
        <time>2021-05-22T12:57:07Z</time>
      </trkpt>
      <trkpt lat="43.5074" lon="2.48162">
        <ele>573.249</ele>
        <time>2021-05-22T12:57:09Z</time>
      </trkpt>
      <trkpt lat="43.5074" lon="2.48162">
        <ele>573.25</ele>
        <time>2021-05-22T12:57:11Z</time>
      </trkpt>
      <trkpt lat="43.5074" lon="2.48162">
        <ele>573.244</ele>
        <time>2021-05-22T12:57:13Z</time>
      </trkpt>
      <trkpt lat="43.5074" lon="2.48162">
        <ele>573.237</ele>
        <time>2021-05-22T12:57:15Z</time>
      </trkpt>
      <trkpt lat="43.5074" lon="2.48162">
        <ele>573.226</ele>
        <time>2021-05-22T12:57:17Z</time>
      </trkpt>
      <trkpt lat="43.5074" lon="2.48162">
        <ele>573.223</ele>
        <time>2021-05-22T12:57:19Z</time>
      </trkpt>
      <trkpt lat="43.5074" lon="2.48162">
        <ele>573.215</ele>
        <time>2021-05-22T12:57:21Z</time>
      </trkpt>
      <trkpt lat="43.5074" lon="2.48162">
        <ele>573.208</ele>
        <time>2021-05-22T12:57:23Z</time>
      </trkpt>
      <trkpt lat="43.5074" lon="2.48162">
        <ele>573.204</ele>
        <time>2021-05-22T12:57:25Z</time>
      </trkpt>
      <trkpt lat="43.5074" lon="2.48163">
        <ele>573.193</ele>
        <time>2021-05-22T12:57:27Z</time>
      </trkpt>
      <trkpt lat="43.5074" lon="2.48163">
        <ele>573.189</ele>
        <time>2021-05-22T12:57:29Z</time>
      </trkpt>
      <trkpt lat="43.5074" lon="2.48163">
        <ele>573.179</ele>
        <time>2021-05-22T12:57:31Z</time>
      </trkpt>
      <trkpt lat="43.5074" lon="2.48163">
        <ele>573.164</ele>
        <time>2021-05-22T12:57:33Z</time>
      </trkpt>
      <trkpt lat="43.5074" lon="2.48163">
        <ele>573.154</ele>
        <time>2021-05-22T12:57:35Z</time>
      </trkpt>
      <trkpt lat="43.5074" lon="2.48163">
        <ele>573.148</ele>
        <time>2021-05-22T12:57:37Z</time>
      </trkpt>
      <trkpt lat="43.5074" lon="2.48163">
        <ele>573.15</ele>
        <time>2021-05-22T12:57:39Z</time>
      </trkpt>
      <trkpt lat="43.5074" lon="2.48163">
        <ele>573.151</ele>
        <time>2021-05-22T12:57:41Z</time>
      </trkpt>
      <trkpt lat="43.5074" lon="2.48163">
        <ele>573.149</ele>
        <time>2021-05-22T12:57:43Z</time>
      </trkpt>
      <trkpt lat="43.5074" lon="2.48163">
        <ele>573.151</ele>
        <time>2021-05-22T12:57:45Z</time>
      </trkpt>
      <trkpt lat="43.5074" lon="2.48163">
        <ele>573.149</ele>
        <time>2021-05-22T12:57:47Z</time>
      </trkpt>
      <trkpt lat="43.5074" lon="2.48163">
        <ele>573.142</ele>
        <time>2021-05-22T12:57:49Z</time>
      </trkpt>
      <trkpt lat="43.5074" lon="2.48163">
        <ele>573.141</ele>
        <time>2021-05-22T12:57:51Z</time>
      </trkpt>
      <trkpt lat="43.5074" lon="2.48163">
        <ele>573.136</ele>
        <time>2021-05-22T12:57:53Z</time>
      </trkpt>
      <trkpt lat="43.5074" lon="2.48163">
        <ele>573.128</ele>
        <time>2021-05-22T12:57:55Z</time>
      </trkpt>
      <trkpt lat="43.5074" lon="2.48163">
        <ele>573.126</ele>
        <time>2021-05-22T12:57:57Z</time>
      </trkpt>
      <trkpt lat="43.5074" lon="2.48163">
        <ele>573.134</ele>
        <time>2021-05-22T12:57:59Z</time>
      </trkpt>
      <trkpt lat="43.5074" lon="2.48163">
        <ele>573.137</ele>
        <time>2021-05-22T12:58:01Z</time>
      </trkpt>
      <trkpt lat="43.5074" lon="2.48163">
        <ele>573.135</ele>
        <time>2021-05-22T12:58:03Z</time>
      </trkpt>
      <trkpt lat="43.5074" lon="2.48163">
        <ele>573.131</ele>
        <time>2021-05-22T12:58:05Z</time>
      </trkpt>
      <trkpt lat="43.5074" lon="2.48163">
        <ele>573.129</ele>
        <time>2021-05-22T12:58:07Z</time>
      </trkpt>
      <trkpt lat="43.5074" lon="2.48163">
        <ele>573.125</ele>
        <time>2021-05-22T12:58:09Z</time>
      </trkpt>
      <trkpt lat="43.5074" lon="2.48163">
        <ele>573.123</ele>
        <time>2021-05-22T12:58:11Z</time>
      </trkpt>
      <trkpt lat="43.5074" lon="2.48163">
        <ele>573.126</ele>
        <time>2021-05-22T12:58:13Z</time>
      </trkpt>
      <trkpt lat="43.5074" lon="2.48163">
        <ele>573.136</ele>
        <time>2021-05-22T12:58:15Z</time>
      </trkpt>
      <trkpt lat="43.5074" lon="2.48163">
        <ele>573.626</ele>
        <time>2021-05-22T12:58:17Z</time>
      </trkpt>
      <trkpt lat="43.50741" lon="2.48163">
        <ele>573.837</ele>
        <time>2021-05-22T12:58:19Z</time>
      </trkpt>
      <trkpt lat="43.50741" lon="2.48164">
        <ele>573.781</ele>
        <time>2021-05-22T12:58:21Z</time>
      </trkpt>
      <trkpt lat="43.50742" lon="2.48164">
        <ele>573.823</ele>
        <time>2021-05-22T12:58:23Z</time>
      </trkpt>
      <trkpt lat="43.50742" lon="2.48165">
        <ele>573.825</ele>
        <time>2021-05-22T12:58:25Z</time>
      </trkpt>
      <trkpt lat="43.50742" lon="2.48165">
        <ele>573.277</ele>
        <time>2021-05-22T12:58:27Z</time>
      </trkpt>
      <trkpt lat="43.50742" lon="2.48165">
        <ele>573.628</ele>
        <time>2021-05-22T12:58:29Z</time>
      </trkpt>
      <trkpt lat="43.50743" lon="2.48165">
        <ele>573.007</ele>
        <time>2021-05-22T12:58:31Z</time>
      </trkpt>
      <trkpt lat="43.50743" lon="2.48165">
        <ele>573.283</ele>
        <time>2021-05-22T12:58:33Z</time>
      </trkpt>
      <trkpt lat="43.50743" lon="2.48165">
        <ele>573.186</ele>
        <time>2021-05-22T12:58:35Z</time>
      </trkpt>
      <trkpt lat="43.50744" lon="2.48165">
        <ele>573.328</ele>
        <time>2021-05-22T12:58:37Z</time>
      </trkpt>
      <trkpt lat="43.50745" lon="2.48165">
        <ele>573.216</ele>
        <time>2021-05-22T12:58:39Z</time>
      </trkpt>
      <trkpt lat="43.50744" lon="2.48165">
        <ele>573.353</ele>
        <time>2021-05-22T12:58:41Z</time>
      </trkpt>
      <trkpt lat="43.50744" lon="2.48165">
        <ele>573.355</ele>
        <time>2021-05-22T12:58:43Z</time>
      </trkpt>
      <trkpt lat="43.50744" lon="2.48165">
        <ele>573.357</ele>
        <time>2021-05-22T12:58:45Z</time>
      </trkpt>
      <trkpt lat="43.50744" lon="2.48165">
        <ele>573.359</ele>
        <time>2021-05-22T12:58:47Z</time>
      </trkpt>
      <trkpt lat="43.50744" lon="2.48164">
        <ele>573.061</ele>
        <time>2021-05-22T12:58:49Z</time>
      </trkpt>
      <trkpt lat="43.50744" lon="2.48162">
        <ele>573.444</ele>
        <time>2021-05-22T12:58:51Z</time>
      </trkpt>
      <trkpt lat="43.50745" lon="2.48161">
        <ele>573.545</ele>
        <time>2021-05-22T12:58:53Z</time>
      </trkpt>
      <trkpt lat="43.50746" lon="2.4816">
        <ele>573.119</ele>
        <time>2021-05-22T12:58:55Z</time>
      </trkpt>
      <trkpt lat="43.50746" lon="2.48161">
        <ele>573.425</ele>
        <time>2021-05-22T12:58:57Z</time>
      </trkpt>
      <trkpt lat="43.50746" lon="2.48161">
        <ele>573.469</ele>
        <time>2021-05-22T12:58:59Z</time>
      </trkpt>
      <trkpt lat="43.50747" lon="2.48159">
        <ele>573.681</ele>
        <time>2021-05-22T12:59:01Z</time>
      </trkpt>
      <trkpt lat="43.50747" lon="2.48157">
        <ele>573.528</ele>
        <time>2021-05-22T12:59:03Z</time>
      </trkpt>
      <trkpt lat="43.50748" lon="2.48155">
        <ele>573.671</ele>
        <time>2021-05-22T12:59:05Z</time>
      </trkpt>
      <trkpt lat="43.50749" lon="2.48152">
        <ele>573.787</ele>
        <time>2021-05-22T12:59:07Z</time>
      </trkpt>
      <trkpt lat="43.5075" lon="2.4815">
        <ele>573.661</ele>
        <time>2021-05-22T12:59:09Z</time>
      </trkpt>
      <trkpt lat="43.50751" lon="2.48146">
        <ele>573.565</ele>
        <time>2021-05-22T12:59:11Z</time>
      </trkpt>
      <trkpt lat="43.50752" lon="2.48144">
        <ele>573.442</ele>
        <time>2021-05-22T12:59:13Z</time>
      </trkpt>
      <trkpt lat="43.50753" lon="2.48141">
        <ele>573.523</ele>
        <time>2021-05-22T12:59:15Z</time>
      </trkpt>
      <trkpt lat="43.50754" lon="2.48138">
        <ele>573.764</ele>
        <time>2021-05-22T12:59:17Z</time>
      </trkpt>
      <trkpt lat="43.50755" lon="2.48134">
        <ele>574.251</ele>
        <time>2021-05-22T12:59:20Z</time>
      </trkpt>
      <trkpt lat="43.50756" lon="2.48132">
        <ele>574.297</ele>
        <time>2021-05-22T12:59:22Z</time>
      </trkpt>
      <trkpt lat="43.50758" lon="2.48129">
        <ele>574.477</ele>
        <time>2021-05-22T12:59:24Z</time>
      </trkpt>
      <trkpt lat="43.50759" lon="2.48126">
        <ele>574.394</ele>
        <time>2021-05-22T12:59:26Z</time>
      </trkpt>
      <trkpt lat="43.50761" lon="2.48122">
        <ele>574.348</ele>
        <time>2021-05-22T12:59:28Z</time>
      </trkpt>
      <trkpt lat="43.50762" lon="2.48119">
        <ele>574.401</ele>
        <time>2021-05-22T12:59:30Z</time>
      </trkpt>
      <trkpt lat="43.50762" lon="2.48117">
        <ele>574.588</ele>
        <time>2021-05-22T12:59:32Z</time>
      </trkpt>
      <trkpt lat="43.50763" lon="2.48114">
        <ele>574.439</ele>
        <time>2021-05-22T12:59:34Z</time>
      </trkpt>
      <trkpt lat="43.50765" lon="2.48111">
        <ele>574.623</ele>
        <time>2021-05-22T12:59:36Z</time>
      </trkpt>
      <trkpt lat="43.50766" lon="2.48107">
        <ele>574.775</ele>
        <time>2021-05-22T12:59:38Z</time>
      </trkpt>
      <trkpt lat="43.50768" lon="2.48105">
        <ele>574.44</ele>
        <time>2021-05-22T12:59:40Z</time>
      </trkpt>
      <trkpt lat="43.50769" lon="2.48103">
        <ele>574.017</ele>
        <time>2021-05-22T12:59:42Z</time>
      </trkpt>
      <trkpt lat="43.50771" lon="2.48099">
        <ele>573.797</ele>
        <time>2021-05-22T12:59:44Z</time>
      </trkpt>
      <trkpt lat="43.50772" lon="2.48097">
        <ele>573.784</ele>
        <time>2021-05-22T12:59:46Z</time>
      </trkpt>
      <trkpt lat="43.50774" lon="2.48094">
        <ele>573.527</ele>
        <time>2021-05-22T12:59:48Z</time>
      </trkpt>
      <trkpt lat="43.50775" lon="2.48092">
        <ele>573.431</ele>
        <time>2021-05-22T12:59:50Z</time>
      </trkpt>
      <trkpt lat="43.50776" lon="2.48089">
        <ele>573.734</ele>
        <time>2021-05-22T12:59:52Z</time>
      </trkpt>
      <trkpt lat="43.50777" lon="2.48087">
        <ele>573.951</ele>
        <time>2021-05-22T12:59:54Z</time>
      </trkpt>
      <trkpt lat="43.50778" lon="2.48084">
        <ele>574.095</ele>
        <time>2021-05-22T12:59:56Z</time>
      </trkpt>
      <trkpt lat="43.5078" lon="2.48082">
        <ele>574.031</ele>
        <time>2021-05-22T12:59:58Z</time>
      </trkpt>
      <trkpt lat="43.50781" lon="2.48081">
        <ele>573.867</ele>
        <time>2021-05-22T13:00:00Z</time>
      </trkpt>
      <trkpt lat="43.50782" lon="2.48078">
        <ele>573.943</ele>
        <time>2021-05-22T13:00:02Z</time>
      </trkpt>
      <trkpt lat="43.50783" lon="2.48075">
        <ele>573.931</ele>
        <time>2021-05-22T13:00:04Z</time>
      </trkpt>
      <trkpt lat="43.50784" lon="2.48073">
        <ele>573.795</ele>
        <time>2021-05-22T13:00:06Z</time>
      </trkpt>
      <trkpt lat="43.50785" lon="2.4807">
        <ele>573.844</ele>
        <time>2021-05-22T13:00:08Z</time>
      </trkpt>
      <trkpt lat="43.50787" lon="2.48068">
        <ele>573.912</ele>
        <time>2021-05-22T13:00:10Z</time>
      </trkpt>
      <trkpt lat="43.50788" lon="2.48065">
        <ele>573.978</ele>
        <time>2021-05-22T13:00:12Z</time>
      </trkpt>
      <trkpt lat="43.5079" lon="2.48063">
        <ele>574.166</ele>
        <time>2021-05-22T13:00:14Z</time>
      </trkpt>
      <trkpt lat="43.50791" lon="2.4806">
        <ele>574.276</ele>
        <time>2021-05-22T13:00:16Z</time>
      </trkpt>
      <trkpt lat="43.50792" lon="2.48058">
        <ele>574.792</ele>
        <time>2021-05-22T13:00:18Z</time>
      </trkpt>
      <trkpt lat="43.50793" lon="2.48055">
        <ele>575.231</ele>
        <time>2021-05-22T13:00:20Z</time>
      </trkpt>
      <trkpt lat="43.50794" lon="2.48053">
        <ele>574.976</ele>
        <time>2021-05-22T13:00:22Z</time>
      </trkpt>
      <trkpt lat="43.50795" lon="2.4805">
        <ele>574.81</ele>
        <time>2021-05-22T13:00:24Z</time>
      </trkpt>
      <trkpt lat="43.50797" lon="2.48048">
        <ele>574.95</ele>
        <time>2021-05-22T13:00:26Z</time>
      </trkpt>
      <trkpt lat="43.50798" lon="2.48045">
        <ele>574.448</ele>
        <time>2021-05-22T13:00:28Z</time>
      </trkpt>
      <trkpt lat="43.50799" lon="2.48042">
        <ele>574.133</ele>
        <time>2021-05-22T13:00:30Z</time>
      </trkpt>
      <trkpt lat="43.50801" lon="2.4804">
        <ele>574.171</ele>
        <time>2021-05-22T13:00:32Z</time>
      </trkpt>
      <trkpt lat="43.50802" lon="2.48037">
        <ele>574.638</ele>
        <time>2021-05-22T13:00:34Z</time>
      </trkpt>
      <trkpt lat="43.50803" lon="2.48034">
        <ele>574.865</ele>
        <time>2021-05-22T13:00:36Z</time>
      </trkpt>
      <trkpt lat="43.50805" lon="2.48031">
        <ele>574.279</ele>
        <time>2021-05-22T13:00:38Z</time>
      </trkpt>
      <trkpt lat="43.50807" lon="2.48028">
        <ele>574.024</ele>
        <time>2021-05-22T13:00:40Z</time>
      </trkpt>
      <trkpt lat="43.50808" lon="2.48025">
        <ele>573.906</ele>
        <time>2021-05-22T13:00:42Z</time>
      </trkpt>
      <trkpt lat="43.5081" lon="2.48021">
        <ele>573.485</ele>
        <time>2021-05-22T13:00:44Z</time>
      </trkpt>
      <trkpt lat="43.50813" lon="2.48017">
        <ele>573.467</ele>
        <time>2021-05-22T13:00:46Z</time>
      </trkpt>
      <trkpt lat="43.50815" lon="2.48014">
        <ele>573.153</ele>
        <time>2021-05-22T13:00:48Z</time>
      </trkpt>
      <trkpt lat="43.50816" lon="2.48011">
        <ele>573.613</ele>
        <time>2021-05-22T13:00:50Z</time>
      </trkpt>
      <trkpt lat="43.50817" lon="2.48008">
        <ele>572.855</ele>
        <time>2021-05-22T13:00:52Z</time>
      </trkpt>
      <trkpt lat="43.50819" lon="2.48005">
        <ele>572.039</ele>
        <time>2021-05-22T13:00:54Z</time>
      </trkpt>
      <trkpt lat="43.5082" lon="2.48002">
        <ele>572.376</ele>
        <time>2021-05-22T13:00:56Z</time>
      </trkpt>
      <trkpt lat="43.50822" lon="2.47998">
        <ele>572.16</ele>
        <time>2021-05-22T13:00:58Z</time>
      </trkpt>
      <trkpt lat="43.50824" lon="2.47995">
        <ele>572.111</ele>
        <time>2021-05-22T13:01:00Z</time>
      </trkpt>
      <trkpt lat="43.50825" lon="2.47991">
        <ele>572.238</ele>
        <time>2021-05-22T13:01:02Z</time>
      </trkpt>
      <trkpt lat="43.50827" lon="2.47987">
        <ele>572.38</ele>
        <time>2021-05-22T13:01:04Z</time>
      </trkpt>
      <trkpt lat="43.50829" lon="2.47983">
        <ele>573.271</ele>
        <time>2021-05-22T13:01:06Z</time>
      </trkpt>
      <trkpt lat="43.5083" lon="2.4798">
        <ele>573.348</ele>
        <time>2021-05-22T13:01:08Z</time>
      </trkpt>
      <trkpt lat="43.50831" lon="2.47976">
        <ele>573.894</ele>
        <time>2021-05-22T13:01:10Z</time>
      </trkpt>
      <trkpt lat="43.50833" lon="2.47972">
        <ele>574.419</ele>
        <time>2021-05-22T13:01:12Z</time>
      </trkpt>
      <trkpt lat="43.50834" lon="2.47969">
        <ele>574.359</ele>
        <time>2021-05-22T13:01:14Z</time>
      </trkpt>
      <trkpt lat="43.50835" lon="2.47965">
        <ele>574.558</ele>
        <time>2021-05-22T13:01:16Z</time>
      </trkpt>
      <trkpt lat="43.50836" lon="2.47962">
        <ele>574.664</ele>
        <time>2021-05-22T13:01:18Z</time>
      </trkpt>
      <trkpt lat="43.50837" lon="2.47959">
        <ele>574.655</ele>
        <time>2021-05-22T13:01:20Z</time>
      </trkpt>
      <trkpt lat="43.50838" lon="2.47956">
        <ele>574.656</ele>
        <time>2021-05-22T13:01:22Z</time>
      </trkpt>
      <trkpt lat="43.50838" lon="2.47952">
        <ele>575.681</ele>
        <time>2021-05-22T13:01:24Z</time>
      </trkpt>
      <trkpt lat="43.50839" lon="2.47948">
        <ele>577.012</ele>
        <time>2021-05-22T13:01:26Z</time>
      </trkpt>
      <trkpt lat="43.5084" lon="2.47945">
        <ele>576.48</ele>
        <time>2021-05-22T13:01:28Z</time>
      </trkpt>
      <trkpt lat="43.50841" lon="2.47942">
        <ele>576.213</ele>
        <time>2021-05-22T13:01:30Z</time>
      </trkpt>
      <trkpt lat="43.50842" lon="2.47938">
        <ele>576.268</ele>
        <time>2021-05-22T13:01:32Z</time>
      </trkpt>
      <trkpt lat="43.50843" lon="2.47934">
        <ele>576.293</ele>
        <time>2021-05-22T13:01:34Z</time>
      </trkpt>
      <trkpt lat="43.50844" lon="2.47931">
        <ele>576.445</ele>
        <time>2021-05-22T13:01:36Z</time>
      </trkpt>
      <trkpt lat="43.50845" lon="2.47928">
        <ele>576.575</ele>
        <time>2021-05-22T13:01:38Z</time>
      </trkpt>
      <trkpt lat="43.50846" lon="2.47924">
        <ele>576.416</ele>
        <time>2021-05-22T13:01:40Z</time>
      </trkpt>
      <trkpt lat="43.50847" lon="2.4792">
        <ele>576.221</ele>
        <time>2021-05-22T13:01:42Z</time>
      </trkpt>
      <trkpt lat="43.50849" lon="2.47916">
        <ele>576.27</ele>
        <time>2021-05-22T13:01:44Z</time>
      </trkpt>
      <trkpt lat="43.5085" lon="2.47912">
        <ele>576.38</ele>
        <time>2021-05-22T13:01:46Z</time>
      </trkpt>
      <trkpt lat="43.50851" lon="2.47908">
        <ele>576.944</ele>
        <time>2021-05-22T13:01:48Z</time>
      </trkpt>
      <trkpt lat="43.50852" lon="2.47905">
        <ele>577.324</ele>
        <time>2021-05-22T13:01:50Z</time>
      </trkpt>
      <trkpt lat="43.50853" lon="2.47901">
        <ele>577.375</ele>
        <time>2021-05-22T13:01:52Z</time>
      </trkpt>
      <trkpt lat="43.50854" lon="2.47898">
        <ele>577.432</ele>
        <time>2021-05-22T13:01:54Z</time>
      </trkpt>
      <trkpt lat="43.50855" lon="2.47895">
        <ele>577.421</ele>
        <time>2021-05-22T13:01:56Z</time>
      </trkpt>
      <trkpt lat="43.50856" lon="2.47891">
        <ele>577.741</ele>
        <time>2021-05-22T13:01:58Z</time>
      </trkpt>
      <trkpt lat="43.50857" lon="2.47888">
        <ele>578.663</ele>
        <time>2021-05-22T13:02:00Z</time>
      </trkpt>
      <trkpt lat="43.50858" lon="2.47885">
        <ele>578.191</ele>
        <time>2021-05-22T13:02:02Z</time>
      </trkpt>
      <trkpt lat="43.5086" lon="2.47882">
        <ele>577.937</ele>
        <time>2021-05-22T13:02:04Z</time>
      </trkpt>
      <trkpt lat="43.50861" lon="2.47879">
        <ele>578.202</ele>
        <time>2021-05-22T13:02:06Z</time>
      </trkpt>
      <trkpt lat="43.5086" lon="2.47877">
        <ele>577.861</ele>
        <time>2021-05-22T13:02:08Z</time>
      </trkpt>
      <trkpt lat="43.50861" lon="2.47874">
        <ele>578.254</ele>
        <time>2021-05-22T13:02:10Z</time>
      </trkpt>
      <trkpt lat="43.50861" lon="2.47871">
        <ele>578.36</ele>
        <time>2021-05-22T13:02:12Z</time>
      </trkpt>
      <trkpt lat="43.50861" lon="2.47868">
        <ele>578.795</ele>
        <time>2021-05-22T13:02:14Z</time>
      </trkpt>
      <trkpt lat="43.50862" lon="2.47865">
        <ele>579.007</ele>
        <time>2021-05-22T13:02:16Z</time>
      </trkpt>
      <trkpt lat="43.50862" lon="2.47863">
        <ele>579.629</ele>
        <time>2021-05-22T13:02:18Z</time>
      </trkpt>
      <trkpt lat="43.50863" lon="2.47861">
        <ele>579.552</ele>
        <time>2021-05-22T13:02:20Z</time>
      </trkpt>
      <trkpt lat="43.50864" lon="2.47858">
        <ele>579.861</ele>
        <time>2021-05-22T13:02:22Z</time>
      </trkpt>
      <trkpt lat="43.50865" lon="2.47856">
        <ele>580.024</ele>
        <time>2021-05-22T13:02:24Z</time>
      </trkpt>
      <trkpt lat="43.50866" lon="2.47852">
        <ele>580.136</ele>
        <time>2021-05-22T13:02:26Z</time>
      </trkpt>
      <trkpt lat="43.50867" lon="2.47849">
        <ele>579.702</ele>
        <time>2021-05-22T13:02:28Z</time>
      </trkpt>
      <trkpt lat="43.50869" lon="2.47847">
        <ele>579.633</ele>
        <time>2021-05-22T13:02:30Z</time>
      </trkpt>
      <trkpt lat="43.50871" lon="2.47846">
        <ele>579.814</ele>
        <time>2021-05-22T13:02:32Z</time>
      </trkpt>
      <trkpt lat="43.50873" lon="2.47844">
        <ele>579.808</ele>
        <time>2021-05-22T13:02:34Z</time>
      </trkpt>
      <trkpt lat="43.50876" lon="2.47846">
        <ele>580.445</ele>
        <time>2021-05-22T13:02:36Z</time>
      </trkpt>
      <trkpt lat="43.50877" lon="2.47849">
        <ele>580.011</ele>
        <time>2021-05-22T13:02:38Z</time>
      </trkpt>
      <trkpt lat="43.50878" lon="2.47852">
        <ele>580.119</ele>
        <time>2021-05-22T13:02:40Z</time>
      </trkpt>
      <trkpt lat="43.50879" lon="2.47855">
        <ele>580.234</ele>
        <time>2021-05-22T13:02:42Z</time>
      </trkpt>
      <trkpt lat="43.50881" lon="2.47858">
        <ele>580.077</ele>
        <time>2021-05-22T13:02:44Z</time>
      </trkpt>
      <trkpt lat="43.50882" lon="2.4786">
        <ele>580.45</ele>
        <time>2021-05-22T13:02:46Z</time>
      </trkpt>
      <trkpt lat="43.50883" lon="2.47862">
        <ele>580.52</ele>
        <time>2021-05-22T13:02:48Z</time>
      </trkpt>
      <trkpt lat="43.50885" lon="2.47862">
        <ele>580.116</ele>
        <time>2021-05-22T13:02:50Z</time>
      </trkpt>
      <trkpt lat="43.50887" lon="2.4786">
        <ele>579.701</ele>
        <time>2021-05-22T13:02:52Z</time>
      </trkpt>
      <trkpt lat="43.50888" lon="2.47857">
        <ele>579.525</ele>
        <time>2021-05-22T13:02:54Z</time>
      </trkpt>
      <trkpt lat="43.50888" lon="2.47855">
        <ele>579.64</ele>
        <time>2021-05-22T13:02:56Z</time>
      </trkpt>
      <trkpt lat="43.50889" lon="2.47852">
        <ele>579.954</ele>
        <time>2021-05-22T13:02:58Z</time>
      </trkpt>
      <trkpt lat="43.50889" lon="2.47849">
        <ele>579.268</ele>
        <time>2021-05-22T13:03:00Z</time>
      </trkpt>
      <trkpt lat="43.50889" lon="2.47845">
        <ele>578.874</ele>
        <time>2021-05-22T13:03:02Z</time>
      </trkpt>
      <trkpt lat="43.5089" lon="2.47843">
        <ele>578.532</ele>
        <time>2021-05-22T13:03:04Z</time>
      </trkpt>
      <trkpt lat="43.50891" lon="2.47839">
        <ele>577.857</ele>
        <time>2021-05-22T13:03:06Z</time>
      </trkpt>
      <trkpt lat="43.50891" lon="2.47837">
        <ele>576.992</ele>
        <time>2021-05-22T13:03:08Z</time>
      </trkpt>
      <trkpt lat="43.50892" lon="2.47834">
        <ele>577.094</ele>
        <time>2021-05-22T13:03:10Z</time>
      </trkpt>
      <trkpt lat="43.50893" lon="2.4783">
        <ele>577.954</ele>
        <time>2021-05-22T13:03:12Z</time>
      </trkpt>
      <trkpt lat="43.50893" lon="2.47827">
        <ele>578.405</ele>
        <time>2021-05-22T13:03:14Z</time>
      </trkpt>
      <trkpt lat="43.50893" lon="2.47824">
        <ele>577.795</ele>
        <time>2021-05-22T13:03:16Z</time>
      </trkpt>
      <trkpt lat="43.50894" lon="2.47822">
        <ele>577.207</ele>
        <time>2021-05-22T13:03:18Z</time>
      </trkpt>
      <trkpt lat="43.50894" lon="2.47819">
        <ele>577.212</ele>
        <time>2021-05-22T13:03:20Z</time>
      </trkpt>
      <trkpt lat="43.50895" lon="2.47816">
        <ele>577.319</ele>
        <time>2021-05-22T13:03:22Z</time>
      </trkpt>
      <trkpt lat="43.50895" lon="2.47813">
        <ele>577.083</ele>
        <time>2021-05-22T13:03:24Z</time>
      </trkpt>
      <trkpt lat="43.50895" lon="2.4781">
        <ele>576.638</ele>
        <time>2021-05-22T13:03:26Z</time>
      </trkpt>
      <trkpt lat="43.50895" lon="2.47808">
        <ele>576.188</ele>
        <time>2021-05-22T13:03:28Z</time>
      </trkpt>
      <trkpt lat="43.50895" lon="2.47805">
        <ele>575.439</ele>
        <time>2021-05-22T13:03:30Z</time>
      </trkpt>
      <trkpt lat="43.50895" lon="2.47802">
        <ele>574.856</ele>
        <time>2021-05-22T13:03:32Z</time>
      </trkpt>
      <trkpt lat="43.50895" lon="2.47799">
        <ele>574.383</ele>
        <time>2021-05-22T13:03:34Z</time>
      </trkpt>
      <trkpt lat="43.50896" lon="2.47796">
        <ele>574.276</ele>
        <time>2021-05-22T13:03:36Z</time>
      </trkpt>
      <trkpt lat="43.50896" lon="2.47793">
        <ele>574.766</ele>
        <time>2021-05-22T13:03:38Z</time>
      </trkpt>
      <trkpt lat="43.50895" lon="2.4779">
        <ele>574.478</ele>
        <time>2021-05-22T13:03:40Z</time>
      </trkpt>
      <trkpt lat="43.50893" lon="2.47788">
        <ele>574.894</ele>
        <time>2021-05-22T13:03:42Z</time>
      </trkpt>
      <trkpt lat="43.5089" lon="2.47786">
        <ele>573.991</ele>
        <time>2021-05-22T13:03:44Z</time>
      </trkpt>
      <trkpt lat="43.50891" lon="2.47782">
        <ele>574.668</ele>
        <time>2021-05-22T13:03:46Z</time>
      </trkpt>
      <trkpt lat="43.50891" lon="2.47779">
        <ele>574.357</ele>
        <time>2021-05-22T13:03:48Z</time>
      </trkpt>
      <trkpt lat="43.50892" lon="2.47776">
        <ele>574.29</ele>
        <time>2021-05-22T13:03:50Z</time>
      </trkpt>
      <trkpt lat="43.50893" lon="2.47772">
        <ele>574.237</ele>
        <time>2021-05-22T13:03:52Z</time>
      </trkpt>
      <trkpt lat="43.50892" lon="2.47769">
        <ele>573.818</ele>
        <time>2021-05-22T13:03:54Z</time>
      </trkpt>
      <trkpt lat="43.50892" lon="2.47766">
        <ele>573.523</ele>
        <time>2021-05-22T13:03:56Z</time>
      </trkpt>
      <trkpt lat="43.50892" lon="2.47763">
        <ele>573.769</ele>
        <time>2021-05-22T13:03:58Z</time>
      </trkpt>
      <trkpt lat="43.50892" lon="2.47761">
        <ele>574.075</ele>
        <time>2021-05-22T13:04:00Z</time>
      </trkpt>
      <trkpt lat="43.50892" lon="2.47758">
        <ele>574.397</ele>
        <time>2021-05-22T13:04:02Z</time>
      </trkpt>
      <trkpt lat="43.5089" lon="2.47756">
        <ele>576.915</ele>
        <time>2021-05-22T13:04:04Z</time>
      </trkpt>
      <trkpt lat="43.50888" lon="2.47757">
        <ele>577.829</ele>
        <time>2021-05-22T13:04:06Z</time>
      </trkpt>
      <trkpt lat="43.50887" lon="2.47759">
        <ele>577.967</ele>
        <time>2021-05-22T13:04:09Z</time>
      </trkpt>
      <trkpt lat="43.50887" lon="2.47759">
        <ele>577.969</ele>
        <time>2021-05-22T13:04:10Z</time>
      </trkpt>
      <trkpt lat="43.50887" lon="2.47759">
        <ele>577.966</ele>
        <time>2021-05-22T13:04:13Z</time>
      </trkpt>
      <trkpt lat="43.50887" lon="2.47759">
        <ele>577.964</ele>
        <time>2021-05-22T13:04:15Z</time>
      </trkpt>
      <trkpt lat="43.50887" lon="2.47759">
        <ele>577.967</ele>
        <time>2021-05-22T13:04:17Z</time>
      </trkpt>
      <trkpt lat="43.50887" lon="2.47759">
        <ele>577.969</ele>
        <time>2021-05-22T13:04:19Z</time>
      </trkpt>
      <trkpt lat="43.50887" lon="2.47759">
        <ele>577.969</ele>
        <time>2021-05-22T13:04:21Z</time>
      </trkpt>
      <trkpt lat="43.50887" lon="2.47759">
        <ele>577.969</ele>
        <time>2021-05-22T13:04:23Z</time>
      </trkpt>
      <trkpt lat="43.50887" lon="2.47759">
        <ele>577.973</ele>
        <time>2021-05-22T13:04:25Z</time>
      </trkpt>
      <trkpt lat="43.50887" lon="2.47759">
        <ele>577.974</ele>
        <time>2021-05-22T13:04:27Z</time>
      </trkpt>
      <trkpt lat="43.50887" lon="2.47759">
        <ele>577.975</ele>
        <time>2021-05-22T13:04:29Z</time>
      </trkpt>
      <trkpt lat="43.50887" lon="2.47759">
        <ele>577.976</ele>
        <time>2021-05-22T13:04:31Z</time>
      </trkpt>
      <trkpt lat="43.50887" lon="2.47759">
        <ele>577.978</ele>
        <time>2021-05-22T13:04:33Z</time>
      </trkpt>
      <trkpt lat="43.50887" lon="2.47759">
        <ele>577.979</ele>
        <time>2021-05-22T13:04:35Z</time>
      </trkpt>
      <trkpt lat="43.50887" lon="2.47759">
        <ele>577.979</ele>
        <time>2021-05-22T13:04:37Z</time>
      </trkpt>
      <trkpt lat="43.50887" lon="2.47759">
        <ele>577.977</ele>
        <time>2021-05-22T13:04:39Z</time>
      </trkpt>
      <trkpt lat="43.50887" lon="2.47759">
        <ele>577.976</ele>
        <time>2021-05-22T13:04:41Z</time>
      </trkpt>
      <trkpt lat="43.50887" lon="2.47759">
        <ele>577.977</ele>
        <time>2021-05-22T13:04:43Z</time>
      </trkpt>
      <trkpt lat="43.50887" lon="2.47759">
        <ele>577.967</ele>
        <time>2021-05-22T13:04:45Z</time>
      </trkpt>
      <trkpt lat="43.50887" lon="2.47759">
        <ele>577.951</ele>
        <time>2021-05-22T13:04:47Z</time>
      </trkpt>
      <trkpt lat="43.50887" lon="2.47759">
        <ele>577.928</ele>
        <time>2021-05-22T13:04:49Z</time>
      </trkpt>
      <trkpt lat="43.50887" lon="2.47759">
        <ele>577.922</ele>
        <time>2021-05-22T13:04:51Z</time>
      </trkpt>
      <trkpt lat="43.50887" lon="2.47759">
        <ele>577.92</ele>
        <time>2021-05-22T13:04:53Z</time>
      </trkpt>
      <trkpt lat="43.50887" lon="2.47759">
        <ele>577.92</ele>
        <time>2021-05-22T13:04:55Z</time>
      </trkpt>
      <trkpt lat="43.50887" lon="2.47759">
        <ele>577.913</ele>
        <time>2021-05-22T13:04:57Z</time>
      </trkpt>
      <trkpt lat="43.50887" lon="2.47759">
        <ele>577.907</ele>
        <time>2021-05-22T13:04:59Z</time>
      </trkpt>
      <trkpt lat="43.50887" lon="2.47759">
        <ele>577.907</ele>
        <time>2021-05-22T13:05:01Z</time>
      </trkpt>
      <trkpt lat="43.50887" lon="2.47759">
        <ele>577.905</ele>
        <time>2021-05-22T13:05:03Z</time>
      </trkpt>
      <trkpt lat="43.50887" lon="2.47759">
        <ele>577.899</ele>
        <time>2021-05-22T13:05:05Z</time>
      </trkpt>
      <trkpt lat="43.50887" lon="2.47759">
        <ele>577.904</ele>
        <time>2021-05-22T13:05:07Z</time>
      </trkpt>
      <trkpt lat="43.50887" lon="2.47759">
        <ele>577.903</ele>
        <time>2021-05-22T13:05:09Z</time>
      </trkpt>
      <trkpt lat="43.50887" lon="2.47759">
        <ele>577.898</ele>
        <time>2021-05-22T13:05:11Z</time>
      </trkpt>
      <trkpt lat="43.50888" lon="2.47759">
        <ele>577.809</ele>
        <time>2021-05-22T13:05:13Z</time>
      </trkpt>
      <trkpt lat="43.50889" lon="2.47758">
        <ele>577.364</ele>
        <time>2021-05-22T13:05:15Z</time>
      </trkpt>
      <trkpt lat="43.50889" lon="2.47756">
        <ele>576.539</ele>
        <time>2021-05-22T13:05:17Z</time>
      </trkpt>
      <trkpt lat="43.50885" lon="2.47754">
        <ele>576.076</ele>
        <time>2021-05-22T13:05:19Z</time>
      </trkpt>
      <trkpt lat="43.50886" lon="2.47751">
        <ele>575.889</ele>
        <time>2021-05-22T13:05:21Z</time>
      </trkpt>
      <trkpt lat="43.50887" lon="2.47748">
        <ele>574.033</ele>
        <time>2021-05-22T13:05:23Z</time>
      </trkpt>
      <trkpt lat="43.50887" lon="2.47745">
        <ele>573.608</ele>
        <time>2021-05-22T13:05:25Z</time>
      </trkpt>
      <trkpt lat="43.50886" lon="2.47742">
        <ele>572.963</ele>
        <time>2021-05-22T13:05:27Z</time>
      </trkpt>
      <trkpt lat="43.50888" lon="2.47741">
        <ele>573.631</ele>
        <time>2021-05-22T13:05:29Z</time>
      </trkpt>
      <trkpt lat="43.50889" lon="2.47738">
        <ele>573.309</ele>
        <time>2021-05-22T13:05:31Z</time>
      </trkpt>
      <trkpt lat="43.5089" lon="2.47737">
        <ele>573.792</ele>
        <time>2021-05-22T13:05:33Z</time>
      </trkpt>
      <trkpt lat="43.5089" lon="2.47733">
        <ele>572.74</ele>
        <time>2021-05-22T13:05:35Z</time>
      </trkpt>
      <trkpt lat="43.5089" lon="2.4773">
        <ele>571.642</ele>
        <time>2021-05-22T13:05:37Z</time>
      </trkpt>
      <trkpt lat="43.5089" lon="2.47726">
        <ele>571.606</ele>
        <time>2021-05-22T13:05:39Z</time>
      </trkpt>
      <trkpt lat="43.50892" lon="2.47724">
        <ele>572.111</ele>
        <time>2021-05-22T13:05:41Z</time>
      </trkpt>
      <trkpt lat="43.50893" lon="2.47721">
        <ele>573.491</ele>
        <time>2021-05-22T13:05:43Z</time>
      </trkpt>
      <trkpt lat="43.50895" lon="2.47719">
        <ele>573.405</ele>
        <time>2021-05-22T13:05:45Z</time>
      </trkpt>
      <trkpt lat="43.50897" lon="2.47717">
        <ele>572.059</ele>
        <time>2021-05-22T13:05:47Z</time>
      </trkpt>
      <trkpt lat="43.50897" lon="2.47714">
        <ele>572.955</ele>
        <time>2021-05-22T13:05:49Z</time>
      </trkpt>
      <trkpt lat="43.50897" lon="2.47711">
        <ele>573.038</ele>
        <time>2021-05-22T13:05:51Z</time>
      </trkpt>
      <trkpt lat="43.50898" lon="2.47708">
        <ele>575.372</ele>
        <time>2021-05-22T13:05:53Z</time>
      </trkpt>
      <trkpt lat="43.50899" lon="2.47705">
        <ele>575.847</ele>
        <time>2021-05-22T13:05:55Z</time>
      </trkpt>
      <trkpt lat="43.509" lon="2.47702">
        <ele>575.217</ele>
        <time>2021-05-22T13:05:57Z</time>
      </trkpt>
      <trkpt lat="43.509" lon="2.47698">
        <ele>574.071</ele>
        <time>2021-05-22T13:05:59Z</time>
      </trkpt>
      <trkpt lat="43.50902" lon="2.47695">
        <ele>575.023</ele>
        <time>2021-05-22T13:06:01Z</time>
      </trkpt>
      <trkpt lat="43.50904" lon="2.47691">
        <ele>575.927</ele>
        <time>2021-05-22T13:06:03Z</time>
      </trkpt>
      <trkpt lat="43.50906" lon="2.47688">
        <ele>576.17</ele>
        <time>2021-05-22T13:06:05Z</time>
      </trkpt>
      <trkpt lat="43.50907" lon="2.47684">
        <ele>576.516</ele>
        <time>2021-05-22T13:06:07Z</time>
      </trkpt>
      <trkpt lat="43.50908" lon="2.47681">
        <ele>577.583</ele>
        <time>2021-05-22T13:06:09Z</time>
      </trkpt>
      <trkpt lat="43.5091" lon="2.47677">
        <ele>577.424</ele>
        <time>2021-05-22T13:06:11Z</time>
      </trkpt>
      <trkpt lat="43.50911" lon="2.47674">
        <ele>577.877</ele>
        <time>2021-05-22T13:06:13Z</time>
      </trkpt>
      <trkpt lat="43.50912" lon="2.4767">
        <ele>577.742</ele>
        <time>2021-05-22T13:06:15Z</time>
      </trkpt>
      <trkpt lat="43.50913" lon="2.47667">
        <ele>577.729</ele>
        <time>2021-05-22T13:06:17Z</time>
      </trkpt>
      <trkpt lat="43.50914" lon="2.47663">
        <ele>578.2</ele>
        <time>2021-05-22T13:06:19Z</time>
      </trkpt>
      <trkpt lat="43.50915" lon="2.47659">
        <ele>577.1</ele>
        <time>2021-05-22T13:06:21Z</time>
      </trkpt>
      <trkpt lat="43.50915" lon="2.47657">
        <ele>577.994</ele>
        <time>2021-05-22T13:06:23Z</time>
      </trkpt>
      <trkpt lat="43.50914" lon="2.47653">
        <ele>576.807</ele>
        <time>2021-05-22T13:06:25Z</time>
      </trkpt>
      <trkpt lat="43.50914" lon="2.4765">
        <ele>576.142</ele>
        <time>2021-05-22T13:06:27Z</time>
      </trkpt>
      <trkpt lat="43.50915" lon="2.47647">
        <ele>576.352</ele>
        <time>2021-05-22T13:06:29Z</time>
      </trkpt>
      <trkpt lat="43.50915" lon="2.47644">
        <ele>576.503</ele>
        <time>2021-05-22T13:06:31Z</time>
      </trkpt>
      <trkpt lat="43.50915" lon="2.47641">
        <ele>575.897</ele>
        <time>2021-05-22T13:06:33Z</time>
      </trkpt>
      <trkpt lat="43.50916" lon="2.47637">
        <ele>575.293</ele>
        <time>2021-05-22T13:06:35Z</time>
      </trkpt>
      <trkpt lat="43.50916" lon="2.47634">
        <ele>572.808</ele>
        <time>2021-05-22T13:06:37Z</time>
      </trkpt>
      <trkpt lat="43.50917" lon="2.4763">
        <ele>572.834</ele>
        <time>2021-05-22T13:06:39Z</time>
      </trkpt>
      <trkpt lat="43.50918" lon="2.47627">
        <ele>573.491</ele>
        <time>2021-05-22T13:06:41Z</time>
      </trkpt>
      <trkpt lat="43.50918" lon="2.47623">
        <ele>572.651</ele>
        <time>2021-05-22T13:06:43Z</time>
      </trkpt>
      <trkpt lat="43.50919" lon="2.47619">
        <ele>572.559</ele>
        <time>2021-05-22T13:06:45Z</time>
      </trkpt>
      <trkpt lat="43.50921" lon="2.47615">
        <ele>573.338</ele>
        <time>2021-05-22T13:06:47Z</time>
      </trkpt>
      <trkpt lat="43.50923" lon="2.47611">
        <ele>572.771</ele>
        <time>2021-05-22T13:06:49Z</time>
      </trkpt>
      <trkpt lat="43.50924" lon="2.47608">
        <ele>574.17</ele>
        <time>2021-05-22T13:06:51Z</time>
      </trkpt>
      <trkpt lat="43.50925" lon="2.47604">
        <ele>575.178</ele>
        <time>2021-05-22T13:06:53Z</time>
      </trkpt>
      <trkpt lat="43.50926" lon="2.476">
        <ele>574.874</ele>
        <time>2021-05-22T13:06:55Z</time>
      </trkpt>
      <trkpt lat="43.50927" lon="2.47598">
        <ele>574.42</ele>
        <time>2021-05-22T13:06:57Z</time>
      </trkpt>
      <trkpt lat="43.50928" lon="2.47596">
        <ele>575.94</ele>
        <time>2021-05-22T13:06:59Z</time>
      </trkpt>
      <trkpt lat="43.50929" lon="2.47593">
        <ele>576.581</ele>
        <time>2021-05-22T13:07:01Z</time>
      </trkpt>
      <trkpt lat="43.5093" lon="2.4759">
        <ele>576.554</ele>
        <time>2021-05-22T13:07:03Z</time>
      </trkpt>
      <trkpt lat="43.5093" lon="2.47588">
        <ele>576.06</ele>
        <time>2021-05-22T13:07:05Z</time>
      </trkpt>
      <trkpt lat="43.50929" lon="2.47586">
        <ele>575.358</ele>
        <time>2021-05-22T13:07:07Z</time>
      </trkpt>
      <trkpt lat="43.5093" lon="2.47586">
        <ele>575.087</ele>
        <time>2021-05-22T13:07:09Z</time>
      </trkpt>
      <trkpt lat="43.50931" lon="2.47586">
        <ele>573.08</ele>
        <time>2021-05-22T13:07:11Z</time>
      </trkpt>
      <trkpt lat="43.50931" lon="2.47587">
        <ele>573.243</ele>
        <time>2021-05-22T13:07:13Z</time>
      </trkpt>
      <trkpt lat="43.50932" lon="2.47587">
        <ele>574.141</ele>
        <time>2021-05-22T13:07:15Z</time>
      </trkpt>
      <trkpt lat="43.50934" lon="2.47587">
        <ele>574.297</ele>
        <time>2021-05-22T13:07:17Z</time>
      </trkpt>
      <trkpt lat="43.50935" lon="2.47587">
        <ele>573.919</ele>
        <time>2021-05-22T13:07:19Z</time>
      </trkpt>
      <trkpt lat="43.50936" lon="2.47589">
        <ele>574.486</ele>
        <time>2021-05-22T13:07:21Z</time>
      </trkpt>
      <trkpt lat="43.50937" lon="2.47589">
        <ele>574.56</ele>
        <time>2021-05-22T13:07:23Z</time>
      </trkpt>
      <trkpt lat="43.50938" lon="2.47589">
        <ele>575.275</ele>
        <time>2021-05-22T13:07:24Z</time>
      </trkpt>
      <trkpt lat="43.50938" lon="2.47588">
        <ele>576.06</ele>
        <time>2021-05-22T13:07:27Z</time>
      </trkpt>
      <trkpt lat="43.50938" lon="2.47588">
        <ele>575.159</ele>
        <time>2021-05-22T13:07:29Z</time>
      </trkpt>
      <trkpt lat="43.50937" lon="2.47588">
        <ele>575.166</ele>
        <time>2021-05-22T13:07:31Z</time>
      </trkpt>
      <trkpt lat="43.50937" lon="2.47588">
        <ele>575.169</ele>
        <time>2021-05-22T13:07:33Z</time>
      </trkpt>
      <trkpt lat="43.50937" lon="2.47588">
        <ele>575.177</ele>
        <time>2021-05-22T13:07:35Z</time>
      </trkpt>
      <trkpt lat="43.50937" lon="2.47588">
        <ele>575.28</ele>
        <time>2021-05-22T13:07:37Z</time>
      </trkpt>
      <trkpt lat="43.50937" lon="2.47588">
        <ele>575.45</ele>
        <time>2021-05-22T13:07:39Z</time>
      </trkpt>
      <trkpt lat="43.50936" lon="2.47588">
        <ele>575.417</ele>
        <time>2021-05-22T13:07:41Z</time>
      </trkpt>
      <trkpt lat="43.50936" lon="2.47589">
        <ele>576.232</ele>
        <time>2021-05-22T13:07:43Z</time>
      </trkpt>
      <trkpt lat="43.50936" lon="2.4759">
        <ele>577.88</ele>
        <time>2021-05-22T13:07:45Z</time>
      </trkpt>
      <trkpt lat="43.50936" lon="2.4759">
        <ele>578.302</ele>
        <time>2021-05-22T13:07:47Z</time>
      </trkpt>
      <trkpt lat="43.50937" lon="2.47592">
        <ele>578.941</ele>
        <time>2021-05-22T13:07:49Z</time>
      </trkpt>
      <trkpt lat="43.50937" lon="2.47593">
        <ele>580.449</ele>
        <time>2021-05-22T13:07:51Z</time>
      </trkpt>
      <trkpt lat="43.50936" lon="2.47593">
        <ele>580.346</ele>
        <time>2021-05-22T13:07:53Z</time>
      </trkpt>
      <trkpt lat="43.50934" lon="2.47593">
        <ele>579.864</ele>
        <time>2021-05-22T13:07:55Z</time>
      </trkpt>
      <trkpt lat="43.50933" lon="2.47592">
        <ele>579.341</ele>
        <time>2021-05-22T13:07:57Z</time>
      </trkpt>
      <trkpt lat="43.50933" lon="2.47592">
        <ele>579.345</ele>
        <time>2021-05-22T13:07:59Z</time>
      </trkpt>
      <trkpt lat="43.50933" lon="2.47592">
        <ele>579.357</ele>
        <time>2021-05-22T13:08:01Z</time>
      </trkpt>
      <trkpt lat="43.50933" lon="2.47592">
        <ele>579.361</ele>
        <time>2021-05-22T13:08:03Z</time>
      </trkpt>
      <trkpt lat="43.50933" lon="2.47592">
        <ele>579.366</ele>
        <time>2021-05-22T13:08:05Z</time>
      </trkpt>
      <trkpt lat="43.50933" lon="2.47592">
        <ele>579.381</ele>
        <time>2021-05-22T13:08:07Z</time>
      </trkpt>
      <trkpt lat="43.50933" lon="2.47591">
        <ele>579.519</ele>
        <time>2021-05-22T13:08:09Z</time>
      </trkpt>
      <trkpt lat="43.50933" lon="2.47591">
        <ele>579.478</ele>
        <time>2021-05-22T13:08:11Z</time>
      </trkpt>
      <trkpt lat="43.50933" lon="2.47591">
        <ele>579.485</ele>
        <time>2021-05-22T13:08:13Z</time>
      </trkpt>
      <trkpt lat="43.50932" lon="2.47591">
        <ele>579.215</ele>
        <time>2021-05-22T13:08:15Z</time>
      </trkpt>
      <trkpt lat="43.50932" lon="2.47592">
        <ele>579.115</ele>
        <time>2021-05-22T13:08:17Z</time>
      </trkpt>
      <trkpt lat="43.50932" lon="2.47592">
        <ele>579.125</ele>
        <time>2021-05-22T13:08:19Z</time>
      </trkpt>
      <trkpt lat="43.50932" lon="2.47592">
        <ele>579.119</ele>
        <time>2021-05-22T13:08:21Z</time>
      </trkpt>
      <trkpt lat="43.50932" lon="2.47592">
        <ele>579.123</ele>
        <time>2021-05-22T13:08:23Z</time>
      </trkpt>
      <trkpt lat="43.50932" lon="2.47592">
        <ele>579.127</ele>
        <time>2021-05-22T13:08:25Z</time>
      </trkpt>
      <trkpt lat="43.50932" lon="2.47591">
        <ele>579.13</ele>
        <time>2021-05-22T13:08:27Z</time>
      </trkpt>
      <trkpt lat="43.50932" lon="2.47591">
        <ele>579.14</ele>
        <time>2021-05-22T13:08:29Z</time>
      </trkpt>
      <trkpt lat="43.50932" lon="2.47591">
        <ele>579.139</ele>
        <time>2021-05-22T13:08:31Z</time>
      </trkpt>
      <trkpt lat="43.50932" lon="2.47591">
        <ele>579.136</ele>
        <time>2021-05-22T13:08:33Z</time>
      </trkpt>
      <trkpt lat="43.50932" lon="2.47591">
        <ele>579.151</ele>
        <time>2021-05-22T13:08:35Z</time>
      </trkpt>
      <trkpt lat="43.50932" lon="2.47591">
        <ele>579.153</ele>
        <time>2021-05-22T13:08:37Z</time>
      </trkpt>
      <trkpt lat="43.50932" lon="2.47591">
        <ele>579.167</ele>
        <time>2021-05-22T13:08:39Z</time>
      </trkpt>
      <trkpt lat="43.50932" lon="2.47591">
        <ele>579.173</ele>
        <time>2021-05-22T13:08:41Z</time>
      </trkpt>
      <trkpt lat="43.50932" lon="2.47591">
        <ele>579.173</ele>
        <time>2021-05-22T13:08:43Z</time>
      </trkpt>
      <trkpt lat="43.50932" lon="2.47591">
        <ele>579.179</ele>
        <time>2021-05-22T13:08:45Z</time>
      </trkpt>
      <trkpt lat="43.50932" lon="2.47591">
        <ele>578.992</ele>
        <time>2021-05-22T13:08:47Z</time>
      </trkpt>
      <trkpt lat="43.50932" lon="2.47591">
        <ele>579.003</ele>
        <time>2021-05-22T13:08:49Z</time>
      </trkpt>
      <trkpt lat="43.50932" lon="2.47591">
        <ele>579.034</ele>
        <time>2021-05-22T13:08:51Z</time>
      </trkpt>
      <trkpt lat="43.50932" lon="2.47591">
        <ele>579.04</ele>
        <time>2021-05-22T13:08:53Z</time>
      </trkpt>
      <trkpt lat="43.50932" lon="2.47591">
        <ele>579.049</ele>
        <time>2021-05-22T13:08:55Z</time>
      </trkpt>
      <trkpt lat="43.50932" lon="2.4759">
        <ele>578.662</ele>
        <time>2021-05-22T13:08:57Z</time>
      </trkpt>
      <trkpt lat="43.50932" lon="2.4759">
        <ele>578.612</ele>
        <time>2021-05-22T13:08:59Z</time>
      </trkpt>
      <trkpt lat="43.50932" lon="2.4759">
        <ele>578.61</ele>
        <time>2021-05-22T13:09:01Z</time>
      </trkpt>
      <trkpt lat="43.50932" lon="2.4759">
        <ele>578.608</ele>
        <time>2021-05-22T13:09:03Z</time>
      </trkpt>
      <trkpt lat="43.50932" lon="2.4759">
        <ele>578.615</ele>
        <time>2021-05-22T13:09:05Z</time>
      </trkpt>
      <trkpt lat="43.50932" lon="2.4759">
        <ele>578.735</ele>
        <time>2021-05-22T13:09:07Z</time>
      </trkpt>
      <trkpt lat="43.50931" lon="2.4759">
        <ele>578.745</ele>
        <time>2021-05-22T13:09:09Z</time>
      </trkpt>
      <trkpt lat="43.50931" lon="2.4759">
        <ele>578.757</ele>
        <time>2021-05-22T13:09:11Z</time>
      </trkpt>
      <trkpt lat="43.50931" lon="2.4759">
        <ele>578.76</ele>
        <time>2021-05-22T13:09:13Z</time>
      </trkpt>
      <trkpt lat="43.50931" lon="2.4759">
        <ele>578.755</ele>
        <time>2021-05-22T13:09:15Z</time>
      </trkpt>
      <trkpt lat="43.50931" lon="2.4759">
        <ele>578.742</ele>
        <time>2021-05-22T13:09:17Z</time>
      </trkpt>
      <trkpt lat="43.50931" lon="2.4759">
        <ele>578.747</ele>
        <time>2021-05-22T13:09:19Z</time>
      </trkpt>
      <trkpt lat="43.50931" lon="2.4759">
        <ele>578.744</ele>
        <time>2021-05-22T13:09:21Z</time>
      </trkpt>
      <trkpt lat="43.50931" lon="2.4759">
        <ele>578.734</ele>
        <time>2021-05-22T13:09:23Z</time>
      </trkpt>
      <trkpt lat="43.50931" lon="2.4759">
        <ele>578.741</ele>
        <time>2021-05-22T13:09:25Z</time>
      </trkpt>
      <trkpt lat="43.50931" lon="2.47589">
        <ele>578.859</ele>
        <time>2021-05-22T13:09:27Z</time>
      </trkpt>
      <trkpt lat="43.50932" lon="2.47589">
        <ele>578.851</ele>
        <time>2021-05-22T13:09:29Z</time>
      </trkpt>
      <trkpt lat="43.50932" lon="2.47589">
        <ele>578.856</ele>
        <time>2021-05-22T13:09:31Z</time>
      </trkpt>
      <trkpt lat="43.50932" lon="2.47589">
        <ele>578.844</ele>
        <time>2021-05-22T13:09:33Z</time>
      </trkpt>
      <trkpt lat="43.50932" lon="2.47589">
        <ele>578.838</ele>
        <time>2021-05-22T13:09:35Z</time>
      </trkpt>
      <trkpt lat="43.50932" lon="2.47589">
        <ele>578.846</ele>
        <time>2021-05-22T13:09:37Z</time>
      </trkpt>
      <trkpt lat="43.50932" lon="2.47589">
        <ele>578.842</ele>
        <time>2021-05-22T13:09:39Z</time>
      </trkpt>
      <trkpt lat="43.50932" lon="2.47589">
        <ele>578.831</ele>
        <time>2021-05-22T13:09:41Z</time>
      </trkpt>
      <trkpt lat="43.50932" lon="2.47589">
        <ele>578.824</ele>
        <time>2021-05-22T13:09:43Z</time>
      </trkpt>
      <trkpt lat="43.50932" lon="2.47589">
        <ele>578.829</ele>
        <time>2021-05-22T13:09:45Z</time>
      </trkpt>
      <trkpt lat="43.50932" lon="2.47589">
        <ele>578.831</ele>
        <time>2021-05-22T13:09:47Z</time>
      </trkpt>
      <trkpt lat="43.50932" lon="2.47589">
        <ele>578.816</ele>
        <time>2021-05-22T13:09:49Z</time>
      </trkpt>
      <trkpt lat="43.50932" lon="2.47589">
        <ele>578.797</ele>
        <time>2021-05-22T13:09:51Z</time>
      </trkpt>
      <trkpt lat="43.50932" lon="2.47589">
        <ele>578.792</ele>
        <time>2021-05-22T13:09:53Z</time>
      </trkpt>
      <trkpt lat="43.50931" lon="2.47589">
        <ele>578.362</ele>
        <time>2021-05-22T13:09:55Z</time>
      </trkpt>
      <trkpt lat="43.50931" lon="2.47588">
        <ele>578.333</ele>
        <time>2021-05-22T13:09:57Z</time>
      </trkpt>
      <trkpt lat="43.50931" lon="2.47588">
        <ele>578.196</ele>
        <time>2021-05-22T13:09:59Z</time>
      </trkpt>
      <trkpt lat="43.50931" lon="2.47587">
        <ele>578.237</ele>
        <time>2021-05-22T13:10:01Z</time>
      </trkpt>
      <trkpt lat="43.50931" lon="2.47587">
        <ele>578.222</ele>
        <time>2021-05-22T13:10:03Z</time>
      </trkpt>
      <trkpt lat="43.50931" lon="2.47587">
        <ele>578.212</ele>
        <time>2021-05-22T13:10:05Z</time>
      </trkpt>
      <trkpt lat="43.50932" lon="2.47587">
        <ele>578.44</ele>
        <time>2021-05-22T13:10:07Z</time>
      </trkpt>
      <trkpt lat="43.50932" lon="2.47587">
        <ele>578.445</ele>
        <time>2021-05-22T13:10:09Z</time>
      </trkpt>
      <trkpt lat="43.50932" lon="2.47587">
        <ele>578.45</ele>
        <time>2021-05-22T13:10:11Z</time>
      </trkpt>
      <trkpt lat="43.50932" lon="2.47587">
        <ele>578.456</ele>
        <time>2021-05-22T13:10:13Z</time>
      </trkpt>
      <trkpt lat="43.50932" lon="2.47587">
        <ele>578.459</ele>
        <time>2021-05-22T13:10:15Z</time>
      </trkpt>
      <trkpt lat="43.50932" lon="2.47587">
        <ele>578.46</ele>
        <time>2021-05-22T13:10:17Z</time>
      </trkpt>
      <trkpt lat="43.50932" lon="2.47587">
        <ele>578.458</ele>
        <time>2021-05-22T13:10:19Z</time>
      </trkpt>
      <trkpt lat="43.50932" lon="2.47587">
        <ele>578.459</ele>
        <time>2021-05-22T13:10:21Z</time>
      </trkpt>
      <trkpt lat="43.50932" lon="2.47587">
        <ele>578.458</ele>
        <time>2021-05-22T13:10:23Z</time>
      </trkpt>
      <trkpt lat="43.50932" lon="2.47587">
        <ele>578.454</ele>
        <time>2021-05-22T13:10:25Z</time>
      </trkpt>
      <trkpt lat="43.50932" lon="2.47587">
        <ele>578.451</ele>
        <time>2021-05-22T13:10:27Z</time>
      </trkpt>
      <trkpt lat="43.50932" lon="2.47587">
        <ele>578.45</ele>
        <time>2021-05-22T13:10:29Z</time>
      </trkpt>
      <trkpt lat="43.50932" lon="2.47587">
        <ele>578.451</ele>
        <time>2021-05-22T13:10:31Z</time>
      </trkpt>
      <trkpt lat="43.50932" lon="2.47587">
        <ele>578.443</ele>
        <time>2021-05-22T13:10:33Z</time>
      </trkpt>
      <trkpt lat="43.50932" lon="2.47587">
        <ele>578.443</ele>
        <time>2021-05-22T13:10:35Z</time>
      </trkpt>
      <trkpt lat="43.50932" lon="2.47587">
        <ele>578.441</ele>
        <time>2021-05-22T13:10:37Z</time>
      </trkpt>
      <trkpt lat="43.50932" lon="2.47587">
        <ele>578.435</ele>
        <time>2021-05-22T13:10:39Z</time>
      </trkpt>
      <trkpt lat="43.50932" lon="2.47587">
        <ele>578.435</ele>
        <time>2021-05-22T13:10:41Z</time>
      </trkpt>
      <trkpt lat="43.50932" lon="2.47587">
        <ele>578.427</ele>
        <time>2021-05-22T13:10:43Z</time>
      </trkpt>
      <trkpt lat="43.50932" lon="2.47587">
        <ele>578.423</ele>
        <time>2021-05-22T13:10:45Z</time>
      </trkpt>
      <trkpt lat="43.50931" lon="2.47586">
        <ele>577.767</ele>
        <time>2021-05-22T13:10:47Z</time>
      </trkpt>
      <trkpt lat="43.5093" lon="2.47585">
        <ele>577.625</ele>
        <time>2021-05-22T13:10:49Z</time>
      </trkpt>
      <trkpt lat="43.5093" lon="2.47584">
        <ele>577.643</ele>
        <time>2021-05-22T13:10:51Z</time>
      </trkpt>
      <trkpt lat="43.5093" lon="2.47584">
        <ele>577.638</ele>
        <time>2021-05-22T13:10:53Z</time>
      </trkpt>
      <trkpt lat="43.5093" lon="2.47584">
        <ele>577.641</ele>
        <time>2021-05-22T13:10:55Z</time>
      </trkpt>
      <trkpt lat="43.5093" lon="2.47584">
        <ele>577.641</ele>
        <time>2021-05-22T13:10:57Z</time>
      </trkpt>
      <trkpt lat="43.5093" lon="2.47584">
        <ele>577.642</ele>
        <time>2021-05-22T13:10:59Z</time>
      </trkpt>
      <trkpt lat="43.5093" lon="2.47583">
        <ele>576.657</ele>
        <time>2021-05-22T13:11:01Z</time>
      </trkpt>
      <trkpt lat="43.50929" lon="2.47582">
        <ele>575.884</ele>
        <time>2021-05-22T13:11:03Z</time>
      </trkpt>
      <trkpt lat="43.50929" lon="2.47583">
        <ele>576.1</ele>
        <time>2021-05-22T13:11:05Z</time>
      </trkpt>
      <trkpt lat="43.50929" lon="2.47583">
        <ele>576.1</ele>
        <time>2021-05-22T13:11:07Z</time>
      </trkpt>
      <trkpt lat="43.50929" lon="2.47583">
        <ele>576.103</ele>
        <time>2021-05-22T13:11:09Z</time>
      </trkpt>
      <trkpt lat="43.50929" lon="2.47583">
        <ele>576.102</ele>
        <time>2021-05-22T13:11:11Z</time>
      </trkpt>
      <trkpt lat="43.50929" lon="2.47583">
        <ele>576.101</ele>
        <time>2021-05-22T13:11:13Z</time>
      </trkpt>
      <trkpt lat="43.50929" lon="2.47583">
        <ele>576.097</ele>
        <time>2021-05-22T13:11:15Z</time>
      </trkpt>
      <trkpt lat="43.50929" lon="2.47583">
        <ele>576.102</ele>
        <time>2021-05-22T13:11:17Z</time>
      </trkpt>
      <trkpt lat="43.50929" lon="2.47583">
        <ele>576.106</ele>
        <time>2021-05-22T13:11:19Z</time>
      </trkpt>
      <trkpt lat="43.50929" lon="2.47583">
        <ele>576.112</ele>
        <time>2021-05-22T13:11:21Z</time>
      </trkpt>
      <trkpt lat="43.50929" lon="2.47583">
        <ele>576.125</ele>
        <time>2021-05-22T13:11:23Z</time>
      </trkpt>
      <trkpt lat="43.50929" lon="2.47583">
        <ele>576.138</ele>
        <time>2021-05-22T13:11:25Z</time>
      </trkpt>
      <trkpt lat="43.50929" lon="2.47583">
        <ele>576.147</ele>
        <time>2021-05-22T13:11:27Z</time>
      </trkpt>
      <trkpt lat="43.50929" lon="2.47583">
        <ele>576.159</ele>
        <time>2021-05-22T13:11:29Z</time>
      </trkpt>
      <trkpt lat="43.50929" lon="2.47583">
        <ele>576.167</ele>
        <time>2021-05-22T13:11:31Z</time>
      </trkpt>
      <trkpt lat="43.50929" lon="2.47582">
        <ele>576.167</ele>
        <time>2021-05-22T13:11:33Z</time>
      </trkpt>
      <trkpt lat="43.50929" lon="2.47582">
        <ele>576.169</ele>
        <time>2021-05-22T13:11:35Z</time>
      </trkpt>
      <trkpt lat="43.50929" lon="2.47582">
        <ele>576.173</ele>
        <time>2021-05-22T13:11:37Z</time>
      </trkpt>
      <trkpt lat="43.50929" lon="2.47582">
        <ele>576.176</ele>
        <time>2021-05-22T13:11:39Z</time>
      </trkpt>
      <trkpt lat="43.50929" lon="2.47582">
        <ele>576.183</ele>
        <time>2021-05-22T13:11:41Z</time>
      </trkpt>
      <trkpt lat="43.50929" lon="2.47582">
        <ele>576.198</ele>
        <time>2021-05-22T13:11:43Z</time>
      </trkpt>
      <trkpt lat="43.50929" lon="2.47582">
        <ele>576.213</ele>
        <time>2021-05-22T13:11:45Z</time>
      </trkpt>
      <trkpt lat="43.50929" lon="2.47582">
        <ele>575.642</ele>
        <time>2021-05-22T13:11:47Z</time>
      </trkpt>
      <trkpt lat="43.5093" lon="2.47582">
        <ele>574.833</ele>
        <time>2021-05-22T13:11:49Z</time>
      </trkpt>
      <trkpt lat="43.50932" lon="2.47584">
        <ele>574.594</ele>
        <time>2021-05-22T13:11:51Z</time>
      </trkpt>
      <trkpt lat="43.50934" lon="2.47586">
        <ele>574.867</ele>
        <time>2021-05-22T13:11:53Z</time>
      </trkpt>
      <trkpt lat="43.50936" lon="2.47587">
        <ele>575.02</ele>
        <time>2021-05-22T13:11:55Z</time>
      </trkpt>
      <trkpt lat="43.50938" lon="2.47589">
        <ele>576.479</ele>
        <time>2021-05-22T13:11:57Z</time>
      </trkpt>
      <trkpt lat="43.50939" lon="2.47591">
        <ele>576.941</ele>
        <time>2021-05-22T13:11:59Z</time>
      </trkpt>
      <trkpt lat="43.5094" lon="2.47593">
        <ele>576.43</ele>
        <time>2021-05-22T13:12:01Z</time>
      </trkpt>
      <trkpt lat="43.50941" lon="2.47593">
        <ele>575.02</ele>
        <time>2021-05-22T13:12:03Z</time>
      </trkpt>
      <trkpt lat="43.50943" lon="2.47593">
        <ele>573.757</ele>
        <time>2021-05-22T13:12:05Z</time>
      </trkpt>
      <trkpt lat="43.50945" lon="2.47594">
        <ele>573.07</ele>
        <time>2021-05-22T13:12:07Z</time>
      </trkpt>
      <trkpt lat="43.50946" lon="2.47595">
        <ele>573.173</ele>
        <time>2021-05-22T13:12:09Z</time>
      </trkpt>
      <trkpt lat="43.50948" lon="2.47597">
        <ele>572.925</ele>
        <time>2021-05-22T13:12:11Z</time>
      </trkpt>
      <trkpt lat="43.5095" lon="2.47599">
        <ele>572.83</ele>
        <time>2021-05-22T13:12:13Z</time>
      </trkpt>
      <trkpt lat="43.50952" lon="2.476">
        <ele>571.874</ele>
        <time>2021-05-22T13:12:15Z</time>
      </trkpt>
      <trkpt lat="43.50953" lon="2.47601">
        <ele>571.793</ele>
        <time>2021-05-22T13:12:17Z</time>
      </trkpt>
      <trkpt lat="43.50955" lon="2.47603">
        <ele>571.596</ele>
        <time>2021-05-22T13:12:19Z</time>
      </trkpt>
      <trkpt lat="43.50956" lon="2.47605">
        <ele>572.339</ele>
        <time>2021-05-22T13:12:21Z</time>
      </trkpt>
      <trkpt lat="43.50955" lon="2.47606">
        <ele>572.397</ele>
        <time>2021-05-22T13:12:23Z</time>
      </trkpt>
      <trkpt lat="43.50955" lon="2.47608">
        <ele>572.004</ele>
        <time>2021-05-22T13:12:25Z</time>
      </trkpt>
      <trkpt lat="43.50957" lon="2.47609">
        <ele>571.987</ele>
        <time>2021-05-22T13:12:27Z</time>
      </trkpt>
      <trkpt lat="43.50959" lon="2.47608">
        <ele>570.285</ele>
        <time>2021-05-22T13:12:29Z</time>
      </trkpt>
      <trkpt lat="43.5096" lon="2.47608">
        <ele>569.834</ele>
        <time>2021-05-22T13:12:31Z</time>
      </trkpt>
      <trkpt lat="43.50962" lon="2.47609">
        <ele>570.378</ele>
        <time>2021-05-22T13:12:33Z</time>
      </trkpt>
      <trkpt lat="43.50964" lon="2.47611">
        <ele>570.199</ele>
        <time>2021-05-22T13:12:35Z</time>
      </trkpt>
      <trkpt lat="43.50965" lon="2.47613">
        <ele>570.07</ele>
        <time>2021-05-22T13:12:37Z</time>
      </trkpt>
      <trkpt lat="43.50967" lon="2.47614">
        <ele>570.958</ele>
        <time>2021-05-22T13:12:39Z</time>
      </trkpt>
      <trkpt lat="43.50969" lon="2.47613">
        <ele>570.668</ele>
        <time>2021-05-22T13:12:41Z</time>
      </trkpt>
      <trkpt lat="43.5097" lon="2.47615">
        <ele>572.056</ele>
        <time>2021-05-22T13:12:43Z</time>
      </trkpt>
      <trkpt lat="43.50972" lon="2.47617">
        <ele>572.452</ele>
        <time>2021-05-22T13:12:45Z</time>
      </trkpt>
      <trkpt lat="43.50973" lon="2.47618">
        <ele>572.021</ele>
        <time>2021-05-22T13:12:47Z</time>
      </trkpt>
      <trkpt lat="43.50974" lon="2.47619">
        <ele>572.158</ele>
        <time>2021-05-22T13:12:49Z</time>
      </trkpt>
      <trkpt lat="43.50975" lon="2.47621">
        <ele>572.433</ele>
        <time>2021-05-22T13:12:51Z</time>
      </trkpt>
      <trkpt lat="43.50975" lon="2.47622">
        <ele>572.77</ele>
        <time>2021-05-22T13:12:53Z</time>
      </trkpt>
      <trkpt lat="43.50976" lon="2.47624">
        <ele>572.333</ele>
        <time>2021-05-22T13:12:55Z</time>
      </trkpt>
      <trkpt lat="43.50977" lon="2.47626">
        <ele>571.414</ele>
        <time>2021-05-22T13:12:57Z</time>
      </trkpt>
      <trkpt lat="43.50979" lon="2.47629">
        <ele>569.031</ele>
        <time>2021-05-22T13:12:59Z</time>
      </trkpt>
      <trkpt lat="43.5098" lon="2.47631">
        <ele>567.417</ele>
        <time>2021-05-22T13:13:01Z</time>
      </trkpt>
      <trkpt lat="43.50981" lon="2.47633">
        <ele>568.117</ele>
        <time>2021-05-22T13:13:03Z</time>
      </trkpt>
      <trkpt lat="43.50981" lon="2.47635">
        <ele>567.666</ele>
        <time>2021-05-22T13:13:05Z</time>
      </trkpt>
      <trkpt lat="43.50982" lon="2.47638">
        <ele>567.418</ele>
        <time>2021-05-22T13:13:07Z</time>
      </trkpt>
      <trkpt lat="43.50982" lon="2.4764">
        <ele>566.337</ele>
        <time>2021-05-22T13:13:09Z</time>
      </trkpt>
      <trkpt lat="43.50983" lon="2.47643">
        <ele>565.961</ele>
        <time>2021-05-22T13:13:11Z</time>
      </trkpt>
      <trkpt lat="43.50984" lon="2.47646">
        <ele>567.178</ele>
        <time>2021-05-22T13:13:13Z</time>
      </trkpt>
      <trkpt lat="43.50985" lon="2.47648">
        <ele>566.048</ele>
        <time>2021-05-22T13:13:15Z</time>
      </trkpt>
      <trkpt lat="43.50986" lon="2.47651">
        <ele>565.489</ele>
        <time>2021-05-22T13:13:17Z</time>
      </trkpt>
      <trkpt lat="43.50986" lon="2.47653">
        <ele>564.665</ele>
        <time>2021-05-22T13:13:19Z</time>
      </trkpt>
      <trkpt lat="43.50987" lon="2.47656">
        <ele>564.866</ele>
        <time>2021-05-22T13:13:21Z</time>
      </trkpt>
      <trkpt lat="43.50988" lon="2.47658">
        <ele>564.937</ele>
        <time>2021-05-22T13:13:23Z</time>
      </trkpt>
      <trkpt lat="43.50989" lon="2.4766">
        <ele>565.198</ele>
        <time>2021-05-22T13:13:25Z</time>
      </trkpt>
      <trkpt lat="43.50989" lon="2.47663">
        <ele>564.733</ele>
        <time>2021-05-22T13:13:27Z</time>
      </trkpt>
      <trkpt lat="43.50991" lon="2.47665">
        <ele>565.574</ele>
        <time>2021-05-22T13:13:29Z</time>
      </trkpt>
      <trkpt lat="43.50992" lon="2.47667">
        <ele>565.183</ele>
        <time>2021-05-22T13:13:31Z</time>
      </trkpt>
      <trkpt lat="43.50994" lon="2.47669">
        <ele>565.485</ele>
        <time>2021-05-22T13:13:33Z</time>
      </trkpt>
      <trkpt lat="43.50995" lon="2.47671">
        <ele>564.818</ele>
        <time>2021-05-22T13:13:35Z</time>
      </trkpt>
      <trkpt lat="43.50997" lon="2.47674">
        <ele>563.569</ele>
        <time>2021-05-22T13:13:37Z</time>
      </trkpt>
      <trkpt lat="43.50998" lon="2.47676">
        <ele>561.76</ele>
        <time>2021-05-22T13:13:39Z</time>
      </trkpt>
      <trkpt lat="43.51" lon="2.47679">
        <ele>560.961</ele>
        <time>2021-05-22T13:13:41Z</time>
      </trkpt>
      <trkpt lat="43.51002" lon="2.4768">
        <ele>560.554</ele>
        <time>2021-05-22T13:13:43Z</time>
      </trkpt>
      <trkpt lat="43.51003" lon="2.47682">
        <ele>562.286</ele>
        <time>2021-05-22T13:13:45Z</time>
      </trkpt>
      <trkpt lat="43.51005" lon="2.47684">
        <ele>564.068</ele>
        <time>2021-05-22T13:13:47Z</time>
      </trkpt>
      <trkpt lat="43.51007" lon="2.47685">
        <ele>564.432</ele>
        <time>2021-05-22T13:13:49Z</time>
      </trkpt>
      <trkpt lat="43.51009" lon="2.47685">
        <ele>564.882</ele>
        <time>2021-05-22T13:13:51Z</time>
      </trkpt>
      <trkpt lat="43.51011" lon="2.47686">
        <ele>566.858</ele>
        <time>2021-05-22T13:13:53Z</time>
      </trkpt>
      <trkpt lat="43.51013" lon="2.47686">
        <ele>565.941</ele>
        <time>2021-05-22T13:13:55Z</time>
      </trkpt>
      <trkpt lat="43.51016" lon="2.47688">
        <ele>564.257</ele>
        <time>2021-05-22T13:13:57Z</time>
      </trkpt>
      <trkpt lat="43.51018" lon="2.47689">
        <ele>564.709</ele>
        <time>2021-05-22T13:13:59Z</time>
      </trkpt>
      <trkpt lat="43.5102" lon="2.47691">
        <ele>565.09</ele>
        <time>2021-05-22T13:14:01Z</time>
      </trkpt>
      <trkpt lat="43.51023" lon="2.47692">
        <ele>565.493</ele>
        <time>2021-05-22T13:14:03Z</time>
      </trkpt>
      <trkpt lat="43.51025" lon="2.47693">
        <ele>564.476</ele>
        <time>2021-05-22T13:14:05Z</time>
      </trkpt>
      <trkpt lat="43.51028" lon="2.47693">
        <ele>564.875</ele>
        <time>2021-05-22T13:14:07Z</time>
      </trkpt>
      <trkpt lat="43.51031" lon="2.47694">
        <ele>563.556</ele>
        <time>2021-05-22T13:14:09Z</time>
      </trkpt>
      <trkpt lat="43.51034" lon="2.47694">
        <ele>564.426</ele>
        <time>2021-05-22T13:14:11Z</time>
      </trkpt>
      <trkpt lat="43.51036" lon="2.47694">
        <ele>564.568</ele>
        <time>2021-05-22T13:14:13Z</time>
      </trkpt>
      <trkpt lat="43.51038" lon="2.47695">
        <ele>564.184</ele>
        <time>2021-05-22T13:14:15Z</time>
      </trkpt>
      <trkpt lat="43.5104" lon="2.47695">
        <ele>563.239</ele>
        <time>2021-05-22T13:14:17Z</time>
      </trkpt>
      <trkpt lat="43.51042" lon="2.47695">
        <ele>562.905</ele>
        <time>2021-05-22T13:14:19Z</time>
      </trkpt>
      <trkpt lat="43.51044" lon="2.47694">
        <ele>563.982</ele>
        <time>2021-05-22T13:14:21Z</time>
      </trkpt>
      <trkpt lat="43.51047" lon="2.47694">
        <ele>564.11</ele>
        <time>2021-05-22T13:14:23Z</time>
      </trkpt>
      <trkpt lat="43.51049" lon="2.47695">
        <ele>565.21</ele>
        <time>2021-05-22T13:14:25Z</time>
      </trkpt>
      <trkpt lat="43.51051" lon="2.47695">
        <ele>566.478</ele>
        <time>2021-05-22T13:14:27Z</time>
      </trkpt>
      <trkpt lat="43.51053" lon="2.47696">
        <ele>566.679</ele>
        <time>2021-05-22T13:14:29Z</time>
      </trkpt>
      <trkpt lat="43.51056" lon="2.47697">
        <ele>565.739</ele>
        <time>2021-05-22T13:14:31Z</time>
      </trkpt>
      <trkpt lat="43.51058" lon="2.47698">
        <ele>566.569</ele>
        <time>2021-05-22T13:14:33Z</time>
      </trkpt>
      <trkpt lat="43.51061" lon="2.47699">
        <ele>564.953</ele>
        <time>2021-05-22T13:14:35Z</time>
      </trkpt>
      <trkpt lat="43.51063" lon="2.477">
        <ele>565.794</ele>
        <time>2021-05-22T13:14:37Z</time>
      </trkpt>
      <trkpt lat="43.51065" lon="2.47701">
        <ele>565.447</ele>
        <time>2021-05-22T13:14:39Z</time>
      </trkpt>
      <trkpt lat="43.51068" lon="2.47703">
        <ele>565.351</ele>
        <time>2021-05-22T13:14:41Z</time>
      </trkpt>
      <trkpt lat="43.5107" lon="2.47704">
        <ele>564.181</ele>
        <time>2021-05-22T13:14:43Z</time>
      </trkpt>
      <trkpt lat="43.51073" lon="2.47706">
        <ele>564.995</ele>
        <time>2021-05-22T13:14:45Z</time>
      </trkpt>
      <trkpt lat="43.51075" lon="2.47708">
        <ele>564.192</ele>
        <time>2021-05-22T13:14:47Z</time>
      </trkpt>
      <trkpt lat="43.51077" lon="2.4771">
        <ele>564.178</ele>
        <time>2021-05-22T13:14:49Z</time>
      </trkpt>
      <trkpt lat="43.51079" lon="2.47712">
        <ele>563.891</ele>
        <time>2021-05-22T13:14:51Z</time>
      </trkpt>
      <trkpt lat="43.51081" lon="2.47714">
        <ele>563.231</ele>
        <time>2021-05-22T13:14:53Z</time>
      </trkpt>
      <trkpt lat="43.51083" lon="2.47717">
        <ele>563.291</ele>
        <time>2021-05-22T13:14:55Z</time>
      </trkpt>
      <trkpt lat="43.51084" lon="2.4772">
        <ele>562.729</ele>
        <time>2021-05-22T13:14:57Z</time>
      </trkpt>
      <trkpt lat="43.51086" lon="2.47723">
        <ele>562.524</ele>
        <time>2021-05-22T13:14:59Z</time>
      </trkpt>
      <trkpt lat="43.51087" lon="2.47726">
        <ele>561.753</ele>
        <time>2021-05-22T13:15:01Z</time>
      </trkpt>
      <trkpt lat="43.51089" lon="2.47728">
        <ele>562.295</ele>
        <time>2021-05-22T13:15:03Z</time>
      </trkpt>
      <trkpt lat="43.51091" lon="2.47731">
        <ele>562.844</ele>
        <time>2021-05-22T13:15:05Z</time>
      </trkpt>
      <trkpt lat="43.51092" lon="2.47734">
        <ele>563.19</ele>
        <time>2021-05-22T13:15:07Z</time>
      </trkpt>
      <trkpt lat="43.51094" lon="2.47737">
        <ele>563.503</ele>
        <time>2021-05-22T13:15:09Z</time>
      </trkpt>
      <trkpt lat="43.51096" lon="2.4774">
        <ele>563.149</ele>
        <time>2021-05-22T13:15:11Z</time>
      </trkpt>
      <trkpt lat="43.51098" lon="2.47744">
        <ele>562.82</ele>
        <time>2021-05-22T13:15:13Z</time>
      </trkpt>
      <trkpt lat="43.511" lon="2.47745">
        <ele>562.79</ele>
        <time>2021-05-22T13:15:15Z</time>
      </trkpt>
      <trkpt lat="43.51103" lon="2.47747">
        <ele>561.722</ele>
        <time>2021-05-22T13:15:17Z</time>
      </trkpt>
      <trkpt lat="43.51105" lon="2.4775">
        <ele>561.601</ele>
        <time>2021-05-22T13:15:19Z</time>
      </trkpt>
      <trkpt lat="43.51107" lon="2.47752">
        <ele>561.998</ele>
        <time>2021-05-22T13:15:21Z</time>
      </trkpt>
      <trkpt lat="43.51108" lon="2.47754">
        <ele>563.301</ele>
        <time>2021-05-22T13:15:23Z</time>
      </trkpt>
      <trkpt lat="43.51109" lon="2.47757">
        <ele>564.962</ele>
        <time>2021-05-22T13:15:25Z</time>
      </trkpt>
      <trkpt lat="43.51111" lon="2.47759">
        <ele>564.304</ele>
        <time>2021-05-22T13:15:27Z</time>
      </trkpt>
      <trkpt lat="43.51113" lon="2.47762">
        <ele>564.562</ele>
        <time>2021-05-22T13:15:29Z</time>
      </trkpt>
      <trkpt lat="43.51112" lon="2.47764">
        <ele>563.965</ele>
        <time>2021-05-22T13:15:31Z</time>
      </trkpt>
      <trkpt lat="43.51111" lon="2.47767">
        <ele>563.958</ele>
        <time>2021-05-22T13:15:33Z</time>
      </trkpt>
      <trkpt lat="43.51112" lon="2.4777">
        <ele>563.601</ele>
        <time>2021-05-22T13:15:35Z</time>
      </trkpt>
      <trkpt lat="43.51112" lon="2.47774">
        <ele>564.109</ele>
        <time>2021-05-22T13:15:37Z</time>
      </trkpt>
      <trkpt lat="43.51114" lon="2.47777">
        <ele>564.516</ele>
        <time>2021-05-22T13:15:39Z</time>
      </trkpt>
      <trkpt lat="43.51115" lon="2.47781">
        <ele>564.631</ele>
        <time>2021-05-22T13:15:41Z</time>
      </trkpt>
      <trkpt lat="43.51116" lon="2.47784">
        <ele>564.289</ele>
        <time>2021-05-22T13:15:43Z</time>
      </trkpt>
      <trkpt lat="43.51118" lon="2.47785">
        <ele>564.641</ele>
        <time>2021-05-22T13:15:45Z</time>
      </trkpt>
      <trkpt lat="43.51118" lon="2.47787">
        <ele>565.177</ele>
        <time>2021-05-22T13:15:47Z</time>
      </trkpt>
      <trkpt lat="43.51118" lon="2.4779">
        <ele>564.38</ele>
        <time>2021-05-22T13:15:49Z</time>
      </trkpt>
      <trkpt lat="43.51118" lon="2.47793">
        <ele>565.163</ele>
        <time>2021-05-22T13:15:51Z</time>
      </trkpt>
      <trkpt lat="43.51119" lon="2.47795">
        <ele>565.045</ele>
        <time>2021-05-22T13:15:53Z</time>
      </trkpt>
      <trkpt lat="43.51121" lon="2.47798">
        <ele>563.644</ele>
        <time>2021-05-22T13:15:55Z</time>
      </trkpt>
      <trkpt lat="43.51122" lon="2.47803">
        <ele>562.925</ele>
        <time>2021-05-22T13:15:57Z</time>
      </trkpt>
      <trkpt lat="43.51124" lon="2.47806">
        <ele>562.471</ele>
        <time>2021-05-22T13:15:59Z</time>
      </trkpt>
      <trkpt lat="43.51126" lon="2.47809">
        <ele>561.064</ele>
        <time>2021-05-22T13:16:01Z</time>
      </trkpt>
      <trkpt lat="43.51127" lon="2.47812">
        <ele>560.147</ele>
        <time>2021-05-22T13:16:03Z</time>
      </trkpt>
      <trkpt lat="43.51129" lon="2.47815">
        <ele>559.626</ele>
        <time>2021-05-22T13:16:05Z</time>
      </trkpt>
      <trkpt lat="43.51131" lon="2.47818">
        <ele>559.848</ele>
        <time>2021-05-22T13:16:07Z</time>
      </trkpt>
      <trkpt lat="43.51132" lon="2.47821">
        <ele>558.858</ele>
        <time>2021-05-22T13:16:09Z</time>
      </trkpt>
      <trkpt lat="43.51134" lon="2.47825">
        <ele>559.667</ele>
        <time>2021-05-22T13:16:11Z</time>
      </trkpt>
      <trkpt lat="43.51135" lon="2.47827">
        <ele>560.062</ele>
        <time>2021-05-22T13:16:13Z</time>
      </trkpt>
      <trkpt lat="43.51137" lon="2.4783">
        <ele>558.944</ele>
        <time>2021-05-22T13:16:15Z</time>
      </trkpt>
      <trkpt lat="43.51139" lon="2.47831">
        <ele>560.013</ele>
        <time>2021-05-22T13:16:17Z</time>
      </trkpt>
      <trkpt lat="43.51141" lon="2.47832">
        <ele>559.931</ele>
        <time>2021-05-22T13:16:19Z</time>
      </trkpt>
      <trkpt lat="43.51143" lon="2.47834">
        <ele>558.333</ele>
        <time>2021-05-22T13:16:21Z</time>
      </trkpt>
      <trkpt lat="43.51145" lon="2.47837">
        <ele>557.296</ele>
        <time>2021-05-22T13:16:23Z</time>
      </trkpt>
      <trkpt lat="43.51147" lon="2.4784">
        <ele>557.528</ele>
        <time>2021-05-22T13:16:25Z</time>
      </trkpt>
      <trkpt lat="43.5115" lon="2.47843">
        <ele>557.345</ele>
        <time>2021-05-22T13:16:27Z</time>
      </trkpt>
      <trkpt lat="43.51153" lon="2.47845">
        <ele>556.694</ele>
        <time>2021-05-22T13:16:29Z</time>
      </trkpt>
      <trkpt lat="43.51155" lon="2.47848">
        <ele>556.433</ele>
        <time>2021-05-22T13:16:31Z</time>
      </trkpt>
      <trkpt lat="43.51158" lon="2.4785">
        <ele>556.373</ele>
        <time>2021-05-22T13:16:33Z</time>
      </trkpt>
      <trkpt lat="43.5116" lon="2.47853">
        <ele>556.083</ele>
        <time>2021-05-22T13:16:35Z</time>
      </trkpt>
      <trkpt lat="43.51162" lon="2.47855">
        <ele>556.106</ele>
        <time>2021-05-22T13:16:37Z</time>
      </trkpt>
      <trkpt lat="43.51163" lon="2.47857">
        <ele>556.135</ele>
        <time>2021-05-22T13:16:39Z</time>
      </trkpt>
      <trkpt lat="43.51165" lon="2.47858">
        <ele>556.776</ele>
        <time>2021-05-22T13:16:41Z</time>
      </trkpt>
      <trkpt lat="43.51167" lon="2.47859">
        <ele>557.719</ele>
        <time>2021-05-22T13:16:43Z</time>
      </trkpt>
      <trkpt lat="43.51169" lon="2.47861">
        <ele>556.989</ele>
        <time>2021-05-22T13:16:45Z</time>
      </trkpt>
      <trkpt lat="43.51172" lon="2.47863">
        <ele>556.689</ele>
        <time>2021-05-22T13:16:47Z</time>
      </trkpt>
      <trkpt lat="43.51174" lon="2.47865">
        <ele>556.212</ele>
        <time>2021-05-22T13:16:49Z</time>
      </trkpt>
      <trkpt lat="43.51176" lon="2.47866">
        <ele>556.065</ele>
        <time>2021-05-22T13:16:51Z</time>
      </trkpt>
      <trkpt lat="43.51178" lon="2.47868">
        <ele>556.136</ele>
        <time>2021-05-22T13:16:53Z</time>
      </trkpt>
      <trkpt lat="43.51181" lon="2.4787">
        <ele>556.27</ele>
        <time>2021-05-22T13:16:55Z</time>
      </trkpt>
      <trkpt lat="43.51184" lon="2.47872">
        <ele>557.909</ele>
        <time>2021-05-22T13:16:57Z</time>
      </trkpt>
      <trkpt lat="43.51186" lon="2.47873">
        <ele>559.607</ele>
        <time>2021-05-22T13:16:59Z</time>
      </trkpt>
      <trkpt lat="43.51188" lon="2.47874">
        <ele>558.485</ele>
        <time>2021-05-22T13:17:01Z</time>
      </trkpt>
      <trkpt lat="43.51191" lon="2.47876">
        <ele>556.576</ele>
        <time>2021-05-22T13:17:03Z</time>
      </trkpt>
      <trkpt lat="43.51193" lon="2.47877">
        <ele>556.473</ele>
        <time>2021-05-22T13:17:05Z</time>
      </trkpt>
      <trkpt lat="43.51195" lon="2.47878">
        <ele>555.856</ele>
        <time>2021-05-22T13:17:07Z</time>
      </trkpt>
      <trkpt lat="43.51198" lon="2.47879">
        <ele>556.146</ele>
        <time>2021-05-22T13:17:09Z</time>
      </trkpt>
      <trkpt lat="43.512" lon="2.4788">
        <ele>556.676</ele>
        <time>2021-05-22T13:17:11Z</time>
      </trkpt>
      <trkpt lat="43.51203" lon="2.47881">
        <ele>556.903</ele>
        <time>2021-05-22T13:17:13Z</time>
      </trkpt>
      <trkpt lat="43.51206" lon="2.47883">
        <ele>557.278</ele>
        <time>2021-05-22T13:17:15Z</time>
      </trkpt>
      <trkpt lat="43.51209" lon="2.47884">
        <ele>557.781</ele>
        <time>2021-05-22T13:17:17Z</time>
      </trkpt>
      <trkpt lat="43.51212" lon="2.47884">
        <ele>557.715</ele>
        <time>2021-05-22T13:17:19Z</time>
      </trkpt>
      <trkpt lat="43.51215" lon="2.47883">
        <ele>557.413</ele>
        <time>2021-05-22T13:17:21Z</time>
      </trkpt>
      <trkpt lat="43.51217" lon="2.47882">
        <ele>556.663</ele>
        <time>2021-05-22T13:17:23Z</time>
      </trkpt>
      <trkpt lat="43.5122" lon="2.47882">
        <ele>555.369</ele>
        <time>2021-05-22T13:17:25Z</time>
      </trkpt>
      <trkpt lat="43.51223" lon="2.47881">
        <ele>555.153</ele>
        <time>2021-05-22T13:17:27Z</time>
      </trkpt>
      <trkpt lat="43.51225" lon="2.4788">
        <ele>554.506</ele>
        <time>2021-05-22T13:17:29Z</time>
      </trkpt>
      <trkpt lat="43.51227" lon="2.4788">
        <ele>553.784</ele>
        <time>2021-05-22T13:17:31Z</time>
      </trkpt>
      <trkpt lat="43.5123" lon="2.47881">
        <ele>554.492</ele>
        <time>2021-05-22T13:17:33Z</time>
      </trkpt>
      <trkpt lat="43.51232" lon="2.47881">
        <ele>554.032</ele>
        <time>2021-05-22T13:17:35Z</time>
      </trkpt>
      <trkpt lat="43.51234" lon="2.47881">
        <ele>554.649</ele>
        <time>2021-05-22T13:17:37Z</time>
      </trkpt>
      <trkpt lat="43.51237" lon="2.47881">
        <ele>554.814</ele>
        <time>2021-05-22T13:17:39Z</time>
      </trkpt>
      <trkpt lat="43.51239" lon="2.47881">
        <ele>553.461</ele>
        <time>2021-05-22T13:17:41Z</time>
      </trkpt>
      <trkpt lat="43.51242" lon="2.47882">
        <ele>553.395</ele>
        <time>2021-05-22T13:17:43Z</time>
      </trkpt>
      <trkpt lat="43.51244" lon="2.47883">
        <ele>553.013</ele>
        <time>2021-05-22T13:17:45Z</time>
      </trkpt>
      <trkpt lat="43.51246" lon="2.47884">
        <ele>552.566</ele>
        <time>2021-05-22T13:17:47Z</time>
      </trkpt>
      <trkpt lat="43.51248" lon="2.47884">
        <ele>552.618</ele>
        <time>2021-05-22T13:17:49Z</time>
      </trkpt>
      <trkpt lat="43.51251" lon="2.47885">
        <ele>552.688</ele>
        <time>2021-05-22T13:17:51Z</time>
      </trkpt>
      <trkpt lat="43.51253" lon="2.47886">
        <ele>550.685</ele>
        <time>2021-05-22T13:17:53Z</time>
      </trkpt>
      <trkpt lat="43.51256" lon="2.47887">
        <ele>551.06</ele>
        <time>2021-05-22T13:17:55Z</time>
      </trkpt>
      <trkpt lat="43.51258" lon="2.47889">
        <ele>550.077</ele>
        <time>2021-05-22T13:17:57Z</time>
      </trkpt>
      <trkpt lat="43.5126" lon="2.47889">
        <ele>548.817</ele>
        <time>2021-05-22T13:17:59Z</time>
      </trkpt>
      <trkpt lat="43.51262" lon="2.47891">
        <ele>547.348</ele>
        <time>2021-05-22T13:18:01Z</time>
      </trkpt>
      <trkpt lat="43.51264" lon="2.47893">
        <ele>545.474</ele>
        <time>2021-05-22T13:18:03Z</time>
      </trkpt>
      <trkpt lat="43.51266" lon="2.47895">
        <ele>545.773</ele>
        <time>2021-05-22T13:18:05Z</time>
      </trkpt>
      <trkpt lat="43.51268" lon="2.47896">
        <ele>545.332</ele>
        <time>2021-05-22T13:18:07Z</time>
      </trkpt>
      <trkpt lat="43.5127" lon="2.47898">
        <ele>546.322</ele>
        <time>2021-05-22T13:18:09Z</time>
      </trkpt>
      <trkpt lat="43.51273" lon="2.479">
        <ele>546.312</ele>
        <time>2021-05-22T13:18:11Z</time>
      </trkpt>
      <trkpt lat="43.51275" lon="2.47903">
        <ele>546.568</ele>
        <time>2021-05-22T13:18:13Z</time>
      </trkpt>
      <trkpt lat="43.51277" lon="2.47905">
        <ele>546.847</ele>
        <time>2021-05-22T13:18:15Z</time>
      </trkpt>
      <trkpt lat="43.51278" lon="2.47907">
        <ele>547.124</ele>
        <time>2021-05-22T13:18:17Z</time>
      </trkpt>
      <trkpt lat="43.51281" lon="2.47907">
        <ele>548.09</ele>
        <time>2021-05-22T13:18:19Z</time>
      </trkpt>
      <trkpt lat="43.51285" lon="2.47907">
        <ele>549.356</ele>
        <time>2021-05-22T13:18:21Z</time>
      </trkpt>
      <trkpt lat="43.51288" lon="2.47906">
        <ele>550.016</ele>
        <time>2021-05-22T13:18:23Z</time>
      </trkpt>
      <trkpt lat="43.51291" lon="2.47905">
        <ele>550.263</ele>
        <time>2021-05-22T13:18:25Z</time>
      </trkpt>
      <trkpt lat="43.51293" lon="2.47903">
        <ele>550.703</ele>
        <time>2021-05-22T13:18:27Z</time>
      </trkpt>
      <trkpt lat="43.51295" lon="2.47903">
        <ele>553.839</ele>
        <time>2021-05-22T13:18:29Z</time>
      </trkpt>
      <trkpt lat="43.51297" lon="2.47902">
        <ele>554.515</ele>
        <time>2021-05-22T13:18:31Z</time>
      </trkpt>
      <trkpt lat="43.513" lon="2.47901">
        <ele>554.106</ele>
        <time>2021-05-22T13:18:33Z</time>
      </trkpt>
      <trkpt lat="43.51302" lon="2.479">
        <ele>555.3</ele>
        <time>2021-05-22T13:18:35Z</time>
      </trkpt>
      <trkpt lat="43.51304" lon="2.479">
        <ele>555.416</ele>
        <time>2021-05-22T13:18:37Z</time>
      </trkpt>
      <trkpt lat="43.51306" lon="2.47899">
        <ele>555.286</ele>
        <time>2021-05-22T13:18:39Z</time>
      </trkpt>
      <trkpt lat="43.51308" lon="2.47899">
        <ele>554.776</ele>
        <time>2021-05-22T13:18:41Z</time>
      </trkpt>
      <trkpt lat="43.5131" lon="2.47899">
        <ele>556.229</ele>
        <time>2021-05-22T13:18:43Z</time>
      </trkpt>
      <trkpt lat="43.51314" lon="2.47898">
        <ele>555.002</ele>
        <time>2021-05-22T13:18:45Z</time>
      </trkpt>
      <trkpt lat="43.51316" lon="2.47897">
        <ele>553.955</ele>
        <time>2021-05-22T13:18:47Z</time>
      </trkpt>
      <trkpt lat="43.51318" lon="2.47895">
        <ele>553.637</ele>
        <time>2021-05-22T13:18:49Z</time>
      </trkpt>
      <trkpt lat="43.51319" lon="2.47893">
        <ele>552.689</ele>
        <time>2021-05-22T13:18:51Z</time>
      </trkpt>
      <trkpt lat="43.51321" lon="2.47891">
        <ele>551.46</ele>
        <time>2021-05-22T13:18:53Z</time>
      </trkpt>
      <trkpt lat="43.51323" lon="2.47889">
        <ele>550.887</ele>
        <time>2021-05-22T13:18:55Z</time>
      </trkpt>
      <trkpt lat="43.51325" lon="2.47887">
        <ele>550.383</ele>
        <time>2021-05-22T13:18:57Z</time>
      </trkpt>
      <trkpt lat="43.51327" lon="2.47887">
        <ele>549.836</ele>
        <time>2021-05-22T13:18:59Z</time>
      </trkpt>
      <trkpt lat="43.51329" lon="2.47886">
        <ele>546.904</ele>
        <time>2021-05-22T13:19:01Z</time>
      </trkpt>
      <trkpt lat="43.51331" lon="2.47885">
        <ele>545.355</ele>
        <time>2021-05-22T13:19:03Z</time>
      </trkpt>
      <trkpt lat="43.51332" lon="2.47882">
        <ele>545.283</ele>
        <time>2021-05-22T13:19:05Z</time>
      </trkpt>
      <trkpt lat="43.51332" lon="2.4788">
        <ele>545.426</ele>
        <time>2021-05-22T13:19:06Z</time>
      </trkpt>
      <trkpt lat="43.51329" lon="2.47877">
        <ele>544.511</ele>
        <time>2021-05-22T13:19:09Z</time>
      </trkpt>
      <trkpt lat="43.51327" lon="2.47877">
        <ele>544.6</ele>
        <time>2021-05-22T13:19:11Z</time>
      </trkpt>
      <trkpt lat="43.51326" lon="2.47876">
        <ele>545.059</ele>
        <time>2021-05-22T13:19:13Z</time>
      </trkpt>
      <trkpt lat="43.51323" lon="2.47875">
        <ele>544.036</ele>
        <time>2021-05-22T13:19:15Z</time>
      </trkpt>
      <trkpt lat="43.51321" lon="2.47875">
        <ele>542.629</ele>
        <time>2021-05-22T13:19:17Z</time>
      </trkpt>
      <trkpt lat="43.51319" lon="2.47875">
        <ele>541.807</ele>
        <time>2021-05-22T13:19:19Z</time>
      </trkpt>
      <trkpt lat="43.51316" lon="2.47876">
        <ele>540.579</ele>
        <time>2021-05-22T13:19:21Z</time>
      </trkpt>
      <trkpt lat="43.51314" lon="2.47877">
        <ele>538.603</ele>
        <time>2021-05-22T13:19:23Z</time>
      </trkpt>
      <trkpt lat="43.51312" lon="2.47878">
        <ele>537.968</ele>
        <time>2021-05-22T13:19:25Z</time>
      </trkpt>
      <trkpt lat="43.51312" lon="2.4788">
        <ele>537.319</ele>
        <time>2021-05-22T13:19:27Z</time>
      </trkpt>
      <trkpt lat="43.51311" lon="2.4788">
        <ele>537.967</ele>
        <time>2021-05-22T13:19:29Z</time>
      </trkpt>
      <trkpt lat="43.51309" lon="2.47881">
        <ele>538.232</ele>
        <time>2021-05-22T13:19:31Z</time>
      </trkpt>
      <trkpt lat="43.51309" lon="2.47883">
        <ele>537.967</ele>
        <time>2021-05-22T13:19:33Z</time>
      </trkpt>
      <trkpt lat="43.51308" lon="2.47886">
        <ele>537.687</ele>
        <time>2021-05-22T13:19:35Z</time>
      </trkpt>
      <trkpt lat="43.51306" lon="2.47888">
        <ele>535.491</ele>
        <time>2021-05-22T13:19:37Z</time>
      </trkpt>
      <trkpt lat="43.51305" lon="2.47888">
        <ele>535.074</ele>
        <time>2021-05-22T13:19:39Z</time>
      </trkpt>
      <trkpt lat="43.51303" lon="2.47886">
        <ele>535.971</ele>
        <time>2021-05-22T13:19:41Z</time>
      </trkpt>
      <trkpt lat="43.51305" lon="2.47881">
        <ele>539.9</ele>
        <time>2021-05-22T13:19:43Z</time>
      </trkpt>
      <trkpt lat="43.51305" lon="2.47881">
        <ele>539.896</ele>
        <time>2021-05-22T13:19:45Z</time>
      </trkpt>
      <trkpt lat="43.51305" lon="2.47881">
        <ele>539.886</ele>
        <time>2021-05-22T13:19:47Z</time>
      </trkpt>
      <trkpt lat="43.51305" lon="2.47881">
        <ele>539.236</ele>
        <time>2021-05-22T13:19:49Z</time>
      </trkpt>
      <trkpt lat="43.51305" lon="2.47881">
        <ele>538.703</ele>
        <time>2021-05-22T13:19:51Z</time>
      </trkpt>
      <trkpt lat="43.51305" lon="2.47881">
        <ele>538.715</ele>
        <time>2021-05-22T13:19:53Z</time>
      </trkpt>
      <trkpt lat="43.51305" lon="2.47881">
        <ele>539.143</ele>
        <time>2021-05-22T13:19:55Z</time>
      </trkpt>
      <trkpt lat="43.51305" lon="2.47881">
        <ele>539.137</ele>
        <time>2021-05-22T13:19:57Z</time>
      </trkpt>
      <trkpt lat="43.51305" lon="2.47881">
        <ele>539.23</ele>
        <time>2021-05-22T13:19:59Z</time>
      </trkpt>
      <trkpt lat="43.51307" lon="2.47881">
        <ele>538.496</ele>
        <time>2021-05-22T13:20:01Z</time>
      </trkpt>
      <trkpt lat="43.51306" lon="2.47881">
        <ele>538.28</ele>
        <time>2021-05-22T13:20:03Z</time>
      </trkpt>
      <trkpt lat="43.51305" lon="2.47882">
        <ele>536.232</ele>
        <time>2021-05-22T13:20:05Z</time>
      </trkpt>
      <trkpt lat="43.51304" lon="2.47882">
        <ele>536.217</ele>
        <time>2021-05-22T13:20:07Z</time>
      </trkpt>
      <trkpt lat="43.51302" lon="2.47882">
        <ele>535.676</ele>
        <time>2021-05-22T13:20:09Z</time>
      </trkpt>
      <trkpt lat="43.513" lon="2.47881">
        <ele>534.608</ele>
        <time>2021-05-22T13:20:11Z</time>
      </trkpt>
      <trkpt lat="43.51298" lon="2.4788">
        <ele>534.492</ele>
        <time>2021-05-22T13:20:13Z</time>
      </trkpt>
      <trkpt lat="43.51299" lon="2.4788">
        <ele>534.533</ele>
        <time>2021-05-22T13:20:15Z</time>
      </trkpt>
      <trkpt lat="43.51299" lon="2.47879">
        <ele>534.644</ele>
        <time>2021-05-22T13:20:17Z</time>
      </trkpt>
      <trkpt lat="43.51299" lon="2.47879">
        <ele>534.673</ele>
        <time>2021-05-22T13:20:19Z</time>
      </trkpt>
      <trkpt lat="43.51299" lon="2.47879">
        <ele>534.677</ele>
        <time>2021-05-22T13:20:21Z</time>
      </trkpt>
      <trkpt lat="43.51299" lon="2.47879">
        <ele>534.674</ele>
        <time>2021-05-22T13:20:23Z</time>
      </trkpt>
      <trkpt lat="43.51299" lon="2.47879">
        <ele>534.648</ele>
        <time>2021-05-22T13:20:25Z</time>
      </trkpt>
      <trkpt lat="43.51299" lon="2.47879">
        <ele>534.669</ele>
        <time>2021-05-22T13:20:27Z</time>
      </trkpt>
      <trkpt lat="43.51299" lon="2.47879">
        <ele>534.669</ele>
        <time>2021-05-22T13:20:29Z</time>
      </trkpt>
      <trkpt lat="43.51299" lon="2.47879">
        <ele>534.672</ele>
        <time>2021-05-22T13:20:31Z</time>
      </trkpt>
      <trkpt lat="43.51299" lon="2.47879">
        <ele>534.698</ele>
        <time>2021-05-22T13:20:33Z</time>
      </trkpt>
      <trkpt lat="43.51299" lon="2.47879">
        <ele>534.718</ele>
        <time>2021-05-22T13:20:35Z</time>
      </trkpt>
      <trkpt lat="43.51299" lon="2.47879">
        <ele>534.722</ele>
        <time>2021-05-22T13:20:37Z</time>
      </trkpt>
      <trkpt lat="43.51299" lon="2.47879">
        <ele>534.723</ele>
        <time>2021-05-22T13:20:39Z</time>
      </trkpt>
      <trkpt lat="43.513" lon="2.47879">
        <ele>535.109</ele>
        <time>2021-05-22T13:20:41Z</time>
      </trkpt>
      <trkpt lat="43.51301" lon="2.4788">
        <ele>536.308</ele>
        <time>2021-05-22T13:20:43Z</time>
      </trkpt>
      <trkpt lat="43.51301" lon="2.4788">
        <ele>536.306</ele>
        <time>2021-05-22T13:20:45Z</time>
      </trkpt>
      <trkpt lat="43.51301" lon="2.4788">
        <ele>536.297</ele>
        <time>2021-05-22T13:20:47Z</time>
      </trkpt>
      <trkpt lat="43.51301" lon="2.4788">
        <ele>536.293</ele>
        <time>2021-05-22T13:20:49Z</time>
      </trkpt>
      <trkpt lat="43.51301" lon="2.4788">
        <ele>536.295</ele>
        <time>2021-05-22T13:20:51Z</time>
      </trkpt>
      <trkpt lat="43.51301" lon="2.4788">
        <ele>536.29</ele>
        <time>2021-05-22T13:20:53Z</time>
      </trkpt>
      <trkpt lat="43.51301" lon="2.4788">
        <ele>536.311</ele>
        <time>2021-05-22T13:20:55Z</time>
      </trkpt>
      <trkpt lat="43.51301" lon="2.4788">
        <ele>536.345</ele>
        <time>2021-05-22T13:20:57Z</time>
      </trkpt>
      <trkpt lat="43.51301" lon="2.47879">
        <ele>536.843</ele>
        <time>2021-05-22T13:20:59Z</time>
      </trkpt>
      <trkpt lat="43.51301" lon="2.47879">
        <ele>536.838</ele>
        <time>2021-05-22T13:21:01Z</time>
      </trkpt>
      <trkpt lat="43.51301" lon="2.47879">
        <ele>536.845</ele>
        <time>2021-05-22T13:21:03Z</time>
      </trkpt>
      <trkpt lat="43.51301" lon="2.47879">
        <ele>536.852</ele>
        <time>2021-05-22T13:21:05Z</time>
      </trkpt>
      <trkpt lat="43.51301" lon="2.47879">
        <ele>536.722</ele>
        <time>2021-05-22T13:21:07Z</time>
      </trkpt>
      <trkpt lat="43.51302" lon="2.47878">
        <ele>536.724</ele>
        <time>2021-05-22T13:21:09Z</time>
      </trkpt>
      <trkpt lat="43.51303" lon="2.47876">
        <ele>536.523</ele>
        <time>2021-05-22T13:21:11Z</time>
      </trkpt>
      <trkpt lat="43.51304" lon="2.47875">
        <ele>536.767</ele>
        <time>2021-05-22T13:21:13Z</time>
      </trkpt>
      <trkpt lat="43.51306" lon="2.47873">
        <ele>538.076</ele>
        <time>2021-05-22T13:21:15Z</time>
      </trkpt>
      <trkpt lat="43.51307" lon="2.47873">
        <ele>538.361</ele>
        <time>2021-05-22T13:21:17Z</time>
      </trkpt>
      <trkpt lat="43.51308" lon="2.47873">
        <ele>539.027</ele>
        <time>2021-05-22T13:21:19Z</time>
      </trkpt>
      <trkpt lat="43.5131" lon="2.47871">
        <ele>538.507</ele>
        <time>2021-05-22T13:21:21Z</time>
      </trkpt>
      <trkpt lat="43.51312" lon="2.4787">
        <ele>538.222</ele>
        <time>2021-05-22T13:21:23Z</time>
      </trkpt>
      <trkpt lat="43.51314" lon="2.47868">
        <ele>538.542</ele>
        <time>2021-05-22T13:21:25Z</time>
      </trkpt>
      <trkpt lat="43.51316" lon="2.47867">
        <ele>537.596</ele>
        <time>2021-05-22T13:21:27Z</time>
      </trkpt>
      <trkpt lat="43.51318" lon="2.47865">
        <ele>537.639</ele>
        <time>2021-05-22T13:21:29Z</time>
      </trkpt>
      <trkpt lat="43.51319" lon="2.47863">
        <ele>537.121</ele>
        <time>2021-05-22T13:21:31Z</time>
      </trkpt>
      <trkpt lat="43.51321" lon="2.47861">
        <ele>537.114</ele>
        <time>2021-05-22T13:21:33Z</time>
      </trkpt>
      <trkpt lat="43.51323" lon="2.47859">
        <ele>537.465</ele>
        <time>2021-05-22T13:21:35Z</time>
      </trkpt>
      <trkpt lat="43.51325" lon="2.47858">
        <ele>537.323</ele>
        <time>2021-05-22T13:21:37Z</time>
      </trkpt>
      <trkpt lat="43.51327" lon="2.47856">
        <ele>536.862</ele>
        <time>2021-05-22T13:21:39Z</time>
      </trkpt>
      <trkpt lat="43.51329" lon="2.47854">
        <ele>536.429</ele>
        <time>2021-05-22T13:21:41Z</time>
      </trkpt>
      <trkpt lat="43.51331" lon="2.47853">
        <ele>535.662</ele>
        <time>2021-05-22T13:21:43Z</time>
      </trkpt>
      <trkpt lat="43.51333" lon="2.47851">
        <ele>535.169</ele>
        <time>2021-05-22T13:21:45Z</time>
      </trkpt>
      <trkpt lat="43.51335" lon="2.47849">
        <ele>534.912</ele>
        <time>2021-05-22T13:21:47Z</time>
      </trkpt>
      <trkpt lat="43.51337" lon="2.47847">
        <ele>535.743</ele>
        <time>2021-05-22T13:21:49Z</time>
      </trkpt>
      <trkpt lat="43.5134" lon="2.47845">
        <ele>535.463</ele>
        <time>2021-05-22T13:21:51Z</time>
      </trkpt>
      <trkpt lat="43.51342" lon="2.47844">
        <ele>534.98</ele>
        <time>2021-05-22T13:21:53Z</time>
      </trkpt>
      <trkpt lat="43.51344" lon="2.47843">
        <ele>534.94</ele>
        <time>2021-05-22T13:21:55Z</time>
      </trkpt>
      <trkpt lat="43.51346" lon="2.47841">
        <ele>534.562</ele>
        <time>2021-05-22T13:21:57Z</time>
      </trkpt>
      <trkpt lat="43.51348" lon="2.47839">
        <ele>534.694</ele>
        <time>2021-05-22T13:21:59Z</time>
      </trkpt>
      <trkpt lat="43.51348" lon="2.47836">
        <ele>535.121</ele>
        <time>2021-05-22T13:22:01Z</time>
      </trkpt>
      <trkpt lat="43.51348" lon="2.47834">
        <ele>537.223</ele>
        <time>2021-05-22T13:22:03Z</time>
      </trkpt>
      <trkpt lat="43.5135" lon="2.47831">
        <ele>538.187</ele>
        <time>2021-05-22T13:22:05Z</time>
      </trkpt>
      <trkpt lat="43.51352" lon="2.47829">
        <ele>537.375</ele>
        <time>2021-05-22T13:22:07Z</time>
      </trkpt>
      <trkpt lat="43.51355" lon="2.47828">
        <ele>537.089</ele>
        <time>2021-05-22T13:22:09Z</time>
      </trkpt>
      <trkpt lat="43.51357" lon="2.47827">
        <ele>535.897</ele>
        <time>2021-05-22T13:22:11Z</time>
      </trkpt>
      <trkpt lat="43.5136" lon="2.47828">
        <ele>534.558</ele>
        <time>2021-05-22T13:22:13Z</time>
      </trkpt>
      <trkpt lat="43.51362" lon="2.47827">
        <ele>533.791</ele>
        <time>2021-05-22T13:22:15Z</time>
      </trkpt>
      <trkpt lat="43.51365" lon="2.47827">
        <ele>533.764</ele>
        <time>2021-05-22T13:22:17Z</time>
      </trkpt>
      <trkpt lat="43.51368" lon="2.47828">
        <ele>532.468</ele>
        <time>2021-05-22T13:22:19Z</time>
      </trkpt>
      <trkpt lat="43.5137" lon="2.47831">
        <ele>533.355</ele>
        <time>2021-05-22T13:22:21Z</time>
      </trkpt>
      <trkpt lat="43.51371" lon="2.47832">
        <ele>533.554</ele>
        <time>2021-05-22T13:22:23Z</time>
      </trkpt>
      <trkpt lat="43.51373" lon="2.47833">
        <ele>533.165</ele>
        <time>2021-05-22T13:22:25Z</time>
      </trkpt>
      <trkpt lat="43.51374" lon="2.47835">
        <ele>532.334</ele>
        <time>2021-05-22T13:22:27Z</time>
      </trkpt>
      <trkpt lat="43.51376" lon="2.47837">
        <ele>532.506</ele>
        <time>2021-05-22T13:22:29Z</time>
      </trkpt>
      <trkpt lat="43.51378" lon="2.47839">
        <ele>532.356</ele>
        <time>2021-05-22T13:22:31Z</time>
      </trkpt>
      <trkpt lat="43.51379" lon="2.47842">
        <ele>531.516</ele>
        <time>2021-05-22T13:22:33Z</time>
      </trkpt>
      <trkpt lat="43.51381" lon="2.47844">
        <ele>530.781</ele>
        <time>2021-05-22T13:22:35Z</time>
      </trkpt>
      <trkpt lat="43.51382" lon="2.47847">
        <ele>530.111</ele>
        <time>2021-05-22T13:22:37Z</time>
      </trkpt>
      <trkpt lat="43.51383" lon="2.4785">
        <ele>530.239</ele>
        <time>2021-05-22T13:22:39Z</time>
      </trkpt>
      <trkpt lat="43.51384" lon="2.47852">
        <ele>529.482</ele>
        <time>2021-05-22T13:22:41Z</time>
      </trkpt>
      <trkpt lat="43.51386" lon="2.47855">
        <ele>529.558</ele>
        <time>2021-05-22T13:22:43Z</time>
      </trkpt>
      <trkpt lat="43.51387" lon="2.47858">
        <ele>529.863</ele>
        <time>2021-05-22T13:22:45Z</time>
      </trkpt>
      <trkpt lat="43.51388" lon="2.47861">
        <ele>529.864</ele>
        <time>2021-05-22T13:22:47Z</time>
      </trkpt>
      <trkpt lat="43.51389" lon="2.47863">
        <ele>528.693</ele>
        <time>2021-05-22T13:22:49Z</time>
      </trkpt>
      <trkpt lat="43.51391" lon="2.47866">
        <ele>526.941</ele>
        <time>2021-05-22T13:22:51Z</time>
      </trkpt>
      <trkpt lat="43.51392" lon="2.47869">
        <ele>527.037</ele>
        <time>2021-05-22T13:22:53Z</time>
      </trkpt>
      <trkpt lat="43.51394" lon="2.47872">
        <ele>525.991</ele>
        <time>2021-05-22T13:22:55Z</time>
      </trkpt>
      <trkpt lat="43.51395" lon="2.47875">
        <ele>525.072</ele>
        <time>2021-05-22T13:22:57Z</time>
      </trkpt>
      <trkpt lat="43.51397" lon="2.47877">
        <ele>525.153</ele>
        <time>2021-05-22T13:22:59Z</time>
      </trkpt>
      <trkpt lat="43.51398" lon="2.4788">
        <ele>525.572</ele>
        <time>2021-05-22T13:23:01Z</time>
      </trkpt>
      <trkpt lat="43.51399" lon="2.47883">
        <ele>525.437</ele>
        <time>2021-05-22T13:23:03Z</time>
      </trkpt>
      <trkpt lat="43.51401" lon="2.47885">
        <ele>525.046</ele>
        <time>2021-05-22T13:23:05Z</time>
      </trkpt>
      <trkpt lat="43.51402" lon="2.47889">
        <ele>523.977</ele>
        <time>2021-05-22T13:23:07Z</time>
      </trkpt>
      <trkpt lat="43.51403" lon="2.47892">
        <ele>523.072</ele>
        <time>2021-05-22T13:23:09Z</time>
      </trkpt>
      <trkpt lat="43.51405" lon="2.47895">
        <ele>522.697</ele>
        <time>2021-05-22T13:23:11Z</time>
      </trkpt>
      <trkpt lat="43.51406" lon="2.47898">
        <ele>522.409</ele>
        <time>2021-05-22T13:23:13Z</time>
      </trkpt>
      <trkpt lat="43.51407" lon="2.47901">
        <ele>521.779</ele>
        <time>2021-05-22T13:23:15Z</time>
      </trkpt>
      <trkpt lat="43.51408" lon="2.47904">
        <ele>521.125</ele>
        <time>2021-05-22T13:23:17Z</time>
      </trkpt>
      <trkpt lat="43.51409" lon="2.47907">
        <ele>520.658</ele>
        <time>2021-05-22T13:23:19Z</time>
      </trkpt>
      <trkpt lat="43.51409" lon="2.4791">
        <ele>520.345</ele>
        <time>2021-05-22T13:23:21Z</time>
      </trkpt>
      <trkpt lat="43.5141" lon="2.47914">
        <ele>520.433</ele>
        <time>2021-05-22T13:23:23Z</time>
      </trkpt>
      <trkpt lat="43.51411" lon="2.47917">
        <ele>519.924</ele>
        <time>2021-05-22T13:23:25Z</time>
      </trkpt>
      <trkpt lat="43.51412" lon="2.4792">
        <ele>519.769</ele>
        <time>2021-05-22T13:23:27Z</time>
      </trkpt>
      <trkpt lat="43.51413" lon="2.47923">
        <ele>519.373</ele>
        <time>2021-05-22T13:23:29Z</time>
      </trkpt>
      <trkpt lat="43.51414" lon="2.47926">
        <ele>519.25</ele>
        <time>2021-05-22T13:23:31Z</time>
      </trkpt>
      <trkpt lat="43.51416" lon="2.4793">
        <ele>519.993</ele>
        <time>2021-05-22T13:23:33Z</time>
      </trkpt>
      <trkpt lat="43.51418" lon="2.47932">
        <ele>520.52</ele>
        <time>2021-05-22T13:23:35Z</time>
      </trkpt>
      <trkpt lat="43.51419" lon="2.47931">
        <ele>519.262</ele>
        <time>2021-05-22T13:23:37Z</time>
      </trkpt>
      <trkpt lat="43.51419" lon="2.47931">
        <ele>519.327</ele>
        <time>2021-05-22T13:23:39Z</time>
      </trkpt>
      <trkpt lat="43.51419" lon="2.47931">
        <ele>519.365</ele>
        <time>2021-05-22T13:23:41Z</time>
      </trkpt>
      <trkpt lat="43.51419" lon="2.47931">
        <ele>519.414</ele>
        <time>2021-05-22T13:23:43Z</time>
      </trkpt>
      <trkpt lat="43.51419" lon="2.47931">
        <ele>519.09</ele>
        <time>2021-05-22T13:23:45Z</time>
      </trkpt>
      <trkpt lat="43.51419" lon="2.47931">
        <ele>519.093</ele>
        <time>2021-05-22T13:23:47Z</time>
      </trkpt>
      <trkpt lat="43.51419" lon="2.47931">
        <ele>519.107</ele>
        <time>2021-05-22T13:23:49Z</time>
      </trkpt>
      <trkpt lat="43.51419" lon="2.47932">
        <ele>519.08</ele>
        <time>2021-05-22T13:23:51Z</time>
      </trkpt>
      <trkpt lat="43.5142" lon="2.47932">
        <ele>519.645</ele>
        <time>2021-05-22T13:23:53Z</time>
      </trkpt>
      <trkpt lat="43.51421" lon="2.47931">
        <ele>519.881</ele>
        <time>2021-05-22T13:23:55Z</time>
      </trkpt>
      <trkpt lat="43.51421" lon="2.47931">
        <ele>519.892</ele>
        <time>2021-05-22T13:23:57Z</time>
      </trkpt>
      <trkpt lat="43.51421" lon="2.47931">
        <ele>519.575</ele>
        <time>2021-05-22T13:23:59Z</time>
      </trkpt>
      <trkpt lat="43.51421" lon="2.47931">
        <ele>519.576</ele>
        <time>2021-05-22T13:24:01Z</time>
      </trkpt>
      <trkpt lat="43.51421" lon="2.47931">
        <ele>519.579</ele>
        <time>2021-05-22T13:24:03Z</time>
      </trkpt>
      <trkpt lat="43.51421" lon="2.47931">
        <ele>519.419</ele>
        <time>2021-05-22T13:24:05Z</time>
      </trkpt>
      <trkpt lat="43.5142" lon="2.47932">
        <ele>519.759</ele>
        <time>2021-05-22T13:24:07Z</time>
      </trkpt>
      <trkpt lat="43.5142" lon="2.47933">
        <ele>518.901</ele>
        <time>2021-05-22T13:24:09Z</time>
      </trkpt>
      <trkpt lat="43.51421" lon="2.47932">
        <ele>518.468</ele>
        <time>2021-05-22T13:24:11Z</time>
      </trkpt>
      <trkpt lat="43.51421" lon="2.47932">
        <ele>517.064</ele>
        <time>2021-05-22T13:24:13Z</time>
      </trkpt>
      <trkpt lat="43.5142" lon="2.47932">
        <ele>517.272</ele>
        <time>2021-05-22T13:24:15Z</time>
      </trkpt>
      <trkpt lat="43.5142" lon="2.47933">
        <ele>517.834</ele>
        <time>2021-05-22T13:24:17Z</time>
      </trkpt>
      <trkpt lat="43.5142" lon="2.47933">
        <ele>517.816</ele>
        <time>2021-05-22T13:24:19Z</time>
      </trkpt>
      <trkpt lat="43.51419" lon="2.47935">
        <ele>518.777</ele>
        <time>2021-05-22T13:24:21Z</time>
      </trkpt>
      <trkpt lat="43.5142" lon="2.47938">
        <ele>518.586</ele>
        <time>2021-05-22T13:24:23Z</time>
      </trkpt>
      <trkpt lat="43.51421" lon="2.47941">
        <ele>519.132</ele>
        <time>2021-05-22T13:24:25Z</time>
      </trkpt>
      <trkpt lat="43.51424" lon="2.47943">
        <ele>519.361</ele>
        <time>2021-05-22T13:24:27Z</time>
      </trkpt>
      <trkpt lat="43.51426" lon="2.47944">
        <ele>519.854</ele>
        <time>2021-05-22T13:24:29Z</time>
      </trkpt>
      <trkpt lat="43.51428" lon="2.47945">
        <ele>519.428</ele>
        <time>2021-05-22T13:24:31Z</time>
      </trkpt>
      <trkpt lat="43.5143" lon="2.47946">
        <ele>519.377</ele>
        <time>2021-05-22T13:24:33Z</time>
      </trkpt>
      <trkpt lat="43.51431" lon="2.47947">
        <ele>519.877</ele>
        <time>2021-05-22T13:24:35Z</time>
      </trkpt>
      <trkpt lat="43.51431" lon="2.47947">
        <ele>520.166</ele>
        <time>2021-05-22T13:24:37Z</time>
      </trkpt>
      <trkpt lat="43.51431" lon="2.47947">
        <ele>520.162</ele>
        <time>2021-05-22T13:24:39Z</time>
      </trkpt>
      <trkpt lat="43.51431" lon="2.47948">
        <ele>520.433</ele>
        <time>2021-05-22T13:24:41Z</time>
      </trkpt>
      <trkpt lat="43.51431" lon="2.47947">
        <ele>520.872</ele>
        <time>2021-05-22T13:24:43Z</time>
      </trkpt>
      <trkpt lat="43.51431" lon="2.47947">
        <ele>520.399</ele>
        <time>2021-05-22T13:24:45Z</time>
      </trkpt>
      <trkpt lat="43.5143" lon="2.47947">
        <ele>520.162</ele>
        <time>2021-05-22T13:24:47Z</time>
      </trkpt>
      <trkpt lat="43.5143" lon="2.47947">
        <ele>520.195</ele>
        <time>2021-05-22T13:24:49Z</time>
      </trkpt>
      <trkpt lat="43.5143" lon="2.47947">
        <ele>520.308</ele>
        <time>2021-05-22T13:24:51Z</time>
      </trkpt>
      <trkpt lat="43.5143" lon="2.47946">
        <ele>520.116</ele>
        <time>2021-05-22T13:24:53Z</time>
      </trkpt>
      <trkpt lat="43.51431" lon="2.47946">
        <ele>520.047</ele>
        <time>2021-05-22T13:24:55Z</time>
      </trkpt>
      <trkpt lat="43.51431" lon="2.47946">
        <ele>520.041</ele>
        <time>2021-05-22T13:24:57Z</time>
      </trkpt>
      <trkpt lat="43.51431" lon="2.47946">
        <ele>520.017</ele>
        <time>2021-05-22T13:24:59Z</time>
      </trkpt>
      <trkpt lat="43.51431" lon="2.47946">
        <ele>520.016</ele>
        <time>2021-05-22T13:25:01Z</time>
      </trkpt>
      <trkpt lat="43.5143" lon="2.47946">
        <ele>520.812</ele>
        <time>2021-05-22T13:25:03Z</time>
      </trkpt>
      <trkpt lat="43.51431" lon="2.47946">
        <ele>520.059</ele>
        <time>2021-05-22T13:25:05Z</time>
      </trkpt>
      <trkpt lat="43.51431" lon="2.47945">
        <ele>520.104</ele>
        <time>2021-05-22T13:25:07Z</time>
      </trkpt>
      <trkpt lat="43.51432" lon="2.47945">
        <ele>520.974</ele>
        <time>2021-05-22T13:25:09Z</time>
      </trkpt>
      <trkpt lat="43.51433" lon="2.47943">
        <ele>521.455</ele>
        <time>2021-05-22T13:25:11Z</time>
      </trkpt>
      <trkpt lat="43.51434" lon="2.47941">
        <ele>521.082</ele>
        <time>2021-05-22T13:25:13Z</time>
      </trkpt>
      <trkpt lat="43.51434" lon="2.47941">
        <ele>521.312</ele>
        <time>2021-05-22T13:25:15Z</time>
      </trkpt>
      <trkpt lat="43.51434" lon="2.47941">
        <ele>521.318</ele>
        <time>2021-05-22T13:25:17Z</time>
      </trkpt>
      <trkpt lat="43.51434" lon="2.47941">
        <ele>521.314</ele>
        <time>2021-05-22T13:25:19Z</time>
      </trkpt>
      <trkpt lat="43.51434" lon="2.47941">
        <ele>520.407</ele>
        <time>2021-05-22T13:25:21Z</time>
      </trkpt>
      <trkpt lat="43.51434" lon="2.47942">
        <ele>519.336</ele>
        <time>2021-05-22T13:25:23Z</time>
      </trkpt>
      <trkpt lat="43.51435" lon="2.47942">
        <ele>519.383</ele>
        <time>2021-05-22T13:25:25Z</time>
      </trkpt>
      <trkpt lat="43.51434" lon="2.47943">
        <ele>519.383</ele>
        <time>2021-05-22T13:25:27Z</time>
      </trkpt>
      <trkpt lat="43.51435" lon="2.47943">
        <ele>519.75</ele>
        <time>2021-05-22T13:25:29Z</time>
      </trkpt>
      <trkpt lat="43.51437" lon="2.47943">
        <ele>520.086</ele>
        <time>2021-05-22T13:25:31Z</time>
      </trkpt>
      <trkpt lat="43.51438" lon="2.47942">
        <ele>519.844</ele>
        <time>2021-05-22T13:25:33Z</time>
      </trkpt>
      <trkpt lat="43.5144" lon="2.47942">
        <ele>520.089</ele>
        <time>2021-05-22T13:25:35Z</time>
      </trkpt>
      <trkpt lat="43.51442" lon="2.47943">
        <ele>521.054</ele>
        <time>2021-05-22T13:25:37Z</time>
      </trkpt>
      <trkpt lat="43.51444" lon="2.47943">
        <ele>521.962</ele>
        <time>2021-05-22T13:25:39Z</time>
      </trkpt>
      <trkpt lat="43.51446" lon="2.47942">
        <ele>522.322</ele>
        <time>2021-05-22T13:25:41Z</time>
      </trkpt>
      <trkpt lat="43.51448" lon="2.47943">
        <ele>521.675</ele>
        <time>2021-05-22T13:25:43Z</time>
      </trkpt>
      <trkpt lat="43.51448" lon="2.47946">
        <ele>521.529</ele>
        <time>2021-05-22T13:25:45Z</time>
      </trkpt>
      <trkpt lat="43.51447" lon="2.47949">
        <ele>521.849</ele>
        <time>2021-05-22T13:25:47Z</time>
      </trkpt>
      <trkpt lat="43.51447" lon="2.47951">
        <ele>521.86</ele>
        <time>2021-05-22T13:25:49Z</time>
      </trkpt>
      <trkpt lat="43.51446" lon="2.47953">
        <ele>521.559</ele>
        <time>2021-05-22T13:25:51Z</time>
      </trkpt>
      <trkpt lat="43.51444" lon="2.47952">
        <ele>521.46</ele>
        <time>2021-05-22T13:25:53Z</time>
      </trkpt>
      <trkpt lat="43.51444" lon="2.47952">
        <ele>521.488</ele>
        <time>2021-05-22T13:25:55Z</time>
      </trkpt>
      <trkpt lat="43.51444" lon="2.47951">
        <ele>521.779</ele>
        <time>2021-05-22T13:25:57Z</time>
      </trkpt>
      <trkpt lat="43.51444" lon="2.47951">
        <ele>521.758</ele>
        <time>2021-05-22T13:25:59Z</time>
      </trkpt>
      <trkpt lat="43.51444" lon="2.47951">
        <ele>521.752</ele>
        <time>2021-05-22T13:26:01Z</time>
      </trkpt>
      <trkpt lat="43.51441" lon="2.47948">
        <ele>521.862</ele>
        <time>2021-05-22T13:26:03Z</time>
      </trkpt>
      <trkpt lat="43.51439" lon="2.47946">
        <ele>521.169</ele>
        <time>2021-05-22T13:26:05Z</time>
      </trkpt>
      <trkpt lat="43.51437" lon="2.47944">
        <ele>520.548</ele>
        <time>2021-05-22T13:26:07Z</time>
      </trkpt>
      <trkpt lat="43.51436" lon="2.47942">
        <ele>521.128</ele>
        <time>2021-05-22T13:26:09Z</time>
      </trkpt>
      <trkpt lat="43.51441" lon="2.4794">
        <ele>518.179</ele>
        <time>2021-05-22T13:26:11Z</time>
      </trkpt>
      <trkpt lat="43.51443" lon="2.47938">
        <ele>517.587</ele>
        <time>2021-05-22T13:26:13Z</time>
      </trkpt>
      <trkpt lat="43.51444" lon="2.47936">
        <ele>517.127</ele>
        <time>2021-05-22T13:26:15Z</time>
      </trkpt>
      <trkpt lat="43.51446" lon="2.47933">
        <ele>517.441</ele>
        <time>2021-05-22T13:26:17Z</time>
      </trkpt>
      <trkpt lat="43.51447" lon="2.4793">
        <ele>517.311</ele>
        <time>2021-05-22T13:26:19Z</time>
      </trkpt>
      <trkpt lat="43.51448" lon="2.47927">
        <ele>517.322</ele>
        <time>2021-05-22T13:26:21Z</time>
      </trkpt>
      <trkpt lat="43.51449" lon="2.47924">
        <ele>517.673</ele>
        <time>2021-05-22T13:26:23Z</time>
      </trkpt>
      <trkpt lat="43.5145" lon="2.47921">
        <ele>518.486</ele>
        <time>2021-05-22T13:26:25Z</time>
      </trkpt>
      <trkpt lat="43.5145" lon="2.47919">
        <ele>517.563</ele>
        <time>2021-05-22T13:26:27Z</time>
      </trkpt>
      <trkpt lat="43.51451" lon="2.47916">
        <ele>516.259</ele>
        <time>2021-05-22T13:26:29Z</time>
      </trkpt>
      <trkpt lat="43.51452" lon="2.47913">
        <ele>515.584</ele>
        <time>2021-05-22T13:26:31Z</time>
      </trkpt>
      <trkpt lat="43.51452" lon="2.4791">
        <ele>514.686</ele>
        <time>2021-05-22T13:26:33Z</time>
      </trkpt>
      <trkpt lat="43.51453" lon="2.47907">
        <ele>515.753</ele>
        <time>2021-05-22T13:26:35Z</time>
      </trkpt>
      <trkpt lat="43.51454" lon="2.47904">
        <ele>514.535</ele>
        <time>2021-05-22T13:26:37Z</time>
      </trkpt>
      <trkpt lat="43.51454" lon="2.47901">
        <ele>513.403</ele>
        <time>2021-05-22T13:26:39Z</time>
      </trkpt>
      <trkpt lat="43.51455" lon="2.47898">
        <ele>513.359</ele>
        <time>2021-05-22T13:26:41Z</time>
      </trkpt>
      <trkpt lat="43.51455" lon="2.47894">
        <ele>513.795</ele>
        <time>2021-05-22T13:26:43Z</time>
      </trkpt>
      <trkpt lat="43.51454" lon="2.47891">
        <ele>514.307</ele>
        <time>2021-05-22T13:26:45Z</time>
      </trkpt>
      <trkpt lat="43.51455" lon="2.47888">
        <ele>513.127</ele>
        <time>2021-05-22T13:26:47Z</time>
      </trkpt>
      <trkpt lat="43.51455" lon="2.47884">
        <ele>513.785</ele>
        <time>2021-05-22T13:26:49Z</time>
      </trkpt>
      <trkpt lat="43.51455" lon="2.4788">
        <ele>513.474</ele>
        <time>2021-05-22T13:26:51Z</time>
      </trkpt>
      <trkpt lat="43.51455" lon="2.47878">
        <ele>513.04</ele>
        <time>2021-05-22T13:26:53Z</time>
      </trkpt>
      <trkpt lat="43.51456" lon="2.47881">
        <ele>509.437</ele>
        <time>2021-05-22T13:26:55Z</time>
      </trkpt>
      <trkpt lat="43.51456" lon="2.47881">
        <ele>510.06</ele>
        <time>2021-05-22T13:26:57Z</time>
      </trkpt>
      <trkpt lat="43.51456" lon="2.47879">
        <ele>510.39</ele>
        <time>2021-05-22T13:26:59Z</time>
      </trkpt>
      <trkpt lat="43.51455" lon="2.47876">
        <ele>511.613</ele>
        <time>2021-05-22T13:27:01Z</time>
      </trkpt>
      <trkpt lat="43.51455" lon="2.47873">
        <ele>512.744</ele>
        <time>2021-05-22T13:27:03Z</time>
      </trkpt>
      <trkpt lat="43.51454" lon="2.4787">
        <ele>514.884</ele>
        <time>2021-05-22T13:27:05Z</time>
      </trkpt>
      <trkpt lat="43.51453" lon="2.47867">
        <ele>515.764</ele>
        <time>2021-05-22T13:27:07Z</time>
      </trkpt>
      <trkpt lat="43.51452" lon="2.47863">
        <ele>515.318</ele>
        <time>2021-05-22T13:27:09Z</time>
      </trkpt>
      <trkpt lat="43.51452" lon="2.47861">
        <ele>516.115</ele>
        <time>2021-05-22T13:27:11Z</time>
      </trkpt>
      <trkpt lat="43.51454" lon="2.47865">
        <ele>510.614</ele>
        <time>2021-05-22T13:27:13Z</time>
      </trkpt>
      <trkpt lat="43.51454" lon="2.47866">
        <ele>510.679</ele>
        <time>2021-05-22T13:27:15Z</time>
      </trkpt>
      <trkpt lat="43.51455" lon="2.47864">
        <ele>511.503</ele>
        <time>2021-05-22T13:27:17Z</time>
      </trkpt>
      <trkpt lat="43.51452" lon="2.47862">
        <ele>511.182</ele>
        <time>2021-05-22T13:27:19Z</time>
      </trkpt>
      <trkpt lat="43.51448" lon="2.47857">
        <ele>511.885</ele>
        <time>2021-05-22T13:27:21Z</time>
      </trkpt>
      <trkpt lat="43.51451" lon="2.47855">
        <ele>511.183</ele>
        <time>2021-05-22T13:27:23Z</time>
      </trkpt>
      <trkpt lat="43.51451" lon="2.47852">
        <ele>511.873</ele>
        <time>2021-05-22T13:27:25Z</time>
      </trkpt>
      <trkpt lat="43.51449" lon="2.47848">
        <ele>512.256</ele>
        <time>2021-05-22T13:27:27Z</time>
      </trkpt>
      <trkpt lat="43.51449" lon="2.47846">
        <ele>511.786</ele>
        <time>2021-05-22T13:27:29Z</time>
      </trkpt>
      <trkpt lat="43.51449" lon="2.47843">
        <ele>511.497</ele>
        <time>2021-05-22T13:27:31Z</time>
      </trkpt>
      <trkpt lat="43.51448" lon="2.4784">
        <ele>512.286</ele>
        <time>2021-05-22T13:27:33Z</time>
      </trkpt>
      <trkpt lat="43.51447" lon="2.47836">
        <ele>512.088</ele>
        <time>2021-05-22T13:27:35Z</time>
      </trkpt>
      <trkpt lat="43.51445" lon="2.47832">
        <ele>512.218</ele>
        <time>2021-05-22T13:27:37Z</time>
      </trkpt>
      <trkpt lat="43.51444" lon="2.47828">
        <ele>511.753</ele>
        <time>2021-05-22T13:27:39Z</time>
      </trkpt>
      <trkpt lat="43.51443" lon="2.47825">
        <ele>512.299</ele>
        <time>2021-05-22T13:27:41Z</time>
      </trkpt>
      <trkpt lat="43.51443" lon="2.47821">
        <ele>512.637</ele>
        <time>2021-05-22T13:27:43Z</time>
      </trkpt>
      <trkpt lat="43.51442" lon="2.47818">
        <ele>513.24</ele>
        <time>2021-05-22T13:27:45Z</time>
      </trkpt>
      <trkpt lat="43.51441" lon="2.47815">
        <ele>513.319</ele>
        <time>2021-05-22T13:27:47Z</time>
      </trkpt>
      <trkpt lat="43.5144" lon="2.47812">
        <ele>512.814</ele>
        <time>2021-05-22T13:27:49Z</time>
      </trkpt>
      <trkpt lat="43.5144" lon="2.47809">
        <ele>512.848</ele>
        <time>2021-05-22T13:27:51Z</time>
      </trkpt>
      <trkpt lat="43.51439" lon="2.47805">
        <ele>515.127</ele>
        <time>2021-05-22T13:27:53Z</time>
      </trkpt>
      <trkpt lat="43.51438" lon="2.47801">
        <ele>516.711</ele>
        <time>2021-05-22T13:27:55Z</time>
      </trkpt>
      <trkpt lat="43.51437" lon="2.47796">
        <ele>517.6</ele>
        <time>2021-05-22T13:27:57Z</time>
      </trkpt>
      <trkpt lat="43.51436" lon="2.47793">
        <ele>518.38</ele>
        <time>2021-05-22T13:27:59Z</time>
      </trkpt>
      <trkpt lat="43.51435" lon="2.4779">
        <ele>517.909</ele>
        <time>2021-05-22T13:28:01Z</time>
      </trkpt>
      <trkpt lat="43.51433" lon="2.47787">
        <ele>518.298</ele>
        <time>2021-05-22T13:28:03Z</time>
      </trkpt>
      <trkpt lat="43.51432" lon="2.47783">
        <ele>518.788</ele>
        <time>2021-05-22T13:28:05Z</time>
      </trkpt>
      <trkpt lat="43.51431" lon="2.47779">
        <ele>518.426</ele>
        <time>2021-05-22T13:28:07Z</time>
      </trkpt>
      <trkpt lat="43.5143" lon="2.47774">
        <ele>520.92</ele>
        <time>2021-05-22T13:28:09Z</time>
      </trkpt>
      <trkpt lat="43.51429" lon="2.4777">
        <ele>521.16</ele>
        <time>2021-05-22T13:28:11Z</time>
      </trkpt>
      <trkpt lat="43.51428" lon="2.47766">
        <ele>522.887</ele>
        <time>2021-05-22T13:28:13Z</time>
      </trkpt>
      <trkpt lat="43.51427" lon="2.47763">
        <ele>524.359</ele>
        <time>2021-05-22T13:28:15Z</time>
      </trkpt>
      <trkpt lat="43.51426" lon="2.47759">
        <ele>524.23</ele>
        <time>2021-05-22T13:28:17Z</time>
      </trkpt>
      <trkpt lat="43.51425" lon="2.47755">
        <ele>525.316</ele>
        <time>2021-05-22T13:28:19Z</time>
      </trkpt>
      <trkpt lat="43.51424" lon="2.47752">
        <ele>526.323</ele>
        <time>2021-05-22T13:28:21Z</time>
      </trkpt>
      <trkpt lat="43.51422" lon="2.47748">
        <ele>526.753</ele>
        <time>2021-05-22T13:28:23Z</time>
      </trkpt>
      <trkpt lat="43.51422" lon="2.47745">
        <ele>529.35</ele>
        <time>2021-05-22T13:28:25Z</time>
      </trkpt>
      <trkpt lat="43.5142" lon="2.47741">
        <ele>531.134</ele>
        <time>2021-05-22T13:28:27Z</time>
      </trkpt>
      <trkpt lat="43.51419" lon="2.47738">
        <ele>532.529</ele>
        <time>2021-05-22T13:28:29Z</time>
      </trkpt>
      <trkpt lat="43.51419" lon="2.47734">
        <ele>532.866</ele>
        <time>2021-05-22T13:28:31Z</time>
      </trkpt>
      <trkpt lat="43.51418" lon="2.4773">
        <ele>530.286</ele>
        <time>2021-05-22T13:28:33Z</time>
      </trkpt>
      <trkpt lat="43.51417" lon="2.47727">
        <ele>531.205</ele>
        <time>2021-05-22T13:28:35Z</time>
      </trkpt>
      <trkpt lat="43.51416" lon="2.47723">
        <ele>530.422</ele>
        <time>2021-05-22T13:28:37Z</time>
      </trkpt>
      <trkpt lat="43.51415" lon="2.4772">
        <ele>531.905</ele>
        <time>2021-05-22T13:28:39Z</time>
      </trkpt>
      <trkpt lat="43.51414" lon="2.47716">
        <ele>533.342</ele>
        <time>2021-05-22T13:28:41Z</time>
      </trkpt>
      <trkpt lat="43.51413" lon="2.47713">
        <ele>535.522</ele>
        <time>2021-05-22T13:28:43Z</time>
      </trkpt>
      <trkpt lat="43.51411" lon="2.4771">
        <ele>532.935</ele>
        <time>2021-05-22T13:28:45Z</time>
      </trkpt>
      <trkpt lat="43.51408" lon="2.47706">
        <ele>532.986</ele>
        <time>2021-05-22T13:28:47Z</time>
      </trkpt>
      <trkpt lat="43.51406" lon="2.47703">
        <ele>532.885</ele>
        <time>2021-05-22T13:28:49Z</time>
      </trkpt>
      <trkpt lat="43.51404" lon="2.477">
        <ele>533.828</ele>
        <time>2021-05-22T13:28:51Z</time>
      </trkpt>
      <trkpt lat="43.51402" lon="2.47698">
        <ele>534.14</ele>
        <time>2021-05-22T13:28:53Z</time>
      </trkpt>
      <trkpt lat="43.51399" lon="2.47697">
        <ele>530.811</ele>
        <time>2021-05-22T13:28:55Z</time>
      </trkpt>
      <trkpt lat="43.51397" lon="2.47696">
        <ele>530.901</ele>
        <time>2021-05-22T13:28:57Z</time>
      </trkpt>
      <trkpt lat="43.51395" lon="2.47694">
        <ele>532.225</ele>
        <time>2021-05-22T13:28:59Z</time>
      </trkpt>
      <trkpt lat="43.51392" lon="2.47694">
        <ele>533.101</ele>
        <time>2021-05-22T13:29:01Z</time>
      </trkpt>
      <trkpt lat="43.5139" lon="2.47693">
        <ele>532.391</ele>
        <time>2021-05-22T13:29:03Z</time>
      </trkpt>
      <trkpt lat="43.51387" lon="2.47692">
        <ele>533.311</ele>
        <time>2021-05-22T13:29:05Z</time>
      </trkpt>
      <trkpt lat="43.51385" lon="2.47692">
        <ele>532.77</ele>
        <time>2021-05-22T13:29:07Z</time>
      </trkpt>
      <trkpt lat="43.51382" lon="2.4769">
        <ele>532.46</ele>
        <time>2021-05-22T13:29:09Z</time>
      </trkpt>
      <trkpt lat="43.5138" lon="2.47689">
        <ele>532.621</ele>
        <time>2021-05-22T13:29:11Z</time>
      </trkpt>
      <trkpt lat="43.51377" lon="2.47688">
        <ele>531.758</ele>
        <time>2021-05-22T13:29:13Z</time>
      </trkpt>
      <trkpt lat="43.51374" lon="2.47687">
        <ele>532.565</ele>
        <time>2021-05-22T13:29:15Z</time>
      </trkpt>
      <trkpt lat="43.51372" lon="2.47686">
        <ele>532.277</ele>
        <time>2021-05-22T13:29:17Z</time>
      </trkpt>
      <trkpt lat="43.51369" lon="2.47685">
        <ele>531.979</ele>
        <time>2021-05-22T13:29:19Z</time>
      </trkpt>
      <trkpt lat="43.51367" lon="2.47683">
        <ele>531.472</ele>
        <time>2021-05-22T13:29:21Z</time>
      </trkpt>
      <trkpt lat="43.51365" lon="2.47682">
        <ele>531.735</ele>
        <time>2021-05-22T13:29:23Z</time>
      </trkpt>
      <trkpt lat="43.51362" lon="2.47681">
        <ele>531.475</ele>
        <time>2021-05-22T13:29:25Z</time>
      </trkpt>
      <trkpt lat="43.5136" lon="2.4768">
        <ele>531.034</ele>
        <time>2021-05-22T13:29:27Z</time>
      </trkpt>
      <trkpt lat="43.51358" lon="2.47679">
        <ele>530.617</ele>
        <time>2021-05-22T13:29:29Z</time>
      </trkpt>
      <trkpt lat="43.51355" lon="2.47679">
        <ele>531.898</ele>
        <time>2021-05-22T13:29:31Z</time>
      </trkpt>
      <trkpt lat="43.51353" lon="2.47679">
        <ele>531.377</ele>
        <time>2021-05-22T13:29:33Z</time>
      </trkpt>
      <trkpt lat="43.5135" lon="2.47679">
        <ele>531.333</ele>
        <time>2021-05-22T13:29:35Z</time>
      </trkpt>
      <trkpt lat="43.51348" lon="2.4768">
        <ele>532.048</ele>
        <time>2021-05-22T13:29:37Z</time>
      </trkpt>
      <trkpt lat="43.51345" lon="2.4768">
        <ele>531.95</ele>
        <time>2021-05-22T13:29:39Z</time>
      </trkpt>
      <trkpt lat="43.51343" lon="2.4768">
        <ele>532.118</ele>
        <time>2021-05-22T13:29:41Z</time>
      </trkpt>
      <trkpt lat="43.51341" lon="2.47681">
        <ele>531.68</ele>
        <time>2021-05-22T13:29:43Z</time>
      </trkpt>
      <trkpt lat="43.51338" lon="2.47681">
        <ele>531.736</ele>
        <time>2021-05-22T13:29:45Z</time>
      </trkpt>
      <trkpt lat="43.51336" lon="2.47682">
        <ele>531.006</ele>
        <time>2021-05-22T13:29:47Z</time>
      </trkpt>
      <trkpt lat="43.51334" lon="2.47684">
        <ele>532.208</ele>
        <time>2021-05-22T13:29:49Z</time>
      </trkpt>
      <trkpt lat="43.51332" lon="2.47686">
        <ele>531.079</ele>
        <time>2021-05-22T13:29:51Z</time>
      </trkpt>
      <trkpt lat="43.51329" lon="2.47687">
        <ele>531.48</ele>
        <time>2021-05-22T13:29:53Z</time>
      </trkpt>
      <trkpt lat="43.51326" lon="2.47689">
        <ele>532.156</ele>
        <time>2021-05-22T13:29:55Z</time>
      </trkpt>
      <trkpt lat="43.51324" lon="2.47691">
        <ele>533.364</ele>
        <time>2021-05-22T13:29:57Z</time>
      </trkpt>
      <trkpt lat="43.5132" lon="2.47691">
        <ele>533.507</ele>
        <time>2021-05-22T13:29:59Z</time>
      </trkpt>
      <trkpt lat="43.51317" lon="2.47694">
        <ele>533.467</ele>
        <time>2021-05-22T13:30:01Z</time>
      </trkpt>
      <trkpt lat="43.51315" lon="2.47696">
        <ele>534.402</ele>
        <time>2021-05-22T13:30:03Z</time>
      </trkpt>
      <trkpt lat="43.51315" lon="2.47697">
        <ele>534.871</ele>
        <time>2021-05-22T13:30:05Z</time>
      </trkpt>
      <trkpt lat="43.51313" lon="2.47698">
        <ele>534.405</ele>
        <time>2021-05-22T13:30:07Z</time>
      </trkpt>
      <trkpt lat="43.51311" lon="2.47699">
        <ele>533.864</ele>
        <time>2021-05-22T13:30:09Z</time>
      </trkpt>
      <trkpt lat="43.51309" lon="2.47699">
        <ele>533.159</ele>
        <time>2021-05-22T13:30:11Z</time>
      </trkpt>
      <trkpt lat="43.51307" lon="2.47699">
        <ele>533.733</ele>
        <time>2021-05-22T13:30:13Z</time>
      </trkpt>
      <trkpt lat="43.51305" lon="2.47698">
        <ele>534.434</ele>
        <time>2021-05-22T13:30:15Z</time>
      </trkpt>
      <trkpt lat="43.51303" lon="2.47697">
        <ele>533.98</ele>
        <time>2021-05-22T13:30:17Z</time>
      </trkpt>
      <trkpt lat="43.51302" lon="2.47695">
        <ele>533.243</ele>
        <time>2021-05-22T13:30:19Z</time>
      </trkpt>
      <trkpt lat="43.51301" lon="2.47692">
        <ele>533.374</ele>
        <time>2021-05-22T13:30:21Z</time>
      </trkpt>
      <trkpt lat="43.51301" lon="2.47689">
        <ele>533.635</ele>
        <time>2021-05-22T13:30:23Z</time>
      </trkpt>
      <trkpt lat="43.513" lon="2.47685">
        <ele>534.713</ele>
        <time>2021-05-22T13:30:25Z</time>
      </trkpt>
      <trkpt lat="43.51301" lon="2.4768">
        <ele>536.99</ele>
        <time>2021-05-22T13:30:27Z</time>
      </trkpt>
      <trkpt lat="43.51302" lon="2.47676">
        <ele>537.75</ele>
        <time>2021-05-22T13:30:29Z</time>
      </trkpt>
      <trkpt lat="43.51304" lon="2.47673">
        <ele>538.577</ele>
        <time>2021-05-22T13:30:31Z</time>
      </trkpt>
      <trkpt lat="43.51306" lon="2.47672">
        <ele>540.89</ele>
        <time>2021-05-22T13:30:33Z</time>
      </trkpt>
      <trkpt lat="43.51308" lon="2.47669">
        <ele>542.202</ele>
        <time>2021-05-22T13:30:35Z</time>
      </trkpt>
      <trkpt lat="43.51311" lon="2.47667">
        <ele>543.396</ele>
        <time>2021-05-22T13:30:37Z</time>
      </trkpt>
      <trkpt lat="43.51313" lon="2.47665">
        <ele>544.018</ele>
        <time>2021-05-22T13:30:39Z</time>
      </trkpt>
      <trkpt lat="43.51315" lon="2.47662">
        <ele>543.879</ele>
        <time>2021-05-22T13:30:41Z</time>
      </trkpt>
      <trkpt lat="43.51318" lon="2.47661">
        <ele>543.063</ele>
        <time>2021-05-22T13:30:43Z</time>
      </trkpt>
      <trkpt lat="43.5132" lon="2.47659">
        <ele>543.092</ele>
        <time>2021-05-22T13:30:45Z</time>
      </trkpt>
      <trkpt lat="43.51322" lon="2.47658">
        <ele>542.886</ele>
        <time>2021-05-22T13:30:47Z</time>
      </trkpt>
      <trkpt lat="43.51324" lon="2.47657">
        <ele>545.162</ele>
        <time>2021-05-22T13:30:49Z</time>
      </trkpt>
      <trkpt lat="43.51325" lon="2.47656">
        <ele>544.948</ele>
        <time>2021-05-22T13:30:51Z</time>
      </trkpt>
      <trkpt lat="43.51327" lon="2.47654">
        <ele>546.41</ele>
        <time>2021-05-22T13:30:53Z</time>
      </trkpt>
      <trkpt lat="43.51328" lon="2.47652">
        <ele>547.037</ele>
        <time>2021-05-22T13:30:55Z</time>
      </trkpt>
      <trkpt lat="43.5133" lon="2.47651">
        <ele>546.925</ele>
        <time>2021-05-22T13:30:57Z</time>
      </trkpt>
      <trkpt lat="43.51331" lon="2.4765">
        <ele>546.348</ele>
        <time>2021-05-22T13:30:59Z</time>
      </trkpt>
      <trkpt lat="43.51333" lon="2.47647">
        <ele>547.502</ele>
        <time>2021-05-22T13:31:01Z</time>
      </trkpt>
      <trkpt lat="43.51335" lon="2.47646">
        <ele>545.937</ele>
        <time>2021-05-22T13:31:03Z</time>
      </trkpt>
      <trkpt lat="43.51337" lon="2.47644">
        <ele>547.252</ele>
        <time>2021-05-22T13:31:05Z</time>
      </trkpt>
      <trkpt lat="43.51341" lon="2.47642">
        <ele>547.533</ele>
        <time>2021-05-22T13:31:07Z</time>
      </trkpt>
      <trkpt lat="43.51343" lon="2.4764">
        <ele>548.506</ele>
        <time>2021-05-22T13:31:09Z</time>
      </trkpt>
      <trkpt lat="43.51345" lon="2.47639">
        <ele>549.135</ele>
        <time>2021-05-22T13:31:11Z</time>
      </trkpt>
      <trkpt lat="43.51347" lon="2.47637">
        <ele>547.976</ele>
        <time>2021-05-22T13:31:13Z</time>
      </trkpt>
      <trkpt lat="43.5135" lon="2.47636">
        <ele>547.559</ele>
        <time>2021-05-22T13:31:15Z</time>
      </trkpt>
      <trkpt lat="43.51352" lon="2.47635">
        <ele>547.845</ele>
        <time>2021-05-22T13:31:17Z</time>
      </trkpt>
      <trkpt lat="43.51355" lon="2.47634">
        <ele>548.187</ele>
        <time>2021-05-22T13:31:19Z</time>
      </trkpt>
      <trkpt lat="43.51357" lon="2.47633">
        <ele>549.35</ele>
        <time>2021-05-22T13:31:21Z</time>
      </trkpt>
      <trkpt lat="43.51359" lon="2.47631">
        <ele>550.458</ele>
        <time>2021-05-22T13:31:23Z</time>
      </trkpt>
      <trkpt lat="43.5136" lon="2.47629">
        <ele>550.706</ele>
        <time>2021-05-22T13:31:25Z</time>
      </trkpt>
      <trkpt lat="43.51363" lon="2.47627">
        <ele>550.985</ele>
        <time>2021-05-22T13:31:27Z</time>
      </trkpt>
      <trkpt lat="43.51365" lon="2.47625">
        <ele>549.934</ele>
        <time>2021-05-22T13:31:29Z</time>
      </trkpt>
      <trkpt lat="43.51368" lon="2.47623">
        <ele>550.03</ele>
        <time>2021-05-22T13:31:31Z</time>
      </trkpt>
      <trkpt lat="43.5137" lon="2.47621">
        <ele>549.527</ele>
        <time>2021-05-22T13:31:33Z</time>
      </trkpt>
      <trkpt lat="43.51372" lon="2.47619">
        <ele>548.754</ele>
        <time>2021-05-22T13:31:35Z</time>
      </trkpt>
      <trkpt lat="43.51373" lon="2.47616">
        <ele>548.562</ele>
        <time>2021-05-22T13:31:37Z</time>
      </trkpt>
      <trkpt lat="43.51375" lon="2.47614">
        <ele>548.246</ele>
        <time>2021-05-22T13:31:39Z</time>
      </trkpt>
      <trkpt lat="43.51378" lon="2.47611">
        <ele>547.772</ele>
        <time>2021-05-22T13:31:41Z</time>
      </trkpt>
      <trkpt lat="43.5138" lon="2.47609">
        <ele>548.947</ele>
        <time>2021-05-22T13:31:43Z</time>
      </trkpt>
      <trkpt lat="43.51381" lon="2.47608">
        <ele>548.665</ele>
        <time>2021-05-22T13:31:45Z</time>
      </trkpt>
      <trkpt lat="43.51384" lon="2.47606">
        <ele>548.55</ele>
        <time>2021-05-22T13:31:47Z</time>
      </trkpt>
      <trkpt lat="43.51387" lon="2.47604">
        <ele>548.867</ele>
        <time>2021-05-22T13:31:49Z</time>
      </trkpt>
      <trkpt lat="43.51388" lon="2.47603">
        <ele>548.373</ele>
        <time>2021-05-22T13:31:51Z</time>
      </trkpt>
      <trkpt lat="43.5139" lon="2.47601">
        <ele>548.59</ele>
        <time>2021-05-22T13:31:53Z</time>
      </trkpt>
      <trkpt lat="43.51392" lon="2.47599">
        <ele>548.277</ele>
        <time>2021-05-22T13:31:55Z</time>
      </trkpt>
      <trkpt lat="43.51394" lon="2.47598">
        <ele>548.456</ele>
        <time>2021-05-22T13:31:57Z</time>
      </trkpt>
      <trkpt lat="43.51395" lon="2.47596">
        <ele>549.566</ele>
        <time>2021-05-22T13:31:59Z</time>
      </trkpt>
      <trkpt lat="43.51393" lon="2.47595">
        <ele>551.538</ele>
        <time>2021-05-22T13:32:01Z</time>
      </trkpt>
      <trkpt lat="43.51393" lon="2.47595">
        <ele>551.557</ele>
        <time>2021-05-22T13:32:03Z</time>
      </trkpt>
      <trkpt lat="43.51395" lon="2.47595">
        <ele>552.254</ele>
        <time>2021-05-22T13:32:05Z</time>
      </trkpt>
      <trkpt lat="43.51396" lon="2.47593">
        <ele>554.32</ele>
        <time>2021-05-22T13:32:07Z</time>
      </trkpt>
      <trkpt lat="43.51398" lon="2.47593">
        <ele>554.565</ele>
        <time>2021-05-22T13:32:09Z</time>
      </trkpt>
      <trkpt lat="43.514" lon="2.47592">
        <ele>554.956</ele>
        <time>2021-05-22T13:32:11Z</time>
      </trkpt>
      <trkpt lat="43.51402" lon="2.47592">
        <ele>555.652</ele>
        <time>2021-05-22T13:32:13Z</time>
      </trkpt>
      <trkpt lat="43.51405" lon="2.47591">
        <ele>554.886</ele>
        <time>2021-05-22T13:32:15Z</time>
      </trkpt>
      <trkpt lat="43.51407" lon="2.4759">
        <ele>554.436</ele>
        <time>2021-05-22T13:32:17Z</time>
      </trkpt>
      <trkpt lat="43.51408" lon="2.47589">
        <ele>555.787</ele>
        <time>2021-05-22T13:32:19Z</time>
      </trkpt>
      <trkpt lat="43.5141" lon="2.47588">
        <ele>555.106</ele>
        <time>2021-05-22T13:32:21Z</time>
      </trkpt>
      <trkpt lat="43.51412" lon="2.47586">
        <ele>554.441</ele>
        <time>2021-05-22T13:32:23Z</time>
      </trkpt>
      <trkpt lat="43.51414" lon="2.47585">
        <ele>554.996</ele>
        <time>2021-05-22T13:32:25Z</time>
      </trkpt>
      <trkpt lat="43.51417" lon="2.47584">
        <ele>556.487</ele>
        <time>2021-05-22T13:32:27Z</time>
      </trkpt>
      <trkpt lat="43.51418" lon="2.47582">
        <ele>557.202</ele>
        <time>2021-05-22T13:32:29Z</time>
      </trkpt>
      <trkpt lat="43.5142" lon="2.4758">
        <ele>557.165</ele>
        <time>2021-05-22T13:32:31Z</time>
      </trkpt>
      <trkpt lat="43.51422" lon="2.47578">
        <ele>556.546</ele>
        <time>2021-05-22T13:32:33Z</time>
      </trkpt>
      <trkpt lat="43.51423" lon="2.47575">
        <ele>556.225</ele>
        <time>2021-05-22T13:32:35Z</time>
      </trkpt>
      <trkpt lat="43.51425" lon="2.47572">
        <ele>556.226</ele>
        <time>2021-05-22T13:32:37Z</time>
      </trkpt>
      <trkpt lat="43.51426" lon="2.47569">
        <ele>557.74</ele>
        <time>2021-05-22T13:32:39Z</time>
      </trkpt>
      <trkpt lat="43.51428" lon="2.47567">
        <ele>557.972</ele>
        <time>2021-05-22T13:32:41Z</time>
      </trkpt>
      <trkpt lat="43.51429" lon="2.47564">
        <ele>557.729</ele>
        <time>2021-05-22T13:32:43Z</time>
      </trkpt>
      <trkpt lat="43.51429" lon="2.47561">
        <ele>557.566</ele>
        <time>2021-05-22T13:32:45Z</time>
      </trkpt>
      <trkpt lat="43.5143" lon="2.47558">
        <ele>557.71</ele>
        <time>2021-05-22T13:32:47Z</time>
      </trkpt>
      <trkpt lat="43.51432" lon="2.47555">
        <ele>557.408</ele>
        <time>2021-05-22T13:32:49Z</time>
      </trkpt>
      <trkpt lat="43.51433" lon="2.47552">
        <ele>555.646</ele>
        <time>2021-05-22T13:32:51Z</time>
      </trkpt>
      <trkpt lat="43.51435" lon="2.4755">
        <ele>554.241</ele>
        <time>2021-05-22T13:32:53Z</time>
      </trkpt>
      <trkpt lat="43.51435" lon="2.47546">
        <ele>554.243</ele>
        <time>2021-05-22T13:32:55Z</time>
      </trkpt>
      <trkpt lat="43.51437" lon="2.47543">
        <ele>553.411</ele>
        <time>2021-05-22T13:32:57Z</time>
      </trkpt>
      <trkpt lat="43.51438" lon="2.47539">
        <ele>553.403</ele>
        <time>2021-05-22T13:32:59Z</time>
      </trkpt>
      <trkpt lat="43.51438" lon="2.47536">
        <ele>553.036</ele>
        <time>2021-05-22T13:33:01Z</time>
      </trkpt>
      <trkpt lat="43.51437" lon="2.47536">
        <ele>553.679</ele>
        <time>2021-05-22T13:33:03Z</time>
      </trkpt>
      <trkpt lat="43.51437" lon="2.47533">
        <ele>553.868</ele>
        <time>2021-05-22T13:33:05Z</time>
      </trkpt>
      <trkpt lat="43.51437" lon="2.4753">
        <ele>554.605</ele>
        <time>2021-05-22T13:33:07Z</time>
      </trkpt>
      <trkpt lat="43.51438" lon="2.47527">
        <ele>554.897</ele>
        <time>2021-05-22T13:33:09Z</time>
      </trkpt>
      <trkpt lat="43.51439" lon="2.47524">
        <ele>554.45</ele>
        <time>2021-05-22T13:33:11Z</time>
      </trkpt>
      <trkpt lat="43.51439" lon="2.47521">
        <ele>553.928</ele>
        <time>2021-05-22T13:33:13Z</time>
      </trkpt>
      <trkpt lat="43.51439" lon="2.47518">
        <ele>553.023</ele>
        <time>2021-05-22T13:33:15Z</time>
      </trkpt>
      <trkpt lat="43.51439" lon="2.47514">
        <ele>552.823</ele>
        <time>2021-05-22T13:33:17Z</time>
      </trkpt>
      <trkpt lat="43.51439" lon="2.47511">
        <ele>552.798</ele>
        <time>2021-05-22T13:33:19Z</time>
      </trkpt>
      <trkpt lat="43.5144" lon="2.47507">
        <ele>552.756</ele>
        <time>2021-05-22T13:33:21Z</time>
      </trkpt>
      <trkpt lat="43.5144" lon="2.47504">
        <ele>552.308</ele>
        <time>2021-05-22T13:33:23Z</time>
      </trkpt>
      <trkpt lat="43.5144" lon="2.47501">
        <ele>551.836</ele>
        <time>2021-05-22T13:33:25Z</time>
      </trkpt>
      <trkpt lat="43.51441" lon="2.47498">
        <ele>551.35</ele>
        <time>2021-05-22T13:33:27Z</time>
      </trkpt>
      <trkpt lat="43.51441" lon="2.47495">
        <ele>550.583</ele>
        <time>2021-05-22T13:33:29Z</time>
      </trkpt>
      <trkpt lat="43.51441" lon="2.47492">
        <ele>551.252</ele>
        <time>2021-05-22T13:33:31Z</time>
      </trkpt>
      <trkpt lat="43.51442" lon="2.47488">
        <ele>549.954</ele>
        <time>2021-05-22T13:33:33Z</time>
      </trkpt>
      <trkpt lat="43.51443" lon="2.47484">
        <ele>548.103</ele>
        <time>2021-05-22T13:33:35Z</time>
      </trkpt>
      <trkpt lat="43.51443" lon="2.47481">
        <ele>547.796</ele>
        <time>2021-05-22T13:33:37Z</time>
      </trkpt>
      <trkpt lat="43.51443" lon="2.47477">
        <ele>547.649</ele>
        <time>2021-05-22T13:33:39Z</time>
      </trkpt>
      <trkpt lat="43.51443" lon="2.47473">
        <ele>547.521</ele>
        <time>2021-05-22T13:33:41Z</time>
      </trkpt>
      <trkpt lat="43.51442" lon="2.4747">
        <ele>546.939</ele>
        <time>2021-05-22T13:33:43Z</time>
      </trkpt>
      <trkpt lat="43.51442" lon="2.47466">
        <ele>548.983</ele>
        <time>2021-05-22T13:33:45Z</time>
      </trkpt>
      <trkpt lat="43.51442" lon="2.47463">
        <ele>549.423</ele>
        <time>2021-05-22T13:33:47Z</time>
      </trkpt>
      <trkpt lat="43.51441" lon="2.47459">
        <ele>548.488</ele>
        <time>2021-05-22T13:33:49Z</time>
      </trkpt>
      <trkpt lat="43.51442" lon="2.47456">
        <ele>548.724</ele>
        <time>2021-05-22T13:33:51Z</time>
      </trkpt>
      <trkpt lat="43.51441" lon="2.47453">
        <ele>549.316</ele>
        <time>2021-05-22T13:33:53Z</time>
      </trkpt>
      <trkpt lat="43.51443" lon="2.47455">
        <ele>544.751</ele>
        <time>2021-05-22T13:33:55Z</time>
      </trkpt>
      <trkpt lat="43.51443" lon="2.47455">
        <ele>544.809</ele>
        <time>2021-05-22T13:33:57Z</time>
      </trkpt>
      <trkpt lat="43.51444" lon="2.47456">
        <ele>544.75</ele>
        <time>2021-05-22T13:33:59Z</time>
      </trkpt>
      <trkpt lat="43.51445" lon="2.47454">
        <ele>544.874</ele>
        <time>2021-05-22T13:34:01Z</time>
      </trkpt>
      <trkpt lat="43.51445" lon="2.47452">
        <ele>544.539</ele>
        <time>2021-05-22T13:34:03Z</time>
      </trkpt>
      <trkpt lat="43.51444" lon="2.47449">
        <ele>545.074</ele>
        <time>2021-05-22T13:34:05Z</time>
      </trkpt>
      <trkpt lat="43.51444" lon="2.47446">
        <ele>545.359</ele>
        <time>2021-05-22T13:34:07Z</time>
      </trkpt>
      <trkpt lat="43.51444" lon="2.47437">
        <ele>547.265</ele>
        <time>2021-05-22T13:34:19Z</time>
      </trkpt>
      <trkpt lat="43.51444" lon="2.47437">
        <ele>547.301</ele>
        <time>2021-05-22T13:34:22Z</time>
      </trkpt>
      <trkpt lat="43.51444" lon="2.47437">
        <ele>547.328</ele>
        <time>2021-05-22T13:34:24Z</time>
      </trkpt>
      <trkpt lat="43.51444" lon="2.47436">
        <ele>547.936</ele>
        <time>2021-05-22T13:34:26Z</time>
      </trkpt>
      <trkpt lat="43.51444" lon="2.47436">
        <ele>547.876</ele>
        <time>2021-05-22T13:34:28Z</time>
      </trkpt>
      <trkpt lat="43.51445" lon="2.47434">
        <ele>547.938</ele>
        <time>2021-05-22T13:34:30Z</time>
      </trkpt>
      <trkpt lat="43.51444" lon="2.47432">
        <ele>548.711</ele>
        <time>2021-05-22T13:34:32Z</time>
      </trkpt>
      <trkpt lat="43.51444" lon="2.47429">
        <ele>548.846</ele>
        <time>2021-05-22T13:34:34Z</time>
      </trkpt>
      <trkpt lat="43.51443" lon="2.47427">
        <ele>547.13</ele>
        <time>2021-05-22T13:34:36Z</time>
      </trkpt>
      <trkpt lat="43.51444" lon="2.47426">
        <ele>548.059</ele>
        <time>2021-05-22T13:34:38Z</time>
      </trkpt>
      <trkpt lat="43.51444" lon="2.47426">
        <ele>548.083</ele>
        <time>2021-05-22T13:34:40Z</time>
      </trkpt>
      <trkpt lat="43.51444" lon="2.47426">
        <ele>548.084</ele>
        <time>2021-05-22T13:34:42Z</time>
      </trkpt>
      <trkpt lat="43.51444" lon="2.47425">
        <ele>548.985</ele>
        <time>2021-05-22T13:34:44Z</time>
      </trkpt>
      <trkpt lat="43.51444" lon="2.47425">
        <ele>548.975</ele>
        <time>2021-05-22T13:34:46Z</time>
      </trkpt>
      <trkpt lat="43.51444" lon="2.47424">
        <ele>549.052</ele>
        <time>2021-05-22T13:34:48Z</time>
      </trkpt>
      <trkpt lat="43.51444" lon="2.47424">
        <ele>549.079</ele>
        <time>2021-05-22T13:34:50Z</time>
      </trkpt>
      <trkpt lat="43.51444" lon="2.47424">
        <ele>549.109</ele>
        <time>2021-05-22T13:34:52Z</time>
      </trkpt>
      <trkpt lat="43.51444" lon="2.47424">
        <ele>549.176</ele>
        <time>2021-05-22T13:34:54Z</time>
      </trkpt>
      <trkpt lat="43.51444" lon="2.47424">
        <ele>549.253</ele>
        <time>2021-05-22T13:34:56Z</time>
      </trkpt>
      <trkpt lat="43.51444" lon="2.47424">
        <ele>549.306</ele>
        <time>2021-05-22T13:34:58Z</time>
      </trkpt>
      <trkpt lat="43.51444" lon="2.47424">
        <ele>549.595</ele>
        <time>2021-05-22T13:35:00Z</time>
      </trkpt>
      <trkpt lat="43.51444" lon="2.47424">
        <ele>549.581</ele>
        <time>2021-05-22T13:35:02Z</time>
      </trkpt>
      <trkpt lat="43.51444" lon="2.47424">
        <ele>549.58</ele>
        <time>2021-05-22T13:35:04Z</time>
      </trkpt>
      <trkpt lat="43.51444" lon="2.47424">
        <ele>549.581</ele>
        <time>2021-05-22T13:35:06Z</time>
      </trkpt>
      <trkpt lat="43.51444" lon="2.47424">
        <ele>549.594</ele>
        <time>2021-05-22T13:35:08Z</time>
      </trkpt>
      <trkpt lat="43.51444" lon="2.47424">
        <ele>549.612</ele>
        <time>2021-05-22T13:35:10Z</time>
      </trkpt>
      <trkpt lat="43.51444" lon="2.47424">
        <ele>549.613</ele>
        <time>2021-05-22T13:35:12Z</time>
      </trkpt>
      <trkpt lat="43.51444" lon="2.47424">
        <ele>549.227</ele>
        <time>2021-05-22T13:35:14Z</time>
      </trkpt>
      <trkpt lat="43.51444" lon="2.47424">
        <ele>549.231</ele>
        <time>2021-05-22T13:35:16Z</time>
      </trkpt>
      <trkpt lat="43.51444" lon="2.47424">
        <ele>549.234</ele>
        <time>2021-05-22T13:35:18Z</time>
      </trkpt>
      <trkpt lat="43.51444" lon="2.47422">
        <ele>549.725</ele>
        <time>2021-05-22T13:35:20Z</time>
      </trkpt>
      <trkpt lat="43.51443" lon="2.4742">
        <ele>550.04</ele>
        <time>2021-05-22T13:35:22Z</time>
      </trkpt>
      <trkpt lat="43.51444" lon="2.47417">
        <ele>550.489</ele>
        <time>2021-05-22T13:35:24Z</time>
      </trkpt>
      <trkpt lat="43.51444" lon="2.47414">
        <ele>551.112</ele>
        <time>2021-05-22T13:35:26Z</time>
      </trkpt>
      <trkpt lat="43.51443" lon="2.47412">
        <ele>550.89</ele>
        <time>2021-05-22T13:35:28Z</time>
      </trkpt>
      <trkpt lat="43.51443" lon="2.47411">
        <ele>550.053</ele>
        <time>2021-05-22T13:35:30Z</time>
      </trkpt>
      <trkpt lat="43.51442" lon="2.4741">
        <ele>550.872</ele>
        <time>2021-05-22T13:35:32Z</time>
      </trkpt>
      <trkpt lat="43.51442" lon="2.4741">
        <ele>550.838</ele>
        <time>2021-05-22T13:35:34Z</time>
      </trkpt>
      <trkpt lat="43.51443" lon="2.4741">
        <ele>550.853</ele>
        <time>2021-05-22T13:35:36Z</time>
      </trkpt>
      <trkpt lat="43.51443" lon="2.4741">
        <ele>550.848</ele>
        <time>2021-05-22T13:35:38Z</time>
      </trkpt>
      <trkpt lat="43.51443" lon="2.47409">
        <ele>550.984</ele>
        <time>2021-05-22T13:35:40Z</time>
      </trkpt>
      <trkpt lat="43.51445" lon="2.47407">
        <ele>551.074</ele>
        <time>2021-05-22T13:35:42Z</time>
      </trkpt>
      <trkpt lat="43.51446" lon="2.47403">
        <ele>551.129</ele>
        <time>2021-05-22T13:35:44Z</time>
      </trkpt>
      <trkpt lat="43.51446" lon="2.47399">
        <ele>550.833</ele>
        <time>2021-05-22T13:35:46Z</time>
      </trkpt>
      <trkpt lat="43.51447" lon="2.47396">
        <ele>550.354</ele>
        <time>2021-05-22T13:35:48Z</time>
      </trkpt>
      <trkpt lat="43.51447" lon="2.47393">
        <ele>551.079</ele>
        <time>2021-05-22T13:35:50Z</time>
      </trkpt>
      <trkpt lat="43.51448" lon="2.4739">
        <ele>552.613</ele>
        <time>2021-05-22T13:35:52Z</time>
      </trkpt>
      <trkpt lat="43.51449" lon="2.47386">
        <ele>552.319</ele>
        <time>2021-05-22T13:35:54Z</time>
      </trkpt>
      <trkpt lat="43.51449" lon="2.47383">
        <ele>552.209</ele>
        <time>2021-05-22T13:35:56Z</time>
      </trkpt>
      <trkpt lat="43.51449" lon="2.4738">
        <ele>552.66</ele>
        <time>2021-05-22T13:35:58Z</time>
      </trkpt>
      <trkpt lat="43.51449" lon="2.47377">
        <ele>552.619</ele>
        <time>2021-05-22T13:36:00Z</time>
      </trkpt>
      <trkpt lat="43.51449" lon="2.47375">
        <ele>554.262</ele>
        <time>2021-05-22T13:36:02Z</time>
      </trkpt>
      <trkpt lat="43.51449" lon="2.47372">
        <ele>553.971</ele>
        <time>2021-05-22T13:36:04Z</time>
      </trkpt>
      <trkpt lat="43.5145" lon="2.4737">
        <ele>554.576</ele>
        <time>2021-05-22T13:36:06Z</time>
      </trkpt>
      <trkpt lat="43.5145" lon="2.47367">
        <ele>553.894</ele>
        <time>2021-05-22T13:36:08Z</time>
      </trkpt>
      <trkpt lat="43.5145" lon="2.47364">
        <ele>554.085</ele>
        <time>2021-05-22T13:36:10Z</time>
      </trkpt>
      <trkpt lat="43.5145" lon="2.4736">
        <ele>554.011</ele>
        <time>2021-05-22T13:36:12Z</time>
      </trkpt>
      <trkpt lat="43.51451" lon="2.47357">
        <ele>553.706</ele>
        <time>2021-05-22T13:36:14Z</time>
      </trkpt>
      <trkpt lat="43.51451" lon="2.47354">
        <ele>552.838</ele>
        <time>2021-05-22T13:36:16Z</time>
      </trkpt>
      <trkpt lat="43.51451" lon="2.4735">
        <ele>553.388</ele>
        <time>2021-05-22T13:36:18Z</time>
      </trkpt>
      <trkpt lat="43.51452" lon="2.47346">
        <ele>552.626</ele>
        <time>2021-05-22T13:36:20Z</time>
      </trkpt>
      <trkpt lat="43.51452" lon="2.47342">
        <ele>554.127</ele>
        <time>2021-05-22T13:36:22Z</time>
      </trkpt>
      <trkpt lat="43.51452" lon="2.47338">
        <ele>553.958</ele>
        <time>2021-05-22T13:36:24Z</time>
      </trkpt>
      <trkpt lat="43.51453" lon="2.47335">
        <ele>553.984</ele>
        <time>2021-05-22T13:36:26Z</time>
      </trkpt>
      <trkpt lat="43.51453" lon="2.47331">
        <ele>554.569</ele>
        <time>2021-05-22T13:36:28Z</time>
      </trkpt>
      <trkpt lat="43.51454" lon="2.47327">
        <ele>555.179</ele>
        <time>2021-05-22T13:36:30Z</time>
      </trkpt>
      <trkpt lat="43.51454" lon="2.47323">
        <ele>555.019</ele>
        <time>2021-05-22T13:36:32Z</time>
      </trkpt>
      <trkpt lat="43.51454" lon="2.4732">
        <ele>554.435</ele>
        <time>2021-05-22T13:36:34Z</time>
      </trkpt>
      <trkpt lat="43.51454" lon="2.47316">
        <ele>553.762</ele>
        <time>2021-05-22T13:36:36Z</time>
      </trkpt>
      <trkpt lat="43.51454" lon="2.47311">
        <ele>555.724</ele>
        <time>2021-05-22T13:36:38Z</time>
      </trkpt>
      <trkpt lat="43.51454" lon="2.47308">
        <ele>556.115</ele>
        <time>2021-05-22T13:36:40Z</time>
      </trkpt>
      <trkpt lat="43.51454" lon="2.47304">
        <ele>556.382</ele>
        <time>2021-05-22T13:36:42Z</time>
      </trkpt>
      <trkpt lat="43.51455" lon="2.473">
        <ele>556.962</ele>
        <time>2021-05-22T13:36:44Z</time>
      </trkpt>
      <trkpt lat="43.51454" lon="2.47297">
        <ele>555.989</ele>
        <time>2021-05-22T13:36:46Z</time>
      </trkpt>
      <trkpt lat="43.51454" lon="2.47293">
        <ele>557.973</ele>
        <time>2021-05-22T13:36:48Z</time>
      </trkpt>
      <trkpt lat="43.51454" lon="2.47289">
        <ele>558.443</ele>
        <time>2021-05-22T13:36:50Z</time>
      </trkpt>
      <trkpt lat="43.51454" lon="2.47285">
        <ele>557.572</ele>
        <time>2021-05-22T13:36:52Z</time>
      </trkpt>
      <trkpt lat="43.51454" lon="2.47281">
        <ele>558.432</ele>
        <time>2021-05-22T13:36:54Z</time>
      </trkpt>
      <trkpt lat="43.51454" lon="2.47277">
        <ele>558.818</ele>
        <time>2021-05-22T13:36:56Z</time>
      </trkpt>
      <trkpt lat="43.51453" lon="2.47271">
        <ele>558.972</ele>
        <time>2021-05-22T13:36:58Z</time>
      </trkpt>
      <trkpt lat="43.51453" lon="2.47268">
        <ele>559.43</ele>
        <time>2021-05-22T13:37:00Z</time>
      </trkpt>
      <trkpt lat="43.51453" lon="2.47264">
        <ele>559.606</ele>
        <time>2021-05-22T13:37:02Z</time>
      </trkpt>
      <trkpt lat="43.51453" lon="2.4726">
        <ele>559.742</ele>
        <time>2021-05-22T13:37:04Z</time>
      </trkpt>
      <trkpt lat="43.51453" lon="2.47256">
        <ele>559.481</ele>
        <time>2021-05-22T13:37:06Z</time>
      </trkpt>
      <trkpt lat="43.51454" lon="2.47253">
        <ele>557.559</ele>
        <time>2021-05-22T13:37:08Z</time>
      </trkpt>
      <trkpt lat="43.51455" lon="2.47249">
        <ele>557.154</ele>
        <time>2021-05-22T13:37:10Z</time>
      </trkpt>
      <trkpt lat="43.51455" lon="2.47245">
        <ele>557.319</ele>
        <time>2021-05-22T13:37:12Z</time>
      </trkpt>
      <trkpt lat="43.51456" lon="2.47241">
        <ele>557.276</ele>
        <time>2021-05-22T13:37:14Z</time>
      </trkpt>
      <trkpt lat="43.51455" lon="2.47237">
        <ele>557.292</ele>
        <time>2021-05-22T13:37:16Z</time>
      </trkpt>
      <trkpt lat="43.51455" lon="2.47234">
        <ele>558.228</ele>
        <time>2021-05-22T13:37:18Z</time>
      </trkpt>
      <trkpt lat="43.51455" lon="2.47229">
        <ele>560.069</ele>
        <time>2021-05-22T13:37:20Z</time>
      </trkpt>
      <trkpt lat="43.51455" lon="2.47225">
        <ele>560.643</ele>
        <time>2021-05-22T13:37:22Z</time>
      </trkpt>
      <trkpt lat="43.51456" lon="2.47222">
        <ele>559.294</ele>
        <time>2021-05-22T13:37:24Z</time>
      </trkpt>
      <trkpt lat="43.51457" lon="2.47218">
        <ele>559.583</ele>
        <time>2021-05-22T13:37:26Z</time>
      </trkpt>
      <trkpt lat="43.51456" lon="2.47214">
        <ele>560.84</ele>
        <time>2021-05-22T13:37:28Z</time>
      </trkpt>
      <trkpt lat="43.51456" lon="2.4721">
        <ele>560.479</ele>
        <time>2021-05-22T13:37:30Z</time>
      </trkpt>
      <trkpt lat="43.51455" lon="2.47206">
        <ele>560.319</ele>
        <time>2021-05-22T13:37:32Z</time>
      </trkpt>
      <trkpt lat="43.51455" lon="2.47202">
        <ele>560.398</ele>
        <time>2021-05-22T13:37:34Z</time>
      </trkpt>
      <trkpt lat="43.51455" lon="2.47199">
        <ele>560.707</ele>
        <time>2021-05-22T13:37:36Z</time>
      </trkpt>
      <trkpt lat="43.51455" lon="2.47196">
        <ele>560.523</ele>
        <time>2021-05-22T13:37:38Z</time>
      </trkpt>
      <trkpt lat="43.51454" lon="2.47192">
        <ele>559.766</ele>
        <time>2021-05-22T13:37:40Z</time>
      </trkpt>
      <trkpt lat="43.51454" lon="2.47189">
        <ele>560.285</ele>
        <time>2021-05-22T13:37:42Z</time>
      </trkpt>
      <trkpt lat="43.51454" lon="2.47186">
        <ele>560.421</ele>
        <time>2021-05-22T13:37:44Z</time>
      </trkpt>
      <trkpt lat="43.51454" lon="2.47183">
        <ele>561.55</ele>
        <time>2021-05-22T13:37:46Z</time>
      </trkpt>
      <trkpt lat="43.51454" lon="2.4717">
        <ele>563.323</ele>
        <time>2021-05-22T13:37:53Z</time>
      </trkpt>
      <trkpt lat="43.51453" lon="2.47167">
        <ele>564.939</ele>
        <time>2021-05-22T13:37:55Z</time>
      </trkpt>
      <trkpt lat="43.51455" lon="2.47164">
        <ele>565.163</ele>
        <time>2021-05-22T13:37:57Z</time>
      </trkpt>
      <trkpt lat="43.51457" lon="2.4716">
        <ele>567.041</ele>
        <time>2021-05-22T13:37:59Z</time>
      </trkpt>
      <trkpt lat="43.51459" lon="2.47155">
        <ele>567.675</ele>
        <time>2021-05-22T13:38:01Z</time>
      </trkpt>
      <trkpt lat="43.5146" lon="2.47151">
        <ele>570.463</ele>
        <time>2021-05-22T13:38:03Z</time>
      </trkpt>
      <trkpt lat="43.51457" lon="2.4715">
        <ele>569.65</ele>
        <time>2021-05-22T13:38:05Z</time>
      </trkpt>
      <trkpt lat="43.51455" lon="2.4715">
        <ele>570.343</ele>
        <time>2021-05-22T13:38:07Z</time>
      </trkpt>
      <trkpt lat="43.51455" lon="2.4715">
        <ele>570.34</ele>
        <time>2021-05-22T13:38:09Z</time>
      </trkpt>
      <trkpt lat="43.51455" lon="2.47149">
        <ele>569.833</ele>
        <time>2021-05-22T13:38:11Z</time>
      </trkpt>
      <trkpt lat="43.51455" lon="2.4715">
        <ele>569.406</ele>
        <time>2021-05-22T13:38:13Z</time>
      </trkpt>
      <trkpt lat="43.51456" lon="2.4715">
        <ele>568.803</ele>
        <time>2021-05-22T13:38:15Z</time>
      </trkpt>
      <trkpt lat="43.51456" lon="2.47149">
        <ele>568.079</ele>
        <time>2021-05-22T13:38:17Z</time>
      </trkpt>
      <trkpt lat="43.51456" lon="2.47148">
        <ele>568.652</ele>
        <time>2021-05-22T13:38:19Z</time>
      </trkpt>
      <trkpt lat="43.51456" lon="2.47147">
        <ele>567.113</ele>
        <time>2021-05-22T13:38:21Z</time>
      </trkpt>
      <trkpt lat="43.51456" lon="2.47145">
        <ele>566.03</ele>
        <time>2021-05-22T13:38:23Z</time>
      </trkpt>
      <trkpt lat="43.51457" lon="2.47145">
        <ele>566.214</ele>
        <time>2021-05-22T13:38:25Z</time>
      </trkpt>
      <trkpt lat="43.51457" lon="2.47146">
        <ele>567.67</ele>
        <time>2021-05-22T13:38:27Z</time>
      </trkpt>
      <trkpt lat="43.51456" lon="2.47147">
        <ele>567.863</ele>
        <time>2021-05-22T13:38:29Z</time>
      </trkpt>
      <trkpt lat="43.51455" lon="2.47148">
        <ele>569.58</ele>
        <time>2021-05-22T13:38:31Z</time>
      </trkpt>
      <trkpt lat="43.51453" lon="2.47148">
        <ele>568.686</ele>
        <time>2021-05-22T13:38:33Z</time>
      </trkpt>
      <trkpt lat="43.51452" lon="2.47147">
        <ele>567.566</ele>
        <time>2021-05-22T13:38:35Z</time>
      </trkpt>
      <trkpt lat="43.5145" lon="2.47145">
        <ele>567.468</ele>
        <time>2021-05-22T13:38:37Z</time>
      </trkpt>
      <trkpt lat="43.51449" lon="2.47144">
        <ele>567.561</ele>
        <time>2021-05-22T13:38:39Z</time>
      </trkpt>
      <trkpt lat="43.51449" lon="2.47143">
        <ele>567.01</ele>
        <time>2021-05-22T13:38:41Z</time>
      </trkpt>
      <trkpt lat="43.51448" lon="2.47141">
        <ele>566.95</ele>
        <time>2021-05-22T13:38:43Z</time>
      </trkpt>
      <trkpt lat="43.51446" lon="2.47139">
        <ele>565.793</ele>
        <time>2021-05-22T13:38:45Z</time>
      </trkpt>
      <trkpt lat="43.51444" lon="2.47138">
        <ele>564.934</ele>
        <time>2021-05-22T13:38:47Z</time>
      </trkpt>
      <trkpt lat="43.51443" lon="2.47138">
        <ele>565.166</ele>
        <time>2021-05-22T13:38:49Z</time>
      </trkpt>
      <trkpt lat="43.51442" lon="2.4714">
        <ele>565.201</ele>
        <time>2021-05-22T13:38:51Z</time>
      </trkpt>
      <trkpt lat="43.5144" lon="2.4714">
        <ele>564.251</ele>
        <time>2021-05-22T13:38:53Z</time>
      </trkpt>
      <trkpt lat="43.51439" lon="2.47141">
        <ele>562.556</ele>
        <time>2021-05-22T13:38:55Z</time>
      </trkpt>
      <trkpt lat="43.51437" lon="2.47141">
        <ele>560.936</ele>
        <time>2021-05-22T13:38:57Z</time>
      </trkpt>
      <trkpt lat="43.51435" lon="2.4714">
        <ele>561.228</ele>
        <time>2021-05-22T13:38:59Z</time>
      </trkpt>
      <trkpt lat="43.51433" lon="2.47138">
        <ele>560.883</ele>
        <time>2021-05-22T13:39:01Z</time>
      </trkpt>
      <trkpt lat="43.51432" lon="2.47137">
        <ele>559.742</ele>
        <time>2021-05-22T13:39:03Z</time>
      </trkpt>
      <trkpt lat="43.5143" lon="2.47138">
        <ele>558.855</ele>
        <time>2021-05-22T13:39:05Z</time>
      </trkpt>
      <trkpt lat="43.51429" lon="2.47138">
        <ele>558.437</ele>
        <time>2021-05-22T13:39:07Z</time>
      </trkpt>
      <trkpt lat="43.51428" lon="2.47138">
        <ele>558.614</ele>
        <time>2021-05-22T13:39:09Z</time>
      </trkpt>
      <trkpt lat="43.51428" lon="2.4714">
        <ele>558.609</ele>
        <time>2021-05-22T13:39:11Z</time>
      </trkpt>
      <trkpt lat="43.51427" lon="2.47141">
        <ele>558.28</ele>
        <time>2021-05-22T13:39:13Z</time>
      </trkpt>
      <trkpt lat="43.51426" lon="2.47142">
        <ele>558.107</ele>
        <time>2021-05-22T13:39:15Z</time>
      </trkpt>
      <trkpt lat="43.51424" lon="2.47143">
        <ele>559.229</ele>
        <time>2021-05-22T13:39:17Z</time>
      </trkpt>
      <trkpt lat="43.51423" lon="2.47143">
        <ele>559.936</ele>
        <time>2021-05-22T13:39:19Z</time>
      </trkpt>
      <trkpt lat="43.51421" lon="2.47141">
        <ele>560.38</ele>
        <time>2021-05-22T13:39:21Z</time>
      </trkpt>
      <trkpt lat="43.5142" lon="2.4714">
        <ele>559.817</ele>
        <time>2021-05-22T13:39:23Z</time>
      </trkpt>
      <trkpt lat="43.51421" lon="2.47141">
        <ele>558.71</ele>
        <time>2021-05-22T13:39:25Z</time>
      </trkpt>
      <trkpt lat="43.51421" lon="2.47141">
        <ele>559.292</ele>
        <time>2021-05-22T13:39:27Z</time>
      </trkpt>
      <trkpt lat="43.51421" lon="2.47141">
        <ele>559.273</ele>
        <time>2021-05-22T13:39:29Z</time>
      </trkpt>
      <trkpt lat="43.51421" lon="2.47142">
        <ele>557.828</ele>
        <time>2021-05-22T13:39:31Z</time>
      </trkpt>
      <trkpt lat="43.51422" lon="2.47142">
        <ele>558.482</ele>
        <time>2021-05-22T13:39:33Z</time>
      </trkpt>
      <trkpt lat="43.51423" lon="2.47143">
        <ele>558.381</ele>
        <time>2021-05-22T13:39:35Z</time>
      </trkpt>
      <trkpt lat="43.51424" lon="2.47147">
        <ele>558.929</ele>
        <time>2021-05-22T13:39:37Z</time>
      </trkpt>
      <trkpt lat="43.51426" lon="2.47146">
        <ele>557.007</ele>
        <time>2021-05-22T13:39:39Z</time>
      </trkpt>
      <trkpt lat="43.51427" lon="2.47148">
        <ele>555.602</ele>
        <time>2021-05-22T13:39:41Z</time>
      </trkpt>
      <trkpt lat="43.51427" lon="2.4715">
        <ele>554.867</ele>
        <time>2021-05-22T13:39:43Z</time>
      </trkpt>
      <trkpt lat="43.51423" lon="2.47153">
        <ele>558.101</ele>
        <time>2021-05-22T13:39:50Z</time>
      </trkpt>
      <trkpt lat="43.51421" lon="2.47152">
        <ele>557.624</ele>
        <time>2021-05-22T13:39:52Z</time>
      </trkpt>
      <trkpt lat="43.5142" lon="2.47151">
        <ele>555.969</ele>
        <time>2021-05-22T13:39:54Z</time>
      </trkpt>
      <trkpt lat="43.51419" lon="2.4715">
        <ele>554.773</ele>
        <time>2021-05-22T13:39:56Z</time>
      </trkpt>
      <trkpt lat="43.51417" lon="2.47149">
        <ele>556.088</ele>
        <time>2021-05-22T13:39:58Z</time>
      </trkpt>
      <trkpt lat="43.51417" lon="2.47149">
        <ele>556.322</ele>
        <time>2021-05-22T13:40:00Z</time>
      </trkpt>
      <trkpt lat="43.51416" lon="2.47149">
        <ele>557.244</ele>
        <time>2021-05-22T13:40:02Z</time>
      </trkpt>
      <trkpt lat="43.51414" lon="2.47148">
        <ele>554.245</ele>
        <time>2021-05-22T13:40:04Z</time>
      </trkpt>
      <trkpt lat="43.51413" lon="2.47149">
        <ele>554.376</ele>
        <time>2021-05-22T13:40:06Z</time>
      </trkpt>
      <trkpt lat="43.51412" lon="2.47149">
        <ele>553.499</ele>
        <time>2021-05-22T13:40:08Z</time>
      </trkpt>
      <trkpt lat="43.5141" lon="2.47149">
        <ele>553.244</ele>
        <time>2021-05-22T13:40:10Z</time>
      </trkpt>
      <trkpt lat="43.51408" lon="2.47147">
        <ele>551.716</ele>
        <time>2021-05-22T13:40:12Z</time>
      </trkpt>
      <trkpt lat="43.51407" lon="2.47145">
        <ele>551.131</ele>
        <time>2021-05-22T13:40:14Z</time>
      </trkpt>
      <trkpt lat="43.51406" lon="2.47145">
        <ele>551.255</ele>
        <time>2021-05-22T13:40:16Z</time>
      </trkpt>
      <trkpt lat="43.51405" lon="2.47143">
        <ele>550.516</ele>
        <time>2021-05-22T13:40:18Z</time>
      </trkpt>
      <trkpt lat="43.51404" lon="2.47142">
        <ele>549.763</ele>
        <time>2021-05-22T13:40:20Z</time>
      </trkpt>
      <trkpt lat="43.51403" lon="2.4714">
        <ele>548.339</ele>
        <time>2021-05-22T13:40:22Z</time>
      </trkpt>
      <trkpt lat="43.51402" lon="2.47138">
        <ele>546.348</ele>
        <time>2021-05-22T13:40:24Z</time>
      </trkpt>
      <trkpt lat="43.51401" lon="2.47138">
        <ele>547.271</ele>
        <time>2021-05-22T13:40:26Z</time>
      </trkpt>
      <trkpt lat="43.51399" lon="2.47139">
        <ele>548.307</ele>
        <time>2021-05-22T13:40:28Z</time>
      </trkpt>
      <trkpt lat="43.51398" lon="2.47141">
        <ele>549.594</ele>
        <time>2021-05-22T13:40:30Z</time>
      </trkpt>
      <trkpt lat="43.51398" lon="2.47142">
        <ele>549.36</ele>
        <time>2021-05-22T13:40:32Z</time>
      </trkpt>
      <trkpt lat="43.51397" lon="2.47143">
        <ele>549.887</ele>
        <time>2021-05-22T13:40:34Z</time>
      </trkpt>
      <trkpt lat="43.51396" lon="2.47143">
        <ele>548.58</ele>
        <time>2021-05-22T13:40:36Z</time>
      </trkpt>
      <trkpt lat="43.51395" lon="2.47143">
        <ele>548.33</ele>
        <time>2021-05-22T13:40:38Z</time>
      </trkpt>
      <trkpt lat="43.51394" lon="2.47144">
        <ele>547.489</ele>
        <time>2021-05-22T13:40:40Z</time>
      </trkpt>
      <trkpt lat="43.51393" lon="2.47145">
        <ele>546.831</ele>
        <time>2021-05-22T13:40:42Z</time>
      </trkpt>
      <trkpt lat="43.51392" lon="2.47144">
        <ele>546.932</ele>
        <time>2021-05-22T13:40:44Z</time>
      </trkpt>
      <trkpt lat="43.51391" lon="2.47144">
        <ele>547.316</ele>
        <time>2021-05-22T13:40:46Z</time>
      </trkpt>
      <trkpt lat="43.5139" lon="2.47144">
        <ele>548.51</ele>
        <time>2021-05-22T13:40:48Z</time>
      </trkpt>
      <trkpt lat="43.51389" lon="2.47146">
        <ele>547.172</ele>
        <time>2021-05-22T13:40:50Z</time>
      </trkpt>
      <trkpt lat="43.51387" lon="2.47146">
        <ele>546.703</ele>
        <time>2021-05-22T13:40:52Z</time>
      </trkpt>
      <trkpt lat="43.51386" lon="2.47146">
        <ele>545.561</ele>
        <time>2021-05-22T13:40:54Z</time>
      </trkpt>
      <trkpt lat="43.51385" lon="2.47146">
        <ele>545.702</ele>
        <time>2021-05-22T13:40:56Z</time>
      </trkpt>
      <trkpt lat="43.51385" lon="2.47145">
        <ele>545.655</ele>
        <time>2021-05-22T13:40:58Z</time>
      </trkpt>
      <trkpt lat="43.51384" lon="2.47144">
        <ele>545.052</ele>
        <time>2021-05-22T13:41:00Z</time>
      </trkpt>
      <trkpt lat="43.51384" lon="2.47144">
        <ele>545.049</ele>
        <time>2021-05-22T13:41:02Z</time>
      </trkpt>
      <trkpt lat="43.51384" lon="2.47144">
        <ele>545.058</ele>
        <time>2021-05-22T13:41:04Z</time>
      </trkpt>
      <trkpt lat="43.51384" lon="2.47144">
        <ele>545.077</ele>
        <time>2021-05-22T13:41:06Z</time>
      </trkpt>
      <trkpt lat="43.51384" lon="2.47144">
        <ele>545.082</ele>
        <time>2021-05-22T13:41:08Z</time>
      </trkpt>
      <trkpt lat="43.51384" lon="2.47144">
        <ele>545.084</ele>
        <time>2021-05-22T13:41:10Z</time>
      </trkpt>
      <trkpt lat="43.51384" lon="2.47144">
        <ele>545.09</ele>
        <time>2021-05-22T13:41:12Z</time>
      </trkpt>
      <trkpt lat="43.51384" lon="2.47144">
        <ele>545.087</ele>
        <time>2021-05-22T13:41:14Z</time>
      </trkpt>
      <trkpt lat="43.51384" lon="2.47144">
        <ele>545.091</ele>
        <time>2021-05-22T13:41:16Z</time>
      </trkpt>
      <trkpt lat="43.51384" lon="2.47144">
        <ele>545.134</ele>
        <time>2021-05-22T13:41:18Z</time>
      </trkpt>
      <trkpt lat="43.51384" lon="2.47144">
        <ele>545.134</ele>
        <time>2021-05-22T13:41:20Z</time>
      </trkpt>
      <trkpt lat="43.51384" lon="2.47144">
        <ele>545.139</ele>
        <time>2021-05-22T13:41:22Z</time>
      </trkpt>
      <trkpt lat="43.51384" lon="2.47144">
        <ele>545.155</ele>
        <time>2021-05-22T13:41:24Z</time>
      </trkpt>
      <trkpt lat="43.51384" lon="2.47144">
        <ele>545.156</ele>
        <time>2021-05-22T13:41:26Z</time>
      </trkpt>
      <trkpt lat="43.51384" lon="2.47144">
        <ele>545.152</ele>
        <time>2021-05-22T13:41:28Z</time>
      </trkpt>
      <trkpt lat="43.51384" lon="2.47144">
        <ele>545.191</ele>
        <time>2021-05-22T13:41:30Z</time>
      </trkpt>
      <trkpt lat="43.51384" lon="2.47144">
        <ele>545.041</ele>
        <time>2021-05-22T13:41:32Z</time>
      </trkpt>
      <trkpt lat="43.51383" lon="2.47144">
        <ele>544.343</ele>
        <time>2021-05-22T13:41:34Z</time>
      </trkpt>
      <trkpt lat="43.51383" lon="2.47143">
        <ele>544.397</ele>
        <time>2021-05-22T13:41:36Z</time>
      </trkpt>
      <trkpt lat="43.51383" lon="2.47143">
        <ele>544.399</ele>
        <time>2021-05-22T13:41:38Z</time>
      </trkpt>
      <trkpt lat="43.51383" lon="2.47143">
        <ele>544.393</ele>
        <time>2021-05-22T13:41:40Z</time>
      </trkpt>
      <trkpt lat="43.51383" lon="2.47143">
        <ele>544.389</ele>
        <time>2021-05-22T13:41:42Z</time>
      </trkpt>
      <trkpt lat="43.51383" lon="2.47143">
        <ele>544.382</ele>
        <time>2021-05-22T13:41:44Z</time>
      </trkpt>
      <trkpt lat="43.51383" lon="2.47143">
        <ele>544.38</ele>
        <time>2021-05-22T13:41:46Z</time>
      </trkpt>
      <trkpt lat="43.51383" lon="2.47143">
        <ele>544.377</ele>
        <time>2021-05-22T13:41:48Z</time>
      </trkpt>
      <trkpt lat="43.51383" lon="2.47143">
        <ele>544.375</ele>
        <time>2021-05-22T13:41:50Z</time>
      </trkpt>
      <trkpt lat="43.51383" lon="2.47143">
        <ele>544.262</ele>
        <time>2021-05-22T13:41:52Z</time>
      </trkpt>
      <trkpt lat="43.51383" lon="2.47142">
        <ele>542.09</ele>
        <time>2021-05-22T13:41:54Z</time>
      </trkpt>
      <trkpt lat="43.51382" lon="2.4714">
        <ele>541.679</ele>
        <time>2021-05-22T13:41:56Z</time>
      </trkpt>
      <trkpt lat="43.51381" lon="2.47139">
        <ele>541.005</ele>
        <time>2021-05-22T13:41:58Z</time>
      </trkpt>
      <trkpt lat="43.51381" lon="2.47138">
        <ele>540.282</ele>
        <time>2021-05-22T13:42:00Z</time>
      </trkpt>
      <trkpt lat="43.5138" lon="2.47136">
        <ele>540.112</ele>
        <time>2021-05-22T13:42:02Z</time>
      </trkpt>
      <trkpt lat="43.51379" lon="2.47135">
        <ele>542.148</ele>
        <time>2021-05-22T13:42:04Z</time>
      </trkpt>
      <trkpt lat="43.51378" lon="2.47134">
        <ele>542.043</ele>
        <time>2021-05-22T13:42:06Z</time>
      </trkpt>
      <trkpt lat="43.51378" lon="2.47134">
        <ele>542.272</ele>
        <time>2021-05-22T13:42:08Z</time>
      </trkpt>
      <trkpt lat="43.51378" lon="2.47134">
        <ele>542.444</ele>
        <time>2021-05-22T13:42:10Z</time>
      </trkpt>
      <trkpt lat="43.51378" lon="2.47133">
        <ele>542.998</ele>
        <time>2021-05-22T13:42:12Z</time>
      </trkpt>
      <trkpt lat="43.51376" lon="2.47131">
        <ele>543.589</ele>
        <time>2021-05-22T13:42:14Z</time>
      </trkpt>
      <trkpt lat="43.51375" lon="2.47129">
        <ele>545.499</ele>
        <time>2021-05-22T13:42:16Z</time>
      </trkpt>
      <trkpt lat="43.51376" lon="2.47129">
        <ele>542.027</ele>
        <time>2021-05-22T13:42:18Z</time>
      </trkpt>
      <trkpt lat="43.51376" lon="2.47128">
        <ele>543.107</ele>
        <time>2021-05-22T13:42:20Z</time>
      </trkpt>
      <trkpt lat="43.51375" lon="2.47128">
        <ele>544.693</ele>
        <time>2021-05-22T13:42:22Z</time>
      </trkpt>
      <trkpt lat="43.51373" lon="2.47127">
        <ele>545.787</ele>
        <time>2021-05-22T13:42:24Z</time>
      </trkpt>
      <trkpt lat="43.51373" lon="2.47127">
        <ele>545.79</ele>
        <time>2021-05-22T13:42:26Z</time>
      </trkpt>
      <trkpt lat="43.51373" lon="2.47127">
        <ele>545.789</ele>
        <time>2021-05-22T13:42:28Z</time>
      </trkpt>
      <trkpt lat="43.51373" lon="2.47127">
        <ele>545.796</ele>
        <time>2021-05-22T13:42:30Z</time>
      </trkpt>
      <trkpt lat="43.51373" lon="2.47127">
        <ele>545.791</ele>
        <time>2021-05-22T13:42:32Z</time>
      </trkpt>
      <trkpt lat="43.51373" lon="2.47127">
        <ele>545.78</ele>
        <time>2021-05-22T13:42:34Z</time>
      </trkpt>
      <trkpt lat="43.51373" lon="2.47127">
        <ele>546.067</ele>
        <time>2021-05-22T13:42:36Z</time>
      </trkpt>
      <trkpt lat="43.51373" lon="2.47127">
        <ele>546.07</ele>
        <time>2021-05-22T13:42:38Z</time>
      </trkpt>
      <trkpt lat="43.51373" lon="2.47127">
        <ele>546.075</ele>
        <time>2021-05-22T13:42:40Z</time>
      </trkpt>
      <trkpt lat="43.51374" lon="2.47127">
        <ele>546.296</ele>
        <time>2021-05-22T13:42:42Z</time>
      </trkpt>
      <trkpt lat="43.51375" lon="2.47126">
        <ele>545.846</ele>
        <time>2021-05-22T13:42:44Z</time>
      </trkpt>
      <trkpt lat="43.51376" lon="2.47127">
        <ele>546.08</ele>
        <time>2021-05-22T13:42:46Z</time>
      </trkpt>
      <trkpt lat="43.51376" lon="2.47127">
        <ele>546.229</ele>
        <time>2021-05-22T13:42:48Z</time>
      </trkpt>
      <trkpt lat="43.51376" lon="2.47126">
        <ele>546.535</ele>
        <time>2021-05-22T13:42:50Z</time>
      </trkpt>
      <trkpt lat="43.51376" lon="2.47126">
        <ele>545.788</ele>
        <time>2021-05-22T13:42:52Z</time>
      </trkpt>
      <trkpt lat="43.51377" lon="2.47125">
        <ele>545.006</ele>
        <time>2021-05-22T13:42:54Z</time>
      </trkpt>
      <trkpt lat="43.51378" lon="2.47123">
        <ele>544.264</ele>
        <time>2021-05-22T13:42:56Z</time>
      </trkpt>
      <trkpt lat="43.51379" lon="2.47122">
        <ele>545.101</ele>
        <time>2021-05-22T13:42:58Z</time>
      </trkpt>
      <trkpt lat="43.51379" lon="2.47121">
        <ele>546.317</ele>
        <time>2021-05-22T13:43:00Z</time>
      </trkpt>
      <trkpt lat="43.51379" lon="2.47119">
        <ele>546.047</ele>
        <time>2021-05-22T13:43:02Z</time>
      </trkpt>
      <trkpt lat="43.51379" lon="2.47119">
        <ele>546.446</ele>
        <time>2021-05-22T13:43:04Z</time>
      </trkpt>
      <trkpt lat="43.51379" lon="2.47116">
        <ele>547.434</ele>
        <time>2021-05-22T13:43:06Z</time>
      </trkpt>
      <trkpt lat="43.51378" lon="2.47114">
        <ele>547.552</ele>
        <time>2021-05-22T13:43:08Z</time>
      </trkpt>
      <trkpt lat="43.51378" lon="2.47112">
        <ele>547.996</ele>
        <time>2021-05-22T13:43:10Z</time>
      </trkpt>
      <trkpt lat="43.51377" lon="2.47111">
        <ele>546.483</ele>
        <time>2021-05-22T13:43:12Z</time>
      </trkpt>
      <trkpt lat="43.51377" lon="2.47109">
        <ele>546.363</ele>
        <time>2021-05-22T13:43:14Z</time>
      </trkpt>
      <trkpt lat="43.51377" lon="2.47107">
        <ele>545.708</ele>
        <time>2021-05-22T13:43:16Z</time>
      </trkpt>
      <trkpt lat="43.51378" lon="2.47105">
        <ele>545.56</ele>
        <time>2021-05-22T13:43:18Z</time>
      </trkpt>
      <trkpt lat="43.51378" lon="2.47106">
        <ele>544.084</ele>
        <time>2021-05-22T13:43:20Z</time>
      </trkpt>
      <trkpt lat="43.51378" lon="2.47105">
        <ele>543.646</ele>
        <time>2021-05-22T13:43:22Z</time>
      </trkpt>
      <trkpt lat="43.51378" lon="2.47104">
        <ele>541.97</ele>
        <time>2021-05-22T13:43:24Z</time>
      </trkpt>
      <trkpt lat="43.51377" lon="2.47103">
        <ele>542.28</ele>
        <time>2021-05-22T13:43:26Z</time>
      </trkpt>
      <trkpt lat="43.51377" lon="2.47102">
        <ele>541.615</ele>
        <time>2021-05-22T13:43:28Z</time>
      </trkpt>
      <trkpt lat="43.51378" lon="2.47101">
        <ele>541.937</ele>
        <time>2021-05-22T13:43:30Z</time>
      </trkpt>
      <trkpt lat="43.51378" lon="2.471">
        <ele>542.089</ele>
        <time>2021-05-22T13:43:32Z</time>
      </trkpt>
      <trkpt lat="43.51378" lon="2.47097">
        <ele>541.801</ele>
        <time>2021-05-22T13:43:34Z</time>
      </trkpt>
      <trkpt lat="43.51378" lon="2.47098">
        <ele>541.377</ele>
        <time>2021-05-22T13:43:36Z</time>
      </trkpt>
      <trkpt lat="43.51378" lon="2.47098">
        <ele>541.369</ele>
        <time>2021-05-22T13:43:38Z</time>
      </trkpt>
      <trkpt lat="43.51378" lon="2.47098">
        <ele>541.374</ele>
        <time>2021-05-22T13:43:40Z</time>
      </trkpt>
      <trkpt lat="43.51379" lon="2.47098">
        <ele>541.121</ele>
        <time>2021-05-22T13:43:42Z</time>
      </trkpt>
      <trkpt lat="43.51379" lon="2.47098">
        <ele>541.121</ele>
        <time>2021-05-22T13:43:44Z</time>
      </trkpt>
      <trkpt lat="43.51379" lon="2.47097">
        <ele>540.696</ele>
        <time>2021-05-22T13:43:46Z</time>
      </trkpt>
      <trkpt lat="43.51379" lon="2.47096">
        <ele>540.672</ele>
        <time>2021-05-22T13:43:48Z</time>
      </trkpt>
      <trkpt lat="43.51379" lon="2.47096">
        <ele>540.671</ele>
        <time>2021-05-22T13:43:50Z</time>
      </trkpt>
      <trkpt lat="43.51379" lon="2.47096">
        <ele>540.665</ele>
        <time>2021-05-22T13:43:52Z</time>
      </trkpt>
      <trkpt lat="43.51379" lon="2.47096">
        <ele>540.665</ele>
        <time>2021-05-22T13:43:54Z</time>
      </trkpt>
      <trkpt lat="43.51379" lon="2.47096">
        <ele>540.661</ele>
        <time>2021-05-22T13:43:56Z</time>
      </trkpt>
      <trkpt lat="43.51379" lon="2.47096">
        <ele>540.519</ele>
        <time>2021-05-22T13:43:58Z</time>
      </trkpt>
      <trkpt lat="43.5138" lon="2.47096">
        <ele>541.207</ele>
        <time>2021-05-22T13:44:00Z</time>
      </trkpt>
      <trkpt lat="43.51379" lon="2.47096">
        <ele>541.398</ele>
        <time>2021-05-22T13:44:02Z</time>
      </trkpt>
      <trkpt lat="43.51379" lon="2.47097">
        <ele>541.388</ele>
        <time>2021-05-22T13:44:04Z</time>
      </trkpt>
      <trkpt lat="43.51379" lon="2.47096">
        <ele>539.784</ele>
        <time>2021-05-22T13:44:06Z</time>
      </trkpt>
      <trkpt lat="43.51379" lon="2.47096">
        <ele>539.021</ele>
        <time>2021-05-22T13:44:08Z</time>
      </trkpt>
      <trkpt lat="43.51377" lon="2.47093">
        <ele>539.341</ele>
        <time>2021-05-22T13:44:10Z</time>
      </trkpt>
      <trkpt lat="43.51376" lon="2.47093">
        <ele>539.547</ele>
        <time>2021-05-22T13:44:12Z</time>
      </trkpt>
      <trkpt lat="43.51375" lon="2.47093">
        <ele>539.284</ele>
        <time>2021-05-22T13:44:14Z</time>
      </trkpt>
      <trkpt lat="43.51375" lon="2.47093">
        <ele>539.287</ele>
        <time>2021-05-22T13:44:16Z</time>
      </trkpt>
      <trkpt lat="43.51375" lon="2.47093">
        <ele>539.29</ele>
        <time>2021-05-22T13:44:18Z</time>
      </trkpt>
      <trkpt lat="43.51375" lon="2.47093">
        <ele>539.364</ele>
        <time>2021-05-22T13:44:20Z</time>
      </trkpt>
      <trkpt lat="43.51374" lon="2.47093">
        <ele>538.414</ele>
        <time>2021-05-22T13:44:22Z</time>
      </trkpt>
      <trkpt lat="43.51373" lon="2.47092">
        <ele>537.7</ele>
        <time>2021-05-22T13:44:24Z</time>
      </trkpt>
      <trkpt lat="43.51372" lon="2.47091">
        <ele>536.936</ele>
        <time>2021-05-22T13:44:26Z</time>
      </trkpt>
      <trkpt lat="43.51371" lon="2.47091">
        <ele>537.429</ele>
        <time>2021-05-22T13:44:28Z</time>
      </trkpt>
      <trkpt lat="43.5137" lon="2.4709">
        <ele>537.645</ele>
        <time>2021-05-22T13:44:30Z</time>
      </trkpt>
      <trkpt lat="43.51369" lon="2.4709">
        <ele>538.063</ele>
        <time>2021-05-22T13:44:32Z</time>
      </trkpt>
      <trkpt lat="43.51368" lon="2.4709">
        <ele>538.149</ele>
        <time>2021-05-22T13:44:34Z</time>
      </trkpt>
      <trkpt lat="43.51366" lon="2.47089">
        <ele>538.782</ele>
        <time>2021-05-22T13:44:36Z</time>
      </trkpt>
      <trkpt lat="43.51365" lon="2.47089">
        <ele>539.29</ele>
        <time>2021-05-22T13:44:38Z</time>
      </trkpt>
      <trkpt lat="43.51364" lon="2.47088">
        <ele>539.778</ele>
        <time>2021-05-22T13:44:40Z</time>
      </trkpt>
      <trkpt lat="43.51362" lon="2.47086">
        <ele>540.198</ele>
        <time>2021-05-22T13:44:42Z</time>
      </trkpt>
      <trkpt lat="43.5136" lon="2.47085">
        <ele>540.777</ele>
        <time>2021-05-22T13:44:44Z</time>
      </trkpt>
      <trkpt lat="43.51359" lon="2.47084">
        <ele>541.725</ele>
        <time>2021-05-22T13:44:46Z</time>
      </trkpt>
      <trkpt lat="43.5136" lon="2.47084">
        <ele>541.722</ele>
        <time>2021-05-22T13:44:48Z</time>
      </trkpt>
      <trkpt lat="43.5136" lon="2.47084">
        <ele>541.798</ele>
        <time>2021-05-22T13:44:50Z</time>
      </trkpt>
      <trkpt lat="43.51359" lon="2.47083">
        <ele>541.288</ele>
        <time>2021-05-22T13:44:52Z</time>
      </trkpt>
      <trkpt lat="43.51359" lon="2.47083">
        <ele>541.182</ele>
        <time>2021-05-22T13:44:54Z</time>
      </trkpt>
      <trkpt lat="43.51359" lon="2.47083">
        <ele>541.177</ele>
        <time>2021-05-22T13:44:56Z</time>
      </trkpt>
      <trkpt lat="43.51359" lon="2.47083">
        <ele>541.176</ele>
        <time>2021-05-22T13:44:58Z</time>
      </trkpt>
      <trkpt lat="43.51359" lon="2.47083">
        <ele>541.15</ele>
        <time>2021-05-22T13:45:00Z</time>
      </trkpt>
      <trkpt lat="43.51358" lon="2.47083">
        <ele>540.334</ele>
        <time>2021-05-22T13:45:02Z</time>
      </trkpt>
      <trkpt lat="43.51358" lon="2.47083">
        <ele>540.212</ele>
        <time>2021-05-22T13:45:04Z</time>
      </trkpt>
      <trkpt lat="43.51358" lon="2.47083">
        <ele>539.898</ele>
        <time>2021-05-22T13:45:06Z</time>
      </trkpt>
      <trkpt lat="43.51357" lon="2.47083">
        <ele>540.025</ele>
        <time>2021-05-22T13:45:08Z</time>
      </trkpt>
      <trkpt lat="43.51355" lon="2.47082">
        <ele>539.909</ele>
        <time>2021-05-22T13:45:10Z</time>
      </trkpt>
      <trkpt lat="43.51355" lon="2.47081">
        <ele>538.819</ele>
        <time>2021-05-22T13:45:12Z</time>
      </trkpt>
      <trkpt lat="43.51355" lon="2.4708">
        <ele>538.43</ele>
        <time>2021-05-22T13:45:14Z</time>
      </trkpt>
      <trkpt lat="43.51354" lon="2.47079">
        <ele>537.806</ele>
        <time>2021-05-22T13:45:16Z</time>
      </trkpt>
      <trkpt lat="43.51353" lon="2.4708">
        <ele>537.932</ele>
        <time>2021-05-22T13:45:18Z</time>
      </trkpt>
      <trkpt lat="43.51352" lon="2.47082">
        <ele>537.911</ele>
        <time>2021-05-22T13:45:20Z</time>
      </trkpt>
      <trkpt lat="43.5135" lon="2.47083">
        <ele>537.803</ele>
        <time>2021-05-22T13:45:22Z</time>
      </trkpt>
      <trkpt lat="43.51348" lon="2.47084">
        <ele>538.903</ele>
        <time>2021-05-22T13:45:24Z</time>
      </trkpt>
      <trkpt lat="43.51348" lon="2.47085">
        <ele>538.263</ele>
        <time>2021-05-22T13:45:26Z</time>
      </trkpt>
      <trkpt lat="43.51348" lon="2.47085">
        <ele>538.84</ele>
        <time>2021-05-22T13:45:28Z</time>
      </trkpt>
      <trkpt lat="43.51348" lon="2.47086">
        <ele>540.105</ele>
        <time>2021-05-22T13:45:30Z</time>
      </trkpt>
      <trkpt lat="43.51348" lon="2.47086">
        <ele>540.449</ele>
        <time>2021-05-22T13:45:32Z</time>
      </trkpt>
      <trkpt lat="43.51347" lon="2.47086">
        <ele>540.458</ele>
        <time>2021-05-22T13:45:34Z</time>
      </trkpt>
      <trkpt lat="43.51348" lon="2.47086">
        <ele>541.018</ele>
        <time>2021-05-22T13:45:36Z</time>
      </trkpt>
      <trkpt lat="43.51348" lon="2.47086">
        <ele>541.028</ele>
        <time>2021-05-22T13:45:38Z</time>
      </trkpt>
      <trkpt lat="43.51348" lon="2.47086">
        <ele>541.412</ele>
        <time>2021-05-22T13:45:40Z</time>
      </trkpt>
      <trkpt lat="43.51348" lon="2.47086">
        <ele>541.4</ele>
        <time>2021-05-22T13:45:42Z</time>
      </trkpt>
      <trkpt lat="43.51349" lon="2.47088">
        <ele>540.959</ele>
        <time>2021-05-22T13:45:49Z</time>
      </trkpt>
      <trkpt lat="43.51349" lon="2.47087">
        <ele>541.518</ele>
        <time>2021-05-22T13:45:51Z</time>
      </trkpt>
      <trkpt lat="43.51349" lon="2.47087">
        <ele>540.656</ele>
        <time>2021-05-22T13:45:53Z</time>
      </trkpt>
      <trkpt lat="43.5135" lon="2.47087">
        <ele>540.357</ele>
        <time>2021-05-22T13:45:55Z</time>
      </trkpt>
      <trkpt lat="43.5135" lon="2.47087">
        <ele>540.233</ele>
        <time>2021-05-22T13:45:57Z</time>
      </trkpt>
      <trkpt lat="43.5135" lon="2.47087">
        <ele>540.233</ele>
        <time>2021-05-22T13:45:59Z</time>
      </trkpt>
      <trkpt lat="43.5135" lon="2.47087">
        <ele>540.235</ele>
        <time>2021-05-22T13:46:01Z</time>
      </trkpt>
      <trkpt lat="43.5135" lon="2.47087">
        <ele>540.285</ele>
        <time>2021-05-22T13:46:03Z</time>
      </trkpt>
      <trkpt lat="43.5135" lon="2.47085">
        <ele>540.358</ele>
        <time>2021-05-22T13:46:05Z</time>
      </trkpt>
      <trkpt lat="43.5135" lon="2.47085">
        <ele>540.276</ele>
        <time>2021-05-22T13:46:07Z</time>
      </trkpt>
      <trkpt lat="43.5135" lon="2.47085">
        <ele>540.269</ele>
        <time>2021-05-22T13:46:09Z</time>
      </trkpt>
      <trkpt lat="43.5135" lon="2.47085">
        <ele>540.265</ele>
        <time>2021-05-22T13:46:11Z</time>
      </trkpt>
      <trkpt lat="43.5135" lon="2.47085">
        <ele>540.277</ele>
        <time>2021-05-22T13:46:13Z</time>
      </trkpt>
      <trkpt lat="43.5135" lon="2.47085">
        <ele>540.273</ele>
        <time>2021-05-22T13:46:15Z</time>
      </trkpt>
      <trkpt lat="43.51349" lon="2.47084">
        <ele>540.602</ele>
        <time>2021-05-22T13:46:17Z</time>
      </trkpt>
      <trkpt lat="43.51349" lon="2.47084">
        <ele>540.507</ele>
        <time>2021-05-22T13:46:19Z</time>
      </trkpt>
      <trkpt lat="43.51349" lon="2.47084">
        <ele>540.508</ele>
        <time>2021-05-22T13:46:21Z</time>
      </trkpt>
      <trkpt lat="43.51349" lon="2.47084">
        <ele>540.509</ele>
        <time>2021-05-22T13:46:23Z</time>
      </trkpt>
      <trkpt lat="43.51349" lon="2.47084">
        <ele>540.308</ele>
        <time>2021-05-22T13:46:25Z</time>
      </trkpt>
      <trkpt lat="43.51348" lon="2.47084">
        <ele>540.058</ele>
        <time>2021-05-22T13:46:27Z</time>
      </trkpt>
      <trkpt lat="43.51348" lon="2.47084">
        <ele>540.055</ele>
        <time>2021-05-22T13:46:29Z</time>
      </trkpt>
      <trkpt lat="43.51348" lon="2.47084">
        <ele>540.051</ele>
        <time>2021-05-22T13:46:31Z</time>
      </trkpt>
      <trkpt lat="43.51348" lon="2.47084">
        <ele>540.048</ele>
        <time>2021-05-22T13:46:33Z</time>
      </trkpt>
      <trkpt lat="43.51348" lon="2.47084">
        <ele>540.042</ele>
        <time>2021-05-22T13:46:35Z</time>
      </trkpt>
      <trkpt lat="43.51348" lon="2.47084">
        <ele>540.042</ele>
        <time>2021-05-22T13:46:37Z</time>
      </trkpt>
      <trkpt lat="43.51348" lon="2.47084">
        <ele>540.029</ele>
        <time>2021-05-22T13:46:39Z</time>
      </trkpt>
      <trkpt lat="43.51348" lon="2.47084">
        <ele>540.033</ele>
        <time>2021-05-22T13:46:41Z</time>
      </trkpt>
      <trkpt lat="43.51348" lon="2.47084">
        <ele>540.046</ele>
        <time>2021-05-22T13:46:43Z</time>
      </trkpt>
      <trkpt lat="43.51348" lon="2.47083">
        <ele>540.323</ele>
        <time>2021-05-22T13:46:45Z</time>
      </trkpt>
      <trkpt lat="43.51348" lon="2.47083">
        <ele>540.207</ele>
        <time>2021-05-22T13:46:47Z</time>
      </trkpt>
      <trkpt lat="43.51348" lon="2.47083">
        <ele>540.105</ele>
        <time>2021-05-22T13:46:49Z</time>
      </trkpt>
      <trkpt lat="43.51348" lon="2.47081">
        <ele>539.922</ele>
        <time>2021-05-22T13:46:51Z</time>
      </trkpt>
      <trkpt lat="43.51348" lon="2.4708">
        <ele>539.291</ele>
        <time>2021-05-22T13:46:53Z</time>
      </trkpt>
      <trkpt lat="43.51347" lon="2.47078">
        <ele>539.337</ele>
        <time>2021-05-22T13:46:55Z</time>
      </trkpt>
      <trkpt lat="43.51345" lon="2.47076">
        <ele>539.353</ele>
        <time>2021-05-22T13:46:57Z</time>
      </trkpt>
      <trkpt lat="43.51344" lon="2.47075">
        <ele>539.316</ele>
        <time>2021-05-22T13:46:59Z</time>
      </trkpt>
      <trkpt lat="43.51343" lon="2.47074">
        <ele>539.405</ele>
        <time>2021-05-22T13:47:01Z</time>
      </trkpt>
      <trkpt lat="43.51342" lon="2.47074">
        <ele>539.444</ele>
        <time>2021-05-22T13:47:03Z</time>
      </trkpt>
      <trkpt lat="43.51341" lon="2.47074">
        <ele>539.417</ele>
        <time>2021-05-22T13:47:05Z</time>
      </trkpt>
      <trkpt lat="43.51341" lon="2.47074">
        <ele>539.92</ele>
        <time>2021-05-22T13:47:07Z</time>
      </trkpt>
      <trkpt lat="43.51341" lon="2.47075">
        <ele>540.011</ele>
        <time>2021-05-22T13:47:09Z</time>
      </trkpt>
      <trkpt lat="43.5134" lon="2.47075">
        <ele>540.482</ele>
        <time>2021-05-22T13:47:11Z</time>
      </trkpt>
      <trkpt lat="43.5134" lon="2.47075">
        <ele>540.49</ele>
        <time>2021-05-22T13:47:13Z</time>
      </trkpt>
      <trkpt lat="43.5134" lon="2.47075">
        <ele>540.556</ele>
        <time>2021-05-22T13:47:15Z</time>
      </trkpt>
      <trkpt lat="43.5134" lon="2.47075">
        <ele>540.449</ele>
        <time>2021-05-22T13:47:17Z</time>
      </trkpt>
      <trkpt lat="43.5134" lon="2.47075">
        <ele>540.446</ele>
        <time>2021-05-22T13:47:19Z</time>
      </trkpt>
      <trkpt lat="43.5134" lon="2.47075">
        <ele>540.447</ele>
        <time>2021-05-22T13:47:21Z</time>
      </trkpt>
      <trkpt lat="43.5134" lon="2.47075">
        <ele>540.432</ele>
        <time>2021-05-22T13:47:23Z</time>
      </trkpt>
      <trkpt lat="43.5134" lon="2.47075">
        <ele>540.111</ele>
        <time>2021-05-22T13:47:25Z</time>
      </trkpt>
      <trkpt lat="43.5134" lon="2.47075">
        <ele>540.115</ele>
        <time>2021-05-22T13:47:27Z</time>
      </trkpt>
      <trkpt lat="43.5134" lon="2.47075">
        <ele>540.136</ele>
        <time>2021-05-22T13:47:29Z</time>
      </trkpt>
      <trkpt lat="43.5134" lon="2.47075">
        <ele>540.134</ele>
        <time>2021-05-22T13:47:31Z</time>
      </trkpt>
      <trkpt lat="43.5134" lon="2.47075">
        <ele>540.364</ele>
        <time>2021-05-22T13:47:33Z</time>
      </trkpt>
      <trkpt lat="43.5134" lon="2.47075">
        <ele>540.366</ele>
        <time>2021-05-22T13:47:35Z</time>
      </trkpt>
      <trkpt lat="43.5134" lon="2.47075">
        <ele>540.285</ele>
        <time>2021-05-22T13:47:37Z</time>
      </trkpt>
      <trkpt lat="43.5134" lon="2.47075">
        <ele>540.292</ele>
        <time>2021-05-22T13:47:39Z</time>
      </trkpt>
      <trkpt lat="43.5134" lon="2.47075">
        <ele>540.3</ele>
        <time>2021-05-22T13:47:41Z</time>
      </trkpt>
      <trkpt lat="43.5134" lon="2.47075">
        <ele>540.298</ele>
        <time>2021-05-22T13:47:43Z</time>
      </trkpt>
      <trkpt lat="43.5134" lon="2.47075">
        <ele>540.297</ele>
        <time>2021-05-22T13:47:45Z</time>
      </trkpt>
      <trkpt lat="43.5134" lon="2.47075">
        <ele>540.295</ele>
        <time>2021-05-22T13:47:47Z</time>
      </trkpt>
      <trkpt lat="43.5134" lon="2.47075">
        <ele>540.289</ele>
        <time>2021-05-22T13:47:49Z</time>
      </trkpt>
      <trkpt lat="43.5134" lon="2.47075">
        <ele>540.283</ele>
        <time>2021-05-22T13:47:51Z</time>
      </trkpt>
      <trkpt lat="43.5134" lon="2.47075">
        <ele>540.277</ele>
        <time>2021-05-22T13:47:53Z</time>
      </trkpt>
      <trkpt lat="43.5134" lon="2.47075">
        <ele>540.274</ele>
        <time>2021-05-22T13:47:55Z</time>
      </trkpt>
      <trkpt lat="43.5134" lon="2.47075">
        <ele>540.272</ele>
        <time>2021-05-22T13:47:57Z</time>
      </trkpt>
      <trkpt lat="43.5134" lon="2.47075">
        <ele>540.278</ele>
        <time>2021-05-22T13:47:59Z</time>
      </trkpt>
      <trkpt lat="43.5134" lon="2.47075">
        <ele>540.28</ele>
        <time>2021-05-22T13:48:01Z</time>
      </trkpt>
      <trkpt lat="43.5134" lon="2.47075">
        <ele>540.343</ele>
        <time>2021-05-22T13:48:03Z</time>
      </trkpt>
      <trkpt lat="43.5134" lon="2.47075">
        <ele>540.247</ele>
        <time>2021-05-22T13:48:05Z</time>
      </trkpt>
      <trkpt lat="43.5134" lon="2.47074">
        <ele>539.657</ele>
        <time>2021-05-22T13:48:07Z</time>
      </trkpt>
      <trkpt lat="43.5134" lon="2.47073">
        <ele>539.447</ele>
        <time>2021-05-22T13:48:09Z</time>
      </trkpt>
      <trkpt lat="43.5134" lon="2.47072">
        <ele>539.406</ele>
        <time>2021-05-22T13:48:11Z</time>
      </trkpt>
      <trkpt lat="43.5134" lon="2.47072">
        <ele>539.399</ele>
        <time>2021-05-22T13:48:13Z</time>
      </trkpt>
      <trkpt lat="43.5134" lon="2.47072">
        <ele>539.392</ele>
        <time>2021-05-22T13:48:15Z</time>
      </trkpt>
      <trkpt lat="43.5134" lon="2.47072">
        <ele>539.392</ele>
        <time>2021-05-22T13:48:17Z</time>
      </trkpt>
      <trkpt lat="43.5134" lon="2.47072">
        <ele>539.396</ele>
        <time>2021-05-22T13:48:19Z</time>
      </trkpt>
      <trkpt lat="43.5134" lon="2.47072">
        <ele>539.399</ele>
        <time>2021-05-22T13:48:21Z</time>
      </trkpt>
      <trkpt lat="43.5134" lon="2.47072">
        <ele>539.396</ele>
        <time>2021-05-22T13:48:23Z</time>
      </trkpt>
      <trkpt lat="43.5134" lon="2.47072">
        <ele>539.397</ele>
        <time>2021-05-22T13:48:25Z</time>
      </trkpt>
      <trkpt lat="43.5134" lon="2.47072">
        <ele>539.395</ele>
        <time>2021-05-22T13:48:27Z</time>
      </trkpt>
      <trkpt lat="43.5134" lon="2.47072">
        <ele>539.306</ele>
        <time>2021-05-22T13:48:29Z</time>
      </trkpt>
      <trkpt lat="43.5134" lon="2.47072">
        <ele>539.304</ele>
        <time>2021-05-22T13:48:31Z</time>
      </trkpt>
      <trkpt lat="43.5134" lon="2.47072">
        <ele>539.306</ele>
        <time>2021-05-22T13:48:33Z</time>
      </trkpt>
      <trkpt lat="43.5134" lon="2.47072">
        <ele>539.315</ele>
        <time>2021-05-22T13:48:35Z</time>
      </trkpt>
      <trkpt lat="43.5134" lon="2.47072">
        <ele>539.33</ele>
        <time>2021-05-22T13:48:37Z</time>
      </trkpt>
      <trkpt lat="43.5134" lon="2.47073">
        <ele>539.648</ele>
        <time>2021-05-22T13:48:39Z</time>
      </trkpt>
      <trkpt lat="43.51341" lon="2.47074">
        <ele>539.417</ele>
        <time>2021-05-22T13:48:41Z</time>
      </trkpt>
      <trkpt lat="43.51342" lon="2.47074">
        <ele>539.494</ele>
        <time>2021-05-22T13:48:43Z</time>
      </trkpt>
      <trkpt lat="43.51342" lon="2.47074">
        <ele>539.525</ele>
        <time>2021-05-22T13:48:45Z</time>
      </trkpt>
      <trkpt lat="43.51342" lon="2.47074">
        <ele>539.521</ele>
        <time>2021-05-22T13:48:47Z</time>
      </trkpt>
      <trkpt lat="43.51342" lon="2.47074">
        <ele>539.523</ele>
        <time>2021-05-22T13:48:49Z</time>
      </trkpt>
      <trkpt lat="43.51342" lon="2.47074">
        <ele>539.522</ele>
        <time>2021-05-22T13:48:51Z</time>
      </trkpt>
      <trkpt lat="43.51342" lon="2.47074">
        <ele>539.519</ele>
        <time>2021-05-22T13:48:53Z</time>
      </trkpt>
      <trkpt lat="43.51342" lon="2.47074">
        <ele>539.517</ele>
        <time>2021-05-22T13:48:55Z</time>
      </trkpt>
      <trkpt lat="43.51342" lon="2.47074">
        <ele>539.516</ele>
        <time>2021-05-22T13:48:57Z</time>
      </trkpt>
      <trkpt lat="43.51342" lon="2.47074">
        <ele>539.073</ele>
        <time>2021-05-22T13:48:59Z</time>
      </trkpt>
      <trkpt lat="43.51342" lon="2.47073">
        <ele>539.657</ele>
        <time>2021-05-22T13:49:01Z</time>
      </trkpt>
      <trkpt lat="43.51342" lon="2.47073">
        <ele>541.247</ele>
        <time>2021-05-22T13:49:03Z</time>
      </trkpt>
      <trkpt lat="43.51343" lon="2.47073">
        <ele>541.361</ele>
        <time>2021-05-22T13:49:05Z</time>
      </trkpt>
      <trkpt lat="43.51343" lon="2.47073">
        <ele>541.36</ele>
        <time>2021-05-22T13:49:07Z</time>
      </trkpt>
      <trkpt lat="43.51343" lon="2.47073">
        <ele>541.365</ele>
        <time>2021-05-22T13:49:09Z</time>
      </trkpt>
      <trkpt lat="43.51343" lon="2.47073">
        <ele>541.36</ele>
        <time>2021-05-22T13:49:11Z</time>
      </trkpt>
      <trkpt lat="43.51343" lon="2.47073">
        <ele>541.365</ele>
        <time>2021-05-22T13:49:13Z</time>
      </trkpt>
      <trkpt lat="43.51343" lon="2.47073">
        <ele>541.378</ele>
        <time>2021-05-22T13:49:15Z</time>
      </trkpt>
      <trkpt lat="43.51343" lon="2.47073">
        <ele>541.381</ele>
        <time>2021-05-22T13:49:17Z</time>
      </trkpt>
      <trkpt lat="43.51343" lon="2.47073">
        <ele>541.382</ele>
        <time>2021-05-22T13:49:19Z</time>
      </trkpt>
      <trkpt lat="43.51343" lon="2.47073">
        <ele>541.382</ele>
        <time>2021-05-22T13:49:21Z</time>
      </trkpt>
      <trkpt lat="43.51343" lon="2.47073">
        <ele>541.378</ele>
        <time>2021-05-22T13:49:23Z</time>
      </trkpt>
      <trkpt lat="43.51343" lon="2.47073">
        <ele>541.369</ele>
        <time>2021-05-22T13:49:25Z</time>
      </trkpt>
      <trkpt lat="43.51343" lon="2.47073">
        <ele>541.367</ele>
        <time>2021-05-22T13:49:27Z</time>
      </trkpt>
      <trkpt lat="43.51343" lon="2.47073">
        <ele>541.37</ele>
        <time>2021-05-22T13:49:29Z</time>
      </trkpt>
      <trkpt lat="43.51343" lon="2.47073">
        <ele>541.371</ele>
        <time>2021-05-22T13:49:31Z</time>
      </trkpt>
      <trkpt lat="43.51343" lon="2.47073">
        <ele>541.37</ele>
        <time>2021-05-22T13:49:33Z</time>
      </trkpt>
      <trkpt lat="43.51343" lon="2.47073">
        <ele>541.368</ele>
        <time>2021-05-22T13:49:35Z</time>
      </trkpt>
      <trkpt lat="43.51343" lon="2.47073">
        <ele>541.361</ele>
        <time>2021-05-22T13:49:37Z</time>
      </trkpt>
      <trkpt lat="43.51343" lon="2.47073">
        <ele>541.355</ele>
        <time>2021-05-22T13:49:39Z</time>
      </trkpt>
      <trkpt lat="43.51343" lon="2.47073">
        <ele>541.354</ele>
        <time>2021-05-22T13:49:41Z</time>
      </trkpt>
      <trkpt lat="43.51343" lon="2.47073">
        <ele>541.352</ele>
        <time>2021-05-22T13:49:43Z</time>
      </trkpt>
      <trkpt lat="43.51343" lon="2.47073">
        <ele>541.344</ele>
        <time>2021-05-22T13:49:45Z</time>
      </trkpt>
      <trkpt lat="43.51343" lon="2.47073">
        <ele>541.343</ele>
        <time>2021-05-22T13:49:47Z</time>
      </trkpt>
      <trkpt lat="43.51343" lon="2.47073">
        <ele>541.342</ele>
        <time>2021-05-22T13:49:49Z</time>
      </trkpt>
      <trkpt lat="43.51343" lon="2.47073">
        <ele>541.336</ele>
        <time>2021-05-22T13:49:51Z</time>
      </trkpt>
      <trkpt lat="43.51343" lon="2.47073">
        <ele>541.334</ele>
        <time>2021-05-22T13:49:53Z</time>
      </trkpt>
      <trkpt lat="43.51343" lon="2.47073">
        <ele>541.335</ele>
        <time>2021-05-22T13:49:55Z</time>
      </trkpt>
      <trkpt lat="43.51343" lon="2.47073">
        <ele>541.331</ele>
        <time>2021-05-22T13:49:57Z</time>
      </trkpt>
      <trkpt lat="43.51343" lon="2.47073">
        <ele>541.325</ele>
        <time>2021-05-22T13:49:59Z</time>
      </trkpt>
      <trkpt lat="43.51343" lon="2.47073">
        <ele>541.323</ele>
        <time>2021-05-22T13:50:01Z</time>
      </trkpt>
      <trkpt lat="43.51343" lon="2.47073">
        <ele>541.32</ele>
        <time>2021-05-22T13:50:03Z</time>
      </trkpt>
      <trkpt lat="43.51343" lon="2.47073">
        <ele>541.32</ele>
        <time>2021-05-22T13:50:05Z</time>
      </trkpt>
      <trkpt lat="43.51343" lon="2.47073">
        <ele>541.318</ele>
        <time>2021-05-22T13:50:07Z</time>
      </trkpt>
      <trkpt lat="43.51343" lon="2.47073">
        <ele>541.315</ele>
        <time>2021-05-22T13:50:09Z</time>
      </trkpt>
      <trkpt lat="43.51343" lon="2.47073">
        <ele>541.311</ele>
        <time>2021-05-22T13:50:11Z</time>
      </trkpt>
      <trkpt lat="43.51343" lon="2.47073">
        <ele>541.312</ele>
        <time>2021-05-22T13:50:13Z</time>
      </trkpt>
      <trkpt lat="43.51343" lon="2.47073">
        <ele>541.309</ele>
        <time>2021-05-22T13:50:15Z</time>
      </trkpt>
      <trkpt lat="43.51343" lon="2.47073">
        <ele>541.308</ele>
        <time>2021-05-22T13:50:17Z</time>
      </trkpt>
      <trkpt lat="43.51343" lon="2.47073">
        <ele>541.302</ele>
        <time>2021-05-22T13:50:19Z</time>
      </trkpt>
      <trkpt lat="43.51343" lon="2.47073">
        <ele>541.296</ele>
        <time>2021-05-22T13:50:21Z</time>
      </trkpt>
      <trkpt lat="43.51343" lon="2.47073">
        <ele>541.293</ele>
        <time>2021-05-22T13:50:23Z</time>
      </trkpt>
      <trkpt lat="43.51343" lon="2.47073">
        <ele>541.289</ele>
        <time>2021-05-22T13:50:25Z</time>
      </trkpt>
      <trkpt lat="43.51343" lon="2.47073">
        <ele>541.276</ele>
        <time>2021-05-22T13:50:27Z</time>
      </trkpt>
      <trkpt lat="43.51343" lon="2.47073">
        <ele>541.269</ele>
        <time>2021-05-22T13:50:29Z</time>
      </trkpt>
      <trkpt lat="43.51343" lon="2.47073">
        <ele>541.264</ele>
        <time>2021-05-22T13:50:31Z</time>
      </trkpt>
      <trkpt lat="43.51343" lon="2.47073">
        <ele>541.26</ele>
        <time>2021-05-22T13:50:33Z</time>
      </trkpt>
      <trkpt lat="43.51343" lon="2.47073">
        <ele>541.257</ele>
        <time>2021-05-22T13:50:35Z</time>
      </trkpt>
      <trkpt lat="43.51343" lon="2.47073">
        <ele>541.252</ele>
        <time>2021-05-22T13:50:37Z</time>
      </trkpt>
      <trkpt lat="43.51343" lon="2.47073">
        <ele>541.245</ele>
        <time>2021-05-22T13:50:39Z</time>
      </trkpt>
      <trkpt lat="43.51343" lon="2.47073">
        <ele>541.247</ele>
        <time>2021-05-22T13:50:41Z</time>
      </trkpt>
      <trkpt lat="43.51343" lon="2.47073">
        <ele>541.246</ele>
        <time>2021-05-22T13:50:43Z</time>
      </trkpt>
      <trkpt lat="43.51343" lon="2.47073">
        <ele>541.241</ele>
        <time>2021-05-22T13:50:45Z</time>
      </trkpt>
      <trkpt lat="43.51343" lon="2.47073">
        <ele>541.238</ele>
        <time>2021-05-22T13:50:47Z</time>
      </trkpt>
      <trkpt lat="43.51343" lon="2.47073">
        <ele>541.244</ele>
        <time>2021-05-22T13:50:49Z</time>
      </trkpt>
      <trkpt lat="43.51343" lon="2.47073">
        <ele>541.243</ele>
        <time>2021-05-22T13:50:51Z</time>
      </trkpt>
      <trkpt lat="43.51343" lon="2.47073">
        <ele>541.239</ele>
        <time>2021-05-22T13:50:53Z</time>
      </trkpt>
      <trkpt lat="43.51343" lon="2.47073">
        <ele>541.24</ele>
        <time>2021-05-22T13:50:55Z</time>
      </trkpt>
      <trkpt lat="43.51343" lon="2.47073">
        <ele>541.244</ele>
        <time>2021-05-22T13:50:57Z</time>
      </trkpt>
      <trkpt lat="43.51343" lon="2.47073">
        <ele>541.243</ele>
        <time>2021-05-22T13:50:59Z</time>
      </trkpt>
      <trkpt lat="43.51343" lon="2.47073">
        <ele>541.237</ele>
        <time>2021-05-22T13:51:01Z</time>
      </trkpt>
      <trkpt lat="43.51343" lon="2.47073">
        <ele>541.224</ele>
        <time>2021-05-22T13:51:03Z</time>
      </trkpt>
      <trkpt lat="43.51343" lon="2.47073">
        <ele>541.222</ele>
        <time>2021-05-22T13:51:05Z</time>
      </trkpt>
      <trkpt lat="43.51343" lon="2.47073">
        <ele>541.224</ele>
        <time>2021-05-22T13:51:07Z</time>
      </trkpt>
      <trkpt lat="43.51343" lon="2.47073">
        <ele>541.218</ele>
        <time>2021-05-22T13:51:09Z</time>
      </trkpt>
      <trkpt lat="43.51343" lon="2.47073">
        <ele>541.211</ele>
        <time>2021-05-22T13:51:11Z</time>
      </trkpt>
      <trkpt lat="43.51343" lon="2.47073">
        <ele>541.468</ele>
        <time>2021-05-22T13:51:13Z</time>
      </trkpt>
      <trkpt lat="43.51343" lon="2.47073">
        <ele>541.466</ele>
        <time>2021-05-22T13:51:15Z</time>
      </trkpt>
      <trkpt lat="43.51343" lon="2.47073">
        <ele>541.213</ele>
        <time>2021-05-22T13:51:17Z</time>
      </trkpt>
      <trkpt lat="43.51343" lon="2.47074">
        <ele>540.977</ele>
        <time>2021-05-22T13:51:19Z</time>
      </trkpt>
      <trkpt lat="43.51343" lon="2.47074">
        <ele>540.975</ele>
        <time>2021-05-22T13:51:21Z</time>
      </trkpt>
      <trkpt lat="43.51343" lon="2.47074">
        <ele>540.972</ele>
        <time>2021-05-22T13:51:23Z</time>
      </trkpt>
      <trkpt lat="43.51343" lon="2.47074">
        <ele>540.972</ele>
        <time>2021-05-22T13:51:25Z</time>
      </trkpt>
      <trkpt lat="43.51343" lon="2.47074">
        <ele>540.977</ele>
        <time>2021-05-22T13:51:27Z</time>
      </trkpt>
      <trkpt lat="43.51343" lon="2.47074">
        <ele>540.976</ele>
        <time>2021-05-22T13:51:29Z</time>
      </trkpt>
      <trkpt lat="43.51343" lon="2.47074">
        <ele>540.976</ele>
        <time>2021-05-22T13:51:31Z</time>
      </trkpt>
      <trkpt lat="43.51343" lon="2.47074">
        <ele>540.982</ele>
        <time>2021-05-22T13:51:33Z</time>
      </trkpt>
      <trkpt lat="43.51343" lon="2.47074">
        <ele>540.986</ele>
        <time>2021-05-22T13:51:35Z</time>
      </trkpt>
      <trkpt lat="43.51343" lon="2.47074">
        <ele>540.985</ele>
        <time>2021-05-22T13:51:37Z</time>
      </trkpt>
      <trkpt lat="43.51343" lon="2.47074">
        <ele>540.983</ele>
        <time>2021-05-22T13:51:39Z</time>
      </trkpt>
      <trkpt lat="43.51343" lon="2.47074">
        <ele>540.982</ele>
        <time>2021-05-22T13:51:41Z</time>
      </trkpt>
      <trkpt lat="43.51343" lon="2.47074">
        <ele>540.979</ele>
        <time>2021-05-22T13:51:43Z</time>
      </trkpt>
      <trkpt lat="43.51343" lon="2.47074">
        <ele>540.977</ele>
        <time>2021-05-22T13:51:45Z</time>
      </trkpt>
      <trkpt lat="43.51343" lon="2.47074">
        <ele>540.976</ele>
        <time>2021-05-22T13:51:47Z</time>
      </trkpt>
      <trkpt lat="43.51344" lon="2.47074">
        <ele>541.017</ele>
        <time>2021-05-22T13:51:49Z</time>
      </trkpt>
      <trkpt lat="43.51345" lon="2.47075">
        <ele>540.849</ele>
        <time>2021-05-22T13:51:51Z</time>
      </trkpt>
      <trkpt lat="43.51345" lon="2.47075">
        <ele>541.323</ele>
        <time>2021-05-22T13:51:53Z</time>
      </trkpt>
      <trkpt lat="43.51345" lon="2.47075">
        <ele>541.323</ele>
        <time>2021-05-22T13:51:55Z</time>
      </trkpt>
      <trkpt lat="43.51345" lon="2.47075">
        <ele>541.327</ele>
        <time>2021-05-22T13:51:57Z</time>
      </trkpt>
      <trkpt lat="43.51345" lon="2.47075">
        <ele>541.328</ele>
        <time>2021-05-22T13:51:59Z</time>
      </trkpt>
      <trkpt lat="43.51345" lon="2.47075">
        <ele>541.329</ele>
        <time>2021-05-22T13:52:01Z</time>
      </trkpt>
      <trkpt lat="43.51345" lon="2.47075">
        <ele>541.324</ele>
        <time>2021-05-22T13:52:03Z</time>
      </trkpt>
      <trkpt lat="43.51345" lon="2.47075">
        <ele>541.316</ele>
        <time>2021-05-22T13:52:05Z</time>
      </trkpt>
      <trkpt lat="43.51345" lon="2.47075">
        <ele>541.311</ele>
        <time>2021-05-22T13:52:07Z</time>
      </trkpt>
      <trkpt lat="43.51345" lon="2.47075">
        <ele>541.311</ele>
        <time>2021-05-22T13:52:09Z</time>
      </trkpt>
      <trkpt lat="43.51345" lon="2.47075">
        <ele>541.307</ele>
        <time>2021-05-22T13:52:11Z</time>
      </trkpt>
      <trkpt lat="43.51345" lon="2.47075">
        <ele>541.308</ele>
        <time>2021-05-22T13:52:13Z</time>
      </trkpt>
      <trkpt lat="43.51345" lon="2.47075">
        <ele>541.31</ele>
        <time>2021-05-22T13:52:15Z</time>
      </trkpt>
      <trkpt lat="43.51345" lon="2.47075">
        <ele>541.309</ele>
        <time>2021-05-22T13:52:17Z</time>
      </trkpt>
      <trkpt lat="43.51345" lon="2.47075">
        <ele>541.306</ele>
        <time>2021-05-22T13:52:19Z</time>
      </trkpt>
      <trkpt lat="43.51345" lon="2.47075">
        <ele>541.302</ele>
        <time>2021-05-22T13:52:21Z</time>
      </trkpt>
      <trkpt lat="43.51345" lon="2.47075">
        <ele>541.302</ele>
        <time>2021-05-22T13:52:23Z</time>
      </trkpt>
      <trkpt lat="43.51345" lon="2.47075">
        <ele>541.302</ele>
        <time>2021-05-22T13:52:25Z</time>
      </trkpt>
      <trkpt lat="43.51345" lon="2.47075">
        <ele>541.07</ele>
        <time>2021-05-22T13:52:27Z</time>
      </trkpt>
      <trkpt lat="43.51345" lon="2.47076">
        <ele>541.077</ele>
        <time>2021-05-22T13:52:29Z</time>
      </trkpt>
      <trkpt lat="43.51345" lon="2.47076">
        <ele>541.078</ele>
        <time>2021-05-22T13:52:31Z</time>
      </trkpt>
      <trkpt lat="43.51345" lon="2.47076">
        <ele>541.08</ele>
        <time>2021-05-22T13:52:33Z</time>
      </trkpt>
      <trkpt lat="43.51345" lon="2.47076">
        <ele>541.082</ele>
        <time>2021-05-22T13:52:35Z</time>
      </trkpt>
      <trkpt lat="43.51345" lon="2.47076">
        <ele>541.081</ele>
        <time>2021-05-22T13:52:37Z</time>
      </trkpt>
      <trkpt lat="43.51345" lon="2.47076">
        <ele>541.086</ele>
        <time>2021-05-22T13:52:39Z</time>
      </trkpt>
      <trkpt lat="43.51345" lon="2.47076">
        <ele>541.089</ele>
        <time>2021-05-22T13:52:41Z</time>
      </trkpt>
      <trkpt lat="43.51345" lon="2.47076">
        <ele>541.092</ele>
        <time>2021-05-22T13:52:43Z</time>
      </trkpt>
      <trkpt lat="43.51345" lon="2.47076">
        <ele>541.103</ele>
        <time>2021-05-22T13:52:45Z</time>
      </trkpt>
      <trkpt lat="43.51345" lon="2.47076">
        <ele>541.108</ele>
        <time>2021-05-22T13:52:47Z</time>
      </trkpt>
      <trkpt lat="43.51345" lon="2.47076">
        <ele>541.105</ele>
        <time>2021-05-22T13:52:49Z</time>
      </trkpt>
      <trkpt lat="43.51345" lon="2.47076">
        <ele>541.099</ele>
        <time>2021-05-22T13:52:51Z</time>
      </trkpt>
      <trkpt lat="43.51345" lon="2.47076">
        <ele>541.089</ele>
        <time>2021-05-22T13:52:53Z</time>
      </trkpt>
      <trkpt lat="43.51345" lon="2.47076">
        <ele>541.094</ele>
        <time>2021-05-22T13:52:55Z</time>
      </trkpt>
      <trkpt lat="43.51345" lon="2.47076">
        <ele>541.09</ele>
        <time>2021-05-22T13:52:57Z</time>
      </trkpt>
      <trkpt lat="43.51345" lon="2.47076">
        <ele>541.091</ele>
        <time>2021-05-22T13:52:59Z</time>
      </trkpt>
      <trkpt lat="43.51345" lon="2.47076">
        <ele>541.094</ele>
        <time>2021-05-22T13:53:01Z</time>
      </trkpt>
      <trkpt lat="43.51345" lon="2.47076">
        <ele>541.103</ele>
        <time>2021-05-22T13:53:03Z</time>
      </trkpt>
      <trkpt lat="43.51345" lon="2.47076">
        <ele>541.104</ele>
        <time>2021-05-22T13:53:05Z</time>
      </trkpt>
      <trkpt lat="43.51345" lon="2.47076">
        <ele>541.105</ele>
        <time>2021-05-22T13:53:07Z</time>
      </trkpt>
      <trkpt lat="43.51345" lon="2.47076">
        <ele>541.097</ele>
        <time>2021-05-22T13:53:09Z</time>
      </trkpt>
      <trkpt lat="43.51345" lon="2.47076">
        <ele>541.092</ele>
        <time>2021-05-22T13:53:11Z</time>
      </trkpt>
      <trkpt lat="43.51345" lon="2.47076">
        <ele>541.087</ele>
        <time>2021-05-22T13:53:13Z</time>
      </trkpt>
      <trkpt lat="43.51345" lon="2.47076">
        <ele>541.074</ele>
        <time>2021-05-22T13:53:15Z</time>
      </trkpt>
      <trkpt lat="43.51345" lon="2.47076">
        <ele>541.064</ele>
        <time>2021-05-22T13:53:17Z</time>
      </trkpt>
      <trkpt lat="43.51345" lon="2.47076">
        <ele>541.067</ele>
        <time>2021-05-22T13:53:19Z</time>
      </trkpt>
      <trkpt lat="43.51345" lon="2.47076">
        <ele>541.061</ele>
        <time>2021-05-22T13:53:21Z</time>
      </trkpt>
      <trkpt lat="43.51345" lon="2.47076">
        <ele>541.06</ele>
        <time>2021-05-22T13:53:23Z</time>
      </trkpt>
      <trkpt lat="43.51345" lon="2.47076">
        <ele>541.059</ele>
        <time>2021-05-22T13:53:25Z</time>
      </trkpt>
      <trkpt lat="43.51345" lon="2.47076">
        <ele>541.06</ele>
        <time>2021-05-22T13:53:27Z</time>
      </trkpt>
      <trkpt lat="43.51345" lon="2.47076">
        <ele>541.054</ele>
        <time>2021-05-22T13:53:29Z</time>
      </trkpt>
      <trkpt lat="43.51345" lon="2.47076">
        <ele>541.048</ele>
        <time>2021-05-22T13:53:31Z</time>
      </trkpt>
      <trkpt lat="43.51345" lon="2.47076">
        <ele>541.048</ele>
        <time>2021-05-22T13:53:33Z</time>
      </trkpt>
      <trkpt lat="43.51345" lon="2.47076">
        <ele>541.048</ele>
        <time>2021-05-22T13:53:35Z</time>
      </trkpt>
      <trkpt lat="43.51345" lon="2.47076">
        <ele>541.044</ele>
        <time>2021-05-22T13:53:37Z</time>
      </trkpt>
      <trkpt lat="43.51345" lon="2.47076">
        <ele>541.04</ele>
        <time>2021-05-22T13:53:39Z</time>
      </trkpt>
      <trkpt lat="43.51345" lon="2.47076">
        <ele>541.032</ele>
        <time>2021-05-22T13:53:41Z</time>
      </trkpt>
      <trkpt lat="43.51345" lon="2.47076">
        <ele>541.032</ele>
        <time>2021-05-22T13:53:43Z</time>
      </trkpt>
      <trkpt lat="43.51345" lon="2.47076">
        <ele>541.026</ele>
        <time>2021-05-22T13:53:45Z</time>
      </trkpt>
      <trkpt lat="43.51345" lon="2.47076">
        <ele>541.015</ele>
        <time>2021-05-22T13:53:47Z</time>
      </trkpt>
      <trkpt lat="43.51345" lon="2.47076">
        <ele>541.009</ele>
        <time>2021-05-22T13:53:49Z</time>
      </trkpt>
      <trkpt lat="43.51345" lon="2.47076">
        <ele>541.01</ele>
        <time>2021-05-22T13:53:51Z</time>
      </trkpt>
      <trkpt lat="43.51345" lon="2.47076">
        <ele>541.004</ele>
        <time>2021-05-22T13:53:53Z</time>
      </trkpt>
      <trkpt lat="43.51345" lon="2.47076">
        <ele>541.005</ele>
        <time>2021-05-22T13:53:55Z</time>
      </trkpt>
      <trkpt lat="43.51345" lon="2.47076">
        <ele>540.998</ele>
        <time>2021-05-22T13:53:57Z</time>
      </trkpt>
      <trkpt lat="43.51345" lon="2.47076">
        <ele>540.986</ele>
        <time>2021-05-22T13:53:59Z</time>
      </trkpt>
      <trkpt lat="43.51345" lon="2.47076">
        <ele>540.995</ele>
        <time>2021-05-22T13:54:01Z</time>
      </trkpt>
      <trkpt lat="43.51345" lon="2.47076">
        <ele>541.012</ele>
        <time>2021-05-22T13:54:03Z</time>
      </trkpt>
      <trkpt lat="43.51345" lon="2.47076">
        <ele>541.012</ele>
        <time>2021-05-22T13:54:05Z</time>
      </trkpt>
      <trkpt lat="43.51345" lon="2.47076">
        <ele>541.01</ele>
        <time>2021-05-22T13:54:07Z</time>
      </trkpt>
      <trkpt lat="43.51345" lon="2.47076">
        <ele>541.008</ele>
        <time>2021-05-22T13:54:09Z</time>
      </trkpt>
      <trkpt lat="43.51345" lon="2.47076">
        <ele>541.007</ele>
        <time>2021-05-22T13:54:11Z</time>
      </trkpt>
      <trkpt lat="43.51345" lon="2.47076">
        <ele>541.01</ele>
        <time>2021-05-22T13:54:13Z</time>
      </trkpt>
      <trkpt lat="43.51345" lon="2.47076">
        <ele>541.006</ele>
        <time>2021-05-22T13:54:15Z</time>
      </trkpt>
      <trkpt lat="43.51345" lon="2.47076">
        <ele>541.006</ele>
        <time>2021-05-22T13:54:17Z</time>
      </trkpt>
      <trkpt lat="43.51345" lon="2.47076">
        <ele>540.998</ele>
        <time>2021-05-22T13:54:19Z</time>
      </trkpt>
      <trkpt lat="43.51345" lon="2.47075">
        <ele>541.036</ele>
        <time>2021-05-22T13:54:21Z</time>
      </trkpt>
      <trkpt lat="43.51345" lon="2.47075">
        <ele>541.043</ele>
        <time>2021-05-22T13:54:23Z</time>
      </trkpt>
      <trkpt lat="43.51345" lon="2.47075">
        <ele>541.038</ele>
        <time>2021-05-22T13:54:25Z</time>
      </trkpt>
      <trkpt lat="43.51345" lon="2.47075">
        <ele>541.042</ele>
        <time>2021-05-22T13:54:27Z</time>
      </trkpt>
      <trkpt lat="43.51345" lon="2.47075">
        <ele>541.047</ele>
        <time>2021-05-22T13:54:29Z</time>
      </trkpt>
      <trkpt lat="43.51345" lon="2.47075">
        <ele>541.046</ele>
        <time>2021-05-22T13:54:31Z</time>
      </trkpt>
      <trkpt lat="43.51345" lon="2.47075">
        <ele>541.049</ele>
        <time>2021-05-22T13:54:33Z</time>
      </trkpt>
      <trkpt lat="43.51345" lon="2.47075">
        <ele>541.052</ele>
        <time>2021-05-22T13:54:35Z</time>
      </trkpt>
      <trkpt lat="43.51345" lon="2.47075">
        <ele>541.053</ele>
        <time>2021-05-22T13:54:37Z</time>
      </trkpt>
      <trkpt lat="43.51345" lon="2.47075">
        <ele>541.055</ele>
        <time>2021-05-22T13:54:39Z</time>
      </trkpt>
      <trkpt lat="43.51345" lon="2.47075">
        <ele>541.059</ele>
        <time>2021-05-22T13:54:41Z</time>
      </trkpt>
      <trkpt lat="43.51345" lon="2.47075">
        <ele>541.061</ele>
        <time>2021-05-22T13:54:43Z</time>
      </trkpt>
      <trkpt lat="43.51345" lon="2.47075">
        <ele>541.063</ele>
        <time>2021-05-22T13:54:45Z</time>
      </trkpt>
      <trkpt lat="43.51345" lon="2.47075">
        <ele>541.063</ele>
        <time>2021-05-22T13:54:47Z</time>
      </trkpt>
      <trkpt lat="43.51345" lon="2.47075">
        <ele>541.061</ele>
        <time>2021-05-22T13:54:49Z</time>
      </trkpt>
      <trkpt lat="43.51345" lon="2.47075">
        <ele>541.062</ele>
        <time>2021-05-22T13:54:51Z</time>
      </trkpt>
      <trkpt lat="43.51345" lon="2.47075">
        <ele>541.06</ele>
        <time>2021-05-22T13:54:53Z</time>
      </trkpt>
      <trkpt lat="43.51345" lon="2.47075">
        <ele>541.062</ele>
        <time>2021-05-22T13:54:55Z</time>
      </trkpt>
      <trkpt lat="43.51345" lon="2.47075">
        <ele>541.064</ele>
        <time>2021-05-22T13:54:57Z</time>
      </trkpt>
      <trkpt lat="43.51345" lon="2.47075">
        <ele>541.062</ele>
        <time>2021-05-22T13:54:59Z</time>
      </trkpt>
      <trkpt lat="43.51345" lon="2.47075">
        <ele>541.062</ele>
        <time>2021-05-22T13:55:01Z</time>
      </trkpt>
      <trkpt lat="43.51345" lon="2.47075">
        <ele>541.062</ele>
        <time>2021-05-22T13:55:03Z</time>
      </trkpt>
      <trkpt lat="43.51345" lon="2.47075">
        <ele>541.063</ele>
        <time>2021-05-22T13:55:05Z</time>
      </trkpt>
      <trkpt lat="43.51345" lon="2.47075">
        <ele>541.063</ele>
        <time>2021-05-22T13:55:07Z</time>
      </trkpt>
      <trkpt lat="43.51345" lon="2.47075">
        <ele>541.063</ele>
        <time>2021-05-22T13:55:09Z</time>
      </trkpt>
      <trkpt lat="43.51345" lon="2.47075">
        <ele>541.067</ele>
        <time>2021-05-22T13:55:11Z</time>
      </trkpt>
      <trkpt lat="43.51345" lon="2.47075">
        <ele>541.071</ele>
        <time>2021-05-22T13:55:13Z</time>
      </trkpt>
      <trkpt lat="43.51345" lon="2.47075">
        <ele>541.071</ele>
        <time>2021-05-22T13:55:15Z</time>
      </trkpt>
      <trkpt lat="43.51345" lon="2.47075">
        <ele>541.072</ele>
        <time>2021-05-22T13:55:17Z</time>
      </trkpt>
      <trkpt lat="43.51345" lon="2.47075">
        <ele>541.072</ele>
        <time>2021-05-22T13:55:19Z</time>
      </trkpt>
      <trkpt lat="43.51345" lon="2.47075">
        <ele>541.077</ele>
        <time>2021-05-22T13:55:21Z</time>
      </trkpt>
      <trkpt lat="43.51345" lon="2.47075">
        <ele>541.077</ele>
        <time>2021-05-22T13:55:23Z</time>
      </trkpt>
      <trkpt lat="43.51345" lon="2.47075">
        <ele>541.076</ele>
        <time>2021-05-22T13:55:25Z</time>
      </trkpt>
      <trkpt lat="43.51345" lon="2.47075">
        <ele>541.076</ele>
        <time>2021-05-22T13:55:27Z</time>
      </trkpt>
      <trkpt lat="43.51345" lon="2.47075">
        <ele>541.074</ele>
        <time>2021-05-22T13:55:29Z</time>
      </trkpt>
      <trkpt lat="43.51345" lon="2.47075">
        <ele>541.075</ele>
        <time>2021-05-22T13:55:31Z</time>
      </trkpt>
      <trkpt lat="43.51345" lon="2.47075">
        <ele>541.079</ele>
        <time>2021-05-22T13:55:33Z</time>
      </trkpt>
      <trkpt lat="43.51345" lon="2.47075">
        <ele>541.083</ele>
        <time>2021-05-22T13:55:35Z</time>
      </trkpt>
      <trkpt lat="43.51345" lon="2.47075">
        <ele>541.082</ele>
        <time>2021-05-22T13:55:37Z</time>
      </trkpt>
      <trkpt lat="43.51345" lon="2.47075">
        <ele>541.075</ele>
        <time>2021-05-22T13:55:39Z</time>
      </trkpt>
      <trkpt lat="43.51345" lon="2.47075">
        <ele>541.071</ele>
        <time>2021-05-22T13:55:41Z</time>
      </trkpt>
      <trkpt lat="43.51345" lon="2.47075">
        <ele>541.071</ele>
        <time>2021-05-22T13:55:43Z</time>
      </trkpt>
      <trkpt lat="43.51345" lon="2.47075">
        <ele>541.074</ele>
        <time>2021-05-22T13:55:45Z</time>
      </trkpt>
      <trkpt lat="43.51345" lon="2.47075">
        <ele>541.079</ele>
        <time>2021-05-22T13:55:47Z</time>
      </trkpt>
      <trkpt lat="43.51345" lon="2.47076">
        <ele>540.919</ele>
        <time>2021-05-22T13:55:49Z</time>
      </trkpt>
      <trkpt lat="43.51345" lon="2.47076">
        <ele>540.905</ele>
        <time>2021-05-22T13:55:51Z</time>
      </trkpt>
      <trkpt lat="43.51345" lon="2.47076">
        <ele>540.908</ele>
        <time>2021-05-22T13:55:53Z</time>
      </trkpt>
      <trkpt lat="43.51345" lon="2.47076">
        <ele>540.911</ele>
        <time>2021-05-22T13:55:55Z</time>
      </trkpt>
      <trkpt lat="43.51345" lon="2.47076">
        <ele>540.908</ele>
        <time>2021-05-22T13:55:57Z</time>
      </trkpt>
      <trkpt lat="43.51345" lon="2.47076">
        <ele>540.909</ele>
        <time>2021-05-22T13:55:59Z</time>
      </trkpt>
      <trkpt lat="43.51345" lon="2.47076">
        <ele>540.911</ele>
        <time>2021-05-22T13:56:01Z</time>
      </trkpt>
      <trkpt lat="43.51345" lon="2.47076">
        <ele>540.917</ele>
        <time>2021-05-22T13:56:03Z</time>
      </trkpt>
      <trkpt lat="43.51345" lon="2.47076">
        <ele>540.922</ele>
        <time>2021-05-22T13:56:05Z</time>
      </trkpt>
      <trkpt lat="43.51345" lon="2.47076">
        <ele>540.926</ele>
        <time>2021-05-22T13:56:07Z</time>
      </trkpt>
      <trkpt lat="43.51345" lon="2.47076">
        <ele>540.926</ele>
        <time>2021-05-22T13:56:09Z</time>
      </trkpt>
      <trkpt lat="43.51345" lon="2.47076">
        <ele>540.926</ele>
        <time>2021-05-22T13:56:11Z</time>
      </trkpt>
      <trkpt lat="43.51345" lon="2.47076">
        <ele>540.929</ele>
        <time>2021-05-22T13:56:13Z</time>
      </trkpt>
      <trkpt lat="43.51345" lon="2.47076">
        <ele>540.934</ele>
        <time>2021-05-22T13:56:15Z</time>
      </trkpt>
      <trkpt lat="43.51345" lon="2.47076">
        <ele>540.933</ele>
        <time>2021-05-22T13:56:17Z</time>
      </trkpt>
      <trkpt lat="43.51345" lon="2.47076">
        <ele>540.931</ele>
        <time>2021-05-22T13:56:19Z</time>
      </trkpt>
      <trkpt lat="43.51345" lon="2.47076">
        <ele>540.923</ele>
        <time>2021-05-22T13:56:21Z</time>
      </trkpt>
      <trkpt lat="43.51345" lon="2.47076">
        <ele>540.923</ele>
        <time>2021-05-22T13:56:23Z</time>
      </trkpt>
      <trkpt lat="43.51345" lon="2.47076">
        <ele>540.929</ele>
        <time>2021-05-22T13:56:25Z</time>
      </trkpt>
      <trkpt lat="43.51345" lon="2.47076">
        <ele>540.93</ele>
        <time>2021-05-22T13:56:27Z</time>
      </trkpt>
      <trkpt lat="43.51345" lon="2.47076">
        <ele>540.932</ele>
        <time>2021-05-22T13:56:29Z</time>
      </trkpt>
      <trkpt lat="43.51345" lon="2.47076">
        <ele>540.931</ele>
        <time>2021-05-22T13:56:31Z</time>
      </trkpt>
      <trkpt lat="43.51346" lon="2.47076">
        <ele>540.864</ele>
        <time>2021-05-22T13:56:33Z</time>
      </trkpt>
      <trkpt lat="43.51346" lon="2.47076">
        <ele>540.5</ele>
        <time>2021-05-22T13:56:35Z</time>
      </trkpt>
      <trkpt lat="43.51347" lon="2.47079">
        <ele>540.84</ele>
        <time>2021-05-22T13:56:37Z</time>
      </trkpt>
      <trkpt lat="43.51348" lon="2.4708">
        <ele>541.171</ele>
        <time>2021-05-22T13:56:39Z</time>
      </trkpt>
      <trkpt lat="43.51348" lon="2.47081">
        <ele>541.017</ele>
        <time>2021-05-22T13:56:41Z</time>
      </trkpt>
      <trkpt lat="43.51349" lon="2.47081">
        <ele>540.853</ele>
        <time>2021-05-22T13:56:43Z</time>
      </trkpt>
      <trkpt lat="43.5135" lon="2.47081">
        <ele>540.593</ele>
        <time>2021-05-22T13:56:45Z</time>
      </trkpt>
      <trkpt lat="43.51351" lon="2.47082">
        <ele>541.174</ele>
        <time>2021-05-22T13:56:47Z</time>
      </trkpt>
      <trkpt lat="43.51352" lon="2.47083">
        <ele>540.688</ele>
        <time>2021-05-22T13:56:49Z</time>
      </trkpt>
      <trkpt lat="43.51353" lon="2.47083">
        <ele>540.485</ele>
        <time>2021-05-22T13:56:51Z</time>
      </trkpt>
      <trkpt lat="43.51355" lon="2.47083">
        <ele>539.727</ele>
        <time>2021-05-22T13:56:53Z</time>
      </trkpt>
      <trkpt lat="43.51355" lon="2.47084">
        <ele>539.4</ele>
        <time>2021-05-22T13:56:55Z</time>
      </trkpt>
      <trkpt lat="43.51356" lon="2.47084">
        <ele>539.471</ele>
        <time>2021-05-22T13:56:57Z</time>
      </trkpt>
      <trkpt lat="43.51357" lon="2.47084">
        <ele>539.417</ele>
        <time>2021-05-22T13:56:59Z</time>
      </trkpt>
      <trkpt lat="43.51359" lon="2.47085">
        <ele>539.021</ele>
        <time>2021-05-22T13:57:01Z</time>
      </trkpt>
      <trkpt lat="43.5136" lon="2.47086">
        <ele>539.111</ele>
        <time>2021-05-22T13:57:03Z</time>
      </trkpt>
      <trkpt lat="43.5136" lon="2.47086">
        <ele>539.384</ele>
        <time>2021-05-22T13:57:05Z</time>
      </trkpt>
      <trkpt lat="43.51361" lon="2.47087">
        <ele>538.345</ele>
        <time>2021-05-22T13:57:07Z</time>
      </trkpt>
      <trkpt lat="43.51362" lon="2.47087">
        <ele>538.329</ele>
        <time>2021-05-22T13:57:09Z</time>
      </trkpt>
      <trkpt lat="43.51363" lon="2.47088">
        <ele>536.651</ele>
        <time>2021-05-22T13:57:11Z</time>
      </trkpt>
      <trkpt lat="43.51364" lon="2.47089">
        <ele>537.174</ele>
        <time>2021-05-22T13:57:13Z</time>
      </trkpt>
      <trkpt lat="43.51365" lon="2.47089">
        <ele>537.14</ele>
        <time>2021-05-22T13:57:15Z</time>
      </trkpt>
      <trkpt lat="43.51366" lon="2.47089">
        <ele>536.641</ele>
        <time>2021-05-22T13:57:17Z</time>
      </trkpt>
      <trkpt lat="43.51367" lon="2.4709">
        <ele>537.912</ele>
        <time>2021-05-22T13:57:19Z</time>
      </trkpt>
      <trkpt lat="43.51369" lon="2.4709">
        <ele>537.241</ele>
        <time>2021-05-22T13:57:21Z</time>
      </trkpt>
      <trkpt lat="43.51372" lon="2.47091">
        <ele>536.856</ele>
        <time>2021-05-22T13:57:23Z</time>
      </trkpt>
      <trkpt lat="43.51374" lon="2.47091">
        <ele>536.536</ele>
        <time>2021-05-22T13:57:25Z</time>
      </trkpt>
      <trkpt lat="43.51374" lon="2.47091">
        <ele>538.836</ele>
        <time>2021-05-22T13:57:27Z</time>
      </trkpt>
      <trkpt lat="43.51376" lon="2.47092">
        <ele>538.897</ele>
        <time>2021-05-22T13:57:29Z</time>
      </trkpt>
      <trkpt lat="43.51376" lon="2.47093">
        <ele>540.515</ele>
        <time>2021-05-22T13:57:31Z</time>
      </trkpt>
      <trkpt lat="43.51378" lon="2.47095">
        <ele>540.474</ele>
        <time>2021-05-22T13:57:33Z</time>
      </trkpt>
      <trkpt lat="43.51378" lon="2.47097">
        <ele>539.438</ele>
        <time>2021-05-22T13:57:35Z</time>
      </trkpt>
      <trkpt lat="43.51379" lon="2.47099">
        <ele>539.299</ele>
        <time>2021-05-22T13:57:37Z</time>
      </trkpt>
      <trkpt lat="43.5138" lon="2.471">
        <ele>539.812</ele>
        <time>2021-05-22T13:57:39Z</time>
      </trkpt>
      <trkpt lat="43.51378" lon="2.47101">
        <ele>539.832</ele>
        <time>2021-05-22T13:57:41Z</time>
      </trkpt>
      <trkpt lat="43.51378" lon="2.47103">
        <ele>538.787</ele>
        <time>2021-05-22T13:57:43Z</time>
      </trkpt>
      <trkpt lat="43.51379" lon="2.47103">
        <ele>539.293</ele>
        <time>2021-05-22T13:57:45Z</time>
      </trkpt>
      <trkpt lat="43.5138" lon="2.47105">
        <ele>540.162</ele>
        <time>2021-05-22T13:57:47Z</time>
      </trkpt>
      <trkpt lat="43.51381" lon="2.47105">
        <ele>539.393</ele>
        <time>2021-05-22T13:57:49Z</time>
      </trkpt>
      <trkpt lat="43.51381" lon="2.47106">
        <ele>540.792</ele>
        <time>2021-05-22T13:57:51Z</time>
      </trkpt>
      <trkpt lat="43.51381" lon="2.47107">
        <ele>540.881</ele>
        <time>2021-05-22T13:57:53Z</time>
      </trkpt>
      <trkpt lat="43.51381" lon="2.47108">
        <ele>542.451</ele>
        <time>2021-05-22T13:57:55Z</time>
      </trkpt>
      <trkpt lat="43.51381" lon="2.47109">
        <ele>541.586</ele>
        <time>2021-05-22T13:57:57Z</time>
      </trkpt>
      <trkpt lat="43.51381" lon="2.4711">
        <ele>541.118</ele>
        <time>2021-05-22T13:57:59Z</time>
      </trkpt>
      <trkpt lat="43.51381" lon="2.47111">
        <ele>541.933</ele>
        <time>2021-05-22T13:58:01Z</time>
      </trkpt>
      <trkpt lat="43.5138" lon="2.4711">
        <ele>542.317</ele>
        <time>2021-05-22T13:58:03Z</time>
      </trkpt>
      <trkpt lat="43.5138" lon="2.47112">
        <ele>542.119</ele>
        <time>2021-05-22T13:58:05Z</time>
      </trkpt>
      <trkpt lat="43.51379" lon="2.47114">
        <ele>543.625</ele>
        <time>2021-05-22T13:58:07Z</time>
      </trkpt>
      <trkpt lat="43.5138" lon="2.47115">
        <ele>543.8</ele>
        <time>2021-05-22T13:58:09Z</time>
      </trkpt>
      <trkpt lat="43.5138" lon="2.47116">
        <ele>543.891</ele>
        <time>2021-05-22T13:58:11Z</time>
      </trkpt>
      <trkpt lat="43.51381" lon="2.47117">
        <ele>544.486</ele>
        <time>2021-05-22T13:58:13Z</time>
      </trkpt>
      <trkpt lat="43.5138" lon="2.47118">
        <ele>545.06</ele>
        <time>2021-05-22T13:58:15Z</time>
      </trkpt>
      <trkpt lat="43.51381" lon="2.47119">
        <ele>545.885</ele>
        <time>2021-05-22T13:58:17Z</time>
      </trkpt>
      <trkpt lat="43.51381" lon="2.4712">
        <ele>545.66</ele>
        <time>2021-05-22T13:58:19Z</time>
      </trkpt>
      <trkpt lat="43.51381" lon="2.47121">
        <ele>545.515</ele>
        <time>2021-05-22T13:58:21Z</time>
      </trkpt>
      <trkpt lat="43.51381" lon="2.47121">
        <ele>545.602</ele>
        <time>2021-05-22T13:58:23Z</time>
      </trkpt>
      <trkpt lat="43.51381" lon="2.47122">
        <ele>545.901</ele>
        <time>2021-05-22T13:58:25Z</time>
      </trkpt>
      <trkpt lat="43.5138" lon="2.47122">
        <ele>545.938</ele>
        <time>2021-05-22T13:58:27Z</time>
      </trkpt>
      <trkpt lat="43.51381" lon="2.47124">
        <ele>545.418</ele>
        <time>2021-05-22T13:58:29Z</time>
      </trkpt>
      <trkpt lat="43.51382" lon="2.47125">
        <ele>544.353</ele>
        <time>2021-05-22T13:58:31Z</time>
      </trkpt>
      <trkpt lat="43.51382" lon="2.47127">
        <ele>544.208</ele>
        <time>2021-05-22T13:58:33Z</time>
      </trkpt>
      <trkpt lat="43.51381" lon="2.47129">
        <ele>545.302</ele>
        <time>2021-05-22T13:58:35Z</time>
      </trkpt>
      <trkpt lat="43.51381" lon="2.4713">
        <ele>545.921</ele>
        <time>2021-05-22T13:58:37Z</time>
      </trkpt>
      <trkpt lat="43.51381" lon="2.47132">
        <ele>546.814</ele>
        <time>2021-05-22T13:58:39Z</time>
      </trkpt>
      <trkpt lat="43.51381" lon="2.47134">
        <ele>546.945</ele>
        <time>2021-05-22T13:58:41Z</time>
      </trkpt>
      <trkpt lat="43.51382" lon="2.47136">
        <ele>546.781</ele>
        <time>2021-05-22T13:58:43Z</time>
      </trkpt>
      <trkpt lat="43.51383" lon="2.47137">
        <ele>547.166</ele>
        <time>2021-05-22T13:58:45Z</time>
      </trkpt>
      <trkpt lat="43.51384" lon="2.47139">
        <ele>547.05</ele>
        <time>2021-05-22T13:58:47Z</time>
      </trkpt>
      <trkpt lat="43.51385" lon="2.47139">
        <ele>546.51</ele>
        <time>2021-05-22T13:58:49Z</time>
      </trkpt>
      <trkpt lat="43.51386" lon="2.47141">
        <ele>546.821</ele>
        <time>2021-05-22T13:58:51Z</time>
      </trkpt>
      <trkpt lat="43.51388" lon="2.47142">
        <ele>546.759</ele>
        <time>2021-05-22T13:58:53Z</time>
      </trkpt>
      <trkpt lat="43.51389" lon="2.47142">
        <ele>545.565</ele>
        <time>2021-05-22T13:58:55Z</time>
      </trkpt>
      <trkpt lat="43.5139" lon="2.47141">
        <ele>544.661</ele>
        <time>2021-05-22T13:58:57Z</time>
      </trkpt>
      <trkpt lat="43.51392" lon="2.47141">
        <ele>545.289</ele>
        <time>2021-05-22T13:58:59Z</time>
      </trkpt>
      <trkpt lat="43.51393" lon="2.47141">
        <ele>544.722</ele>
        <time>2021-05-22T13:59:01Z</time>
      </trkpt>
      <trkpt lat="43.51394" lon="2.4714">
        <ele>543.948</ele>
        <time>2021-05-22T13:59:03Z</time>
      </trkpt>
      <trkpt lat="43.51395" lon="2.47139">
        <ele>544.129</ele>
        <time>2021-05-22T13:59:05Z</time>
      </trkpt>
      <trkpt lat="43.51397" lon="2.47139">
        <ele>544.313</ele>
        <time>2021-05-22T13:59:07Z</time>
      </trkpt>
      <trkpt lat="43.51397" lon="2.47138">
        <ele>544.634</ele>
        <time>2021-05-22T13:59:09Z</time>
      </trkpt>
      <trkpt lat="43.51399" lon="2.47137">
        <ele>545.143</ele>
        <time>2021-05-22T13:59:11Z</time>
      </trkpt>
      <trkpt lat="43.514" lon="2.47137">
        <ele>544.193</ele>
        <time>2021-05-22T13:59:13Z</time>
      </trkpt>
      <trkpt lat="43.51402" lon="2.47137">
        <ele>543.547</ele>
        <time>2021-05-22T13:59:15Z</time>
      </trkpt>
      <trkpt lat="43.51403" lon="2.47137">
        <ele>544.776</ele>
        <time>2021-05-22T13:59:17Z</time>
      </trkpt>
      <trkpt lat="43.51405" lon="2.47137">
        <ele>545.764</ele>
        <time>2021-05-22T13:59:19Z</time>
      </trkpt>
      <trkpt lat="43.51405" lon="2.47137">
        <ele>545.938</ele>
        <time>2021-05-22T13:59:21Z</time>
      </trkpt>
      <trkpt lat="43.51405" lon="2.47137">
        <ele>545.935</ele>
        <time>2021-05-22T13:59:23Z</time>
      </trkpt>
      <trkpt lat="43.51406" lon="2.47136">
        <ele>545.941</ele>
        <time>2021-05-22T13:59:25Z</time>
      </trkpt>
      <trkpt lat="43.51407" lon="2.47134">
        <ele>545.981</ele>
        <time>2021-05-22T13:59:27Z</time>
      </trkpt>
      <trkpt lat="43.51409" lon="2.47134">
        <ele>545.571</ele>
        <time>2021-05-22T13:59:29Z</time>
      </trkpt>
      <trkpt lat="43.51409" lon="2.47135">
        <ele>546.549</ele>
        <time>2021-05-22T13:59:31Z</time>
      </trkpt>
      <trkpt lat="43.51409" lon="2.47136">
        <ele>546.942</ele>
        <time>2021-05-22T13:59:33Z</time>
      </trkpt>
      <trkpt lat="43.51411" lon="2.47137">
        <ele>547.614</ele>
        <time>2021-05-22T13:59:35Z</time>
      </trkpt>
      <trkpt lat="43.51412" lon="2.47138">
        <ele>548.236</ele>
        <time>2021-05-22T13:59:37Z</time>
      </trkpt>
      <trkpt lat="43.51413" lon="2.47139">
        <ele>549.186</ele>
        <time>2021-05-22T13:59:39Z</time>
      </trkpt>
      <trkpt lat="43.51415" lon="2.4714">
        <ele>550.428</ele>
        <time>2021-05-22T13:59:41Z</time>
      </trkpt>
      <trkpt lat="43.51416" lon="2.47141">
        <ele>551.524</ele>
        <time>2021-05-22T13:59:43Z</time>
      </trkpt>
      <trkpt lat="43.51417" lon="2.47142">
        <ele>552.408</ele>
        <time>2021-05-22T13:59:45Z</time>
      </trkpt>
      <trkpt lat="43.51418" lon="2.47142">
        <ele>553.373</ele>
        <time>2021-05-22T13:59:47Z</time>
      </trkpt>
      <trkpt lat="43.5142" lon="2.47142">
        <ele>552.609</ele>
        <time>2021-05-22T13:59:49Z</time>
      </trkpt>
      <trkpt lat="43.51421" lon="2.47142">
        <ele>552.829</ele>
        <time>2021-05-22T13:59:51Z</time>
      </trkpt>
      <trkpt lat="43.51422" lon="2.47143">
        <ele>553.089</ele>
        <time>2021-05-22T13:59:53Z</time>
      </trkpt>
      <trkpt lat="43.51424" lon="2.47143">
        <ele>550.917</ele>
        <time>2021-05-22T13:59:55Z</time>
      </trkpt>
      <trkpt lat="43.51425" lon="2.47142">
        <ele>550.647</ele>
        <time>2021-05-22T13:59:57Z</time>
      </trkpt>
      <trkpt lat="43.51427" lon="2.47142">
        <ele>549.028</ele>
        <time>2021-05-22T13:59:59Z</time>
      </trkpt>
      <trkpt lat="43.51428" lon="2.47144">
        <ele>549.153</ele>
        <time>2021-05-22T14:00:01Z</time>
      </trkpt>
      <trkpt lat="43.51429" lon="2.47144">
        <ele>546.699</ele>
        <time>2021-05-22T14:00:03Z</time>
      </trkpt>
      <trkpt lat="43.5143" lon="2.47144">
        <ele>546.272</ele>
        <time>2021-05-22T14:00:05Z</time>
      </trkpt>
      <trkpt lat="43.51431" lon="2.47144">
        <ele>547.641</ele>
        <time>2021-05-22T14:00:07Z</time>
      </trkpt>
      <trkpt lat="43.51432" lon="2.47143">
        <ele>546.438</ele>
        <time>2021-05-22T14:00:09Z</time>
      </trkpt>
      <trkpt lat="43.51431" lon="2.4714">
        <ele>547.952</ele>
        <time>2021-05-22T14:00:11Z</time>
      </trkpt>
      <trkpt lat="43.51431" lon="2.47138">
        <ele>550.021</ele>
        <time>2021-05-22T14:00:13Z</time>
      </trkpt>
      <trkpt lat="43.5143" lon="2.47137">
        <ele>550.654</ele>
        <time>2021-05-22T14:00:15Z</time>
      </trkpt>
      <trkpt lat="43.5143" lon="2.47136">
        <ele>551.306</ele>
        <time>2021-05-22T14:00:17Z</time>
      </trkpt>
      <trkpt lat="43.51431" lon="2.47135">
        <ele>550.039</ele>
        <time>2021-05-22T14:00:19Z</time>
      </trkpt>
      <trkpt lat="43.51432" lon="2.47135">
        <ele>549.695</ele>
        <time>2021-05-22T14:00:21Z</time>
      </trkpt>
      <trkpt lat="43.51432" lon="2.47134">
        <ele>549.286</ele>
        <time>2021-05-22T14:00:23Z</time>
      </trkpt>
      <trkpt lat="43.51433" lon="2.47134">
        <ele>551.429</ele>
        <time>2021-05-22T14:00:25Z</time>
      </trkpt>
      <trkpt lat="43.51434" lon="2.47134">
        <ele>551.152</ele>
        <time>2021-05-22T14:00:27Z</time>
      </trkpt>
      <trkpt lat="43.51435" lon="2.47134">
        <ele>551.53</ele>
        <time>2021-05-22T14:00:29Z</time>
      </trkpt>
      <trkpt lat="43.51436" lon="2.47135">
        <ele>552.803</ele>
        <time>2021-05-22T14:00:31Z</time>
      </trkpt>
      <trkpt lat="43.51437" lon="2.47136">
        <ele>552.692</ele>
        <time>2021-05-22T14:00:33Z</time>
      </trkpt>
      <trkpt lat="43.51438" lon="2.47138">
        <ele>553.193</ele>
        <time>2021-05-22T14:00:35Z</time>
      </trkpt>
      <trkpt lat="43.51439" lon="2.47139">
        <ele>554.243</ele>
        <time>2021-05-22T14:00:37Z</time>
      </trkpt>
      <trkpt lat="43.5144" lon="2.4714">
        <ele>555.33</ele>
        <time>2021-05-22T14:00:39Z</time>
      </trkpt>
      <trkpt lat="43.51442" lon="2.4714">
        <ele>555.759</ele>
        <time>2021-05-22T14:00:41Z</time>
      </trkpt>
      <trkpt lat="43.51443" lon="2.4714">
        <ele>556.745</ele>
        <time>2021-05-22T14:00:43Z</time>
      </trkpt>
      <trkpt lat="43.51444" lon="2.47139">
        <ele>558.551</ele>
        <time>2021-05-22T14:00:45Z</time>
      </trkpt>
      <trkpt lat="43.51446" lon="2.47139">
        <ele>557.477</ele>
        <time>2021-05-22T14:00:47Z</time>
      </trkpt>
      <trkpt lat="43.51447" lon="2.47139">
        <ele>557.592</ele>
        <time>2021-05-22T14:00:49Z</time>
      </trkpt>
      <trkpt lat="43.51447" lon="2.4714">
        <ele>557.458</ele>
        <time>2021-05-22T14:00:51Z</time>
      </trkpt>
      <trkpt lat="43.51448" lon="2.47141">
        <ele>558.916</ele>
        <time>2021-05-22T14:00:53Z</time>
      </trkpt>
      <trkpt lat="43.51449" lon="2.47143">
        <ele>559.845</ele>
        <time>2021-05-22T14:00:55Z</time>
      </trkpt>
      <trkpt lat="43.51451" lon="2.47144">
        <ele>559.534</ele>
        <time>2021-05-22T14:00:57Z</time>
      </trkpt>
      <trkpt lat="43.51452" lon="2.47145">
        <ele>560.035</ele>
        <time>2021-05-22T14:00:59Z</time>
      </trkpt>
      <trkpt lat="43.51452" lon="2.47145">
        <ele>560.048</ele>
        <time>2021-05-22T14:01:01Z</time>
      </trkpt>
      <trkpt lat="43.51452" lon="2.47145">
        <ele>560.063</ele>
        <time>2021-05-22T14:01:03Z</time>
      </trkpt>
      <trkpt lat="43.51452" lon="2.47145">
        <ele>560.068</ele>
        <time>2021-05-22T14:01:05Z</time>
      </trkpt>
      <trkpt lat="43.51453" lon="2.47146">
        <ele>560.703</ele>
        <time>2021-05-22T14:01:07Z</time>
      </trkpt>
      <trkpt lat="43.51453" lon="2.47146">
        <ele>560.708</ele>
        <time>2021-05-22T14:01:09Z</time>
      </trkpt>
      <trkpt lat="43.51453" lon="2.47146">
        <ele>560.706</ele>
        <time>2021-05-22T14:01:11Z</time>
      </trkpt>
      <trkpt lat="43.51453" lon="2.47146">
        <ele>560.71</ele>
        <time>2021-05-22T14:01:13Z</time>
      </trkpt>
      <trkpt lat="43.51453" lon="2.47146">
        <ele>560.709</ele>
        <time>2021-05-22T14:01:15Z</time>
      </trkpt>
      <trkpt lat="43.51453" lon="2.47146">
        <ele>560.707</ele>
        <time>2021-05-22T14:01:17Z</time>
      </trkpt>
      <trkpt lat="43.51453" lon="2.47146">
        <ele>560.708</ele>
        <time>2021-05-22T14:01:19Z</time>
      </trkpt>
      <trkpt lat="43.51453" lon="2.47146">
        <ele>560.71</ele>
        <time>2021-05-22T14:01:21Z</time>
      </trkpt>
      <trkpt lat="43.51453" lon="2.47146">
        <ele>560.716</ele>
        <time>2021-05-22T14:01:23Z</time>
      </trkpt>
      <trkpt lat="43.51453" lon="2.47146">
        <ele>560.726</ele>
        <time>2021-05-22T14:01:25Z</time>
      </trkpt>
      <trkpt lat="43.51453" lon="2.47146">
        <ele>560.726</ele>
        <time>2021-05-22T14:01:27Z</time>
      </trkpt>
      <trkpt lat="43.51453" lon="2.47146">
        <ele>560.724</ele>
        <time>2021-05-22T14:01:29Z</time>
      </trkpt>
      <trkpt lat="43.51453" lon="2.47146">
        <ele>560.848</ele>
        <time>2021-05-22T14:01:31Z</time>
      </trkpt>
      <trkpt lat="43.51453" lon="2.47146">
        <ele>560.878</ele>
        <time>2021-05-22T14:01:33Z</time>
      </trkpt>
      <trkpt lat="43.51454" lon="2.47145">
        <ele>561.183</ele>
        <time>2021-05-22T14:01:35Z</time>
      </trkpt>
      <trkpt lat="43.51455" lon="2.47145">
        <ele>560.744</ele>
        <time>2021-05-22T14:01:37Z</time>
      </trkpt>
      <trkpt lat="43.51455" lon="2.47145">
        <ele>560.745</ele>
        <time>2021-05-22T14:01:39Z</time>
      </trkpt>
      <trkpt lat="43.51455" lon="2.47145">
        <ele>560.759</ele>
        <time>2021-05-22T14:01:41Z</time>
      </trkpt>
      <trkpt lat="43.51455" lon="2.47145">
        <ele>560.812</ele>
        <time>2021-05-22T14:01:43Z</time>
      </trkpt>
      <trkpt lat="43.51455" lon="2.47146">
        <ele>560.824</ele>
        <time>2021-05-22T14:01:45Z</time>
      </trkpt>
      <trkpt lat="43.51455" lon="2.47146">
        <ele>560.834</ele>
        <time>2021-05-22T14:01:47Z</time>
      </trkpt>
      <trkpt lat="43.51455" lon="2.47146">
        <ele>560.849</ele>
        <time>2021-05-22T14:01:49Z</time>
      </trkpt>
      <trkpt lat="43.51455" lon="2.47146">
        <ele>560.848</ele>
        <time>2021-05-22T14:01:51Z</time>
      </trkpt>
      <trkpt lat="43.51455" lon="2.47146">
        <ele>560.861</ele>
        <time>2021-05-22T14:01:52Z</time>
      </trkpt>
      <trkpt lat="43.51455" lon="2.47145">
        <ele>560.888</ele>
        <time>2021-05-22T14:01:59Z</time>
      </trkpt>
      <trkpt lat="43.51455" lon="2.47145">
        <ele>560.903</ele>
        <time>2021-05-22T14:02:01Z</time>
      </trkpt>
      <trkpt lat="43.51455" lon="2.47145">
        <ele>560.917</ele>
        <time>2021-05-22T14:02:03Z</time>
      </trkpt>
      <trkpt lat="43.51455" lon="2.47145">
        <ele>560.918</ele>
        <time>2021-05-22T14:02:05Z</time>
      </trkpt>
      <trkpt lat="43.51455" lon="2.47145">
        <ele>560.938</ele>
        <time>2021-05-22T14:02:07Z</time>
      </trkpt>
      <trkpt lat="43.51455" lon="2.47145">
        <ele>560.952</ele>
        <time>2021-05-22T14:02:09Z</time>
      </trkpt>
      <trkpt lat="43.51455" lon="2.47145">
        <ele>560.942</ele>
        <time>2021-05-22T14:02:11Z</time>
      </trkpt>
      <trkpt lat="43.51455" lon="2.47145">
        <ele>560.951</ele>
        <time>2021-05-22T14:02:13Z</time>
      </trkpt>
      <trkpt lat="43.51455" lon="2.47145">
        <ele>560.955</ele>
        <time>2021-05-22T14:02:15Z</time>
      </trkpt>
      <trkpt lat="43.51455" lon="2.47145">
        <ele>560.966</ele>
        <time>2021-05-22T14:02:17Z</time>
      </trkpt>
      <trkpt lat="43.51455" lon="2.47145">
        <ele>560.974</ele>
        <time>2021-05-22T14:02:19Z</time>
      </trkpt>
      <trkpt lat="43.51455" lon="2.47145">
        <ele>560.984</ele>
        <time>2021-05-22T14:02:21Z</time>
      </trkpt>
      <trkpt lat="43.51455" lon="2.47145">
        <ele>561.012</ele>
        <time>2021-05-22T14:02:23Z</time>
      </trkpt>
      <trkpt lat="43.51455" lon="2.47145">
        <ele>561.019</ele>
        <time>2021-05-22T14:02:25Z</time>
      </trkpt>
      <trkpt lat="43.51455" lon="2.47145">
        <ele>561.163</ele>
        <time>2021-05-22T14:02:27Z</time>
      </trkpt>
      <trkpt lat="43.51455" lon="2.47145">
        <ele>561.163</ele>
        <time>2021-05-22T14:02:29Z</time>
      </trkpt>
      <trkpt lat="43.51455" lon="2.47145">
        <ele>561.175</ele>
        <time>2021-05-22T14:02:31Z</time>
      </trkpt>
      <trkpt lat="43.51455" lon="2.47145">
        <ele>561.183</ele>
        <time>2021-05-22T14:02:33Z</time>
      </trkpt>
      <trkpt lat="43.51455" lon="2.47145">
        <ele>561.18</ele>
        <time>2021-05-22T14:02:35Z</time>
      </trkpt>
      <trkpt lat="43.51455" lon="2.47145">
        <ele>561.179</ele>
        <time>2021-05-22T14:02:37Z</time>
      </trkpt>
      <trkpt lat="43.51455" lon="2.47145">
        <ele>561.19</ele>
        <time>2021-05-22T14:02:39Z</time>
      </trkpt>
      <trkpt lat="43.51455" lon="2.47145">
        <ele>561.214</ele>
        <time>2021-05-22T14:02:41Z</time>
      </trkpt>
      <trkpt lat="43.51455" lon="2.47145">
        <ele>561.227</ele>
        <time>2021-05-22T14:02:43Z</time>
      </trkpt>
      <trkpt lat="43.51455" lon="2.47145">
        <ele>561.251</ele>
        <time>2021-05-22T14:02:45Z</time>
      </trkpt>
      <trkpt lat="43.51455" lon="2.47145">
        <ele>561.278</ele>
        <time>2021-05-22T14:02:47Z</time>
      </trkpt>
      <trkpt lat="43.51455" lon="2.47145">
        <ele>561.294</ele>
        <time>2021-05-22T14:02:49Z</time>
      </trkpt>
      <trkpt lat="43.51455" lon="2.47145">
        <ele>561.305</ele>
        <time>2021-05-22T14:02:51Z</time>
      </trkpt>
      <trkpt lat="43.51455" lon="2.47145">
        <ele>561.316</ele>
        <time>2021-05-22T14:02:53Z</time>
      </trkpt>
      <trkpt lat="43.51455" lon="2.47145">
        <ele>561.341</ele>
        <time>2021-05-22T14:02:55Z</time>
      </trkpt>
      <trkpt lat="43.51455" lon="2.47145">
        <ele>561.355</ele>
        <time>2021-05-22T14:02:57Z</time>
      </trkpt>
      <trkpt lat="43.51455" lon="2.47145">
        <ele>561.375</ele>
        <time>2021-05-22T14:02:59Z</time>
      </trkpt>
      <trkpt lat="43.51455" lon="2.47145">
        <ele>561.395</ele>
        <time>2021-05-22T14:03:01Z</time>
      </trkpt>
      <trkpt lat="43.51455" lon="2.47145">
        <ele>561.409</ele>
        <time>2021-05-22T14:03:03Z</time>
      </trkpt>
      <trkpt lat="43.51455" lon="2.47145">
        <ele>561.414</ele>
        <time>2021-05-22T14:03:05Z</time>
      </trkpt>
      <trkpt lat="43.51455" lon="2.47145">
        <ele>561.424</ele>
        <time>2021-05-22T14:03:07Z</time>
      </trkpt>
      <trkpt lat="43.51455" lon="2.47146">
        <ele>562.903</ele>
        <time>2021-05-22T14:03:09Z</time>
      </trkpt>
      <trkpt lat="43.51455" lon="2.47146">
        <ele>563.54</ele>
        <time>2021-05-22T14:03:11Z</time>
      </trkpt>
      <trkpt lat="43.51456" lon="2.47145">
        <ele>564.394</ele>
        <time>2021-05-22T14:03:13Z</time>
      </trkpt>
      <trkpt lat="43.51456" lon="2.47144">
        <ele>564.499</ele>
        <time>2021-05-22T14:03:15Z</time>
      </trkpt>
      <trkpt lat="43.51457" lon="2.47144">
        <ele>564.979</ele>
        <time>2021-05-22T14:03:17Z</time>
      </trkpt>
      <trkpt lat="43.51459" lon="2.47144">
        <ele>564.938</ele>
        <time>2021-05-22T14:03:19Z</time>
      </trkpt>
      <trkpt lat="43.51459" lon="2.47145">
        <ele>565.305</ele>
        <time>2021-05-22T14:03:21Z</time>
      </trkpt>
      <trkpt lat="43.51459" lon="2.47145">
        <ele>565.319</ele>
        <time>2021-05-22T14:03:23Z</time>
      </trkpt>
      <trkpt lat="43.51459" lon="2.47145">
        <ele>565.328</ele>
        <time>2021-05-22T14:03:25Z</time>
      </trkpt>
      <trkpt lat="43.51459" lon="2.47145">
        <ele>566.761</ele>
        <time>2021-05-22T14:03:27Z</time>
      </trkpt>
      <trkpt lat="43.5146" lon="2.47145">
        <ele>567.639</ele>
        <time>2021-05-22T14:03:29Z</time>
      </trkpt>
      <trkpt lat="43.5146" lon="2.47145">
        <ele>567.948</ele>
        <time>2021-05-22T14:03:31Z</time>
      </trkpt>
      <trkpt lat="43.5146" lon="2.47145">
        <ele>567.972</ele>
        <time>2021-05-22T14:03:33Z</time>
      </trkpt>
      <trkpt lat="43.5146" lon="2.47145">
        <ele>567.977</ele>
        <time>2021-05-22T14:03:35Z</time>
      </trkpt>
      <trkpt lat="43.5146" lon="2.47145">
        <ele>567.768</ele>
        <time>2021-05-22T14:03:37Z</time>
      </trkpt>
      <trkpt lat="43.5146" lon="2.47145">
        <ele>567.768</ele>
        <time>2021-05-22T14:03:39Z</time>
      </trkpt>
      <trkpt lat="43.5146" lon="2.47145">
        <ele>567.938</ele>
        <time>2021-05-22T14:03:41Z</time>
      </trkpt>
      <trkpt lat="43.51459" lon="2.47144">
        <ele>567.923</ele>
        <time>2021-05-22T14:03:43Z</time>
      </trkpt>
      <trkpt lat="43.51459" lon="2.47144">
        <ele>568.696</ele>
        <time>2021-05-22T14:03:45Z</time>
      </trkpt>
      <trkpt lat="43.5146" lon="2.47144">
        <ele>568.734</ele>
        <time>2021-05-22T14:03:47Z</time>
      </trkpt>
      <trkpt lat="43.5146" lon="2.47144">
        <ele>568.746</ele>
        <time>2021-05-22T14:03:49Z</time>
      </trkpt>
      <trkpt lat="43.5146" lon="2.47145">
        <ele>568.765</ele>
        <time>2021-05-22T14:03:51Z</time>
      </trkpt>
      <trkpt lat="43.5146" lon="2.47145">
        <ele>569.332</ele>
        <time>2021-05-22T14:03:53Z</time>
      </trkpt>
      <trkpt lat="43.51461" lon="2.47146">
        <ele>568.902</ele>
        <time>2021-05-22T14:03:55Z</time>
      </trkpt>
      <trkpt lat="43.51461" lon="2.47145">
        <ele>569.318</ele>
        <time>2021-05-22T14:03:57Z</time>
      </trkpt>
      <trkpt lat="43.51461" lon="2.47144">
        <ele>569.293</ele>
        <time>2021-05-22T14:03:59Z</time>
      </trkpt>
      <trkpt lat="43.51462" lon="2.47143">
        <ele>569.314</ele>
        <time>2021-05-22T14:04:01Z</time>
      </trkpt>
      <trkpt lat="43.51463" lon="2.47142">
        <ele>569.422</ele>
        <time>2021-05-22T14:04:03Z</time>
      </trkpt>
      <trkpt lat="43.51463" lon="2.47141">
        <ele>569.227</ele>
        <time>2021-05-22T14:04:05Z</time>
      </trkpt>
      <trkpt lat="43.51463" lon="2.47141">
        <ele>569.239</ele>
        <time>2021-05-22T14:04:07Z</time>
      </trkpt>
      <trkpt lat="43.51463" lon="2.47141">
        <ele>569.239</ele>
        <time>2021-05-22T14:04:09Z</time>
      </trkpt>
      <trkpt lat="43.51463" lon="2.47141">
        <ele>569.241</ele>
        <time>2021-05-22T14:04:11Z</time>
      </trkpt>
      <trkpt lat="43.51463" lon="2.47141">
        <ele>569.242</ele>
        <time>2021-05-22T14:04:13Z</time>
      </trkpt>
      <trkpt lat="43.51463" lon="2.47141">
        <ele>569.244</ele>
        <time>2021-05-22T14:04:15Z</time>
      </trkpt>
      <trkpt lat="43.51463" lon="2.47141">
        <ele>569.245</ele>
        <time>2021-05-22T14:04:17Z</time>
      </trkpt>
      <trkpt lat="43.51463" lon="2.47141">
        <ele>569.25</ele>
        <time>2021-05-22T14:04:19Z</time>
      </trkpt>
      <trkpt lat="43.51463" lon="2.47141">
        <ele>569.254</ele>
        <time>2021-05-22T14:04:21Z</time>
      </trkpt>
      <trkpt lat="43.51463" lon="2.47141">
        <ele>569.247</ele>
        <time>2021-05-22T14:04:23Z</time>
      </trkpt>
      <trkpt lat="43.51463" lon="2.47141">
        <ele>569.253</ele>
        <time>2021-05-22T14:04:25Z</time>
      </trkpt>
      <trkpt lat="43.51463" lon="2.47141">
        <ele>569.261</ele>
        <time>2021-05-22T14:04:27Z</time>
      </trkpt>
      <trkpt lat="43.51463" lon="2.47141">
        <ele>569.247</ele>
        <time>2021-05-22T14:04:29Z</time>
      </trkpt>
      <trkpt lat="43.51463" lon="2.47141">
        <ele>569.24</ele>
        <time>2021-05-22T14:04:31Z</time>
      </trkpt>
      <trkpt lat="43.51463" lon="2.47141">
        <ele>569.232</ele>
        <time>2021-05-22T14:04:33Z</time>
      </trkpt>
      <trkpt lat="43.51463" lon="2.47141">
        <ele>569.225</ele>
        <time>2021-05-22T14:04:35Z</time>
      </trkpt>
      <trkpt lat="43.51463" lon="2.47141">
        <ele>569.217</ele>
        <time>2021-05-22T14:04:37Z</time>
      </trkpt>
      <trkpt lat="43.51463" lon="2.47141">
        <ele>569.219</ele>
        <time>2021-05-22T14:04:39Z</time>
      </trkpt>
      <trkpt lat="43.51463" lon="2.47141">
        <ele>569.229</ele>
        <time>2021-05-22T14:04:41Z</time>
      </trkpt>
      <trkpt lat="43.51463" lon="2.47141">
        <ele>569.236</ele>
        <time>2021-05-22T14:04:43Z</time>
      </trkpt>
      <trkpt lat="43.51463" lon="2.47141">
        <ele>569.244</ele>
        <time>2021-05-22T14:04:45Z</time>
      </trkpt>
      <trkpt lat="43.51463" lon="2.47141">
        <ele>569.25</ele>
        <time>2021-05-22T14:04:47Z</time>
      </trkpt>
      <trkpt lat="43.51463" lon="2.47141">
        <ele>569.265</ele>
        <time>2021-05-22T14:04:49Z</time>
      </trkpt>
      <trkpt lat="43.51463" lon="2.47141">
        <ele>569.274</ele>
        <time>2021-05-22T14:04:51Z</time>
      </trkpt>
      <trkpt lat="43.51463" lon="2.47141">
        <ele>569.285</ele>
        <time>2021-05-22T14:04:53Z</time>
      </trkpt>
      <trkpt lat="43.51463" lon="2.47141">
        <ele>568.955</ele>
        <time>2021-05-22T14:04:55Z</time>
      </trkpt>
      <trkpt lat="43.51463" lon="2.47141">
        <ele>568.406</ele>
        <time>2021-05-22T14:04:57Z</time>
      </trkpt>
      <trkpt lat="43.51462" lon="2.47142">
        <ele>568.126</ele>
        <time>2021-05-22T14:04:59Z</time>
      </trkpt>
      <trkpt lat="43.51461" lon="2.47143">
        <ele>567.259</ele>
        <time>2021-05-22T14:05:01Z</time>
      </trkpt>
      <trkpt lat="43.5146" lon="2.47143">
        <ele>566.942</ele>
        <time>2021-05-22T14:05:03Z</time>
      </trkpt>
      <trkpt lat="43.51458" lon="2.47144">
        <ele>567.015</ele>
        <time>2021-05-22T14:05:05Z</time>
      </trkpt>
      <trkpt lat="43.51457" lon="2.47145">
        <ele>566.793</ele>
        <time>2021-05-22T14:05:07Z</time>
      </trkpt>
      <trkpt lat="43.51456" lon="2.47144">
        <ele>565.72</ele>
        <time>2021-05-22T14:05:09Z</time>
      </trkpt>
      <trkpt lat="43.51455" lon="2.47143">
        <ele>564.68</ele>
        <time>2021-05-22T14:05:11Z</time>
      </trkpt>
      <trkpt lat="43.51454" lon="2.47144">
        <ele>564.455</ele>
        <time>2021-05-22T14:05:13Z</time>
      </trkpt>
      <trkpt lat="43.51453" lon="2.47144">
        <ele>565.269</ele>
        <time>2021-05-22T14:05:15Z</time>
      </trkpt>
      <trkpt lat="43.51452" lon="2.47146">
        <ele>566.158</ele>
        <time>2021-05-22T14:05:17Z</time>
      </trkpt>
      <trkpt lat="43.51452" lon="2.47145">
        <ele>565.834</ele>
        <time>2021-05-22T14:05:19Z</time>
      </trkpt>
      <trkpt lat="43.51452" lon="2.47145">
        <ele>565.838</ele>
        <time>2021-05-22T14:05:21Z</time>
      </trkpt>
      <trkpt lat="43.51452" lon="2.47145">
        <ele>565.832</ele>
        <time>2021-05-22T14:05:23Z</time>
      </trkpt>
      <trkpt lat="43.51452" lon="2.47145">
        <ele>565.82</ele>
        <time>2021-05-22T14:05:25Z</time>
      </trkpt>
      <trkpt lat="43.51452" lon="2.47145">
        <ele>565.811</ele>
        <time>2021-05-22T14:05:27Z</time>
      </trkpt>
      <trkpt lat="43.51452" lon="2.47145">
        <ele>565.804</ele>
        <time>2021-05-22T14:05:29Z</time>
      </trkpt>
      <trkpt lat="43.51452" lon="2.47145">
        <ele>565.799</ele>
        <time>2021-05-22T14:05:31Z</time>
      </trkpt>
      <trkpt lat="43.51452" lon="2.47145">
        <ele>565.791</ele>
        <time>2021-05-22T14:05:33Z</time>
      </trkpt>
      <trkpt lat="43.51452" lon="2.47145">
        <ele>565.797</ele>
        <time>2021-05-22T14:05:35Z</time>
      </trkpt>
      <trkpt lat="43.51452" lon="2.47145">
        <ele>565.801</ele>
        <time>2021-05-22T14:05:37Z</time>
      </trkpt>
      <trkpt lat="43.51452" lon="2.47145">
        <ele>565.802</ele>
        <time>2021-05-22T14:05:39Z</time>
      </trkpt>
      <trkpt lat="43.51452" lon="2.47145">
        <ele>565.803</ele>
        <time>2021-05-22T14:05:41Z</time>
      </trkpt>
      <trkpt lat="43.51452" lon="2.47145">
        <ele>565.803</ele>
        <time>2021-05-22T14:05:43Z</time>
      </trkpt>
      <trkpt lat="43.51452" lon="2.47145">
        <ele>565.804</ele>
        <time>2021-05-22T14:05:45Z</time>
      </trkpt>
      <trkpt lat="43.51452" lon="2.47145">
        <ele>565.799</ele>
        <time>2021-05-22T14:05:47Z</time>
      </trkpt>
      <trkpt lat="43.51452" lon="2.47145">
        <ele>565.797</ele>
        <time>2021-05-22T14:05:49Z</time>
      </trkpt>
      <trkpt lat="43.51452" lon="2.47145">
        <ele>565.799</ele>
        <time>2021-05-22T14:05:51Z</time>
      </trkpt>
      <trkpt lat="43.51452" lon="2.47145">
        <ele>565.803</ele>
        <time>2021-05-22T14:05:53Z</time>
      </trkpt>
      <trkpt lat="43.51452" lon="2.47145">
        <ele>565.802</ele>
        <time>2021-05-22T14:05:55Z</time>
      </trkpt>
      <trkpt lat="43.51452" lon="2.47145">
        <ele>565.796</ele>
        <time>2021-05-22T14:05:57Z</time>
      </trkpt>
      <trkpt lat="43.51452" lon="2.47145">
        <ele>565.794</ele>
        <time>2021-05-22T14:05:59Z</time>
      </trkpt>
      <trkpt lat="43.51452" lon="2.47145">
        <ele>565.793</ele>
        <time>2021-05-22T14:06:01Z</time>
      </trkpt>
      <trkpt lat="43.51452" lon="2.47145">
        <ele>565.797</ele>
        <time>2021-05-22T14:06:03Z</time>
      </trkpt>
      <trkpt lat="43.51452" lon="2.47145">
        <ele>565.795</ele>
        <time>2021-05-22T14:06:05Z</time>
      </trkpt>
      <trkpt lat="43.51452" lon="2.47145">
        <ele>565.787</ele>
        <time>2021-05-22T14:06:07Z</time>
      </trkpt>
      <trkpt lat="43.51452" lon="2.47145">
        <ele>565.782</ele>
        <time>2021-05-22T14:06:09Z</time>
      </trkpt>
      <trkpt lat="43.51452" lon="2.47145">
        <ele>565.779</ele>
        <time>2021-05-22T14:06:11Z</time>
      </trkpt>
      <trkpt lat="43.51452" lon="2.47145">
        <ele>565.775</ele>
        <time>2021-05-22T14:06:13Z</time>
      </trkpt>
      <trkpt lat="43.51452" lon="2.47145">
        <ele>565.773</ele>
        <time>2021-05-22T14:06:15Z</time>
      </trkpt>
      <trkpt lat="43.51452" lon="2.47145">
        <ele>565.771</ele>
        <time>2021-05-22T14:06:17Z</time>
      </trkpt>
      <trkpt lat="43.51452" lon="2.47145">
        <ele>565.771</ele>
        <time>2021-05-22T14:06:19Z</time>
      </trkpt>
      <trkpt lat="43.51452" lon="2.47145">
        <ele>565.768</ele>
        <time>2021-05-22T14:06:21Z</time>
      </trkpt>
      <trkpt lat="43.51452" lon="2.47145">
        <ele>565.764</ele>
        <time>2021-05-22T14:06:23Z</time>
      </trkpt>
      <trkpt lat="43.51452" lon="2.47145">
        <ele>565.765</ele>
        <time>2021-05-22T14:06:25Z</time>
      </trkpt>
      <trkpt lat="43.51452" lon="2.47145">
        <ele>565.768</ele>
        <time>2021-05-22T14:06:27Z</time>
      </trkpt>
      <trkpt lat="43.51452" lon="2.47145">
        <ele>565.767</ele>
        <time>2021-05-22T14:06:29Z</time>
      </trkpt>
      <trkpt lat="43.51452" lon="2.47145">
        <ele>565.765</ele>
        <time>2021-05-22T14:06:31Z</time>
      </trkpt>
      <trkpt lat="43.51452" lon="2.47145">
        <ele>565.761</ele>
        <time>2021-05-22T14:06:33Z</time>
      </trkpt>
      <trkpt lat="43.51452" lon="2.47145">
        <ele>565.746</ele>
        <time>2021-05-22T14:06:35Z</time>
      </trkpt>
      <trkpt lat="43.51452" lon="2.47145">
        <ele>565.75</ele>
        <time>2021-05-22T14:06:37Z</time>
      </trkpt>
      <trkpt lat="43.51452" lon="2.47145">
        <ele>565.738</ele>
        <time>2021-05-22T14:06:39Z</time>
      </trkpt>
      <trkpt lat="43.51452" lon="2.47145">
        <ele>565.736</ele>
        <time>2021-05-22T14:06:41Z</time>
      </trkpt>
      <trkpt lat="43.51452" lon="2.47145">
        <ele>565.729</ele>
        <time>2021-05-22T14:06:43Z</time>
      </trkpt>
      <trkpt lat="43.51452" lon="2.47145">
        <ele>565.722</ele>
        <time>2021-05-22T14:06:45Z</time>
      </trkpt>
      <trkpt lat="43.51452" lon="2.47145">
        <ele>565.715</ele>
        <time>2021-05-22T14:06:47Z</time>
      </trkpt>
      <trkpt lat="43.51452" lon="2.47145">
        <ele>565.707</ele>
        <time>2021-05-22T14:06:49Z</time>
      </trkpt>
      <trkpt lat="43.51452" lon="2.47145">
        <ele>565.701</ele>
        <time>2021-05-22T14:06:51Z</time>
      </trkpt>
      <trkpt lat="43.51452" lon="2.47145">
        <ele>565.699</ele>
        <time>2021-05-22T14:06:53Z</time>
      </trkpt>
      <trkpt lat="43.51452" lon="2.47145">
        <ele>565.697</ele>
        <time>2021-05-22T14:06:55Z</time>
      </trkpt>
      <trkpt lat="43.51452" lon="2.47145">
        <ele>565.696</ele>
        <time>2021-05-22T14:06:57Z</time>
      </trkpt>
      <trkpt lat="43.51452" lon="2.47145">
        <ele>565.689</ele>
        <time>2021-05-22T14:06:59Z</time>
      </trkpt>
      <trkpt lat="43.51452" lon="2.47145">
        <ele>565.686</ele>
        <time>2021-05-22T14:07:01Z</time>
      </trkpt>
      <trkpt lat="43.51452" lon="2.47145">
        <ele>565.693</ele>
        <time>2021-05-22T14:07:03Z</time>
      </trkpt>
      <trkpt lat="43.51452" lon="2.47145">
        <ele>565.687</ele>
        <time>2021-05-22T14:07:05Z</time>
      </trkpt>
      <trkpt lat="43.51452" lon="2.47145">
        <ele>565.682</ele>
        <time>2021-05-22T14:07:07Z</time>
      </trkpt>
      <trkpt lat="43.51452" lon="2.47145">
        <ele>565.679</ele>
        <time>2021-05-22T14:07:09Z</time>
      </trkpt>
      <trkpt lat="43.51452" lon="2.47145">
        <ele>565.668</ele>
        <time>2021-05-22T14:07:11Z</time>
      </trkpt>
      <trkpt lat="43.51452" lon="2.47145">
        <ele>565.66</ele>
        <time>2021-05-22T14:07:13Z</time>
      </trkpt>
      <trkpt lat="43.51452" lon="2.47145">
        <ele>565.649</ele>
        <time>2021-05-22T14:07:15Z</time>
      </trkpt>
      <trkpt lat="43.51452" lon="2.47145">
        <ele>565.63</ele>
        <time>2021-05-22T14:07:17Z</time>
      </trkpt>
      <trkpt lat="43.51452" lon="2.47145">
        <ele>565.626</ele>
        <time>2021-05-22T14:07:19Z</time>
      </trkpt>
      <trkpt lat="43.51452" lon="2.47145">
        <ele>565.621</ele>
        <time>2021-05-22T14:07:21Z</time>
      </trkpt>
      <trkpt lat="43.51452" lon="2.47146">
        <ele>565.172</ele>
        <time>2021-05-22T14:07:23Z</time>
      </trkpt>
      <trkpt lat="43.51454" lon="2.47145">
        <ele>564.884</ele>
        <time>2021-05-22T14:07:25Z</time>
      </trkpt>
      <trkpt lat="43.51454" lon="2.47145">
        <ele>564.634</ele>
        <time>2021-05-22T14:07:27Z</time>
      </trkpt>
      <trkpt lat="43.51454" lon="2.47145">
        <ele>564.183</ele>
        <time>2021-05-22T14:07:29Z</time>
      </trkpt>
      <trkpt lat="43.51455" lon="2.47145">
        <ele>564.805</ele>
        <time>2021-05-22T14:07:31Z</time>
      </trkpt>
      <trkpt lat="43.51456" lon="2.47146">
        <ele>565.467</ele>
        <time>2021-05-22T14:07:33Z</time>
      </trkpt>
      <trkpt lat="43.51457" lon="2.47147">
        <ele>565.845</ele>
        <time>2021-05-22T14:07:35Z</time>
      </trkpt>
      <trkpt lat="43.51456" lon="2.47147">
        <ele>565.33</ele>
        <time>2021-05-22T14:07:37Z</time>
      </trkpt>
      <trkpt lat="43.51458" lon="2.47146">
        <ele>565.984</ele>
        <time>2021-05-22T14:07:39Z</time>
      </trkpt>
      <trkpt lat="43.51459" lon="2.47144">
        <ele>564.808</ele>
        <time>2021-05-22T14:07:41Z</time>
      </trkpt>
      <trkpt lat="43.5146" lon="2.4714">
        <ele>565.472</ele>
        <time>2021-05-22T14:07:43Z</time>
      </trkpt>
      <trkpt lat="43.51462" lon="2.47138">
        <ele>565.168</ele>
        <time>2021-05-22T14:07:45Z</time>
      </trkpt>
      <trkpt lat="43.51464" lon="2.47136">
        <ele>566.647</ele>
        <time>2021-05-22T14:07:47Z</time>
      </trkpt>
      <trkpt lat="43.51466" lon="2.47134">
        <ele>566.082</ele>
        <time>2021-05-22T14:07:49Z</time>
      </trkpt>
      <trkpt lat="43.5147" lon="2.47132">
        <ele>565.137</ele>
        <time>2021-05-22T14:07:51Z</time>
      </trkpt>
      <trkpt lat="43.51473" lon="2.47131">
        <ele>564.633</ele>
        <time>2021-05-22T14:07:53Z</time>
      </trkpt>
      <trkpt lat="43.51476" lon="2.47129">
        <ele>564.699</ele>
        <time>2021-05-22T14:07:55Z</time>
      </trkpt>
      <trkpt lat="43.51477" lon="2.47128">
        <ele>565.058</ele>
        <time>2021-05-22T14:07:57Z</time>
      </trkpt>
      <trkpt lat="43.51479" lon="2.47127">
        <ele>565.615</ele>
        <time>2021-05-22T14:07:59Z</time>
      </trkpt>
      <trkpt lat="43.51481" lon="2.47126">
        <ele>566.255</ele>
        <time>2021-05-22T14:08:01Z</time>
      </trkpt>
      <trkpt lat="43.51483" lon="2.47126">
        <ele>566.255</ele>
        <time>2021-05-22T14:08:03Z</time>
      </trkpt>
      <trkpt lat="43.51485" lon="2.47125">
        <ele>565.881</ele>
        <time>2021-05-22T14:08:05Z</time>
      </trkpt>
      <trkpt lat="43.51487" lon="2.47124">
        <ele>567.278</ele>
        <time>2021-05-22T14:08:07Z</time>
      </trkpt>
      <trkpt lat="43.51489" lon="2.47123">
        <ele>566.772</ele>
        <time>2021-05-22T14:08:09Z</time>
      </trkpt>
      <trkpt lat="43.51491" lon="2.47122">
        <ele>568.174</ele>
        <time>2021-05-22T14:08:11Z</time>
      </trkpt>
      <trkpt lat="43.51493" lon="2.47121">
        <ele>568.482</ele>
        <time>2021-05-22T14:08:13Z</time>
      </trkpt>
      <trkpt lat="43.51495" lon="2.47119">
        <ele>568.33</ele>
        <time>2021-05-22T14:08:15Z</time>
      </trkpt>
      <trkpt lat="43.51497" lon="2.47118">
        <ele>569.206</ele>
        <time>2021-05-22T14:08:17Z</time>
      </trkpt>
      <trkpt lat="43.51499" lon="2.47117">
        <ele>570.215</ele>
        <time>2021-05-22T14:08:19Z</time>
      </trkpt>
      <trkpt lat="43.51501" lon="2.47116">
        <ele>571.187</ele>
        <time>2021-05-22T14:08:21Z</time>
      </trkpt>
      <trkpt lat="43.51503" lon="2.47115">
        <ele>572.233</ele>
        <time>2021-05-22T14:08:23Z</time>
      </trkpt>
      <trkpt lat="43.51505" lon="2.47115">
        <ele>571.468</ele>
        <time>2021-05-22T14:08:25Z</time>
      </trkpt>
      <trkpt lat="43.51507" lon="2.47114">
        <ele>572.11</ele>
        <time>2021-05-22T14:08:27Z</time>
      </trkpt>
      <trkpt lat="43.51509" lon="2.47113">
        <ele>572.974</ele>
        <time>2021-05-22T14:08:29Z</time>
      </trkpt>
      <trkpt lat="43.51511" lon="2.47111">
        <ele>573.51</ele>
        <time>2021-05-22T14:08:31Z</time>
      </trkpt>
      <trkpt lat="43.51513" lon="2.4711">
        <ele>571.005</ele>
        <time>2021-05-22T14:08:33Z</time>
      </trkpt>
      <trkpt lat="43.51516" lon="2.47109">
        <ele>571.404</ele>
        <time>2021-05-22T14:08:35Z</time>
      </trkpt>
      <trkpt lat="43.51518" lon="2.47108">
        <ele>571.383</ele>
        <time>2021-05-22T14:08:37Z</time>
      </trkpt>
      <trkpt lat="43.5152" lon="2.47107">
        <ele>571.094</ele>
        <time>2021-05-22T14:08:39Z</time>
      </trkpt>
      <trkpt lat="43.51523" lon="2.47107">
        <ele>571.015</ele>
        <time>2021-05-22T14:08:41Z</time>
      </trkpt>
      <trkpt lat="43.51526" lon="2.47106">
        <ele>569.674</ele>
        <time>2021-05-22T14:08:43Z</time>
      </trkpt>
      <trkpt lat="43.51529" lon="2.47105">
        <ele>570.039</ele>
        <time>2021-05-22T14:08:45Z</time>
      </trkpt>
      <trkpt lat="43.51531" lon="2.47104">
        <ele>568.867</ele>
        <time>2021-05-22T14:08:47Z</time>
      </trkpt>
      <trkpt lat="43.51533" lon="2.47104">
        <ele>568.346</ele>
        <time>2021-05-22T14:08:49Z</time>
      </trkpt>
      <trkpt lat="43.51536" lon="2.47104">
        <ele>571.167</ele>
        <time>2021-05-22T14:08:51Z</time>
      </trkpt>
      <trkpt lat="43.51538" lon="2.47104">
        <ele>571.3</ele>
        <time>2021-05-22T14:08:53Z</time>
      </trkpt>
      <trkpt lat="43.51541" lon="2.47103">
        <ele>570.487</ele>
        <time>2021-05-22T14:08:55Z</time>
      </trkpt>
      <trkpt lat="43.51543" lon="2.47101">
        <ele>568.882</ele>
        <time>2021-05-22T14:08:57Z</time>
      </trkpt>
      <trkpt lat="43.51545" lon="2.471">
        <ele>568.928</ele>
        <time>2021-05-22T14:08:59Z</time>
      </trkpt>
      <trkpt lat="43.51548" lon="2.47099">
        <ele>570.426</ele>
        <time>2021-05-22T14:09:01Z</time>
      </trkpt>
      <trkpt lat="43.5155" lon="2.47097">
        <ele>570.954</ele>
        <time>2021-05-22T14:09:03Z</time>
      </trkpt>
      <trkpt lat="43.51552" lon="2.47095">
        <ele>571.187</ele>
        <time>2021-05-22T14:09:05Z</time>
      </trkpt>
      <trkpt lat="43.51553" lon="2.47093">
        <ele>570.558</ele>
        <time>2021-05-22T14:09:07Z</time>
      </trkpt>
      <trkpt lat="43.51554" lon="2.47091">
        <ele>570.445</ele>
        <time>2021-05-22T14:09:09Z</time>
      </trkpt>
      <trkpt lat="43.51555" lon="2.47088">
        <ele>569.769</ele>
        <time>2021-05-22T14:09:11Z</time>
      </trkpt>
      <trkpt lat="43.51556" lon="2.47085">
        <ele>569.619</ele>
        <time>2021-05-22T14:09:13Z</time>
      </trkpt>
      <trkpt lat="43.51558" lon="2.47082">
        <ele>570.039</ele>
        <time>2021-05-22T14:09:15Z</time>
      </trkpt>
      <trkpt lat="43.51559" lon="2.4708">
        <ele>569.515</ele>
        <time>2021-05-22T14:09:17Z</time>
      </trkpt>
      <trkpt lat="43.5156" lon="2.47078">
        <ele>569.221</ele>
        <time>2021-05-22T14:09:19Z</time>
      </trkpt>
      <trkpt lat="43.5156" lon="2.47075">
        <ele>569.51</ele>
        <time>2021-05-22T14:09:21Z</time>
      </trkpt>
      <trkpt lat="43.51559" lon="2.47073">
        <ele>570.238</ele>
        <time>2021-05-22T14:09:23Z</time>
      </trkpt>
      <trkpt lat="43.5156" lon="2.4707">
        <ele>571.646</ele>
        <time>2021-05-22T14:09:25Z</time>
      </trkpt>
      <trkpt lat="43.51561" lon="2.47067">
        <ele>571.547</ele>
        <time>2021-05-22T14:09:27Z</time>
      </trkpt>
      <trkpt lat="43.51562" lon="2.47065">
        <ele>571.622</ele>
        <time>2021-05-22T14:09:29Z</time>
      </trkpt>
      <trkpt lat="43.51563" lon="2.47062">
        <ele>572.036</ele>
        <time>2021-05-22T14:09:31Z</time>
      </trkpt>
      <trkpt lat="43.51563" lon="2.47058">
        <ele>572.796</ele>
        <time>2021-05-22T14:09:33Z</time>
      </trkpt>
      <trkpt lat="43.51564" lon="2.47053">
        <ele>573.498</ele>
        <time>2021-05-22T14:09:35Z</time>
      </trkpt>
      <trkpt lat="43.51565" lon="2.4705">
        <ele>574.175</ele>
        <time>2021-05-22T14:09:37Z</time>
      </trkpt>
      <trkpt lat="43.51566" lon="2.47046">
        <ele>574.251</ele>
        <time>2021-05-22T14:09:39Z</time>
      </trkpt>
      <trkpt lat="43.51568" lon="2.47043">
        <ele>574.66</ele>
        <time>2021-05-22T14:09:41Z</time>
      </trkpt>
      <trkpt lat="43.5157" lon="2.4704">
        <ele>575.187</ele>
        <time>2021-05-22T14:09:43Z</time>
      </trkpt>
      <trkpt lat="43.51573" lon="2.47038">
        <ele>575.129</ele>
        <time>2021-05-22T14:09:45Z</time>
      </trkpt>
      <trkpt lat="43.51575" lon="2.47036">
        <ele>575.69</ele>
        <time>2021-05-22T14:09:47Z</time>
      </trkpt>
      <trkpt lat="43.51577" lon="2.47034">
        <ele>576.162</ele>
        <time>2021-05-22T14:09:49Z</time>
      </trkpt>
      <trkpt lat="43.51579" lon="2.47032">
        <ele>576.477</ele>
        <time>2021-05-22T14:09:51Z</time>
      </trkpt>
      <trkpt lat="43.5158" lon="2.4703">
        <ele>577.135</ele>
        <time>2021-05-22T14:09:53Z</time>
      </trkpt>
      <trkpt lat="43.51582" lon="2.47028">
        <ele>576.967</ele>
        <time>2021-05-22T14:09:55Z</time>
      </trkpt>
      <trkpt lat="43.51583" lon="2.47026">
        <ele>577.055</ele>
        <time>2021-05-22T14:09:57Z</time>
      </trkpt>
      <trkpt lat="43.51584" lon="2.47024">
        <ele>577.568</ele>
        <time>2021-05-22T14:09:59Z</time>
      </trkpt>
      <trkpt lat="43.51586" lon="2.47023">
        <ele>577.55</ele>
        <time>2021-05-22T14:10:01Z</time>
      </trkpt>
      <trkpt lat="43.51587" lon="2.47021">
        <ele>577.689</ele>
        <time>2021-05-22T14:10:03Z</time>
      </trkpt>
      <trkpt lat="43.5159" lon="2.47019">
        <ele>578.06</ele>
        <time>2021-05-22T14:10:05Z</time>
      </trkpt>
      <trkpt lat="43.51593" lon="2.47019">
        <ele>577.785</ele>
        <time>2021-05-22T14:10:07Z</time>
      </trkpt>
      <trkpt lat="43.51596" lon="2.47018">
        <ele>578.703</ele>
        <time>2021-05-22T14:10:09Z</time>
      </trkpt>
      <trkpt lat="43.51599" lon="2.47017">
        <ele>579.137</ele>
        <time>2021-05-22T14:10:11Z</time>
      </trkpt>
      <trkpt lat="43.51601" lon="2.47016">
        <ele>579.378</ele>
        <time>2021-05-22T14:10:13Z</time>
      </trkpt>
      <trkpt lat="43.51602" lon="2.47016">
        <ele>580.118</ele>
        <time>2021-05-22T14:10:15Z</time>
      </trkpt>
      <trkpt lat="43.51604" lon="2.47016">
        <ele>580.06</ele>
        <time>2021-05-22T14:10:17Z</time>
      </trkpt>
      <trkpt lat="43.51606" lon="2.47017">
        <ele>579.93</ele>
        <time>2021-05-22T14:10:19Z</time>
      </trkpt>
      <trkpt lat="43.51608" lon="2.47018">
        <ele>579.032</ele>
        <time>2021-05-22T14:10:21Z</time>
      </trkpt>
      <trkpt lat="43.51612" lon="2.47018">
        <ele>578.868</ele>
        <time>2021-05-22T14:10:23Z</time>
      </trkpt>
      <trkpt lat="43.51614" lon="2.47019">
        <ele>578.975</ele>
        <time>2021-05-22T14:10:25Z</time>
      </trkpt>
      <trkpt lat="43.51616" lon="2.47021">
        <ele>579.244</ele>
        <time>2021-05-22T14:10:27Z</time>
      </trkpt>
      <trkpt lat="43.51618" lon="2.47023">
        <ele>579.899</ele>
        <time>2021-05-22T14:10:29Z</time>
      </trkpt>
      <trkpt lat="43.51619" lon="2.47024">
        <ele>579.827</ele>
        <time>2021-05-22T14:10:30Z</time>
      </trkpt>
      <trkpt lat="43.51622" lon="2.47026">
        <ele>579.206</ele>
        <time>2021-05-22T14:10:33Z</time>
      </trkpt>
      <trkpt lat="43.51624" lon="2.47029">
        <ele>578.493</ele>
        <time>2021-05-22T14:10:35Z</time>
      </trkpt>
      <trkpt lat="43.51626" lon="2.47031">
        <ele>578.615</ele>
        <time>2021-05-22T14:10:37Z</time>
      </trkpt>
      <trkpt lat="43.51628" lon="2.47033">
        <ele>578.675</ele>
        <time>2021-05-22T14:10:39Z</time>
      </trkpt>
      <trkpt lat="43.5163" lon="2.47036">
        <ele>578.707</ele>
        <time>2021-05-22T14:10:41Z</time>
      </trkpt>
      <trkpt lat="43.51632" lon="2.47039">
        <ele>578.692</ele>
        <time>2021-05-22T14:10:43Z</time>
      </trkpt>
      <trkpt lat="43.51633" lon="2.47041">
        <ele>578.598</ele>
        <time>2021-05-22T14:10:45Z</time>
      </trkpt>
      <trkpt lat="43.51635" lon="2.47043">
        <ele>578.369</ele>
        <time>2021-05-22T14:10:47Z</time>
      </trkpt>
      <trkpt lat="43.51637" lon="2.47046">
        <ele>578.186</ele>
        <time>2021-05-22T14:10:49Z</time>
      </trkpt>
      <trkpt lat="43.51639" lon="2.47048">
        <ele>577.868</ele>
        <time>2021-05-22T14:10:51Z</time>
      </trkpt>
      <trkpt lat="43.5164" lon="2.4705">
        <ele>577.978</ele>
        <time>2021-05-22T14:10:53Z</time>
      </trkpt>
      <trkpt lat="43.51642" lon="2.47053">
        <ele>578.509</ele>
        <time>2021-05-22T14:10:55Z</time>
      </trkpt>
      <trkpt lat="43.51643" lon="2.47056">
        <ele>578.954</ele>
        <time>2021-05-22T14:10:57Z</time>
      </trkpt>
      <trkpt lat="43.51644" lon="2.47058">
        <ele>579.73</ele>
        <time>2021-05-22T14:10:59Z</time>
      </trkpt>
      <trkpt lat="43.51645" lon="2.47061">
        <ele>580.533</ele>
        <time>2021-05-22T14:11:01Z</time>
      </trkpt>
      <trkpt lat="43.51647" lon="2.47063">
        <ele>580.653</ele>
        <time>2021-05-22T14:11:03Z</time>
      </trkpt>
      <trkpt lat="43.51648" lon="2.47066">
        <ele>580.858</ele>
        <time>2021-05-22T14:11:05Z</time>
      </trkpt>
      <trkpt lat="43.5165" lon="2.47069">
        <ele>580.313</ele>
        <time>2021-05-22T14:11:07Z</time>
      </trkpt>
      <trkpt lat="43.51651" lon="2.47072">
        <ele>580.573</ele>
        <time>2021-05-22T14:11:09Z</time>
      </trkpt>
      <trkpt lat="43.51653" lon="2.47075">
        <ele>580.752</ele>
        <time>2021-05-22T14:11:11Z</time>
      </trkpt>
      <trkpt lat="43.51655" lon="2.47078">
        <ele>581.425</ele>
        <time>2021-05-22T14:11:13Z</time>
      </trkpt>
      <trkpt lat="43.51656" lon="2.47082">
        <ele>581.635</ele>
        <time>2021-05-22T14:11:15Z</time>
      </trkpt>
      <trkpt lat="43.51658" lon="2.47086">
        <ele>581.291</ele>
        <time>2021-05-22T14:11:17Z</time>
      </trkpt>
      <trkpt lat="43.51659" lon="2.47089">
        <ele>581.246</ele>
        <time>2021-05-22T14:11:19Z</time>
      </trkpt>
      <trkpt lat="43.5166" lon="2.47093">
        <ele>581.425</ele>
        <time>2021-05-22T14:11:21Z</time>
      </trkpt>
      <trkpt lat="43.51662" lon="2.47097">
        <ele>581.141</ele>
        <time>2021-05-22T14:11:23Z</time>
      </trkpt>
      <trkpt lat="43.51663" lon="2.47101">
        <ele>582.146</ele>
        <time>2021-05-22T14:11:25Z</time>
      </trkpt>
      <trkpt lat="43.51665" lon="2.47106">
        <ele>583.261</ele>
        <time>2021-05-22T14:11:27Z</time>
      </trkpt>
      <trkpt lat="43.51667" lon="2.47108">
        <ele>583.977</ele>
        <time>2021-05-22T14:11:29Z</time>
      </trkpt>
      <trkpt lat="43.51668" lon="2.4711">
        <ele>584.67</ele>
        <time>2021-05-22T14:11:31Z</time>
      </trkpt>
      <trkpt lat="43.51669" lon="2.47113">
        <ele>585.477</ele>
        <time>2021-05-22T14:11:33Z</time>
      </trkpt>
      <trkpt lat="43.5167" lon="2.47116">
        <ele>585.851</ele>
        <time>2021-05-22T14:11:35Z</time>
      </trkpt>
      <trkpt lat="43.51672" lon="2.4712">
        <ele>586.914</ele>
        <time>2021-05-22T14:11:37Z</time>
      </trkpt>
      <trkpt lat="43.51673" lon="2.47124">
        <ele>586.889</ele>
        <time>2021-05-22T14:11:39Z</time>
      </trkpt>
      <trkpt lat="43.51675" lon="2.47126">
        <ele>586.203</ele>
        <time>2021-05-22T14:11:41Z</time>
      </trkpt>
      <trkpt lat="43.51677" lon="2.47131">
        <ele>586.691</ele>
        <time>2021-05-22T14:11:43Z</time>
      </trkpt>
      <trkpt lat="43.51678" lon="2.47134">
        <ele>587.283</ele>
        <time>2021-05-22T14:11:45Z</time>
      </trkpt>
      <trkpt lat="43.5168" lon="2.47135">
        <ele>586.234</ele>
        <time>2021-05-22T14:11:47Z</time>
      </trkpt>
      <trkpt lat="43.51682" lon="2.47138">
        <ele>585.407</ele>
        <time>2021-05-22T14:11:49Z</time>
      </trkpt>
      <trkpt lat="43.51683" lon="2.47141">
        <ele>585.878</ele>
        <time>2021-05-22T14:11:51Z</time>
      </trkpt>
      <trkpt lat="43.51685" lon="2.47143">
        <ele>589.189</ele>
        <time>2021-05-22T14:11:53Z</time>
      </trkpt>
      <trkpt lat="43.51686" lon="2.47146">
        <ele>590.15</ele>
        <time>2021-05-22T14:11:55Z</time>
      </trkpt>
      <trkpt lat="43.51688" lon="2.47148">
        <ele>589.352</ele>
        <time>2021-05-22T14:11:57Z</time>
      </trkpt>
      <trkpt lat="43.5169" lon="2.4715">
        <ele>589.939</ele>
        <time>2021-05-22T14:11:59Z</time>
      </trkpt>
      <trkpt lat="43.51692" lon="2.47151">
        <ele>589.12</ele>
        <time>2021-05-22T14:12:01Z</time>
      </trkpt>
      <trkpt lat="43.5169" lon="2.47154">
        <ele>587.442</ele>
        <time>2021-05-22T14:12:03Z</time>
      </trkpt>
      <trkpt lat="43.5169" lon="2.47152">
        <ele>585.489</ele>
        <time>2021-05-22T14:12:05Z</time>
      </trkpt>
      <trkpt lat="43.5169" lon="2.47152">
        <ele>585.468</ele>
        <time>2021-05-22T14:12:07Z</time>
      </trkpt>
      <trkpt lat="43.5169" lon="2.47152">
        <ele>585.463</ele>
        <time>2021-05-22T14:12:09Z</time>
      </trkpt>
      <trkpt lat="43.5169" lon="2.47152">
        <ele>585.473</ele>
        <time>2021-05-22T14:12:11Z</time>
      </trkpt>
      <trkpt lat="43.5169" lon="2.47152">
        <ele>585.475</ele>
        <time>2021-05-22T14:12:13Z</time>
      </trkpt>
      <trkpt lat="43.5169" lon="2.47152">
        <ele>585.161</ele>
        <time>2021-05-22T14:12:15Z</time>
      </trkpt>
      <trkpt lat="43.51689" lon="2.47153">
        <ele>583.585</ele>
        <time>2021-05-22T14:12:17Z</time>
      </trkpt>
      <trkpt lat="43.51688" lon="2.47152">
        <ele>580.9</ele>
        <time>2021-05-22T14:12:19Z</time>
      </trkpt>
      <trkpt lat="43.51688" lon="2.47152">
        <ele>580.905</ele>
        <time>2021-05-22T14:12:21Z</time>
      </trkpt>
      <trkpt lat="43.51688" lon="2.47152">
        <ele>580.915</ele>
        <time>2021-05-22T14:12:23Z</time>
      </trkpt>
      <trkpt lat="43.51688" lon="2.47152">
        <ele>580.919</ele>
        <time>2021-05-22T14:12:25Z</time>
      </trkpt>
      <trkpt lat="43.51688" lon="2.47152">
        <ele>580.946</ele>
        <time>2021-05-22T14:12:27Z</time>
      </trkpt>
      <trkpt lat="43.51688" lon="2.47151">
        <ele>580.637</ele>
        <time>2021-05-22T14:12:29Z</time>
      </trkpt>
      <trkpt lat="43.51688" lon="2.47151">
        <ele>580.655</ele>
        <time>2021-05-22T14:12:31Z</time>
      </trkpt>
      <trkpt lat="43.51688" lon="2.47151">
        <ele>580.691</ele>
        <time>2021-05-22T14:12:33Z</time>
      </trkpt>
      <trkpt lat="43.51688" lon="2.47151">
        <ele>580.714</ele>
        <time>2021-05-22T14:12:35Z</time>
      </trkpt>
      <trkpt lat="43.51688" lon="2.47151">
        <ele>581.675</ele>
        <time>2021-05-22T14:12:37Z</time>
      </trkpt>
      <trkpt lat="43.51688" lon="2.47151">
        <ele>581.549</ele>
        <time>2021-05-22T14:12:39Z</time>
      </trkpt>
      <trkpt lat="43.51688" lon="2.4715">
        <ele>582.002</ele>
        <time>2021-05-22T14:12:41Z</time>
      </trkpt>
      <trkpt lat="43.5169" lon="2.4715">
        <ele>582.06</ele>
        <time>2021-05-22T14:12:43Z</time>
      </trkpt>
      <trkpt lat="43.5169" lon="2.47155">
        <ele>583.658</ele>
        <time>2021-05-22T14:12:45Z</time>
      </trkpt>
      <trkpt lat="43.51694" lon="2.47156">
        <ele>583.315</ele>
        <time>2021-05-22T14:12:47Z</time>
      </trkpt>
      <trkpt lat="43.51696" lon="2.47155">
        <ele>582.079</ele>
        <time>2021-05-22T14:12:49Z</time>
      </trkpt>
      <trkpt lat="43.51698" lon="2.47154">
        <ele>580.446</ele>
        <time>2021-05-22T14:12:51Z</time>
      </trkpt>
      <trkpt lat="43.517" lon="2.47154">
        <ele>579.18</ele>
        <time>2021-05-22T14:12:53Z</time>
      </trkpt>
      <trkpt lat="43.51703" lon="2.47155">
        <ele>576.868</ele>
        <time>2021-05-22T14:12:55Z</time>
      </trkpt>
      <trkpt lat="43.51705" lon="2.47154">
        <ele>575.602</ele>
        <time>2021-05-22T14:12:57Z</time>
      </trkpt>
      <trkpt lat="43.51707" lon="2.47152">
        <ele>575.11</ele>
        <time>2021-05-22T14:12:59Z</time>
      </trkpt>
      <trkpt lat="43.51708" lon="2.4715">
        <ele>575.41</ele>
        <time>2021-05-22T14:13:01Z</time>
      </trkpt>
      <trkpt lat="43.5171" lon="2.47148">
        <ele>575.19</ele>
        <time>2021-05-22T14:13:03Z</time>
      </trkpt>
      <trkpt lat="43.51712" lon="2.47147">
        <ele>574.135</ele>
        <time>2021-05-22T14:13:05Z</time>
      </trkpt>
      <trkpt lat="43.51714" lon="2.47145">
        <ele>576.123</ele>
        <time>2021-05-22T14:13:07Z</time>
      </trkpt>
      <trkpt lat="43.51716" lon="2.47143">
        <ele>576.034</ele>
        <time>2021-05-22T14:13:09Z</time>
      </trkpt>
      <trkpt lat="43.51717" lon="2.47141">
        <ele>575.697</ele>
        <time>2021-05-22T14:13:11Z</time>
      </trkpt>
      <trkpt lat="43.51718" lon="2.47138">
        <ele>576.657</ele>
        <time>2021-05-22T14:13:13Z</time>
      </trkpt>
      <trkpt lat="43.51719" lon="2.47137">
        <ele>576.116</ele>
        <time>2021-05-22T14:13:15Z</time>
      </trkpt>
      <trkpt lat="43.51721" lon="2.47136">
        <ele>575.81</ele>
        <time>2021-05-22T14:13:17Z</time>
      </trkpt>
      <trkpt lat="43.51723" lon="2.47134">
        <ele>576.327</ele>
        <time>2021-05-22T14:13:19Z</time>
      </trkpt>
      <trkpt lat="43.51724" lon="2.47132">
        <ele>575.428</ele>
        <time>2021-05-22T14:13:21Z</time>
      </trkpt>
      <trkpt lat="43.51726" lon="2.47131">
        <ele>576.937</ele>
        <time>2021-05-22T14:13:23Z</time>
      </trkpt>
      <trkpt lat="43.51728" lon="2.47129">
        <ele>577.541</ele>
        <time>2021-05-22T14:13:25Z</time>
      </trkpt>
      <trkpt lat="43.5173" lon="2.47128">
        <ele>577.299</ele>
        <time>2021-05-22T14:13:27Z</time>
      </trkpt>
      <trkpt lat="43.51731" lon="2.47127">
        <ele>578.291</ele>
        <time>2021-05-22T14:13:29Z</time>
      </trkpt>
      <trkpt lat="43.51733" lon="2.47125">
        <ele>577.655</ele>
        <time>2021-05-22T14:13:31Z</time>
      </trkpt>
      <trkpt lat="43.51735" lon="2.47123">
        <ele>576.942</ele>
        <time>2021-05-22T14:13:33Z</time>
      </trkpt>
      <trkpt lat="43.51736" lon="2.47121">
        <ele>576.384</ele>
        <time>2021-05-22T14:13:35Z</time>
      </trkpt>
      <trkpt lat="43.51739" lon="2.47119">
        <ele>576.873</ele>
        <time>2021-05-22T14:13:37Z</time>
      </trkpt>
      <trkpt lat="43.51741" lon="2.47117">
        <ele>576.676</ele>
        <time>2021-05-22T14:13:39Z</time>
      </trkpt>
      <trkpt lat="43.51742" lon="2.47116">
        <ele>575.113</ele>
        <time>2021-05-22T14:13:41Z</time>
      </trkpt>
      <trkpt lat="43.51744" lon="2.47114">
        <ele>576.069</ele>
        <time>2021-05-22T14:13:43Z</time>
      </trkpt>
      <trkpt lat="43.51745" lon="2.47112">
        <ele>575.233</ele>
        <time>2021-05-22T14:13:45Z</time>
      </trkpt>
      <trkpt lat="43.51748" lon="2.47109">
        <ele>576.015</ele>
        <time>2021-05-22T14:13:47Z</time>
      </trkpt>
      <trkpt lat="43.51751" lon="2.47107">
        <ele>575.126</ele>
        <time>2021-05-22T14:13:49Z</time>
      </trkpt>
      <trkpt lat="43.51754" lon="2.47104">
        <ele>573.601</ele>
        <time>2021-05-22T14:13:51Z</time>
      </trkpt>
      <trkpt lat="43.51756" lon="2.47102">
        <ele>573.418</ele>
        <time>2021-05-22T14:13:53Z</time>
      </trkpt>
      <trkpt lat="43.51758" lon="2.47099">
        <ele>573.878</ele>
        <time>2021-05-22T14:13:55Z</time>
      </trkpt>
      <trkpt lat="43.5176" lon="2.47097">
        <ele>571.761</ele>
        <time>2021-05-22T14:13:57Z</time>
      </trkpt>
      <trkpt lat="43.51762" lon="2.47094">
        <ele>571.729</ele>
        <time>2021-05-22T14:13:59Z</time>
      </trkpt>
      <trkpt lat="43.51764" lon="2.47092">
        <ele>572.192</ele>
        <time>2021-05-22T14:14:01Z</time>
      </trkpt>
      <trkpt lat="43.51766" lon="2.4709">
        <ele>573.002</ele>
        <time>2021-05-22T14:14:03Z</time>
      </trkpt>
      <trkpt lat="43.51768" lon="2.47088">
        <ele>573.5</ele>
        <time>2021-05-22T14:14:05Z</time>
      </trkpt>
      <trkpt lat="43.5177" lon="2.47086">
        <ele>573.651</ele>
        <time>2021-05-22T14:14:07Z</time>
      </trkpt>
      <trkpt lat="43.51773" lon="2.47083">
        <ele>574.347</ele>
        <time>2021-05-22T14:14:09Z</time>
      </trkpt>
      <trkpt lat="43.51775" lon="2.4708">
        <ele>573.727</ele>
        <time>2021-05-22T14:14:11Z</time>
      </trkpt>
      <trkpt lat="43.51778" lon="2.47078">
        <ele>573.75</ele>
        <time>2021-05-22T14:14:13Z</time>
      </trkpt>
      <trkpt lat="43.51779" lon="2.47076">
        <ele>572.132</ele>
        <time>2021-05-22T14:14:15Z</time>
      </trkpt>
      <trkpt lat="43.51782" lon="2.47073">
        <ele>572.463</ele>
        <time>2021-05-22T14:14:17Z</time>
      </trkpt>
      <trkpt lat="43.51784" lon="2.47071">
        <ele>571.484</ele>
        <time>2021-05-22T14:14:19Z</time>
      </trkpt>
      <trkpt lat="43.51786" lon="2.47069">
        <ele>572.938</ele>
        <time>2021-05-22T14:14:21Z</time>
      </trkpt>
      <trkpt lat="43.51788" lon="2.47067">
        <ele>572.288</ele>
        <time>2021-05-22T14:14:23Z</time>
      </trkpt>
      <trkpt lat="43.51791" lon="2.47065">
        <ele>571.66</ele>
        <time>2021-05-22T14:14:25Z</time>
      </trkpt>
      <trkpt lat="43.51794" lon="2.47064">
        <ele>573.554</ele>
        <time>2021-05-22T14:14:27Z</time>
      </trkpt>
      <trkpt lat="43.51797" lon="2.47063">
        <ele>573.582</ele>
        <time>2021-05-22T14:14:29Z</time>
      </trkpt>
      <trkpt lat="43.51799" lon="2.47061">
        <ele>574.587</ele>
        <time>2021-05-22T14:14:31Z</time>
      </trkpt>
      <trkpt lat="43.51801" lon="2.47059">
        <ele>573.819</ele>
        <time>2021-05-22T14:14:33Z</time>
      </trkpt>
      <trkpt lat="43.51803" lon="2.47057">
        <ele>574.778</ele>
        <time>2021-05-22T14:14:35Z</time>
      </trkpt>
      <trkpt lat="43.51807" lon="2.47055">
        <ele>574.953</ele>
        <time>2021-05-22T14:14:37Z</time>
      </trkpt>
      <trkpt lat="43.51809" lon="2.47054">
        <ele>574.757</ele>
        <time>2021-05-22T14:14:39Z</time>
      </trkpt>
      <trkpt lat="43.51811" lon="2.47052">
        <ele>574.073</ele>
        <time>2021-05-22T14:14:41Z</time>
      </trkpt>
      <trkpt lat="43.51814" lon="2.47051">
        <ele>572.074</ele>
        <time>2021-05-22T14:14:43Z</time>
      </trkpt>
      <trkpt lat="43.51818" lon="2.47049">
        <ele>573.493</ele>
        <time>2021-05-22T14:14:46Z</time>
      </trkpt>
      <trkpt lat="43.5182" lon="2.47049">
        <ele>573.504</ele>
        <time>2021-05-22T14:14:48Z</time>
      </trkpt>
      <trkpt lat="43.51822" lon="2.47049">
        <ele>574.611</ele>
        <time>2021-05-22T14:14:50Z</time>
      </trkpt>
      <trkpt lat="43.51825" lon="2.4705">
        <ele>574.058</ele>
        <time>2021-05-22T14:14:52Z</time>
      </trkpt>
      <trkpt lat="43.51828" lon="2.47051">
        <ele>574.847</ele>
        <time>2021-05-22T14:14:54Z</time>
      </trkpt>
      <trkpt lat="43.5183" lon="2.47052">
        <ele>573.546</ele>
        <time>2021-05-22T14:14:56Z</time>
      </trkpt>
      <trkpt lat="43.51833" lon="2.47052">
        <ele>573.481</ele>
        <time>2021-05-22T14:14:58Z</time>
      </trkpt>
      <trkpt lat="43.51836" lon="2.47054">
        <ele>572.582</ele>
        <time>2021-05-22T14:15:00Z</time>
      </trkpt>
      <trkpt lat="43.51839" lon="2.47054">
        <ele>575.816</ele>
        <time>2021-05-22T14:15:02Z</time>
      </trkpt>
      <trkpt lat="43.51841" lon="2.47056">
        <ele>575.635</ele>
        <time>2021-05-22T14:15:04Z</time>
      </trkpt>
      <trkpt lat="43.51844" lon="2.47055">
        <ele>575.309</ele>
        <time>2021-05-22T14:15:06Z</time>
      </trkpt>
      <trkpt lat="43.51846" lon="2.47056">
        <ele>575.206</ele>
        <time>2021-05-22T14:15:08Z</time>
      </trkpt>
      <trkpt lat="43.51849" lon="2.47056">
        <ele>574.718</ele>
        <time>2021-05-22T14:15:10Z</time>
      </trkpt>
      <trkpt lat="43.51851" lon="2.47056">
        <ele>572.811</ele>
        <time>2021-05-22T14:15:12Z</time>
      </trkpt>
      <trkpt lat="43.51854" lon="2.47057">
        <ele>575.602</ele>
        <time>2021-05-22T14:15:14Z</time>
      </trkpt>
      <trkpt lat="43.51856" lon="2.47058">
        <ele>576.974</ele>
        <time>2021-05-22T14:15:16Z</time>
      </trkpt>
      <trkpt lat="43.51858" lon="2.47058">
        <ele>580.305</ele>
        <time>2021-05-22T14:15:18Z</time>
      </trkpt>
      <trkpt lat="43.51862" lon="2.47057">
        <ele>579.154</ele>
        <time>2021-05-22T14:15:20Z</time>
      </trkpt>
      <trkpt lat="43.51865" lon="2.47054">
        <ele>578.224</ele>
        <time>2021-05-22T14:15:22Z</time>
      </trkpt>
      <trkpt lat="43.51867" lon="2.47053">
        <ele>577.17</ele>
        <time>2021-05-22T14:15:24Z</time>
      </trkpt>
      <trkpt lat="43.51869" lon="2.4705">
        <ele>574.813</ele>
        <time>2021-05-22T14:15:26Z</time>
      </trkpt>
      <trkpt lat="43.51869" lon="2.47047">
        <ele>572.772</ele>
        <time>2021-05-22T14:15:28Z</time>
      </trkpt>
      <trkpt lat="43.51868" lon="2.47043">
        <ele>571.352</ele>
        <time>2021-05-22T14:15:30Z</time>
      </trkpt>
      <trkpt lat="43.51868" lon="2.47039">
        <ele>569.961</ele>
        <time>2021-05-22T14:15:32Z</time>
      </trkpt>
      <trkpt lat="43.51868" lon="2.47034">
        <ele>568.919</ele>
        <time>2021-05-22T14:15:34Z</time>
      </trkpt>
      <trkpt lat="43.51868" lon="2.4703">
        <ele>568.945</ele>
        <time>2021-05-22T14:15:36Z</time>
      </trkpt>
      <trkpt lat="43.51867" lon="2.47025">
        <ele>569.844</ele>
        <time>2021-05-22T14:15:38Z</time>
      </trkpt>
      <trkpt lat="43.51866" lon="2.4702">
        <ele>570.065</ele>
        <time>2021-05-22T14:15:40Z</time>
      </trkpt>
      <trkpt lat="43.51864" lon="2.47016">
        <ele>570.7</ele>
        <time>2021-05-22T14:15:42Z</time>
      </trkpt>
      <trkpt lat="43.51863" lon="2.47012">
        <ele>572.361</ele>
        <time>2021-05-22T14:15:44Z</time>
      </trkpt>
      <trkpt lat="43.51862" lon="2.47008">
        <ele>572.204</ele>
        <time>2021-05-22T14:15:46Z</time>
      </trkpt>
      <trkpt lat="43.51862" lon="2.47004">
        <ele>572.493</ele>
        <time>2021-05-22T14:15:48Z</time>
      </trkpt>
      <trkpt lat="43.51862" lon="2.47001">
        <ele>573.415</ele>
        <time>2021-05-22T14:15:50Z</time>
      </trkpt>
      <trkpt lat="43.51864" lon="2.46997">
        <ele>574.737</ele>
        <time>2021-05-22T14:15:52Z</time>
      </trkpt>
      <trkpt lat="43.51864" lon="2.46994">
        <ele>574.464</ele>
        <time>2021-05-22T14:15:54Z</time>
      </trkpt>
      <trkpt lat="43.51864" lon="2.46991">
        <ele>572.796</ele>
        <time>2021-05-22T14:15:56Z</time>
      </trkpt>
      <trkpt lat="43.51864" lon="2.46988">
        <ele>572.864</ele>
        <time>2021-05-22T14:15:58Z</time>
      </trkpt>
      <trkpt lat="43.51864" lon="2.46985">
        <ele>572.066</ele>
        <time>2021-05-22T14:16:00Z</time>
      </trkpt>
      <trkpt lat="43.51865" lon="2.46982">
        <ele>571.915</ele>
        <time>2021-05-22T14:16:02Z</time>
      </trkpt>
      <trkpt lat="43.51865" lon="2.46978">
        <ele>571.888</ele>
        <time>2021-05-22T14:16:04Z</time>
      </trkpt>
      <trkpt lat="43.51866" lon="2.46975">
        <ele>571.364</ele>
        <time>2021-05-22T14:16:06Z</time>
      </trkpt>
      <trkpt lat="43.51866" lon="2.46972">
        <ele>570.989</ele>
        <time>2021-05-22T14:16:08Z</time>
      </trkpt>
      <trkpt lat="43.51868" lon="2.46969">
        <ele>570.947</ele>
        <time>2021-05-22T14:16:10Z</time>
      </trkpt>
      <trkpt lat="43.51869" lon="2.46967">
        <ele>570.96</ele>
        <time>2021-05-22T14:16:12Z</time>
      </trkpt>
      <trkpt lat="43.51869" lon="2.46964">
        <ele>571.76</ele>
        <time>2021-05-22T14:16:14Z</time>
      </trkpt>
      <trkpt lat="43.51868" lon="2.46961">
        <ele>571.519</ele>
        <time>2021-05-22T14:16:16Z</time>
      </trkpt>
      <trkpt lat="43.5187" lon="2.46958">
        <ele>568.994</ele>
        <time>2021-05-22T14:16:18Z</time>
      </trkpt>
      <trkpt lat="43.51871" lon="2.46955">
        <ele>569.438</ele>
        <time>2021-05-22T14:16:20Z</time>
      </trkpt>
      <trkpt lat="43.51873" lon="2.46952">
        <ele>569.446</ele>
        <time>2021-05-22T14:16:22Z</time>
      </trkpt>
      <trkpt lat="43.51875" lon="2.46949">
        <ele>569.211</ele>
        <time>2021-05-22T14:16:24Z</time>
      </trkpt>
      <trkpt lat="43.51876" lon="2.46946">
        <ele>570.018</ele>
        <time>2021-05-22T14:16:26Z</time>
      </trkpt>
      <trkpt lat="43.51877" lon="2.46943">
        <ele>569.358</ele>
        <time>2021-05-22T14:16:28Z</time>
      </trkpt>
      <trkpt lat="43.51879" lon="2.46941">
        <ele>569.315</ele>
        <time>2021-05-22T14:16:30Z</time>
      </trkpt>
      <trkpt lat="43.5188" lon="2.46939">
        <ele>568.758</ele>
        <time>2021-05-22T14:16:32Z</time>
      </trkpt>
      <trkpt lat="43.51881" lon="2.46937">
        <ele>569.465</ele>
        <time>2021-05-22T14:16:34Z</time>
      </trkpt>
      <trkpt lat="43.51883" lon="2.46935">
        <ele>570.865</ele>
        <time>2021-05-22T14:16:36Z</time>
      </trkpt>
      <trkpt lat="43.51885" lon="2.46932">
        <ele>572.15</ele>
        <time>2021-05-22T14:16:38Z</time>
      </trkpt>
      <trkpt lat="43.51887" lon="2.46931">
        <ele>572.591</ele>
        <time>2021-05-22T14:16:40Z</time>
      </trkpt>
      <trkpt lat="43.51888" lon="2.46929">
        <ele>574.008</ele>
        <time>2021-05-22T14:16:42Z</time>
      </trkpt>
      <trkpt lat="43.5189" lon="2.46927">
        <ele>575.702</ele>
        <time>2021-05-22T14:16:44Z</time>
      </trkpt>
      <trkpt lat="43.51892" lon="2.46925">
        <ele>575.392</ele>
        <time>2021-05-22T14:16:46Z</time>
      </trkpt>
      <trkpt lat="43.51893" lon="2.46923">
        <ele>575.867</ele>
        <time>2021-05-22T14:16:48Z</time>
      </trkpt>
      <trkpt lat="43.51895" lon="2.46921">
        <ele>575.508</ele>
        <time>2021-05-22T14:16:50Z</time>
      </trkpt>
      <trkpt lat="43.51896" lon="2.46919">
        <ele>575.268</ele>
        <time>2021-05-22T14:16:52Z</time>
      </trkpt>
      <trkpt lat="43.51898" lon="2.46917">
        <ele>573.689</ele>
        <time>2021-05-22T14:16:54Z</time>
      </trkpt>
      <trkpt lat="43.519" lon="2.46915">
        <ele>573.63</ele>
        <time>2021-05-22T14:16:56Z</time>
      </trkpt>
      <trkpt lat="43.51901" lon="2.46913">
        <ele>572.9</ele>
        <time>2021-05-22T14:16:58Z</time>
      </trkpt>
      <trkpt lat="43.51903" lon="2.46911">
        <ele>573.015</ele>
        <time>2021-05-22T14:17:00Z</time>
      </trkpt>
      <trkpt lat="43.51905" lon="2.46909">
        <ele>572.454</ele>
        <time>2021-05-22T14:17:02Z</time>
      </trkpt>
      <trkpt lat="43.51907" lon="2.46906">
        <ele>572.3</ele>
        <time>2021-05-22T14:17:04Z</time>
      </trkpt>
      <trkpt lat="43.51909" lon="2.46904">
        <ele>571.515</ele>
        <time>2021-05-22T14:17:06Z</time>
      </trkpt>
      <trkpt lat="43.51911" lon="2.46903">
        <ele>571.283</ele>
        <time>2021-05-22T14:17:08Z</time>
      </trkpt>
      <trkpt lat="43.51913" lon="2.46901">
        <ele>570.637</ele>
        <time>2021-05-22T14:17:10Z</time>
      </trkpt>
      <trkpt lat="43.51915" lon="2.469">
        <ele>569.893</ele>
        <time>2021-05-22T14:17:12Z</time>
      </trkpt>
      <trkpt lat="43.51917" lon="2.46898">
        <ele>569.694</ele>
        <time>2021-05-22T14:17:14Z</time>
      </trkpt>
      <trkpt lat="43.5192" lon="2.46897">
        <ele>569.851</ele>
        <time>2021-05-22T14:17:16Z</time>
      </trkpt>
      <trkpt lat="43.51922" lon="2.46896">
        <ele>569.589</ele>
        <time>2021-05-22T14:17:18Z</time>
      </trkpt>
      <trkpt lat="43.51925" lon="2.46895">
        <ele>569.464</ele>
        <time>2021-05-22T14:17:20Z</time>
      </trkpt>
      <trkpt lat="43.51927" lon="2.46894">
        <ele>569.489</ele>
        <time>2021-05-22T14:17:22Z</time>
      </trkpt>
      <trkpt lat="43.51929" lon="2.46893">
        <ele>569.783</ele>
        <time>2021-05-22T14:17:24Z</time>
      </trkpt>
      <trkpt lat="43.51932" lon="2.46892">
        <ele>569.642</ele>
        <time>2021-05-22T14:17:26Z</time>
      </trkpt>
      <trkpt lat="43.51935" lon="2.46891">
        <ele>568.675</ele>
        <time>2021-05-22T14:17:28Z</time>
      </trkpt>
      <trkpt lat="43.51937" lon="2.4689">
        <ele>568.662</ele>
        <time>2021-05-22T14:17:30Z</time>
      </trkpt>
      <trkpt lat="43.5194" lon="2.46888">
        <ele>568.238</ele>
        <time>2021-05-22T14:17:32Z</time>
      </trkpt>
      <trkpt lat="43.51942" lon="2.46887">
        <ele>568.566</ele>
        <time>2021-05-22T14:17:34Z</time>
      </trkpt>
      <trkpt lat="43.51945" lon="2.46886">
        <ele>568.644</ele>
        <time>2021-05-22T14:17:36Z</time>
      </trkpt>
      <trkpt lat="43.51947" lon="2.46885">
        <ele>568.82</ele>
        <time>2021-05-22T14:17:38Z</time>
      </trkpt>
      <trkpt lat="43.5195" lon="2.46883">
        <ele>568.716</ele>
        <time>2021-05-22T14:17:40Z</time>
      </trkpt>
      <trkpt lat="43.51952" lon="2.46882">
        <ele>569.219</ele>
        <time>2021-05-22T14:17:42Z</time>
      </trkpt>
      <trkpt lat="43.51954" lon="2.46879">
        <ele>569.303</ele>
        <time>2021-05-22T14:17:44Z</time>
      </trkpt>
      <trkpt lat="43.51956" lon="2.46877">
        <ele>568.715</ele>
        <time>2021-05-22T14:17:46Z</time>
      </trkpt>
      <trkpt lat="43.51959" lon="2.46874">
        <ele>568.015</ele>
        <time>2021-05-22T14:17:48Z</time>
      </trkpt>
      <trkpt lat="43.51961" lon="2.46871">
        <ele>567.741</ele>
        <time>2021-05-22T14:17:50Z</time>
      </trkpt>
      <trkpt lat="43.51963" lon="2.46868">
        <ele>567.949</ele>
        <time>2021-05-22T14:17:52Z</time>
      </trkpt>
      <trkpt lat="43.51964" lon="2.46865">
        <ele>567.831</ele>
        <time>2021-05-22T14:17:54Z</time>
      </trkpt>
      <trkpt lat="43.51965" lon="2.46862">
        <ele>567.619</ele>
        <time>2021-05-22T14:17:56Z</time>
      </trkpt>
      <trkpt lat="43.51966" lon="2.46859">
        <ele>568.679</ele>
        <time>2021-05-22T14:17:58Z</time>
      </trkpt>
      <trkpt lat="43.51967" lon="2.46855">
        <ele>567.826</ele>
        <time>2021-05-22T14:18:00Z</time>
      </trkpt>
      <trkpt lat="43.51968" lon="2.46852">
        <ele>566.82</ele>
        <time>2021-05-22T14:18:02Z</time>
      </trkpt>
      <trkpt lat="43.51968" lon="2.46848">
        <ele>565.784</ele>
        <time>2021-05-22T14:18:04Z</time>
      </trkpt>
      <trkpt lat="43.51968" lon="2.46844">
        <ele>565.243</ele>
        <time>2021-05-22T14:18:06Z</time>
      </trkpt>
      <trkpt lat="43.51968" lon="2.4684">
        <ele>564.93</ele>
        <time>2021-05-22T14:18:08Z</time>
      </trkpt>
      <trkpt lat="43.51968" lon="2.46836">
        <ele>563.479</ele>
        <time>2021-05-22T14:18:10Z</time>
      </trkpt>
      <trkpt lat="43.51968" lon="2.46832">
        <ele>563.409</ele>
        <time>2021-05-22T14:18:12Z</time>
      </trkpt>
      <trkpt lat="43.51969" lon="2.46828">
        <ele>562.934</ele>
        <time>2021-05-22T14:18:14Z</time>
      </trkpt>
      <trkpt lat="43.51969" lon="2.46825">
        <ele>562.564</ele>
        <time>2021-05-22T14:18:16Z</time>
      </trkpt>
      <trkpt lat="43.5197" lon="2.46821">
        <ele>562.76</ele>
        <time>2021-05-22T14:18:18Z</time>
      </trkpt>
      <trkpt lat="43.51971" lon="2.46817">
        <ele>562.951</ele>
        <time>2021-05-22T14:18:20Z</time>
      </trkpt>
      <trkpt lat="43.51972" lon="2.46813">
        <ele>563.22</ele>
        <time>2021-05-22T14:18:22Z</time>
      </trkpt>
      <trkpt lat="43.51973" lon="2.4681">
        <ele>563.387</ele>
        <time>2021-05-22T14:18:24Z</time>
      </trkpt>
      <trkpt lat="43.51974" lon="2.46806">
        <ele>562.924</ele>
        <time>2021-05-22T14:18:26Z</time>
      </trkpt>
      <trkpt lat="43.51975" lon="2.46803">
        <ele>562.983</ele>
        <time>2021-05-22T14:18:28Z</time>
      </trkpt>
      <trkpt lat="43.51976" lon="2.468">
        <ele>562.724</ele>
        <time>2021-05-22T14:18:30Z</time>
      </trkpt>
      <trkpt lat="43.51978" lon="2.46797">
        <ele>562.391</ele>
        <time>2021-05-22T14:18:32Z</time>
      </trkpt>
      <trkpt lat="43.51979" lon="2.46793">
        <ele>562.45</ele>
        <time>2021-05-22T14:18:34Z</time>
      </trkpt>
      <trkpt lat="43.5198" lon="2.4679">
        <ele>562.181</ele>
        <time>2021-05-22T14:18:36Z</time>
      </trkpt>
      <trkpt lat="43.51981" lon="2.46787">
        <ele>562.065</ele>
        <time>2021-05-22T14:18:38Z</time>
      </trkpt>
      <trkpt lat="43.51982" lon="2.46784">
        <ele>561.807</ele>
        <time>2021-05-22T14:18:40Z</time>
      </trkpt>
      <trkpt lat="43.51983" lon="2.46781">
        <ele>561.955</ele>
        <time>2021-05-22T14:18:42Z</time>
      </trkpt>
      <trkpt lat="43.51985" lon="2.46778">
        <ele>561.89</ele>
        <time>2021-05-22T14:18:44Z</time>
      </trkpt>
      <trkpt lat="43.51986" lon="2.46775">
        <ele>562.042</ele>
        <time>2021-05-22T14:18:46Z</time>
      </trkpt>
      <trkpt lat="43.51988" lon="2.46772">
        <ele>561.465</ele>
        <time>2021-05-22T14:18:48Z</time>
      </trkpt>
      <trkpt lat="43.51989" lon="2.46769">
        <ele>560.844</ele>
        <time>2021-05-22T14:18:50Z</time>
      </trkpt>
      <trkpt lat="43.5199" lon="2.46766">
        <ele>561.007</ele>
        <time>2021-05-22T14:18:52Z</time>
      </trkpt>
      <trkpt lat="43.51992" lon="2.46763">
        <ele>561.085</ele>
        <time>2021-05-22T14:18:54Z</time>
      </trkpt>
      <trkpt lat="43.51993" lon="2.4676">
        <ele>560.859</ele>
        <time>2021-05-22T14:18:56Z</time>
      </trkpt>
      <trkpt lat="43.51994" lon="2.46756">
        <ele>560.354</ele>
        <time>2021-05-22T14:18:58Z</time>
      </trkpt>
      <trkpt lat="43.51995" lon="2.46753">
        <ele>560.054</ele>
        <time>2021-05-22T14:19:00Z</time>
      </trkpt>
      <trkpt lat="43.51997" lon="2.4675">
        <ele>559.791</ele>
        <time>2021-05-22T14:19:02Z</time>
      </trkpt>
      <trkpt lat="43.51998" lon="2.46747">
        <ele>559.496</ele>
        <time>2021-05-22T14:19:04Z</time>
      </trkpt>
      <trkpt lat="43.52" lon="2.46744">
        <ele>559.347</ele>
        <time>2021-05-22T14:19:06Z</time>
      </trkpt>
      <trkpt lat="43.52002" lon="2.46741">
        <ele>558.926</ele>
        <time>2021-05-22T14:19:08Z</time>
      </trkpt>
      <trkpt lat="43.52003" lon="2.46738">
        <ele>559.032</ele>
        <time>2021-05-22T14:19:10Z</time>
      </trkpt>
      <trkpt lat="43.52005" lon="2.46735">
        <ele>558.505</ele>
        <time>2021-05-22T14:19:12Z</time>
      </trkpt>
      <trkpt lat="43.52006" lon="2.46732">
        <ele>558.539</ele>
        <time>2021-05-22T14:19:14Z</time>
      </trkpt>
      <trkpt lat="43.52008" lon="2.46729">
        <ele>558.005</ele>
        <time>2021-05-22T14:19:16Z</time>
      </trkpt>
      <trkpt lat="43.52009" lon="2.46726">
        <ele>557.765</ele>
        <time>2021-05-22T14:19:18Z</time>
      </trkpt>
      <trkpt lat="43.52011" lon="2.46723">
        <ele>558.062</ele>
        <time>2021-05-22T14:19:20Z</time>
      </trkpt>
      <trkpt lat="43.52013" lon="2.4672">
        <ele>558.14</ele>
        <time>2021-05-22T14:19:22Z</time>
      </trkpt>
      <trkpt lat="43.52014" lon="2.46718">
        <ele>557.711</ele>
        <time>2021-05-22T14:19:24Z</time>
      </trkpt>
      <trkpt lat="43.52016" lon="2.46715">
        <ele>557.299</ele>
        <time>2021-05-22T14:19:26Z</time>
      </trkpt>
      <trkpt lat="43.52018" lon="2.46713">
        <ele>556.956</ele>
        <time>2021-05-22T14:19:28Z</time>
      </trkpt>
      <trkpt lat="43.5202" lon="2.4671">
        <ele>556.983</ele>
        <time>2021-05-22T14:19:30Z</time>
      </trkpt>
      <trkpt lat="43.52022" lon="2.46707">
        <ele>556.63</ele>
        <time>2021-05-22T14:19:32Z</time>
      </trkpt>
      <trkpt lat="43.52024" lon="2.46704">
        <ele>556.229</ele>
        <time>2021-05-22T14:19:34Z</time>
      </trkpt>
      <trkpt lat="43.52026" lon="2.46701">
        <ele>555.979</ele>
        <time>2021-05-22T14:19:36Z</time>
      </trkpt>
      <trkpt lat="43.52027" lon="2.46699">
        <ele>555.782</ele>
        <time>2021-05-22T14:19:38Z</time>
      </trkpt>
      <trkpt lat="43.52029" lon="2.46696">
        <ele>556.013</ele>
        <time>2021-05-22T14:19:40Z</time>
      </trkpt>
      <trkpt lat="43.52031" lon="2.46693">
        <ele>555.873</ele>
        <time>2021-05-22T14:19:42Z</time>
      </trkpt>
      <trkpt lat="43.52033" lon="2.4669">
        <ele>555.7</ele>
        <time>2021-05-22T14:19:44Z</time>
      </trkpt>
      <trkpt lat="43.52034" lon="2.46687">
        <ele>555.548</ele>
        <time>2021-05-22T14:19:46Z</time>
      </trkpt>
      <trkpt lat="43.52036" lon="2.46684">
        <ele>555.606</ele>
        <time>2021-05-22T14:19:48Z</time>
      </trkpt>
      <trkpt lat="43.52038" lon="2.46682">
        <ele>556.012</ele>
        <time>2021-05-22T14:19:50Z</time>
      </trkpt>
      <trkpt lat="43.5204" lon="2.46679">
        <ele>555.413</ele>
        <time>2021-05-22T14:19:52Z</time>
      </trkpt>
      <trkpt lat="43.52041" lon="2.46676">
        <ele>555.311</ele>
        <time>2021-05-22T14:19:54Z</time>
      </trkpt>
      <trkpt lat="43.52043" lon="2.46674">
        <ele>554.014</ele>
        <time>2021-05-22T14:19:56Z</time>
      </trkpt>
      <trkpt lat="43.52045" lon="2.46671">
        <ele>553.375</ele>
        <time>2021-05-22T14:19:58Z</time>
      </trkpt>
      <trkpt lat="43.52047" lon="2.46668">
        <ele>553.232</ele>
        <time>2021-05-22T14:20:00Z</time>
      </trkpt>
      <trkpt lat="43.52048" lon="2.46665">
        <ele>552.054</ele>
        <time>2021-05-22T14:20:02Z</time>
      </trkpt>
      <trkpt lat="43.5205" lon="2.46663">
        <ele>551.887</ele>
        <time>2021-05-22T14:20:04Z</time>
      </trkpt>
      <trkpt lat="43.52052" lon="2.4666">
        <ele>552.101</ele>
        <time>2021-05-22T14:20:06Z</time>
      </trkpt>
      <trkpt lat="43.52054" lon="2.46657">
        <ele>551.888</ele>
        <time>2021-05-22T14:20:08Z</time>
      </trkpt>
      <trkpt lat="43.52056" lon="2.46654">
        <ele>552.425</ele>
        <time>2021-05-22T14:20:10Z</time>
      </trkpt>
      <trkpt lat="43.52057" lon="2.46651">
        <ele>552.497</ele>
        <time>2021-05-22T14:20:12Z</time>
      </trkpt>
      <trkpt lat="43.52059" lon="2.46649">
        <ele>552.43</ele>
        <time>2021-05-22T14:20:14Z</time>
      </trkpt>
      <trkpt lat="43.52061" lon="2.46646">
        <ele>552.484</ele>
        <time>2021-05-22T14:20:16Z</time>
      </trkpt>
      <trkpt lat="43.52063" lon="2.46643">
        <ele>551.962</ele>
        <time>2021-05-22T14:20:18Z</time>
      </trkpt>
      <trkpt lat="43.52066" lon="2.46641">
        <ele>551.878</ele>
        <time>2021-05-22T14:20:20Z</time>
      </trkpt>
      <trkpt lat="43.52068" lon="2.46638">
        <ele>552.374</ele>
        <time>2021-05-22T14:20:22Z</time>
      </trkpt>
      <trkpt lat="43.5207" lon="2.46636">
        <ele>552.204</ele>
        <time>2021-05-22T14:20:24Z</time>
      </trkpt>
      <trkpt lat="43.52072" lon="2.46634">
        <ele>551.775</ele>
        <time>2021-05-22T14:20:26Z</time>
      </trkpt>
      <trkpt lat="43.52074" lon="2.46632">
        <ele>551.555</ele>
        <time>2021-05-22T14:20:28Z</time>
      </trkpt>
      <trkpt lat="43.52076" lon="2.4663">
        <ele>551.631</ele>
        <time>2021-05-22T14:20:30Z</time>
      </trkpt>
      <trkpt lat="43.52078" lon="2.46627">
        <ele>552.031</ele>
        <time>2021-05-22T14:20:32Z</time>
      </trkpt>
      <trkpt lat="43.5208" lon="2.46625">
        <ele>551.748</ele>
        <time>2021-05-22T14:20:34Z</time>
      </trkpt>
      <trkpt lat="43.52083" lon="2.46623">
        <ele>552.535</ele>
        <time>2021-05-22T14:20:36Z</time>
      </trkpt>
      <trkpt lat="43.52085" lon="2.46621">
        <ele>552.564</ele>
        <time>2021-05-22T14:20:38Z</time>
      </trkpt>
      <trkpt lat="43.52087" lon="2.46619">
        <ele>552.736</ele>
        <time>2021-05-22T14:20:40Z</time>
      </trkpt>
      <trkpt lat="43.5209" lon="2.46618">
        <ele>552.047</ele>
        <time>2021-05-22T14:20:42Z</time>
      </trkpt>
      <trkpt lat="43.52092" lon="2.46615">
        <ele>553.498</ele>
        <time>2021-05-22T14:20:44Z</time>
      </trkpt>
      <trkpt lat="43.52092" lon="2.46616">
        <ele>553.076</ele>
        <time>2021-05-22T14:20:46Z</time>
      </trkpt>
      <trkpt lat="43.52092" lon="2.46616">
        <ele>553.075</ele>
        <time>2021-05-22T14:20:48Z</time>
      </trkpt>
      <trkpt lat="43.52092" lon="2.46616">
        <ele>553.083</ele>
        <time>2021-05-22T14:20:50Z</time>
      </trkpt>
      <trkpt lat="43.52091" lon="2.46615">
        <ele>552.544</ele>
        <time>2021-05-22T14:20:52Z</time>
      </trkpt>
      <trkpt lat="43.52091" lon="2.46615">
        <ele>552.358</ele>
        <time>2021-05-22T14:20:54Z</time>
      </trkpt>
      <trkpt lat="43.52091" lon="2.46615">
        <ele>552.357</ele>
        <time>2021-05-22T14:20:56Z</time>
      </trkpt>
      <trkpt lat="43.52091" lon="2.46615">
        <ele>552.351</ele>
        <time>2021-05-22T14:20:58Z</time>
      </trkpt>
      <trkpt lat="43.52091" lon="2.46615">
        <ele>552.349</ele>
        <time>2021-05-22T14:21:00Z</time>
      </trkpt>
      <trkpt lat="43.52092" lon="2.46615">
        <ele>552.149</ele>
        <time>2021-05-22T14:21:02Z</time>
      </trkpt>
      <trkpt lat="43.52093" lon="2.46613">
        <ele>552.995</ele>
        <time>2021-05-22T14:21:04Z</time>
      </trkpt>
      <trkpt lat="43.52095" lon="2.46612">
        <ele>553.564</ele>
        <time>2021-05-22T14:21:06Z</time>
      </trkpt>
      <trkpt lat="43.52098" lon="2.46611">
        <ele>553.667</ele>
        <time>2021-05-22T14:21:08Z</time>
      </trkpt>
      <trkpt lat="43.521" lon="2.4661">
        <ele>554.461</ele>
        <time>2021-05-22T14:21:10Z</time>
      </trkpt>
      <trkpt lat="43.52102" lon="2.4661">
        <ele>553.572</ele>
        <time>2021-05-22T14:21:12Z</time>
      </trkpt>
      <trkpt lat="43.52103" lon="2.46609">
        <ele>554.184</ele>
        <time>2021-05-22T14:21:13Z</time>
      </trkpt>
      <trkpt lat="43.52107" lon="2.46609">
        <ele>554.185</ele>
        <time>2021-05-22T14:21:16Z</time>
      </trkpt>
      <trkpt lat="43.52109" lon="2.4661">
        <ele>553.328</ele>
        <time>2021-05-22T14:21:18Z</time>
      </trkpt>
      <trkpt lat="43.52111" lon="2.4661">
        <ele>551.741</ele>
        <time>2021-05-22T14:21:20Z</time>
      </trkpt>
      <trkpt lat="43.52114" lon="2.4661">
        <ele>550.781</ele>
        <time>2021-05-22T14:21:22Z</time>
      </trkpt>
      <trkpt lat="43.52116" lon="2.46609">
        <ele>548.958</ele>
        <time>2021-05-22T14:21:24Z</time>
      </trkpt>
      <trkpt lat="43.52119" lon="2.46609">
        <ele>548.914</ele>
        <time>2021-05-22T14:21:26Z</time>
      </trkpt>
      <trkpt lat="43.5212" lon="2.46609">
        <ele>548.745</ele>
        <time>2021-05-22T14:21:28Z</time>
      </trkpt>
      <trkpt lat="43.52122" lon="2.46609">
        <ele>547.294</ele>
        <time>2021-05-22T14:21:30Z</time>
      </trkpt>
      <trkpt lat="43.52124" lon="2.46608">
        <ele>545.488</ele>
        <time>2021-05-22T14:21:32Z</time>
      </trkpt>
      <trkpt lat="43.52125" lon="2.46607">
        <ele>546.181</ele>
        <time>2021-05-22T14:21:34Z</time>
      </trkpt>
      <trkpt lat="43.52127" lon="2.46607">
        <ele>547.539</ele>
        <time>2021-05-22T14:21:36Z</time>
      </trkpt>
      <trkpt lat="43.52129" lon="2.46606">
        <ele>546.989</ele>
        <time>2021-05-22T14:21:38Z</time>
      </trkpt>
      <trkpt lat="43.52133" lon="2.46606">
        <ele>546.581</ele>
        <time>2021-05-22T14:21:40Z</time>
      </trkpt>
      <trkpt lat="43.52134" lon="2.46605">
        <ele>548.243</ele>
        <time>2021-05-22T14:21:42Z</time>
      </trkpt>
      <trkpt lat="43.52136" lon="2.46605">
        <ele>549.401</ele>
        <time>2021-05-22T14:21:44Z</time>
      </trkpt>
      <trkpt lat="43.52139" lon="2.46604">
        <ele>550.407</ele>
        <time>2021-05-22T14:21:46Z</time>
      </trkpt>
      <trkpt lat="43.52141" lon="2.46603">
        <ele>551.093</ele>
        <time>2021-05-22T14:21:48Z</time>
      </trkpt>
      <trkpt lat="43.52143" lon="2.46601">
        <ele>551.605</ele>
        <time>2021-05-22T14:21:50Z</time>
      </trkpt>
      <trkpt lat="43.52145" lon="2.466">
        <ele>551.387</ele>
        <time>2021-05-22T14:21:52Z</time>
      </trkpt>
      <trkpt lat="43.52147" lon="2.466">
        <ele>551.665</ele>
        <time>2021-05-22T14:21:54Z</time>
      </trkpt>
      <trkpt lat="43.52148" lon="2.46599">
        <ele>550.436</ele>
        <time>2021-05-22T14:21:56Z</time>
      </trkpt>
      <trkpt lat="43.5215" lon="2.46599">
        <ele>550.646</ele>
        <time>2021-05-22T14:21:58Z</time>
      </trkpt>
      <trkpt lat="43.52153" lon="2.46599">
        <ele>550.285</ele>
        <time>2021-05-22T14:22:00Z</time>
      </trkpt>
      <trkpt lat="43.52155" lon="2.46597">
        <ele>552.719</ele>
        <time>2021-05-22T14:22:02Z</time>
      </trkpt>
      <trkpt lat="43.52157" lon="2.46594">
        <ele>553.922</ele>
        <time>2021-05-22T14:22:04Z</time>
      </trkpt>
      <trkpt lat="43.5216" lon="2.46592">
        <ele>552.416</ele>
        <time>2021-05-22T14:22:06Z</time>
      </trkpt>
      <trkpt lat="43.52162" lon="2.46591">
        <ele>551.826</ele>
        <time>2021-05-22T14:22:08Z</time>
      </trkpt>
      <trkpt lat="43.52164" lon="2.46589">
        <ele>551.187</ele>
        <time>2021-05-22T14:22:10Z</time>
      </trkpt>
      <trkpt lat="43.52167" lon="2.46588">
        <ele>550.424</ele>
        <time>2021-05-22T14:22:12Z</time>
      </trkpt>
      <trkpt lat="43.52168" lon="2.46586">
        <ele>552.215</ele>
        <time>2021-05-22T14:22:14Z</time>
      </trkpt>
      <trkpt lat="43.5217" lon="2.46584">
        <ele>554.039</ele>
        <time>2021-05-22T14:22:16Z</time>
      </trkpt>
      <trkpt lat="43.52171" lon="2.46582">
        <ele>554.584</ele>
        <time>2021-05-22T14:22:18Z</time>
      </trkpt>
      <trkpt lat="43.52173" lon="2.4658">
        <ele>555.244</ele>
        <time>2021-05-22T14:22:20Z</time>
      </trkpt>
      <trkpt lat="43.52175" lon="2.46578">
        <ele>555.774</ele>
        <time>2021-05-22T14:22:22Z</time>
      </trkpt>
      <trkpt lat="43.52177" lon="2.46576">
        <ele>556.052</ele>
        <time>2021-05-22T14:22:24Z</time>
      </trkpt>
      <trkpt lat="43.52179" lon="2.46575">
        <ele>556.593</ele>
        <time>2021-05-22T14:22:26Z</time>
      </trkpt>
      <trkpt lat="43.52181" lon="2.46574">
        <ele>556.234</ele>
        <time>2021-05-22T14:22:28Z</time>
      </trkpt>
      <trkpt lat="43.52183" lon="2.46572">
        <ele>556.103</ele>
        <time>2021-05-22T14:22:30Z</time>
      </trkpt>
      <trkpt lat="43.52185" lon="2.4657">
        <ele>555.105</ele>
        <time>2021-05-22T14:22:32Z</time>
      </trkpt>
      <trkpt lat="43.52187" lon="2.46569">
        <ele>554.309</ele>
        <time>2021-05-22T14:22:34Z</time>
      </trkpt>
      <trkpt lat="43.52188" lon="2.46566">
        <ele>555.517</ele>
        <time>2021-05-22T14:22:36Z</time>
      </trkpt>
      <trkpt lat="43.5219" lon="2.46565">
        <ele>553.732</ele>
        <time>2021-05-22T14:22:38Z</time>
      </trkpt>
      <trkpt lat="43.52193" lon="2.46563">
        <ele>554.283</ele>
        <time>2021-05-22T14:22:40Z</time>
      </trkpt>
      <trkpt lat="43.52195" lon="2.46563">
        <ele>551.779</ele>
        <time>2021-05-22T14:22:42Z</time>
      </trkpt>
      <trkpt lat="43.52198" lon="2.46562">
        <ele>551.155</ele>
        <time>2021-05-22T14:22:44Z</time>
      </trkpt>
      <trkpt lat="43.52201" lon="2.4656">
        <ele>552.003</ele>
        <time>2021-05-22T14:22:46Z</time>
      </trkpt>
      <trkpt lat="43.52202" lon="2.46558">
        <ele>549.907</ele>
        <time>2021-05-22T14:22:48Z</time>
      </trkpt>
      <trkpt lat="43.52205" lon="2.46555">
        <ele>549.829</ele>
        <time>2021-05-22T14:22:50Z</time>
      </trkpt>
      <trkpt lat="43.52207" lon="2.46553">
        <ele>549.945</ele>
        <time>2021-05-22T14:22:52Z</time>
      </trkpt>
      <trkpt lat="43.52209" lon="2.46552">
        <ele>549.513</ele>
        <time>2021-05-22T14:22:54Z</time>
      </trkpt>
      <trkpt lat="43.52211" lon="2.46551">
        <ele>548.917</ele>
        <time>2021-05-22T14:22:56Z</time>
      </trkpt>
      <trkpt lat="43.52213" lon="2.4655">
        <ele>549.24</ele>
        <time>2021-05-22T14:22:58Z</time>
      </trkpt>
      <trkpt lat="43.52215" lon="2.46548">
        <ele>546.904</ele>
        <time>2021-05-22T14:23:00Z</time>
      </trkpt>
      <trkpt lat="43.52217" lon="2.46546">
        <ele>545.942</ele>
        <time>2021-05-22T14:23:02Z</time>
      </trkpt>
      <trkpt lat="43.52219" lon="2.46544">
        <ele>545.246</ele>
        <time>2021-05-22T14:23:04Z</time>
      </trkpt>
      <trkpt lat="43.52221" lon="2.46544">
        <ele>545.542</ele>
        <time>2021-05-22T14:23:06Z</time>
      </trkpt>
      <trkpt lat="43.52224" lon="2.46542">
        <ele>545.151</ele>
        <time>2021-05-22T14:23:08Z</time>
      </trkpt>
      <trkpt lat="43.52226" lon="2.46541">
        <ele>544.463</ele>
        <time>2021-05-22T14:23:10Z</time>
      </trkpt>
      <trkpt lat="43.52228" lon="2.46539">
        <ele>542.551</ele>
        <time>2021-05-22T14:23:12Z</time>
      </trkpt>
      <trkpt lat="43.5223" lon="2.46537">
        <ele>543.492</ele>
        <time>2021-05-22T14:23:14Z</time>
      </trkpt>
      <trkpt lat="43.52232" lon="2.46535">
        <ele>542.995</ele>
        <time>2021-05-22T14:23:16Z</time>
      </trkpt>
      <trkpt lat="43.52234" lon="2.46533">
        <ele>544.358</ele>
        <time>2021-05-22T14:23:18Z</time>
      </trkpt>
      <trkpt lat="43.52236" lon="2.46531">
        <ele>545.272</ele>
        <time>2021-05-22T14:23:20Z</time>
      </trkpt>
      <trkpt lat="43.52239" lon="2.4653">
        <ele>545.834</ele>
        <time>2021-05-22T14:23:22Z</time>
      </trkpt>
      <trkpt lat="43.52241" lon="2.46529">
        <ele>546.68</ele>
        <time>2021-05-22T14:23:24Z</time>
      </trkpt>
      <trkpt lat="43.52244" lon="2.46528">
        <ele>545.578</ele>
        <time>2021-05-22T14:23:26Z</time>
      </trkpt>
      <trkpt lat="43.52247" lon="2.46527">
        <ele>545.963</ele>
        <time>2021-05-22T14:23:28Z</time>
      </trkpt>
      <trkpt lat="43.5225" lon="2.46526">
        <ele>546.075</ele>
        <time>2021-05-22T14:23:30Z</time>
      </trkpt>
      <trkpt lat="43.52254" lon="2.46525">
        <ele>546.165</ele>
        <time>2021-05-22T14:23:32Z</time>
      </trkpt>
      <trkpt lat="43.52257" lon="2.46524">
        <ele>545.333</ele>
        <time>2021-05-22T14:23:34Z</time>
      </trkpt>
      <trkpt lat="43.52259" lon="2.46523">
        <ele>544.936</ele>
        <time>2021-05-22T14:23:36Z</time>
      </trkpt>
      <trkpt lat="43.52261" lon="2.46522">
        <ele>546.284</ele>
        <time>2021-05-22T14:23:38Z</time>
      </trkpt>
      <trkpt lat="43.52263" lon="2.46521">
        <ele>544.121</ele>
        <time>2021-05-22T14:23:40Z</time>
      </trkpt>
      <trkpt lat="43.52266" lon="2.4652">
        <ele>543.259</ele>
        <time>2021-05-22T14:23:42Z</time>
      </trkpt>
      <trkpt lat="43.52268" lon="2.46519">
        <ele>541.513</ele>
        <time>2021-05-22T14:23:44Z</time>
      </trkpt>
      <trkpt lat="43.5227" lon="2.46517">
        <ele>542.342</ele>
        <time>2021-05-22T14:23:46Z</time>
      </trkpt>
      <trkpt lat="43.52272" lon="2.46515">
        <ele>543.667</ele>
        <time>2021-05-22T14:23:48Z</time>
      </trkpt>
      <trkpt lat="43.52274" lon="2.46514">
        <ele>544.231</ele>
        <time>2021-05-22T14:23:50Z</time>
      </trkpt>
      <trkpt lat="43.52276" lon="2.46512">
        <ele>544.121</ele>
        <time>2021-05-22T14:23:52Z</time>
      </trkpt>
      <trkpt lat="43.52278" lon="2.4651">
        <ele>544.041</ele>
        <time>2021-05-22T14:23:54Z</time>
      </trkpt>
      <trkpt lat="43.52279" lon="2.46507">
        <ele>544.681</ele>
        <time>2021-05-22T14:23:56Z</time>
      </trkpt>
      <trkpt lat="43.52282" lon="2.46505">
        <ele>544.678</ele>
        <time>2021-05-22T14:23:58Z</time>
      </trkpt>
      <trkpt lat="43.52284" lon="2.46503">
        <ele>545.047</ele>
        <time>2021-05-22T14:24:00Z</time>
      </trkpt>
      <trkpt lat="43.52286" lon="2.46502">
        <ele>544.654</ele>
        <time>2021-05-22T14:24:02Z</time>
      </trkpt>
      <trkpt lat="43.52288" lon="2.46499">
        <ele>546.303</ele>
        <time>2021-05-22T14:24:04Z</time>
      </trkpt>
      <trkpt lat="43.5229" lon="2.46498">
        <ele>543.941</ele>
        <time>2021-05-22T14:24:06Z</time>
      </trkpt>
      <trkpt lat="43.52292" lon="2.46497">
        <ele>544.583</ele>
        <time>2021-05-22T14:24:08Z</time>
      </trkpt>
      <trkpt lat="43.52294" lon="2.46496">
        <ele>545.382</ele>
        <time>2021-05-22T14:24:10Z</time>
      </trkpt>
      <trkpt lat="43.52296" lon="2.46495">
        <ele>543.793</ele>
        <time>2021-05-22T14:24:12Z</time>
      </trkpt>
      <trkpt lat="43.52298" lon="2.46494">
        <ele>544.195</ele>
        <time>2021-05-22T14:24:14Z</time>
      </trkpt>
      <trkpt lat="43.523" lon="2.46493">
        <ele>544.583</ele>
        <time>2021-05-22T14:24:16Z</time>
      </trkpt>
      <trkpt lat="43.52302" lon="2.46493">
        <ele>544.303</ele>
        <time>2021-05-22T14:24:18Z</time>
      </trkpt>
      <trkpt lat="43.52305" lon="2.46493">
        <ele>544.637</ele>
        <time>2021-05-22T14:24:20Z</time>
      </trkpt>
      <trkpt lat="43.52307" lon="2.46492">
        <ele>545.745</ele>
        <time>2021-05-22T14:24:22Z</time>
      </trkpt>
      <trkpt lat="43.52309" lon="2.4649">
        <ele>545.533</ele>
        <time>2021-05-22T14:24:24Z</time>
      </trkpt>
      <trkpt lat="43.52311" lon="2.46489">
        <ele>546.347</ele>
        <time>2021-05-22T14:24:26Z</time>
      </trkpt>
      <trkpt lat="43.52313" lon="2.46487">
        <ele>546.919</ele>
        <time>2021-05-22T14:24:28Z</time>
      </trkpt>
      <trkpt lat="43.52314" lon="2.46485">
        <ele>547.072</ele>
        <time>2021-05-22T14:24:30Z</time>
      </trkpt>
      <trkpt lat="43.52315" lon="2.46482">
        <ele>545.67</ele>
        <time>2021-05-22T14:24:32Z</time>
      </trkpt>
      <trkpt lat="43.52316" lon="2.46479">
        <ele>546.33</ele>
        <time>2021-05-22T14:24:34Z</time>
      </trkpt>
      <trkpt lat="43.52317" lon="2.46476">
        <ele>547.638</ele>
        <time>2021-05-22T14:24:36Z</time>
      </trkpt>
      <trkpt lat="43.52318" lon="2.46472">
        <ele>545.072</ele>
        <time>2021-05-22T14:24:38Z</time>
      </trkpt>
      <trkpt lat="43.52318" lon="2.46468">
        <ele>543.915</ele>
        <time>2021-05-22T14:24:40Z</time>
      </trkpt>
      <trkpt lat="43.52317" lon="2.46465">
        <ele>543.405</ele>
        <time>2021-05-22T14:24:42Z</time>
      </trkpt>
      <trkpt lat="43.52316" lon="2.46461">
        <ele>543.586</ele>
        <time>2021-05-22T14:24:44Z</time>
      </trkpt>
      <trkpt lat="43.52316" lon="2.46458">
        <ele>542.271</ele>
        <time>2021-05-22T14:24:46Z</time>
      </trkpt>
      <trkpt lat="43.52316" lon="2.46455">
        <ele>543.589</ele>
        <time>2021-05-22T14:24:48Z</time>
      </trkpt>
      <trkpt lat="43.52317" lon="2.46452">
        <ele>545.492</ele>
        <time>2021-05-22T14:24:50Z</time>
      </trkpt>
      <trkpt lat="43.52318" lon="2.46449">
        <ele>545.674</ele>
        <time>2021-05-22T14:24:52Z</time>
      </trkpt>
      <trkpt lat="43.5232" lon="2.46447">
        <ele>545.184</ele>
        <time>2021-05-22T14:24:54Z</time>
      </trkpt>
      <trkpt lat="43.52322" lon="2.46448">
        <ele>545.092</ele>
        <time>2021-05-22T14:24:56Z</time>
      </trkpt>
      <trkpt lat="43.52324" lon="2.46449">
        <ele>545.342</ele>
        <time>2021-05-22T14:24:58Z</time>
      </trkpt>
      <trkpt lat="43.52325" lon="2.46451">
        <ele>545.437</ele>
        <time>2021-05-22T14:25:00Z</time>
      </trkpt>
      <trkpt lat="43.52327" lon="2.46452">
        <ele>545.068</ele>
        <time>2021-05-22T14:25:02Z</time>
      </trkpt>
      <trkpt lat="43.52328" lon="2.46453">
        <ele>544.707</ele>
        <time>2021-05-22T14:25:04Z</time>
      </trkpt>
      <trkpt lat="43.52329" lon="2.46454">
        <ele>543.893</ele>
        <time>2021-05-22T14:25:06Z</time>
      </trkpt>
      <trkpt lat="43.52331" lon="2.46456">
        <ele>545.864</ele>
        <time>2021-05-22T14:25:08Z</time>
      </trkpt>
      <trkpt lat="43.52332" lon="2.46457">
        <ele>547.027</ele>
        <time>2021-05-22T14:25:10Z</time>
      </trkpt>
      <trkpt lat="43.52334" lon="2.46459">
        <ele>545.953</ele>
        <time>2021-05-22T14:25:12Z</time>
      </trkpt>
      <trkpt lat="43.52335" lon="2.46462">
        <ele>546.157</ele>
        <time>2021-05-22T14:25:14Z</time>
      </trkpt>
      <trkpt lat="43.52337" lon="2.46464">
        <ele>545.629</ele>
        <time>2021-05-22T14:25:16Z</time>
      </trkpt>
      <trkpt lat="43.52338" lon="2.46465">
        <ele>548.257</ele>
        <time>2021-05-22T14:25:18Z</time>
      </trkpt>
      <trkpt lat="43.52341" lon="2.46465">
        <ele>549.17</ele>
        <time>2021-05-22T14:25:20Z</time>
      </trkpt>
      <trkpt lat="43.52343" lon="2.46464">
        <ele>549.571</ele>
        <time>2021-05-22T14:25:22Z</time>
      </trkpt>
      <trkpt lat="43.52343" lon="2.46461">
        <ele>549.093</ele>
        <time>2021-05-22T14:25:24Z</time>
      </trkpt>
      <trkpt lat="43.52344" lon="2.46458">
        <ele>548.154</ele>
        <time>2021-05-22T14:25:26Z</time>
      </trkpt>
      <trkpt lat="43.52344" lon="2.46455">
        <ele>548.144</ele>
        <time>2021-05-22T14:25:28Z</time>
      </trkpt>
      <trkpt lat="43.52343" lon="2.46452">
        <ele>548.311</ele>
        <time>2021-05-22T14:25:30Z</time>
      </trkpt>
      <trkpt lat="43.52343" lon="2.46449">
        <ele>548.054</ele>
        <time>2021-05-22T14:25:32Z</time>
      </trkpt>
      <trkpt lat="43.52342" lon="2.46447">
        <ele>547.7</ele>
        <time>2021-05-22T14:25:34Z</time>
      </trkpt>
      <trkpt lat="43.5234" lon="2.46444">
        <ele>547.478</ele>
        <time>2021-05-22T14:25:36Z</time>
      </trkpt>
      <trkpt lat="43.52339" lon="2.46442">
        <ele>545.765</ele>
        <time>2021-05-22T14:25:38Z</time>
      </trkpt>
      <trkpt lat="43.52337" lon="2.46439">
        <ele>544.674</ele>
        <time>2021-05-22T14:25:40Z</time>
      </trkpt>
      <trkpt lat="43.52337" lon="2.46436">
        <ele>546.139</ele>
        <time>2021-05-22T14:25:42Z</time>
      </trkpt>
      <trkpt lat="43.52337" lon="2.46433">
        <ele>546.591</ele>
        <time>2021-05-22T14:25:44Z</time>
      </trkpt>
      <trkpt lat="43.52336" lon="2.46431">
        <ele>545.982</ele>
        <time>2021-05-22T14:25:46Z</time>
      </trkpt>
      <trkpt lat="43.52336" lon="2.46428">
        <ele>545.245</ele>
        <time>2021-05-22T14:25:48Z</time>
      </trkpt>
      <trkpt lat="43.52335" lon="2.46426">
        <ele>544.509</ele>
        <time>2021-05-22T14:25:50Z</time>
      </trkpt>
      <trkpt lat="43.52334" lon="2.46424">
        <ele>543.779</ele>
        <time>2021-05-22T14:25:52Z</time>
      </trkpt>
      <trkpt lat="43.52334" lon="2.46422">
        <ele>543.405</ele>
        <time>2021-05-22T14:25:54Z</time>
      </trkpt>
      <trkpt lat="43.52333" lon="2.46419">
        <ele>543.47</ele>
        <time>2021-05-22T14:25:56Z</time>
      </trkpt>
      <trkpt lat="43.52332" lon="2.46417">
        <ele>543.927</ele>
        <time>2021-05-22T14:25:58Z</time>
      </trkpt>
      <trkpt lat="43.52331" lon="2.46415">
        <ele>545.253</ele>
        <time>2021-05-22T14:26:00Z</time>
      </trkpt>
      <trkpt lat="43.5233" lon="2.46413">
        <ele>546.595</ele>
        <time>2021-05-22T14:26:02Z</time>
      </trkpt>
      <trkpt lat="43.5233" lon="2.4641">
        <ele>547.912</ele>
        <time>2021-05-22T14:26:04Z</time>
      </trkpt>
      <trkpt lat="43.52329" lon="2.46408">
        <ele>547.109</ele>
        <time>2021-05-22T14:26:06Z</time>
      </trkpt>
      <trkpt lat="43.52328" lon="2.46406">
        <ele>547.061</ele>
        <time>2021-05-22T14:26:08Z</time>
      </trkpt>
      <trkpt lat="43.52327" lon="2.46404">
        <ele>546.069</ele>
        <time>2021-05-22T14:26:10Z</time>
      </trkpt>
      <trkpt lat="43.52326" lon="2.46402">
        <ele>547.003</ele>
        <time>2021-05-22T14:26:12Z</time>
      </trkpt>
      <trkpt lat="43.52326" lon="2.46399">
        <ele>546.346</ele>
        <time>2021-05-22T14:26:14Z</time>
      </trkpt>
      <trkpt lat="43.52325" lon="2.46396">
        <ele>546.477</ele>
        <time>2021-05-22T14:26:16Z</time>
      </trkpt>
      <trkpt lat="43.52324" lon="2.46394">
        <ele>547.354</ele>
        <time>2021-05-22T14:26:18Z</time>
      </trkpt>
      <trkpt lat="43.52325" lon="2.46391">
        <ele>547.318</ele>
        <time>2021-05-22T14:26:20Z</time>
      </trkpt>
      <trkpt lat="43.52325" lon="2.46388">
        <ele>548.789</ele>
        <time>2021-05-22T14:26:22Z</time>
      </trkpt>
      <trkpt lat="43.52326" lon="2.46386">
        <ele>548.988</ele>
        <time>2021-05-22T14:26:24Z</time>
      </trkpt>
      <trkpt lat="43.52326" lon="2.46383">
        <ele>548.376</ele>
        <time>2021-05-22T14:26:26Z</time>
      </trkpt>
      <trkpt lat="43.52328" lon="2.46381">
        <ele>548.308</ele>
        <time>2021-05-22T14:26:28Z</time>
      </trkpt>
      <trkpt lat="43.52329" lon="2.46378">
        <ele>548.951</ele>
        <time>2021-05-22T14:26:30Z</time>
      </trkpt>
      <trkpt lat="43.52329" lon="2.46375">
        <ele>549.075</ele>
        <time>2021-05-22T14:26:32Z</time>
      </trkpt>
      <trkpt lat="43.5233" lon="2.46372">
        <ele>549.947</ele>
        <time>2021-05-22T14:26:34Z</time>
      </trkpt>
      <trkpt lat="43.52329" lon="2.4637">
        <ele>549.912</ele>
        <time>2021-05-22T14:26:36Z</time>
      </trkpt>
      <trkpt lat="43.52329" lon="2.46367">
        <ele>549.647</ele>
        <time>2021-05-22T14:26:38Z</time>
      </trkpt>
      <trkpt lat="43.5233" lon="2.46365">
        <ele>549.064</ele>
        <time>2021-05-22T14:26:40Z</time>
      </trkpt>
      <trkpt lat="43.5233" lon="2.46363">
        <ele>548.529</ele>
        <time>2021-05-22T14:26:42Z</time>
      </trkpt>
      <trkpt lat="43.52332" lon="2.46361">
        <ele>548.215</ele>
        <time>2021-05-22T14:26:44Z</time>
      </trkpt>
      <trkpt lat="43.52333" lon="2.46358">
        <ele>548.891</ele>
        <time>2021-05-22T14:26:46Z</time>
      </trkpt>
      <trkpt lat="43.52334" lon="2.46356">
        <ele>548.55</ele>
        <time>2021-05-22T14:26:48Z</time>
      </trkpt>
      <trkpt lat="43.52335" lon="2.46353">
        <ele>548.773</ele>
        <time>2021-05-22T14:26:50Z</time>
      </trkpt>
      <trkpt lat="43.52335" lon="2.46349">
        <ele>549.605</ele>
        <time>2021-05-22T14:26:52Z</time>
      </trkpt>
      <trkpt lat="43.52336" lon="2.46346">
        <ele>550.317</ele>
        <time>2021-05-22T14:26:54Z</time>
      </trkpt>
      <trkpt lat="43.52338" lon="2.46343">
        <ele>551.27</ele>
        <time>2021-05-22T14:26:56Z</time>
      </trkpt>
      <trkpt lat="43.52339" lon="2.4634">
        <ele>551.981</ele>
        <time>2021-05-22T14:26:58Z</time>
      </trkpt>
      <trkpt lat="43.5234" lon="2.46337">
        <ele>552.651</ele>
        <time>2021-05-22T14:27:00Z</time>
      </trkpt>
      <trkpt lat="43.52341" lon="2.46334">
        <ele>553.356</ele>
        <time>2021-05-22T14:27:02Z</time>
      </trkpt>
      <trkpt lat="43.52342" lon="2.46331">
        <ele>553.576</ele>
        <time>2021-05-22T14:27:04Z</time>
      </trkpt>
      <trkpt lat="43.52343" lon="2.46328">
        <ele>554.352</ele>
        <time>2021-05-22T14:27:06Z</time>
      </trkpt>
      <trkpt lat="43.52344" lon="2.46325">
        <ele>554.441</ele>
        <time>2021-05-22T14:27:08Z</time>
      </trkpt>
      <trkpt lat="43.52344" lon="2.46323">
        <ele>553.962</ele>
        <time>2021-05-22T14:27:10Z</time>
      </trkpt>
      <trkpt lat="43.52345" lon="2.4632">
        <ele>552.911</ele>
        <time>2021-05-22T14:27:12Z</time>
      </trkpt>
      <trkpt lat="43.52346" lon="2.46318">
        <ele>552.376</ele>
        <time>2021-05-22T14:27:14Z</time>
      </trkpt>
      <trkpt lat="43.52346" lon="2.46315">
        <ele>551.858</ele>
        <time>2021-05-22T14:27:16Z</time>
      </trkpt>
      <trkpt lat="43.52346" lon="2.46312">
        <ele>552.806</ele>
        <time>2021-05-22T14:27:18Z</time>
      </trkpt>
      <trkpt lat="43.52347" lon="2.46309">
        <ele>553.092</ele>
        <time>2021-05-22T14:27:20Z</time>
      </trkpt>
      <trkpt lat="43.52347" lon="2.46306">
        <ele>553.159</ele>
        <time>2021-05-22T14:27:22Z</time>
      </trkpt>
      <trkpt lat="43.52347" lon="2.46302">
        <ele>552.668</ele>
        <time>2021-05-22T14:27:24Z</time>
      </trkpt>
      <trkpt lat="43.52346" lon="2.46299">
        <ele>553.331</ele>
        <time>2021-05-22T14:27:26Z</time>
      </trkpt>
      <trkpt lat="43.52346" lon="2.46295">
        <ele>555.07</ele>
        <time>2021-05-22T14:27:28Z</time>
      </trkpt>
      <trkpt lat="43.52346" lon="2.46292">
        <ele>554.538</ele>
        <time>2021-05-22T14:27:30Z</time>
      </trkpt>
      <trkpt lat="43.52346" lon="2.46289">
        <ele>554.83</ele>
        <time>2021-05-22T14:27:32Z</time>
      </trkpt>
      <trkpt lat="43.52346" lon="2.46285">
        <ele>555.089</ele>
        <time>2021-05-22T14:27:34Z</time>
      </trkpt>
      <trkpt lat="43.52346" lon="2.46282">
        <ele>554.987</ele>
        <time>2021-05-22T14:27:36Z</time>
      </trkpt>
      <trkpt lat="43.52347" lon="2.46278">
        <ele>554.626</ele>
        <time>2021-05-22T14:27:38Z</time>
      </trkpt>
      <trkpt lat="43.52349" lon="2.46266">
        <ele>556.633</ele>
        <time>2021-05-22T14:27:45Z</time>
      </trkpt>
      <trkpt lat="43.52349" lon="2.46263">
        <ele>557.003</ele>
        <time>2021-05-22T14:27:47Z</time>
      </trkpt>
      <trkpt lat="43.52349" lon="2.4626">
        <ele>556.741</ele>
        <time>2021-05-22T14:27:49Z</time>
      </trkpt>
      <trkpt lat="43.52349" lon="2.46257">
        <ele>557.354</ele>
        <time>2021-05-22T14:27:51Z</time>
      </trkpt>
      <trkpt lat="43.5235" lon="2.46252">
        <ele>558.257</ele>
        <time>2021-05-22T14:27:54Z</time>
      </trkpt>
      <trkpt lat="43.52351" lon="2.46248">
        <ele>558.582</ele>
        <time>2021-05-22T14:27:56Z</time>
      </trkpt>
      <trkpt lat="43.52352" lon="2.46245">
        <ele>559.213</ele>
        <time>2021-05-22T14:27:58Z</time>
      </trkpt>
      <trkpt lat="43.52352" lon="2.46241">
        <ele>560.156</ele>
        <time>2021-05-22T14:28:00Z</time>
      </trkpt>
      <trkpt lat="43.52352" lon="2.46238">
        <ele>560.634</ele>
        <time>2021-05-22T14:28:02Z</time>
      </trkpt>
      <trkpt lat="43.52352" lon="2.46234">
        <ele>561.256</ele>
        <time>2021-05-22T14:28:04Z</time>
      </trkpt>
      <trkpt lat="43.52353" lon="2.46231">
        <ele>561.945</ele>
        <time>2021-05-22T14:28:06Z</time>
      </trkpt>
      <trkpt lat="43.52353" lon="2.46228">
        <ele>562.801</ele>
        <time>2021-05-22T14:28:08Z</time>
      </trkpt>
      <trkpt lat="43.52354" lon="2.46225">
        <ele>563.868</ele>
        <time>2021-05-22T14:28:10Z</time>
      </trkpt>
      <trkpt lat="43.52354" lon="2.46222">
        <ele>564.58</ele>
        <time>2021-05-22T14:28:12Z</time>
      </trkpt>
      <trkpt lat="43.52355" lon="2.46219">
        <ele>565.288</ele>
        <time>2021-05-22T14:28:14Z</time>
      </trkpt>
      <trkpt lat="43.52355" lon="2.46215">
        <ele>566.311</ele>
        <time>2021-05-22T14:28:16Z</time>
      </trkpt>
      <trkpt lat="43.52356" lon="2.46212">
        <ele>566.014</ele>
        <time>2021-05-22T14:28:18Z</time>
      </trkpt>
      <trkpt lat="43.52357" lon="2.46209">
        <ele>566.941</ele>
        <time>2021-05-22T14:28:20Z</time>
      </trkpt>
      <trkpt lat="43.52359" lon="2.46206">
        <ele>567.923</ele>
        <time>2021-05-22T14:28:22Z</time>
      </trkpt>
      <trkpt lat="43.5236" lon="2.46204">
        <ele>568.352</ele>
        <time>2021-05-22T14:28:24Z</time>
      </trkpt>
      <trkpt lat="43.52361" lon="2.46201">
        <ele>567.168</ele>
        <time>2021-05-22T14:28:26Z</time>
      </trkpt>
      <trkpt lat="43.52363" lon="2.46198">
        <ele>567.848</ele>
        <time>2021-05-22T14:28:28Z</time>
      </trkpt>
      <trkpt lat="43.52365" lon="2.46195">
        <ele>569.32</ele>
        <time>2021-05-22T14:28:30Z</time>
      </trkpt>
      <trkpt lat="43.52367" lon="2.46193">
        <ele>570.215</ele>
        <time>2021-05-22T14:28:32Z</time>
      </trkpt>
      <trkpt lat="43.52369" lon="2.46189">
        <ele>570.597</ele>
        <time>2021-05-22T14:28:34Z</time>
      </trkpt>
      <trkpt lat="43.52371" lon="2.46186">
        <ele>571.102</ele>
        <time>2021-05-22T14:28:36Z</time>
      </trkpt>
      <trkpt lat="43.52371" lon="2.46182">
        <ele>568.666</ele>
        <time>2021-05-22T14:28:38Z</time>
      </trkpt>
      <trkpt lat="43.52372" lon="2.46179">
        <ele>568.083</ele>
        <time>2021-05-22T14:28:40Z</time>
      </trkpt>
      <trkpt lat="43.52373" lon="2.46176">
        <ele>567.627</ele>
        <time>2021-05-22T14:28:42Z</time>
      </trkpt>
      <trkpt lat="43.52375" lon="2.46173">
        <ele>568.032</ele>
        <time>2021-05-22T14:28:44Z</time>
      </trkpt>
      <trkpt lat="43.52376" lon="2.46169">
        <ele>568.116</ele>
        <time>2021-05-22T14:28:46Z</time>
      </trkpt>
      <trkpt lat="43.52378" lon="2.46167">
        <ele>568.081</ele>
        <time>2021-05-22T14:28:48Z</time>
      </trkpt>
      <trkpt lat="43.52379" lon="2.46165">
        <ele>567.003</ele>
        <time>2021-05-22T14:28:50Z</time>
      </trkpt>
      <trkpt lat="43.5238" lon="2.46162">
        <ele>566.256</ele>
        <time>2021-05-22T14:28:52Z</time>
      </trkpt>
      <trkpt lat="43.52382" lon="2.46159">
        <ele>567.27</ele>
        <time>2021-05-22T14:28:54Z</time>
      </trkpt>
      <trkpt lat="43.52383" lon="2.46156">
        <ele>566.01</ele>
        <time>2021-05-22T14:28:56Z</time>
      </trkpt>
      <trkpt lat="43.52385" lon="2.46153">
        <ele>565.73</ele>
        <time>2021-05-22T14:28:58Z</time>
      </trkpt>
      <trkpt lat="43.52386" lon="2.4615">
        <ele>565.667</ele>
        <time>2021-05-22T14:29:00Z</time>
      </trkpt>
      <trkpt lat="43.52388" lon="2.46147">
        <ele>565.419</ele>
        <time>2021-05-22T14:29:02Z</time>
      </trkpt>
      <trkpt lat="43.52389" lon="2.46144">
        <ele>564.838</ele>
        <time>2021-05-22T14:29:04Z</time>
      </trkpt>
      <trkpt lat="43.52391" lon="2.46141">
        <ele>564.449</ele>
        <time>2021-05-22T14:29:06Z</time>
      </trkpt>
      <trkpt lat="43.52393" lon="2.46138">
        <ele>563.951</ele>
        <time>2021-05-22T14:29:08Z</time>
      </trkpt>
      <trkpt lat="43.52394" lon="2.46136">
        <ele>563.664</ele>
        <time>2021-05-22T14:29:10Z</time>
      </trkpt>
      <trkpt lat="43.52396" lon="2.46133">
        <ele>563.443</ele>
        <time>2021-05-22T14:29:12Z</time>
      </trkpt>
      <trkpt lat="43.52397" lon="2.46131">
        <ele>563.347</ele>
        <time>2021-05-22T14:29:14Z</time>
      </trkpt>
      <trkpt lat="43.52399" lon="2.46128">
        <ele>563.138</ele>
        <time>2021-05-22T14:29:16Z</time>
      </trkpt>
      <trkpt lat="43.52401" lon="2.46126">
        <ele>562.648</ele>
        <time>2021-05-22T14:29:18Z</time>
      </trkpt>
      <trkpt lat="43.52402" lon="2.46123">
        <ele>562.798</ele>
        <time>2021-05-22T14:29:20Z</time>
      </trkpt>
      <trkpt lat="43.52404" lon="2.46121">
        <ele>563.082</ele>
        <time>2021-05-22T14:29:22Z</time>
      </trkpt>
      <trkpt lat="43.52406" lon="2.46118">
        <ele>563.368</ele>
        <time>2021-05-22T14:29:24Z</time>
      </trkpt>
      <trkpt lat="43.52408" lon="2.46116">
        <ele>564.361</ele>
        <time>2021-05-22T14:29:26Z</time>
      </trkpt>
      <trkpt lat="43.5241" lon="2.46114">
        <ele>565.265</ele>
        <time>2021-05-22T14:29:28Z</time>
      </trkpt>
      <trkpt lat="43.52412" lon="2.46112">
        <ele>565.839</ele>
        <time>2021-05-22T14:29:30Z</time>
      </trkpt>
      <trkpt lat="43.52415" lon="2.46109">
        <ele>566.889</ele>
        <time>2021-05-22T14:29:33Z</time>
      </trkpt>
      <trkpt lat="43.52417" lon="2.46107">
        <ele>567.585</ele>
        <time>2021-05-22T14:29:35Z</time>
      </trkpt>
      <trkpt lat="43.5242" lon="2.46106">
        <ele>567.918</ele>
        <time>2021-05-22T14:29:37Z</time>
      </trkpt>
      <trkpt lat="43.52423" lon="2.46104">
        <ele>568.087</ele>
        <time>2021-05-22T14:29:39Z</time>
      </trkpt>
      <trkpt lat="43.52426" lon="2.46103">
        <ele>568.523</ele>
        <time>2021-05-22T14:29:41Z</time>
      </trkpt>
      <trkpt lat="43.52428" lon="2.46103">
        <ele>569.537</ele>
        <time>2021-05-22T14:29:43Z</time>
      </trkpt>
      <trkpt lat="43.5243" lon="2.46102">
        <ele>570.585</ele>
        <time>2021-05-22T14:29:45Z</time>
      </trkpt>
      <trkpt lat="43.52432" lon="2.46103">
        <ele>572.025</ele>
        <time>2021-05-22T14:29:47Z</time>
      </trkpt>
      <trkpt lat="43.52434" lon="2.46103">
        <ele>571.945</ele>
        <time>2021-05-22T14:29:49Z</time>
      </trkpt>
      <trkpt lat="43.52436" lon="2.46104">
        <ele>572.752</ele>
        <time>2021-05-22T14:29:51Z</time>
      </trkpt>
      <trkpt lat="43.52438" lon="2.46105">
        <ele>573.146</ele>
        <time>2021-05-22T14:29:53Z</time>
      </trkpt>
      <trkpt lat="43.52441" lon="2.46106">
        <ele>573.738</ele>
        <time>2021-05-22T14:29:55Z</time>
      </trkpt>
      <trkpt lat="43.52443" lon="2.46107">
        <ele>574.399</ele>
        <time>2021-05-22T14:29:57Z</time>
      </trkpt>
      <trkpt lat="43.52446" lon="2.46108">
        <ele>574.654</ele>
        <time>2021-05-22T14:29:59Z</time>
      </trkpt>
      <trkpt lat="43.52448" lon="2.4611">
        <ele>575.802</ele>
        <time>2021-05-22T14:30:01Z</time>
      </trkpt>
      <trkpt lat="43.5245" lon="2.46111">
        <ele>575.061</ele>
        <time>2021-05-22T14:30:03Z</time>
      </trkpt>
      <trkpt lat="43.52452" lon="2.46112">
        <ele>575.218</ele>
        <time>2021-05-22T14:30:05Z</time>
      </trkpt>
      <trkpt lat="43.52455" lon="2.46112">
        <ele>575.347</ele>
        <time>2021-05-22T14:30:07Z</time>
      </trkpt>
      <trkpt lat="43.52456" lon="2.46111">
        <ele>574.861</ele>
        <time>2021-05-22T14:30:08Z</time>
      </trkpt>
      <trkpt lat="43.5246" lon="2.46111">
        <ele>575.089</ele>
        <time>2021-05-22T14:30:11Z</time>
      </trkpt>
      <trkpt lat="43.52463" lon="2.46111">
        <ele>573.335</ele>
        <time>2021-05-22T14:30:13Z</time>
      </trkpt>
      <trkpt lat="43.52465" lon="2.46112">
        <ele>573.831</ele>
        <time>2021-05-22T14:30:15Z</time>
      </trkpt>
      <trkpt lat="43.52467" lon="2.46112">
        <ele>573.247</ele>
        <time>2021-05-22T14:30:17Z</time>
      </trkpt>
      <trkpt lat="43.5247" lon="2.46113">
        <ele>572.865</ele>
        <time>2021-05-22T14:30:19Z</time>
      </trkpt>
      <trkpt lat="43.52472" lon="2.46113">
        <ele>574.388</ele>
        <time>2021-05-22T14:30:21Z</time>
      </trkpt>
      <trkpt lat="43.52474" lon="2.46115">
        <ele>574.351</ele>
        <time>2021-05-22T14:30:23Z</time>
      </trkpt>
      <trkpt lat="43.52475" lon="2.46117">
        <ele>574.27</ele>
        <time>2021-05-22T14:30:25Z</time>
      </trkpt>
      <trkpt lat="43.52476" lon="2.46119">
        <ele>574.559</ele>
        <time>2021-05-22T14:30:27Z</time>
      </trkpt>
      <trkpt lat="43.52478" lon="2.46121">
        <ele>575.075</ele>
        <time>2021-05-22T14:30:29Z</time>
      </trkpt>
      <trkpt lat="43.52479" lon="2.46124">
        <ele>574.969</ele>
        <time>2021-05-22T14:30:31Z</time>
      </trkpt>
      <trkpt lat="43.52481" lon="2.46126">
        <ele>575.186</ele>
        <time>2021-05-22T14:30:33Z</time>
      </trkpt>
      <trkpt lat="43.52482" lon="2.46129">
        <ele>575.524</ele>
        <time>2021-05-22T14:30:35Z</time>
      </trkpt>
      <trkpt lat="43.52484" lon="2.4613">
        <ele>575.895</ele>
        <time>2021-05-22T14:30:37Z</time>
      </trkpt>
      <trkpt lat="43.52486" lon="2.46133">
        <ele>575.832</ele>
        <time>2021-05-22T14:30:39Z</time>
      </trkpt>
      <trkpt lat="43.52487" lon="2.46136">
        <ele>575.837</ele>
        <time>2021-05-22T14:30:41Z</time>
      </trkpt>
      <trkpt lat="43.52489" lon="2.46136">
        <ele>576.232</ele>
        <time>2021-05-22T14:30:43Z</time>
      </trkpt>
      <trkpt lat="43.52491" lon="2.46135">
        <ele>577.058</ele>
        <time>2021-05-22T14:30:45Z</time>
      </trkpt>
      <trkpt lat="43.52493" lon="2.46133">
        <ele>577.108</ele>
        <time>2021-05-22T14:30:47Z</time>
      </trkpt>
      <trkpt lat="43.52494" lon="2.46132">
        <ele>577.3</ele>
        <time>2021-05-22T14:30:49Z</time>
      </trkpt>
      <trkpt lat="43.52496" lon="2.46131">
        <ele>577.771</ele>
        <time>2021-05-22T14:30:51Z</time>
      </trkpt>
      <trkpt lat="43.52498" lon="2.46131">
        <ele>578.097</ele>
        <time>2021-05-22T14:30:53Z</time>
      </trkpt>
      <trkpt lat="43.525" lon="2.4613">
        <ele>579.03</ele>
        <time>2021-05-22T14:30:55Z</time>
      </trkpt>
      <trkpt lat="43.52501" lon="2.46129">
        <ele>578.942</ele>
        <time>2021-05-22T14:30:57Z</time>
      </trkpt>
      <trkpt lat="43.52503" lon="2.46129">
        <ele>578.974</ele>
        <time>2021-05-22T14:30:59Z</time>
      </trkpt>
      <trkpt lat="43.52505" lon="2.46128">
        <ele>578.716</ele>
        <time>2021-05-22T14:31:01Z</time>
      </trkpt>
      <trkpt lat="43.52506" lon="2.46128">
        <ele>578.412</ele>
        <time>2021-05-22T14:31:03Z</time>
      </trkpt>
      <trkpt lat="43.52508" lon="2.46126">
        <ele>578.335</ele>
        <time>2021-05-22T14:31:05Z</time>
      </trkpt>
      <trkpt lat="43.52509" lon="2.46126">
        <ele>578.827</ele>
        <time>2021-05-22T14:31:07Z</time>
      </trkpt>
      <trkpt lat="43.5251" lon="2.46127">
        <ele>578.819</ele>
        <time>2021-05-22T14:31:09Z</time>
      </trkpt>
      <trkpt lat="43.5251" lon="2.46127">
        <ele>578.832</ele>
        <time>2021-05-22T14:31:11Z</time>
      </trkpt>
      <trkpt lat="43.5251" lon="2.46127">
        <ele>578.84</ele>
        <time>2021-05-22T14:31:13Z</time>
      </trkpt>
      <trkpt lat="43.5251" lon="2.46127">
        <ele>578.838</ele>
        <time>2021-05-22T14:31:15Z</time>
      </trkpt>
      <trkpt lat="43.5251" lon="2.46127">
        <ele>578.851</ele>
        <time>2021-05-22T14:31:17Z</time>
      </trkpt>
      <trkpt lat="43.52511" lon="2.46126">
        <ele>579.732</ele>
        <time>2021-05-22T14:31:19Z</time>
      </trkpt>
      <trkpt lat="43.52512" lon="2.46126">
        <ele>580.09</ele>
        <time>2021-05-22T14:31:21Z</time>
      </trkpt>
      <trkpt lat="43.52513" lon="2.46127">
        <ele>579.396</ele>
        <time>2021-05-22T14:31:23Z</time>
      </trkpt>
      <trkpt lat="43.52512" lon="2.46125">
        <ele>579.956</ele>
        <time>2021-05-22T14:31:25Z</time>
      </trkpt>
      <trkpt lat="43.52512" lon="2.46125">
        <ele>580.298</ele>
        <time>2021-05-22T14:31:27Z</time>
      </trkpt>
      <trkpt lat="43.52512" lon="2.46125">
        <ele>579.94</ele>
        <time>2021-05-22T14:31:29Z</time>
      </trkpt>
      <trkpt lat="43.52513" lon="2.46127">
        <ele>578.252</ele>
        <time>2021-05-22T14:31:31Z</time>
      </trkpt>
      <trkpt lat="43.52513" lon="2.46128">
        <ele>578.082</ele>
        <time>2021-05-22T14:31:33Z</time>
      </trkpt>
      <trkpt lat="43.52513" lon="2.46129">
        <ele>578.07</ele>
        <time>2021-05-22T14:31:35Z</time>
      </trkpt>
      <trkpt lat="43.52513" lon="2.46129">
        <ele>578.781</ele>
        <time>2021-05-22T14:31:37Z</time>
      </trkpt>
      <trkpt lat="43.52513" lon="2.46129">
        <ele>578.782</ele>
        <time>2021-05-22T14:31:39Z</time>
      </trkpt>
      <trkpt lat="43.52513" lon="2.46129">
        <ele>578.782</ele>
        <time>2021-05-22T14:31:41Z</time>
      </trkpt>
      <trkpt lat="43.52513" lon="2.46129">
        <ele>578.781</ele>
        <time>2021-05-22T14:31:43Z</time>
      </trkpt>
      <trkpt lat="43.52513" lon="2.46129">
        <ele>578.78</ele>
        <time>2021-05-22T14:31:45Z</time>
      </trkpt>
      <trkpt lat="43.52513" lon="2.46129">
        <ele>578.788</ele>
        <time>2021-05-22T14:31:47Z</time>
      </trkpt>
      <trkpt lat="43.52513" lon="2.46129">
        <ele>578.789</ele>
        <time>2021-05-22T14:31:49Z</time>
      </trkpt>
      <trkpt lat="43.52513" lon="2.46129">
        <ele>578.79</ele>
        <time>2021-05-22T14:31:51Z</time>
      </trkpt>
      <trkpt lat="43.52513" lon="2.46129">
        <ele>578.898</ele>
        <time>2021-05-22T14:31:53Z</time>
      </trkpt>
      <trkpt lat="43.52513" lon="2.46129">
        <ele>578.838</ele>
        <time>2021-05-22T14:31:55Z</time>
      </trkpt>
      <trkpt lat="43.52513" lon="2.46129">
        <ele>578.838</ele>
        <time>2021-05-22T14:31:57Z</time>
      </trkpt>
      <trkpt lat="43.52513" lon="2.46129">
        <ele>578.839</ele>
        <time>2021-05-22T14:31:59Z</time>
      </trkpt>
      <trkpt lat="43.52513" lon="2.46129">
        <ele>578.838</ele>
        <time>2021-05-22T14:32:01Z</time>
      </trkpt>
      <trkpt lat="43.52513" lon="2.46129">
        <ele>578.836</ele>
        <time>2021-05-22T14:32:03Z</time>
      </trkpt>
      <trkpt lat="43.52513" lon="2.46129">
        <ele>578.836</ele>
        <time>2021-05-22T14:32:05Z</time>
      </trkpt>
      <trkpt lat="43.52513" lon="2.46129">
        <ele>578.834</ele>
        <time>2021-05-22T14:32:07Z</time>
      </trkpt>
      <trkpt lat="43.52513" lon="2.46129">
        <ele>578.834</ele>
        <time>2021-05-22T14:32:09Z</time>
      </trkpt>
      <trkpt lat="43.52513" lon="2.46129">
        <ele>578.835</ele>
        <time>2021-05-22T14:32:11Z</time>
      </trkpt>
      <trkpt lat="43.52513" lon="2.46129">
        <ele>578.836</ele>
        <time>2021-05-22T14:32:13Z</time>
      </trkpt>
      <trkpt lat="43.52513" lon="2.46129">
        <ele>578.836</ele>
        <time>2021-05-22T14:32:15Z</time>
      </trkpt>
      <trkpt lat="43.52513" lon="2.46129">
        <ele>578.833</ele>
        <time>2021-05-22T14:32:17Z</time>
      </trkpt>
      <trkpt lat="43.52513" lon="2.46129">
        <ele>578.834</ele>
        <time>2021-05-22T14:32:19Z</time>
      </trkpt>
      <trkpt lat="43.52513" lon="2.46128">
        <ele>579</ele>
        <time>2021-05-22T14:32:21Z</time>
      </trkpt>
      <trkpt lat="43.52513" lon="2.46127">
        <ele>578.337</ele>
        <time>2021-05-22T14:32:23Z</time>
      </trkpt>
      <trkpt lat="43.52514" lon="2.46127">
        <ele>578.602</ele>
        <time>2021-05-22T14:32:25Z</time>
      </trkpt>
      <trkpt lat="43.52513" lon="2.46128">
        <ele>578.941</ele>
        <time>2021-05-22T14:32:27Z</time>
      </trkpt>
      <trkpt lat="43.52513" lon="2.46128">
        <ele>579.269</ele>
        <time>2021-05-22T14:32:29Z</time>
      </trkpt>
      <trkpt lat="43.52513" lon="2.46128">
        <ele>579.283</ele>
        <time>2021-05-22T14:32:31Z</time>
      </trkpt>
      <trkpt lat="43.52513" lon="2.46128">
        <ele>579.287</ele>
        <time>2021-05-22T14:32:33Z</time>
      </trkpt>
      <trkpt lat="43.52513" lon="2.46129">
        <ele>580.254</ele>
        <time>2021-05-22T14:32:35Z</time>
      </trkpt>
      <trkpt lat="43.52513" lon="2.46129">
        <ele>580.391</ele>
        <time>2021-05-22T14:32:37Z</time>
      </trkpt>
      <trkpt lat="43.52513" lon="2.46129">
        <ele>580.437</ele>
        <time>2021-05-22T14:32:39Z</time>
      </trkpt>
      <trkpt lat="43.52513" lon="2.46129">
        <ele>580.56</ele>
        <time>2021-05-22T14:32:41Z</time>
      </trkpt>
      <trkpt lat="43.52513" lon="2.46129">
        <ele>580.567</ele>
        <time>2021-05-22T14:32:43Z</time>
      </trkpt>
      <trkpt lat="43.52513" lon="2.46128">
        <ele>580.526</ele>
        <time>2021-05-22T14:32:45Z</time>
      </trkpt>
      <trkpt lat="43.52512" lon="2.46129">
        <ele>580.537</ele>
        <time>2021-05-22T14:32:47Z</time>
      </trkpt>
      <trkpt lat="43.52512" lon="2.46129">
        <ele>580.534</ele>
        <time>2021-05-22T14:32:49Z</time>
      </trkpt>
      <trkpt lat="43.52512" lon="2.46129">
        <ele>580.533</ele>
        <time>2021-05-22T14:32:51Z</time>
      </trkpt>
      <trkpt lat="43.52512" lon="2.46129">
        <ele>580.533</ele>
        <time>2021-05-22T14:32:53Z</time>
      </trkpt>
      <trkpt lat="43.52512" lon="2.46129">
        <ele>580.533</ele>
        <time>2021-05-22T14:32:55Z</time>
      </trkpt>
      <trkpt lat="43.52512" lon="2.46129">
        <ele>580.626</ele>
        <time>2021-05-22T14:32:57Z</time>
      </trkpt>
      <trkpt lat="43.52513" lon="2.46129">
        <ele>580.625</ele>
        <time>2021-05-22T14:32:59Z</time>
      </trkpt>
      <trkpt lat="43.52513" lon="2.46129">
        <ele>580.956</ele>
        <time>2021-05-22T14:33:01Z</time>
      </trkpt>
      <trkpt lat="43.52512" lon="2.46129">
        <ele>581.14</ele>
        <time>2021-05-22T14:33:03Z</time>
      </trkpt>
      <trkpt lat="43.52513" lon="2.46128">
        <ele>581.335</ele>
        <time>2021-05-22T14:33:05Z</time>
      </trkpt>
      <trkpt lat="43.52513" lon="2.46128">
        <ele>581.336</ele>
        <time>2021-05-22T14:33:07Z</time>
      </trkpt>
      <trkpt lat="43.52513" lon="2.46128">
        <ele>581.336</ele>
        <time>2021-05-22T14:33:09Z</time>
      </trkpt>
      <trkpt lat="43.52513" lon="2.46128">
        <ele>581.285</ele>
        <time>2021-05-22T14:33:11Z</time>
      </trkpt>
      <trkpt lat="43.52512" lon="2.46129">
        <ele>581.292</ele>
        <time>2021-05-22T14:33:13Z</time>
      </trkpt>
      <trkpt lat="43.52512" lon="2.46129">
        <ele>581.293</ele>
        <time>2021-05-22T14:33:15Z</time>
      </trkpt>
      <trkpt lat="43.52512" lon="2.46129">
        <ele>581.391</ele>
        <time>2021-05-22T14:33:17Z</time>
      </trkpt>
      <trkpt lat="43.52512" lon="2.46129">
        <ele>581.715</ele>
        <time>2021-05-22T14:33:19Z</time>
      </trkpt>
      <trkpt lat="43.52512" lon="2.46129">
        <ele>581.711</ele>
        <time>2021-05-22T14:33:21Z</time>
      </trkpt>
      <trkpt lat="43.52512" lon="2.46129">
        <ele>581.714</ele>
        <time>2021-05-22T14:33:23Z</time>
      </trkpt>
      <trkpt lat="43.52512" lon="2.46129">
        <ele>581.718</ele>
        <time>2021-05-22T14:33:25Z</time>
      </trkpt>
      <trkpt lat="43.52512" lon="2.46129">
        <ele>581.205</ele>
        <time>2021-05-22T14:33:27Z</time>
      </trkpt>
      <trkpt lat="43.52512" lon="2.46129">
        <ele>581.202</ele>
        <time>2021-05-22T14:33:29Z</time>
      </trkpt>
      <trkpt lat="43.52512" lon="2.46129">
        <ele>581.466</ele>
        <time>2021-05-22T14:33:31Z</time>
      </trkpt>
      <trkpt lat="43.52512" lon="2.46129">
        <ele>581.557</ele>
        <time>2021-05-22T14:33:33Z</time>
      </trkpt>
      <trkpt lat="43.52512" lon="2.46129">
        <ele>581.555</ele>
        <time>2021-05-22T14:33:35Z</time>
      </trkpt>
      <trkpt lat="43.52512" lon="2.46129">
        <ele>581.556</ele>
        <time>2021-05-22T14:33:37Z</time>
      </trkpt>
      <trkpt lat="43.52512" lon="2.46129">
        <ele>581.556</ele>
        <time>2021-05-22T14:33:39Z</time>
      </trkpt>
      <trkpt lat="43.52512" lon="2.46129">
        <ele>581.464</ele>
        <time>2021-05-22T14:33:41Z</time>
      </trkpt>
      <trkpt lat="43.52512" lon="2.46129">
        <ele>581.47</ele>
        <time>2021-05-22T14:33:43Z</time>
      </trkpt>
      <trkpt lat="43.52512" lon="2.46129">
        <ele>581.472</ele>
        <time>2021-05-22T14:33:45Z</time>
      </trkpt>
      <trkpt lat="43.52512" lon="2.46129">
        <ele>581.474</ele>
        <time>2021-05-22T14:33:47Z</time>
      </trkpt>
      <trkpt lat="43.52512" lon="2.46129">
        <ele>580.87</ele>
        <time>2021-05-22T14:33:49Z</time>
      </trkpt>
      <trkpt lat="43.52512" lon="2.46128">
        <ele>580.705</ele>
        <time>2021-05-22T14:33:51Z</time>
      </trkpt>
      <trkpt lat="43.52511" lon="2.4613">
        <ele>580.283</ele>
        <time>2021-05-22T14:33:53Z</time>
      </trkpt>
      <trkpt lat="43.52511" lon="2.4613">
        <ele>580.281</ele>
        <time>2021-05-22T14:33:55Z</time>
      </trkpt>
      <trkpt lat="43.52511" lon="2.4613">
        <ele>580.281</ele>
        <time>2021-05-22T14:33:57Z</time>
      </trkpt>
      <trkpt lat="43.52511" lon="2.4613">
        <ele>580.282</ele>
        <time>2021-05-22T14:33:59Z</time>
      </trkpt>
      <trkpt lat="43.52511" lon="2.4613">
        <ele>580.282</ele>
        <time>2021-05-22T14:34:01Z</time>
      </trkpt>
      <trkpt lat="43.52511" lon="2.4613">
        <ele>580.281</ele>
        <time>2021-05-22T14:34:03Z</time>
      </trkpt>
      <trkpt lat="43.52511" lon="2.4613">
        <ele>580.28</ele>
        <time>2021-05-22T14:34:05Z</time>
      </trkpt>
      <trkpt lat="43.52511" lon="2.4613">
        <ele>580.257</ele>
        <time>2021-05-22T14:34:07Z</time>
      </trkpt>
      <trkpt lat="43.52511" lon="2.4613">
        <ele>580.754</ele>
        <time>2021-05-22T14:34:09Z</time>
      </trkpt>
      <trkpt lat="43.52511" lon="2.46129">
        <ele>581.052</ele>
        <time>2021-05-22T14:34:11Z</time>
      </trkpt>
      <trkpt lat="43.52511" lon="2.46129">
        <ele>581.558</ele>
        <time>2021-05-22T14:34:13Z</time>
      </trkpt>
      <trkpt lat="43.52511" lon="2.46129">
        <ele>581.426</ele>
        <time>2021-05-22T14:34:15Z</time>
      </trkpt>
      <trkpt lat="43.52511" lon="2.46129">
        <ele>581.429</ele>
        <time>2021-05-22T14:34:17Z</time>
      </trkpt>
      <trkpt lat="43.52511" lon="2.46129">
        <ele>581.429</ele>
        <time>2021-05-22T14:34:19Z</time>
      </trkpt>
      <trkpt lat="43.52511" lon="2.46129">
        <ele>581.249</ele>
        <time>2021-05-22T14:34:21Z</time>
      </trkpt>
      <trkpt lat="43.52511" lon="2.46129">
        <ele>581.24</ele>
        <time>2021-05-22T14:34:23Z</time>
      </trkpt>
      <trkpt lat="43.52511" lon="2.46129">
        <ele>581.236</ele>
        <time>2021-05-22T14:34:25Z</time>
      </trkpt>
      <trkpt lat="43.52511" lon="2.46129">
        <ele>581.231</ele>
        <time>2021-05-22T14:34:27Z</time>
      </trkpt>
      <trkpt lat="43.52511" lon="2.46129">
        <ele>581.231</ele>
        <time>2021-05-22T14:34:29Z</time>
      </trkpt>
      <trkpt lat="43.52511" lon="2.46129">
        <ele>581.231</ele>
        <time>2021-05-22T14:34:31Z</time>
      </trkpt>
    </trkseg>
  </trk>
</gpx>